<?xml version="1.0" encoding="UTF-8" standalone="no" ?>
<gpx xmlns="http://www.topografix.com/GPX/1/1" xmlns:xsi="http://www.w3.org/2001/XMLSchema-instance" xsi:schemaLocation="http://www.topografix.com/GPX/1/1 http://www.topografix.com/GPX/1/1/gpx.xsd" version="1.1" creator="VisuGPX - https://www.visugpx.com">
  <metadata>
    <name>E20/20 Le tour du Grand Paris via le GR1 par étapes de 30 km ou + - Ultime étape 20</name>
    <desc><![CDATA[Une étape rallongée du à la perte d'un objet ^^]]></desc>
  </metadata>
  <trk>
    <name><![CDATA[SityTrail - Le tour du grand Paris via le GR1 - Ultime étape]]></name>
    <desc><![CDATA[Une étape rallongée du à la perte d'un objet ^^]]></desc>
    <trkseg>
      <trkpt lat="48.80222" lon="1.8164">
        <ele>94</ele>
        <time>2022-10-03T06:56:12.181Z</time>
      </trkpt>
      <trkpt lat="48.80224" lon="1.8164">
        <ele>94</ele>
        <time>2022-10-03T06:56:13.188Z</time>
      </trkpt>
      <trkpt lat="48.8023" lon="1.81637">
        <ele>94</ele>
        <time>2022-10-03T06:56:18.195Z</time>
      </trkpt>
      <trkpt lat="48.80236" lon="1.81634">
        <ele>94</ele>
        <time>2022-10-03T06:56:22.209Z</time>
      </trkpt>
      <trkpt lat="48.80242" lon="1.81632">
        <ele>94</ele>
        <time>2022-10-03T06:56:27.204Z</time>
      </trkpt>
      <trkpt lat="48.80246" lon="1.81625">
        <ele>94</ele>
        <time>2022-10-03T06:56:31.203Z</time>
      </trkpt>
      <trkpt lat="48.80253" lon="1.81617">
        <ele>95</ele>
        <time>2022-10-03T06:56:36.215Z</time>
      </trkpt>
      <trkpt lat="48.80261" lon="1.81612">
        <ele>95</ele>
        <time>2022-10-03T06:56:41.202Z</time>
      </trkpt>
      <trkpt lat="48.80269" lon="1.81599">
        <ele>94</ele>
        <time>2022-10-03T06:56:46.205Z</time>
      </trkpt>
      <trkpt lat="48.80277" lon="1.81598">
        <ele>94</ele>
        <time>2022-10-03T06:56:51.200Z</time>
      </trkpt>
      <trkpt lat="48.8028" lon="1.81589">
        <ele>95</ele>
        <time>2022-10-03T06:56:56.201Z</time>
      </trkpt>
      <trkpt lat="48.80282" lon="1.81579">
        <ele>95</ele>
        <time>2022-10-03T06:57:01.189Z</time>
      </trkpt>
      <trkpt lat="48.80287" lon="1.81576">
        <ele>95</ele>
        <time>2022-10-03T06:57:06.197Z</time>
      </trkpt>
      <trkpt lat="48.80289" lon="1.81571">
        <ele>95</ele>
        <time>2022-10-03T06:57:10.213Z</time>
      </trkpt>
      <trkpt lat="48.80295" lon="1.81566">
        <ele>95</ele>
        <time>2022-10-03T06:57:15.197Z</time>
      </trkpt>
      <trkpt lat="48.80301" lon="1.81565">
        <ele>95</ele>
        <time>2022-10-03T06:57:19.213Z</time>
      </trkpt>
      <trkpt lat="48.80307" lon="1.81564">
        <ele>95</ele>
        <time>2022-10-03T06:57:24.216Z</time>
      </trkpt>
      <trkpt lat="48.80314" lon="1.81563">
        <ele>95</ele>
        <time>2022-10-03T06:57:29.198Z</time>
      </trkpt>
      <trkpt lat="48.80321" lon="1.81562">
        <ele>94</ele>
        <time>2022-10-03T06:57:34.183Z</time>
      </trkpt>
      <trkpt lat="48.80328" lon="1.81562">
        <ele>94</ele>
        <time>2022-10-03T06:57:38.212Z</time>
      </trkpt>
      <trkpt lat="48.80335" lon="1.81565">
        <ele>94</ele>
        <time>2022-10-03T06:57:43.206Z</time>
      </trkpt>
      <trkpt lat="48.80339" lon="1.8157">
        <ele>92</ele>
        <time>2022-10-03T06:57:47.174Z</time>
      </trkpt>
      <trkpt lat="48.80339" lon="1.81578">
        <ele>92</ele>
        <time>2022-10-03T06:57:52.223Z</time>
      </trkpt>
      <trkpt lat="48.80342" lon="1.81583">
        <ele>92</ele>
        <time>2022-10-03T06:57:57.188Z</time>
      </trkpt>
      <trkpt lat="48.80345" lon="1.81587">
        <ele>92</ele>
        <time>2022-10-03T06:58:01.197Z</time>
      </trkpt>
      <trkpt lat="48.80345" lon="1.81591">
        <ele>92</ele>
        <time>2022-10-03T06:58:06.218Z</time>
      </trkpt>
      <trkpt lat="48.80347" lon="1.81599">
        <ele>91</ele>
        <time>2022-10-03T06:58:11.201Z</time>
      </trkpt>
      <trkpt lat="48.80347" lon="1.81608">
        <ele>91</ele>
        <time>2022-10-03T06:58:16.178Z</time>
      </trkpt>
      <trkpt lat="48.80349" lon="1.81614">
        <ele>91</ele>
        <time>2022-10-03T06:58:20.189Z</time>
      </trkpt>
      <trkpt lat="48.80351" lon="1.81621">
        <ele>91</ele>
        <time>2022-10-03T06:58:24.200Z</time>
      </trkpt>
      <trkpt lat="48.8035" lon="1.81628">
        <ele>92</ele>
        <time>2022-10-03T06:58:28.233Z</time>
      </trkpt>
      <trkpt lat="48.80347" lon="1.81638">
        <ele>92</ele>
        <time>2022-10-03T06:58:33.214Z</time>
      </trkpt>
      <trkpt lat="48.80343" lon="1.81649">
        <ele>91</ele>
        <time>2022-10-03T06:58:38.218Z</time>
      </trkpt>
      <trkpt lat="48.80339" lon="1.81659">
        <ele>92</ele>
        <time>2022-10-03T06:58:43.202Z</time>
      </trkpt>
      <trkpt lat="48.80338" lon="1.81665">
        <ele>92</ele>
        <time>2022-10-03T06:58:47.196Z</time>
      </trkpt>
      <trkpt lat="48.80337" lon="1.81678">
        <ele>92</ele>
        <time>2022-10-03T06:58:52.224Z</time>
      </trkpt>
      <trkpt lat="48.80338" lon="1.81691">
        <ele>92</ele>
        <time>2022-10-03T06:58:57.201Z</time>
      </trkpt>
      <trkpt lat="48.80337" lon="1.81699">
        <ele>92</ele>
        <time>2022-10-03T06:59:02.209Z</time>
      </trkpt>
      <trkpt lat="48.80335" lon="1.81706">
        <ele>92</ele>
        <time>2022-10-03T06:59:07.193Z</time>
      </trkpt>
      <trkpt lat="48.80333" lon="1.81714">
        <ele>93</ele>
        <time>2022-10-03T06:59:12.191Z</time>
      </trkpt>
      <trkpt lat="48.80332" lon="1.81722">
        <ele>93</ele>
        <time>2022-10-03T06:59:16.239Z</time>
      </trkpt>
      <trkpt lat="48.8033" lon="1.8173">
        <ele>93</ele>
        <time>2022-10-03T06:59:21.192Z</time>
      </trkpt>
      <trkpt lat="48.80326" lon="1.81741">
        <ele>93</ele>
        <time>2022-10-03T06:59:26.204Z</time>
      </trkpt>
      <trkpt lat="48.80324" lon="1.81749">
        <ele>93</ele>
        <time>2022-10-03T06:59:30.234Z</time>
      </trkpt>
      <trkpt lat="48.80322" lon="1.81756">
        <ele>93</ele>
        <time>2022-10-03T06:59:34.232Z</time>
      </trkpt>
      <trkpt lat="48.80318" lon="1.81765">
        <ele>93</ele>
        <time>2022-10-03T06:59:39.203Z</time>
      </trkpt>
      <trkpt lat="48.80315" lon="1.81776">
        <ele>93</ele>
        <time>2022-10-03T06:59:44.224Z</time>
      </trkpt>
      <trkpt lat="48.80312" lon="1.81786">
        <ele>93</ele>
        <time>2022-10-03T06:59:49.203Z</time>
      </trkpt>
      <trkpt lat="48.80308" lon="1.81797">
        <ele>92</ele>
        <time>2022-10-03T06:59:54.225Z</time>
      </trkpt>
      <trkpt lat="48.80305" lon="1.81807">
        <ele>92</ele>
        <time>2022-10-03T06:59:59.201Z</time>
      </trkpt>
      <trkpt lat="48.80302" lon="1.81819">
        <ele>92</ele>
        <time>2022-10-03T07:00:04.236Z</time>
      </trkpt>
      <trkpt lat="48.80299" lon="1.8183">
        <ele>91</ele>
        <time>2022-10-03T07:00:09.180Z</time>
      </trkpt>
      <trkpt lat="48.80296" lon="1.81838">
        <ele>91</ele>
        <time>2022-10-03T07:00:13.199Z</time>
      </trkpt>
      <trkpt lat="48.80295" lon="1.81847">
        <ele>91</ele>
        <time>2022-10-03T07:00:18.226Z</time>
      </trkpt>
      <trkpt lat="48.80292" lon="1.81855">
        <ele>90</ele>
        <time>2022-10-03T07:00:23.200Z</time>
      </trkpt>
      <trkpt lat="48.80289" lon="1.81866">
        <ele>90</ele>
        <time>2022-10-03T07:00:28.198Z</time>
      </trkpt>
      <trkpt lat="48.80288" lon="1.81873">
        <ele>90</ele>
        <time>2022-10-03T07:00:32.216Z</time>
      </trkpt>
      <trkpt lat="48.80287" lon="1.81883">
        <ele>90</ele>
        <time>2022-10-03T07:00:36.221Z</time>
      </trkpt>
      <trkpt lat="48.80286" lon="1.81894">
        <ele>90</ele>
        <time>2022-10-03T07:00:41.202Z</time>
      </trkpt>
      <trkpt lat="48.80283" lon="1.81903">
        <ele>90</ele>
        <time>2022-10-03T07:00:46.229Z</time>
      </trkpt>
      <trkpt lat="48.8028" lon="1.81911">
        <ele>90</ele>
        <time>2022-10-03T07:00:51.176Z</time>
      </trkpt>
      <trkpt lat="48.80278" lon="1.8192">
        <ele>90</ele>
        <time>2022-10-03T07:00:55.203Z</time>
      </trkpt>
      <trkpt lat="48.80277" lon="1.81929">
        <ele>90</ele>
        <time>2022-10-03T07:00:59.204Z</time>
      </trkpt>
      <trkpt lat="48.80276" lon="1.81939">
        <ele>89</ele>
        <time>2022-10-03T07:01:04.180Z</time>
      </trkpt>
      <trkpt lat="48.80275" lon="1.81948">
        <ele>89</ele>
        <time>2022-10-03T07:01:08.216Z</time>
      </trkpt>
      <trkpt lat="48.80274" lon="1.81957">
        <ele>89</ele>
        <time>2022-10-03T07:01:12.223Z</time>
      </trkpt>
      <trkpt lat="48.80272" lon="1.81965">
        <ele>88</ele>
        <time>2022-10-03T07:01:17.203Z</time>
      </trkpt>
      <trkpt lat="48.80269" lon="1.81976">
        <ele>88</ele>
        <time>2022-10-03T07:01:22.207Z</time>
      </trkpt>
      <trkpt lat="48.80267" lon="1.81986">
        <ele>88</ele>
        <time>2022-10-03T07:01:27.200Z</time>
      </trkpt>
      <trkpt lat="48.80265" lon="1.81997">
        <ele>88</ele>
        <time>2022-10-03T07:01:32.177Z</time>
      </trkpt>
      <trkpt lat="48.80263" lon="1.82009">
        <ele>89</ele>
        <time>2022-10-03T07:01:37.175Z</time>
      </trkpt>
      <trkpt lat="48.80262" lon="1.82022">
        <ele>88</ele>
        <time>2022-10-03T07:01:42.170Z</time>
      </trkpt>
      <trkpt lat="48.80261" lon="1.82027">
        <ele>88</ele>
        <time>2022-10-03T07:01:46.193Z</time>
      </trkpt>
      <trkpt lat="48.80258" lon="1.82037">
        <ele>88</ele>
        <time>2022-10-03T07:01:51.191Z</time>
      </trkpt>
      <trkpt lat="48.80258" lon="1.82045">
        <ele>88</ele>
        <time>2022-10-03T07:01:55.191Z</time>
      </trkpt>
      <trkpt lat="48.80256" lon="1.82056">
        <ele>88</ele>
        <time>2022-10-03T07:02:00.177Z</time>
      </trkpt>
      <trkpt lat="48.80254" lon="1.82066">
        <ele>88</ele>
        <time>2022-10-03T07:02:05.175Z</time>
      </trkpt>
      <trkpt lat="48.80253" lon="1.82075">
        <ele>89</ele>
        <time>2022-10-03T07:02:09.185Z</time>
      </trkpt>
      <trkpt lat="48.80253" lon="1.82085">
        <ele>89</ele>
        <time>2022-10-03T07:02:14.221Z</time>
      </trkpt>
      <trkpt lat="48.80252" lon="1.82096">
        <ele>89</ele>
        <time>2022-10-03T07:02:19.193Z</time>
      </trkpt>
      <trkpt lat="48.8025" lon="1.82106">
        <ele>89</ele>
        <time>2022-10-03T07:02:24.197Z</time>
      </trkpt>
      <trkpt lat="48.80249" lon="1.82113">
        <ele>89</ele>
        <time>2022-10-03T07:02:28.213Z</time>
      </trkpt>
      <trkpt lat="48.80248" lon="1.82123">
        <ele>89</ele>
        <time>2022-10-03T07:02:33.205Z</time>
      </trkpt>
      <trkpt lat="48.80247" lon="1.82134">
        <ele>89</ele>
        <time>2022-10-03T07:02:38.216Z</time>
      </trkpt>
      <trkpt lat="48.80246" lon="1.82142">
        <ele>89</ele>
        <time>2022-10-03T07:02:42.234Z</time>
      </trkpt>
      <trkpt lat="48.80245" lon="1.82154">
        <ele>89</ele>
        <time>2022-10-03T07:02:47.187Z</time>
      </trkpt>
      <trkpt lat="48.80245" lon="1.82162">
        <ele>89</ele>
        <time>2022-10-03T07:02:51.195Z</time>
      </trkpt>
      <trkpt lat="48.80245" lon="1.82172">
        <ele>89</ele>
        <time>2022-10-03T07:02:56.213Z</time>
      </trkpt>
      <trkpt lat="48.80245" lon="1.82183">
        <ele>88</ele>
        <time>2022-10-03T07:03:01.198Z</time>
      </trkpt>
      <trkpt lat="48.80246" lon="1.82193">
        <ele>88</ele>
        <time>2022-10-03T07:03:05.203Z</time>
      </trkpt>
      <trkpt lat="48.80247" lon="1.82203">
        <ele>88</ele>
        <time>2022-10-03T07:03:10.208Z</time>
      </trkpt>
      <trkpt lat="48.80247" lon="1.82212">
        <ele>88</ele>
        <time>2022-10-03T07:03:14.238Z</time>
      </trkpt>
      <trkpt lat="48.80248" lon="1.82224">
        <ele>88</ele>
        <time>2022-10-03T07:03:19.197Z</time>
      </trkpt>
      <trkpt lat="48.80248" lon="1.82232">
        <ele>88</ele>
        <time>2022-10-03T07:03:23.205Z</time>
      </trkpt>
      <trkpt lat="48.80248" lon="1.82242">
        <ele>88</ele>
        <time>2022-10-03T07:03:28.213Z</time>
      </trkpt>
      <trkpt lat="48.80248" lon="1.82254">
        <ele>88</ele>
        <time>2022-10-03T07:03:33.215Z</time>
      </trkpt>
      <trkpt lat="48.80248" lon="1.82263">
        <ele>88</ele>
        <time>2022-10-03T07:03:38.214Z</time>
      </trkpt>
      <trkpt lat="48.80248" lon="1.82271">
        <ele>88</ele>
        <time>2022-10-03T07:03:42.235Z</time>
      </trkpt>
      <trkpt lat="48.80247" lon="1.82281">
        <ele>88</ele>
        <time>2022-10-03T07:03:47.183Z</time>
      </trkpt>
      <trkpt lat="48.80247" lon="1.82289">
        <ele>88</ele>
        <time>2022-10-03T07:03:51.205Z</time>
      </trkpt>
      <trkpt lat="48.80246" lon="1.82298">
        <ele>88</ele>
        <time>2022-10-03T07:03:55.215Z</time>
      </trkpt>
      <trkpt lat="48.80246" lon="1.82307">
        <ele>88</ele>
        <time>2022-10-03T07:03:59.222Z</time>
      </trkpt>
      <trkpt lat="48.80247" lon="1.82317">
        <ele>88</ele>
        <time>2022-10-03T07:04:04.214Z</time>
      </trkpt>
      <trkpt lat="48.80247" lon="1.82327">
        <ele>88</ele>
        <time>2022-10-03T07:04:08.217Z</time>
      </trkpt>
      <trkpt lat="48.80249" lon="1.82337">
        <ele>88</ele>
        <time>2022-10-03T07:04:13.181Z</time>
      </trkpt>
      <trkpt lat="48.80249" lon="1.82344">
        <ele>88</ele>
        <time>2022-10-03T07:04:17.202Z</time>
      </trkpt>
      <trkpt lat="48.80249" lon="1.82355">
        <ele>88</ele>
        <time>2022-10-03T07:04:22.214Z</time>
      </trkpt>
      <trkpt lat="48.80249" lon="1.82367">
        <ele>88</ele>
        <time>2022-10-03T07:04:27.202Z</time>
      </trkpt>
      <trkpt lat="48.80249" lon="1.82377">
        <ele>88</ele>
        <time>2022-10-03T07:04:32.212Z</time>
      </trkpt>
      <trkpt lat="48.80248" lon="1.82385">
        <ele>88</ele>
        <time>2022-10-03T07:04:36.226Z</time>
      </trkpt>
      <trkpt lat="48.80249" lon="1.82398">
        <ele>88</ele>
        <time>2022-10-03T07:04:41.180Z</time>
      </trkpt>
      <trkpt lat="48.8025" lon="1.82406">
        <ele>88</ele>
        <time>2022-10-03T07:04:45.202Z</time>
      </trkpt>
      <trkpt lat="48.80251" lon="1.82416">
        <ele>88</ele>
        <time>2022-10-03T07:04:50.213Z</time>
      </trkpt>
      <trkpt lat="48.80251" lon="1.82423">
        <ele>88</ele>
        <time>2022-10-03T07:04:54.222Z</time>
      </trkpt>
      <trkpt lat="48.80251" lon="1.82432">
        <ele>88</ele>
        <time>2022-10-03T07:04:59.198Z</time>
      </trkpt>
      <trkpt lat="48.8025" lon="1.8244">
        <ele>88</ele>
        <time>2022-10-03T07:05:03.199Z</time>
      </trkpt>
      <trkpt lat="48.8025" lon="1.82448">
        <ele>88</ele>
        <time>2022-10-03T07:05:07.202Z</time>
      </trkpt>
      <trkpt lat="48.80251" lon="1.82457">
        <ele>88</ele>
        <time>2022-10-03T07:05:12.199Z</time>
      </trkpt>
      <trkpt lat="48.80252" lon="1.82465">
        <ele>88</ele>
        <time>2022-10-03T07:05:16.243Z</time>
      </trkpt>
      <trkpt lat="48.80252" lon="1.82475">
        <ele>88</ele>
        <time>2022-10-03T07:05:21.193Z</time>
      </trkpt>
      <trkpt lat="48.80254" lon="1.82483">
        <ele>88</ele>
        <time>2022-10-03T07:05:25.204Z</time>
      </trkpt>
      <trkpt lat="48.80255" lon="1.82492">
        <ele>88</ele>
        <time>2022-10-03T07:05:29.207Z</time>
      </trkpt>
      <trkpt lat="48.80258" lon="1.82501">
        <ele>88</ele>
        <time>2022-10-03T07:05:34.229Z</time>
      </trkpt>
      <trkpt lat="48.80261" lon="1.8251">
        <ele>88</ele>
        <time>2022-10-03T07:05:39.203Z</time>
      </trkpt>
      <trkpt lat="48.80263" lon="1.8252">
        <ele>88</ele>
        <time>2022-10-03T07:05:44.184Z</time>
      </trkpt>
      <trkpt lat="48.80268" lon="1.82528">
        <ele>88</ele>
        <time>2022-10-03T07:05:49.185Z</time>
      </trkpt>
      <trkpt lat="48.80271" lon="1.82537">
        <ele>88</ele>
        <time>2022-10-03T07:05:54.175Z</time>
      </trkpt>
      <trkpt lat="48.80274" lon="1.82543">
        <ele>88</ele>
        <time>2022-10-03T07:05:58.212Z</time>
      </trkpt>
      <trkpt lat="48.80278" lon="1.8255">
        <ele>88</ele>
        <time>2022-10-03T07:06:02.205Z</time>
      </trkpt>
      <trkpt lat="48.80281" lon="1.82559">
        <ele>88</ele>
        <time>2022-10-03T07:06:07.197Z</time>
      </trkpt>
      <trkpt lat="48.80284" lon="1.82568">
        <ele>88</ele>
        <time>2022-10-03T07:06:12.208Z</time>
      </trkpt>
      <trkpt lat="48.80288" lon="1.82577">
        <ele>88</ele>
        <time>2022-10-03T07:06:17.185Z</time>
      </trkpt>
      <trkpt lat="48.8029" lon="1.82584">
        <ele>88</ele>
        <time>2022-10-03T07:06:21.212Z</time>
      </trkpt>
      <trkpt lat="48.80293" lon="1.82593">
        <ele>89</ele>
        <time>2022-10-03T07:06:26.203Z</time>
      </trkpt>
      <trkpt lat="48.80295" lon="1.82603">
        <ele>88</ele>
        <time>2022-10-03T07:06:31.190Z</time>
      </trkpt>
      <trkpt lat="48.80296" lon="1.8261">
        <ele>88</ele>
        <time>2022-10-03T07:06:35.215Z</time>
      </trkpt>
      <trkpt lat="48.80299" lon="1.82619">
        <ele>88</ele>
        <time>2022-10-03T07:06:40.209Z</time>
      </trkpt>
      <trkpt lat="48.80304" lon="1.82626">
        <ele>89</ele>
        <time>2022-10-03T07:06:45.197Z</time>
      </trkpt>
      <trkpt lat="48.8031" lon="1.82633">
        <ele>89</ele>
        <time>2022-10-03T07:06:50.223Z</time>
      </trkpt>
      <trkpt lat="48.80314" lon="1.82637">
        <ele>89</ele>
        <time>2022-10-03T07:06:54.230Z</time>
      </trkpt>
      <trkpt lat="48.8032" lon="1.8264">
        <ele>88</ele>
        <time>2022-10-03T07:06:59.207Z</time>
      </trkpt>
      <trkpt lat="48.80327" lon="1.82645">
        <ele>88</ele>
        <time>2022-10-03T07:07:04.176Z</time>
      </trkpt>
      <trkpt lat="48.80332" lon="1.82647">
        <ele>88</ele>
        <time>2022-10-03T07:07:08.221Z</time>
      </trkpt>
      <trkpt lat="48.80337" lon="1.82651">
        <ele>88</ele>
        <time>2022-10-03T07:07:13.181Z</time>
      </trkpt>
      <trkpt lat="48.80343" lon="1.82656">
        <ele>88</ele>
        <time>2022-10-03T07:07:17.230Z</time>
      </trkpt>
      <trkpt lat="48.80349" lon="1.82661">
        <ele>87</ele>
        <time>2022-10-03T07:07:22.175Z</time>
      </trkpt>
      <trkpt lat="48.80355" lon="1.82665">
        <ele>87</ele>
        <time>2022-10-03T07:07:26.183Z</time>
      </trkpt>
      <trkpt lat="48.8036" lon="1.82668">
        <ele>87</ele>
        <time>2022-10-03T07:07:30.219Z</time>
      </trkpt>
      <trkpt lat="48.80368" lon="1.82669">
        <ele>87</ele>
        <time>2022-10-03T07:07:35.213Z</time>
      </trkpt>
      <trkpt lat="48.80376" lon="1.8267">
        <ele>87</ele>
        <time>2022-10-03T07:07:40.208Z</time>
      </trkpt>
      <trkpt lat="48.80384" lon="1.82671">
        <ele>87</ele>
        <time>2022-10-03T07:07:45.205Z</time>
      </trkpt>
      <trkpt lat="48.8039" lon="1.82671">
        <ele>87</ele>
        <time>2022-10-03T07:07:49.210Z</time>
      </trkpt>
      <trkpt lat="48.80396" lon="1.82671">
        <ele>87</ele>
        <time>2022-10-03T07:07:53.217Z</time>
      </trkpt>
      <trkpt lat="48.80402" lon="1.82671">
        <ele>87</ele>
        <time>2022-10-03T07:07:58.177Z</time>
      </trkpt>
      <trkpt lat="48.80409" lon="1.8267">
        <ele>87</ele>
        <time>2022-10-03T07:08:03.236Z</time>
      </trkpt>
      <trkpt lat="48.80415" lon="1.82669">
        <ele>87</ele>
        <time>2022-10-03T07:08:07.204Z</time>
      </trkpt>
      <trkpt lat="48.80423" lon="1.82667">
        <ele>87</ele>
        <time>2022-10-03T07:08:12.202Z</time>
      </trkpt>
      <trkpt lat="48.80428" lon="1.82667">
        <ele>87</ele>
        <time>2022-10-03T07:08:16.207Z</time>
      </trkpt>
      <trkpt lat="48.80434" lon="1.82666">
        <ele>87</ele>
        <time>2022-10-03T07:08:20.231Z</time>
      </trkpt>
      <trkpt lat="48.80441" lon="1.82666">
        <ele>87</ele>
        <time>2022-10-03T07:08:25.219Z</time>
      </trkpt>
      <trkpt lat="48.80447" lon="1.82666">
        <ele>87</ele>
        <time>2022-10-03T07:08:29.219Z</time>
      </trkpt>
      <trkpt lat="48.80452" lon="1.82666">
        <ele>87</ele>
        <time>2022-10-03T07:08:33.223Z</time>
      </trkpt>
      <trkpt lat="48.80458" lon="1.82667">
        <ele>87</ele>
        <time>2022-10-03T07:08:37.222Z</time>
      </trkpt>
      <trkpt lat="48.80466" lon="1.82668">
        <ele>87</ele>
        <time>2022-10-03T07:08:42.231Z</time>
      </trkpt>
      <trkpt lat="48.80473" lon="1.82671">
        <ele>87</ele>
        <time>2022-10-03T07:08:47.218Z</time>
      </trkpt>
      <trkpt lat="48.8048" lon="1.82674">
        <ele>87</ele>
        <time>2022-10-03T07:08:52.211Z</time>
      </trkpt>
      <trkpt lat="48.80485" lon="1.82678">
        <ele>87</ele>
        <time>2022-10-03T07:08:56.212Z</time>
      </trkpt>
      <trkpt lat="48.80492" lon="1.82682">
        <ele>85</ele>
        <time>2022-10-03T07:09:01.216Z</time>
      </trkpt>
      <trkpt lat="48.80497" lon="1.82687">
        <ele>85</ele>
        <time>2022-10-03T07:09:05.223Z</time>
      </trkpt>
      <trkpt lat="48.80504" lon="1.82693">
        <ele>85</ele>
        <time>2022-10-03T07:09:10.213Z</time>
      </trkpt>
      <trkpt lat="48.80511" lon="1.82698">
        <ele>85</ele>
        <time>2022-10-03T07:09:15.208Z</time>
      </trkpt>
      <trkpt lat="48.80517" lon="1.82705">
        <ele>85</ele>
        <time>2022-10-03T07:09:20.215Z</time>
      </trkpt>
      <trkpt lat="48.80523" lon="1.82712">
        <ele>84</ele>
        <time>2022-10-03T07:09:25.219Z</time>
      </trkpt>
      <trkpt lat="48.80529" lon="1.8272">
        <ele>84</ele>
        <time>2022-10-03T07:09:30.228Z</time>
      </trkpt>
      <trkpt lat="48.80533" lon="1.82728">
        <ele>84</ele>
        <time>2022-10-03T07:09:35.197Z</time>
      </trkpt>
      <trkpt lat="48.80537" lon="1.82735">
        <ele>84</ele>
        <time>2022-10-03T07:09:39.217Z</time>
      </trkpt>
      <trkpt lat="48.80541" lon="1.82743">
        <ele>85</ele>
        <time>2022-10-03T07:09:44.216Z</time>
      </trkpt>
      <trkpt lat="48.80545" lon="1.82751">
        <ele>85</ele>
        <time>2022-10-03T07:09:49.212Z</time>
      </trkpt>
      <trkpt lat="48.80549" lon="1.8276">
        <ele>85</ele>
        <time>2022-10-03T07:09:54.233Z</time>
      </trkpt>
      <trkpt lat="48.80552" lon="1.82769">
        <ele>85</ele>
        <time>2022-10-03T07:09:59.183Z</time>
      </trkpt>
      <trkpt lat="48.80555" lon="1.82778">
        <ele>85</ele>
        <time>2022-10-03T07:10:03.198Z</time>
      </trkpt>
      <trkpt lat="48.80556" lon="1.82787">
        <ele>85</ele>
        <time>2022-10-03T07:10:07.225Z</time>
      </trkpt>
      <trkpt lat="48.80559" lon="1.82796">
        <ele>85</ele>
        <time>2022-10-03T07:10:12.206Z</time>
      </trkpt>
      <trkpt lat="48.80563" lon="1.82804">
        <ele>85</ele>
        <time>2022-10-03T07:10:16.208Z</time>
      </trkpt>
      <trkpt lat="48.80566" lon="1.82812">
        <ele>85</ele>
        <time>2022-10-03T07:10:20.215Z</time>
      </trkpt>
      <trkpt lat="48.80569" lon="1.82821">
        <ele>84</ele>
        <time>2022-10-03T07:10:25.207Z</time>
      </trkpt>
      <trkpt lat="48.80573" lon="1.82827">
        <ele>84</ele>
        <time>2022-10-03T07:10:29.215Z</time>
      </trkpt>
      <trkpt lat="48.80579" lon="1.82833">
        <ele>84</ele>
        <time>2022-10-03T07:10:34.226Z</time>
      </trkpt>
      <trkpt lat="48.80585" lon="1.82838">
        <ele>84</ele>
        <time>2022-10-03T07:10:39.211Z</time>
      </trkpt>
      <trkpt lat="48.8059" lon="1.82843">
        <ele>84</ele>
        <time>2022-10-03T07:10:43.218Z</time>
      </trkpt>
      <trkpt lat="48.80595" lon="1.82847">
        <ele>84</ele>
        <time>2022-10-03T07:10:47.223Z</time>
      </trkpt>
      <trkpt lat="48.80602" lon="1.82851">
        <ele>84</ele>
        <time>2022-10-03T07:10:52.222Z</time>
      </trkpt>
      <trkpt lat="48.80608" lon="1.82857">
        <ele>84</ele>
        <time>2022-10-03T07:10:57.213Z</time>
      </trkpt>
      <trkpt lat="48.80613" lon="1.82861">
        <ele>84</ele>
        <time>2022-10-03T07:11:01.219Z</time>
      </trkpt>
      <trkpt lat="48.80619" lon="1.82866">
        <ele>84</ele>
        <time>2022-10-03T07:11:06.203Z</time>
      </trkpt>
      <trkpt lat="48.80623" lon="1.82871">
        <ele>84</ele>
        <time>2022-10-03T07:11:10.255Z</time>
      </trkpt>
      <trkpt lat="48.80629" lon="1.82876">
        <ele>84</ele>
        <time>2022-10-03T07:11:15.203Z</time>
      </trkpt>
      <trkpt lat="48.80635" lon="1.8288">
        <ele>84</ele>
        <time>2022-10-03T07:11:19.232Z</time>
      </trkpt>
      <trkpt lat="48.80641" lon="1.82885">
        <ele>84</ele>
        <time>2022-10-03T07:11:24.246Z</time>
      </trkpt>
      <trkpt lat="48.80647" lon="1.82891">
        <ele>84</ele>
        <time>2022-10-03T07:11:29.210Z</time>
      </trkpt>
      <trkpt lat="48.80653" lon="1.82896">
        <ele>84</ele>
        <time>2022-10-03T07:11:34.222Z</time>
      </trkpt>
      <trkpt lat="48.80658" lon="1.829">
        <ele>84</ele>
        <time>2022-10-03T07:11:38.241Z</time>
      </trkpt>
      <trkpt lat="48.80664" lon="1.82905">
        <ele>84</ele>
        <time>2022-10-03T07:11:43.210Z</time>
      </trkpt>
      <trkpt lat="48.8067" lon="1.8291">
        <ele>84</ele>
        <time>2022-10-03T07:11:48.232Z</time>
      </trkpt>
      <trkpt lat="48.80676" lon="1.82915">
        <ele>84</ele>
        <time>2022-10-03T07:11:53.210Z</time>
      </trkpt>
      <trkpt lat="48.80683" lon="1.8292">
        <ele>83</ele>
        <time>2022-10-03T07:11:58.221Z</time>
      </trkpt>
      <trkpt lat="48.80689" lon="1.82924">
        <ele>83</ele>
        <time>2022-10-03T07:12:03.217Z</time>
      </trkpt>
      <trkpt lat="48.80695" lon="1.82929">
        <ele>83</ele>
        <time>2022-10-03T07:12:08.231Z</time>
      </trkpt>
      <trkpt lat="48.80702" lon="1.82935">
        <ele>83</ele>
        <time>2022-10-03T07:12:13.204Z</time>
      </trkpt>
      <trkpt lat="48.80707" lon="1.82939">
        <ele>83</ele>
        <time>2022-10-03T07:12:17.211Z</time>
      </trkpt>
      <trkpt lat="48.80711" lon="1.82942">
        <ele>82</ele>
        <time>2022-10-03T07:12:21.223Z</time>
      </trkpt>
      <trkpt lat="48.80717" lon="1.82947">
        <ele>82</ele>
        <time>2022-10-03T07:12:26.227Z</time>
      </trkpt>
      <trkpt lat="48.80722" lon="1.82951">
        <ele>82</ele>
        <time>2022-10-03T07:12:30.242Z</time>
      </trkpt>
      <trkpt lat="48.80728" lon="1.82956">
        <ele>82</ele>
        <time>2022-10-03T07:12:35.201Z</time>
      </trkpt>
      <trkpt lat="48.80733" lon="1.8296">
        <ele>83</ele>
        <time>2022-10-03T07:12:39.215Z</time>
      </trkpt>
      <trkpt lat="48.80738" lon="1.82964">
        <ele>82</ele>
        <time>2022-10-03T07:12:43.218Z</time>
      </trkpt>
      <trkpt lat="48.80744" lon="1.82969">
        <ele>82</ele>
        <time>2022-10-03T07:12:48.230Z</time>
      </trkpt>
      <trkpt lat="48.8075" lon="1.82974">
        <ele>82</ele>
        <time>2022-10-03T07:12:53.214Z</time>
      </trkpt>
      <trkpt lat="48.80757" lon="1.82977">
        <ele>82</ele>
        <time>2022-10-03T07:12:58.204Z</time>
      </trkpt>
      <trkpt lat="48.80761" lon="1.82983">
        <ele>82</ele>
        <time>2022-10-03T07:13:02.226Z</time>
      </trkpt>
      <trkpt lat="48.80768" lon="1.82988">
        <ele>82</ele>
        <time>2022-10-03T07:13:07.214Z</time>
      </trkpt>
      <trkpt lat="48.80775" lon="1.82993">
        <ele>82</ele>
        <time>2022-10-03T07:13:12.235Z</time>
      </trkpt>
      <trkpt lat="48.8078" lon="1.82999">
        <ele>82</ele>
        <time>2022-10-03T07:13:17.203Z</time>
      </trkpt>
      <trkpt lat="48.80786" lon="1.83004">
        <ele>82</ele>
        <time>2022-10-03T07:13:22.207Z</time>
      </trkpt>
      <trkpt lat="48.80793" lon="1.83009">
        <ele>82</ele>
        <time>2022-10-03T07:13:27.211Z</time>
      </trkpt>
      <trkpt lat="48.80799" lon="1.83015">
        <ele>83</ele>
        <time>2022-10-03T07:13:32.224Z</time>
      </trkpt>
      <trkpt lat="48.80804" lon="1.83018">
        <ele>83</ele>
        <time>2022-10-03T07:13:36.232Z</time>
      </trkpt>
      <trkpt lat="48.80811" lon="1.83023">
        <ele>83</ele>
        <time>2022-10-03T07:13:41.198Z</time>
      </trkpt>
      <trkpt lat="48.80817" lon="1.83029">
        <ele>83</ele>
        <time>2022-10-03T07:13:46.201Z</time>
      </trkpt>
      <trkpt lat="48.80822" lon="1.83033">
        <ele>83</ele>
        <time>2022-10-03T07:13:50.218Z</time>
      </trkpt>
      <trkpt lat="48.80827" lon="1.83037">
        <ele>83</ele>
        <time>2022-10-03T07:13:54.230Z</time>
      </trkpt>
      <trkpt lat="48.80832" lon="1.83041">
        <ele>83</ele>
        <time>2022-10-03T07:13:58.244Z</time>
      </trkpt>
      <trkpt lat="48.80838" lon="1.83047">
        <ele>83</ele>
        <time>2022-10-03T07:14:03.210Z</time>
      </trkpt>
      <trkpt lat="48.80844" lon="1.83051">
        <ele>83</ele>
        <time>2022-10-03T07:14:08.200Z</time>
      </trkpt>
      <trkpt lat="48.80851" lon="1.83055">
        <ele>83</ele>
        <time>2022-10-03T07:14:13.218Z</time>
      </trkpt>
      <trkpt lat="48.80857" lon="1.83061">
        <ele>83</ele>
        <time>2022-10-03T07:14:18.215Z</time>
      </trkpt>
      <trkpt lat="48.80863" lon="1.83066">
        <ele>83</ele>
        <time>2022-10-03T07:14:23.211Z</time>
      </trkpt>
      <trkpt lat="48.80868" lon="1.8307">
        <ele>82</ele>
        <time>2022-10-03T07:14:27.215Z</time>
      </trkpt>
      <trkpt lat="48.80875" lon="1.83075">
        <ele>82</ele>
        <time>2022-10-03T07:14:32.223Z</time>
      </trkpt>
      <trkpt lat="48.8088" lon="1.83079">
        <ele>82</ele>
        <time>2022-10-03T07:14:36.235Z</time>
      </trkpt>
      <trkpt lat="48.80886" lon="1.83084">
        <ele>82</ele>
        <time>2022-10-03T07:14:41.211Z</time>
      </trkpt>
      <trkpt lat="48.80893" lon="1.83089">
        <ele>82</ele>
        <time>2022-10-03T07:14:46.210Z</time>
      </trkpt>
      <trkpt lat="48.80899" lon="1.83094">
        <ele>82</ele>
        <time>2022-10-03T07:14:51.198Z</time>
      </trkpt>
      <trkpt lat="48.80904" lon="1.83098">
        <ele>81</ele>
        <time>2022-10-03T07:14:55.211Z</time>
      </trkpt>
      <trkpt lat="48.8091" lon="1.83104">
        <ele>81</ele>
        <time>2022-10-03T07:15:00.212Z</time>
      </trkpt>
      <trkpt lat="48.80916" lon="1.83109">
        <ele>81</ele>
        <time>2022-10-03T07:15:04.225Z</time>
      </trkpt>
      <trkpt lat="48.8092" lon="1.83112">
        <ele>81</ele>
        <time>2022-10-03T07:15:08.233Z</time>
      </trkpt>
      <trkpt lat="48.80927" lon="1.83117">
        <ele>81</ele>
        <time>2022-10-03T07:15:13.203Z</time>
      </trkpt>
      <trkpt lat="48.80933" lon="1.83122">
        <ele>81</ele>
        <time>2022-10-03T07:15:18.211Z</time>
      </trkpt>
      <trkpt lat="48.80939" lon="1.83126">
        <ele>82</ele>
        <time>2022-10-03T07:15:22.225Z</time>
      </trkpt>
      <trkpt lat="48.80945" lon="1.83131">
        <ele>82</ele>
        <time>2022-10-03T07:15:27.221Z</time>
      </trkpt>
      <trkpt lat="48.8095" lon="1.83136">
        <ele>82</ele>
        <time>2022-10-03T07:15:31.224Z</time>
      </trkpt>
      <trkpt lat="48.80954" lon="1.8314">
        <ele>82</ele>
        <time>2022-10-03T07:15:35.217Z</time>
      </trkpt>
      <trkpt lat="48.80961" lon="1.83145">
        <ele>81</ele>
        <time>2022-10-03T07:15:40.227Z</time>
      </trkpt>
      <trkpt lat="48.80966" lon="1.83149">
        <ele>81</ele>
        <time>2022-10-03T07:15:44.235Z</time>
      </trkpt>
      <trkpt lat="48.80972" lon="1.83154">
        <ele>82</ele>
        <time>2022-10-03T07:15:49.185Z</time>
      </trkpt>
      <trkpt lat="48.80977" lon="1.83159">
        <ele>82</ele>
        <time>2022-10-03T07:15:53.205Z</time>
      </trkpt>
      <trkpt lat="48.80983" lon="1.83164">
        <ele>82</ele>
        <time>2022-10-03T07:15:58.175Z</time>
      </trkpt>
      <trkpt lat="48.80988" lon="1.83167">
        <ele>80</ele>
        <time>2022-10-03T07:16:02.181Z</time>
      </trkpt>
      <trkpt lat="48.80995" lon="1.83172">
        <ele>80</ele>
        <time>2022-10-03T07:16:07.195Z</time>
      </trkpt>
      <trkpt lat="48.81" lon="1.83176">
        <ele>80</ele>
        <time>2022-10-03T07:16:11.197Z</time>
      </trkpt>
      <trkpt lat="48.81006" lon="1.83182">
        <ele>80</ele>
        <time>2022-10-03T07:16:16.215Z</time>
      </trkpt>
      <trkpt lat="48.81012" lon="1.83188">
        <ele>80</ele>
        <time>2022-10-03T07:16:21.181Z</time>
      </trkpt>
      <trkpt lat="48.81017" lon="1.83193">
        <ele>79</ele>
        <time>2022-10-03T07:16:25.192Z</time>
      </trkpt>
      <trkpt lat="48.81023" lon="1.83199">
        <ele>79</ele>
        <time>2022-10-03T07:16:30.195Z</time>
      </trkpt>
      <trkpt lat="48.81028" lon="1.83204">
        <ele>79</ele>
        <time>2022-10-03T07:16:34.222Z</time>
      </trkpt>
      <trkpt lat="48.81034" lon="1.8321">
        <ele>80</ele>
        <time>2022-10-03T07:16:39.218Z</time>
      </trkpt>
      <trkpt lat="48.81039" lon="1.83217">
        <ele>80</ele>
        <time>2022-10-03T07:16:44.216Z</time>
      </trkpt>
      <trkpt lat="48.81044" lon="1.83222">
        <ele>79</ele>
        <time>2022-10-03T07:16:48.219Z</time>
      </trkpt>
      <trkpt lat="48.81048" lon="1.83227">
        <ele>79</ele>
        <time>2022-10-03T07:16:52.228Z</time>
      </trkpt>
      <trkpt lat="48.81054" lon="1.83235">
        <ele>79</ele>
        <time>2022-10-03T07:16:57.211Z</time>
      </trkpt>
      <trkpt lat="48.81059" lon="1.8324">
        <ele>79</ele>
        <time>2022-10-03T07:17:01.229Z</time>
      </trkpt>
      <trkpt lat="48.81064" lon="1.83245">
        <ele>79</ele>
        <time>2022-10-03T07:17:05.224Z</time>
      </trkpt>
      <trkpt lat="48.81071" lon="1.83252">
        <ele>79</ele>
        <time>2022-10-03T07:17:10.177Z</time>
      </trkpt>
      <trkpt lat="48.81075" lon="1.83256">
        <ele>79</ele>
        <time>2022-10-03T07:17:14.227Z</time>
      </trkpt>
      <trkpt lat="48.8108" lon="1.83261">
        <ele>79</ele>
        <time>2022-10-03T07:17:18.228Z</time>
      </trkpt>
      <trkpt lat="48.81086" lon="1.83268">
        <ele>79</ele>
        <time>2022-10-03T07:17:23.230Z</time>
      </trkpt>
      <trkpt lat="48.8109" lon="1.83274">
        <ele>79</ele>
        <time>2022-10-03T07:17:27.225Z</time>
      </trkpt>
      <trkpt lat="48.81096" lon="1.8328">
        <ele>79</ele>
        <time>2022-10-03T07:17:32.220Z</time>
      </trkpt>
      <trkpt lat="48.81103" lon="1.83287">
        <ele>77</ele>
        <time>2022-10-03T07:17:37.237Z</time>
      </trkpt>
      <trkpt lat="48.81108" lon="1.83294">
        <ele>78</ele>
        <time>2022-10-03T07:17:42.244Z</time>
      </trkpt>
      <trkpt lat="48.81114" lon="1.83301">
        <ele>78</ele>
        <time>2022-10-03T07:17:47.236Z</time>
      </trkpt>
      <trkpt lat="48.81121" lon="1.83308">
        <ele>78</ele>
        <time>2022-10-03T07:17:52.218Z</time>
      </trkpt>
      <trkpt lat="48.81125" lon="1.83313">
        <ele>76</ele>
        <time>2022-10-03T07:17:56.229Z</time>
      </trkpt>
      <trkpt lat="48.81132" lon="1.8332">
        <ele>76</ele>
        <time>2022-10-03T07:18:01.232Z</time>
      </trkpt>
      <trkpt lat="48.81137" lon="1.83325">
        <ele>76</ele>
        <time>2022-10-03T07:18:05.233Z</time>
      </trkpt>
      <trkpt lat="48.81141" lon="1.8333">
        <ele>76</ele>
        <time>2022-10-03T07:18:09.234Z</time>
      </trkpt>
      <trkpt lat="48.81148" lon="1.83336">
        <ele>76</ele>
        <time>2022-10-03T07:18:14.197Z</time>
      </trkpt>
      <trkpt lat="48.81154" lon="1.83343">
        <ele>75</ele>
        <time>2022-10-03T07:18:19.214Z</time>
      </trkpt>
      <trkpt lat="48.81158" lon="1.83348">
        <ele>75</ele>
        <time>2022-10-03T07:18:23.222Z</time>
      </trkpt>
      <trkpt lat="48.81165" lon="1.83355">
        <ele>75</ele>
        <time>2022-10-03T07:18:28.196Z</time>
      </trkpt>
      <trkpt lat="48.8117" lon="1.83359">
        <ele>75</ele>
        <time>2022-10-03T07:18:32.221Z</time>
      </trkpt>
      <trkpt lat="48.81175" lon="1.83364">
        <ele>75</ele>
        <time>2022-10-03T07:18:36.221Z</time>
      </trkpt>
      <trkpt lat="48.8118" lon="1.83369">
        <ele>75</ele>
        <time>2022-10-03T07:18:41.200Z</time>
      </trkpt>
      <trkpt lat="48.81185" lon="1.83373">
        <ele>74</ele>
        <time>2022-10-03T07:18:45.223Z</time>
      </trkpt>
      <trkpt lat="48.81189" lon="1.83379">
        <ele>75</ele>
        <time>2022-10-03T07:18:49.223Z</time>
      </trkpt>
      <trkpt lat="48.81193" lon="1.83384">
        <ele>75</ele>
        <time>2022-10-03T07:18:53.227Z</time>
      </trkpt>
      <trkpt lat="48.81198" lon="1.83389">
        <ele>75</ele>
        <time>2022-10-03T07:18:57.231Z</time>
      </trkpt>
      <trkpt lat="48.81205" lon="1.83395">
        <ele>75</ele>
        <time>2022-10-03T07:19:02.227Z</time>
      </trkpt>
      <trkpt lat="48.81209" lon="1.83399">
        <ele>74</ele>
        <time>2022-10-03T07:19:06.230Z</time>
      </trkpt>
      <trkpt lat="48.81214" lon="1.83403">
        <ele>76</ele>
        <time>2022-10-03T07:19:10.225Z</time>
      </trkpt>
      <trkpt lat="48.8122" lon="1.83409">
        <ele>76</ele>
        <time>2022-10-03T07:19:15.224Z</time>
      </trkpt>
      <trkpt lat="48.81224" lon="1.83413">
        <ele>76</ele>
        <time>2022-10-03T07:19:19.236Z</time>
      </trkpt>
      <trkpt lat="48.81231" lon="1.8342">
        <ele>76</ele>
        <time>2022-10-03T07:19:24.213Z</time>
      </trkpt>
      <trkpt lat="48.81238" lon="1.83427">
        <ele>74</ele>
        <time>2022-10-03T07:19:29.239Z</time>
      </trkpt>
      <trkpt lat="48.81244" lon="1.83434">
        <ele>76</ele>
        <time>2022-10-03T07:19:34.227Z</time>
      </trkpt>
      <trkpt lat="48.8125" lon="1.83441">
        <ele>76</ele>
        <time>2022-10-03T07:19:39.235Z</time>
      </trkpt>
      <trkpt lat="48.81256" lon="1.83448">
        <ele>76</ele>
        <time>2022-10-03T07:19:44.243Z</time>
      </trkpt>
      <trkpt lat="48.81262" lon="1.83453">
        <ele>76</ele>
        <time>2022-10-03T07:19:49.207Z</time>
      </trkpt>
      <trkpt lat="48.81268" lon="1.83459">
        <ele>74</ele>
        <time>2022-10-03T07:19:53.231Z</time>
      </trkpt>
      <trkpt lat="48.81273" lon="1.83464">
        <ele>74</ele>
        <time>2022-10-03T07:19:57.228Z</time>
      </trkpt>
      <trkpt lat="48.81279" lon="1.8347">
        <ele>74</ele>
        <time>2022-10-03T07:20:02.232Z</time>
      </trkpt>
      <trkpt lat="48.81285" lon="1.83475">
        <ele>74</ele>
        <time>2022-10-03T07:20:07.244Z</time>
      </trkpt>
      <trkpt lat="48.81292" lon="1.83481">
        <ele>73</ele>
        <time>2022-10-03T07:20:12.181Z</time>
      </trkpt>
      <trkpt lat="48.81294" lon="1.83486">
        <ele>73</ele>
        <time>2022-10-03T07:20:16.178Z</time>
      </trkpt>
      <trkpt lat="48.81301" lon="1.83491">
        <ele>73</ele>
        <time>2022-10-03T07:20:20.179Z</time>
      </trkpt>
      <trkpt lat="48.81307" lon="1.835">
        <ele>73</ele>
        <time>2022-10-03T07:20:25.185Z</time>
      </trkpt>
      <trkpt lat="48.81312" lon="1.83508">
        <ele>73</ele>
        <time>2022-10-03T07:20:30.202Z</time>
      </trkpt>
      <trkpt lat="48.81317" lon="1.83516">
        <ele>73</ele>
        <time>2022-10-03T07:20:35.192Z</time>
      </trkpt>
      <trkpt lat="48.81322" lon="1.83527">
        <ele>72</ele>
        <time>2022-10-03T07:20:40.180Z</time>
      </trkpt>
      <trkpt lat="48.81326" lon="1.83533">
        <ele>72</ele>
        <time>2022-10-03T07:20:45.187Z</time>
      </trkpt>
      <trkpt lat="48.8133" lon="1.83541">
        <ele>72</ele>
        <time>2022-10-03T07:20:50.173Z</time>
      </trkpt>
      <trkpt lat="48.81331" lon="1.83551">
        <ele>72</ele>
        <time>2022-10-03T07:20:54.183Z</time>
      </trkpt>
      <trkpt lat="48.81331" lon="1.83562">
        <ele>72</ele>
        <time>2022-10-03T07:20:59.176Z</time>
      </trkpt>
      <trkpt lat="48.81331" lon="1.83569">
        <ele>72</ele>
        <time>2022-10-03T07:21:03.186Z</time>
      </trkpt>
      <trkpt lat="48.81331" lon="1.83581">
        <ele>72</ele>
        <time>2022-10-03T07:21:07.196Z</time>
      </trkpt>
      <trkpt lat="48.81329" lon="1.83593">
        <ele>72</ele>
        <time>2022-10-03T07:21:12.214Z</time>
      </trkpt>
      <trkpt lat="48.81327" lon="1.83602">
        <ele>72</ele>
        <time>2022-10-03T07:21:17.195Z</time>
      </trkpt>
      <trkpt lat="48.81325" lon="1.83614">
        <ele>72</ele>
        <time>2022-10-03T07:21:22.174Z</time>
      </trkpt>
      <trkpt lat="48.81325" lon="1.83623">
        <ele>72</ele>
        <time>2022-10-03T07:21:26.186Z</time>
      </trkpt>
      <trkpt lat="48.81321" lon="1.83633">
        <ele>71</ele>
        <time>2022-10-03T07:21:31.180Z</time>
      </trkpt>
      <trkpt lat="48.81319" lon="1.83642">
        <ele>71</ele>
        <time>2022-10-03T07:21:36.180Z</time>
      </trkpt>
      <trkpt lat="48.81319" lon="1.83652">
        <ele>74</ele>
        <time>2022-10-03T07:21:41.170Z</time>
      </trkpt>
      <trkpt lat="48.81317" lon="1.83662">
        <ele>73</ele>
        <time>2022-10-03T07:21:46.180Z</time>
      </trkpt>
      <trkpt lat="48.81315" lon="1.83675">
        <ele>73</ele>
        <time>2022-10-03T07:21:51.186Z</time>
      </trkpt>
      <trkpt lat="48.81314" lon="1.83683">
        <ele>73</ele>
        <time>2022-10-03T07:21:55.188Z</time>
      </trkpt>
      <trkpt lat="48.81313" lon="1.83693">
        <ele>73</ele>
        <time>2022-10-03T07:22:00.186Z</time>
      </trkpt>
      <trkpt lat="48.81315" lon="1.83704">
        <ele>73</ele>
        <time>2022-10-03T07:22:05.185Z</time>
      </trkpt>
      <trkpt lat="48.81319" lon="1.83707">
        <ele>73</ele>
        <time>2022-10-03T07:22:09.217Z</time>
      </trkpt>
      <trkpt lat="48.81327" lon="1.83711">
        <ele>70</ele>
        <time>2022-10-03T07:22:14.185Z</time>
      </trkpt>
      <trkpt lat="48.81332" lon="1.83714">
        <ele>70</ele>
        <time>2022-10-03T07:22:18.192Z</time>
      </trkpt>
      <trkpt lat="48.8134" lon="1.83715">
        <ele>70</ele>
        <time>2022-10-03T07:22:23.217Z</time>
      </trkpt>
      <trkpt lat="48.81346" lon="1.83715">
        <ele>70</ele>
        <time>2022-10-03T07:22:28.185Z</time>
      </trkpt>
      <trkpt lat="48.81352" lon="1.83714">
        <ele>70</ele>
        <time>2022-10-03T07:22:33.229Z</time>
      </trkpt>
      <trkpt lat="48.81359" lon="1.83713">
        <ele>70</ele>
        <time>2022-10-03T07:22:38.218Z</time>
      </trkpt>
      <trkpt lat="48.81365" lon="1.83714">
        <ele>70</ele>
        <time>2022-10-03T07:22:43.181Z</time>
      </trkpt>
      <trkpt lat="48.81371" lon="1.83714">
        <ele>70</ele>
        <time>2022-10-03T07:22:47.219Z</time>
      </trkpt>
      <trkpt lat="48.81378" lon="1.83711">
        <ele>68</ele>
        <time>2022-10-03T07:22:51.224Z</time>
      </trkpt>
      <trkpt lat="48.81385" lon="1.83708">
        <ele>68</ele>
        <time>2022-10-03T07:22:56.206Z</time>
      </trkpt>
      <trkpt lat="48.81391" lon="1.83706">
        <ele>68</ele>
        <time>2022-10-03T07:23:01.196Z</time>
      </trkpt>
      <trkpt lat="48.81396" lon="1.83703">
        <ele>68</ele>
        <time>2022-10-03T07:23:05.232Z</time>
      </trkpt>
      <trkpt lat="48.81401" lon="1.83701">
        <ele>68</ele>
        <time>2022-10-03T07:23:09.232Z</time>
      </trkpt>
      <trkpt lat="48.81406" lon="1.83698">
        <ele>66</ele>
        <time>2022-10-03T07:23:13.238Z</time>
      </trkpt>
      <trkpt lat="48.81412" lon="1.83695">
        <ele>66</ele>
        <time>2022-10-03T07:23:17.233Z</time>
      </trkpt>
      <trkpt lat="48.81419" lon="1.83689">
        <ele>66</ele>
        <time>2022-10-03T07:23:22.203Z</time>
      </trkpt>
      <trkpt lat="48.81424" lon="1.83685">
        <ele>66</ele>
        <time>2022-10-03T07:23:26.227Z</time>
      </trkpt>
      <trkpt lat="48.81431" lon="1.83681">
        <ele>68</ele>
        <time>2022-10-03T07:23:31.224Z</time>
      </trkpt>
      <trkpt lat="48.81436" lon="1.83676">
        <ele>69</ele>
        <time>2022-10-03T07:23:36.214Z</time>
      </trkpt>
      <trkpt lat="48.81442" lon="1.83672">
        <ele>69</ele>
        <time>2022-10-03T07:23:40.242Z</time>
      </trkpt>
      <trkpt lat="48.8145" lon="1.83668">
        <ele>69</ele>
        <time>2022-10-03T07:23:45.231Z</time>
      </trkpt>
      <trkpt lat="48.81458" lon="1.83662">
        <ele>69</ele>
        <time>2022-10-03T07:23:50.233Z</time>
      </trkpt>
      <trkpt lat="48.81465" lon="1.83654">
        <ele>71</ele>
        <time>2022-10-03T07:23:55.236Z</time>
      </trkpt>
      <trkpt lat="48.81469" lon="1.83645">
        <ele>72</ele>
        <time>2022-10-03T07:24:00.207Z</time>
      </trkpt>
      <trkpt lat="48.81471" lon="1.83637">
        <ele>72</ele>
        <time>2022-10-03T07:24:04.227Z</time>
      </trkpt>
      <trkpt lat="48.81474" lon="1.83627">
        <ele>72</ele>
        <time>2022-10-03T07:24:09.232Z</time>
      </trkpt>
      <trkpt lat="48.81477" lon="1.83617">
        <ele>72</ele>
        <time>2022-10-03T07:24:14.245Z</time>
      </trkpt>
      <trkpt lat="48.8148" lon="1.83607">
        <ele>72</ele>
        <time>2022-10-03T07:24:19.182Z</time>
      </trkpt>
      <trkpt lat="48.81485" lon="1.83603">
        <ele>72</ele>
        <time>2022-10-03T07:24:23.187Z</time>
      </trkpt>
      <trkpt lat="48.81491" lon="1.83594">
        <ele>73</ele>
        <time>2022-10-03T07:24:28.189Z</time>
      </trkpt>
      <trkpt lat="48.81496" lon="1.83587">
        <ele>73</ele>
        <time>2022-10-03T07:24:33.188Z</time>
      </trkpt>
      <trkpt lat="48.815" lon="1.83577">
        <ele>73</ele>
        <time>2022-10-03T07:24:38.176Z</time>
      </trkpt>
      <trkpt lat="48.81502" lon="1.83569">
        <ele>73</ele>
        <time>2022-10-03T07:24:43.176Z</time>
      </trkpt>
      <trkpt lat="48.81503" lon="1.83563">
        <ele>72</ele>
        <time>2022-10-03T07:24:47.186Z</time>
      </trkpt>
      <trkpt lat="48.81504" lon="1.83549">
        <ele>72</ele>
        <time>2022-10-03T07:24:52.187Z</time>
      </trkpt>
      <trkpt lat="48.81505" lon="1.83542">
        <ele>72</ele>
        <time>2022-10-03T07:24:56.191Z</time>
      </trkpt>
      <trkpt lat="48.81505" lon="1.83531">
        <ele>72</ele>
        <time>2022-10-03T07:25:01.195Z</time>
      </trkpt>
      <trkpt lat="48.81506" lon="1.83519">
        <ele>72</ele>
        <time>2022-10-03T07:25:06.190Z</time>
      </trkpt>
      <trkpt lat="48.81507" lon="1.83507">
        <ele>73</ele>
        <time>2022-10-03T07:25:11.183Z</time>
      </trkpt>
      <trkpt lat="48.81508" lon="1.83498">
        <ele>73</ele>
        <time>2022-10-03T07:25:16.190Z</time>
      </trkpt>
      <trkpt lat="48.81508" lon="1.83487">
        <ele>73</ele>
        <time>2022-10-03T07:25:21.188Z</time>
      </trkpt>
      <trkpt lat="48.81509" lon="1.83479">
        <ele>74</ele>
        <time>2022-10-03T07:25:25.205Z</time>
      </trkpt>
      <trkpt lat="48.81513" lon="1.8347">
        <ele>74</ele>
        <time>2022-10-03T07:25:30.190Z</time>
      </trkpt>
      <trkpt lat="48.81513" lon="1.83458">
        <ele>74</ele>
        <time>2022-10-03T07:25:35.185Z</time>
      </trkpt>
      <trkpt lat="48.81515" lon="1.83446">
        <ele>77</ele>
        <time>2022-10-03T07:25:40.178Z</time>
      </trkpt>
      <trkpt lat="48.81516" lon="1.83441">
        <ele>77</ele>
        <time>2022-10-03T07:25:44.183Z</time>
      </trkpt>
      <trkpt lat="48.8152" lon="1.83439">
        <ele>77</ele>
        <time>2022-10-03T07:25:48.189Z</time>
      </trkpt>
      <trkpt lat="48.81525" lon="1.83437">
        <ele>77</ele>
        <time>2022-10-03T07:25:53.183Z</time>
      </trkpt>
      <trkpt lat="48.8153" lon="1.83435">
        <ele>77</ele>
        <time>2022-10-03T07:25:58.175Z</time>
      </trkpt>
      <trkpt lat="48.81533" lon="1.83436">
        <ele>77</ele>
        <time>2022-10-03T07:26:02.191Z</time>
      </trkpt>
      <trkpt lat="48.81535" lon="1.83436">
        <ele>77</ele>
        <time>2022-10-03T07:26:07.173Z</time>
      </trkpt>
      <trkpt lat="48.81535" lon="1.83441">
        <ele>77</ele>
        <time>2022-10-03T07:26:11.185Z</time>
      </trkpt>
      <trkpt lat="48.81536" lon="1.83447">
        <ele>77</ele>
        <time>2022-10-03T07:26:16.175Z</time>
      </trkpt>
      <trkpt lat="48.8154" lon="1.83452">
        <ele>77</ele>
        <time>2022-10-03T07:26:21.176Z</time>
      </trkpt>
      <trkpt lat="48.8154" lon="1.83451">
        <ele>77</ele>
        <time>2022-10-03T07:26:25.178Z</time>
      </trkpt>
      <trkpt lat="48.81537" lon="1.83449">
        <ele>77</ele>
        <time>2022-10-03T07:26:29.185Z</time>
      </trkpt>
      <trkpt lat="48.81535" lon="1.83451">
        <ele>77</ele>
        <time>2022-10-03T07:26:34.186Z</time>
      </trkpt>
      <trkpt lat="48.81534" lon="1.83449">
        <ele>77</ele>
        <time>2022-10-03T07:26:39.179Z</time>
      </trkpt>
      <trkpt lat="48.81532" lon="1.83444">
        <ele>77</ele>
        <time>2022-10-03T07:26:43.197Z</time>
      </trkpt>
      <trkpt lat="48.81534" lon="1.83436">
        <ele>77</ele>
        <time>2022-10-03T07:26:48.185Z</time>
      </trkpt>
      <trkpt lat="48.81537" lon="1.83433">
        <ele>77</ele>
        <time>2022-10-03T07:26:53.180Z</time>
      </trkpt>
      <trkpt lat="48.81541" lon="1.83437">
        <ele>77</ele>
        <time>2022-10-03T07:26:57.184Z</time>
      </trkpt>
      <trkpt lat="48.81547" lon="1.83436">
        <ele>79</ele>
        <time>2022-10-03T07:27:01.184Z</time>
      </trkpt>
      <trkpt lat="48.81551" lon="1.83435">
        <ele>79</ele>
        <time>2022-10-03T07:27:06.179Z</time>
      </trkpt>
      <trkpt lat="48.81553" lon="1.83433">
        <ele>79</ele>
        <time>2022-10-03T07:27:11.174Z</time>
      </trkpt>
      <trkpt lat="48.81555" lon="1.83434">
        <ele>79</ele>
        <time>2022-10-03T07:27:16.177Z</time>
      </trkpt>
      <trkpt lat="48.8156" lon="1.83429">
        <ele>79</ele>
        <time>2022-10-03T07:27:20.218Z</time>
      </trkpt>
      <trkpt lat="48.81566" lon="1.83424">
        <ele>79</ele>
        <time>2022-10-03T07:27:25.191Z</time>
      </trkpt>
      <trkpt lat="48.81572" lon="1.8342">
        <ele>79</ele>
        <time>2022-10-03T07:27:29.201Z</time>
      </trkpt>
      <trkpt lat="48.81575" lon="1.83417">
        <ele>79</ele>
        <time>2022-10-03T07:27:33.207Z</time>
      </trkpt>
      <trkpt lat="48.81579" lon="1.83422">
        <ele>79</ele>
        <time>2022-10-03T07:27:37.216Z</time>
      </trkpt>
      <trkpt lat="48.81581" lon="1.83431">
        <ele>79</ele>
        <time>2022-10-03T07:27:42.207Z</time>
      </trkpt>
      <trkpt lat="48.81581" lon="1.83441">
        <ele>79</ele>
        <time>2022-10-03T07:27:47.185Z</time>
      </trkpt>
      <trkpt lat="48.81581" lon="1.83449">
        <ele>79</ele>
        <time>2022-10-03T07:27:51.187Z</time>
      </trkpt>
      <trkpt lat="48.81584" lon="1.83458">
        <ele>79</ele>
        <time>2022-10-03T07:27:56.181Z</time>
      </trkpt>
      <trkpt lat="48.81585" lon="1.83467">
        <ele>79</ele>
        <time>2022-10-03T07:28:00.194Z</time>
      </trkpt>
      <trkpt lat="48.81585" lon="1.83476">
        <ele>79</ele>
        <time>2022-10-03T07:28:04.208Z</time>
      </trkpt>
      <trkpt lat="48.81586" lon="1.83486">
        <ele>79</ele>
        <time>2022-10-03T07:28:08.230Z</time>
      </trkpt>
      <trkpt lat="48.81586" lon="1.83495">
        <ele>80</ele>
        <time>2022-10-03T07:28:13.236Z</time>
      </trkpt>
      <trkpt lat="48.81585" lon="1.83504">
        <ele>80</ele>
        <time>2022-10-03T07:28:17.227Z</time>
      </trkpt>
      <trkpt lat="48.81586" lon="1.83514">
        <ele>80</ele>
        <time>2022-10-03T07:28:22.235Z</time>
      </trkpt>
      <trkpt lat="48.81587" lon="1.83525">
        <ele>80</ele>
        <time>2022-10-03T07:28:27.229Z</time>
      </trkpt>
      <trkpt lat="48.81586" lon="1.83537">
        <ele>80</ele>
        <time>2022-10-03T07:28:32.229Z</time>
      </trkpt>
      <trkpt lat="48.81586" lon="1.83547">
        <ele>81</ele>
        <time>2022-10-03T07:28:37.241Z</time>
      </trkpt>
      <trkpt lat="48.81586" lon="1.83557">
        <ele>81</ele>
        <time>2022-10-03T07:28:42.219Z</time>
      </trkpt>
      <trkpt lat="48.81585" lon="1.83568">
        <ele>81</ele>
        <time>2022-10-03T07:28:47.221Z</time>
      </trkpt>
      <trkpt lat="48.81584" lon="1.8358">
        <ele>81</ele>
        <time>2022-10-03T07:28:52.219Z</time>
      </trkpt>
      <trkpt lat="48.81585" lon="1.83591">
        <ele>81</ele>
        <time>2022-10-03T07:28:57.211Z</time>
      </trkpt>
      <trkpt lat="48.81586" lon="1.83602">
        <ele>81</ele>
        <time>2022-10-03T07:29:01.223Z</time>
      </trkpt>
      <trkpt lat="48.81587" lon="1.83612">
        <ele>81</ele>
        <time>2022-10-03T07:29:06.243Z</time>
      </trkpt>
      <trkpt lat="48.81589" lon="1.83623">
        <ele>81</ele>
        <time>2022-10-03T07:29:11.215Z</time>
      </trkpt>
      <trkpt lat="48.81588" lon="1.83631">
        <ele>81</ele>
        <time>2022-10-03T07:29:15.236Z</time>
      </trkpt>
      <trkpt lat="48.81588" lon="1.83642">
        <ele>81</ele>
        <time>2022-10-03T07:29:20.216Z</time>
      </trkpt>
      <trkpt lat="48.81588" lon="1.83651">
        <ele>81</ele>
        <time>2022-10-03T07:29:24.216Z</time>
      </trkpt>
      <trkpt lat="48.81589" lon="1.83661">
        <ele>80</ele>
        <time>2022-10-03T07:29:28.230Z</time>
      </trkpt>
      <trkpt lat="48.81588" lon="1.83671">
        <ele>80</ele>
        <time>2022-10-03T07:29:33.181Z</time>
      </trkpt>
      <trkpt lat="48.81587" lon="1.83679">
        <ele>80</ele>
        <time>2022-10-03T07:29:37.185Z</time>
      </trkpt>
      <trkpt lat="48.81587" lon="1.83688">
        <ele>79</ele>
        <time>2022-10-03T07:29:41.214Z</time>
      </trkpt>
      <trkpt lat="48.81585" lon="1.83697">
        <ele>79</ele>
        <time>2022-10-03T07:29:46.210Z</time>
      </trkpt>
      <trkpt lat="48.81583" lon="1.83706">
        <ele>79</ele>
        <time>2022-10-03T07:29:50.216Z</time>
      </trkpt>
      <trkpt lat="48.81581" lon="1.83717">
        <ele>78</ele>
        <time>2022-10-03T07:29:55.208Z</time>
      </trkpt>
      <trkpt lat="48.8158" lon="1.83724">
        <ele>78</ele>
        <time>2022-10-03T07:29:59.216Z</time>
      </trkpt>
      <trkpt lat="48.81579" lon="1.83736">
        <ele>78</ele>
        <time>2022-10-03T07:30:04.204Z</time>
      </trkpt>
      <trkpt lat="48.81578" lon="1.83747">
        <ele>78</ele>
        <time>2022-10-03T07:30:09.196Z</time>
      </trkpt>
      <trkpt lat="48.81578" lon="1.83754">
        <ele>78</ele>
        <time>2022-10-03T07:30:13.200Z</time>
      </trkpt>
      <trkpt lat="48.81577" lon="1.83763">
        <ele>78</ele>
        <time>2022-10-03T07:30:18.208Z</time>
      </trkpt>
      <trkpt lat="48.81575" lon="1.83775">
        <ele>77</ele>
        <time>2022-10-03T07:30:23.208Z</time>
      </trkpt>
      <trkpt lat="48.81574" lon="1.83784">
        <ele>77</ele>
        <time>2022-10-03T07:30:27.220Z</time>
      </trkpt>
      <trkpt lat="48.81573" lon="1.83793">
        <ele>77</ele>
        <time>2022-10-03T07:30:32.191Z</time>
      </trkpt>
      <trkpt lat="48.81572" lon="1.83802">
        <ele>77</ele>
        <time>2022-10-03T07:30:37.196Z</time>
      </trkpt>
      <trkpt lat="48.81571" lon="1.83811">
        <ele>77</ele>
        <time>2022-10-03T07:30:41.202Z</time>
      </trkpt>
      <trkpt lat="48.8157" lon="1.8382">
        <ele>76</ele>
        <time>2022-10-03T07:30:46.193Z</time>
      </trkpt>
      <trkpt lat="48.81568" lon="1.8383">
        <ele>74</ele>
        <time>2022-10-03T07:30:51.196Z</time>
      </trkpt>
      <trkpt lat="48.81567" lon="1.83841">
        <ele>74</ele>
        <time>2022-10-03T07:30:56.192Z</time>
      </trkpt>
      <trkpt lat="48.81566" lon="1.83849">
        <ele>74</ele>
        <time>2022-10-03T07:31:00.197Z</time>
      </trkpt>
      <trkpt lat="48.81565" lon="1.83858">
        <ele>74</ele>
        <time>2022-10-03T07:31:04.199Z</time>
      </trkpt>
      <trkpt lat="48.81563" lon="1.83869">
        <ele>74</ele>
        <time>2022-10-03T07:31:09.183Z</time>
      </trkpt>
      <trkpt lat="48.81563" lon="1.83876">
        <ele>74</ele>
        <time>2022-10-03T07:31:13.190Z</time>
      </trkpt>
      <trkpt lat="48.81563" lon="1.83885">
        <ele>74</ele>
        <time>2022-10-03T07:31:17.204Z</time>
      </trkpt>
      <trkpt lat="48.81562" lon="1.83896">
        <ele>74</ele>
        <time>2022-10-03T07:31:22.188Z</time>
      </trkpt>
      <trkpt lat="48.81561" lon="1.83906">
        <ele>74</ele>
        <time>2022-10-03T07:31:27.197Z</time>
      </trkpt>
      <trkpt lat="48.81561" lon="1.83917">
        <ele>74</ele>
        <time>2022-10-03T07:31:32.177Z</time>
      </trkpt>
      <trkpt lat="48.81561" lon="1.83926">
        <ele>74</ele>
        <time>2022-10-03T07:31:36.195Z</time>
      </trkpt>
      <trkpt lat="48.81562" lon="1.83938">
        <ele>73</ele>
        <time>2022-10-03T07:31:41.179Z</time>
      </trkpt>
      <trkpt lat="48.81561" lon="1.83946">
        <ele>73</ele>
        <time>2022-10-03T07:31:45.188Z</time>
      </trkpt>
      <trkpt lat="48.81561" lon="1.83954">
        <ele>73</ele>
        <time>2022-10-03T07:31:49.195Z</time>
      </trkpt>
      <trkpt lat="48.81561" lon="1.83964">
        <ele>74</ele>
        <time>2022-10-03T07:31:54.200Z</time>
      </trkpt>
      <trkpt lat="48.81562" lon="1.83974">
        <ele>74</ele>
        <time>2022-10-03T07:31:59.209Z</time>
      </trkpt>
      <trkpt lat="48.81562" lon="1.83983">
        <ele>74</ele>
        <time>2022-10-03T07:32:03.234Z</time>
      </trkpt>
      <trkpt lat="48.81563" lon="1.83992">
        <ele>74</ele>
        <time>2022-10-03T07:32:08.208Z</time>
      </trkpt>
      <trkpt lat="48.81563" lon="1.84002">
        <ele>74</ele>
        <time>2022-10-03T07:32:13.236Z</time>
      </trkpt>
      <trkpt lat="48.81563" lon="1.84014">
        <ele>74</ele>
        <time>2022-10-03T07:32:18.226Z</time>
      </trkpt>
      <trkpt lat="48.81563" lon="1.84023">
        <ele>74</ele>
        <time>2022-10-03T07:32:22.226Z</time>
      </trkpt>
      <trkpt lat="48.81563" lon="1.84033">
        <ele>74</ele>
        <time>2022-10-03T07:32:27.226Z</time>
      </trkpt>
      <trkpt lat="48.81564" lon="1.84041">
        <ele>74</ele>
        <time>2022-10-03T07:32:31.234Z</time>
      </trkpt>
      <trkpt lat="48.81564" lon="1.84051">
        <ele>74</ele>
        <time>2022-10-03T07:32:36.234Z</time>
      </trkpt>
      <trkpt lat="48.81564" lon="1.84063">
        <ele>74</ele>
        <time>2022-10-03T07:32:41.242Z</time>
      </trkpt>
      <trkpt lat="48.81564" lon="1.84073">
        <ele>73</ele>
        <time>2022-10-03T07:32:46.235Z</time>
      </trkpt>
      <trkpt lat="48.81565" lon="1.84084">
        <ele>73</ele>
        <time>2022-10-03T07:32:51.228Z</time>
      </trkpt>
      <trkpt lat="48.81564" lon="1.84093">
        <ele>73</ele>
        <time>2022-10-03T07:32:56.203Z</time>
      </trkpt>
      <trkpt lat="48.81564" lon="1.84105">
        <ele>73</ele>
        <time>2022-10-03T07:33:01.202Z</time>
      </trkpt>
      <trkpt lat="48.81565" lon="1.84114">
        <ele>73</ele>
        <time>2022-10-03T07:33:05.204Z</time>
      </trkpt>
      <trkpt lat="48.81566" lon="1.84124">
        <ele>73</ele>
        <time>2022-10-03T07:33:10.202Z</time>
      </trkpt>
      <trkpt lat="48.81567" lon="1.84133">
        <ele>73</ele>
        <time>2022-10-03T07:33:14.218Z</time>
      </trkpt>
      <trkpt lat="48.81567" lon="1.84142">
        <ele>73</ele>
        <time>2022-10-03T07:33:18.223Z</time>
      </trkpt>
      <trkpt lat="48.81568" lon="1.84152">
        <ele>73</ele>
        <time>2022-10-03T07:33:23.207Z</time>
      </trkpt>
      <trkpt lat="48.81568" lon="1.84163">
        <ele>73</ele>
        <time>2022-10-03T07:33:28.225Z</time>
      </trkpt>
      <trkpt lat="48.81568" lon="1.84172">
        <ele>73</ele>
        <time>2022-10-03T07:33:32.239Z</time>
      </trkpt>
      <trkpt lat="48.81568" lon="1.84182">
        <ele>73</ele>
        <time>2022-10-03T07:33:37.230Z</time>
      </trkpt>
      <trkpt lat="48.81568" lon="1.84191">
        <ele>73</ele>
        <time>2022-10-03T07:33:41.252Z</time>
      </trkpt>
      <trkpt lat="48.8157" lon="1.84199">
        <ele>73</ele>
        <time>2022-10-03T07:33:46.214Z</time>
      </trkpt>
      <trkpt lat="48.8157" lon="1.84208">
        <ele>73</ele>
        <time>2022-10-03T07:33:50.232Z</time>
      </trkpt>
      <trkpt lat="48.81571" lon="1.84217">
        <ele>72</ele>
        <time>2022-10-03T07:33:54.223Z</time>
      </trkpt>
      <trkpt lat="48.81573" lon="1.84228">
        <ele>72</ele>
        <time>2022-10-03T07:33:59.243Z</time>
      </trkpt>
      <trkpt lat="48.81575" lon="1.84239">
        <ele>73</ele>
        <time>2022-10-03T07:34:04.227Z</time>
      </trkpt>
      <trkpt lat="48.81575" lon="1.84248">
        <ele>73</ele>
        <time>2022-10-03T07:34:08.226Z</time>
      </trkpt>
      <trkpt lat="48.81575" lon="1.84258">
        <ele>73</ele>
        <time>2022-10-03T07:34:13.196Z</time>
      </trkpt>
      <trkpt lat="48.81576" lon="1.84267">
        <ele>73</ele>
        <time>2022-10-03T07:34:17.238Z</time>
      </trkpt>
      <trkpt lat="48.81577" lon="1.84277">
        <ele>73</ele>
        <time>2022-10-03T07:34:22.229Z</time>
      </trkpt>
      <trkpt lat="48.81578" lon="1.84284">
        <ele>73</ele>
        <time>2022-10-03T07:34:26.226Z</time>
      </trkpt>
      <trkpt lat="48.81578" lon="1.84294">
        <ele>74</ele>
        <time>2022-10-03T07:34:31.217Z</time>
      </trkpt>
      <trkpt lat="48.81579" lon="1.84302">
        <ele>74</ele>
        <time>2022-10-03T07:34:35.218Z</time>
      </trkpt>
      <trkpt lat="48.81578" lon="1.84313">
        <ele>74</ele>
        <time>2022-10-03T07:34:40.217Z</time>
      </trkpt>
      <trkpt lat="48.8158" lon="1.84324">
        <ele>75</ele>
        <time>2022-10-03T07:34:45.199Z</time>
      </trkpt>
      <trkpt lat="48.81581" lon="1.84331">
        <ele>75</ele>
        <time>2022-10-03T07:34:49.203Z</time>
      </trkpt>
      <trkpt lat="48.81583" lon="1.84339">
        <ele>75</ele>
        <time>2022-10-03T07:34:53.219Z</time>
      </trkpt>
      <trkpt lat="48.81584" lon="1.84348">
        <ele>76</ele>
        <time>2022-10-03T07:34:58.202Z</time>
      </trkpt>
      <trkpt lat="48.81584" lon="1.84357">
        <ele>76</ele>
        <time>2022-10-03T07:35:02.209Z</time>
      </trkpt>
      <trkpt lat="48.81583" lon="1.84364">
        <ele>76</ele>
        <time>2022-10-03T07:35:06.216Z</time>
      </trkpt>
      <trkpt lat="48.81583" lon="1.84374">
        <ele>76</ele>
        <time>2022-10-03T07:35:11.229Z</time>
      </trkpt>
      <trkpt lat="48.81583" lon="1.84384">
        <ele>76</ele>
        <time>2022-10-03T07:35:16.228Z</time>
      </trkpt>
      <trkpt lat="48.81584" lon="1.84393">
        <ele>76</ele>
        <time>2022-10-03T07:35:20.209Z</time>
      </trkpt>
      <trkpt lat="48.81585" lon="1.84402">
        <ele>76</ele>
        <time>2022-10-03T07:35:25.222Z</time>
      </trkpt>
      <trkpt lat="48.81586" lon="1.84412">
        <ele>76</ele>
        <time>2022-10-03T07:35:30.207Z</time>
      </trkpt>
      <trkpt lat="48.81586" lon="1.84421">
        <ele>76</ele>
        <time>2022-10-03T07:35:34.227Z</time>
      </trkpt>
      <trkpt lat="48.81587" lon="1.84429">
        <ele>76</ele>
        <time>2022-10-03T07:35:38.229Z</time>
      </trkpt>
      <trkpt lat="48.81588" lon="1.84439">
        <ele>77</ele>
        <time>2022-10-03T07:35:42.214Z</time>
      </trkpt>
      <trkpt lat="48.81589" lon="1.84448">
        <ele>77</ele>
        <time>2022-10-03T07:35:47.234Z</time>
      </trkpt>
      <trkpt lat="48.8159" lon="1.84458">
        <ele>77</ele>
        <time>2022-10-03T07:35:52.236Z</time>
      </trkpt>
      <trkpt lat="48.8159" lon="1.84468">
        <ele>77</ele>
        <time>2022-10-03T07:35:57.230Z</time>
      </trkpt>
      <trkpt lat="48.81591" lon="1.84478">
        <ele>77</ele>
        <time>2022-10-03T07:36:02.222Z</time>
      </trkpt>
      <trkpt lat="48.81592" lon="1.84489">
        <ele>76</ele>
        <time>2022-10-03T07:36:07.236Z</time>
      </trkpt>
      <trkpt lat="48.81593" lon="1.845">
        <ele>76</ele>
        <time>2022-10-03T07:36:12.226Z</time>
      </trkpt>
      <trkpt lat="48.81592" lon="1.84507">
        <ele>76</ele>
        <time>2022-10-03T07:36:16.241Z</time>
      </trkpt>
      <trkpt lat="48.81592" lon="1.84517">
        <ele>76</ele>
        <time>2022-10-03T07:36:21.224Z</time>
      </trkpt>
      <trkpt lat="48.81592" lon="1.84527">
        <ele>76</ele>
        <time>2022-10-03T07:36:26.228Z</time>
      </trkpt>
      <trkpt lat="48.81593" lon="1.84538">
        <ele>76</ele>
        <time>2022-10-03T07:36:31.230Z</time>
      </trkpt>
      <trkpt lat="48.81594" lon="1.84546">
        <ele>76</ele>
        <time>2022-10-03T07:36:35.238Z</time>
      </trkpt>
      <trkpt lat="48.81593" lon="1.84556">
        <ele>76</ele>
        <time>2022-10-03T07:36:40.237Z</time>
      </trkpt>
      <trkpt lat="48.81594" lon="1.84565">
        <ele>76</ele>
        <time>2022-10-03T07:36:45.219Z</time>
      </trkpt>
      <trkpt lat="48.81594" lon="1.84574">
        <ele>76</ele>
        <time>2022-10-03T07:36:49.249Z</time>
      </trkpt>
      <trkpt lat="48.81593" lon="1.84584">
        <ele>76</ele>
        <time>2022-10-03T07:36:54.226Z</time>
      </trkpt>
      <trkpt lat="48.81594" lon="1.84593">
        <ele>76</ele>
        <time>2022-10-03T07:36:58.227Z</time>
      </trkpt>
      <trkpt lat="48.81594" lon="1.84603">
        <ele>76</ele>
        <time>2022-10-03T07:37:03.186Z</time>
      </trkpt>
      <trkpt lat="48.81595" lon="1.8461">
        <ele>76</ele>
        <time>2022-10-03T07:37:07.221Z</time>
      </trkpt>
      <trkpt lat="48.81596" lon="1.84619">
        <ele>76</ele>
        <time>2022-10-03T07:37:11.249Z</time>
      </trkpt>
      <trkpt lat="48.81596" lon="1.84629">
        <ele>76</ele>
        <time>2022-10-03T07:37:16.240Z</time>
      </trkpt>
      <trkpt lat="48.81595" lon="1.84639">
        <ele>76</ele>
        <time>2022-10-03T07:37:21.230Z</time>
      </trkpt>
      <trkpt lat="48.81595" lon="1.84648">
        <ele>76</ele>
        <time>2022-10-03T07:37:25.230Z</time>
      </trkpt>
      <trkpt lat="48.81595" lon="1.84656">
        <ele>76</ele>
        <time>2022-10-03T07:37:29.225Z</time>
      </trkpt>
      <trkpt lat="48.81594" lon="1.84666">
        <ele>76</ele>
        <time>2022-10-03T07:37:34.226Z</time>
      </trkpt>
      <trkpt lat="48.81594" lon="1.84675">
        <ele>76</ele>
        <time>2022-10-03T07:37:39.238Z</time>
      </trkpt>
      <trkpt lat="48.81594" lon="1.84687">
        <ele>76</ele>
        <time>2022-10-03T07:37:44.220Z</time>
      </trkpt>
      <trkpt lat="48.81594" lon="1.84697">
        <ele>76</ele>
        <time>2022-10-03T07:37:49.239Z</time>
      </trkpt>
      <trkpt lat="48.81594" lon="1.84705">
        <ele>76</ele>
        <time>2022-10-03T07:37:53.238Z</time>
      </trkpt>
      <trkpt lat="48.81594" lon="1.84715">
        <ele>76</ele>
        <time>2022-10-03T07:37:58.214Z</time>
      </trkpt>
      <trkpt lat="48.81594" lon="1.84727">
        <ele>76</ele>
        <time>2022-10-03T07:38:03.215Z</time>
      </trkpt>
      <trkpt lat="48.81593" lon="1.84737">
        <ele>76</ele>
        <time>2022-10-03T07:38:08.226Z</time>
      </trkpt>
      <trkpt lat="48.81593" lon="1.84747">
        <ele>76</ele>
        <time>2022-10-03T07:38:13.211Z</time>
      </trkpt>
      <trkpt lat="48.81592" lon="1.84755">
        <ele>76</ele>
        <time>2022-10-03T07:38:17.210Z</time>
      </trkpt>
      <trkpt lat="48.81592" lon="1.84763">
        <ele>76</ele>
        <time>2022-10-03T07:38:21.225Z</time>
      </trkpt>
      <trkpt lat="48.81592" lon="1.84773">
        <ele>76</ele>
        <time>2022-10-03T07:38:26.213Z</time>
      </trkpt>
      <trkpt lat="48.81591" lon="1.84784">
        <ele>76</ele>
        <time>2022-10-03T07:38:31.214Z</time>
      </trkpt>
      <trkpt lat="48.8159" lon="1.84793">
        <ele>75</ele>
        <time>2022-10-03T07:38:35.217Z</time>
      </trkpt>
      <trkpt lat="48.81589" lon="1.84802">
        <ele>75</ele>
        <time>2022-10-03T07:38:39.231Z</time>
      </trkpt>
      <trkpt lat="48.81587" lon="1.84814">
        <ele>75</ele>
        <time>2022-10-03T07:38:44.221Z</time>
      </trkpt>
      <trkpt lat="48.81586" lon="1.84823">
        <ele>75</ele>
        <time>2022-10-03T07:38:49.225Z</time>
      </trkpt>
      <trkpt lat="48.81584" lon="1.84833">
        <ele>75</ele>
        <time>2022-10-03T07:38:54.208Z</time>
      </trkpt>
      <trkpt lat="48.81582" lon="1.84841">
        <ele>75</ele>
        <time>2022-10-03T07:38:58.225Z</time>
      </trkpt>
      <trkpt lat="48.81581" lon="1.84849">
        <ele>75</ele>
        <time>2022-10-03T07:39:02.231Z</time>
      </trkpt>
      <trkpt lat="48.8158" lon="1.84858">
        <ele>75</ele>
        <time>2022-10-03T07:39:07.211Z</time>
      </trkpt>
      <trkpt lat="48.81578" lon="1.84867">
        <ele>75</ele>
        <time>2022-10-03T07:39:12.202Z</time>
      </trkpt>
      <trkpt lat="48.81576" lon="1.84875">
        <ele>75</ele>
        <time>2022-10-03T07:39:16.229Z</time>
      </trkpt>
      <trkpt lat="48.81573" lon="1.84885">
        <ele>75</ele>
        <time>2022-10-03T07:39:21.219Z</time>
      </trkpt>
      <trkpt lat="48.81571" lon="1.84895">
        <ele>75</ele>
        <time>2022-10-03T07:39:26.246Z</time>
      </trkpt>
      <trkpt lat="48.81568" lon="1.84904">
        <ele>74</ele>
        <time>2022-10-03T07:39:31.223Z</time>
      </trkpt>
      <trkpt lat="48.81565" lon="1.84914">
        <ele>74</ele>
        <time>2022-10-03T07:39:36.198Z</time>
      </trkpt>
      <trkpt lat="48.81563" lon="1.84924">
        <ele>74</ele>
        <time>2022-10-03T07:39:41.202Z</time>
      </trkpt>
      <trkpt lat="48.81562" lon="1.84932">
        <ele>73</ele>
        <time>2022-10-03T07:39:45.199Z</time>
      </trkpt>
      <trkpt lat="48.8156" lon="1.84941">
        <ele>73</ele>
        <time>2022-10-03T07:39:49.217Z</time>
      </trkpt>
      <trkpt lat="48.81559" lon="1.84949">
        <ele>73</ele>
        <time>2022-10-03T07:39:53.219Z</time>
      </trkpt>
      <trkpt lat="48.81557" lon="1.84958">
        <ele>72</ele>
        <time>2022-10-03T07:39:58.195Z</time>
      </trkpt>
      <trkpt lat="48.81556" lon="1.84967">
        <ele>72</ele>
        <time>2022-10-03T07:40:02.206Z</time>
      </trkpt>
      <trkpt lat="48.81554" lon="1.84975">
        <ele>72</ele>
        <time>2022-10-03T07:40:06.227Z</time>
      </trkpt>
      <trkpt lat="48.81553" lon="1.84983">
        <ele>72</ele>
        <time>2022-10-03T07:40:10.231Z</time>
      </trkpt>
      <trkpt lat="48.81551" lon="1.84991">
        <ele>72</ele>
        <time>2022-10-03T07:40:14.235Z</time>
      </trkpt>
      <trkpt lat="48.81549" lon="1.85002">
        <ele>72</ele>
        <time>2022-10-03T07:40:19.235Z</time>
      </trkpt>
      <trkpt lat="48.81547" lon="1.85011">
        <ele>72</ele>
        <time>2022-10-03T07:40:24.230Z</time>
      </trkpt>
      <trkpt lat="48.81545" lon="1.85022">
        <ele>72</ele>
        <time>2022-10-03T07:40:29.216Z</time>
      </trkpt>
      <trkpt lat="48.81544" lon="1.85031">
        <ele>72</ele>
        <time>2022-10-03T07:40:34.230Z</time>
      </trkpt>
      <trkpt lat="48.81542" lon="1.85042">
        <ele>72</ele>
        <time>2022-10-03T07:40:39.226Z</time>
      </trkpt>
      <trkpt lat="48.81539" lon="1.85053">
        <ele>70</ele>
        <time>2022-10-03T07:40:44.233Z</time>
      </trkpt>
      <trkpt lat="48.81538" lon="1.85062">
        <ele>70</ele>
        <time>2022-10-03T07:40:48.239Z</time>
      </trkpt>
      <trkpt lat="48.81536" lon="1.85072">
        <ele>69</ele>
        <time>2022-10-03T07:40:53.222Z</time>
      </trkpt>
      <trkpt lat="48.81535" lon="1.8508">
        <ele>69</ele>
        <time>2022-10-03T07:40:57.247Z</time>
      </trkpt>
      <trkpt lat="48.81534" lon="1.85086">
        <ele>69</ele>
        <time>2022-10-03T07:41:02.221Z</time>
      </trkpt>
      <trkpt lat="48.81533" lon="1.85093">
        <ele>69</ele>
        <time>2022-10-03T07:41:06.225Z</time>
      </trkpt>
      <trkpt lat="48.8153" lon="1.85103">
        <ele>70</ele>
        <time>2022-10-03T07:41:11.226Z</time>
      </trkpt>
      <trkpt lat="48.81528" lon="1.85113">
        <ele>70</ele>
        <time>2022-10-03T07:41:16.224Z</time>
      </trkpt>
      <trkpt lat="48.81527" lon="1.85123">
        <ele>70</ele>
        <time>2022-10-03T07:41:21.208Z</time>
      </trkpt>
      <trkpt lat="48.81527" lon="1.85131">
        <ele>70</ele>
        <time>2022-10-03T07:41:25.209Z</time>
      </trkpt>
      <trkpt lat="48.81526" lon="1.85139">
        <ele>70</ele>
        <time>2022-10-03T07:41:29.220Z</time>
      </trkpt>
      <trkpt lat="48.81525" lon="1.85151">
        <ele>70</ele>
        <time>2022-10-03T07:41:34.215Z</time>
      </trkpt>
      <trkpt lat="48.81524" lon="1.85162">
        <ele>70</ele>
        <time>2022-10-03T07:41:39.216Z</time>
      </trkpt>
      <trkpt lat="48.81522" lon="1.8517">
        <ele>70</ele>
        <time>2022-10-03T07:41:43.229Z</time>
      </trkpt>
      <trkpt lat="48.81521" lon="1.85181">
        <ele>70</ele>
        <time>2022-10-03T07:41:48.227Z</time>
      </trkpt>
      <trkpt lat="48.8152" lon="1.85188">
        <ele>70</ele>
        <time>2022-10-03T07:41:52.233Z</time>
      </trkpt>
      <trkpt lat="48.81518" lon="1.85199">
        <ele>70</ele>
        <time>2022-10-03T07:41:57.226Z</time>
      </trkpt>
      <trkpt lat="48.81516" lon="1.85208">
        <ele>70</ele>
        <time>2022-10-03T07:42:02.219Z</time>
      </trkpt>
      <trkpt lat="48.81515" lon="1.85216">
        <ele>69</ele>
        <time>2022-10-03T07:42:06.238Z</time>
      </trkpt>
      <trkpt lat="48.81513" lon="1.85225">
        <ele>69</ele>
        <time>2022-10-03T07:42:11.229Z</time>
      </trkpt>
      <trkpt lat="48.81511" lon="1.85236">
        <ele>69</ele>
        <time>2022-10-03T07:42:16.234Z</time>
      </trkpt>
      <trkpt lat="48.81509" lon="1.85247">
        <ele>69</ele>
        <time>2022-10-03T07:42:21.229Z</time>
      </trkpt>
      <trkpt lat="48.81509" lon="1.85255">
        <ele>69</ele>
        <time>2022-10-03T07:42:25.209Z</time>
      </trkpt>
      <trkpt lat="48.81507" lon="1.85265">
        <ele>70</ele>
        <time>2022-10-03T07:42:30.224Z</time>
      </trkpt>
      <trkpt lat="48.81505" lon="1.85276">
        <ele>70</ele>
        <time>2022-10-03T07:42:35.210Z</time>
      </trkpt>
      <trkpt lat="48.81505" lon="1.85284">
        <ele>70</ele>
        <time>2022-10-03T07:42:39.225Z</time>
      </trkpt>
      <trkpt lat="48.81503" lon="1.85294">
        <ele>70</ele>
        <time>2022-10-03T07:42:44.223Z</time>
      </trkpt>
      <trkpt lat="48.81501" lon="1.85302">
        <ele>70</ele>
        <time>2022-10-03T07:42:49.254Z</time>
      </trkpt>
      <trkpt lat="48.815" lon="1.85313">
        <ele>70</ele>
        <time>2022-10-03T07:42:54.198Z</time>
      </trkpt>
      <trkpt lat="48.81498" lon="1.8532">
        <ele>71</ele>
        <time>2022-10-03T07:42:58.203Z</time>
      </trkpt>
      <trkpt lat="48.81495" lon="1.85329">
        <ele>71</ele>
        <time>2022-10-03T07:43:03.213Z</time>
      </trkpt>
      <trkpt lat="48.81493" lon="1.85337">
        <ele>71</ele>
        <time>2022-10-03T07:43:07.211Z</time>
      </trkpt>
      <trkpt lat="48.81492" lon="1.85346">
        <ele>71</ele>
        <time>2022-10-03T07:43:11.218Z</time>
      </trkpt>
      <trkpt lat="48.8149" lon="1.85356">
        <ele>71</ele>
        <time>2022-10-03T07:43:16.212Z</time>
      </trkpt>
      <trkpt lat="48.81489" lon="1.85365">
        <ele>71</ele>
        <time>2022-10-03T07:43:20.207Z</time>
      </trkpt>
      <trkpt lat="48.81486" lon="1.85376">
        <ele>69</ele>
        <time>2022-10-03T07:43:25.250Z</time>
      </trkpt>
      <trkpt lat="48.81484" lon="1.85385">
        <ele>69</ele>
        <time>2022-10-03T07:43:30.232Z</time>
      </trkpt>
      <trkpt lat="48.81484" lon="1.85396">
        <ele>69</ele>
        <time>2022-10-03T07:43:35.228Z</time>
      </trkpt>
      <trkpt lat="48.81482" lon="1.85406">
        <ele>70</ele>
        <time>2022-10-03T07:43:40.230Z</time>
      </trkpt>
      <trkpt lat="48.8148" lon="1.85417">
        <ele>70</ele>
        <time>2022-10-03T07:43:45.206Z</time>
      </trkpt>
      <trkpt lat="48.8148" lon="1.85424">
        <ele>70</ele>
        <time>2022-10-03T07:43:49.222Z</time>
      </trkpt>
      <trkpt lat="48.81479" lon="1.85432">
        <ele>71</ele>
        <time>2022-10-03T07:43:53.239Z</time>
      </trkpt>
      <trkpt lat="48.81478" lon="1.8544">
        <ele>71</ele>
        <time>2022-10-03T07:43:57.256Z</time>
      </trkpt>
      <trkpt lat="48.81478" lon="1.85452">
        <ele>71</ele>
        <time>2022-10-03T07:44:02.236Z</time>
      </trkpt>
      <trkpt lat="48.81477" lon="1.85464">
        <ele>71</ele>
        <time>2022-10-03T07:44:07.230Z</time>
      </trkpt>
      <trkpt lat="48.81475" lon="1.85474">
        <ele>71</ele>
        <time>2022-10-03T07:44:12.207Z</time>
      </trkpt>
      <trkpt lat="48.81475" lon="1.85482">
        <ele>71</ele>
        <time>2022-10-03T07:44:16.228Z</time>
      </trkpt>
      <trkpt lat="48.81475" lon="1.85493">
        <ele>70</ele>
        <time>2022-10-03T07:44:21.233Z</time>
      </trkpt>
      <trkpt lat="48.81476" lon="1.85504">
        <ele>70</ele>
        <time>2022-10-03T07:44:25.229Z</time>
      </trkpt>
      <trkpt lat="48.81476" lon="1.85516">
        <ele>70</ele>
        <time>2022-10-03T07:44:30.229Z</time>
      </trkpt>
      <trkpt lat="48.81476" lon="1.85527">
        <ele>70</ele>
        <time>2022-10-03T07:44:35.250Z</time>
      </trkpt>
      <trkpt lat="48.81477" lon="1.85537">
        <ele>70</ele>
        <time>2022-10-03T07:44:40.215Z</time>
      </trkpt>
      <trkpt lat="48.81477" lon="1.85549">
        <ele>70</ele>
        <time>2022-10-03T07:44:45.210Z</time>
      </trkpt>
      <trkpt lat="48.81477" lon="1.85557">
        <ele>70</ele>
        <time>2022-10-03T07:44:49.218Z</time>
      </trkpt>
      <trkpt lat="48.81477" lon="1.85567">
        <ele>70</ele>
        <time>2022-10-03T07:44:54.185Z</time>
      </trkpt>
      <trkpt lat="48.81477" lon="1.85575">
        <ele>70</ele>
        <time>2022-10-03T07:44:58.216Z</time>
      </trkpt>
      <trkpt lat="48.81477" lon="1.85586">
        <ele>70</ele>
        <time>2022-10-03T07:45:03.193Z</time>
      </trkpt>
      <trkpt lat="48.81477" lon="1.85595">
        <ele>70</ele>
        <time>2022-10-03T07:45:07.222Z</time>
      </trkpt>
      <trkpt lat="48.81477" lon="1.85606">
        <ele>69</ele>
        <time>2022-10-03T07:45:12.189Z</time>
      </trkpt>
      <trkpt lat="48.81477" lon="1.85614">
        <ele>69</ele>
        <time>2022-10-03T07:45:16.218Z</time>
      </trkpt>
      <trkpt lat="48.81476" lon="1.85623">
        <ele>69</ele>
        <time>2022-10-03T07:45:20.222Z</time>
      </trkpt>
      <trkpt lat="48.81475" lon="1.85633">
        <ele>69</ele>
        <time>2022-10-03T07:45:25.233Z</time>
      </trkpt>
      <trkpt lat="48.81474" lon="1.85644">
        <ele>69</ele>
        <time>2022-10-03T07:45:30.226Z</time>
      </trkpt>
      <trkpt lat="48.81474" lon="1.85653">
        <ele>68</ele>
        <time>2022-10-03T07:45:35.220Z</time>
      </trkpt>
      <trkpt lat="48.81474" lon="1.85662">
        <ele>68</ele>
        <time>2022-10-03T07:45:39.237Z</time>
      </trkpt>
      <trkpt lat="48.81474" lon="1.85673">
        <ele>68</ele>
        <time>2022-10-03T07:45:44.241Z</time>
      </trkpt>
      <trkpt lat="48.81474" lon="1.85683">
        <ele>68</ele>
        <time>2022-10-03T07:45:49.209Z</time>
      </trkpt>
      <trkpt lat="48.81475" lon="1.85694">
        <ele>68</ele>
        <time>2022-10-03T07:45:54.210Z</time>
      </trkpt>
      <trkpt lat="48.81474" lon="1.85705">
        <ele>68</ele>
        <time>2022-10-03T07:45:59.238Z</time>
      </trkpt>
      <trkpt lat="48.81473" lon="1.85715">
        <ele>68</ele>
        <time>2022-10-03T07:46:03.238Z</time>
      </trkpt>
      <trkpt lat="48.81472" lon="1.85726">
        <ele>68</ele>
        <time>2022-10-03T07:46:08.224Z</time>
      </trkpt>
      <trkpt lat="48.81472" lon="1.85736">
        <ele>68</ele>
        <time>2022-10-03T07:46:13.238Z</time>
      </trkpt>
      <trkpt lat="48.8147" lon="1.85746">
        <ele>68</ele>
        <time>2022-10-03T07:46:18.204Z</time>
      </trkpt>
      <trkpt lat="48.81469" lon="1.85753">
        <ele>68</ele>
        <time>2022-10-03T07:46:22.231Z</time>
      </trkpt>
      <trkpt lat="48.8147" lon="1.85762">
        <ele>68</ele>
        <time>2022-10-03T07:46:27.214Z</time>
      </trkpt>
      <trkpt lat="48.81471" lon="1.8577">
        <ele>69</ele>
        <time>2022-10-03T07:46:31.235Z</time>
      </trkpt>
      <trkpt lat="48.81472" lon="1.8578">
        <ele>69</ele>
        <time>2022-10-03T07:46:36.183Z</time>
      </trkpt>
      <trkpt lat="48.81472" lon="1.85788">
        <ele>69</ele>
        <time>2022-10-03T07:46:40.194Z</time>
      </trkpt>
      <trkpt lat="48.81472" lon="1.85798">
        <ele>70</ele>
        <time>2022-10-03T07:46:44.208Z</time>
      </trkpt>
      <trkpt lat="48.81471" lon="1.85807">
        <ele>70</ele>
        <time>2022-10-03T07:46:48.206Z</time>
      </trkpt>
      <trkpt lat="48.81472" lon="1.85816">
        <ele>70</ele>
        <time>2022-10-03T07:46:53.207Z</time>
      </trkpt>
      <trkpt lat="48.81472" lon="1.85827">
        <ele>70</ele>
        <time>2022-10-03T07:46:58.217Z</time>
      </trkpt>
      <trkpt lat="48.81473" lon="1.85839">
        <ele>70</ele>
        <time>2022-10-03T07:47:03.230Z</time>
      </trkpt>
      <trkpt lat="48.81474" lon="1.85847">
        <ele>70</ele>
        <time>2022-10-03T07:47:07.250Z</time>
      </trkpt>
      <trkpt lat="48.81474" lon="1.85858">
        <ele>69</ele>
        <time>2022-10-03T07:47:12.233Z</time>
      </trkpt>
      <trkpt lat="48.81475" lon="1.85866">
        <ele>69</ele>
        <time>2022-10-03T07:47:16.228Z</time>
      </trkpt>
      <trkpt lat="48.81475" lon="1.85877">
        <ele>70</ele>
        <time>2022-10-03T07:47:21.237Z</time>
      </trkpt>
      <trkpt lat="48.81476" lon="1.85888">
        <ele>70</ele>
        <time>2022-10-03T07:47:26.230Z</time>
      </trkpt>
      <trkpt lat="48.81477" lon="1.85899">
        <ele>70</ele>
        <time>2022-10-03T07:47:31.218Z</time>
      </trkpt>
      <trkpt lat="48.81478" lon="1.85909">
        <ele>70</ele>
        <time>2022-10-03T07:47:36.201Z</time>
      </trkpt>
      <trkpt lat="48.81476" lon="1.85904">
        <ele>70</ele>
        <time>2022-10-03T07:47:41.182Z</time>
      </trkpt>
      <trkpt lat="48.81482" lon="1.85905">
        <ele>70</ele>
        <time>2022-10-03T07:47:46.178Z</time>
      </trkpt>
      <trkpt lat="48.81482" lon="1.85908">
        <ele>70</ele>
        <time>2022-10-03T07:47:50.193Z</time>
      </trkpt>
      <trkpt lat="48.81481" lon="1.85912">
        <ele>70</ele>
        <time>2022-10-03T07:47:55.198Z</time>
      </trkpt>
      <trkpt lat="48.81483" lon="1.85915">
        <ele>70</ele>
        <time>2022-10-03T07:47:59.210Z</time>
      </trkpt>
      <trkpt lat="48.81484" lon="1.8592">
        <ele>70</ele>
        <time>2022-10-03T07:48:03.216Z</time>
      </trkpt>
      <trkpt lat="48.81484" lon="1.85927">
        <ele>70</ele>
        <time>2022-10-03T07:48:08.217Z</time>
      </trkpt>
      <trkpt lat="48.81484" lon="1.85933">
        <ele>70</ele>
        <time>2022-10-03T07:48:12.218Z</time>
      </trkpt>
      <trkpt lat="48.81483" lon="1.85942">
        <ele>70</ele>
        <time>2022-10-03T07:48:17.201Z</time>
      </trkpt>
      <trkpt lat="48.81484" lon="1.85953">
        <ele>70</ele>
        <time>2022-10-03T07:48:22.199Z</time>
      </trkpt>
      <trkpt lat="48.81486" lon="1.85964">
        <ele>70</ele>
        <time>2022-10-03T07:48:27.187Z</time>
      </trkpt>
      <trkpt lat="48.81487" lon="1.85973">
        <ele>74</ele>
        <time>2022-10-03T07:48:31.207Z</time>
      </trkpt>
      <trkpt lat="48.81488" lon="1.85985">
        <ele>74</ele>
        <time>2022-10-03T07:48:36.211Z</time>
      </trkpt>
      <trkpt lat="48.81489" lon="1.85995">
        <ele>74</ele>
        <time>2022-10-03T07:48:41.222Z</time>
      </trkpt>
      <trkpt lat="48.81489" lon="1.86004">
        <ele>74</ele>
        <time>2022-10-03T07:48:46.210Z</time>
      </trkpt>
      <trkpt lat="48.81489" lon="1.86015">
        <ele>74</ele>
        <time>2022-10-03T07:48:51.229Z</time>
      </trkpt>
      <trkpt lat="48.8149" lon="1.86025">
        <ele>74</ele>
        <time>2022-10-03T07:48:56.211Z</time>
      </trkpt>
      <trkpt lat="48.81491" lon="1.86036">
        <ele>74</ele>
        <time>2022-10-03T07:49:01.208Z</time>
      </trkpt>
      <trkpt lat="48.8149" lon="1.86045">
        <ele>74</ele>
        <time>2022-10-03T07:49:06.201Z</time>
      </trkpt>
      <trkpt lat="48.81491" lon="1.86054">
        <ele>74</ele>
        <time>2022-10-03T07:49:10.203Z</time>
      </trkpt>
      <trkpt lat="48.81492" lon="1.86062">
        <ele>74</ele>
        <time>2022-10-03T07:49:14.236Z</time>
      </trkpt>
      <trkpt lat="48.81492" lon="1.86073">
        <ele>73</ele>
        <time>2022-10-03T07:49:19.243Z</time>
      </trkpt>
      <trkpt lat="48.81492" lon="1.86083">
        <ele>73</ele>
        <time>2022-10-03T07:49:24.213Z</time>
      </trkpt>
      <trkpt lat="48.81493" lon="1.86094">
        <ele>73</ele>
        <time>2022-10-03T07:49:29.227Z</time>
      </trkpt>
      <trkpt lat="48.81493" lon="1.86104">
        <ele>73</ele>
        <time>2022-10-03T07:49:34.226Z</time>
      </trkpt>
      <trkpt lat="48.81492" lon="1.86115">
        <ele>73</ele>
        <time>2022-10-03T07:49:39.226Z</time>
      </trkpt>
      <trkpt lat="48.81492" lon="1.86125">
        <ele>73</ele>
        <time>2022-10-03T07:49:44.202Z</time>
      </trkpt>
      <trkpt lat="48.81492" lon="1.86133">
        <ele>73</ele>
        <time>2022-10-03T07:49:48.213Z</time>
      </trkpt>
      <trkpt lat="48.81494" lon="1.86143">
        <ele>73</ele>
        <time>2022-10-03T07:49:53.229Z</time>
      </trkpt>
      <trkpt lat="48.81495" lon="1.86151">
        <ele>73</ele>
        <time>2022-10-03T07:49:57.239Z</time>
      </trkpt>
      <trkpt lat="48.81497" lon="1.86161">
        <ele>74</ele>
        <time>2022-10-03T07:50:02.230Z</time>
      </trkpt>
      <trkpt lat="48.81498" lon="1.86172">
        <ele>74</ele>
        <time>2022-10-03T07:50:07.220Z</time>
      </trkpt>
      <trkpt lat="48.81499" lon="1.8618">
        <ele>74</ele>
        <time>2022-10-03T07:50:11.228Z</time>
      </trkpt>
      <trkpt lat="48.815" lon="1.86189">
        <ele>75</ele>
        <time>2022-10-03T07:50:15.229Z</time>
      </trkpt>
      <trkpt lat="48.81501" lon="1.86198">
        <ele>75</ele>
        <time>2022-10-03T07:50:20.227Z</time>
      </trkpt>
      <trkpt lat="48.81502" lon="1.86209">
        <ele>75</ele>
        <time>2022-10-03T07:50:25.221Z</time>
      </trkpt>
      <trkpt lat="48.81505" lon="1.86218">
        <ele>75</ele>
        <time>2022-10-03T07:50:30.210Z</time>
      </trkpt>
      <trkpt lat="48.81507" lon="1.86227">
        <ele>75</ele>
        <time>2022-10-03T07:50:35.222Z</time>
      </trkpt>
      <trkpt lat="48.81507" lon="1.86234">
        <ele>75</ele>
        <time>2022-10-03T07:50:39.241Z</time>
      </trkpt>
      <trkpt lat="48.81507" lon="1.86245">
        <ele>76</ele>
        <time>2022-10-03T07:50:44.213Z</time>
      </trkpt>
      <trkpt lat="48.81506" lon="1.86253">
        <ele>76</ele>
        <time>2022-10-03T07:50:48.223Z</time>
      </trkpt>
      <trkpt lat="48.81504" lon="1.86263">
        <ele>76</ele>
        <time>2022-10-03T07:50:53.214Z</time>
      </trkpt>
      <trkpt lat="48.81504" lon="1.8627">
        <ele>76</ele>
        <time>2022-10-03T07:50:57.229Z</time>
      </trkpt>
      <trkpt lat="48.81503" lon="1.86278">
        <ele>76</ele>
        <time>2022-10-03T07:51:01.245Z</time>
      </trkpt>
      <trkpt lat="48.81503" lon="1.86288">
        <ele>76</ele>
        <time>2022-10-03T07:51:06.226Z</time>
      </trkpt>
      <trkpt lat="48.81503" lon="1.86297">
        <ele>77</ele>
        <time>2022-10-03T07:51:10.229Z</time>
      </trkpt>
      <trkpt lat="48.81502" lon="1.86305">
        <ele>77</ele>
        <time>2022-10-03T07:51:14.237Z</time>
      </trkpt>
      <trkpt lat="48.81501" lon="1.86315">
        <ele>77</ele>
        <time>2022-10-03T07:51:19.245Z</time>
      </trkpt>
      <trkpt lat="48.81499" lon="1.86321">
        <ele>78</ele>
        <time>2022-10-03T07:51:24.178Z</time>
      </trkpt>
      <trkpt lat="48.81499" lon="1.86323">
        <ele>78</ele>
        <time>2022-10-03T07:51:28.215Z</time>
      </trkpt>
      <trkpt lat="48.81498" lon="1.86331">
        <ele>78</ele>
        <time>2022-10-03T07:51:33.218Z</time>
      </trkpt>
      <trkpt lat="48.81496" lon="1.8634">
        <ele>78</ele>
        <time>2022-10-03T07:51:38.208Z</time>
      </trkpt>
      <trkpt lat="48.81496" lon="1.86347">
        <ele>78</ele>
        <time>2022-10-03T07:51:42.223Z</time>
      </trkpt>
      <trkpt lat="48.81494" lon="1.86356">
        <ele>78</ele>
        <time>2022-10-03T07:51:47.200Z</time>
      </trkpt>
      <trkpt lat="48.81493" lon="1.86364">
        <ele>78</ele>
        <time>2022-10-03T07:51:51.230Z</time>
      </trkpt>
      <trkpt lat="48.81492" lon="1.86372">
        <ele>78</ele>
        <time>2022-10-03T07:51:55.229Z</time>
      </trkpt>
      <trkpt lat="48.81491" lon="1.86381">
        <ele>77</ele>
        <time>2022-10-03T07:51:59.235Z</time>
      </trkpt>
      <trkpt lat="48.81492" lon="1.8639">
        <ele>77</ele>
        <time>2022-10-03T07:52:04.212Z</time>
      </trkpt>
      <trkpt lat="48.81497" lon="1.86393">
        <ele>77</ele>
        <time>2022-10-03T07:52:09.186Z</time>
      </trkpt>
      <trkpt lat="48.81502" lon="1.86401">
        <ele>77</ele>
        <time>2022-10-03T07:52:14.182Z</time>
      </trkpt>
      <trkpt lat="48.81508" lon="1.86403">
        <ele>77</ele>
        <time>2022-10-03T07:52:19.181Z</time>
      </trkpt>
      <trkpt lat="48.8151" lon="1.86404">
        <ele>77</ele>
        <time>2022-10-03T07:52:24.188Z</time>
      </trkpt>
      <trkpt lat="48.81512" lon="1.86409">
        <ele>77</ele>
        <time>2022-10-03T07:52:28.196Z</time>
      </trkpt>
      <trkpt lat="48.81515" lon="1.86418">
        <ele>78</ele>
        <time>2022-10-03T07:52:33.184Z</time>
      </trkpt>
      <trkpt lat="48.81513" lon="1.86426">
        <ele>77</ele>
        <time>2022-10-03T07:52:37.185Z</time>
      </trkpt>
      <trkpt lat="48.81516" lon="1.86431">
        <ele>77</ele>
        <time>2022-10-03T07:52:42.193Z</time>
      </trkpt>
      <trkpt lat="48.81518" lon="1.86435">
        <ele>77</ele>
        <time>2022-10-03T07:52:47.187Z</time>
      </trkpt>
      <trkpt lat="48.81523" lon="1.86438">
        <ele>77</ele>
        <time>2022-10-03T07:52:52.186Z</time>
      </trkpt>
      <trkpt lat="48.81524" lon="1.86438">
        <ele>77</ele>
        <time>2022-10-03T07:52:57.191Z</time>
      </trkpt>
      <trkpt lat="48.81526" lon="1.86439">
        <ele>77</ele>
        <time>2022-10-03T07:53:02.186Z</time>
      </trkpt>
      <trkpt lat="48.81529" lon="1.86443">
        <ele>77</ele>
        <time>2022-10-03T07:53:07.185Z</time>
      </trkpt>
      <trkpt lat="48.81535" lon="1.8645">
        <ele>77</ele>
        <time>2022-10-03T07:53:12.188Z</time>
      </trkpt>
      <trkpt lat="48.81537" lon="1.86453">
        <ele>77</ele>
        <time>2022-10-03T07:53:17.190Z</time>
      </trkpt>
      <trkpt lat="48.81541" lon="1.86454">
        <ele>77</ele>
        <time>2022-10-03T07:53:22.180Z</time>
      </trkpt>
      <trkpt lat="48.81543" lon="1.86451">
        <ele>79</ele>
        <time>2022-10-03T07:53:32.174Z</time>
      </trkpt>
      <trkpt lat="48.81543" lon="1.8645">
        <ele>79</ele>
        <time>2022-10-03T07:53:37.191Z</time>
      </trkpt>
      <trkpt lat="48.81544" lon="1.86456">
        <ele>79</ele>
        <time>2022-10-03T07:53:42.176Z</time>
      </trkpt>
      <trkpt lat="48.81539" lon="1.86463">
        <ele>76</ele>
        <time>2022-10-03T07:53:46.175Z</time>
      </trkpt>
      <trkpt lat="48.81511" lon="1.86495">
        <ele>73</ele>
        <time>2022-10-03T07:53:51.180Z</time>
      </trkpt>
      <trkpt lat="48.81485" lon="1.86528">
        <ele>70</ele>
        <time>2022-10-03T07:53:56.170Z</time>
      </trkpt>
      <trkpt lat="48.81482" lon="1.86516">
        <ele>70</ele>
        <time>2022-10-03T07:54:00.175Z</time>
      </trkpt>
      <trkpt lat="48.81497" lon="1.86507">
        <ele>73</ele>
        <time>2022-10-03T07:54:05.178Z</time>
      </trkpt>
      <trkpt lat="48.81497" lon="1.86488">
        <ele>73</ele>
        <time>2022-10-03T07:54:09.174Z</time>
      </trkpt>
      <trkpt lat="48.815" lon="1.86467">
        <ele>74</ele>
        <time>2022-10-03T07:54:13.172Z</time>
      </trkpt>
      <trkpt lat="48.8151" lon="1.86462">
        <ele>74</ele>
        <time>2022-10-03T07:54:18.172Z</time>
      </trkpt>
      <trkpt lat="48.81516" lon="1.8645">
        <ele>77</ele>
        <time>2022-10-03T07:54:22.196Z</time>
      </trkpt>
      <trkpt lat="48.81533" lon="1.86452">
        <ele>77</ele>
        <time>2022-10-03T07:54:27.179Z</time>
      </trkpt>
      <trkpt lat="48.8154" lon="1.86444">
        <ele>77</ele>
        <time>2022-10-03T07:54:31.180Z</time>
      </trkpt>
      <trkpt lat="48.81544" lon="1.86445">
        <ele>79</ele>
        <time>2022-10-03T07:54:35.206Z</time>
      </trkpt>
      <trkpt lat="48.81543" lon="1.86437">
        <ele>79</ele>
        <time>2022-10-03T07:54:40.169Z</time>
      </trkpt>
      <trkpt lat="48.81542" lon="1.86435">
        <ele>79</ele>
        <time>2022-10-03T07:54:45.173Z</time>
      </trkpt>
      <trkpt lat="48.81547" lon="1.86434">
        <ele>79</ele>
        <time>2022-10-03T07:54:49.192Z</time>
      </trkpt>
      <trkpt lat="48.81552" lon="1.86441">
        <ele>79</ele>
        <time>2022-10-03T07:55:26.200Z</time>
      </trkpt>
      <trkpt lat="48.81551" lon="1.86453">
        <ele>79</ele>
        <time>2022-10-03T07:55:30.211Z</time>
      </trkpt>
      <trkpt lat="48.81547" lon="1.86452">
        <ele>79</ele>
        <time>2022-10-03T07:55:35.219Z</time>
      </trkpt>
      <trkpt lat="48.81538" lon="1.86445">
        <ele>77</ele>
        <time>2022-10-03T07:55:40.211Z</time>
      </trkpt>
      <trkpt lat="48.81536" lon="1.86444">
        <ele>77</ele>
        <time>2022-10-03T07:55:45.198Z</time>
      </trkpt>
      <trkpt lat="48.81519" lon="1.86448">
        <ele>77</ele>
        <time>2022-10-03T07:58:03.227Z</time>
      </trkpt>
      <trkpt lat="48.81516" lon="1.86448">
        <ele>77</ele>
        <time>2022-10-03T07:58:07.227Z</time>
      </trkpt>
      <trkpt lat="48.81511" lon="1.86451">
        <ele>76</ele>
        <time>2022-10-03T07:58:11.232Z</time>
      </trkpt>
      <trkpt lat="48.81508" lon="1.86459">
        <ele>74</ele>
        <time>2022-10-03T07:58:16.214Z</time>
      </trkpt>
      <trkpt lat="48.81507" lon="1.86469">
        <ele>74</ele>
        <time>2022-10-03T07:58:21.197Z</time>
      </trkpt>
      <trkpt lat="48.81507" lon="1.86486">
        <ele>73</ele>
        <time>2022-10-03T07:59:40.206Z</time>
      </trkpt>
      <trkpt lat="48.81507" lon="1.86487">
        <ele>73</ele>
        <time>2022-10-03T07:59:44.207Z</time>
      </trkpt>
      <trkpt lat="48.81507" lon="1.86488">
        <ele>73</ele>
        <time>2022-10-03T07:59:49.239Z</time>
      </trkpt>
      <trkpt lat="48.81507" lon="1.86489">
        <ele>73</ele>
        <time>2022-10-03T07:59:54.221Z</time>
      </trkpt>
      <trkpt lat="48.81508" lon="1.86489">
        <ele>73</ele>
        <time>2022-10-03T07:59:59.231Z</time>
      </trkpt>
      <trkpt lat="48.81508" lon="1.86488">
        <ele>73</ele>
        <time>2022-10-03T08:00:08.212Z</time>
      </trkpt>
      <trkpt lat="48.8151" lon="1.86483">
        <ele>74</ele>
        <time>2022-10-03T08:00:13.238Z</time>
      </trkpt>
      <trkpt lat="48.81512" lon="1.86482">
        <ele>74</ele>
        <time>2022-10-03T08:00:17.238Z</time>
      </trkpt>
      <trkpt lat="48.81516" lon="1.86485">
        <ele>76</ele>
        <time>2022-10-03T08:00:22.203Z</time>
      </trkpt>
      <trkpt lat="48.81517" lon="1.86489">
        <ele>76</ele>
        <time>2022-10-03T08:00:26.203Z</time>
      </trkpt>
      <trkpt lat="48.81518" lon="1.86497">
        <ele>76</ele>
        <time>2022-10-03T08:00:31.234Z</time>
      </trkpt>
      <trkpt lat="48.81519" lon="1.86506">
        <ele>76</ele>
        <time>2022-10-03T08:00:36.195Z</time>
      </trkpt>
      <trkpt lat="48.81521" lon="1.86515">
        <ele>75</ele>
        <time>2022-10-03T08:00:40.203Z</time>
      </trkpt>
      <trkpt lat="48.81522" lon="1.86524">
        <ele>75</ele>
        <time>2022-10-03T08:00:45.227Z</time>
      </trkpt>
      <trkpt lat="48.81523" lon="1.86532">
        <ele>75</ele>
        <time>2022-10-03T08:00:50.186Z</time>
      </trkpt>
      <trkpt lat="48.81526" lon="1.8654">
        <ele>75</ele>
        <time>2022-10-03T08:00:54.196Z</time>
      </trkpt>
      <trkpt lat="48.81528" lon="1.86548">
        <ele>74</ele>
        <time>2022-10-03T08:00:58.200Z</time>
      </trkpt>
      <trkpt lat="48.81533" lon="1.86558">
        <ele>74</ele>
        <time>2022-10-03T08:01:03.216Z</time>
      </trkpt>
      <trkpt lat="48.81537" lon="1.86567">
        <ele>74</ele>
        <time>2022-10-03T08:01:08.207Z</time>
      </trkpt>
      <trkpt lat="48.81542" lon="1.86575">
        <ele>72</ele>
        <time>2022-10-03T08:01:13.210Z</time>
      </trkpt>
      <trkpt lat="48.81545" lon="1.86582">
        <ele>76</ele>
        <time>2022-10-03T08:01:17.212Z</time>
      </trkpt>
      <trkpt lat="48.81549" lon="1.8659">
        <ele>76</ele>
        <time>2022-10-03T08:01:21.221Z</time>
      </trkpt>
      <trkpt lat="48.81552" lon="1.86598">
        <ele>75</ele>
        <time>2022-10-03T08:01:25.232Z</time>
      </trkpt>
      <trkpt lat="48.81555" lon="1.86605">
        <ele>75</ele>
        <time>2022-10-03T08:01:29.237Z</time>
      </trkpt>
      <trkpt lat="48.81558" lon="1.86614">
        <ele>75</ele>
        <time>2022-10-03T08:01:34.191Z</time>
      </trkpt>
      <trkpt lat="48.81563" lon="1.86624">
        <ele>75</ele>
        <time>2022-10-03T08:01:39.223Z</time>
      </trkpt>
      <trkpt lat="48.81567" lon="1.86633">
        <ele>73</ele>
        <time>2022-10-03T08:01:44.202Z</time>
      </trkpt>
      <trkpt lat="48.81571" lon="1.86643">
        <ele>73</ele>
        <time>2022-10-03T08:01:49.224Z</time>
      </trkpt>
      <trkpt lat="48.81577" lon="1.86651">
        <ele>73</ele>
        <time>2022-10-03T08:01:54.198Z</time>
      </trkpt>
      <trkpt lat="48.81581" lon="1.86659">
        <ele>70</ele>
        <time>2022-10-03T08:01:59.200Z</time>
      </trkpt>
      <trkpt lat="48.81584" lon="1.86667">
        <ele>70</ele>
        <time>2022-10-03T08:02:03.223Z</time>
      </trkpt>
      <trkpt lat="48.81587" lon="1.86677">
        <ele>70</ele>
        <time>2022-10-03T08:02:08.190Z</time>
      </trkpt>
      <trkpt lat="48.8159" lon="1.86685">
        <ele>68</ele>
        <time>2022-10-03T08:02:12.192Z</time>
      </trkpt>
      <trkpt lat="48.81594" lon="1.86692">
        <ele>68</ele>
        <time>2022-10-03T08:02:16.206Z</time>
      </trkpt>
      <trkpt lat="48.81598" lon="1.86702">
        <ele>68</ele>
        <time>2022-10-03T08:02:21.215Z</time>
      </trkpt>
      <trkpt lat="48.81601" lon="1.86709">
        <ele>68</ele>
        <time>2022-10-03T08:02:26.203Z</time>
      </trkpt>
      <trkpt lat="48.816" lon="1.86715">
        <ele>68</ele>
        <time>2022-10-03T08:02:31.211Z</time>
      </trkpt>
      <trkpt lat="48.81603" lon="1.86719">
        <ele>68</ele>
        <time>2022-10-03T08:02:36.197Z</time>
      </trkpt>
      <trkpt lat="48.81605" lon="1.86725">
        <ele>68</ele>
        <time>2022-10-03T08:02:40.199Z</time>
      </trkpt>
      <trkpt lat="48.81606" lon="1.86733">
        <ele>68</ele>
        <time>2022-10-03T08:02:45.190Z</time>
      </trkpt>
      <trkpt lat="48.81609" lon="1.86739">
        <ele>67</ele>
        <time>2022-10-03T08:02:49.208Z</time>
      </trkpt>
      <trkpt lat="48.81611" lon="1.86752">
        <ele>67</ele>
        <time>2022-10-03T08:02:54.195Z</time>
      </trkpt>
      <trkpt lat="48.81614" lon="1.86765">
        <ele>66</ele>
        <time>2022-10-03T08:02:59.202Z</time>
      </trkpt>
      <trkpt lat="48.81617" lon="1.86777">
        <ele>66</ele>
        <time>2022-10-03T08:03:04.185Z</time>
      </trkpt>
      <trkpt lat="48.81618" lon="1.86786">
        <ele>66</ele>
        <time>2022-10-03T08:03:08.194Z</time>
      </trkpt>
      <trkpt lat="48.8162" lon="1.86798">
        <ele>65</ele>
        <time>2022-10-03T08:03:13.203Z</time>
      </trkpt>
      <trkpt lat="48.8162" lon="1.86807">
        <ele>65</ele>
        <time>2022-10-03T08:03:17.211Z</time>
      </trkpt>
      <trkpt lat="48.81621" lon="1.86819">
        <ele>65</ele>
        <time>2022-10-03T08:03:22.197Z</time>
      </trkpt>
      <trkpt lat="48.81621" lon="1.8683">
        <ele>65</ele>
        <time>2022-10-03T08:03:27.183Z</time>
      </trkpt>
      <trkpt lat="48.8162" lon="1.8684">
        <ele>65</ele>
        <time>2022-10-03T08:03:32.191Z</time>
      </trkpt>
      <trkpt lat="48.8162" lon="1.86852">
        <ele>65</ele>
        <time>2022-10-03T08:03:37.186Z</time>
      </trkpt>
      <trkpt lat="48.81619" lon="1.8686">
        <ele>65</ele>
        <time>2022-10-03T08:03:41.193Z</time>
      </trkpt>
      <trkpt lat="48.81617" lon="1.86866">
        <ele>65</ele>
        <time>2022-10-03T08:03:45.203Z</time>
      </trkpt>
      <trkpt lat="48.81613" lon="1.86873">
        <ele>65</ele>
        <time>2022-10-03T08:03:50.194Z</time>
      </trkpt>
      <trkpt lat="48.81609" lon="1.86877">
        <ele>64</ele>
        <time>2022-10-03T08:03:54.194Z</time>
      </trkpt>
      <trkpt lat="48.81605" lon="1.86884">
        <ele>64</ele>
        <time>2022-10-03T08:03:59.180Z</time>
      </trkpt>
      <trkpt lat="48.81603" lon="1.86891">
        <ele>64</ele>
        <time>2022-10-03T08:04:03.203Z</time>
      </trkpt>
      <trkpt lat="48.81597" lon="1.86898">
        <ele>63</ele>
        <time>2022-10-03T08:04:08.196Z</time>
      </trkpt>
      <trkpt lat="48.81592" lon="1.86906">
        <ele>62</ele>
        <time>2022-10-03T08:04:13.186Z</time>
      </trkpt>
      <trkpt lat="48.81589" lon="1.86913">
        <ele>62</ele>
        <time>2022-10-03T08:04:17.192Z</time>
      </trkpt>
      <trkpt lat="48.81585" lon="1.86918">
        <ele>62</ele>
        <time>2022-10-03T08:04:21.216Z</time>
      </trkpt>
      <trkpt lat="48.8158" lon="1.86925">
        <ele>62</ele>
        <time>2022-10-03T08:04:25.238Z</time>
      </trkpt>
      <trkpt lat="48.81575" lon="1.86934">
        <ele>61</ele>
        <time>2022-10-03T08:04:30.194Z</time>
      </trkpt>
      <trkpt lat="48.81569" lon="1.86941">
        <ele>62</ele>
        <time>2022-10-03T08:04:35.189Z</time>
      </trkpt>
      <trkpt lat="48.81565" lon="1.86948">
        <ele>62</ele>
        <time>2022-10-03T08:04:39.228Z</time>
      </trkpt>
      <trkpt lat="48.81559" lon="1.86955">
        <ele>62</ele>
        <time>2022-10-03T08:04:44.181Z</time>
      </trkpt>
      <trkpt lat="48.81551" lon="1.86972">
        <ele>62</ele>
        <time>2022-10-03T08:05:02.188Z</time>
      </trkpt>
      <trkpt lat="48.81552" lon="1.86975">
        <ele>62</ele>
        <time>2022-10-03T08:05:06.197Z</time>
      </trkpt>
      <trkpt lat="48.81554" lon="1.86981">
        <ele>62</ele>
        <time>2022-10-03T08:05:10.203Z</time>
      </trkpt>
      <trkpt lat="48.81556" lon="1.8699">
        <ele>62</ele>
        <time>2022-10-03T08:05:15.236Z</time>
      </trkpt>
      <trkpt lat="48.81557" lon="1.86998">
        <ele>62</ele>
        <time>2022-10-03T08:05:19.244Z</time>
      </trkpt>
      <trkpt lat="48.81558" lon="1.87008">
        <ele>62</ele>
        <time>2022-10-03T08:05:24.204Z</time>
      </trkpt>
      <trkpt lat="48.81558" lon="1.87017">
        <ele>63</ele>
        <time>2022-10-03T08:05:29.241Z</time>
      </trkpt>
      <trkpt lat="48.8156" lon="1.87023">
        <ele>63</ele>
        <time>2022-10-03T08:05:34.205Z</time>
      </trkpt>
      <trkpt lat="48.81562" lon="1.8703">
        <ele>63</ele>
        <time>2022-10-03T08:05:39.213Z</time>
      </trkpt>
      <trkpt lat="48.81563" lon="1.8704">
        <ele>63</ele>
        <time>2022-10-03T08:05:44.190Z</time>
      </trkpt>
      <trkpt lat="48.81564" lon="1.87048">
        <ele>64</ele>
        <time>2022-10-03T08:05:48.212Z</time>
      </trkpt>
      <trkpt lat="48.81567" lon="1.87057">
        <ele>64</ele>
        <time>2022-10-03T08:05:53.224Z</time>
      </trkpt>
      <trkpt lat="48.81569" lon="1.87066">
        <ele>64</ele>
        <time>2022-10-03T08:05:58.205Z</time>
      </trkpt>
      <trkpt lat="48.81572" lon="1.87076">
        <ele>64</ele>
        <time>2022-10-03T08:06:03.203Z</time>
      </trkpt>
      <trkpt lat="48.81574" lon="1.87084">
        <ele>64</ele>
        <time>2022-10-03T08:06:07.233Z</time>
      </trkpt>
      <trkpt lat="48.81577" lon="1.87093">
        <ele>64</ele>
        <time>2022-10-03T08:06:12.202Z</time>
      </trkpt>
      <trkpt lat="48.8158" lon="1.87103">
        <ele>66</ele>
        <time>2022-10-03T08:06:17.230Z</time>
      </trkpt>
      <trkpt lat="48.81583" lon="1.87112">
        <ele>66</ele>
        <time>2022-10-03T08:06:22.207Z</time>
      </trkpt>
      <trkpt lat="48.81587" lon="1.87119">
        <ele>66</ele>
        <time>2022-10-03T08:06:27.234Z</time>
      </trkpt>
      <trkpt lat="48.81591" lon="1.87128">
        <ele>67</ele>
        <time>2022-10-03T08:06:32.214Z</time>
      </trkpt>
      <trkpt lat="48.81595" lon="1.87138">
        <ele>67</ele>
        <time>2022-10-03T08:06:37.224Z</time>
      </trkpt>
      <trkpt lat="48.81599" lon="1.87147">
        <ele>64</ele>
        <time>2022-10-03T08:06:42.216Z</time>
      </trkpt>
      <trkpt lat="48.81603" lon="1.87155">
        <ele>65</ele>
        <time>2022-10-03T08:06:47.210Z</time>
      </trkpt>
      <trkpt lat="48.81606" lon="1.87162">
        <ele>65</ele>
        <time>2022-10-03T08:06:51.213Z</time>
      </trkpt>
      <trkpt lat="48.81609" lon="1.87169">
        <ele>65</ele>
        <time>2022-10-03T08:06:55.246Z</time>
      </trkpt>
      <trkpt lat="48.81613" lon="1.87177">
        <ele>65</ele>
        <time>2022-10-03T08:07:00.191Z</time>
      </trkpt>
      <trkpt lat="48.81616" lon="1.87183">
        <ele>66</ele>
        <time>2022-10-03T08:07:04.221Z</time>
      </trkpt>
      <trkpt lat="48.8162" lon="1.87191">
        <ele>66</ele>
        <time>2022-10-03T08:07:09.226Z</time>
      </trkpt>
      <trkpt lat="48.81625" lon="1.872">
        <ele>66</ele>
        <time>2022-10-03T08:07:14.195Z</time>
      </trkpt>
      <trkpt lat="48.81628" lon="1.87206">
        <ele>65</ele>
        <time>2022-10-03T08:07:18.201Z</time>
      </trkpt>
      <trkpt lat="48.81632" lon="1.87211">
        <ele>67</ele>
        <time>2022-10-03T08:07:22.207Z</time>
      </trkpt>
      <trkpt lat="48.81636" lon="1.87219">
        <ele>67</ele>
        <time>2022-10-03T08:07:27.226Z</time>
      </trkpt>
      <trkpt lat="48.81641" lon="1.87227">
        <ele>67</ele>
        <time>2022-10-03T08:07:32.191Z</time>
      </trkpt>
      <trkpt lat="48.81644" lon="1.87233">
        <ele>67</ele>
        <time>2022-10-03T08:07:36.200Z</time>
      </trkpt>
      <trkpt lat="48.81647" lon="1.8724">
        <ele>68</ele>
        <time>2022-10-03T08:07:41.188Z</time>
      </trkpt>
      <trkpt lat="48.8165" lon="1.87246">
        <ele>68</ele>
        <time>2022-10-03T08:07:45.230Z</time>
      </trkpt>
      <trkpt lat="48.81654" lon="1.87254">
        <ele>66</ele>
        <time>2022-10-03T08:07:50.207Z</time>
      </trkpt>
      <trkpt lat="48.81658" lon="1.87263">
        <ele>66</ele>
        <time>2022-10-03T08:07:55.222Z</time>
      </trkpt>
      <trkpt lat="48.81663" lon="1.87271">
        <ele>68</ele>
        <time>2022-10-03T08:08:00.197Z</time>
      </trkpt>
      <trkpt lat="48.81667" lon="1.8728">
        <ele>68</ele>
        <time>2022-10-03T08:08:05.222Z</time>
      </trkpt>
      <trkpt lat="48.81669" lon="1.87289">
        <ele>68</ele>
        <time>2022-10-03T08:08:10.205Z</time>
      </trkpt>
      <trkpt lat="48.81673" lon="1.87298">
        <ele>71</ele>
        <time>2022-10-03T08:08:15.215Z</time>
      </trkpt>
      <trkpt lat="48.81676" lon="1.87307">
        <ele>71</ele>
        <time>2022-10-03T08:08:20.204Z</time>
      </trkpt>
      <trkpt lat="48.8168" lon="1.87314">
        <ele>71</ele>
        <time>2022-10-03T08:08:24.224Z</time>
      </trkpt>
      <trkpt lat="48.81683" lon="1.87322">
        <ele>72</ele>
        <time>2022-10-03T08:08:29.231Z</time>
      </trkpt>
      <trkpt lat="48.81686" lon="1.87331">
        <ele>72</ele>
        <time>2022-10-03T08:08:34.217Z</time>
      </trkpt>
      <trkpt lat="48.8169" lon="1.87341">
        <ele>72</ele>
        <time>2022-10-03T08:08:39.209Z</time>
      </trkpt>
      <trkpt lat="48.81693" lon="1.87347">
        <ele>72</ele>
        <time>2022-10-03T08:08:43.224Z</time>
      </trkpt>
      <trkpt lat="48.81696" lon="1.87355">
        <ele>72</ele>
        <time>2022-10-03T08:08:48.206Z</time>
      </trkpt>
      <trkpt lat="48.81699" lon="1.87364">
        <ele>72</ele>
        <time>2022-10-03T08:08:53.213Z</time>
      </trkpt>
      <trkpt lat="48.81701" lon="1.87374">
        <ele>72</ele>
        <time>2022-10-03T08:08:58.192Z</time>
      </trkpt>
      <trkpt lat="48.81704" lon="1.87381">
        <ele>72</ele>
        <time>2022-10-03T08:09:02.210Z</time>
      </trkpt>
      <trkpt lat="48.81707" lon="1.87389">
        <ele>72</ele>
        <time>2022-10-03T08:09:06.217Z</time>
      </trkpt>
      <trkpt lat="48.8171" lon="1.87399">
        <ele>72</ele>
        <time>2022-10-03T08:09:11.215Z</time>
      </trkpt>
      <trkpt lat="48.81712" lon="1.87405">
        <ele>72</ele>
        <time>2022-10-03T08:09:15.229Z</time>
      </trkpt>
      <trkpt lat="48.81715" lon="1.87412">
        <ele>72</ele>
        <time>2022-10-03T08:09:20.205Z</time>
      </trkpt>
      <trkpt lat="48.81718" lon="1.8742">
        <ele>72</ele>
        <time>2022-10-03T08:09:25.216Z</time>
      </trkpt>
      <trkpt lat="48.81722" lon="1.87429">
        <ele>72</ele>
        <time>2022-10-03T08:09:30.232Z</time>
      </trkpt>
      <trkpt lat="48.81725" lon="1.87438">
        <ele>72</ele>
        <time>2022-10-03T08:09:35.216Z</time>
      </trkpt>
      <trkpt lat="48.81728" lon="1.87444">
        <ele>72</ele>
        <time>2022-10-03T08:09:39.227Z</time>
      </trkpt>
      <trkpt lat="48.81731" lon="1.87453">
        <ele>72</ele>
        <time>2022-10-03T08:09:44.222Z</time>
      </trkpt>
      <trkpt lat="48.81735" lon="1.87461">
        <ele>71</ele>
        <time>2022-10-03T08:09:49.226Z</time>
      </trkpt>
      <trkpt lat="48.81738" lon="1.87468">
        <ele>71</ele>
        <time>2022-10-03T08:09:54.204Z</time>
      </trkpt>
      <trkpt lat="48.81742" lon="1.87476">
        <ele>71</ele>
        <time>2022-10-03T08:09:59.224Z</time>
      </trkpt>
      <trkpt lat="48.81744" lon="1.87482">
        <ele>71</ele>
        <time>2022-10-03T08:10:03.234Z</time>
      </trkpt>
      <trkpt lat="48.81748" lon="1.87491">
        <ele>71</ele>
        <time>2022-10-03T08:10:08.224Z</time>
      </trkpt>
      <trkpt lat="48.81751" lon="1.87501">
        <ele>71</ele>
        <time>2022-10-03T08:10:13.186Z</time>
      </trkpt>
      <trkpt lat="48.81753" lon="1.87508">
        <ele>71</ele>
        <time>2022-10-03T08:10:17.217Z</time>
      </trkpt>
      <trkpt lat="48.81756" lon="1.87518">
        <ele>72</ele>
        <time>2022-10-03T08:10:22.201Z</time>
      </trkpt>
      <trkpt lat="48.81759" lon="1.87525">
        <ele>72</ele>
        <time>2022-10-03T08:10:26.208Z</time>
      </trkpt>
      <trkpt lat="48.81762" lon="1.87535">
        <ele>72</ele>
        <time>2022-10-03T08:10:31.196Z</time>
      </trkpt>
      <trkpt lat="48.81765" lon="1.87542">
        <ele>72</ele>
        <time>2022-10-03T08:10:35.210Z</time>
      </trkpt>
      <trkpt lat="48.81768" lon="1.87549">
        <ele>72</ele>
        <time>2022-10-03T08:10:39.215Z</time>
      </trkpt>
      <trkpt lat="48.81771" lon="1.87559">
        <ele>72</ele>
        <time>2022-10-03T08:10:44.223Z</time>
      </trkpt>
      <trkpt lat="48.81774" lon="1.87567">
        <ele>72</ele>
        <time>2022-10-03T08:10:49.217Z</time>
      </trkpt>
      <trkpt lat="48.81776" lon="1.87574">
        <ele>71</ele>
        <time>2022-10-03T08:10:53.224Z</time>
      </trkpt>
      <trkpt lat="48.81779" lon="1.87583">
        <ele>71</ele>
        <time>2022-10-03T08:10:58.217Z</time>
      </trkpt>
      <trkpt lat="48.81781" lon="1.87591">
        <ele>71</ele>
        <time>2022-10-03T08:11:03.213Z</time>
      </trkpt>
      <trkpt lat="48.81784" lon="1.876">
        <ele>72</ele>
        <time>2022-10-03T08:11:08.221Z</time>
      </trkpt>
      <trkpt lat="48.81783" lon="1.87608">
        <ele>72</ele>
        <time>2022-10-03T08:11:13.202Z</time>
      </trkpt>
      <trkpt lat="48.81781" lon="1.87609">
        <ele>72</ele>
        <time>2022-10-03T08:11:17.218Z</time>
      </trkpt>
      <trkpt lat="48.81781" lon="1.87613">
        <ele>72</ele>
        <time>2022-10-03T08:11:22.204Z</time>
      </trkpt>
      <trkpt lat="48.81781" lon="1.87614">
        <ele>72</ele>
        <time>2022-10-03T08:11:26.238Z</time>
      </trkpt>
      <trkpt lat="48.81784" lon="1.87622">
        <ele>72</ele>
        <time>2022-10-03T08:11:31.224Z</time>
      </trkpt>
      <trkpt lat="48.81789" lon="1.8763">
        <ele>73</ele>
        <time>2022-10-03T08:11:36.208Z</time>
      </trkpt>
      <trkpt lat="48.81791" lon="1.87635">
        <ele>73</ele>
        <time>2022-10-03T08:11:40.217Z</time>
      </trkpt>
      <trkpt lat="48.81796" lon="1.87643">
        <ele>71</ele>
        <time>2022-10-03T08:11:45.213Z</time>
      </trkpt>
      <trkpt lat="48.818" lon="1.87653">
        <ele>71</ele>
        <time>2022-10-03T08:11:50.207Z</time>
      </trkpt>
      <trkpt lat="48.81801" lon="1.87661">
        <ele>74</ele>
        <time>2022-10-03T08:11:54.222Z</time>
      </trkpt>
      <trkpt lat="48.81804" lon="1.8767">
        <ele>74</ele>
        <time>2022-10-03T08:11:59.230Z</time>
      </trkpt>
      <trkpt lat="48.81805" lon="1.8768">
        <ele>74</ele>
        <time>2022-10-03T08:12:04.201Z</time>
      </trkpt>
      <trkpt lat="48.81808" lon="1.87686">
        <ele>76</ele>
        <time>2022-10-03T08:12:08.211Z</time>
      </trkpt>
      <trkpt lat="48.81812" lon="1.87693">
        <ele>76</ele>
        <time>2022-10-03T08:12:12.221Z</time>
      </trkpt>
      <trkpt lat="48.81814" lon="1.87703">
        <ele>76</ele>
        <time>2022-10-03T08:12:17.208Z</time>
      </trkpt>
      <trkpt lat="48.81816" lon="1.87711">
        <ele>77</ele>
        <time>2022-10-03T08:12:21.210Z</time>
      </trkpt>
      <trkpt lat="48.81818" lon="1.87719">
        <ele>77</ele>
        <time>2022-10-03T08:12:25.220Z</time>
      </trkpt>
      <trkpt lat="48.81822" lon="1.87729">
        <ele>77</ele>
        <time>2022-10-03T08:12:30.225Z</time>
      </trkpt>
      <trkpt lat="48.81823" lon="1.87736">
        <ele>77</ele>
        <time>2022-10-03T08:12:35.204Z</time>
      </trkpt>
      <trkpt lat="48.81825" lon="1.87743">
        <ele>78</ele>
        <time>2022-10-03T08:12:39.216Z</time>
      </trkpt>
      <trkpt lat="48.81827" lon="1.87753">
        <ele>78</ele>
        <time>2022-10-03T08:12:44.223Z</time>
      </trkpt>
      <trkpt lat="48.81829" lon="1.87761">
        <ele>78</ele>
        <time>2022-10-03T08:12:49.225Z</time>
      </trkpt>
      <trkpt lat="48.81831" lon="1.87771">
        <ele>79</ele>
        <time>2022-10-03T08:12:54.221Z</time>
      </trkpt>
      <trkpt lat="48.81831" lon="1.8778">
        <ele>79</ele>
        <time>2022-10-03T08:12:58.215Z</time>
      </trkpt>
      <trkpt lat="48.81832" lon="1.87792">
        <ele>79</ele>
        <time>2022-10-03T08:13:03.224Z</time>
      </trkpt>
      <trkpt lat="48.81833" lon="1.878">
        <ele>79</ele>
        <time>2022-10-03T08:13:07.239Z</time>
      </trkpt>
      <trkpt lat="48.81834" lon="1.87811">
        <ele>79</ele>
        <time>2022-10-03T08:13:12.211Z</time>
      </trkpt>
      <trkpt lat="48.81834" lon="1.87821">
        <ele>79</ele>
        <time>2022-10-03T08:13:17.222Z</time>
      </trkpt>
      <trkpt lat="48.81833" lon="1.8783">
        <ele>79</ele>
        <time>2022-10-03T08:13:22.206Z</time>
      </trkpt>
      <trkpt lat="48.81833" lon="1.87839">
        <ele>79</ele>
        <time>2022-10-03T08:13:27.212Z</time>
      </trkpt>
      <trkpt lat="48.81833" lon="1.87849">
        <ele>79</ele>
        <time>2022-10-03T08:13:32.211Z</time>
      </trkpt>
      <trkpt lat="48.81833" lon="1.8786">
        <ele>79</ele>
        <time>2022-10-03T08:13:37.207Z</time>
      </trkpt>
      <trkpt lat="48.81833" lon="1.8787">
        <ele>79</ele>
        <time>2022-10-03T08:13:42.236Z</time>
      </trkpt>
      <trkpt lat="48.81832" lon="1.8788">
        <ele>79</ele>
        <time>2022-10-03T08:13:47.210Z</time>
      </trkpt>
      <trkpt lat="48.81832" lon="1.87891">
        <ele>79</ele>
        <time>2022-10-03T08:13:52.203Z</time>
      </trkpt>
      <trkpt lat="48.81831" lon="1.87902">
        <ele>79</ele>
        <time>2022-10-03T08:13:57.209Z</time>
      </trkpt>
      <trkpt lat="48.81832" lon="1.8791">
        <ele>80</ele>
        <time>2022-10-03T08:14:01.226Z</time>
      </trkpt>
      <trkpt lat="48.81831" lon="1.8792">
        <ele>80</ele>
        <time>2022-10-03T08:14:06.206Z</time>
      </trkpt>
      <trkpt lat="48.81834" lon="1.8793">
        <ele>80</ele>
        <time>2022-10-03T08:14:11.213Z</time>
      </trkpt>
      <trkpt lat="48.81839" lon="1.87936">
        <ele>80</ele>
        <time>2022-10-03T08:14:16.201Z</time>
      </trkpt>
      <trkpt lat="48.81843" lon="1.87942">
        <ele>80</ele>
        <time>2022-10-03T08:14:20.219Z</time>
      </trkpt>
      <trkpt lat="48.81847" lon="1.87947">
        <ele>80</ele>
        <time>2022-10-03T08:14:24.225Z</time>
      </trkpt>
      <trkpt lat="48.81854" lon="1.87953">
        <ele>80</ele>
        <time>2022-10-03T08:14:29.235Z</time>
      </trkpt>
      <trkpt lat="48.81859" lon="1.87956">
        <ele>80</ele>
        <time>2022-10-03T08:14:34.215Z</time>
      </trkpt>
      <trkpt lat="48.81864" lon="1.8796">
        <ele>80</ele>
        <time>2022-10-03T08:14:39.230Z</time>
      </trkpt>
      <trkpt lat="48.8187" lon="1.87965">
        <ele>80</ele>
        <time>2022-10-03T08:14:44.207Z</time>
      </trkpt>
      <trkpt lat="48.81876" lon="1.87969">
        <ele>80</ele>
        <time>2022-10-03T08:14:49.227Z</time>
      </trkpt>
      <trkpt lat="48.81883" lon="1.87973">
        <ele>80</ele>
        <time>2022-10-03T08:14:54.220Z</time>
      </trkpt>
      <trkpt lat="48.81889" lon="1.87974">
        <ele>80</ele>
        <time>2022-10-03T08:14:59.211Z</time>
      </trkpt>
      <trkpt lat="48.81895" lon="1.87976">
        <ele>80</ele>
        <time>2022-10-03T08:15:03.214Z</time>
      </trkpt>
      <trkpt lat="48.819" lon="1.87976">
        <ele>80</ele>
        <time>2022-10-03T08:15:07.217Z</time>
      </trkpt>
      <trkpt lat="48.81907" lon="1.87977">
        <ele>79</ele>
        <time>2022-10-03T08:15:12.214Z</time>
      </trkpt>
      <trkpt lat="48.81913" lon="1.87978">
        <ele>79</ele>
        <time>2022-10-03T08:15:17.225Z</time>
      </trkpt>
      <trkpt lat="48.8192" lon="1.87979">
        <ele>79</ele>
        <time>2022-10-03T08:15:22.211Z</time>
      </trkpt>
      <trkpt lat="48.81927" lon="1.87981">
        <ele>79</ele>
        <time>2022-10-03T08:15:27.217Z</time>
      </trkpt>
      <trkpt lat="48.81933" lon="1.87982">
        <ele>79</ele>
        <time>2022-10-03T08:15:31.231Z</time>
      </trkpt>
      <trkpt lat="48.81939" lon="1.87984">
        <ele>79</ele>
        <time>2022-10-03T08:15:36.201Z</time>
      </trkpt>
      <trkpt lat="48.81943" lon="1.87984">
        <ele>79</ele>
        <time>2022-10-03T08:15:40.202Z</time>
      </trkpt>
      <trkpt lat="48.81948" lon="1.87986">
        <ele>79</ele>
        <time>2022-10-03T08:15:44.210Z</time>
      </trkpt>
      <trkpt lat="48.81954" lon="1.87988">
        <ele>79</ele>
        <time>2022-10-03T08:15:49.228Z</time>
      </trkpt>
      <trkpt lat="48.81961" lon="1.87987">
        <ele>79</ele>
        <time>2022-10-03T08:15:54.202Z</time>
      </trkpt>
      <trkpt lat="48.81967" lon="1.87988">
        <ele>79</ele>
        <time>2022-10-03T08:15:59.222Z</time>
      </trkpt>
      <trkpt lat="48.81972" lon="1.8799">
        <ele>79</ele>
        <time>2022-10-03T08:16:04.206Z</time>
      </trkpt>
      <trkpt lat="48.81978" lon="1.87992">
        <ele>79</ele>
        <time>2022-10-03T08:16:09.219Z</time>
      </trkpt>
      <trkpt lat="48.81986" lon="1.87993">
        <ele>79</ele>
        <time>2022-10-03T08:16:14.212Z</time>
      </trkpt>
      <trkpt lat="48.81992" lon="1.87993">
        <ele>79</ele>
        <time>2022-10-03T08:16:18.216Z</time>
      </trkpt>
      <trkpt lat="48.81996" lon="1.87993">
        <ele>79</ele>
        <time>2022-10-03T08:16:23.222Z</time>
      </trkpt>
      <trkpt lat="48.82001" lon="1.87993">
        <ele>79</ele>
        <time>2022-10-03T08:16:27.227Z</time>
      </trkpt>
      <trkpt lat="48.82006" lon="1.87994">
        <ele>79</ele>
        <time>2022-10-03T08:16:32.213Z</time>
      </trkpt>
      <trkpt lat="48.82012" lon="1.87994">
        <ele>79</ele>
        <time>2022-10-03T08:16:36.217Z</time>
      </trkpt>
      <trkpt lat="48.82019" lon="1.87995">
        <ele>79</ele>
        <time>2022-10-03T08:16:41.214Z</time>
      </trkpt>
      <trkpt lat="48.82024" lon="1.87996">
        <ele>79</ele>
        <time>2022-10-03T08:16:45.223Z</time>
      </trkpt>
      <trkpt lat="48.82028" lon="1.87998">
        <ele>79</ele>
        <time>2022-10-03T08:16:49.223Z</time>
      </trkpt>
      <trkpt lat="48.82034" lon="1.87997">
        <ele>79</ele>
        <time>2022-10-03T08:16:54.217Z</time>
      </trkpt>
      <trkpt lat="48.82042" lon="1.87996">
        <ele>79</ele>
        <time>2022-10-03T08:16:59.239Z</time>
      </trkpt>
      <trkpt lat="48.82048" lon="1.87997">
        <ele>79</ele>
        <time>2022-10-03T08:17:04.218Z</time>
      </trkpt>
      <trkpt lat="48.82054" lon="1.87996">
        <ele>79</ele>
        <time>2022-10-03T08:17:09.242Z</time>
      </trkpt>
      <trkpt lat="48.8206" lon="1.87996">
        <ele>79</ele>
        <time>2022-10-03T08:17:14.219Z</time>
      </trkpt>
      <trkpt lat="48.82066" lon="1.87995">
        <ele>79</ele>
        <time>2022-10-03T08:17:19.223Z</time>
      </trkpt>
      <trkpt lat="48.82072" lon="1.87994">
        <ele>79</ele>
        <time>2022-10-03T08:17:23.232Z</time>
      </trkpt>
      <trkpt lat="48.82078" lon="1.87994">
        <ele>79</ele>
        <time>2022-10-03T08:17:28.209Z</time>
      </trkpt>
      <trkpt lat="48.82086" lon="1.87994">
        <ele>79</ele>
        <time>2022-10-03T08:17:33.222Z</time>
      </trkpt>
      <trkpt lat="48.82093" lon="1.87993">
        <ele>79</ele>
        <time>2022-10-03T08:17:38.199Z</time>
      </trkpt>
      <trkpt lat="48.82097" lon="1.87992">
        <ele>79</ele>
        <time>2022-10-03T08:17:42.229Z</time>
      </trkpt>
      <trkpt lat="48.82103" lon="1.87992">
        <ele>78</ele>
        <time>2022-10-03T08:17:47.231Z</time>
      </trkpt>
      <trkpt lat="48.82109" lon="1.87991">
        <ele>78</ele>
        <time>2022-10-03T08:17:52.218Z</time>
      </trkpt>
      <trkpt lat="48.82114" lon="1.87993">
        <ele>78</ele>
        <time>2022-10-03T08:17:56.230Z</time>
      </trkpt>
      <trkpt lat="48.82117" lon="1.87997">
        <ele>78</ele>
        <time>2022-10-03T08:18:01.224Z</time>
      </trkpt>
      <trkpt lat="48.82117" lon="1.88004">
        <ele>78</ele>
        <time>2022-10-03T08:18:06.193Z</time>
      </trkpt>
      <trkpt lat="48.82117" lon="1.88013">
        <ele>78</ele>
        <time>2022-10-03T08:18:10.195Z</time>
      </trkpt>
      <trkpt lat="48.82118" lon="1.88024">
        <ele>78</ele>
        <time>2022-10-03T08:18:15.197Z</time>
      </trkpt>
      <trkpt lat="48.82117" lon="1.88031">
        <ele>78</ele>
        <time>2022-10-03T08:18:19.225Z</time>
      </trkpt>
      <trkpt lat="48.82118" lon="1.88042">
        <ele>79</ele>
        <time>2022-10-03T08:18:24.223Z</time>
      </trkpt>
      <trkpt lat="48.82118" lon="1.88052">
        <ele>79</ele>
        <time>2022-10-03T08:18:29.245Z</time>
      </trkpt>
      <trkpt lat="48.82117" lon="1.88058">
        <ele>79</ele>
        <time>2022-10-03T08:18:33.240Z</time>
      </trkpt>
      <trkpt lat="48.82116" lon="1.88067">
        <ele>79</ele>
        <time>2022-10-03T08:18:38.196Z</time>
      </trkpt>
      <trkpt lat="48.82115" lon="1.88075">
        <ele>79</ele>
        <time>2022-10-03T08:18:42.220Z</time>
      </trkpt>
      <trkpt lat="48.82113" lon="1.88083">
        <ele>79</ele>
        <time>2022-10-03T08:18:47.230Z</time>
      </trkpt>
      <trkpt lat="48.82113" lon="1.88091">
        <ele>79</ele>
        <time>2022-10-03T08:18:52.193Z</time>
      </trkpt>
      <trkpt lat="48.82113" lon="1.881">
        <ele>79</ele>
        <time>2022-10-03T08:18:57.193Z</time>
      </trkpt>
      <trkpt lat="48.82119" lon="1.88106">
        <ele>79</ele>
        <time>2022-10-03T08:19:01.210Z</time>
      </trkpt>
      <trkpt lat="48.82121" lon="1.88116">
        <ele>79</ele>
        <time>2022-10-03T08:19:06.207Z</time>
      </trkpt>
      <trkpt lat="48.82125" lon="1.88124">
        <ele>79</ele>
        <time>2022-10-03T08:19:11.220Z</time>
      </trkpt>
      <trkpt lat="48.82128" lon="1.88132">
        <ele>81</ele>
        <time>2022-10-03T08:19:16.200Z</time>
      </trkpt>
      <trkpt lat="48.82132" lon="1.8814">
        <ele>81</ele>
        <time>2022-10-03T08:19:20.212Z</time>
      </trkpt>
      <trkpt lat="48.82135" lon="1.88149">
        <ele>81</ele>
        <time>2022-10-03T08:19:25.213Z</time>
      </trkpt>
      <trkpt lat="48.82137" lon="1.88155">
        <ele>82</ele>
        <time>2022-10-03T08:19:29.220Z</time>
      </trkpt>
      <trkpt lat="48.82138" lon="1.8816">
        <ele>82</ele>
        <time>2022-10-03T08:19:33.222Z</time>
      </trkpt>
      <trkpt lat="48.82141" lon="1.88167">
        <ele>82</ele>
        <time>2022-10-03T08:19:37.222Z</time>
      </trkpt>
      <trkpt lat="48.82144" lon="1.88177">
        <ele>82</ele>
        <time>2022-10-03T08:19:42.226Z</time>
      </trkpt>
      <trkpt lat="48.82147" lon="1.88184">
        <ele>83</ele>
        <time>2022-10-03T08:19:46.225Z</time>
      </trkpt>
      <trkpt lat="48.8215" lon="1.88194">
        <ele>83</ele>
        <time>2022-10-03T08:19:51.239Z</time>
      </trkpt>
      <trkpt lat="48.82153" lon="1.88203">
        <ele>83</ele>
        <time>2022-10-03T08:19:56.217Z</time>
      </trkpt>
      <trkpt lat="48.82155" lon="1.88209">
        <ele>85</ele>
        <time>2022-10-03T08:20:00.235Z</time>
      </trkpt>
      <trkpt lat="48.82158" lon="1.88218">
        <ele>85</ele>
        <time>2022-10-03T08:20:05.215Z</time>
      </trkpt>
      <trkpt lat="48.82161" lon="1.88225">
        <ele>85</ele>
        <time>2022-10-03T08:20:09.222Z</time>
      </trkpt>
      <trkpt lat="48.82163" lon="1.88232">
        <ele>85</ele>
        <time>2022-10-03T08:20:13.247Z</time>
      </trkpt>
      <trkpt lat="48.82165" lon="1.88242">
        <ele>85</ele>
        <time>2022-10-03T08:20:18.226Z</time>
      </trkpt>
      <trkpt lat="48.82167" lon="1.8825">
        <ele>85</ele>
        <time>2022-10-03T08:20:23.239Z</time>
      </trkpt>
      <trkpt lat="48.82169" lon="1.88257">
        <ele>85</ele>
        <time>2022-10-03T08:20:27.241Z</time>
      </trkpt>
      <trkpt lat="48.82171" lon="1.88266">
        <ele>85</ele>
        <time>2022-10-03T08:20:32.235Z</time>
      </trkpt>
      <trkpt lat="48.82174" lon="1.88275">
        <ele>85</ele>
        <time>2022-10-03T08:20:37.232Z</time>
      </trkpt>
      <trkpt lat="48.82177" lon="1.88285">
        <ele>85</ele>
        <time>2022-10-03T08:20:42.213Z</time>
      </trkpt>
      <trkpt lat="48.82179" lon="1.88293">
        <ele>85</ele>
        <time>2022-10-03T08:20:46.241Z</time>
      </trkpt>
      <trkpt lat="48.8218" lon="1.88301">
        <ele>85</ele>
        <time>2022-10-03T08:20:50.238Z</time>
      </trkpt>
      <trkpt lat="48.82182" lon="1.88309">
        <ele>85</ele>
        <time>2022-10-03T08:20:55.230Z</time>
      </trkpt>
      <trkpt lat="48.82184" lon="1.88315">
        <ele>85</ele>
        <time>2022-10-03T08:20:59.251Z</time>
      </trkpt>
      <trkpt lat="48.82185" lon="1.88325">
        <ele>86</ele>
        <time>2022-10-03T08:21:04.243Z</time>
      </trkpt>
      <trkpt lat="48.82187" lon="1.88334">
        <ele>86</ele>
        <time>2022-10-03T08:21:09.243Z</time>
      </trkpt>
      <trkpt lat="48.82188" lon="1.8834">
        <ele>86</ele>
        <time>2022-10-03T08:21:13.231Z</time>
      </trkpt>
      <trkpt lat="48.8219" lon="1.8835">
        <ele>88</ele>
        <time>2022-10-03T08:21:18.218Z</time>
      </trkpt>
      <trkpt lat="48.82193" lon="1.88358">
        <ele>88</ele>
        <time>2022-10-03T08:21:23.231Z</time>
      </trkpt>
      <trkpt lat="48.82194" lon="1.88367">
        <ele>88</ele>
        <time>2022-10-03T08:21:27.248Z</time>
      </trkpt>
      <trkpt lat="48.82196" lon="1.88376">
        <ele>90</ele>
        <time>2022-10-03T08:21:32.224Z</time>
      </trkpt>
      <trkpt lat="48.82198" lon="1.88385">
        <ele>90</ele>
        <time>2022-10-03T08:21:37.242Z</time>
      </trkpt>
      <trkpt lat="48.82199" lon="1.88393">
        <ele>90</ele>
        <time>2022-10-03T08:21:41.233Z</time>
      </trkpt>
      <trkpt lat="48.822" lon="1.88401">
        <ele>90</ele>
        <time>2022-10-03T08:21:46.252Z</time>
      </trkpt>
      <trkpt lat="48.82201" lon="1.8841">
        <ele>92</ele>
        <time>2022-10-03T08:21:51.217Z</time>
      </trkpt>
      <trkpt lat="48.82202" lon="1.88418">
        <ele>92</ele>
        <time>2022-10-03T08:21:55.241Z</time>
      </trkpt>
      <trkpt lat="48.82203" lon="1.88423">
        <ele>92</ele>
        <time>2022-10-03T08:21:59.251Z</time>
      </trkpt>
      <trkpt lat="48.82204" lon="1.88433">
        <ele>94</ele>
        <time>2022-10-03T08:22:04.231Z</time>
      </trkpt>
      <trkpt lat="48.82205" lon="1.88444">
        <ele>94</ele>
        <time>2022-10-03T08:22:09.249Z</time>
      </trkpt>
      <trkpt lat="48.82206" lon="1.88453">
        <ele>94</ele>
        <time>2022-10-03T08:22:14.254Z</time>
      </trkpt>
      <trkpt lat="48.82208" lon="1.88463">
        <ele>96</ele>
        <time>2022-10-03T08:22:19.235Z</time>
      </trkpt>
      <trkpt lat="48.82209" lon="1.8847">
        <ele>97</ele>
        <time>2022-10-03T08:22:23.241Z</time>
      </trkpt>
      <trkpt lat="48.82209" lon="1.88479">
        <ele>97</ele>
        <time>2022-10-03T08:22:28.207Z</time>
      </trkpt>
      <trkpt lat="48.8221" lon="1.88488">
        <ele>97</ele>
        <time>2022-10-03T08:22:33.220Z</time>
      </trkpt>
      <trkpt lat="48.82213" lon="1.88496">
        <ele>97</ele>
        <time>2022-10-03T08:22:37.252Z</time>
      </trkpt>
      <trkpt lat="48.82214" lon="1.88502">
        <ele>97</ele>
        <time>2022-10-03T08:22:42.238Z</time>
      </trkpt>
      <trkpt lat="48.82218" lon="1.8851">
        <ele>97</ele>
        <time>2022-10-03T08:22:47.199Z</time>
      </trkpt>
      <trkpt lat="48.82222" lon="1.88516">
        <ele>97</ele>
        <time>2022-10-03T08:22:51.237Z</time>
      </trkpt>
      <trkpt lat="48.82229" lon="1.88517">
        <ele>97</ele>
        <time>2022-10-03T08:22:56.206Z</time>
      </trkpt>
      <trkpt lat="48.82235" lon="1.88515">
        <ele>97</ele>
        <time>2022-10-03T08:23:00.212Z</time>
      </trkpt>
      <trkpt lat="48.82242" lon="1.88516">
        <ele>96</ele>
        <time>2022-10-03T08:23:05.229Z</time>
      </trkpt>
      <trkpt lat="48.8225" lon="1.88515">
        <ele>96</ele>
        <time>2022-10-03T08:23:10.190Z</time>
      </trkpt>
      <trkpt lat="48.82255" lon="1.88513">
        <ele>95</ele>
        <time>2022-10-03T08:23:14.225Z</time>
      </trkpt>
      <trkpt lat="48.82261" lon="1.88512">
        <ele>95</ele>
        <time>2022-10-03T08:23:19.220Z</time>
      </trkpt>
      <trkpt lat="48.82266" lon="1.88511">
        <ele>94</ele>
        <time>2022-10-03T08:23:24.217Z</time>
      </trkpt>
      <trkpt lat="48.82271" lon="1.88508">
        <ele>94</ele>
        <time>2022-10-03T08:23:29.228Z</time>
      </trkpt>
      <trkpt lat="48.82276" lon="1.88506">
        <ele>94</ele>
        <time>2022-10-03T08:23:34.222Z</time>
      </trkpt>
      <trkpt lat="48.82283" lon="1.88506">
        <ele>94</ele>
        <time>2022-10-03T08:23:39.230Z</time>
      </trkpt>
      <trkpt lat="48.8229" lon="1.88504">
        <ele>94</ele>
        <time>2022-10-03T08:23:44.236Z</time>
      </trkpt>
      <trkpt lat="48.82296" lon="1.88502">
        <ele>93</ele>
        <time>2022-10-03T08:23:48.237Z</time>
      </trkpt>
      <trkpt lat="48.82302" lon="1.88499">
        <ele>93</ele>
        <time>2022-10-03T08:23:53.235Z</time>
      </trkpt>
      <trkpt lat="48.82308" lon="1.88499">
        <ele>93</ele>
        <time>2022-10-03T08:23:58.220Z</time>
      </trkpt>
      <trkpt lat="48.82313" lon="1.88496">
        <ele>93</ele>
        <time>2022-10-03T08:24:02.232Z</time>
      </trkpt>
      <trkpt lat="48.8232" lon="1.88492">
        <ele>92</ele>
        <time>2022-10-03T08:24:07.220Z</time>
      </trkpt>
      <trkpt lat="48.82325" lon="1.88491">
        <ele>92</ele>
        <time>2022-10-03T08:24:12.208Z</time>
      </trkpt>
      <trkpt lat="48.8233" lon="1.88491">
        <ele>92</ele>
        <time>2022-10-03T08:24:17.221Z</time>
      </trkpt>
      <trkpt lat="48.82335" lon="1.88491">
        <ele>92</ele>
        <time>2022-10-03T08:24:21.223Z</time>
      </trkpt>
      <trkpt lat="48.8234" lon="1.8849">
        <ele>92</ele>
        <time>2022-10-03T08:24:25.228Z</time>
      </trkpt>
      <trkpt lat="48.82345" lon="1.88491">
        <ele>92</ele>
        <time>2022-10-03T08:24:29.241Z</time>
      </trkpt>
      <trkpt lat="48.82352" lon="1.88495">
        <ele>92</ele>
        <time>2022-10-03T08:24:34.229Z</time>
      </trkpt>
      <trkpt lat="48.82359" lon="1.88502">
        <ele>92</ele>
        <time>2022-10-03T08:24:39.221Z</time>
      </trkpt>
      <trkpt lat="48.82363" lon="1.88506">
        <ele>92</ele>
        <time>2022-10-03T08:24:43.213Z</time>
      </trkpt>
      <trkpt lat="48.82369" lon="1.88512">
        <ele>92</ele>
        <time>2022-10-03T08:24:48.217Z</time>
      </trkpt>
      <trkpt lat="48.82374" lon="1.88518">
        <ele>93</ele>
        <time>2022-10-03T08:24:53.222Z</time>
      </trkpt>
      <trkpt lat="48.82379" lon="1.88525">
        <ele>93</ele>
        <time>2022-10-03T08:24:58.212Z</time>
      </trkpt>
      <trkpt lat="48.82383" lon="1.88531">
        <ele>93</ele>
        <time>2022-10-03T08:25:02.222Z</time>
      </trkpt>
      <trkpt lat="48.82388" lon="1.88538">
        <ele>93</ele>
        <time>2022-10-03T08:25:07.213Z</time>
      </trkpt>
      <trkpt lat="48.82392" lon="1.88544">
        <ele>94</ele>
        <time>2022-10-03T08:25:11.224Z</time>
      </trkpt>
      <trkpt lat="48.82396" lon="1.8855">
        <ele>94</ele>
        <time>2022-10-03T08:25:15.234Z</time>
      </trkpt>
      <trkpt lat="48.82399" lon="1.88558">
        <ele>94</ele>
        <time>2022-10-03T08:25:20.231Z</time>
      </trkpt>
      <trkpt lat="48.82402" lon="1.88567">
        <ele>94</ele>
        <time>2022-10-03T08:25:25.218Z</time>
      </trkpt>
      <trkpt lat="48.82403" lon="1.88576">
        <ele>97</ele>
        <time>2022-10-03T08:25:30.223Z</time>
      </trkpt>
      <trkpt lat="48.82404" lon="1.88584">
        <ele>97</ele>
        <time>2022-10-03T08:25:35.235Z</time>
      </trkpt>
      <trkpt lat="48.82405" lon="1.88594">
        <ele>97</ele>
        <time>2022-10-03T08:25:40.226Z</time>
      </trkpt>
      <trkpt lat="48.82406" lon="1.88603">
        <ele>98</ele>
        <time>2022-10-03T08:25:45.211Z</time>
      </trkpt>
      <trkpt lat="48.82406" lon="1.88612">
        <ele>98</ele>
        <time>2022-10-03T08:25:49.217Z</time>
      </trkpt>
      <trkpt lat="48.82408" lon="1.88621">
        <ele>98</ele>
        <time>2022-10-03T08:25:54.229Z</time>
      </trkpt>
      <trkpt lat="48.82411" lon="1.88627">
        <ele>98</ele>
        <time>2022-10-03T08:25:58.246Z</time>
      </trkpt>
      <trkpt lat="48.82414" lon="1.88635">
        <ele>98</ele>
        <time>2022-10-03T08:26:03.213Z</time>
      </trkpt>
      <trkpt lat="48.82417" lon="1.8864">
        <ele>98</ele>
        <time>2022-10-03T08:26:07.244Z</time>
      </trkpt>
      <trkpt lat="48.82422" lon="1.88647">
        <ele>98</ele>
        <time>2022-10-03T08:26:12.213Z</time>
      </trkpt>
      <trkpt lat="48.82428" lon="1.88654">
        <ele>99</ele>
        <time>2022-10-03T08:26:17.217Z</time>
      </trkpt>
      <trkpt lat="48.82432" lon="1.8866">
        <ele>99</ele>
        <time>2022-10-03T08:26:21.226Z</time>
      </trkpt>
      <trkpt lat="48.82436" lon="1.88667">
        <ele>99</ele>
        <time>2022-10-03T08:26:25.226Z</time>
      </trkpt>
      <trkpt lat="48.82441" lon="1.88674">
        <ele>99</ele>
        <time>2022-10-03T08:26:30.221Z</time>
      </trkpt>
      <trkpt lat="48.82445" lon="1.88682">
        <ele>99</ele>
        <time>2022-10-03T08:26:35.225Z</time>
      </trkpt>
      <trkpt lat="48.8245" lon="1.88689">
        <ele>99</ele>
        <time>2022-10-03T08:26:39.229Z</time>
      </trkpt>
      <trkpt lat="48.82454" lon="1.88696">
        <ele>99</ele>
        <time>2022-10-03T08:26:44.233Z</time>
      </trkpt>
      <trkpt lat="48.82459" lon="1.887">
        <ele>99</ele>
        <time>2022-10-03T08:26:49.223Z</time>
      </trkpt>
      <trkpt lat="48.82463" lon="1.88705">
        <ele>99</ele>
        <time>2022-10-03T08:26:54.223Z</time>
      </trkpt>
      <trkpt lat="48.82467" lon="1.88714">
        <ele>100</ele>
        <time>2022-10-03T08:26:59.209Z</time>
      </trkpt>
      <trkpt lat="48.8247" lon="1.8872">
        <ele>100</ele>
        <time>2022-10-03T08:27:03.231Z</time>
      </trkpt>
      <trkpt lat="48.82476" lon="1.88727">
        <ele>100</ele>
        <time>2022-10-03T08:27:08.230Z</time>
      </trkpt>
      <trkpt lat="48.82481" lon="1.88735">
        <ele>100</ele>
        <time>2022-10-03T08:27:13.228Z</time>
      </trkpt>
      <trkpt lat="48.82484" lon="1.88742">
        <ele>100</ele>
        <time>2022-10-03T08:27:17.226Z</time>
      </trkpt>
      <trkpt lat="48.82489" lon="1.88749">
        <ele>101</ele>
        <time>2022-10-03T08:27:22.230Z</time>
      </trkpt>
      <trkpt lat="48.82493" lon="1.88756">
        <ele>101</ele>
        <time>2022-10-03T08:27:27.223Z</time>
      </trkpt>
      <trkpt lat="48.82498" lon="1.88764">
        <ele>101</ele>
        <time>2022-10-03T08:27:32.252Z</time>
      </trkpt>
      <trkpt lat="48.82502" lon="1.88772">
        <ele>101</ele>
        <time>2022-10-03T08:27:37.243Z</time>
      </trkpt>
      <trkpt lat="48.82506" lon="1.8878">
        <ele>101</ele>
        <time>2022-10-03T08:27:42.248Z</time>
      </trkpt>
      <trkpt lat="48.82509" lon="1.88786">
        <ele>101</ele>
        <time>2022-10-03T08:27:46.257Z</time>
      </trkpt>
      <trkpt lat="48.82512" lon="1.88794">
        <ele>102</ele>
        <time>2022-10-03T08:27:51.223Z</time>
      </trkpt>
      <trkpt lat="48.82517" lon="1.888">
        <ele>102</ele>
        <time>2022-10-03T08:27:55.237Z</time>
      </trkpt>
      <trkpt lat="48.82521" lon="1.88805">
        <ele>102</ele>
        <time>2022-10-03T08:27:59.248Z</time>
      </trkpt>
      <trkpt lat="48.82525" lon="1.88811">
        <ele>102</ele>
        <time>2022-10-03T08:28:04.246Z</time>
      </trkpt>
      <trkpt lat="48.82529" lon="1.88819">
        <ele>102</ele>
        <time>2022-10-03T08:28:09.246Z</time>
      </trkpt>
      <trkpt lat="48.82532" lon="1.88825">
        <ele>104</ele>
        <time>2022-10-03T08:28:13.253Z</time>
      </trkpt>
      <trkpt lat="48.82536" lon="1.88831">
        <ele>104</ele>
        <time>2022-10-03T08:28:17.249Z</time>
      </trkpt>
      <trkpt lat="48.82541" lon="1.88839">
        <ele>104</ele>
        <time>2022-10-03T08:28:22.242Z</time>
      </trkpt>
      <trkpt lat="48.82546" lon="1.88847">
        <ele>105</ele>
        <time>2022-10-03T08:28:27.242Z</time>
      </trkpt>
      <trkpt lat="48.82551" lon="1.88854">
        <ele>106</ele>
        <time>2022-10-03T08:28:32.244Z</time>
      </trkpt>
      <trkpt lat="48.82556" lon="1.88862">
        <ele>106</ele>
        <time>2022-10-03T08:28:37.198Z</time>
      </trkpt>
      <trkpt lat="48.8256" lon="1.88868">
        <ele>106</ele>
        <time>2022-10-03T08:28:41.215Z</time>
      </trkpt>
      <trkpt lat="48.82563" lon="1.88873">
        <ele>106</ele>
        <time>2022-10-03T08:28:45.250Z</time>
      </trkpt>
      <trkpt lat="48.82567" lon="1.88881">
        <ele>107</ele>
        <time>2022-10-03T08:28:50.227Z</time>
      </trkpt>
      <trkpt lat="48.82572" lon="1.88887">
        <ele>107</ele>
        <time>2022-10-03T08:28:55.221Z</time>
      </trkpt>
      <trkpt lat="48.82575" lon="1.88894">
        <ele>107</ele>
        <time>2022-10-03T08:28:59.219Z</time>
      </trkpt>
      <trkpt lat="48.8258" lon="1.88901">
        <ele>107</ele>
        <time>2022-10-03T08:29:04.225Z</time>
      </trkpt>
      <trkpt lat="48.82585" lon="1.88907">
        <ele>107</ele>
        <time>2022-10-03T08:29:09.224Z</time>
      </trkpt>
      <trkpt lat="48.82588" lon="1.88914">
        <ele>107</ele>
        <time>2022-10-03T08:29:14.234Z</time>
      </trkpt>
      <trkpt lat="48.82592" lon="1.8892">
        <ele>107</ele>
        <time>2022-10-03T08:29:18.243Z</time>
      </trkpt>
      <trkpt lat="48.82596" lon="1.88928">
        <ele>107</ele>
        <time>2022-10-03T08:29:23.233Z</time>
      </trkpt>
      <trkpt lat="48.826" lon="1.88935">
        <ele>109</ele>
        <time>2022-10-03T08:29:28.239Z</time>
      </trkpt>
      <trkpt lat="48.82602" lon="1.88942">
        <ele>109</ele>
        <time>2022-10-03T08:29:32.247Z</time>
      </trkpt>
      <trkpt lat="48.82606" lon="1.88949">
        <ele>109</ele>
        <time>2022-10-03T08:29:37.236Z</time>
      </trkpt>
      <trkpt lat="48.82611" lon="1.88956">
        <ele>109</ele>
        <time>2022-10-03T08:29:42.219Z</time>
      </trkpt>
      <trkpt lat="48.82615" lon="1.88962">
        <ele>109</ele>
        <time>2022-10-03T08:29:46.227Z</time>
      </trkpt>
      <trkpt lat="48.82619" lon="1.88968">
        <ele>109</ele>
        <time>2022-10-03T08:29:51.232Z</time>
      </trkpt>
      <trkpt lat="48.82623" lon="1.88976">
        <ele>109</ele>
        <time>2022-10-03T08:29:55.247Z</time>
      </trkpt>
      <trkpt lat="48.82626" lon="1.88982">
        <ele>108</ele>
        <time>2022-10-03T08:29:59.268Z</time>
      </trkpt>
      <trkpt lat="48.8263" lon="1.8899">
        <ele>108</ele>
        <time>2022-10-03T08:30:04.265Z</time>
      </trkpt>
      <trkpt lat="48.82635" lon="1.88997">
        <ele>108</ele>
        <time>2022-10-03T08:30:09.249Z</time>
      </trkpt>
      <trkpt lat="48.82638" lon="1.89004">
        <ele>108</ele>
        <time>2022-10-03T08:30:14.246Z</time>
      </trkpt>
      <trkpt lat="48.82642" lon="1.89011">
        <ele>108</ele>
        <time>2022-10-03T08:30:18.256Z</time>
      </trkpt>
      <trkpt lat="48.82646" lon="1.89019">
        <ele>109</ele>
        <time>2022-10-03T08:30:23.251Z</time>
      </trkpt>
      <trkpt lat="48.82649" lon="1.89027">
        <ele>109</ele>
        <time>2022-10-03T08:30:28.237Z</time>
      </trkpt>
      <trkpt lat="48.82653" lon="1.89034">
        <ele>109</ele>
        <time>2022-10-03T08:30:32.256Z</time>
      </trkpt>
      <trkpt lat="48.82656" lon="1.89041">
        <ele>111</ele>
        <time>2022-10-03T08:30:36.270Z</time>
      </trkpt>
      <trkpt lat="48.82659" lon="1.89049">
        <ele>111</ele>
        <time>2022-10-03T08:30:41.229Z</time>
      </trkpt>
      <trkpt lat="48.82663" lon="1.89055">
        <ele>111</ele>
        <time>2022-10-03T08:30:45.241Z</time>
      </trkpt>
      <trkpt lat="48.82666" lon="1.89062">
        <ele>111</ele>
        <time>2022-10-03T08:30:49.241Z</time>
      </trkpt>
      <trkpt lat="48.82669" lon="1.89069">
        <ele>111</ele>
        <time>2022-10-03T08:30:54.208Z</time>
      </trkpt>
      <trkpt lat="48.82672" lon="1.89075">
        <ele>112</ele>
        <time>2022-10-03T08:30:58.246Z</time>
      </trkpt>
      <trkpt lat="48.82675" lon="1.89083">
        <ele>112</ele>
        <time>2022-10-03T08:31:03.211Z</time>
      </trkpt>
      <trkpt lat="48.82678" lon="1.89089">
        <ele>112</ele>
        <time>2022-10-03T08:31:07.229Z</time>
      </trkpt>
      <trkpt lat="48.82682" lon="1.89098">
        <ele>114</ele>
        <time>2022-10-03T08:31:12.229Z</time>
      </trkpt>
      <trkpt lat="48.82685" lon="1.89105">
        <ele>114</ele>
        <time>2022-10-03T08:31:16.223Z</time>
      </trkpt>
      <trkpt lat="48.82687" lon="1.89114">
        <ele>114</ele>
        <time>2022-10-03T08:31:21.222Z</time>
      </trkpt>
      <trkpt lat="48.82689" lon="1.89123">
        <ele>114</ele>
        <time>2022-10-03T08:31:25.244Z</time>
      </trkpt>
      <trkpt lat="48.82691" lon="1.89132">
        <ele>116</ele>
        <time>2022-10-03T08:31:30.235Z</time>
      </trkpt>
      <trkpt lat="48.82692" lon="1.89141">
        <ele>116</ele>
        <time>2022-10-03T08:31:35.240Z</time>
      </trkpt>
      <trkpt lat="48.82694" lon="1.89147">
        <ele>116</ele>
        <time>2022-10-03T08:31:40.226Z</time>
      </trkpt>
      <trkpt lat="48.82696" lon="1.89146">
        <ele>116</ele>
        <time>2022-10-03T08:31:45.214Z</time>
      </trkpt>
      <trkpt lat="48.82696" lon="1.89151">
        <ele>116</ele>
        <time>2022-10-03T08:33:40.248Z</time>
      </trkpt>
      <trkpt lat="48.82696" lon="1.89151">
        <ele>116</ele>
        <time>2022-10-03T08:33:45.200Z</time>
      </trkpt>
      <trkpt lat="48.82696" lon="1.89151">
        <ele>116</ele>
        <time>2022-10-03T08:33:50.219Z</time>
      </trkpt>
      <trkpt lat="48.82696" lon="1.89157">
        <ele>117</ele>
        <time>2022-10-03T08:33:55.199Z</time>
      </trkpt>
      <trkpt lat="48.82697" lon="1.89164">
        <ele>117</ele>
        <time>2022-10-03T08:33:59.203Z</time>
      </trkpt>
      <trkpt lat="48.82698" lon="1.89172">
        <ele>117</ele>
        <time>2022-10-03T08:34:03.225Z</time>
      </trkpt>
      <trkpt lat="48.82699" lon="1.89178">
        <ele>117</ele>
        <time>2022-10-03T08:34:07.238Z</time>
      </trkpt>
      <trkpt lat="48.827" lon="1.89187">
        <ele>118</ele>
        <time>2022-10-03T08:34:12.220Z</time>
      </trkpt>
      <trkpt lat="48.82701" lon="1.89194">
        <ele>118</ele>
        <time>2022-10-03T08:34:17.207Z</time>
      </trkpt>
      <trkpt lat="48.82703" lon="1.89204">
        <ele>118</ele>
        <time>2022-10-03T08:34:22.212Z</time>
      </trkpt>
      <trkpt lat="48.82705" lon="1.89213">
        <ele>118</ele>
        <time>2022-10-03T08:34:27.223Z</time>
      </trkpt>
      <trkpt lat="48.82707" lon="1.89223">
        <ele>118</ele>
        <time>2022-10-03T08:34:32.225Z</time>
      </trkpt>
      <trkpt lat="48.82709" lon="1.89231">
        <ele>121</ele>
        <time>2022-10-03T08:34:37.234Z</time>
      </trkpt>
      <trkpt lat="48.82712" lon="1.89242">
        <ele>121</ele>
        <time>2022-10-03T08:34:42.235Z</time>
      </trkpt>
      <trkpt lat="48.82715" lon="1.89251">
        <ele>121</ele>
        <time>2022-10-03T08:34:47.244Z</time>
      </trkpt>
      <trkpt lat="48.82716" lon="1.89261">
        <ele>121</ele>
        <time>2022-10-03T08:34:52.246Z</time>
      </trkpt>
      <trkpt lat="48.82718" lon="1.89267">
        <ele>121</ele>
        <time>2022-10-03T08:34:56.251Z</time>
      </trkpt>
      <trkpt lat="48.8272" lon="1.89277">
        <ele>121</ele>
        <time>2022-10-03T08:35:01.218Z</time>
      </trkpt>
      <trkpt lat="48.82721" lon="1.89284">
        <ele>121</ele>
        <time>2022-10-03T08:35:05.264Z</time>
      </trkpt>
      <trkpt lat="48.82724" lon="1.89294">
        <ele>120</ele>
        <time>2022-10-03T08:35:10.243Z</time>
      </trkpt>
      <trkpt lat="48.82726" lon="1.89303">
        <ele>120</ele>
        <time>2022-10-03T08:35:15.242Z</time>
      </trkpt>
      <trkpt lat="48.82726" lon="1.8931">
        <ele>120</ele>
        <time>2022-10-03T08:35:19.255Z</time>
      </trkpt>
      <trkpt lat="48.82728" lon="1.89319">
        <ele>120</ele>
        <time>2022-10-03T08:35:24.250Z</time>
      </trkpt>
      <trkpt lat="48.8273" lon="1.89329">
        <ele>121</ele>
        <time>2022-10-03T08:35:29.252Z</time>
      </trkpt>
      <trkpt lat="48.82732" lon="1.89339">
        <ele>121</ele>
        <time>2022-10-03T08:35:34.191Z</time>
      </trkpt>
      <trkpt lat="48.82739" lon="1.89351">
        <ele>122</ele>
        <time>2022-10-03T08:35:55.211Z</time>
      </trkpt>
      <trkpt lat="48.82739" lon="1.89353">
        <ele>122</ele>
        <time>2022-10-03T08:35:59.218Z</time>
      </trkpt>
      <trkpt lat="48.8274" lon="1.89355">
        <ele>122</ele>
        <time>2022-10-03T08:36:03.222Z</time>
      </trkpt>
      <trkpt lat="48.82741" lon="1.89355">
        <ele>122</ele>
        <time>2022-10-03T08:36:07.224Z</time>
      </trkpt>
      <trkpt lat="48.82741" lon="1.89356">
        <ele>122</ele>
        <time>2022-10-03T08:36:12.211Z</time>
      </trkpt>
      <trkpt lat="48.82742" lon="1.89354">
        <ele>122</ele>
        <time>2022-10-03T08:37:02.257Z</time>
      </trkpt>
      <trkpt lat="48.8274" lon="1.89359">
        <ele>122</ele>
        <time>2022-10-03T08:37:07.203Z</time>
      </trkpt>
      <trkpt lat="48.82739" lon="1.89363">
        <ele>122</ele>
        <time>2022-10-03T08:37:11.232Z</time>
      </trkpt>
      <trkpt lat="48.82739" lon="1.89368">
        <ele>122</ele>
        <time>2022-10-03T08:37:15.255Z</time>
      </trkpt>
      <trkpt lat="48.8274" lon="1.89378">
        <ele>122</ele>
        <time>2022-10-03T08:37:20.196Z</time>
      </trkpt>
      <trkpt lat="48.8274" lon="1.89384">
        <ele>122</ele>
        <time>2022-10-03T08:37:24.239Z</time>
      </trkpt>
      <trkpt lat="48.82741" lon="1.89393">
        <ele>122</ele>
        <time>2022-10-03T08:37:29.218Z</time>
      </trkpt>
      <trkpt lat="48.8274" lon="1.894">
        <ele>122</ele>
        <time>2022-10-03T08:37:33.230Z</time>
      </trkpt>
      <trkpt lat="48.82741" lon="1.89408">
        <ele>123</ele>
        <time>2022-10-03T08:37:37.250Z</time>
      </trkpt>
      <trkpt lat="48.82741" lon="1.89419">
        <ele>123</ele>
        <time>2022-10-03T08:37:42.238Z</time>
      </trkpt>
      <trkpt lat="48.8274" lon="1.89429">
        <ele>123</ele>
        <time>2022-10-03T08:37:47.238Z</time>
      </trkpt>
      <trkpt lat="48.8274" lon="1.89438">
        <ele>124</ele>
        <time>2022-10-03T08:37:52.247Z</time>
      </trkpt>
      <trkpt lat="48.8274" lon="1.89446">
        <ele>124</ele>
        <time>2022-10-03T08:37:56.265Z</time>
      </trkpt>
      <trkpt lat="48.8274" lon="1.89457">
        <ele>124</ele>
        <time>2022-10-03T08:38:01.220Z</time>
      </trkpt>
      <trkpt lat="48.82739" lon="1.89464">
        <ele>125</ele>
        <time>2022-10-03T08:38:05.238Z</time>
      </trkpt>
      <trkpt lat="48.8274" lon="1.89473">
        <ele>125</ele>
        <time>2022-10-03T08:38:10.228Z</time>
      </trkpt>
      <trkpt lat="48.82739" lon="1.89483">
        <ele>125</ele>
        <time>2022-10-03T08:38:15.233Z</time>
      </trkpt>
      <trkpt lat="48.82741" lon="1.89494">
        <ele>126</ele>
        <time>2022-10-03T08:38:20.238Z</time>
      </trkpt>
      <trkpt lat="48.82741" lon="1.89501">
        <ele>126</ele>
        <time>2022-10-03T08:38:24.249Z</time>
      </trkpt>
      <trkpt lat="48.82741" lon="1.8951">
        <ele>126</ele>
        <time>2022-10-03T08:38:28.267Z</time>
      </trkpt>
      <trkpt lat="48.82741" lon="1.89519">
        <ele>126</ele>
        <time>2022-10-03T08:38:33.226Z</time>
      </trkpt>
      <trkpt lat="48.82742" lon="1.89529">
        <ele>126</ele>
        <time>2022-10-03T08:38:38.207Z</time>
      </trkpt>
      <trkpt lat="48.82742" lon="1.89537">
        <ele>126</ele>
        <time>2022-10-03T08:38:42.231Z</time>
      </trkpt>
      <trkpt lat="48.82742" lon="1.89545">
        <ele>126</ele>
        <time>2022-10-03T08:38:46.244Z</time>
      </trkpt>
      <trkpt lat="48.82742" lon="1.89553">
        <ele>126</ele>
        <time>2022-10-03T08:38:51.222Z</time>
      </trkpt>
      <trkpt lat="48.82742" lon="1.89563">
        <ele>126</ele>
        <time>2022-10-03T08:38:56.246Z</time>
      </trkpt>
      <trkpt lat="48.82742" lon="1.89572">
        <ele>126</ele>
        <time>2022-10-03T08:39:01.234Z</time>
      </trkpt>
      <trkpt lat="48.82742" lon="1.89582">
        <ele>126</ele>
        <time>2022-10-03T08:39:06.242Z</time>
      </trkpt>
      <trkpt lat="48.8274" lon="1.89593">
        <ele>126</ele>
        <time>2022-10-03T08:39:11.222Z</time>
      </trkpt>
      <trkpt lat="48.82739" lon="1.89601">
        <ele>125</ele>
        <time>2022-10-03T08:39:15.230Z</time>
      </trkpt>
      <trkpt lat="48.82739" lon="1.89611">
        <ele>125</ele>
        <time>2022-10-03T08:39:20.225Z</time>
      </trkpt>
      <trkpt lat="48.82738" lon="1.89621">
        <ele>125</ele>
        <time>2022-10-03T08:39:25.226Z</time>
      </trkpt>
      <trkpt lat="48.82738" lon="1.89631">
        <ele>125</ele>
        <time>2022-10-03T08:39:30.217Z</time>
      </trkpt>
      <trkpt lat="48.82737" lon="1.89639">
        <ele>125</ele>
        <time>2022-10-03T08:39:34.244Z</time>
      </trkpt>
      <trkpt lat="48.82736" lon="1.89649">
        <ele>126</ele>
        <time>2022-10-03T08:39:39.243Z</time>
      </trkpt>
      <trkpt lat="48.82735" lon="1.89659">
        <ele>126</ele>
        <time>2022-10-03T08:39:43.248Z</time>
      </trkpt>
      <trkpt lat="48.82734" lon="1.89669">
        <ele>126</ele>
        <time>2022-10-03T08:39:48.242Z</time>
      </trkpt>
      <trkpt lat="48.82734" lon="1.89678">
        <ele>126</ele>
        <time>2022-10-03T08:39:52.239Z</time>
      </trkpt>
      <trkpt lat="48.82733" lon="1.89687">
        <ele>126</ele>
        <time>2022-10-03T08:39:57.249Z</time>
      </trkpt>
      <trkpt lat="48.82733" lon="1.89696">
        <ele>126</ele>
        <time>2022-10-03T08:40:02.251Z</time>
      </trkpt>
      <trkpt lat="48.82733" lon="1.89707">
        <ele>126</ele>
        <time>2022-10-03T08:40:07.239Z</time>
      </trkpt>
      <trkpt lat="48.82733" lon="1.89717">
        <ele>127</ele>
        <time>2022-10-03T08:40:12.233Z</time>
      </trkpt>
      <trkpt lat="48.82734" lon="1.89724">
        <ele>127</ele>
        <time>2022-10-03T08:40:16.255Z</time>
      </trkpt>
      <trkpt lat="48.82733" lon="1.89735">
        <ele>127</ele>
        <time>2022-10-03T08:40:21.225Z</time>
      </trkpt>
      <trkpt lat="48.82733" lon="1.89745">
        <ele>129</ele>
        <time>2022-10-03T08:40:26.217Z</time>
      </trkpt>
      <trkpt lat="48.82733" lon="1.89754">
        <ele>129</ele>
        <time>2022-10-03T08:40:30.222Z</time>
      </trkpt>
      <trkpt lat="48.82733" lon="1.89764">
        <ele>129</ele>
        <time>2022-10-03T08:40:34.230Z</time>
      </trkpt>
      <trkpt lat="48.82732" lon="1.89775">
        <ele>130</ele>
        <time>2022-10-03T08:40:39.219Z</time>
      </trkpt>
      <trkpt lat="48.82732" lon="1.89783">
        <ele>130</ele>
        <time>2022-10-03T08:40:43.235Z</time>
      </trkpt>
      <trkpt lat="48.82731" lon="1.89793">
        <ele>130</ele>
        <time>2022-10-03T08:40:48.215Z</time>
      </trkpt>
      <trkpt lat="48.82731" lon="1.89801">
        <ele>130</ele>
        <time>2022-10-03T08:40:52.258Z</time>
      </trkpt>
      <trkpt lat="48.82731" lon="1.8981">
        <ele>130</ele>
        <time>2022-10-03T08:40:57.223Z</time>
      </trkpt>
      <trkpt lat="48.82731" lon="1.89821">
        <ele>129</ele>
        <time>2022-10-03T08:41:02.242Z</time>
      </trkpt>
      <trkpt lat="48.82731" lon="1.89831">
        <ele>129</ele>
        <time>2022-10-03T08:41:07.224Z</time>
      </trkpt>
      <trkpt lat="48.82731" lon="1.89839">
        <ele>129</ele>
        <time>2022-10-03T08:41:12.216Z</time>
      </trkpt>
      <trkpt lat="48.8273" lon="1.89848">
        <ele>128</ele>
        <time>2022-10-03T08:41:16.227Z</time>
      </trkpt>
      <trkpt lat="48.82729" lon="1.8986">
        <ele>128</ele>
        <time>2022-10-03T08:41:21.211Z</time>
      </trkpt>
      <trkpt lat="48.82727" lon="1.8987">
        <ele>128</ele>
        <time>2022-10-03T08:41:26.224Z</time>
      </trkpt>
      <trkpt lat="48.82727" lon="1.8988">
        <ele>128</ele>
        <time>2022-10-03T08:41:31.209Z</time>
      </trkpt>
      <trkpt lat="48.82726" lon="1.89889">
        <ele>128</ele>
        <time>2022-10-03T08:41:36.219Z</time>
      </trkpt>
      <trkpt lat="48.82726" lon="1.89898">
        <ele>128</ele>
        <time>2022-10-03T08:41:41.213Z</time>
      </trkpt>
      <trkpt lat="48.82726" lon="1.89906">
        <ele>128</ele>
        <time>2022-10-03T08:41:45.237Z</time>
      </trkpt>
      <trkpt lat="48.82726" lon="1.89916">
        <ele>128</ele>
        <time>2022-10-03T08:41:50.227Z</time>
      </trkpt>
      <trkpt lat="48.82725" lon="1.89925">
        <ele>128</ele>
        <time>2022-10-03T08:41:55.221Z</time>
      </trkpt>
      <trkpt lat="48.82724" lon="1.89932">
        <ele>128</ele>
        <time>2022-10-03T08:41:59.250Z</time>
      </trkpt>
      <trkpt lat="48.82724" lon="1.89941">
        <ele>128</ele>
        <time>2022-10-03T08:42:04.239Z</time>
      </trkpt>
      <trkpt lat="48.82723" lon="1.8995">
        <ele>128</ele>
        <time>2022-10-03T08:42:09.239Z</time>
      </trkpt>
      <trkpt lat="48.82723" lon="1.89958">
        <ele>128</ele>
        <time>2022-10-03T08:42:13.236Z</time>
      </trkpt>
      <trkpt lat="48.82722" lon="1.89967">
        <ele>128</ele>
        <time>2022-10-03T08:42:18.223Z</time>
      </trkpt>
      <trkpt lat="48.82723" lon="1.89975">
        <ele>128</ele>
        <time>2022-10-03T08:42:22.245Z</time>
      </trkpt>
      <trkpt lat="48.82723" lon="1.89985">
        <ele>128</ele>
        <time>2022-10-03T08:42:27.216Z</time>
      </trkpt>
      <trkpt lat="48.82724" lon="1.89993">
        <ele>128</ele>
        <time>2022-10-03T08:42:31.219Z</time>
      </trkpt>
      <trkpt lat="48.82724" lon="1.9">
        <ele>128</ele>
        <time>2022-10-03T08:42:35.220Z</time>
      </trkpt>
      <trkpt lat="48.82726" lon="1.90011">
        <ele>128</ele>
        <time>2022-10-03T08:42:40.220Z</time>
      </trkpt>
      <trkpt lat="48.82727" lon="1.90021">
        <ele>127</ele>
        <time>2022-10-03T08:42:45.230Z</time>
      </trkpt>
      <trkpt lat="48.82728" lon="1.9003">
        <ele>127</ele>
        <time>2022-10-03T08:42:50.213Z</time>
      </trkpt>
      <trkpt lat="48.82727" lon="1.9004">
        <ele>127</ele>
        <time>2022-10-03T08:42:54.215Z</time>
      </trkpt>
      <trkpt lat="48.82727" lon="1.90048">
        <ele>127</ele>
        <time>2022-10-03T08:42:58.221Z</time>
      </trkpt>
      <trkpt lat="48.82728" lon="1.90059">
        <ele>127</ele>
        <time>2022-10-03T08:43:03.217Z</time>
      </trkpt>
      <trkpt lat="48.82729" lon="1.90068">
        <ele>127</ele>
        <time>2022-10-03T08:43:08.225Z</time>
      </trkpt>
      <trkpt lat="48.82729" lon="1.90077">
        <ele>128</ele>
        <time>2022-10-03T08:43:13.212Z</time>
      </trkpt>
      <trkpt lat="48.8273" lon="1.90087">
        <ele>128</ele>
        <time>2022-10-03T08:43:17.224Z</time>
      </trkpt>
      <trkpt lat="48.8273" lon="1.90099">
        <ele>128</ele>
        <time>2022-10-03T08:43:22.233Z</time>
      </trkpt>
      <trkpt lat="48.8273" lon="1.9011">
        <ele>128</ele>
        <time>2022-10-03T08:43:27.236Z</time>
      </trkpt>
      <trkpt lat="48.8273" lon="1.9012">
        <ele>128</ele>
        <time>2022-10-03T08:43:32.208Z</time>
      </trkpt>
      <trkpt lat="48.8273" lon="1.90127">
        <ele>129</ele>
        <time>2022-10-03T08:43:36.210Z</time>
      </trkpt>
      <trkpt lat="48.82731" lon="1.90138">
        <ele>129</ele>
        <time>2022-10-03T08:43:40.215Z</time>
      </trkpt>
      <trkpt lat="48.82731" lon="1.90148">
        <ele>129</ele>
        <time>2022-10-03T08:43:44.221Z</time>
      </trkpt>
      <trkpt lat="48.82731" lon="1.90158">
        <ele>129</ele>
        <time>2022-10-03T08:43:48.230Z</time>
      </trkpt>
      <trkpt lat="48.82731" lon="1.90167">
        <ele>129</ele>
        <time>2022-10-03T08:43:52.227Z</time>
      </trkpt>
      <trkpt lat="48.82731" lon="1.90177">
        <ele>129</ele>
        <time>2022-10-03T08:43:57.229Z</time>
      </trkpt>
      <trkpt lat="48.82731" lon="1.90188">
        <ele>129</ele>
        <time>2022-10-03T08:44:02.226Z</time>
      </trkpt>
      <trkpt lat="48.8273" lon="1.90196">
        <ele>129</ele>
        <time>2022-10-03T08:44:07.201Z</time>
      </trkpt>
      <trkpt lat="48.82731" lon="1.90203">
        <ele>129</ele>
        <time>2022-10-03T08:44:11.221Z</time>
      </trkpt>
      <trkpt lat="48.82731" lon="1.90214">
        <ele>128</ele>
        <time>2022-10-03T08:44:16.222Z</time>
      </trkpt>
      <trkpt lat="48.8273" lon="1.90221">
        <ele>128</ele>
        <time>2022-10-03T08:44:21.216Z</time>
      </trkpt>
      <trkpt lat="48.82728" lon="1.9023">
        <ele>128</ele>
        <time>2022-10-03T08:44:25.222Z</time>
      </trkpt>
      <trkpt lat="48.82725" lon="1.90239">
        <ele>127</ele>
        <time>2022-10-03T08:44:30.221Z</time>
      </trkpt>
      <trkpt lat="48.82722" lon="1.90248">
        <ele>127</ele>
        <time>2022-10-03T08:44:34.214Z</time>
      </trkpt>
      <trkpt lat="48.8272" lon="1.90255">
        <ele>127</ele>
        <time>2022-10-03T08:44:38.231Z</time>
      </trkpt>
      <trkpt lat="48.82717" lon="1.90265">
        <ele>127</ele>
        <time>2022-10-03T08:44:43.235Z</time>
      </trkpt>
      <trkpt lat="48.82715" lon="1.90272">
        <ele>127</ele>
        <time>2022-10-03T08:44:47.237Z</time>
      </trkpt>
      <trkpt lat="48.82711" lon="1.90281">
        <ele>127</ele>
        <time>2022-10-03T08:44:52.233Z</time>
      </trkpt>
      <trkpt lat="48.82708" lon="1.9029">
        <ele>127</ele>
        <time>2022-10-03T08:44:57.229Z</time>
      </trkpt>
      <trkpt lat="48.82706" lon="1.90298">
        <ele>128</ele>
        <time>2022-10-03T08:45:01.233Z</time>
      </trkpt>
      <trkpt lat="48.82703" lon="1.90305">
        <ele>128</ele>
        <time>2022-10-03T08:45:05.238Z</time>
      </trkpt>
      <trkpt lat="48.827" lon="1.90314">
        <ele>128</ele>
        <time>2022-10-03T08:45:10.218Z</time>
      </trkpt>
      <trkpt lat="48.82697" lon="1.90322">
        <ele>128</ele>
        <time>2022-10-03T08:45:14.223Z</time>
      </trkpt>
      <trkpt lat="48.82693" lon="1.9033">
        <ele>128</ele>
        <time>2022-10-03T08:45:18.230Z</time>
      </trkpt>
      <trkpt lat="48.82689" lon="1.90341">
        <ele>128</ele>
        <time>2022-10-03T08:45:23.236Z</time>
      </trkpt>
      <trkpt lat="48.82685" lon="1.90351">
        <ele>128</ele>
        <time>2022-10-03T08:45:28.225Z</time>
      </trkpt>
      <trkpt lat="48.82682" lon="1.90358">
        <ele>128</ele>
        <time>2022-10-03T08:45:32.237Z</time>
      </trkpt>
      <trkpt lat="48.82678" lon="1.90365">
        <ele>128</ele>
        <time>2022-10-03T08:45:36.250Z</time>
      </trkpt>
      <trkpt lat="48.82674" lon="1.90373">
        <ele>128</ele>
        <time>2022-10-03T08:45:41.224Z</time>
      </trkpt>
      <trkpt lat="48.82671" lon="1.90381">
        <ele>128</ele>
        <time>2022-10-03T08:45:45.237Z</time>
      </trkpt>
      <trkpt lat="48.82667" lon="1.9039">
        <ele>128</ele>
        <time>2022-10-03T08:45:50.238Z</time>
      </trkpt>
      <trkpt lat="48.82663" lon="1.90399">
        <ele>128</ele>
        <time>2022-10-03T08:45:55.218Z</time>
      </trkpt>
      <trkpt lat="48.82659" lon="1.90408">
        <ele>128</ele>
        <time>2022-10-03T08:46:00.221Z</time>
      </trkpt>
      <trkpt lat="48.82654" lon="1.90417">
        <ele>128</ele>
        <time>2022-10-03T08:46:05.213Z</time>
      </trkpt>
      <trkpt lat="48.82649" lon="1.90425">
        <ele>130</ele>
        <time>2022-10-03T08:46:10.216Z</time>
      </trkpt>
      <trkpt lat="48.82646" lon="1.90434">
        <ele>129</ele>
        <time>2022-10-03T08:46:15.223Z</time>
      </trkpt>
      <trkpt lat="48.82641" lon="1.90443">
        <ele>129</ele>
        <time>2022-10-03T08:46:20.212Z</time>
      </trkpt>
      <trkpt lat="48.82637" lon="1.90452">
        <ele>129</ele>
        <time>2022-10-03T08:46:25.208Z</time>
      </trkpt>
      <trkpt lat="48.82634" lon="1.90458">
        <ele>128</ele>
        <time>2022-10-03T08:46:29.214Z</time>
      </trkpt>
      <trkpt lat="48.82631" lon="1.90466">
        <ele>128</ele>
        <time>2022-10-03T08:46:33.219Z</time>
      </trkpt>
      <trkpt lat="48.82627" lon="1.90475">
        <ele>128</ele>
        <time>2022-10-03T08:46:38.225Z</time>
      </trkpt>
      <trkpt lat="48.82623" lon="1.90483">
        <ele>130</ele>
        <time>2022-10-03T08:46:43.203Z</time>
      </trkpt>
      <trkpt lat="48.82622" lon="1.90484">
        <ele>130</ele>
        <time>2022-10-03T08:46:48.197Z</time>
      </trkpt>
      <trkpt lat="48.82621" lon="1.90486">
        <ele>129</ele>
        <time>2022-10-03T08:46:52.199Z</time>
      </trkpt>
      <trkpt lat="48.82616" lon="1.90493">
        <ele>129</ele>
        <time>2022-10-03T08:46:57.207Z</time>
      </trkpt>
      <trkpt lat="48.82613" lon="1.905">
        <ele>129</ele>
        <time>2022-10-03T08:47:02.211Z</time>
      </trkpt>
      <trkpt lat="48.8261" lon="1.90507">
        <ele>129</ele>
        <time>2022-10-03T08:47:06.224Z</time>
      </trkpt>
      <trkpt lat="48.82608" lon="1.90516">
        <ele>128</ele>
        <time>2022-10-03T08:47:11.225Z</time>
      </trkpt>
      <trkpt lat="48.82605" lon="1.90524">
        <ele>128</ele>
        <time>2022-10-03T08:47:16.204Z</time>
      </trkpt>
      <trkpt lat="48.82602" lon="1.90531">
        <ele>128</ele>
        <time>2022-10-03T08:47:20.218Z</time>
      </trkpt>
      <trkpt lat="48.82598" lon="1.90538">
        <ele>128</ele>
        <time>2022-10-03T08:47:24.234Z</time>
      </trkpt>
      <trkpt lat="48.82593" lon="1.90547">
        <ele>129</ele>
        <time>2022-10-03T08:47:29.207Z</time>
      </trkpt>
      <trkpt lat="48.82591" lon="1.90554">
        <ele>129</ele>
        <time>2022-10-03T08:47:33.218Z</time>
      </trkpt>
      <trkpt lat="48.82587" lon="1.90564">
        <ele>129</ele>
        <time>2022-10-03T08:47:38.213Z</time>
      </trkpt>
      <trkpt lat="48.82583" lon="1.90572">
        <ele>129</ele>
        <time>2022-10-03T08:47:42.225Z</time>
      </trkpt>
      <trkpt lat="48.8258" lon="1.90581">
        <ele>129</ele>
        <time>2022-10-03T08:47:47.225Z</time>
      </trkpt>
      <trkpt lat="48.82575" lon="1.90592">
        <ele>129</ele>
        <time>2022-10-03T08:47:52.224Z</time>
      </trkpt>
      <trkpt lat="48.82571" lon="1.906">
        <ele>128</ele>
        <time>2022-10-03T08:47:57.220Z</time>
      </trkpt>
      <trkpt lat="48.82566" lon="1.9061">
        <ele>131</ele>
        <time>2022-10-03T08:48:02.201Z</time>
      </trkpt>
      <trkpt lat="48.82563" lon="1.90619">
        <ele>131</ele>
        <time>2022-10-03T08:48:07.194Z</time>
      </trkpt>
      <trkpt lat="48.82558" lon="1.90627">
        <ele>131</ele>
        <time>2022-10-03T08:48:12.190Z</time>
      </trkpt>
      <trkpt lat="48.82556" lon="1.90631">
        <ele>131</ele>
        <time>2022-10-03T08:48:16.214Z</time>
      </trkpt>
      <trkpt lat="48.82551" lon="1.90642">
        <ele>131</ele>
        <time>2022-10-03T08:48:21.212Z</time>
      </trkpt>
      <trkpt lat="48.82546" lon="1.90648">
        <ele>131</ele>
        <time>2022-10-03T08:48:25.209Z</time>
      </trkpt>
      <trkpt lat="48.82542" lon="1.90656">
        <ele>131</ele>
        <time>2022-10-03T08:48:30.210Z</time>
      </trkpt>
      <trkpt lat="48.8254" lon="1.90662">
        <ele>134</ele>
        <time>2022-10-03T08:48:34.219Z</time>
      </trkpt>
      <trkpt lat="48.82534" lon="1.90668">
        <ele>134</ele>
        <time>2022-10-03T08:48:39.226Z</time>
      </trkpt>
      <trkpt lat="48.82529" lon="1.90674">
        <ele>134</ele>
        <time>2022-10-03T08:48:44.224Z</time>
      </trkpt>
      <trkpt lat="48.82523" lon="1.90679">
        <ele>134</ele>
        <time>2022-10-03T08:48:49.222Z</time>
      </trkpt>
      <trkpt lat="48.82518" lon="1.90685">
        <ele>135</ele>
        <time>2022-10-03T08:48:54.225Z</time>
      </trkpt>
      <trkpt lat="48.82513" lon="1.90691">
        <ele>137</ele>
        <time>2022-10-03T08:48:58.234Z</time>
      </trkpt>
      <trkpt lat="48.82507" lon="1.90696">
        <ele>137</ele>
        <time>2022-10-03T08:49:03.230Z</time>
      </trkpt>
      <trkpt lat="48.82502" lon="1.90702">
        <ele>137</ele>
        <time>2022-10-03T08:49:08.230Z</time>
      </trkpt>
      <trkpt lat="48.82497" lon="1.90709">
        <ele>137</ele>
        <time>2022-10-03T08:49:13.251Z</time>
      </trkpt>
      <trkpt lat="48.82491" lon="1.90716">
        <ele>137</ele>
        <time>2022-10-03T08:49:18.228Z</time>
      </trkpt>
      <trkpt lat="48.82487" lon="1.9072">
        <ele>137</ele>
        <time>2022-10-03T08:49:23.215Z</time>
      </trkpt>
      <trkpt lat="48.82485" lon="1.90727">
        <ele>139</ele>
        <time>2022-10-03T08:49:27.226Z</time>
      </trkpt>
      <trkpt lat="48.82481" lon="1.90733">
        <ele>139</ele>
        <time>2022-10-03T08:49:32.225Z</time>
      </trkpt>
      <trkpt lat="48.82479" lon="1.90739">
        <ele>138</ele>
        <time>2022-10-03T08:49:37.240Z</time>
      </trkpt>
      <trkpt lat="48.82479" lon="1.90741">
        <ele>138</ele>
        <time>2022-10-03T08:49:42.227Z</time>
      </trkpt>
      <trkpt lat="48.82483" lon="1.90745">
        <ele>138</ele>
        <time>2022-10-03T08:49:47.212Z</time>
      </trkpt>
      <trkpt lat="48.82487" lon="1.90749">
        <ele>137</ele>
        <time>2022-10-03T08:49:52.227Z</time>
      </trkpt>
      <trkpt lat="48.82492" lon="1.90753">
        <ele>137</ele>
        <time>2022-10-03T08:49:57.211Z</time>
      </trkpt>
      <trkpt lat="48.82496" lon="1.90756">
        <ele>137</ele>
        <time>2022-10-03T08:50:02.207Z</time>
      </trkpt>
      <trkpt lat="48.825" lon="1.9076">
        <ele>137</ele>
        <time>2022-10-03T08:50:06.218Z</time>
      </trkpt>
      <trkpt lat="48.82504" lon="1.90764">
        <ele>136</ele>
        <time>2022-10-03T08:50:10.226Z</time>
      </trkpt>
      <trkpt lat="48.8251" lon="1.90769">
        <ele>136</ele>
        <time>2022-10-03T08:50:15.239Z</time>
      </trkpt>
      <trkpt lat="48.82515" lon="1.90774">
        <ele>135</ele>
        <time>2022-10-03T08:50:20.200Z</time>
      </trkpt>
      <trkpt lat="48.82522" lon="1.90777">
        <ele>135</ele>
        <time>2022-10-03T08:50:34.192Z</time>
      </trkpt>
      <trkpt lat="48.82521" lon="1.9078">
        <ele>135</ele>
        <time>2022-10-03T08:50:39.200Z</time>
      </trkpt>
      <trkpt lat="48.82525" lon="1.90785">
        <ele>135</ele>
        <time>2022-10-03T08:50:43.213Z</time>
      </trkpt>
      <trkpt lat="48.82532" lon="1.90789">
        <ele>135</ele>
        <time>2022-10-03T08:50:48.209Z</time>
      </trkpt>
      <trkpt lat="48.8254" lon="1.90798">
        <ele>133</ele>
        <time>2022-10-03T08:50:53.194Z</time>
      </trkpt>
      <trkpt lat="48.82546" lon="1.90801">
        <ele>130</ele>
        <time>2022-10-03T08:50:57.189Z</time>
      </trkpt>
      <trkpt lat="48.82551" lon="1.90804">
        <ele>130</ele>
        <time>2022-10-03T08:51:02.191Z</time>
      </trkpt>
      <trkpt lat="48.82555" lon="1.90812">
        <ele>130</ele>
        <time>2022-10-03T08:51:06.193Z</time>
      </trkpt>
      <trkpt lat="48.82561" lon="1.90818">
        <ele>130</ele>
        <time>2022-10-03T08:51:11.197Z</time>
      </trkpt>
      <trkpt lat="48.82566" lon="1.9082">
        <ele>128</ele>
        <time>2022-10-03T08:51:15.212Z</time>
      </trkpt>
      <trkpt lat="48.82572" lon="1.90828">
        <ele>128</ele>
        <time>2022-10-03T08:51:20.201Z</time>
      </trkpt>
      <trkpt lat="48.82577" lon="1.90835">
        <ele>128</ele>
        <time>2022-10-03T08:51:25.203Z</time>
      </trkpt>
      <trkpt lat="48.82584" lon="1.90841">
        <ele>128</ele>
        <time>2022-10-03T08:51:30.207Z</time>
      </trkpt>
      <trkpt lat="48.82587" lon="1.90846">
        <ele>128</ele>
        <time>2022-10-03T08:51:35.200Z</time>
      </trkpt>
      <trkpt lat="48.82591" lon="1.90852">
        <ele>127</ele>
        <time>2022-10-03T08:51:39.205Z</time>
      </trkpt>
      <trkpt lat="48.82598" lon="1.90855">
        <ele>127</ele>
        <time>2022-10-03T08:51:44.198Z</time>
      </trkpt>
      <trkpt lat="48.82602" lon="1.90858">
        <ele>127</ele>
        <time>2022-10-03T08:51:48.198Z</time>
      </trkpt>
      <trkpt lat="48.82606" lon="1.9086">
        <ele>127</ele>
        <time>2022-10-03T08:51:52.199Z</time>
      </trkpt>
      <trkpt lat="48.82615" lon="1.90866">
        <ele>127</ele>
        <time>2022-10-03T08:51:57.202Z</time>
      </trkpt>
      <trkpt lat="48.82623" lon="1.90871">
        <ele>127</ele>
        <time>2022-10-03T08:52:02.197Z</time>
      </trkpt>
      <trkpt lat="48.82629" lon="1.90876">
        <ele>127</ele>
        <time>2022-10-03T08:52:07.201Z</time>
      </trkpt>
      <trkpt lat="48.82637" lon="1.90879">
        <ele>127</ele>
        <time>2022-10-03T08:52:12.210Z</time>
      </trkpt>
      <trkpt lat="48.82642" lon="1.90885">
        <ele>127</ele>
        <time>2022-10-03T08:52:17.204Z</time>
      </trkpt>
      <trkpt lat="48.82647" lon="1.90888">
        <ele>127</ele>
        <time>2022-10-03T08:52:21.206Z</time>
      </trkpt>
      <trkpt lat="48.82653" lon="1.90892">
        <ele>125</ele>
        <time>2022-10-03T08:52:26.194Z</time>
      </trkpt>
      <trkpt lat="48.82657" lon="1.90894">
        <ele>125</ele>
        <time>2022-10-03T08:52:30.200Z</time>
      </trkpt>
      <trkpt lat="48.82663" lon="1.90897">
        <ele>125</ele>
        <time>2022-10-03T08:52:35.210Z</time>
      </trkpt>
      <trkpt lat="48.82668" lon="1.90901">
        <ele>125</ele>
        <time>2022-10-03T08:52:39.206Z</time>
      </trkpt>
      <trkpt lat="48.82675" lon="1.90903">
        <ele>125</ele>
        <time>2022-10-03T08:52:44.194Z</time>
      </trkpt>
      <trkpt lat="48.82674" lon="1.90903">
        <ele>124</ele>
        <time>2022-10-03T08:52:49.196Z</time>
      </trkpt>
      <trkpt lat="48.82679" lon="1.90908">
        <ele>124</ele>
        <time>2022-10-03T08:52:54.201Z</time>
      </trkpt>
      <trkpt lat="48.82686" lon="1.90912">
        <ele>123</ele>
        <time>2022-10-03T08:52:59.218Z</time>
      </trkpt>
      <trkpt lat="48.82692" lon="1.90917">
        <ele>123</ele>
        <time>2022-10-03T08:53:04.204Z</time>
      </trkpt>
      <trkpt lat="48.82697" lon="1.9092">
        <ele>123</ele>
        <time>2022-10-03T08:53:08.224Z</time>
      </trkpt>
      <trkpt lat="48.82702" lon="1.90924">
        <ele>123</ele>
        <time>2022-10-03T08:53:12.225Z</time>
      </trkpt>
      <trkpt lat="48.82708" lon="1.90928">
        <ele>122</ele>
        <time>2022-10-03T08:53:17.211Z</time>
      </trkpt>
      <trkpt lat="48.82715" lon="1.90932">
        <ele>122</ele>
        <time>2022-10-03T08:53:22.217Z</time>
      </trkpt>
      <trkpt lat="48.82721" lon="1.90936">
        <ele>122</ele>
        <time>2022-10-03T08:53:27.219Z</time>
      </trkpt>
      <trkpt lat="48.82728" lon="1.90941">
        <ele>122</ele>
        <time>2022-10-03T08:53:32.197Z</time>
      </trkpt>
      <trkpt lat="48.82735" lon="1.90946">
        <ele>122</ele>
        <time>2022-10-03T08:53:37.211Z</time>
      </trkpt>
      <trkpt lat="48.82741" lon="1.90949">
        <ele>122</ele>
        <time>2022-10-03T08:53:41.210Z</time>
      </trkpt>
      <trkpt lat="48.82747" lon="1.90953">
        <ele>122</ele>
        <time>2022-10-03T08:53:46.193Z</time>
      </trkpt>
      <trkpt lat="48.82752" lon="1.90954">
        <ele>122</ele>
        <time>2022-10-03T08:53:51.193Z</time>
      </trkpt>
      <trkpt lat="48.82752" lon="1.90955">
        <ele>122</ele>
        <time>2022-10-03T08:53:55.207Z</time>
      </trkpt>
      <trkpt lat="48.8276" lon="1.9096">
        <ele>121</ele>
        <time>2022-10-03T08:54:00.187Z</time>
      </trkpt>
      <trkpt lat="48.82767" lon="1.90965">
        <ele>121</ele>
        <time>2022-10-03T08:54:04.202Z</time>
      </trkpt>
      <trkpt lat="48.82772" lon="1.90969">
        <ele>121</ele>
        <time>2022-10-03T08:54:08.227Z</time>
      </trkpt>
      <trkpt lat="48.8278" lon="1.90974">
        <ele>121</ele>
        <time>2022-10-03T08:54:13.218Z</time>
      </trkpt>
      <trkpt lat="48.82785" lon="1.90977">
        <ele>121</ele>
        <time>2022-10-03T08:54:17.230Z</time>
      </trkpt>
      <trkpt lat="48.8279" lon="1.90983">
        <ele>121</ele>
        <time>2022-10-03T08:54:22.201Z</time>
      </trkpt>
      <trkpt lat="48.82796" lon="1.90986">
        <ele>120</ele>
        <time>2022-10-03T08:54:26.214Z</time>
      </trkpt>
      <trkpt lat="48.82802" lon="1.9099">
        <ele>120</ele>
        <time>2022-10-03T08:54:30.236Z</time>
      </trkpt>
      <trkpt lat="48.82809" lon="1.90994">
        <ele>120</ele>
        <time>2022-10-03T08:54:35.217Z</time>
      </trkpt>
      <trkpt lat="48.82814" lon="1.90998">
        <ele>120</ele>
        <time>2022-10-03T08:54:39.241Z</time>
      </trkpt>
      <trkpt lat="48.82822" lon="1.91001">
        <ele>118</ele>
        <time>2022-10-03T08:54:44.237Z</time>
      </trkpt>
      <trkpt lat="48.82827" lon="1.91007">
        <ele>118</ele>
        <time>2022-10-03T08:54:49.234Z</time>
      </trkpt>
      <trkpt lat="48.82834" lon="1.91012">
        <ele>118</ele>
        <time>2022-10-03T08:54:54.232Z</time>
      </trkpt>
      <trkpt lat="48.82841" lon="1.91016">
        <ele>119</ele>
        <time>2022-10-03T08:54:59.218Z</time>
      </trkpt>
      <trkpt lat="48.82847" lon="1.91019">
        <ele>119</ele>
        <time>2022-10-03T08:55:03.226Z</time>
      </trkpt>
      <trkpt lat="48.82852" lon="1.91023">
        <ele>118</ele>
        <time>2022-10-03T08:55:07.229Z</time>
      </trkpt>
      <trkpt lat="48.82859" lon="1.91027">
        <ele>118</ele>
        <time>2022-10-03T08:55:12.231Z</time>
      </trkpt>
      <trkpt lat="48.82866" lon="1.9103">
        <ele>118</ele>
        <time>2022-10-03T08:55:17.242Z</time>
      </trkpt>
      <trkpt lat="48.82873" lon="1.91033">
        <ele>118</ele>
        <time>2022-10-03T08:55:22.224Z</time>
      </trkpt>
      <trkpt lat="48.82878" lon="1.91035">
        <ele>118</ele>
        <time>2022-10-03T08:55:26.225Z</time>
      </trkpt>
      <trkpt lat="48.82885" lon="1.91037">
        <ele>118</ele>
        <time>2022-10-03T08:55:31.212Z</time>
      </trkpt>
      <trkpt lat="48.8289" lon="1.9104">
        <ele>118</ele>
        <time>2022-10-03T08:55:35.238Z</time>
      </trkpt>
      <trkpt lat="48.82896" lon="1.91042">
        <ele>119</ele>
        <time>2022-10-03T08:55:40.243Z</time>
      </trkpt>
      <trkpt lat="48.82902" lon="1.91044">
        <ele>119</ele>
        <time>2022-10-03T08:55:45.218Z</time>
      </trkpt>
      <trkpt lat="48.82907" lon="1.91047">
        <ele>117</ele>
        <time>2022-10-03T08:55:49.239Z</time>
      </trkpt>
      <trkpt lat="48.82914" lon="1.91049">
        <ele>117</ele>
        <time>2022-10-03T08:55:54.226Z</time>
      </trkpt>
      <trkpt lat="48.82921" lon="1.91053">
        <ele>117</ele>
        <time>2022-10-03T08:55:59.225Z</time>
      </trkpt>
      <trkpt lat="48.82927" lon="1.91056">
        <ele>117</ele>
        <time>2022-10-03T08:56:04.232Z</time>
      </trkpt>
      <trkpt lat="48.82933" lon="1.91058">
        <ele>115</ele>
        <time>2022-10-03T08:56:08.235Z</time>
      </trkpt>
      <trkpt lat="48.8294" lon="1.91063">
        <ele>115</ele>
        <time>2022-10-03T08:56:13.231Z</time>
      </trkpt>
      <trkpt lat="48.82947" lon="1.91066">
        <ele>115</ele>
        <time>2022-10-03T08:56:18.208Z</time>
      </trkpt>
      <trkpt lat="48.82952" lon="1.91069">
        <ele>115</ele>
        <time>2022-10-03T08:56:22.235Z</time>
      </trkpt>
      <trkpt lat="48.82959" lon="1.91074">
        <ele>114</ele>
        <time>2022-10-03T08:56:27.220Z</time>
      </trkpt>
      <trkpt lat="48.82965" lon="1.91078">
        <ele>114</ele>
        <time>2022-10-03T08:56:32.229Z</time>
      </trkpt>
      <trkpt lat="48.82971" lon="1.91083">
        <ele>114</ele>
        <time>2022-10-03T08:56:37.222Z</time>
      </trkpt>
      <trkpt lat="48.82976" lon="1.91087">
        <ele>114</ele>
        <time>2022-10-03T08:56:42.226Z</time>
      </trkpt>
      <trkpt lat="48.82983" lon="1.91092">
        <ele>114</ele>
        <time>2022-10-03T08:56:47.238Z</time>
      </trkpt>
      <trkpt lat="48.8299" lon="1.91096">
        <ele>115</ele>
        <time>2022-10-03T08:56:52.234Z</time>
      </trkpt>
      <trkpt lat="48.82997" lon="1.911">
        <ele>115</ele>
        <time>2022-10-03T08:56:57.218Z</time>
      </trkpt>
      <trkpt lat="48.83003" lon="1.91106">
        <ele>115</ele>
        <time>2022-10-03T08:57:02.234Z</time>
      </trkpt>
      <trkpt lat="48.8301" lon="1.91111">
        <ele>115</ele>
        <time>2022-10-03T08:57:07.239Z</time>
      </trkpt>
      <trkpt lat="48.83017" lon="1.91116">
        <ele>114</ele>
        <time>2022-10-03T08:57:12.235Z</time>
      </trkpt>
      <trkpt lat="48.83022" lon="1.91119">
        <ele>114</ele>
        <time>2022-10-03T08:57:16.239Z</time>
      </trkpt>
      <trkpt lat="48.83029" lon="1.91124">
        <ele>114</ele>
        <time>2022-10-03T08:57:21.223Z</time>
      </trkpt>
      <trkpt lat="48.83035" lon="1.91128">
        <ele>114</ele>
        <time>2022-10-03T08:57:26.202Z</time>
      </trkpt>
      <trkpt lat="48.83041" lon="1.91133">
        <ele>114</ele>
        <time>2022-10-03T08:57:31.214Z</time>
      </trkpt>
      <trkpt lat="48.83047" lon="1.91137">
        <ele>113</ele>
        <time>2022-10-03T08:57:36.231Z</time>
      </trkpt>
      <trkpt lat="48.83051" lon="1.91139">
        <ele>113</ele>
        <time>2022-10-03T08:57:41.201Z</time>
      </trkpt>
      <trkpt lat="48.83053" lon="1.91139">
        <ele>113</ele>
        <time>2022-10-03T08:57:45.204Z</time>
      </trkpt>
      <trkpt lat="48.83054" lon="1.91142">
        <ele>113</ele>
        <time>2022-10-03T08:58:50.202Z</time>
      </trkpt>
      <trkpt lat="48.83054" lon="1.91142">
        <ele>113</ele>
        <time>2022-10-03T08:58:55.199Z</time>
      </trkpt>
      <trkpt lat="48.83054" lon="1.91143">
        <ele>113</ele>
        <time>2022-10-03T08:58:59.199Z</time>
      </trkpt>
      <trkpt lat="48.83056" lon="1.91146">
        <ele>113</ele>
        <time>2022-10-03T08:59:03.228Z</time>
      </trkpt>
      <trkpt lat="48.8306" lon="1.91149">
        <ele>113</ele>
        <time>2022-10-03T08:59:07.242Z</time>
      </trkpt>
      <trkpt lat="48.83066" lon="1.91154">
        <ele>112</ele>
        <time>2022-10-03T08:59:12.214Z</time>
      </trkpt>
      <trkpt lat="48.83072" lon="1.91159">
        <ele>111</ele>
        <time>2022-10-03T08:59:17.239Z</time>
      </trkpt>
      <trkpt lat="48.83078" lon="1.91164">
        <ele>111</ele>
        <time>2022-10-03T08:59:22.233Z</time>
      </trkpt>
      <trkpt lat="48.83085" lon="1.91169">
        <ele>111</ele>
        <time>2022-10-03T08:59:27.225Z</time>
      </trkpt>
      <trkpt lat="48.83092" lon="1.91173">
        <ele>111</ele>
        <time>2022-10-03T08:59:32.228Z</time>
      </trkpt>
      <trkpt lat="48.83097" lon="1.91179">
        <ele>111</ele>
        <time>2022-10-03T08:59:37.234Z</time>
      </trkpt>
      <trkpt lat="48.83103" lon="1.91182">
        <ele>110</ele>
        <time>2022-10-03T08:59:42.194Z</time>
      </trkpt>
      <trkpt lat="48.83103" lon="1.91183">
        <ele>110</ele>
        <time>2022-10-03T08:59:47.208Z</time>
      </trkpt>
      <trkpt lat="48.8311" lon="1.91186">
        <ele>110</ele>
        <time>2022-10-03T08:59:52.194Z</time>
      </trkpt>
      <trkpt lat="48.83112" lon="1.91188">
        <ele>110</ele>
        <time>2022-10-03T08:59:56.198Z</time>
      </trkpt>
      <trkpt lat="48.83119" lon="1.91192">
        <ele>110</ele>
        <time>2022-10-03T09:00:01.199Z</time>
      </trkpt>
      <trkpt lat="48.83125" lon="1.91194">
        <ele>110</ele>
        <time>2022-10-03T09:00:05.226Z</time>
      </trkpt>
      <trkpt lat="48.8313" lon="1.91199">
        <ele>109</ele>
        <time>2022-10-03T09:00:09.231Z</time>
      </trkpt>
      <trkpt lat="48.83137" lon="1.91203">
        <ele>109</ele>
        <time>2022-10-03T09:00:14.234Z</time>
      </trkpt>
      <trkpt lat="48.83143" lon="1.91207">
        <ele>109</ele>
        <time>2022-10-03T09:00:19.197Z</time>
      </trkpt>
      <trkpt lat="48.83145" lon="1.91207">
        <ele>109</ele>
        <time>2022-10-03T09:00:23.203Z</time>
      </trkpt>
      <trkpt lat="48.83151" lon="1.91211">
        <ele>109</ele>
        <time>2022-10-03T09:00:28.188Z</time>
      </trkpt>
      <trkpt lat="48.83158" lon="1.91213">
        <ele>109</ele>
        <time>2022-10-03T09:00:32.246Z</time>
      </trkpt>
      <trkpt lat="48.83166" lon="1.91217">
        <ele>109</ele>
        <time>2022-10-03T09:00:37.212Z</time>
      </trkpt>
      <trkpt lat="48.83173" lon="1.91221">
        <ele>109</ele>
        <time>2022-10-03T09:00:42.235Z</time>
      </trkpt>
      <trkpt lat="48.8318" lon="1.91223">
        <ele>109</ele>
        <time>2022-10-03T09:00:47.217Z</time>
      </trkpt>
      <trkpt lat="48.83186" lon="1.91225">
        <ele>107</ele>
        <time>2022-10-03T09:00:51.217Z</time>
      </trkpt>
      <trkpt lat="48.83192" lon="1.91228">
        <ele>107</ele>
        <time>2022-10-03T09:00:55.219Z</time>
      </trkpt>
      <trkpt lat="48.83198" lon="1.91231">
        <ele>107</ele>
        <time>2022-10-03T09:01:00.225Z</time>
      </trkpt>
      <trkpt lat="48.83204" lon="1.91234">
        <ele>107</ele>
        <time>2022-10-03T09:01:04.241Z</time>
      </trkpt>
      <trkpt lat="48.8321" lon="1.91237">
        <ele>107</ele>
        <time>2022-10-03T09:01:09.213Z</time>
      </trkpt>
      <trkpt lat="48.83217" lon="1.91241">
        <ele>107</ele>
        <time>2022-10-03T09:01:14.225Z</time>
      </trkpt>
      <trkpt lat="48.83223" lon="1.91244">
        <ele>107</ele>
        <time>2022-10-03T09:01:19.218Z</time>
      </trkpt>
      <trkpt lat="48.83229" lon="1.91248">
        <ele>107</ele>
        <time>2022-10-03T09:01:24.206Z</time>
      </trkpt>
      <trkpt lat="48.83234" lon="1.91251">
        <ele>107</ele>
        <time>2022-10-03T09:01:28.236Z</time>
      </trkpt>
      <trkpt lat="48.83241" lon="1.91255">
        <ele>105</ele>
        <time>2022-10-03T09:01:33.200Z</time>
      </trkpt>
      <trkpt lat="48.83246" lon="1.91259">
        <ele>105</ele>
        <time>2022-10-03T09:01:37.218Z</time>
      </trkpt>
      <trkpt lat="48.83251" lon="1.91263">
        <ele>105</ele>
        <time>2022-10-03T09:01:41.219Z</time>
      </trkpt>
      <trkpt lat="48.83257" lon="1.91267">
        <ele>105</ele>
        <time>2022-10-03T09:01:46.236Z</time>
      </trkpt>
      <trkpt lat="48.83264" lon="1.91271">
        <ele>104</ele>
        <time>2022-10-03T09:01:51.215Z</time>
      </trkpt>
      <trkpt lat="48.8327" lon="1.91276">
        <ele>104</ele>
        <time>2022-10-03T09:01:56.231Z</time>
      </trkpt>
      <trkpt lat="48.83277" lon="1.9128">
        <ele>104</ele>
        <time>2022-10-03T09:02:01.209Z</time>
      </trkpt>
      <trkpt lat="48.83283" lon="1.91283">
        <ele>104</ele>
        <time>2022-10-03T09:02:05.233Z</time>
      </trkpt>
      <trkpt lat="48.83289" lon="1.91287">
        <ele>104</ele>
        <time>2022-10-03T09:02:10.194Z</time>
      </trkpt>
      <trkpt lat="48.83294" lon="1.9129">
        <ele>104</ele>
        <time>2022-10-03T09:02:14.249Z</time>
      </trkpt>
      <trkpt lat="48.83301" lon="1.91294">
        <ele>104</ele>
        <time>2022-10-03T09:02:19.218Z</time>
      </trkpt>
      <trkpt lat="48.83306" lon="1.91298">
        <ele>104</ele>
        <time>2022-10-03T09:02:23.231Z</time>
      </trkpt>
      <trkpt lat="48.83312" lon="1.91301">
        <ele>104</ele>
        <time>2022-10-03T09:02:28.228Z</time>
      </trkpt>
      <trkpt lat="48.83318" lon="1.91305">
        <ele>104</ele>
        <time>2022-10-03T09:02:32.229Z</time>
      </trkpt>
      <trkpt lat="48.83325" lon="1.91309">
        <ele>103</ele>
        <time>2022-10-03T09:02:37.228Z</time>
      </trkpt>
      <trkpt lat="48.83331" lon="1.91313">
        <ele>103</ele>
        <time>2022-10-03T09:02:42.244Z</time>
      </trkpt>
      <trkpt lat="48.83338" lon="1.91317">
        <ele>103</ele>
        <time>2022-10-03T09:02:47.231Z</time>
      </trkpt>
      <trkpt lat="48.83344" lon="1.91321">
        <ele>102</ele>
        <time>2022-10-03T09:02:52.242Z</time>
      </trkpt>
      <trkpt lat="48.83351" lon="1.91326">
        <ele>100</ele>
        <time>2022-10-03T09:02:57.219Z</time>
      </trkpt>
      <trkpt lat="48.83357" lon="1.9133">
        <ele>100</ele>
        <time>2022-10-03T09:03:02.242Z</time>
      </trkpt>
      <trkpt lat="48.83362" lon="1.91333">
        <ele>100</ele>
        <time>2022-10-03T09:03:06.251Z</time>
      </trkpt>
      <trkpt lat="48.83368" lon="1.91337">
        <ele>100</ele>
        <time>2022-10-03T09:03:10.250Z</time>
      </trkpt>
      <trkpt lat="48.83375" lon="1.91341">
        <ele>100</ele>
        <time>2022-10-03T09:03:15.226Z</time>
      </trkpt>
      <trkpt lat="48.8338" lon="1.91345">
        <ele>98</ele>
        <time>2022-10-03T09:03:20.244Z</time>
      </trkpt>
      <trkpt lat="48.83387" lon="1.91348">
        <ele>98</ele>
        <time>2022-10-03T09:03:25.223Z</time>
      </trkpt>
      <trkpt lat="48.83393" lon="1.91353">
        <ele>98</ele>
        <time>2022-10-03T09:03:30.224Z</time>
      </trkpt>
      <trkpt lat="48.83399" lon="1.91356">
        <ele>98</ele>
        <time>2022-10-03T09:03:34.234Z</time>
      </trkpt>
      <trkpt lat="48.83403" lon="1.9136">
        <ele>97</ele>
        <time>2022-10-03T09:03:38.240Z</time>
      </trkpt>
      <trkpt lat="48.8341" lon="1.91364">
        <ele>97</ele>
        <time>2022-10-03T09:03:43.231Z</time>
      </trkpt>
      <trkpt lat="48.83416" lon="1.91369">
        <ele>97</ele>
        <time>2022-10-03T09:03:48.230Z</time>
      </trkpt>
      <trkpt lat="48.83422" lon="1.91372">
        <ele>97</ele>
        <time>2022-10-03T09:03:53.226Z</time>
      </trkpt>
      <trkpt lat="48.83429" lon="1.91374">
        <ele>97</ele>
        <time>2022-10-03T09:03:58.233Z</time>
      </trkpt>
      <trkpt lat="48.83434" lon="1.91371">
        <ele>97</ele>
        <time>2022-10-03T09:04:03.214Z</time>
      </trkpt>
      <trkpt lat="48.83435" lon="1.91371">
        <ele>97</ele>
        <time>2022-10-03T09:04:07.217Z</time>
      </trkpt>
      <trkpt lat="48.83449" lon="1.91376">
        <ele>96</ele>
        <time>2022-10-03T09:05:32.241Z</time>
      </trkpt>
      <trkpt lat="48.83451" lon="1.91381">
        <ele>96</ele>
        <time>2022-10-03T09:05:37.216Z</time>
      </trkpt>
      <trkpt lat="48.83451" lon="1.91384">
        <ele>96</ele>
        <time>2022-10-03T09:05:42.234Z</time>
      </trkpt>
      <trkpt lat="48.83452" lon="1.91392">
        <ele>96</ele>
        <time>2022-10-03T09:05:47.218Z</time>
      </trkpt>
      <trkpt lat="48.83454" lon="1.91398">
        <ele>96</ele>
        <time>2022-10-03T09:05:52.209Z</time>
      </trkpt>
      <trkpt lat="48.83454" lon="1.91402">
        <ele>96</ele>
        <time>2022-10-03T09:05:56.202Z</time>
      </trkpt>
      <trkpt lat="48.83453" lon="1.91405">
        <ele>95</ele>
        <time>2022-10-03T09:06:01.197Z</time>
      </trkpt>
      <trkpt lat="48.83454" lon="1.91412">
        <ele>95</ele>
        <time>2022-10-03T09:06:05.217Z</time>
      </trkpt>
      <trkpt lat="48.83454" lon="1.91422">
        <ele>95</ele>
        <time>2022-10-03T09:06:10.210Z</time>
      </trkpt>
      <trkpt lat="48.83453" lon="1.91429">
        <ele>95</ele>
        <time>2022-10-03T09:06:14.225Z</time>
      </trkpt>
      <trkpt lat="48.83452" lon="1.91438">
        <ele>95</ele>
        <time>2022-10-03T09:06:19.227Z</time>
      </trkpt>
      <trkpt lat="48.83451" lon="1.91448">
        <ele>95</ele>
        <time>2022-10-03T09:06:24.218Z</time>
      </trkpt>
      <trkpt lat="48.83452" lon="1.91455">
        <ele>95</ele>
        <time>2022-10-03T09:06:28.226Z</time>
      </trkpt>
      <trkpt lat="48.83451" lon="1.91466">
        <ele>94</ele>
        <time>2022-10-03T09:06:33.195Z</time>
      </trkpt>
      <trkpt lat="48.83452" lon="1.91473">
        <ele>94</ele>
        <time>2022-10-03T09:06:37.219Z</time>
      </trkpt>
      <trkpt lat="48.83453" lon="1.91482">
        <ele>94</ele>
        <time>2022-10-03T09:06:42.227Z</time>
      </trkpt>
      <trkpt lat="48.83455" lon="1.91493">
        <ele>94</ele>
        <time>2022-10-03T09:06:47.211Z</time>
      </trkpt>
      <trkpt lat="48.83458" lon="1.915">
        <ele>94</ele>
        <time>2022-10-03T09:06:51.226Z</time>
      </trkpt>
      <trkpt lat="48.83464" lon="1.91506">
        <ele>91</ele>
        <time>2022-10-03T09:06:56.238Z</time>
      </trkpt>
      <trkpt lat="48.8347" lon="1.9151">
        <ele>91</ele>
        <time>2022-10-03T09:07:01.231Z</time>
      </trkpt>
      <trkpt lat="48.83477" lon="1.91513">
        <ele>91</ele>
        <time>2022-10-03T09:07:06.193Z</time>
      </trkpt>
      <trkpt lat="48.83479" lon="1.91515">
        <ele>89</ele>
        <time>2022-10-03T09:07:10.191Z</time>
      </trkpt>
      <trkpt lat="48.83481" lon="1.91521">
        <ele>89</ele>
        <time>2022-10-03T09:07:15.220Z</time>
      </trkpt>
      <trkpt lat="48.83482" lon="1.91527">
        <ele>89</ele>
        <time>2022-10-03T09:07:20.223Z</time>
      </trkpt>
      <trkpt lat="48.8348" lon="1.91531">
        <ele>89</ele>
        <time>2022-10-03T09:07:25.218Z</time>
      </trkpt>
      <trkpt lat="48.83481" lon="1.91534">
        <ele>89</ele>
        <time>2022-10-03T09:07:59.236Z</time>
      </trkpt>
      <trkpt lat="48.83481" lon="1.91533">
        <ele>89</ele>
        <time>2022-10-03T09:08:04.236Z</time>
      </trkpt>
      <trkpt lat="48.83482" lon="1.91529">
        <ele>89</ele>
        <time>2022-10-03T09:08:09.200Z</time>
      </trkpt>
      <trkpt lat="48.83483" lon="1.91525">
        <ele>89</ele>
        <time>2022-10-03T09:08:13.218Z</time>
      </trkpt>
      <trkpt lat="48.83485" lon="1.9152">
        <ele>89</ele>
        <time>2022-10-03T09:08:18.243Z</time>
      </trkpt>
      <trkpt lat="48.83481" lon="1.91519">
        <ele>89</ele>
        <time>2022-10-03T09:23:57.229Z</time>
      </trkpt>
      <trkpt lat="48.83479" lon="1.91531">
        <ele>89</ele>
        <time>2022-10-03T09:24:02.219Z</time>
      </trkpt>
      <trkpt lat="48.83478" lon="1.91538">
        <ele>89</ele>
        <time>2022-10-03T09:24:06.218Z</time>
      </trkpt>
      <trkpt lat="48.83476" lon="1.91545">
        <ele>89</ele>
        <time>2022-10-03T09:24:10.244Z</time>
      </trkpt>
      <trkpt lat="48.83473" lon="1.91553">
        <ele>89</ele>
        <time>2022-10-03T09:24:14.253Z</time>
      </trkpt>
      <trkpt lat="48.83472" lon="1.91563">
        <ele>89</ele>
        <time>2022-10-03T09:24:19.245Z</time>
      </trkpt>
      <trkpt lat="48.8347" lon="1.91572">
        <ele>89</ele>
        <time>2022-10-03T09:24:24.209Z</time>
      </trkpt>
      <trkpt lat="48.83471" lon="1.91576">
        <ele>89</ele>
        <time>2022-10-03T09:24:29.198Z</time>
      </trkpt>
      <trkpt lat="48.83469" lon="1.91579">
        <ele>89</ele>
        <time>2022-10-03T09:24:33.205Z</time>
      </trkpt>
      <trkpt lat="48.83468" lon="1.9159">
        <ele>89</ele>
        <time>2022-10-03T09:24:37.208Z</time>
      </trkpt>
      <trkpt lat="48.83466" lon="1.91607">
        <ele>89</ele>
        <time>2022-10-03T09:24:42.201Z</time>
      </trkpt>
      <trkpt lat="48.83463" lon="1.91617">
        <ele>89</ele>
        <time>2022-10-03T09:24:47.204Z</time>
      </trkpt>
      <trkpt lat="48.8346" lon="1.91625">
        <ele>89</ele>
        <time>2022-10-03T09:24:51.210Z</time>
      </trkpt>
      <trkpt lat="48.83459" lon="1.91632">
        <ele>88</ele>
        <time>2022-10-03T09:24:56.203Z</time>
      </trkpt>
      <trkpt lat="48.83458" lon="1.91642">
        <ele>92</ele>
        <time>2022-10-03T09:25:00.206Z</time>
      </trkpt>
      <trkpt lat="48.83457" lon="1.91652">
        <ele>92</ele>
        <time>2022-10-03T09:25:05.210Z</time>
      </trkpt>
      <trkpt lat="48.83455" lon="1.91661">
        <ele>91</ele>
        <time>2022-10-03T09:25:10.200Z</time>
      </trkpt>
      <trkpt lat="48.83454" lon="1.91668">
        <ele>91</ele>
        <time>2022-10-03T09:25:14.209Z</time>
      </trkpt>
      <trkpt lat="48.83453" lon="1.91677">
        <ele>91</ele>
        <time>2022-10-03T09:25:19.203Z</time>
      </trkpt>
      <trkpt lat="48.8345" lon="1.91689">
        <ele>90</ele>
        <time>2022-10-03T09:25:24.210Z</time>
      </trkpt>
      <trkpt lat="48.83449" lon="1.91699">
        <ele>90</ele>
        <time>2022-10-03T09:25:28.207Z</time>
      </trkpt>
      <trkpt lat="48.83449" lon="1.91707">
        <ele>90</ele>
        <time>2022-10-03T09:25:33.211Z</time>
      </trkpt>
      <trkpt lat="48.83447" lon="1.91717">
        <ele>89</ele>
        <time>2022-10-03T09:25:38.205Z</time>
      </trkpt>
      <trkpt lat="48.83446" lon="1.91723">
        <ele>89</ele>
        <time>2022-10-03T09:25:42.208Z</time>
      </trkpt>
      <trkpt lat="48.83444" lon="1.91734">
        <ele>89</ele>
        <time>2022-10-03T09:25:47.201Z</time>
      </trkpt>
      <trkpt lat="48.83443" lon="1.91743">
        <ele>89</ele>
        <time>2022-10-03T09:25:51.206Z</time>
      </trkpt>
      <trkpt lat="48.83441" lon="1.91751">
        <ele>89</ele>
        <time>2022-10-03T09:25:55.206Z</time>
      </trkpt>
      <trkpt lat="48.8344" lon="1.91763">
        <ele>89</ele>
        <time>2022-10-03T09:26:00.208Z</time>
      </trkpt>
      <trkpt lat="48.83439" lon="1.91773">
        <ele>88</ele>
        <time>2022-10-03T09:26:05.204Z</time>
      </trkpt>
      <trkpt lat="48.83437" lon="1.91782">
        <ele>88</ele>
        <time>2022-10-03T09:26:10.211Z</time>
      </trkpt>
      <trkpt lat="48.83436" lon="1.91791">
        <ele>88</ele>
        <time>2022-10-03T09:26:15.212Z</time>
      </trkpt>
      <trkpt lat="48.83434" lon="1.91799">
        <ele>88</ele>
        <time>2022-10-03T09:26:19.207Z</time>
      </trkpt>
      <trkpt lat="48.83433" lon="1.91809">
        <ele>88</ele>
        <time>2022-10-03T09:26:24.204Z</time>
      </trkpt>
      <trkpt lat="48.83432" lon="1.91818">
        <ele>88</ele>
        <time>2022-10-03T09:26:29.203Z</time>
      </trkpt>
      <trkpt lat="48.83432" lon="1.91829">
        <ele>90</ele>
        <time>2022-10-03T09:26:34.207Z</time>
      </trkpt>
      <trkpt lat="48.83431" lon="1.91834">
        <ele>90</ele>
        <time>2022-10-03T09:26:38.209Z</time>
      </trkpt>
      <trkpt lat="48.8343" lon="1.91845">
        <ele>92</ele>
        <time>2022-10-03T09:26:43.211Z</time>
      </trkpt>
      <trkpt lat="48.83429" lon="1.91853">
        <ele>93</ele>
        <time>2022-10-03T09:26:48.213Z</time>
      </trkpt>
      <trkpt lat="48.83428" lon="1.91862">
        <ele>93</ele>
        <time>2022-10-03T09:26:53.204Z</time>
      </trkpt>
      <trkpt lat="48.83427" lon="1.91872">
        <ele>93</ele>
        <time>2022-10-03T09:26:58.208Z</time>
      </trkpt>
      <trkpt lat="48.83425" lon="1.91879">
        <ele>93</ele>
        <time>2022-10-03T09:27:03.223Z</time>
      </trkpt>
      <trkpt lat="48.83424" lon="1.91888">
        <ele>93</ele>
        <time>2022-10-03T09:27:07.236Z</time>
      </trkpt>
      <trkpt lat="48.83423" lon="1.91897">
        <ele>93</ele>
        <time>2022-10-03T09:27:11.273Z</time>
      </trkpt>
      <trkpt lat="48.83422" lon="1.91907">
        <ele>92</ele>
        <time>2022-10-03T09:27:16.249Z</time>
      </trkpt>
      <trkpt lat="48.83421" lon="1.91916">
        <ele>92</ele>
        <time>2022-10-03T09:27:21.238Z</time>
      </trkpt>
      <trkpt lat="48.83421" lon="1.91926">
        <ele>92</ele>
        <time>2022-10-03T09:27:26.218Z</time>
      </trkpt>
      <trkpt lat="48.8342" lon="1.91934">
        <ele>92</ele>
        <time>2022-10-03T09:27:30.231Z</time>
      </trkpt>
      <trkpt lat="48.83418" lon="1.91942">
        <ele>92</ele>
        <time>2022-10-03T09:27:35.221Z</time>
      </trkpt>
      <trkpt lat="48.83418" lon="1.91951">
        <ele>92</ele>
        <time>2022-10-03T09:27:39.234Z</time>
      </trkpt>
      <trkpt lat="48.83417" lon="1.9196">
        <ele>92</ele>
        <time>2022-10-03T09:27:43.241Z</time>
      </trkpt>
      <trkpt lat="48.83416" lon="1.91969">
        <ele>92</ele>
        <time>2022-10-03T09:27:48.221Z</time>
      </trkpt>
      <trkpt lat="48.83416" lon="1.91978">
        <ele>92</ele>
        <time>2022-10-03T09:27:52.231Z</time>
      </trkpt>
      <trkpt lat="48.83416" lon="1.91987">
        <ele>92</ele>
        <time>2022-10-03T09:27:56.252Z</time>
      </trkpt>
      <trkpt lat="48.83415" lon="1.91998">
        <ele>92</ele>
        <time>2022-10-03T09:28:01.238Z</time>
      </trkpt>
      <trkpt lat="48.83414" lon="1.92008">
        <ele>92</ele>
        <time>2022-10-03T09:28:06.216Z</time>
      </trkpt>
      <trkpt lat="48.83413" lon="1.92016">
        <ele>92</ele>
        <time>2022-10-03T09:28:11.239Z</time>
      </trkpt>
      <trkpt lat="48.83413" lon="1.92024">
        <ele>92</ele>
        <time>2022-10-03T09:28:16.249Z</time>
      </trkpt>
      <trkpt lat="48.83412" lon="1.92037">
        <ele>92</ele>
        <time>2022-10-03T09:28:21.232Z</time>
      </trkpt>
      <trkpt lat="48.83412" lon="1.92046">
        <ele>91</ele>
        <time>2022-10-03T09:28:26.219Z</time>
      </trkpt>
      <trkpt lat="48.83411" lon="1.92058">
        <ele>91</ele>
        <time>2022-10-03T09:28:31.204Z</time>
      </trkpt>
      <trkpt lat="48.8341" lon="1.92065">
        <ele>91</ele>
        <time>2022-10-03T09:28:35.213Z</time>
      </trkpt>
      <trkpt lat="48.8341" lon="1.92074">
        <ele>91</ele>
        <time>2022-10-03T09:28:39.246Z</time>
      </trkpt>
      <trkpt lat="48.8341" lon="1.92083">
        <ele>91</ele>
        <time>2022-10-03T09:28:44.231Z</time>
      </trkpt>
      <trkpt lat="48.8341" lon="1.92092">
        <ele>91</ele>
        <time>2022-10-03T09:28:49.255Z</time>
      </trkpt>
      <trkpt lat="48.8341" lon="1.92102">
        <ele>90</ele>
        <time>2022-10-03T09:28:54.245Z</time>
      </trkpt>
      <trkpt lat="48.8341" lon="1.92111">
        <ele>90</ele>
        <time>2022-10-03T09:28:58.262Z</time>
      </trkpt>
      <trkpt lat="48.83409" lon="1.92121">
        <ele>90</ele>
        <time>2022-10-03T09:29:03.243Z</time>
      </trkpt>
      <trkpt lat="48.83409" lon="1.92128">
        <ele>89</ele>
        <time>2022-10-03T09:29:07.261Z</time>
      </trkpt>
      <trkpt lat="48.83409" lon="1.9214">
        <ele>89</ele>
        <time>2022-10-03T09:29:12.242Z</time>
      </trkpt>
      <trkpt lat="48.83408" lon="1.92149">
        <ele>89</ele>
        <time>2022-10-03T09:29:17.237Z</time>
      </trkpt>
      <trkpt lat="48.83408" lon="1.92161">
        <ele>89</ele>
        <time>2022-10-03T09:29:22.252Z</time>
      </trkpt>
      <trkpt lat="48.8341" lon="1.9217">
        <ele>89</ele>
        <time>2022-10-03T09:29:27.249Z</time>
      </trkpt>
      <trkpt lat="48.83409" lon="1.92182">
        <ele>88</ele>
        <time>2022-10-03T09:29:32.215Z</time>
      </trkpt>
      <trkpt lat="48.8341" lon="1.92193">
        <ele>88</ele>
        <time>2022-10-03T09:29:37.246Z</time>
      </trkpt>
      <trkpt lat="48.8341" lon="1.92202">
        <ele>88</ele>
        <time>2022-10-03T09:29:42.232Z</time>
      </trkpt>
      <trkpt lat="48.8341" lon="1.92209">
        <ele>87</ele>
        <time>2022-10-03T09:29:46.238Z</time>
      </trkpt>
      <trkpt lat="48.8341" lon="1.92217">
        <ele>87</ele>
        <time>2022-10-03T09:29:50.245Z</time>
      </trkpt>
      <trkpt lat="48.83412" lon="1.92225">
        <ele>87</ele>
        <time>2022-10-03T09:29:54.232Z</time>
      </trkpt>
      <trkpt lat="48.83415" lon="1.92236">
        <ele>87</ele>
        <time>2022-10-03T09:29:59.245Z</time>
      </trkpt>
      <trkpt lat="48.8342" lon="1.92243">
        <ele>87</ele>
        <time>2022-10-03T09:30:03.249Z</time>
      </trkpt>
      <trkpt lat="48.83426" lon="1.92248">
        <ele>87</ele>
        <time>2022-10-03T09:30:08.228Z</time>
      </trkpt>
      <trkpt lat="48.83433" lon="1.92251">
        <ele>86</ele>
        <time>2022-10-03T09:30:13.222Z</time>
      </trkpt>
      <trkpt lat="48.83437" lon="1.92255">
        <ele>86</ele>
        <time>2022-10-03T09:30:17.255Z</time>
      </trkpt>
      <trkpt lat="48.83435" lon="1.92263">
        <ele>86</ele>
        <time>2022-10-03T09:30:22.211Z</time>
      </trkpt>
      <trkpt lat="48.83433" lon="1.92268">
        <ele>88</ele>
        <time>2022-10-03T09:30:26.235Z</time>
      </trkpt>
      <trkpt lat="48.8343" lon="1.92276">
        <ele>88</ele>
        <time>2022-10-03T09:30:31.228Z</time>
      </trkpt>
      <trkpt lat="48.83429" lon="1.92284">
        <ele>88</ele>
        <time>2022-10-03T09:30:35.247Z</time>
      </trkpt>
      <trkpt lat="48.83428" lon="1.92294">
        <ele>91</ele>
        <time>2022-10-03T09:30:40.235Z</time>
      </trkpt>
      <trkpt lat="48.8343" lon="1.92301">
        <ele>91</ele>
        <time>2022-10-03T09:30:44.237Z</time>
      </trkpt>
      <trkpt lat="48.83433" lon="1.92307">
        <ele>89</ele>
        <time>2022-10-03T09:30:48.243Z</time>
      </trkpt>
      <trkpt lat="48.83437" lon="1.92313">
        <ele>89</ele>
        <time>2022-10-03T09:30:53.256Z</time>
      </trkpt>
      <trkpt lat="48.83441" lon="1.9232">
        <ele>90</ele>
        <time>2022-10-03T09:30:58.241Z</time>
      </trkpt>
      <trkpt lat="48.83445" lon="1.92325">
        <ele>90</ele>
        <time>2022-10-03T09:31:02.240Z</time>
      </trkpt>
      <trkpt lat="48.83448" lon="1.92331">
        <ele>90</ele>
        <time>2022-10-03T09:31:07.219Z</time>
      </trkpt>
      <trkpt lat="48.83451" lon="1.92334">
        <ele>90</ele>
        <time>2022-10-03T09:31:11.232Z</time>
      </trkpt>
      <trkpt lat="48.83454" lon="1.92339">
        <ele>90</ele>
        <time>2022-10-03T09:31:15.243Z</time>
      </trkpt>
      <trkpt lat="48.83459" lon="1.92346">
        <ele>90</ele>
        <time>2022-10-03T09:31:20.220Z</time>
      </trkpt>
      <trkpt lat="48.83462" lon="1.92354">
        <ele>90</ele>
        <time>2022-10-03T09:31:25.262Z</time>
      </trkpt>
      <trkpt lat="48.83466" lon="1.92362">
        <ele>90</ele>
        <time>2022-10-03T09:31:30.253Z</time>
      </trkpt>
      <trkpt lat="48.83469" lon="1.9237">
        <ele>90</ele>
        <time>2022-10-03T09:31:35.245Z</time>
      </trkpt>
      <trkpt lat="48.83472" lon="1.92378">
        <ele>89</ele>
        <time>2022-10-03T09:31:40.233Z</time>
      </trkpt>
      <trkpt lat="48.83474" lon="1.92385">
        <ele>89</ele>
        <time>2022-10-03T09:31:44.258Z</time>
      </trkpt>
      <trkpt lat="48.83477" lon="1.92395">
        <ele>89</ele>
        <time>2022-10-03T09:31:49.228Z</time>
      </trkpt>
      <trkpt lat="48.8348" lon="1.92402">
        <ele>89</ele>
        <time>2022-10-03T09:31:53.231Z</time>
      </trkpt>
      <trkpt lat="48.83483" lon="1.92409">
        <ele>88</ele>
        <time>2022-10-03T09:31:57.240Z</time>
      </trkpt>
      <trkpt lat="48.83486" lon="1.92419">
        <ele>88</ele>
        <time>2022-10-03T09:32:02.234Z</time>
      </trkpt>
      <trkpt lat="48.83489" lon="1.92425">
        <ele>89</ele>
        <time>2022-10-03T09:32:06.243Z</time>
      </trkpt>
      <trkpt lat="48.83491" lon="1.92434">
        <ele>88</ele>
        <time>2022-10-03T09:32:11.221Z</time>
      </trkpt>
      <trkpt lat="48.83495" lon="1.92442">
        <ele>88</ele>
        <time>2022-10-03T09:32:16.239Z</time>
      </trkpt>
      <trkpt lat="48.83496" lon="1.92447">
        <ele>88</ele>
        <time>2022-10-03T09:32:20.242Z</time>
      </trkpt>
      <trkpt lat="48.83496" lon="1.92452">
        <ele>88</ele>
        <time>2022-10-03T09:32:25.204Z</time>
      </trkpt>
      <trkpt lat="48.83495" lon="1.92458">
        <ele>88</ele>
        <time>2022-10-03T09:32:29.224Z</time>
      </trkpt>
      <trkpt lat="48.83495" lon="1.92465">
        <ele>87</ele>
        <time>2022-10-03T09:32:33.237Z</time>
      </trkpt>
      <trkpt lat="48.83494" lon="1.92474">
        <ele>87</ele>
        <time>2022-10-03T09:32:38.233Z</time>
      </trkpt>
      <trkpt lat="48.83493" lon="1.92482">
        <ele>87</ele>
        <time>2022-10-03T09:32:42.240Z</time>
      </trkpt>
      <trkpt lat="48.83492" lon="1.92493">
        <ele>87</ele>
        <time>2022-10-03T09:32:47.245Z</time>
      </trkpt>
      <trkpt lat="48.83491" lon="1.92504">
        <ele>87</ele>
        <time>2022-10-03T09:32:52.242Z</time>
      </trkpt>
      <trkpt lat="48.83493" lon="1.92511">
        <ele>87</ele>
        <time>2022-10-03T09:32:56.251Z</time>
      </trkpt>
      <trkpt lat="48.83494" lon="1.92522">
        <ele>87</ele>
        <time>2022-10-03T09:33:01.223Z</time>
      </trkpt>
      <trkpt lat="48.83494" lon="1.92529">
        <ele>87</ele>
        <time>2022-10-03T09:33:05.239Z</time>
      </trkpt>
      <trkpt lat="48.83496" lon="1.9254">
        <ele>87</ele>
        <time>2022-10-03T09:33:10.236Z</time>
      </trkpt>
      <trkpt lat="48.83497" lon="1.9255">
        <ele>88</ele>
        <time>2022-10-03T09:33:15.233Z</time>
      </trkpt>
      <trkpt lat="48.83498" lon="1.92558">
        <ele>88</ele>
        <time>2022-10-03T09:33:19.249Z</time>
      </trkpt>
      <trkpt lat="48.83499" lon="1.92566">
        <ele>88</ele>
        <time>2022-10-03T09:33:23.255Z</time>
      </trkpt>
      <trkpt lat="48.835" lon="1.92576">
        <ele>88</ele>
        <time>2022-10-03T09:33:28.256Z</time>
      </trkpt>
      <trkpt lat="48.83501" lon="1.92584">
        <ele>88</ele>
        <time>2022-10-03T09:33:33.214Z</time>
      </trkpt>
      <trkpt lat="48.83504" lon="1.9259">
        <ele>88</ele>
        <time>2022-10-03T09:33:37.228Z</time>
      </trkpt>
      <trkpt lat="48.83508" lon="1.92596">
        <ele>88</ele>
        <time>2022-10-03T09:33:42.256Z</time>
      </trkpt>
      <trkpt lat="48.83512" lon="1.92602">
        <ele>89</ele>
        <time>2022-10-03T09:33:47.246Z</time>
      </trkpt>
      <trkpt lat="48.83517" lon="1.92613">
        <ele>91</ele>
        <time>2022-10-03T09:34:10.255Z</time>
      </trkpt>
      <trkpt lat="48.83518" lon="1.92614">
        <ele>91</ele>
        <time>2022-10-03T09:34:15.228Z</time>
      </trkpt>
      <trkpt lat="48.83519" lon="1.92614">
        <ele>91</ele>
        <time>2022-10-03T09:34:19.248Z</time>
      </trkpt>
      <trkpt lat="48.83521" lon="1.92614">
        <ele>91</ele>
        <time>2022-10-03T09:34:24.237Z</time>
      </trkpt>
      <trkpt lat="48.83524" lon="1.92611">
        <ele>91</ele>
        <time>2022-10-03T09:34:29.204Z</time>
      </trkpt>
      <trkpt lat="48.83526" lon="1.92608">
        <ele>91</ele>
        <time>2022-10-03T09:34:33.229Z</time>
      </trkpt>
      <trkpt lat="48.83529" lon="1.92602">
        <ele>91</ele>
        <time>2022-10-03T09:34:38.222Z</time>
      </trkpt>
      <trkpt lat="48.83532" lon="1.92596">
        <ele>90</ele>
        <time>2022-10-03T09:34:42.237Z</time>
      </trkpt>
      <trkpt lat="48.83535" lon="1.92591">
        <ele>90</ele>
        <time>2022-10-03T09:34:47.256Z</time>
      </trkpt>
      <trkpt lat="48.83539" lon="1.92584">
        <ele>90</ele>
        <time>2022-10-03T09:34:52.217Z</time>
      </trkpt>
      <trkpt lat="48.83541" lon="1.92578">
        <ele>90</ele>
        <time>2022-10-03T09:34:56.248Z</time>
      </trkpt>
      <trkpt lat="48.83546" lon="1.92571">
        <ele>92</ele>
        <time>2022-10-03T09:35:01.228Z</time>
      </trkpt>
      <trkpt lat="48.83549" lon="1.92567">
        <ele>92</ele>
        <time>2022-10-03T09:35:05.249Z</time>
      </trkpt>
      <trkpt lat="48.83554" lon="1.92562">
        <ele>92</ele>
        <time>2022-10-03T09:35:10.249Z</time>
      </trkpt>
      <trkpt lat="48.83559" lon="1.92558">
        <ele>92</ele>
        <time>2022-10-03T09:35:15.249Z</time>
      </trkpt>
      <trkpt lat="48.83564" lon="1.92552">
        <ele>92</ele>
        <time>2022-10-03T09:35:20.241Z</time>
      </trkpt>
      <trkpt lat="48.83568" lon="1.92549">
        <ele>92</ele>
        <time>2022-10-03T09:35:24.244Z</time>
      </trkpt>
      <trkpt lat="48.83574" lon="1.92543">
        <ele>94</ele>
        <time>2022-10-03T09:35:29.244Z</time>
      </trkpt>
      <trkpt lat="48.83578" lon="1.9254">
        <ele>94</ele>
        <time>2022-10-03T09:35:33.247Z</time>
      </trkpt>
      <trkpt lat="48.83583" lon="1.92535">
        <ele>94</ele>
        <time>2022-10-03T09:35:38.205Z</time>
      </trkpt>
      <trkpt lat="48.83588" lon="1.92532">
        <ele>94</ele>
        <time>2022-10-03T09:35:42.211Z</time>
      </trkpt>
      <trkpt lat="48.83593" lon="1.92528">
        <ele>94</ele>
        <time>2022-10-03T09:35:46.234Z</time>
      </trkpt>
      <trkpt lat="48.83599" lon="1.92523">
        <ele>94</ele>
        <time>2022-10-03T09:35:51.231Z</time>
      </trkpt>
      <trkpt lat="48.83605" lon="1.9252">
        <ele>94</ele>
        <time>2022-10-03T09:35:56.226Z</time>
      </trkpt>
      <trkpt lat="48.83611" lon="1.92514">
        <ele>94</ele>
        <time>2022-10-03T09:36:01.225Z</time>
      </trkpt>
      <trkpt lat="48.83616" lon="1.92511">
        <ele>94</ele>
        <time>2022-10-03T09:36:05.237Z</time>
      </trkpt>
      <trkpt lat="48.83621" lon="1.92507">
        <ele>94</ele>
        <time>2022-10-03T09:36:10.234Z</time>
      </trkpt>
      <trkpt lat="48.83627" lon="1.92503">
        <ele>97</ele>
        <time>2022-10-03T09:36:14.268Z</time>
      </trkpt>
      <trkpt lat="48.83632" lon="1.925">
        <ele>97</ele>
        <time>2022-10-03T09:36:19.238Z</time>
      </trkpt>
      <trkpt lat="48.83636" lon="1.92496">
        <ele>97</ele>
        <time>2022-10-03T09:36:23.253Z</time>
      </trkpt>
      <trkpt lat="48.83641" lon="1.92491">
        <ele>97</ele>
        <time>2022-10-03T09:36:28.251Z</time>
      </trkpt>
      <trkpt lat="48.83646" lon="1.92487">
        <ele>97</ele>
        <time>2022-10-03T09:36:33.243Z</time>
      </trkpt>
      <trkpt lat="48.83651" lon="1.92483">
        <ele>97</ele>
        <time>2022-10-03T09:36:38.245Z</time>
      </trkpt>
      <trkpt lat="48.83656" lon="1.92478">
        <ele>101</ele>
        <time>2022-10-03T09:36:43.251Z</time>
      </trkpt>
      <trkpt lat="48.83662" lon="1.92473">
        <ele>101</ele>
        <time>2022-10-03T09:36:48.228Z</time>
      </trkpt>
      <trkpt lat="48.83666" lon="1.92468">
        <ele>101</ele>
        <time>2022-10-03T09:36:52.236Z</time>
      </trkpt>
      <trkpt lat="48.8367" lon="1.92464">
        <ele>101</ele>
        <time>2022-10-03T09:36:56.250Z</time>
      </trkpt>
      <trkpt lat="48.83674" lon="1.92458">
        <ele>102</ele>
        <time>2022-10-03T09:37:01.232Z</time>
      </trkpt>
      <trkpt lat="48.83679" lon="1.92454">
        <ele>102</ele>
        <time>2022-10-03T09:37:05.237Z</time>
      </trkpt>
      <trkpt lat="48.83682" lon="1.9245">
        <ele>105</ele>
        <time>2022-10-03T09:37:09.241Z</time>
      </trkpt>
      <trkpt lat="48.83687" lon="1.92445">
        <ele>105</ele>
        <time>2022-10-03T09:37:13.258Z</time>
      </trkpt>
      <trkpt lat="48.83692" lon="1.92439">
        <ele>105</ele>
        <time>2022-10-03T09:37:18.251Z</time>
      </trkpt>
      <trkpt lat="48.83696" lon="1.92435">
        <ele>105</ele>
        <time>2022-10-03T09:37:22.267Z</time>
      </trkpt>
      <trkpt lat="48.83702" lon="1.92429">
        <ele>105</ele>
        <time>2022-10-03T09:37:27.254Z</time>
      </trkpt>
      <trkpt lat="48.83706" lon="1.92422">
        <ele>105</ele>
        <time>2022-10-03T09:37:32.239Z</time>
      </trkpt>
      <trkpt lat="48.8371" lon="1.92419">
        <ele>106</ele>
        <time>2022-10-03T09:37:36.252Z</time>
      </trkpt>
      <trkpt lat="48.83715" lon="1.92413">
        <ele>106</ele>
        <time>2022-10-03T09:37:41.226Z</time>
      </trkpt>
      <trkpt lat="48.83719" lon="1.9241">
        <ele>106</ele>
        <time>2022-10-03T09:37:45.263Z</time>
      </trkpt>
      <trkpt lat="48.83724" lon="1.92404">
        <ele>106</ele>
        <time>2022-10-03T09:37:50.263Z</time>
      </trkpt>
      <trkpt lat="48.8373" lon="1.92396">
        <ele>106</ele>
        <time>2022-10-03T09:37:55.269Z</time>
      </trkpt>
      <trkpt lat="48.83735" lon="1.92389">
        <ele>106</ele>
        <time>2022-10-03T09:38:00.239Z</time>
      </trkpt>
      <trkpt lat="48.83741" lon="1.92383">
        <ele>108</ele>
        <time>2022-10-03T09:38:05.259Z</time>
      </trkpt>
      <trkpt lat="48.83746" lon="1.92379">
        <ele>108</ele>
        <time>2022-10-03T09:38:10.264Z</time>
      </trkpt>
      <trkpt lat="48.83752" lon="1.9238">
        <ele>108</ele>
        <time>2022-10-03T09:38:15.227Z</time>
      </trkpt>
      <trkpt lat="48.83758" lon="1.92383">
        <ele>108</ele>
        <time>2022-10-03T09:38:19.231Z</time>
      </trkpt>
      <trkpt lat="48.83762" lon="1.92389">
        <ele>108</ele>
        <time>2022-10-03T09:38:24.227Z</time>
      </trkpt>
      <trkpt lat="48.83766" lon="1.92391">
        <ele>109</ele>
        <time>2022-10-03T09:38:28.242Z</time>
      </trkpt>
      <trkpt lat="48.83773" lon="1.92391">
        <ele>109</ele>
        <time>2022-10-03T09:38:33.238Z</time>
      </trkpt>
      <trkpt lat="48.83779" lon="1.92391">
        <ele>109</ele>
        <time>2022-10-03T09:38:38.245Z</time>
      </trkpt>
      <trkpt lat="48.83782" lon="1.92391">
        <ele>109</ele>
        <time>2022-10-03T09:38:43.205Z</time>
      </trkpt>
      <trkpt lat="48.83782" lon="1.92396">
        <ele>109</ele>
        <time>2022-10-03T09:38:48.197Z</time>
      </trkpt>
      <trkpt lat="48.83784" lon="1.92395">
        <ele>109</ele>
        <time>2022-10-03T09:38:52.210Z</time>
      </trkpt>
      <trkpt lat="48.83787" lon="1.92393">
        <ele>109</ele>
        <time>2022-10-03T09:38:57.213Z</time>
      </trkpt>
      <trkpt lat="48.8379" lon="1.92388">
        <ele>109</ele>
        <time>2022-10-03T09:39:01.228Z</time>
      </trkpt>
      <trkpt lat="48.83798" lon="1.92388">
        <ele>109</ele>
        <time>2022-10-03T09:39:06.214Z</time>
      </trkpt>
      <trkpt lat="48.83801" lon="1.92387">
        <ele>109</ele>
        <time>2022-10-03T09:39:10.231Z</time>
      </trkpt>
      <trkpt lat="48.83807" lon="1.92388">
        <ele>109</ele>
        <time>2022-10-03T09:39:15.216Z</time>
      </trkpt>
      <trkpt lat="48.83812" lon="1.92389">
        <ele>109</ele>
        <time>2022-10-03T09:39:20.232Z</time>
      </trkpt>
      <trkpt lat="48.83817" lon="1.9239">
        <ele>109</ele>
        <time>2022-10-03T09:39:25.240Z</time>
      </trkpt>
      <trkpt lat="48.83821" lon="1.92391">
        <ele>109</ele>
        <time>2022-10-03T09:39:29.249Z</time>
      </trkpt>
      <trkpt lat="48.83827" lon="1.92391">
        <ele>109</ele>
        <time>2022-10-03T09:39:34.227Z</time>
      </trkpt>
      <trkpt lat="48.83834" lon="1.92392">
        <ele>109</ele>
        <time>2022-10-03T09:39:39.251Z</time>
      </trkpt>
      <trkpt lat="48.83841" lon="1.92393">
        <ele>109</ele>
        <time>2022-10-03T09:39:44.243Z</time>
      </trkpt>
      <trkpt lat="48.83847" lon="1.92393">
        <ele>109</ele>
        <time>2022-10-03T09:39:48.251Z</time>
      </trkpt>
      <trkpt lat="48.83853" lon="1.92394">
        <ele>111</ele>
        <time>2022-10-03T09:39:53.262Z</time>
      </trkpt>
      <trkpt lat="48.83858" lon="1.92394">
        <ele>111</ele>
        <time>2022-10-03T09:39:58.238Z</time>
      </trkpt>
      <trkpt lat="48.83858" lon="1.92398">
        <ele>111</ele>
        <time>2022-10-03T09:40:03.201Z</time>
      </trkpt>
      <trkpt lat="48.83863" lon="1.92393">
        <ele>111</ele>
        <time>2022-10-03T09:40:08.203Z</time>
      </trkpt>
      <trkpt lat="48.83866" lon="1.92393">
        <ele>111</ele>
        <time>2022-10-03T09:40:12.234Z</time>
      </trkpt>
      <trkpt lat="48.83873" lon="1.92394">
        <ele>111</ele>
        <time>2022-10-03T09:40:17.219Z</time>
      </trkpt>
      <trkpt lat="48.83878" lon="1.92396">
        <ele>114</ele>
        <time>2022-10-03T09:40:22.222Z</time>
      </trkpt>
      <trkpt lat="48.83883" lon="1.92396">
        <ele>114</ele>
        <time>2022-10-03T09:40:26.237Z</time>
      </trkpt>
      <trkpt lat="48.83891" lon="1.92397">
        <ele>114</ele>
        <time>2022-10-03T09:40:31.236Z</time>
      </trkpt>
      <trkpt lat="48.83895" lon="1.92396">
        <ele>114</ele>
        <time>2022-10-03T09:40:35.246Z</time>
      </trkpt>
      <trkpt lat="48.839" lon="1.92396">
        <ele>114</ele>
        <time>2022-10-03T09:40:40.216Z</time>
      </trkpt>
      <trkpt lat="48.83903" lon="1.92396">
        <ele>117</ele>
        <time>2022-10-03T09:40:44.253Z</time>
      </trkpt>
      <trkpt lat="48.83911" lon="1.92398">
        <ele>117</ele>
        <time>2022-10-03T09:40:49.237Z</time>
      </trkpt>
      <trkpt lat="48.83917" lon="1.92397">
        <ele>117</ele>
        <time>2022-10-03T09:40:54.230Z</time>
      </trkpt>
      <trkpt lat="48.83922" lon="1.92396">
        <ele>117</ele>
        <time>2022-10-03T09:40:58.238Z</time>
      </trkpt>
      <trkpt lat="48.83927" lon="1.92396">
        <ele>117</ele>
        <time>2022-10-03T09:41:02.244Z</time>
      </trkpt>
      <trkpt lat="48.83933" lon="1.92397">
        <ele>118</ele>
        <time>2022-10-03T09:41:07.237Z</time>
      </trkpt>
      <trkpt lat="48.83938" lon="1.92397">
        <ele>118</ele>
        <time>2022-10-03T09:41:12.231Z</time>
      </trkpt>
      <trkpt lat="48.83946" lon="1.92397">
        <ele>118</ele>
        <time>2022-10-03T09:41:17.232Z</time>
      </trkpt>
      <trkpt lat="48.83951" lon="1.92398">
        <ele>118</ele>
        <time>2022-10-03T09:41:22.222Z</time>
      </trkpt>
      <trkpt lat="48.83956" lon="1.92397">
        <ele>118</ele>
        <time>2022-10-03T09:41:26.235Z</time>
      </trkpt>
      <trkpt lat="48.83962" lon="1.92397">
        <ele>120</ele>
        <time>2022-10-03T09:41:30.237Z</time>
      </trkpt>
      <trkpt lat="48.83967" lon="1.92397">
        <ele>120</ele>
        <time>2022-10-03T09:41:34.265Z</time>
      </trkpt>
      <trkpt lat="48.83973" lon="1.92398">
        <ele>120</ele>
        <time>2022-10-03T09:41:39.255Z</time>
      </trkpt>
      <trkpt lat="48.83977" lon="1.924">
        <ele>120</ele>
        <time>2022-10-03T09:41:43.266Z</time>
      </trkpt>
      <trkpt lat="48.83983" lon="1.924">
        <ele>120</ele>
        <time>2022-10-03T09:41:47.282Z</time>
      </trkpt>
      <trkpt lat="48.8399" lon="1.92401">
        <ele>121</ele>
        <time>2022-10-03T09:41:52.254Z</time>
      </trkpt>
      <trkpt lat="48.83997" lon="1.92401">
        <ele>121</ele>
        <time>2022-10-03T09:41:57.255Z</time>
      </trkpt>
      <trkpt lat="48.84003" lon="1.92402">
        <ele>121</ele>
        <time>2022-10-03T09:42:02.236Z</time>
      </trkpt>
      <trkpt lat="48.84008" lon="1.92402">
        <ele>121</ele>
        <time>2022-10-03T09:42:06.255Z</time>
      </trkpt>
      <trkpt lat="48.84015" lon="1.92403">
        <ele>122</ele>
        <time>2022-10-03T09:42:11.230Z</time>
      </trkpt>
      <trkpt lat="48.8402" lon="1.92404">
        <ele>122</ele>
        <time>2022-10-03T09:42:15.257Z</time>
      </trkpt>
      <trkpt lat="48.84027" lon="1.92404">
        <ele>122</ele>
        <time>2022-10-03T09:42:20.238Z</time>
      </trkpt>
      <trkpt lat="48.84031" lon="1.92402">
        <ele>122</ele>
        <time>2022-10-03T09:42:24.249Z</time>
      </trkpt>
      <trkpt lat="48.84036" lon="1.92401">
        <ele>122</ele>
        <time>2022-10-03T09:42:28.260Z</time>
      </trkpt>
      <trkpt lat="48.84042" lon="1.92402">
        <ele>122</ele>
        <time>2022-10-03T09:42:33.252Z</time>
      </trkpt>
      <trkpt lat="48.84048" lon="1.924">
        <ele>122</ele>
        <time>2022-10-03T09:42:37.258Z</time>
      </trkpt>
      <trkpt lat="48.84053" lon="1.92396">
        <ele>122</ele>
        <time>2022-10-03T09:42:42.251Z</time>
      </trkpt>
      <trkpt lat="48.84059" lon="1.92389">
        <ele>122</ele>
        <time>2022-10-03T09:42:47.253Z</time>
      </trkpt>
      <trkpt lat="48.84063" lon="1.9238">
        <ele>122</ele>
        <time>2022-10-03T09:42:52.244Z</time>
      </trkpt>
      <trkpt lat="48.84066" lon="1.92372">
        <ele>122</ele>
        <time>2022-10-03T09:42:56.259Z</time>
      </trkpt>
      <trkpt lat="48.84069" lon="1.92362">
        <ele>122</ele>
        <time>2022-10-03T09:43:01.237Z</time>
      </trkpt>
      <trkpt lat="48.84071" lon="1.92354">
        <ele>123</ele>
        <time>2022-10-03T09:43:06.199Z</time>
      </trkpt>
      <trkpt lat="48.84074" lon="1.92353">
        <ele>123</ele>
        <time>2022-10-03T09:43:10.205Z</time>
      </trkpt>
      <trkpt lat="48.84076" lon="1.92339">
        <ele>123</ele>
        <time>2022-10-03T09:43:15.211Z</time>
      </trkpt>
      <trkpt lat="48.84077" lon="1.92334">
        <ele>123</ele>
        <time>2022-10-03T09:43:19.250Z</time>
      </trkpt>
      <trkpt lat="48.8408" lon="1.92324">
        <ele>123</ele>
        <time>2022-10-03T09:43:24.225Z</time>
      </trkpt>
      <trkpt lat="48.84082" lon="1.92313">
        <ele>123</ele>
        <time>2022-10-03T09:43:29.250Z</time>
      </trkpt>
      <trkpt lat="48.84085" lon="1.92302">
        <ele>123</ele>
        <time>2022-10-03T09:43:34.221Z</time>
      </trkpt>
      <trkpt lat="48.84087" lon="1.92294">
        <ele>123</ele>
        <time>2022-10-03T09:43:38.244Z</time>
      </trkpt>
      <trkpt lat="48.8409" lon="1.92284">
        <ele>122</ele>
        <time>2022-10-03T09:43:43.236Z</time>
      </trkpt>
      <trkpt lat="48.84092" lon="1.92276">
        <ele>122</ele>
        <time>2022-10-03T09:43:47.239Z</time>
      </trkpt>
      <trkpt lat="48.84093" lon="1.92267">
        <ele>122</ele>
        <time>2022-10-03T09:43:52.228Z</time>
      </trkpt>
      <trkpt lat="48.84095" lon="1.92259">
        <ele>119</ele>
        <time>2022-10-03T09:43:56.262Z</time>
      </trkpt>
      <trkpt lat="48.84098" lon="1.92248">
        <ele>118</ele>
        <time>2022-10-03T09:44:01.226Z</time>
      </trkpt>
      <trkpt lat="48.84098" lon="1.9224">
        <ele>118</ele>
        <time>2022-10-03T09:44:05.237Z</time>
      </trkpt>
      <trkpt lat="48.84101" lon="1.92231">
        <ele>115</ele>
        <time>2022-10-03T09:44:09.236Z</time>
      </trkpt>
      <trkpt lat="48.84103" lon="1.92222">
        <ele>115</ele>
        <time>2022-10-03T09:44:14.235Z</time>
      </trkpt>
      <trkpt lat="48.84105" lon="1.92214">
        <ele>115</ele>
        <time>2022-10-03T09:44:18.239Z</time>
      </trkpt>
      <trkpt lat="48.84107" lon="1.92202">
        <ele>115</ele>
        <time>2022-10-03T09:44:23.237Z</time>
      </trkpt>
      <trkpt lat="48.84109" lon="1.92191">
        <ele>115</ele>
        <time>2022-10-03T09:44:28.247Z</time>
      </trkpt>
      <trkpt lat="48.84111" lon="1.92181">
        <ele>115</ele>
        <time>2022-10-03T09:44:33.260Z</time>
      </trkpt>
      <trkpt lat="48.84113" lon="1.92171">
        <ele>114</ele>
        <time>2022-10-03T09:44:38.254Z</time>
      </trkpt>
      <trkpt lat="48.84114" lon="1.92162">
        <ele>114</ele>
        <time>2022-10-03T09:44:42.255Z</time>
      </trkpt>
      <trkpt lat="48.84117" lon="1.92152">
        <ele>114</ele>
        <time>2022-10-03T09:44:47.242Z</time>
      </trkpt>
      <trkpt lat="48.8412" lon="1.92141">
        <ele>114</ele>
        <time>2022-10-03T09:44:52.244Z</time>
      </trkpt>
      <trkpt lat="48.84122" lon="1.9213">
        <ele>114</ele>
        <time>2022-10-03T09:44:57.246Z</time>
      </trkpt>
      <trkpt lat="48.84124" lon="1.92121">
        <ele>113</ele>
        <time>2022-10-03T09:45:02.234Z</time>
      </trkpt>
      <trkpt lat="48.84127" lon="1.9211">
        <ele>114</ele>
        <time>2022-10-03T09:45:07.229Z</time>
      </trkpt>
      <trkpt lat="48.84128" lon="1.92103">
        <ele>114</ele>
        <time>2022-10-03T09:45:11.248Z</time>
      </trkpt>
      <trkpt lat="48.84131" lon="1.92093">
        <ele>113</ele>
        <time>2022-10-03T09:45:16.241Z</time>
      </trkpt>
      <trkpt lat="48.84133" lon="1.92084">
        <ele>113</ele>
        <time>2022-10-03T09:45:20.245Z</time>
      </trkpt>
      <trkpt lat="48.84137" lon="1.92076">
        <ele>113</ele>
        <time>2022-10-03T09:45:25.239Z</time>
      </trkpt>
      <trkpt lat="48.8414" lon="1.92069">
        <ele>113</ele>
        <time>2022-10-03T09:45:30.248Z</time>
      </trkpt>
      <trkpt lat="48.84146" lon="1.92061">
        <ele>113</ele>
        <time>2022-10-03T09:45:35.247Z</time>
      </trkpt>
      <trkpt lat="48.84149" lon="1.92055">
        <ele>113</ele>
        <time>2022-10-03T09:45:39.265Z</time>
      </trkpt>
      <trkpt lat="48.84153" lon="1.92049">
        <ele>114</ele>
        <time>2022-10-03T09:45:44.246Z</time>
      </trkpt>
      <trkpt lat="48.84158" lon="1.9204">
        <ele>113</ele>
        <time>2022-10-03T09:45:49.269Z</time>
      </trkpt>
      <trkpt lat="48.84164" lon="1.92031">
        <ele>113</ele>
        <time>2022-10-03T09:45:54.227Z</time>
      </trkpt>
      <trkpt lat="48.84167" lon="1.92024">
        <ele>113</ele>
        <time>2022-10-03T09:45:58.234Z</time>
      </trkpt>
      <trkpt lat="48.8417" lon="1.92018">
        <ele>113</ele>
        <time>2022-10-03T09:46:02.258Z</time>
      </trkpt>
      <trkpt lat="48.84174" lon="1.9201">
        <ele>113</ele>
        <time>2022-10-03T09:46:07.253Z</time>
      </trkpt>
      <trkpt lat="48.84179" lon="1.92002">
        <ele>113</ele>
        <time>2022-10-03T09:46:12.237Z</time>
      </trkpt>
      <trkpt lat="48.84184" lon="1.91995">
        <ele>115</ele>
        <time>2022-10-03T09:46:16.247Z</time>
      </trkpt>
      <trkpt lat="48.84188" lon="1.91987">
        <ele>115</ele>
        <time>2022-10-03T09:46:21.232Z</time>
      </trkpt>
      <trkpt lat="48.84192" lon="1.9198">
        <ele>114</ele>
        <time>2022-10-03T09:46:25.245Z</time>
      </trkpt>
      <trkpt lat="48.84195" lon="1.91975">
        <ele>114</ele>
        <time>2022-10-03T09:46:29.267Z</time>
      </trkpt>
      <trkpt lat="48.84199" lon="1.91968">
        <ele>114</ele>
        <time>2022-10-03T09:46:34.245Z</time>
      </trkpt>
      <trkpt lat="48.84202" lon="1.91961">
        <ele>114</ele>
        <time>2022-10-03T09:46:38.248Z</time>
      </trkpt>
      <trkpt lat="48.84206" lon="1.91954">
        <ele>114</ele>
        <time>2022-10-03T09:46:43.234Z</time>
      </trkpt>
      <trkpt lat="48.8421" lon="1.91946">
        <ele>116</ele>
        <time>2022-10-03T09:46:47.253Z</time>
      </trkpt>
      <trkpt lat="48.84215" lon="1.9194">
        <ele>116</ele>
        <time>2022-10-03T09:46:52.240Z</time>
      </trkpt>
      <trkpt lat="48.84218" lon="1.91933">
        <ele>116</ele>
        <time>2022-10-03T09:46:57.230Z</time>
      </trkpt>
      <trkpt lat="48.84223" lon="1.91925">
        <ele>115</ele>
        <time>2022-10-03T09:47:02.247Z</time>
      </trkpt>
      <trkpt lat="48.84227" lon="1.91918">
        <ele>115</ele>
        <time>2022-10-03T09:47:07.243Z</time>
      </trkpt>
      <trkpt lat="48.84232" lon="1.91911">
        <ele>115</ele>
        <time>2022-10-03T09:47:12.239Z</time>
      </trkpt>
      <trkpt lat="48.84236" lon="1.91904">
        <ele>115</ele>
        <time>2022-10-03T09:47:16.244Z</time>
      </trkpt>
      <trkpt lat="48.8424" lon="1.91896">
        <ele>115</ele>
        <time>2022-10-03T09:47:21.230Z</time>
      </trkpt>
      <trkpt lat="48.84245" lon="1.91886">
        <ele>115</ele>
        <time>2022-10-03T09:47:26.238Z</time>
      </trkpt>
      <trkpt lat="48.84249" lon="1.9188">
        <ele>115</ele>
        <time>2022-10-03T09:47:30.255Z</time>
      </trkpt>
      <trkpt lat="48.84253" lon="1.91872">
        <ele>114</ele>
        <time>2022-10-03T09:47:35.234Z</time>
      </trkpt>
      <trkpt lat="48.84256" lon="1.91866">
        <ele>114</ele>
        <time>2022-10-03T09:47:39.245Z</time>
      </trkpt>
      <trkpt lat="48.8426" lon="1.91857">
        <ele>114</ele>
        <time>2022-10-03T09:47:44.249Z</time>
      </trkpt>
      <trkpt lat="48.84262" lon="1.91848">
        <ele>114</ele>
        <time>2022-10-03T09:47:48.261Z</time>
      </trkpt>
      <trkpt lat="48.84261" lon="1.91839">
        <ele>113</ele>
        <time>2022-10-03T09:47:53.227Z</time>
      </trkpt>
      <trkpt lat="48.84261" lon="1.91831">
        <ele>113</ele>
        <time>2022-10-03T09:47:57.231Z</time>
      </trkpt>
      <trkpt lat="48.84261" lon="1.91826">
        <ele>113</ele>
        <time>2022-10-03T09:48:01.248Z</time>
      </trkpt>
      <trkpt lat="48.84261" lon="1.9181">
        <ele>112</ele>
        <time>2022-10-03T09:48:21.207Z</time>
      </trkpt>
      <trkpt lat="48.84261" lon="1.91809">
        <ele>112</ele>
        <time>2022-10-03T09:48:25.248Z</time>
      </trkpt>
      <trkpt lat="48.84262" lon="1.91808">
        <ele>112</ele>
        <time>2022-10-03T09:48:30.238Z</time>
      </trkpt>
      <trkpt lat="48.84266" lon="1.91807">
        <ele>114</ele>
        <time>2022-10-03T09:48:34.250Z</time>
      </trkpt>
      <trkpt lat="48.84271" lon="1.91809">
        <ele>114</ele>
        <time>2022-10-03T09:48:38.261Z</time>
      </trkpt>
      <trkpt lat="48.84277" lon="1.91809">
        <ele>114</ele>
        <time>2022-10-03T09:48:43.268Z</time>
      </trkpt>
      <trkpt lat="48.84284" lon="1.91807">
        <ele>114</ele>
        <time>2022-10-03T09:48:48.228Z</time>
      </trkpt>
      <trkpt lat="48.84289" lon="1.91802">
        <ele>114</ele>
        <time>2022-10-03T09:48:52.239Z</time>
      </trkpt>
      <trkpt lat="48.84293" lon="1.91796">
        <ele>113</ele>
        <time>2022-10-03T09:48:56.247Z</time>
      </trkpt>
      <trkpt lat="48.84296" lon="1.9179">
        <ele>113</ele>
        <time>2022-10-03T09:49:01.236Z</time>
      </trkpt>
      <trkpt lat="48.84301" lon="1.91787">
        <ele>113</ele>
        <time>2022-10-03T09:49:05.242Z</time>
      </trkpt>
      <trkpt lat="48.84307" lon="1.91785">
        <ele>113</ele>
        <time>2022-10-03T09:49:10.247Z</time>
      </trkpt>
      <trkpt lat="48.84313" lon="1.91784">
        <ele>113</ele>
        <time>2022-10-03T09:49:14.250Z</time>
      </trkpt>
      <trkpt lat="48.8432" lon="1.91782">
        <ele>110</ele>
        <time>2022-10-03T09:49:19.255Z</time>
      </trkpt>
      <trkpt lat="48.84327" lon="1.91783">
        <ele>110</ele>
        <time>2022-10-03T09:49:24.206Z</time>
      </trkpt>
      <trkpt lat="48.84333" lon="1.91785">
        <ele>110</ele>
        <time>2022-10-03T09:49:28.250Z</time>
      </trkpt>
      <trkpt lat="48.84339" lon="1.91785">
        <ele>110</ele>
        <time>2022-10-03T09:49:33.242Z</time>
      </trkpt>
      <trkpt lat="48.84344" lon="1.91785">
        <ele>110</ele>
        <time>2022-10-03T09:49:37.255Z</time>
      </trkpt>
      <trkpt lat="48.84351" lon="1.91786">
        <ele>108</ele>
        <time>2022-10-03T09:49:42.231Z</time>
      </trkpt>
      <trkpt lat="48.84357" lon="1.91787">
        <ele>108</ele>
        <time>2022-10-03T09:49:46.247Z</time>
      </trkpt>
      <trkpt lat="48.84363" lon="1.91787">
        <ele>108</ele>
        <time>2022-10-03T09:49:51.243Z</time>
      </trkpt>
      <trkpt lat="48.84368" lon="1.91787">
        <ele>108</ele>
        <time>2022-10-03T09:49:56.241Z</time>
      </trkpt>
      <trkpt lat="48.84373" lon="1.91788">
        <ele>108</ele>
        <time>2022-10-03T09:50:00.237Z</time>
      </trkpt>
      <trkpt lat="48.84377" lon="1.91788">
        <ele>105</ele>
        <time>2022-10-03T09:50:04.251Z</time>
      </trkpt>
      <trkpt lat="48.84384" lon="1.91787">
        <ele>105</ele>
        <time>2022-10-03T09:50:09.253Z</time>
      </trkpt>
      <trkpt lat="48.84391" lon="1.91787">
        <ele>105</ele>
        <time>2022-10-03T09:50:14.255Z</time>
      </trkpt>
      <trkpt lat="48.84399" lon="1.91787">
        <ele>105</ele>
        <time>2022-10-03T09:50:19.239Z</time>
      </trkpt>
      <trkpt lat="48.84406" lon="1.91789">
        <ele>103</ele>
        <time>2022-10-03T09:50:24.230Z</time>
      </trkpt>
      <trkpt lat="48.84411" lon="1.91791">
        <ele>103</ele>
        <time>2022-10-03T09:50:28.245Z</time>
      </trkpt>
      <trkpt lat="48.84418" lon="1.91791">
        <ele>103</ele>
        <time>2022-10-03T09:50:33.246Z</time>
      </trkpt>
      <trkpt lat="48.84425" lon="1.91791">
        <ele>103</ele>
        <time>2022-10-03T09:50:38.202Z</time>
      </trkpt>
      <trkpt lat="48.8443" lon="1.91794">
        <ele>104</ele>
        <time>2022-10-03T09:50:43.204Z</time>
      </trkpt>
      <trkpt lat="48.84439" lon="1.91793">
        <ele>102</ele>
        <time>2022-10-03T09:50:48.202Z</time>
      </trkpt>
      <trkpt lat="48.84446" lon="1.91792">
        <ele>101</ele>
        <time>2022-10-03T09:50:52.213Z</time>
      </trkpt>
      <trkpt lat="48.84452" lon="1.91786">
        <ele>101</ele>
        <time>2022-10-03T09:50:56.220Z</time>
      </trkpt>
      <trkpt lat="48.84456" lon="1.91784">
        <ele>101</ele>
        <time>2022-10-03T09:51:00.233Z</time>
      </trkpt>
      <trkpt lat="48.84462" lon="1.91781">
        <ele>99</ele>
        <time>2022-10-03T09:51:05.234Z</time>
      </trkpt>
      <trkpt lat="48.84468" lon="1.91777">
        <ele>99</ele>
        <time>2022-10-03T09:51:09.243Z</time>
      </trkpt>
      <trkpt lat="48.84476" lon="1.91773">
        <ele>99</ele>
        <time>2022-10-03T09:51:14.210Z</time>
      </trkpt>
      <trkpt lat="48.84483" lon="1.91767">
        <ele>99</ele>
        <time>2022-10-03T09:51:19.215Z</time>
      </trkpt>
      <trkpt lat="48.84491" lon="1.91764">
        <ele>97</ele>
        <time>2022-10-03T09:51:23.211Z</time>
      </trkpt>
      <trkpt lat="48.84498" lon="1.91762">
        <ele>97</ele>
        <time>2022-10-03T09:51:28.219Z</time>
      </trkpt>
      <trkpt lat="48.84504" lon="1.91761">
        <ele>97</ele>
        <time>2022-10-03T09:51:33.229Z</time>
      </trkpt>
      <trkpt lat="48.84508" lon="1.91759">
        <ele>97</ele>
        <time>2022-10-03T09:51:38.230Z</time>
      </trkpt>
      <trkpt lat="48.84514" lon="1.91759">
        <ele>95</ele>
        <time>2022-10-03T09:51:42.239Z</time>
      </trkpt>
      <trkpt lat="48.84521" lon="1.91761">
        <ele>95</ele>
        <time>2022-10-03T09:51:47.238Z</time>
      </trkpt>
      <trkpt lat="48.84529" lon="1.9176">
        <ele>95</ele>
        <time>2022-10-03T09:51:52.237Z</time>
      </trkpt>
      <trkpt lat="48.84536" lon="1.91758">
        <ele>95</ele>
        <time>2022-10-03T09:51:57.240Z</time>
      </trkpt>
      <trkpt lat="48.84542" lon="1.91759">
        <ele>93</ele>
        <time>2022-10-03T09:52:02.224Z</time>
      </trkpt>
      <trkpt lat="48.84547" lon="1.91757">
        <ele>93</ele>
        <time>2022-10-03T09:52:06.228Z</time>
      </trkpt>
      <trkpt lat="48.84552" lon="1.91755">
        <ele>93</ele>
        <time>2022-10-03T09:52:10.241Z</time>
      </trkpt>
      <trkpt lat="48.84559" lon="1.91755">
        <ele>93</ele>
        <time>2022-10-03T09:52:15.211Z</time>
      </trkpt>
      <trkpt lat="48.84565" lon="1.91755">
        <ele>93</ele>
        <time>2022-10-03T09:52:19.216Z</time>
      </trkpt>
      <trkpt lat="48.8457" lon="1.91755">
        <ele>91</ele>
        <time>2022-10-03T09:52:23.252Z</time>
      </trkpt>
      <trkpt lat="48.84575" lon="1.91755">
        <ele>91</ele>
        <time>2022-10-03T09:52:27.258Z</time>
      </trkpt>
      <trkpt lat="48.84582" lon="1.91755">
        <ele>91</ele>
        <time>2022-10-03T09:52:32.205Z</time>
      </trkpt>
      <trkpt lat="48.84588" lon="1.91754">
        <ele>91</ele>
        <time>2022-10-03T09:52:36.224Z</time>
      </trkpt>
      <trkpt lat="48.84594" lon="1.91754">
        <ele>91</ele>
        <time>2022-10-03T09:52:40.226Z</time>
      </trkpt>
      <trkpt lat="48.84601" lon="1.91753">
        <ele>89</ele>
        <time>2022-10-03T09:52:45.257Z</time>
      </trkpt>
      <trkpt lat="48.84608" lon="1.91751">
        <ele>89</ele>
        <time>2022-10-03T09:52:50.205Z</time>
      </trkpt>
      <trkpt lat="48.84613" lon="1.9175">
        <ele>89</ele>
        <time>2022-10-03T09:52:54.244Z</time>
      </trkpt>
      <trkpt lat="48.84619" lon="1.9175">
        <ele>89</ele>
        <time>2022-10-03T09:52:59.209Z</time>
      </trkpt>
      <trkpt lat="48.84624" lon="1.9175">
        <ele>89</ele>
        <time>2022-10-03T09:53:03.207Z</time>
      </trkpt>
      <trkpt lat="48.8463" lon="1.91749">
        <ele>88</ele>
        <time>2022-10-03T09:53:07.247Z</time>
      </trkpt>
      <trkpt lat="48.84638" lon="1.91749">
        <ele>88</ele>
        <time>2022-10-03T09:53:12.229Z</time>
      </trkpt>
      <trkpt lat="48.84644" lon="1.91747">
        <ele>88</ele>
        <time>2022-10-03T09:53:17.211Z</time>
      </trkpt>
      <trkpt lat="48.84651" lon="1.91743">
        <ele>88</ele>
        <time>2022-10-03T09:53:22.204Z</time>
      </trkpt>
      <trkpt lat="48.84656" lon="1.91742">
        <ele>87</ele>
        <time>2022-10-03T09:53:26.212Z</time>
      </trkpt>
      <trkpt lat="48.84663" lon="1.9174">
        <ele>87</ele>
        <time>2022-10-03T09:53:31.210Z</time>
      </trkpt>
      <trkpt lat="48.84668" lon="1.91741">
        <ele>87</ele>
        <time>2022-10-03T09:53:35.239Z</time>
      </trkpt>
      <trkpt lat="48.84672" lon="1.91741">
        <ele>87</ele>
        <time>2022-10-03T09:53:39.253Z</time>
      </trkpt>
      <trkpt lat="48.84675" lon="1.91739">
        <ele>87</ele>
        <time>2022-10-03T09:53:44.241Z</time>
      </trkpt>
      <trkpt lat="48.84678" lon="1.91735">
        <ele>87</ele>
        <time>2022-10-03T09:53:48.240Z</time>
      </trkpt>
      <trkpt lat="48.84684" lon="1.91731">
        <ele>86</ele>
        <time>2022-10-03T09:53:53.209Z</time>
      </trkpt>
      <trkpt lat="48.8469" lon="1.91731">
        <ele>86</ele>
        <time>2022-10-03T09:53:57.252Z</time>
      </trkpt>
      <trkpt lat="48.84695" lon="1.91732">
        <ele>86</ele>
        <time>2022-10-03T09:54:02.210Z</time>
      </trkpt>
      <trkpt lat="48.847" lon="1.91733">
        <ele>86</ele>
        <time>2022-10-03T09:54:06.227Z</time>
      </trkpt>
      <trkpt lat="48.84706" lon="1.91731">
        <ele>86</ele>
        <time>2022-10-03T09:54:11.245Z</time>
      </trkpt>
      <trkpt lat="48.84714" lon="1.91729">
        <ele>85</ele>
        <time>2022-10-03T09:54:16.217Z</time>
      </trkpt>
      <trkpt lat="48.84719" lon="1.9173">
        <ele>85</ele>
        <time>2022-10-03T09:54:20.217Z</time>
      </trkpt>
      <trkpt lat="48.84724" lon="1.91732">
        <ele>85</ele>
        <time>2022-10-03T09:54:24.233Z</time>
      </trkpt>
      <trkpt lat="48.84731" lon="1.9173">
        <ele>85</ele>
        <time>2022-10-03T09:54:29.232Z</time>
      </trkpt>
      <trkpt lat="48.84739" lon="1.91731">
        <ele>83</ele>
        <time>2022-10-03T09:54:34.217Z</time>
      </trkpt>
      <trkpt lat="48.84746" lon="1.91731">
        <ele>83</ele>
        <time>2022-10-03T09:54:38.239Z</time>
      </trkpt>
      <trkpt lat="48.84752" lon="1.91729">
        <ele>83</ele>
        <time>2022-10-03T09:54:43.256Z</time>
      </trkpt>
      <trkpt lat="48.84759" lon="1.91727">
        <ele>83</ele>
        <time>2022-10-03T09:54:48.234Z</time>
      </trkpt>
      <trkpt lat="48.84765" lon="1.91726">
        <ele>83</ele>
        <time>2022-10-03T09:54:52.235Z</time>
      </trkpt>
      <trkpt lat="48.84771" lon="1.91724">
        <ele>83</ele>
        <time>2022-10-03T09:54:56.240Z</time>
      </trkpt>
      <trkpt lat="48.84779" lon="1.91722">
        <ele>83</ele>
        <time>2022-10-03T09:55:01.248Z</time>
      </trkpt>
      <trkpt lat="48.84784" lon="1.91718">
        <ele>83</ele>
        <time>2022-10-03T09:55:06.228Z</time>
      </trkpt>
      <trkpt lat="48.84789" lon="1.91713">
        <ele>83</ele>
        <time>2022-10-03T09:55:11.246Z</time>
      </trkpt>
      <trkpt lat="48.84794" lon="1.91707">
        <ele>82</ele>
        <time>2022-10-03T09:55:16.224Z</time>
      </trkpt>
      <trkpt lat="48.84799" lon="1.91699">
        <ele>82</ele>
        <time>2022-10-03T09:55:21.240Z</time>
      </trkpt>
      <trkpt lat="48.84805" lon="1.91691">
        <ele>82</ele>
        <time>2022-10-03T09:55:26.229Z</time>
      </trkpt>
      <trkpt lat="48.84808" lon="1.91686">
        <ele>82</ele>
        <time>2022-10-03T09:55:31.250Z</time>
      </trkpt>
      <trkpt lat="48.8481" lon="1.9168">
        <ele>81</ele>
        <time>2022-10-03T09:55:36.206Z</time>
      </trkpt>
      <trkpt lat="48.84811" lon="1.91674">
        <ele>81</ele>
        <time>2022-10-03T09:55:40.208Z</time>
      </trkpt>
      <trkpt lat="48.84811" lon="1.91673">
        <ele>81</ele>
        <time>2022-10-03T09:55:44.205Z</time>
      </trkpt>
      <trkpt lat="48.84817" lon="1.91674">
        <ele>81</ele>
        <time>2022-10-03T09:55:49.212Z</time>
      </trkpt>
      <trkpt lat="48.84821" lon="1.91675">
        <ele>78</ele>
        <time>2022-10-03T09:55:53.218Z</time>
      </trkpt>
      <trkpt lat="48.84827" lon="1.91676">
        <ele>78</ele>
        <time>2022-10-03T09:55:58.209Z</time>
      </trkpt>
      <trkpt lat="48.84831" lon="1.91673">
        <ele>78</ele>
        <time>2022-10-03T09:56:02.232Z</time>
      </trkpt>
      <trkpt lat="48.84838" lon="1.91675">
        <ele>78</ele>
        <time>2022-10-03T09:56:07.217Z</time>
      </trkpt>
      <trkpt lat="48.84844" lon="1.91676">
        <ele>78</ele>
        <time>2022-10-03T09:56:11.233Z</time>
      </trkpt>
      <trkpt lat="48.8485" lon="1.91677">
        <ele>76</ele>
        <time>2022-10-03T09:56:15.274Z</time>
      </trkpt>
      <trkpt lat="48.84856" lon="1.91679">
        <ele>76</ele>
        <time>2022-10-03T09:56:20.225Z</time>
      </trkpt>
      <trkpt lat="48.84863" lon="1.91679">
        <ele>76</ele>
        <time>2022-10-03T09:56:25.207Z</time>
      </trkpt>
      <trkpt lat="48.84868" lon="1.9168">
        <ele>76</ele>
        <time>2022-10-03T09:56:29.247Z</time>
      </trkpt>
      <trkpt lat="48.84873" lon="1.91681">
        <ele>78</ele>
        <time>2022-10-03T09:56:34.221Z</time>
      </trkpt>
      <trkpt lat="48.8488" lon="1.91683">
        <ele>77</ele>
        <time>2022-10-03T09:56:39.262Z</time>
      </trkpt>
      <trkpt lat="48.84886" lon="1.91684">
        <ele>77</ele>
        <time>2022-10-03T09:56:43.261Z</time>
      </trkpt>
      <trkpt lat="48.84893" lon="1.91685">
        <ele>77</ele>
        <time>2022-10-03T09:56:48.237Z</time>
      </trkpt>
      <trkpt lat="48.84898" lon="1.91687">
        <ele>77</ele>
        <time>2022-10-03T09:56:52.239Z</time>
      </trkpt>
      <trkpt lat="48.84905" lon="1.91689">
        <ele>74</ele>
        <time>2022-10-03T09:56:57.215Z</time>
      </trkpt>
      <trkpt lat="48.84911" lon="1.9169">
        <ele>74</ele>
        <time>2022-10-03T09:57:02.202Z</time>
      </trkpt>
      <trkpt lat="48.84919" lon="1.91689">
        <ele>74</ele>
        <time>2022-10-03T09:57:06.204Z</time>
      </trkpt>
      <trkpt lat="48.84924" lon="1.91689">
        <ele>74</ele>
        <time>2022-10-03T09:57:11.213Z</time>
      </trkpt>
      <trkpt lat="48.84933" lon="1.91688">
        <ele>72</ele>
        <time>2022-10-03T09:57:16.202Z</time>
      </trkpt>
      <trkpt lat="48.84938" lon="1.91692">
        <ele>72</ele>
        <time>2022-10-03T09:57:21.210Z</time>
      </trkpt>
      <trkpt lat="48.84943" lon="1.91694">
        <ele>72</ele>
        <time>2022-10-03T09:57:26.206Z</time>
      </trkpt>
      <trkpt lat="48.84951" lon="1.91701">
        <ele>72</ele>
        <time>2022-10-03T09:57:31.200Z</time>
      </trkpt>
      <trkpt lat="48.84955" lon="1.91702">
        <ele>72</ele>
        <time>2022-10-03T09:57:35.203Z</time>
      </trkpt>
      <trkpt lat="48.84957" lon="1.917">
        <ele>72</ele>
        <time>2022-10-03T09:57:40.202Z</time>
      </trkpt>
      <trkpt lat="48.84958" lon="1.91706">
        <ele>72</ele>
        <time>2022-10-03T09:57:45.203Z</time>
      </trkpt>
      <trkpt lat="48.84957" lon="1.9171">
        <ele>71</ele>
        <time>2022-10-03T09:57:50.195Z</time>
      </trkpt>
      <trkpt lat="48.84959" lon="1.91717">
        <ele>69</ele>
        <time>2022-10-03T09:57:54.205Z</time>
      </trkpt>
      <trkpt lat="48.84965" lon="1.91724">
        <ele>69</ele>
        <time>2022-10-03T09:58:27.204Z</time>
      </trkpt>
      <trkpt lat="48.84967" lon="1.91726">
        <ele>69</ele>
        <time>2022-10-03T09:58:31.211Z</time>
      </trkpt>
      <trkpt lat="48.84971" lon="1.91728">
        <ele>69</ele>
        <time>2022-10-03T09:58:36.209Z</time>
      </trkpt>
      <trkpt lat="48.84974" lon="1.91729">
        <ele>69</ele>
        <time>2022-10-03T09:58:41.218Z</time>
      </trkpt>
      <trkpt lat="48.84975" lon="1.91726">
        <ele>69</ele>
        <time>2022-10-03T09:58:46.204Z</time>
      </trkpt>
      <trkpt lat="48.84976" lon="1.91725">
        <ele>69</ele>
        <time>2022-10-03T10:02:38.227Z</time>
      </trkpt>
      <trkpt lat="48.84977" lon="1.91725">
        <ele>69</ele>
        <time>2022-10-03T10:02:43.247Z</time>
      </trkpt>
      <trkpt lat="48.8498" lon="1.91725">
        <ele>69</ele>
        <time>2022-10-03T10:02:48.220Z</time>
      </trkpt>
      <trkpt lat="48.84983" lon="1.91725">
        <ele>69</ele>
        <time>2022-10-03T10:02:52.228Z</time>
      </trkpt>
      <trkpt lat="48.84987" lon="1.91725">
        <ele>69</ele>
        <time>2022-10-03T10:02:56.234Z</time>
      </trkpt>
      <trkpt lat="48.84985" lon="1.91727">
        <ele>69</ele>
        <time>2022-10-03T10:07:29.247Z</time>
      </trkpt>
      <trkpt lat="48.84985" lon="1.91727">
        <ele>69</ele>
        <time>2022-10-03T10:07:33.262Z</time>
      </trkpt>
      <trkpt lat="48.84985" lon="1.91728">
        <ele>69</ele>
        <time>2022-10-03T10:07:38.237Z</time>
      </trkpt>
      <trkpt lat="48.84988" lon="1.91731">
        <ele>69</ele>
        <time>2022-10-03T10:07:42.258Z</time>
      </trkpt>
      <trkpt lat="48.84993" lon="1.91736">
        <ele>69</ele>
        <time>2022-10-03T10:07:47.235Z</time>
      </trkpt>
      <trkpt lat="48.84999" lon="1.91737">
        <ele>69</ele>
        <time>2022-10-03T10:07:51.261Z</time>
      </trkpt>
      <trkpt lat="48.85006" lon="1.91742">
        <ele>69</ele>
        <time>2022-10-03T10:07:56.225Z</time>
      </trkpt>
      <trkpt lat="48.85011" lon="1.91747">
        <ele>69</ele>
        <time>2022-10-03T10:08:01.238Z</time>
      </trkpt>
      <trkpt lat="48.85016" lon="1.9175">
        <ele>67</ele>
        <time>2022-10-03T10:08:06.214Z</time>
      </trkpt>
      <trkpt lat="48.8502" lon="1.91753">
        <ele>67</ele>
        <time>2022-10-03T10:08:10.231Z</time>
      </trkpt>
      <trkpt lat="48.85025" lon="1.91757">
        <ele>67</ele>
        <time>2022-10-03T10:08:14.235Z</time>
      </trkpt>
      <trkpt lat="48.85032" lon="1.91762">
        <ele>67</ele>
        <time>2022-10-03T10:08:19.246Z</time>
      </trkpt>
      <trkpt lat="48.85037" lon="1.91764">
        <ele>66</ele>
        <time>2022-10-03T10:08:24.233Z</time>
      </trkpt>
      <trkpt lat="48.85044" lon="1.91767">
        <ele>65</ele>
        <time>2022-10-03T10:08:29.267Z</time>
      </trkpt>
      <trkpt lat="48.8505" lon="1.91768">
        <ele>65</ele>
        <time>2022-10-03T10:08:34.231Z</time>
      </trkpt>
      <trkpt lat="48.85055" lon="1.91769">
        <ele>65</ele>
        <time>2022-10-03T10:08:38.241Z</time>
      </trkpt>
      <trkpt lat="48.85062" lon="1.91768">
        <ele>65</ele>
        <time>2022-10-03T10:08:43.251Z</time>
      </trkpt>
      <trkpt lat="48.85069" lon="1.91771">
        <ele>65</ele>
        <time>2022-10-03T10:08:48.247Z</time>
      </trkpt>
      <trkpt lat="48.85076" lon="1.91773">
        <ele>68</ele>
        <time>2022-10-03T10:08:53.260Z</time>
      </trkpt>
      <trkpt lat="48.85083" lon="1.91772">
        <ele>68</ele>
        <time>2022-10-03T10:08:58.240Z</time>
      </trkpt>
      <trkpt lat="48.8509" lon="1.91771">
        <ele>68</ele>
        <time>2022-10-03T10:09:03.272Z</time>
      </trkpt>
      <trkpt lat="48.85092" lon="1.91775">
        <ele>68</ele>
        <time>2022-10-03T10:09:36.201Z</time>
      </trkpt>
      <trkpt lat="48.85094" lon="1.91771">
        <ele>68</ele>
        <time>2022-10-03T10:09:40.209Z</time>
      </trkpt>
      <trkpt lat="48.85095" lon="1.91769">
        <ele>68</ele>
        <time>2022-10-03T10:09:45.202Z</time>
      </trkpt>
      <trkpt lat="48.85095" lon="1.91766">
        <ele>68</ele>
        <time>2022-10-03T10:09:49.216Z</time>
      </trkpt>
      <trkpt lat="48.85101" lon="1.91765">
        <ele>71</ele>
        <time>2022-10-03T10:09:54.231Z</time>
      </trkpt>
      <trkpt lat="48.85108" lon="1.91762">
        <ele>69</ele>
        <time>2022-10-03T10:09:59.211Z</time>
      </trkpt>
      <trkpt lat="48.85113" lon="1.91763">
        <ele>69</ele>
        <time>2022-10-03T10:10:03.217Z</time>
      </trkpt>
      <trkpt lat="48.85119" lon="1.91759">
        <ele>69</ele>
        <time>2022-10-03T10:10:08.218Z</time>
      </trkpt>
      <trkpt lat="48.85123" lon="1.91758">
        <ele>69</ele>
        <time>2022-10-03T10:10:12.225Z</time>
      </trkpt>
      <trkpt lat="48.8513" lon="1.9176">
        <ele>71</ele>
        <time>2022-10-03T10:10:17.237Z</time>
      </trkpt>
      <trkpt lat="48.85133" lon="1.91761">
        <ele>71</ele>
        <time>2022-10-03T10:10:21.235Z</time>
      </trkpt>
      <trkpt lat="48.8514" lon="1.91765">
        <ele>74</ele>
        <time>2022-10-03T10:10:26.203Z</time>
      </trkpt>
      <trkpt lat="48.85144" lon="1.91767">
        <ele>74</ele>
        <time>2022-10-03T10:10:30.205Z</time>
      </trkpt>
      <trkpt lat="48.8515" lon="1.9177">
        <ele>74</ele>
        <time>2022-10-03T10:10:35.267Z</time>
      </trkpt>
      <trkpt lat="48.85155" lon="1.91776">
        <ele>74</ele>
        <time>2022-10-03T10:10:40.219Z</time>
      </trkpt>
      <trkpt lat="48.8516" lon="1.91778">
        <ele>74</ele>
        <time>2022-10-03T10:10:45.226Z</time>
      </trkpt>
      <trkpt lat="48.85164" lon="1.91782">
        <ele>74</ele>
        <time>2022-10-03T10:10:50.222Z</time>
      </trkpt>
      <trkpt lat="48.85168" lon="1.91784">
        <ele>74</ele>
        <time>2022-10-03T10:10:54.230Z</time>
      </trkpt>
      <trkpt lat="48.85174" lon="1.91788">
        <ele>74</ele>
        <time>2022-10-03T10:10:59.247Z</time>
      </trkpt>
      <trkpt lat="48.85178" lon="1.91793">
        <ele>77</ele>
        <time>2022-10-03T10:11:04.224Z</time>
      </trkpt>
      <trkpt lat="48.85182" lon="1.91797">
        <ele>78</ele>
        <time>2022-10-03T10:11:09.248Z</time>
      </trkpt>
      <trkpt lat="48.85186" lon="1.91801">
        <ele>78</ele>
        <time>2022-10-03T10:11:13.252Z</time>
      </trkpt>
      <trkpt lat="48.85191" lon="1.91802">
        <ele>78</ele>
        <time>2022-10-03T10:11:18.216Z</time>
      </trkpt>
      <trkpt lat="48.85197" lon="1.91803">
        <ele>78</ele>
        <time>2022-10-03T10:11:22.224Z</time>
      </trkpt>
      <trkpt lat="48.85203" lon="1.91803">
        <ele>78</ele>
        <time>2022-10-03T10:11:26.229Z</time>
      </trkpt>
      <trkpt lat="48.85208" lon="1.91804">
        <ele>78</ele>
        <time>2022-10-03T10:11:30.233Z</time>
      </trkpt>
      <trkpt lat="48.85216" lon="1.91801">
        <ele>81</ele>
        <time>2022-10-03T10:11:35.259Z</time>
      </trkpt>
      <trkpt lat="48.85222" lon="1.91799">
        <ele>81</ele>
        <time>2022-10-03T10:11:40.240Z</time>
      </trkpt>
      <trkpt lat="48.85227" lon="1.91794">
        <ele>81</ele>
        <time>2022-10-03T10:11:45.235Z</time>
      </trkpt>
      <trkpt lat="48.85234" lon="1.91789">
        <ele>80</ele>
        <time>2022-10-03T10:11:50.219Z</time>
      </trkpt>
      <trkpt lat="48.85238" lon="1.91785">
        <ele>85</ele>
        <time>2022-10-03T10:11:55.212Z</time>
      </trkpt>
      <trkpt lat="48.85241" lon="1.9178">
        <ele>85</ele>
        <time>2022-10-03T10:12:00.212Z</time>
      </trkpt>
      <trkpt lat="48.85242" lon="1.91778">
        <ele>85</ele>
        <time>2022-10-03T10:12:05.213Z</time>
      </trkpt>
      <trkpt lat="48.85244" lon="1.91781">
        <ele>85</ele>
        <time>2022-10-03T10:12:33.200Z</time>
      </trkpt>
      <trkpt lat="48.85246" lon="1.91779">
        <ele>85</ele>
        <time>2022-10-03T10:12:37.205Z</time>
      </trkpt>
      <trkpt lat="48.85248" lon="1.91784">
        <ele>85</ele>
        <time>2022-10-03T10:12:42.205Z</time>
      </trkpt>
      <trkpt lat="48.85252" lon="1.91785">
        <ele>85</ele>
        <time>2022-10-03T10:12:46.205Z</time>
      </trkpt>
      <trkpt lat="48.85255" lon="1.91778">
        <ele>85</ele>
        <time>2022-10-03T10:12:51.206Z</time>
      </trkpt>
      <trkpt lat="48.8526" lon="1.9177">
        <ele>85</ele>
        <time>2022-10-03T10:14:08.207Z</time>
      </trkpt>
      <trkpt lat="48.85261" lon="1.91767">
        <ele>85</ele>
        <time>2022-10-03T10:14:13.216Z</time>
      </trkpt>
      <trkpt lat="48.85262" lon="1.91767">
        <ele>85</ele>
        <time>2022-10-03T10:14:18.211Z</time>
      </trkpt>
      <trkpt lat="48.85263" lon="1.91761">
        <ele>85</ele>
        <time>2022-10-03T10:14:23.211Z</time>
      </trkpt>
      <trkpt lat="48.85266" lon="1.91755">
        <ele>91</ele>
        <time>2022-10-03T10:14:27.239Z</time>
      </trkpt>
      <trkpt lat="48.85269" lon="1.91754">
        <ele>91</ele>
        <time>2022-10-03T10:14:31.236Z</time>
      </trkpt>
      <trkpt lat="48.85267" lon="1.91751">
        <ele>91</ele>
        <time>2022-10-03T10:14:36.221Z</time>
      </trkpt>
      <trkpt lat="48.8527" lon="1.91759">
        <ele>91</ele>
        <time>2022-10-03T10:14:40.226Z</time>
      </trkpt>
      <trkpt lat="48.85273" lon="1.91767">
        <ele>92</ele>
        <time>2022-10-03T10:14:45.211Z</time>
      </trkpt>
      <trkpt lat="48.85272" lon="1.91777">
        <ele>92</ele>
        <time>2022-10-03T10:14:49.216Z</time>
      </trkpt>
      <trkpt lat="48.85276" lon="1.91782">
        <ele>92</ele>
        <time>2022-10-03T10:14:54.206Z</time>
      </trkpt>
      <trkpt lat="48.85282" lon="1.91784">
        <ele>92</ele>
        <time>2022-10-03T10:14:59.261Z</time>
      </trkpt>
      <trkpt lat="48.85287" lon="1.91789">
        <ele>92</ele>
        <time>2022-10-03T10:15:04.229Z</time>
      </trkpt>
      <trkpt lat="48.85289" lon="1.91796">
        <ele>92</ele>
        <time>2022-10-03T10:15:09.227Z</time>
      </trkpt>
      <trkpt lat="48.85292" lon="1.91796">
        <ele>97</ele>
        <time>2022-10-03T10:15:14.199Z</time>
      </trkpt>
      <trkpt lat="48.85292" lon="1.91801">
        <ele>97</ele>
        <time>2022-10-03T10:15:19.206Z</time>
      </trkpt>
      <trkpt lat="48.853" lon="1.918">
        <ele>97</ele>
        <time>2022-10-03T10:15:23.232Z</time>
      </trkpt>
      <trkpt lat="48.85304" lon="1.91804">
        <ele>97</ele>
        <time>2022-10-03T10:15:28.225Z</time>
      </trkpt>
      <trkpt lat="48.85309" lon="1.9181">
        <ele>97</ele>
        <time>2022-10-03T10:15:33.223Z</time>
      </trkpt>
      <trkpt lat="48.85311" lon="1.91813">
        <ele>97</ele>
        <time>2022-10-03T10:15:37.249Z</time>
      </trkpt>
      <trkpt lat="48.85317" lon="1.91814">
        <ele>97</ele>
        <time>2022-10-03T10:15:42.231Z</time>
      </trkpt>
      <trkpt lat="48.85323" lon="1.91812">
        <ele>102</ele>
        <time>2022-10-03T10:15:47.225Z</time>
      </trkpt>
      <trkpt lat="48.85327" lon="1.91814">
        <ele>102</ele>
        <time>2022-10-03T10:15:51.253Z</time>
      </trkpt>
      <trkpt lat="48.85333" lon="1.91816">
        <ele>102</ele>
        <time>2022-10-03T10:15:56.242Z</time>
      </trkpt>
      <trkpt lat="48.85339" lon="1.91818">
        <ele>102</ele>
        <time>2022-10-03T10:16:01.216Z</time>
      </trkpt>
      <trkpt lat="48.85344" lon="1.91819">
        <ele>102</ele>
        <time>2022-10-03T10:16:05.224Z</time>
      </trkpt>
      <trkpt lat="48.85349" lon="1.9182">
        <ele>106</ele>
        <time>2022-10-03T10:16:09.250Z</time>
      </trkpt>
      <trkpt lat="48.85356" lon="1.91822">
        <ele>106</ele>
        <time>2022-10-03T10:16:14.211Z</time>
      </trkpt>
      <trkpt lat="48.85361" lon="1.91823">
        <ele>106</ele>
        <time>2022-10-03T10:16:18.230Z</time>
      </trkpt>
      <trkpt lat="48.85367" lon="1.91826">
        <ele>106</ele>
        <time>2022-10-03T10:16:23.211Z</time>
      </trkpt>
      <trkpt lat="48.85371" lon="1.91827">
        <ele>106</ele>
        <time>2022-10-03T10:16:27.218Z</time>
      </trkpt>
      <trkpt lat="48.85375" lon="1.91831">
        <ele>105</ele>
        <time>2022-10-03T10:16:31.220Z</time>
      </trkpt>
      <trkpt lat="48.85382" lon="1.91828">
        <ele>105</ele>
        <time>2022-10-03T10:16:35.224Z</time>
      </trkpt>
      <trkpt lat="48.85388" lon="1.91828">
        <ele>105</ele>
        <time>2022-10-03T10:16:40.208Z</time>
      </trkpt>
      <trkpt lat="48.85393" lon="1.9183">
        <ele>105</ele>
        <time>2022-10-03T10:16:44.216Z</time>
      </trkpt>
      <trkpt lat="48.85399" lon="1.91834">
        <ele>105</ele>
        <time>2022-10-03T10:16:49.218Z</time>
      </trkpt>
      <trkpt lat="48.85404" lon="1.91837">
        <ele>105</ele>
        <time>2022-10-03T10:16:53.241Z</time>
      </trkpt>
      <trkpt lat="48.85409" lon="1.91838">
        <ele>105</ele>
        <time>2022-10-03T10:16:57.253Z</time>
      </trkpt>
      <trkpt lat="48.85412" lon="1.91841">
        <ele>105</ele>
        <time>2022-10-03T10:17:01.273Z</time>
      </trkpt>
      <trkpt lat="48.85416" lon="1.91845">
        <ele>105</ele>
        <time>2022-10-03T10:17:06.211Z</time>
      </trkpt>
      <trkpt lat="48.8542" lon="1.91846">
        <ele>105</ele>
        <time>2022-10-03T10:17:10.238Z</time>
      </trkpt>
      <trkpt lat="48.85424" lon="1.9185">
        <ele>105</ele>
        <time>2022-10-03T10:17:15.273Z</time>
      </trkpt>
      <trkpt lat="48.8543" lon="1.91855">
        <ele>105</ele>
        <time>2022-10-03T10:17:20.219Z</time>
      </trkpt>
      <trkpt lat="48.85435" lon="1.91859">
        <ele>105</ele>
        <time>2022-10-03T10:17:24.241Z</time>
      </trkpt>
      <trkpt lat="48.8544" lon="1.91864">
        <ele>105</ele>
        <time>2022-10-03T10:17:29.225Z</time>
      </trkpt>
      <trkpt lat="48.85444" lon="1.91867">
        <ele>105</ele>
        <time>2022-10-03T10:17:33.229Z</time>
      </trkpt>
      <trkpt lat="48.8545" lon="1.91872">
        <ele>105</ele>
        <time>2022-10-03T10:17:38.211Z</time>
      </trkpt>
      <trkpt lat="48.85453" lon="1.91875">
        <ele>105</ele>
        <time>2022-10-03T10:17:42.247Z</time>
      </trkpt>
      <trkpt lat="48.8546" lon="1.91879">
        <ele>107</ele>
        <time>2022-10-03T10:17:47.262Z</time>
      </trkpt>
      <trkpt lat="48.85466" lon="1.91883">
        <ele>107</ele>
        <time>2022-10-03T10:17:52.248Z</time>
      </trkpt>
      <trkpt lat="48.85473" lon="1.91888">
        <ele>107</ele>
        <time>2022-10-03T10:17:57.260Z</time>
      </trkpt>
      <trkpt lat="48.85478" lon="1.91891">
        <ele>107</ele>
        <time>2022-10-03T10:18:01.260Z</time>
      </trkpt>
      <trkpt lat="48.85483" lon="1.91893">
        <ele>107</ele>
        <time>2022-10-03T10:18:06.253Z</time>
      </trkpt>
      <trkpt lat="48.85488" lon="1.91898">
        <ele>108</ele>
        <time>2022-10-03T10:18:10.250Z</time>
      </trkpt>
      <trkpt lat="48.85494" lon="1.91904">
        <ele>109</ele>
        <time>2022-10-03T10:18:15.229Z</time>
      </trkpt>
      <trkpt lat="48.85499" lon="1.91907">
        <ele>109</ele>
        <time>2022-10-03T10:18:19.237Z</time>
      </trkpt>
      <trkpt lat="48.85506" lon="1.91912">
        <ele>109</ele>
        <time>2022-10-03T10:18:24.225Z</time>
      </trkpt>
      <trkpt lat="48.8551" lon="1.91916">
        <ele>109</ele>
        <time>2022-10-03T10:18:28.229Z</time>
      </trkpt>
      <trkpt lat="48.85516" lon="1.91921">
        <ele>109</ele>
        <time>2022-10-03T10:18:32.241Z</time>
      </trkpt>
      <trkpt lat="48.8552" lon="1.91924">
        <ele>109</ele>
        <time>2022-10-03T10:18:36.258Z</time>
      </trkpt>
      <trkpt lat="48.85525" lon="1.91928">
        <ele>109</ele>
        <time>2022-10-03T10:18:40.254Z</time>
      </trkpt>
      <trkpt lat="48.85531" lon="1.91934">
        <ele>109</ele>
        <time>2022-10-03T10:18:45.255Z</time>
      </trkpt>
      <trkpt lat="48.85537" lon="1.91938">
        <ele>109</ele>
        <time>2022-10-03T10:18:50.233Z</time>
      </trkpt>
      <trkpt lat="48.85541" lon="1.91941">
        <ele>109</ele>
        <time>2022-10-03T10:18:54.238Z</time>
      </trkpt>
      <trkpt lat="48.85547" lon="1.91945">
        <ele>110</ele>
        <time>2022-10-03T10:18:58.260Z</time>
      </trkpt>
      <trkpt lat="48.85552" lon="1.91947">
        <ele>110</ele>
        <time>2022-10-03T10:19:03.248Z</time>
      </trkpt>
      <trkpt lat="48.85559" lon="1.9195">
        <ele>110</ele>
        <time>2022-10-03T10:19:08.245Z</time>
      </trkpt>
      <trkpt lat="48.85566" lon="1.91954">
        <ele>110</ele>
        <time>2022-10-03T10:19:13.254Z</time>
      </trkpt>
      <trkpt lat="48.85572" lon="1.9196">
        <ele>112</ele>
        <time>2022-10-03T10:19:18.236Z</time>
      </trkpt>
      <trkpt lat="48.85579" lon="1.91963">
        <ele>112</ele>
        <time>2022-10-03T10:19:23.241Z</time>
      </trkpt>
      <trkpt lat="48.85584" lon="1.91966">
        <ele>112</ele>
        <time>2022-10-03T10:19:27.242Z</time>
      </trkpt>
      <trkpt lat="48.8559" lon="1.91969">
        <ele>112</ele>
        <time>2022-10-03T10:19:31.240Z</time>
      </trkpt>
      <trkpt lat="48.85594" lon="1.91971">
        <ele>112</ele>
        <time>2022-10-03T10:19:35.263Z</time>
      </trkpt>
      <trkpt lat="48.85601" lon="1.91974">
        <ele>112</ele>
        <time>2022-10-03T10:19:40.217Z</time>
      </trkpt>
      <trkpt lat="48.85607" lon="1.91977">
        <ele>112</ele>
        <time>2022-10-03T10:19:45.214Z</time>
      </trkpt>
      <trkpt lat="48.85612" lon="1.91981">
        <ele>112</ele>
        <time>2022-10-03T10:19:50.229Z</time>
      </trkpt>
      <trkpt lat="48.85619" lon="1.91984">
        <ele>112</ele>
        <time>2022-10-03T10:19:55.216Z</time>
      </trkpt>
      <trkpt lat="48.85623" lon="1.91988">
        <ele>113</ele>
        <time>2022-10-03T10:19:59.243Z</time>
      </trkpt>
      <trkpt lat="48.85628" lon="1.91992">
        <ele>112</ele>
        <time>2022-10-03T10:20:03.249Z</time>
      </trkpt>
      <trkpt lat="48.85634" lon="1.91995">
        <ele>112</ele>
        <time>2022-10-03T10:20:08.246Z</time>
      </trkpt>
      <trkpt lat="48.85641" lon="1.91999">
        <ele>112</ele>
        <time>2022-10-03T10:20:13.261Z</time>
      </trkpt>
      <trkpt lat="48.85646" lon="1.92004">
        <ele>112</ele>
        <time>2022-10-03T10:20:18.246Z</time>
      </trkpt>
      <trkpt lat="48.85654" lon="1.92008">
        <ele>112</ele>
        <time>2022-10-03T10:20:23.240Z</time>
      </trkpt>
      <trkpt lat="48.8566" lon="1.92013">
        <ele>112</ele>
        <time>2022-10-03T10:20:28.224Z</time>
      </trkpt>
      <trkpt lat="48.85665" lon="1.92017">
        <ele>112</ele>
        <time>2022-10-03T10:20:32.243Z</time>
      </trkpt>
      <trkpt lat="48.8567" lon="1.9202">
        <ele>112</ele>
        <time>2022-10-03T10:20:36.237Z</time>
      </trkpt>
      <trkpt lat="48.85675" lon="1.92024">
        <ele>112</ele>
        <time>2022-10-03T10:20:40.263Z</time>
      </trkpt>
      <trkpt lat="48.8568" lon="1.92027">
        <ele>112</ele>
        <time>2022-10-03T10:20:44.266Z</time>
      </trkpt>
      <trkpt lat="48.85685" lon="1.92032">
        <ele>113</ele>
        <time>2022-10-03T10:20:48.259Z</time>
      </trkpt>
      <trkpt lat="48.85689" lon="1.92038">
        <ele>113</ele>
        <time>2022-10-03T10:20:53.257Z</time>
      </trkpt>
      <trkpt lat="48.85694" lon="1.92044">
        <ele>113</ele>
        <time>2022-10-03T10:20:58.261Z</time>
      </trkpt>
      <trkpt lat="48.85699" lon="1.92049">
        <ele>113</ele>
        <time>2022-10-03T10:21:03.256Z</time>
      </trkpt>
      <trkpt lat="48.85705" lon="1.92054">
        <ele>113</ele>
        <time>2022-10-03T10:21:08.233Z</time>
      </trkpt>
      <trkpt lat="48.8571" lon="1.92057">
        <ele>114</ele>
        <time>2022-10-03T10:21:12.243Z</time>
      </trkpt>
      <trkpt lat="48.85714" lon="1.92061">
        <ele>114</ele>
        <time>2022-10-03T10:21:16.265Z</time>
      </trkpt>
      <trkpt lat="48.85719" lon="1.92067">
        <ele>114</ele>
        <time>2022-10-03T10:21:21.227Z</time>
      </trkpt>
      <trkpt lat="48.85723" lon="1.9207">
        <ele>114</ele>
        <time>2022-10-03T10:21:25.255Z</time>
      </trkpt>
      <trkpt lat="48.85728" lon="1.92076">
        <ele>114</ele>
        <time>2022-10-03T10:21:29.261Z</time>
      </trkpt>
      <trkpt lat="48.85734" lon="1.92079">
        <ele>114</ele>
        <time>2022-10-03T10:21:34.234Z</time>
      </trkpt>
      <trkpt lat="48.85739" lon="1.92084">
        <ele>115</ele>
        <time>2022-10-03T10:21:39.235Z</time>
      </trkpt>
      <trkpt lat="48.85744" lon="1.9209">
        <ele>115</ele>
        <time>2022-10-03T10:21:44.235Z</time>
      </trkpt>
      <trkpt lat="48.85749" lon="1.92096">
        <ele>115</ele>
        <time>2022-10-03T10:21:48.241Z</time>
      </trkpt>
      <trkpt lat="48.85755" lon="1.92102">
        <ele>116</ele>
        <time>2022-10-03T10:21:53.234Z</time>
      </trkpt>
      <trkpt lat="48.8576" lon="1.92104">
        <ele>116</ele>
        <time>2022-10-03T10:21:57.240Z</time>
      </trkpt>
      <trkpt lat="48.85764" lon="1.92107">
        <ele>116</ele>
        <time>2022-10-03T10:22:01.264Z</time>
      </trkpt>
      <trkpt lat="48.8577" lon="1.92112">
        <ele>116</ele>
        <time>2022-10-03T10:22:06.240Z</time>
      </trkpt>
      <trkpt lat="48.85775" lon="1.92118">
        <ele>116</ele>
        <time>2022-10-03T10:22:11.249Z</time>
      </trkpt>
      <trkpt lat="48.8578" lon="1.92124">
        <ele>116</ele>
        <time>2022-10-03T10:22:16.232Z</time>
      </trkpt>
      <trkpt lat="48.85786" lon="1.9213">
        <ele>116</ele>
        <time>2022-10-03T10:22:21.250Z</time>
      </trkpt>
      <trkpt lat="48.85792" lon="1.92134">
        <ele>116</ele>
        <time>2022-10-03T10:22:26.245Z</time>
      </trkpt>
      <trkpt lat="48.85798" lon="1.92138">
        <ele>116</ele>
        <time>2022-10-03T10:22:31.213Z</time>
      </trkpt>
      <trkpt lat="48.85803" lon="1.92143">
        <ele>116</ele>
        <time>2022-10-03T10:22:36.224Z</time>
      </trkpt>
      <trkpt lat="48.85808" lon="1.92148">
        <ele>116</ele>
        <time>2022-10-03T10:22:40.240Z</time>
      </trkpt>
      <trkpt lat="48.85814" lon="1.92155">
        <ele>116</ele>
        <time>2022-10-03T10:22:45.233Z</time>
      </trkpt>
      <trkpt lat="48.85819" lon="1.9216">
        <ele>116</ele>
        <time>2022-10-03T10:22:49.230Z</time>
      </trkpt>
      <trkpt lat="48.85824" lon="1.92167">
        <ele>116</ele>
        <time>2022-10-03T10:22:54.233Z</time>
      </trkpt>
      <trkpt lat="48.85827" lon="1.92172">
        <ele>116</ele>
        <time>2022-10-03T10:22:58.248Z</time>
      </trkpt>
      <trkpt lat="48.85832" lon="1.92178">
        <ele>116</ele>
        <time>2022-10-03T10:23:03.254Z</time>
      </trkpt>
      <trkpt lat="48.85837" lon="1.92182">
        <ele>116</ele>
        <time>2022-10-03T10:23:08.245Z</time>
      </trkpt>
      <trkpt lat="48.85842" lon="1.92184">
        <ele>116</ele>
        <time>2022-10-03T10:23:13.230Z</time>
      </trkpt>
      <trkpt lat="48.85847" lon="1.92189">
        <ele>116</ele>
        <time>2022-10-03T10:23:18.229Z</time>
      </trkpt>
      <trkpt lat="48.85852" lon="1.92195">
        <ele>118</ele>
        <time>2022-10-03T10:23:23.231Z</time>
      </trkpt>
      <trkpt lat="48.85856" lon="1.92198">
        <ele>118</ele>
        <time>2022-10-03T10:23:27.245Z</time>
      </trkpt>
      <trkpt lat="48.8586" lon="1.92202">
        <ele>118</ele>
        <time>2022-10-03T10:23:31.255Z</time>
      </trkpt>
      <trkpt lat="48.85864" lon="1.92207">
        <ele>118</ele>
        <time>2022-10-03T10:23:35.256Z</time>
      </trkpt>
      <trkpt lat="48.8587" lon="1.92213">
        <ele>118</ele>
        <time>2022-10-03T10:23:40.256Z</time>
      </trkpt>
      <trkpt lat="48.85875" lon="1.92217">
        <ele>118</ele>
        <time>2022-10-03T10:23:45.251Z</time>
      </trkpt>
      <trkpt lat="48.85879" lon="1.92222">
        <ele>118</ele>
        <time>2022-10-03T10:23:49.256Z</time>
      </trkpt>
      <trkpt lat="48.85884" lon="1.92227">
        <ele>118</ele>
        <time>2022-10-03T10:23:54.246Z</time>
      </trkpt>
      <trkpt lat="48.85889" lon="1.92231">
        <ele>118</ele>
        <time>2022-10-03T10:23:58.268Z</time>
      </trkpt>
      <trkpt lat="48.85894" lon="1.92237">
        <ele>118</ele>
        <time>2022-10-03T10:24:03.247Z</time>
      </trkpt>
      <trkpt lat="48.85898" lon="1.92241">
        <ele>118</ele>
        <time>2022-10-03T10:24:07.265Z</time>
      </trkpt>
      <trkpt lat="48.85902" lon="1.92245">
        <ele>118</ele>
        <time>2022-10-03T10:24:12.241Z</time>
      </trkpt>
      <trkpt lat="48.85907" lon="1.92249">
        <ele>117</ele>
        <time>2022-10-03T10:24:16.256Z</time>
      </trkpt>
      <trkpt lat="48.85912" lon="1.92254">
        <ele>117</ele>
        <time>2022-10-03T10:24:21.266Z</time>
      </trkpt>
      <trkpt lat="48.85917" lon="1.92259">
        <ele>117</ele>
        <time>2022-10-03T10:24:26.237Z</time>
      </trkpt>
      <trkpt lat="48.85922" lon="1.92263">
        <ele>117</ele>
        <time>2022-10-03T10:24:30.244Z</time>
      </trkpt>
      <trkpt lat="48.85926" lon="1.92266">
        <ele>118</ele>
        <time>2022-10-03T10:24:34.248Z</time>
      </trkpt>
      <trkpt lat="48.85931" lon="1.92273">
        <ele>118</ele>
        <time>2022-10-03T10:24:39.222Z</time>
      </trkpt>
      <trkpt lat="48.85935" lon="1.92278">
        <ele>118</ele>
        <time>2022-10-03T10:24:43.249Z</time>
      </trkpt>
      <trkpt lat="48.85939" lon="1.92283">
        <ele>118</ele>
        <time>2022-10-03T10:24:47.254Z</time>
      </trkpt>
      <trkpt lat="48.85944" lon="1.92285">
        <ele>118</ele>
        <time>2022-10-03T10:24:51.271Z</time>
      </trkpt>
      <trkpt lat="48.8595" lon="1.9229">
        <ele>118</ele>
        <time>2022-10-03T10:24:56.228Z</time>
      </trkpt>
      <trkpt lat="48.85955" lon="1.92296">
        <ele>119</ele>
        <time>2022-10-03T10:25:00.238Z</time>
      </trkpt>
      <trkpt lat="48.85959" lon="1.92301">
        <ele>119</ele>
        <time>2022-10-03T10:25:04.234Z</time>
      </trkpt>
      <trkpt lat="48.85964" lon="1.92306">
        <ele>119</ele>
        <time>2022-10-03T10:25:09.240Z</time>
      </trkpt>
      <trkpt lat="48.85968" lon="1.9231">
        <ele>119</ele>
        <time>2022-10-03T10:25:13.249Z</time>
      </trkpt>
      <trkpt lat="48.85972" lon="1.92316">
        <ele>119</ele>
        <time>2022-10-03T10:25:17.251Z</time>
      </trkpt>
      <trkpt lat="48.85977" lon="1.92319">
        <ele>119</ele>
        <time>2022-10-03T10:25:21.253Z</time>
      </trkpt>
      <trkpt lat="48.85983" lon="1.92323">
        <ele>120</ele>
        <time>2022-10-03T10:25:26.244Z</time>
      </trkpt>
      <trkpt lat="48.85989" lon="1.9233">
        <ele>121</ele>
        <time>2022-10-03T10:25:31.321Z</time>
      </trkpt>
      <trkpt lat="48.85993" lon="1.92335">
        <ele>121</ele>
        <time>2022-10-03T10:25:36.247Z</time>
      </trkpt>
      <trkpt lat="48.85999" lon="1.92341">
        <ele>121</ele>
        <time>2022-10-03T10:25:41.270Z</time>
      </trkpt>
      <trkpt lat="48.86006" lon="1.92346">
        <ele>121</ele>
        <time>2022-10-03T10:25:46.244Z</time>
      </trkpt>
      <trkpt lat="48.86011" lon="1.92349">
        <ele>121</ele>
        <time>2022-10-03T10:25:50.252Z</time>
      </trkpt>
      <trkpt lat="48.86014" lon="1.92351">
        <ele>121</ele>
        <time>2022-10-03T10:25:54.241Z</time>
      </trkpt>
      <trkpt lat="48.86017" lon="1.92353">
        <ele>121</ele>
        <time>2022-10-03T10:25:59.247Z</time>
      </trkpt>
      <trkpt lat="48.86021" lon="1.92357">
        <ele>121</ele>
        <time>2022-10-03T10:26:04.230Z</time>
      </trkpt>
      <trkpt lat="48.86023" lon="1.92361">
        <ele>121</ele>
        <time>2022-10-03T10:26:08.234Z</time>
      </trkpt>
      <trkpt lat="48.86026" lon="1.92365">
        <ele>121</ele>
        <time>2022-10-03T10:26:12.243Z</time>
      </trkpt>
      <trkpt lat="48.86031" lon="1.9237">
        <ele>121</ele>
        <time>2022-10-03T10:26:17.244Z</time>
      </trkpt>
      <trkpt lat="48.86036" lon="1.92374">
        <ele>121</ele>
        <time>2022-10-03T10:26:21.251Z</time>
      </trkpt>
      <trkpt lat="48.86042" lon="1.92378">
        <ele>121</ele>
        <time>2022-10-03T10:26:26.247Z</time>
      </trkpt>
      <trkpt lat="48.86047" lon="1.92385">
        <ele>121</ele>
        <time>2022-10-03T10:26:31.247Z</time>
      </trkpt>
      <trkpt lat="48.86053" lon="1.9239">
        <ele>121</ele>
        <time>2022-10-03T10:26:36.238Z</time>
      </trkpt>
      <trkpt lat="48.86059" lon="1.92396">
        <ele>121</ele>
        <time>2022-10-03T10:26:41.232Z</time>
      </trkpt>
      <trkpt lat="48.86063" lon="1.92402">
        <ele>121</ele>
        <time>2022-10-03T10:26:45.246Z</time>
      </trkpt>
      <trkpt lat="48.86067" lon="1.92407">
        <ele>120</ele>
        <time>2022-10-03T10:26:49.255Z</time>
      </trkpt>
      <trkpt lat="48.86072" lon="1.92411">
        <ele>120</ele>
        <time>2022-10-03T10:26:54.252Z</time>
      </trkpt>
      <trkpt lat="48.86078" lon="1.92414">
        <ele>120</ele>
        <time>2022-10-03T10:26:59.234Z</time>
      </trkpt>
      <trkpt lat="48.86083" lon="1.9242">
        <ele>120</ele>
        <time>2022-10-03T10:27:04.236Z</time>
      </trkpt>
      <trkpt lat="48.86088" lon="1.92424">
        <ele>120</ele>
        <time>2022-10-03T10:27:08.236Z</time>
      </trkpt>
      <trkpt lat="48.86095" lon="1.92429">
        <ele>120</ele>
        <time>2022-10-03T10:27:13.239Z</time>
      </trkpt>
      <trkpt lat="48.86099" lon="1.92434">
        <ele>121</ele>
        <time>2022-10-03T10:27:17.254Z</time>
      </trkpt>
      <trkpt lat="48.86104" lon="1.9244">
        <ele>121</ele>
        <time>2022-10-03T10:27:22.242Z</time>
      </trkpt>
      <trkpt lat="48.8611" lon="1.92444">
        <ele>121</ele>
        <time>2022-10-03T10:27:27.254Z</time>
      </trkpt>
      <trkpt lat="48.86114" lon="1.92449">
        <ele>121</ele>
        <time>2022-10-03T10:27:31.264Z</time>
      </trkpt>
      <trkpt lat="48.86121" lon="1.92456">
        <ele>121</ele>
        <time>2022-10-03T10:27:36.246Z</time>
      </trkpt>
      <trkpt lat="48.86126" lon="1.9246">
        <ele>122</ele>
        <time>2022-10-03T10:27:40.255Z</time>
      </trkpt>
      <trkpt lat="48.86131" lon="1.92465">
        <ele>122</ele>
        <time>2022-10-03T10:27:45.238Z</time>
      </trkpt>
      <trkpt lat="48.86135" lon="1.92469">
        <ele>122</ele>
        <time>2022-10-03T10:27:49.260Z</time>
      </trkpt>
      <trkpt lat="48.86139" lon="1.92474">
        <ele>122</ele>
        <time>2022-10-03T10:27:53.269Z</time>
      </trkpt>
      <trkpt lat="48.86144" lon="1.9248">
        <ele>122</ele>
        <time>2022-10-03T10:27:58.255Z</time>
      </trkpt>
      <trkpt lat="48.86149" lon="1.92484">
        <ele>122</ele>
        <time>2022-10-03T10:28:02.262Z</time>
      </trkpt>
      <trkpt lat="48.86155" lon="1.9249">
        <ele>123</ele>
        <time>2022-10-03T10:28:07.257Z</time>
      </trkpt>
      <trkpt lat="48.8616" lon="1.92495">
        <ele>123</ele>
        <time>2022-10-03T10:28:12.244Z</time>
      </trkpt>
      <trkpt lat="48.86166" lon="1.925">
        <ele>123</ele>
        <time>2022-10-03T10:28:17.236Z</time>
      </trkpt>
      <trkpt lat="48.8617" lon="1.92503">
        <ele>123</ele>
        <time>2022-10-03T10:28:21.249Z</time>
      </trkpt>
      <trkpt lat="48.86176" lon="1.92508">
        <ele>123</ele>
        <time>2022-10-03T10:28:26.239Z</time>
      </trkpt>
      <trkpt lat="48.86183" lon="1.92513">
        <ele>123</ele>
        <time>2022-10-03T10:28:31.240Z</time>
      </trkpt>
      <trkpt lat="48.86188" lon="1.92517">
        <ele>122</ele>
        <time>2022-10-03T10:28:35.239Z</time>
      </trkpt>
      <trkpt lat="48.86194" lon="1.9252">
        <ele>122</ele>
        <time>2022-10-03T10:28:40.235Z</time>
      </trkpt>
      <trkpt lat="48.86199" lon="1.92527">
        <ele>122</ele>
        <time>2022-10-03T10:28:45.226Z</time>
      </trkpt>
      <trkpt lat="48.86202" lon="1.92532">
        <ele>122</ele>
        <time>2022-10-03T10:28:49.237Z</time>
      </trkpt>
      <trkpt lat="48.86206" lon="1.92539">
        <ele>122</ele>
        <time>2022-10-03T10:28:54.234Z</time>
      </trkpt>
      <trkpt lat="48.86212" lon="1.92546">
        <ele>122</ele>
        <time>2022-10-03T10:28:59.234Z</time>
      </trkpt>
      <trkpt lat="48.86216" lon="1.92551">
        <ele>122</ele>
        <time>2022-10-03T10:29:04.228Z</time>
      </trkpt>
      <trkpt lat="48.86221" lon="1.92554">
        <ele>122</ele>
        <time>2022-10-03T10:29:08.222Z</time>
      </trkpt>
      <trkpt lat="48.86226" lon="1.92558">
        <ele>122</ele>
        <time>2022-10-03T10:29:12.239Z</time>
      </trkpt>
      <trkpt lat="48.86231" lon="1.92562">
        <ele>122</ele>
        <time>2022-10-03T10:29:16.249Z</time>
      </trkpt>
      <trkpt lat="48.86235" lon="1.92567">
        <ele>122</ele>
        <time>2022-10-03T10:29:21.248Z</time>
      </trkpt>
      <trkpt lat="48.86242" lon="1.92572">
        <ele>124</ele>
        <time>2022-10-03T10:29:26.233Z</time>
      </trkpt>
      <trkpt lat="48.86247" lon="1.92578">
        <ele>124</ele>
        <time>2022-10-03T10:29:30.234Z</time>
      </trkpt>
      <trkpt lat="48.86252" lon="1.92584">
        <ele>124</ele>
        <time>2022-10-03T10:29:35.248Z</time>
      </trkpt>
      <trkpt lat="48.86257" lon="1.9259">
        <ele>124</ele>
        <time>2022-10-03T10:29:40.245Z</time>
      </trkpt>
      <trkpt lat="48.86262" lon="1.92596">
        <ele>124</ele>
        <time>2022-10-03T10:29:45.244Z</time>
      </trkpt>
      <trkpt lat="48.86267" lon="1.92601">
        <ele>125</ele>
        <time>2022-10-03T10:29:49.266Z</time>
      </trkpt>
      <trkpt lat="48.86273" lon="1.92605">
        <ele>125</ele>
        <time>2022-10-03T10:29:54.241Z</time>
      </trkpt>
      <trkpt lat="48.86279" lon="1.92611">
        <ele>125</ele>
        <time>2022-10-03T10:29:59.243Z</time>
      </trkpt>
      <trkpt lat="48.86285" lon="1.92615">
        <ele>125</ele>
        <time>2022-10-03T10:30:04.244Z</time>
      </trkpt>
      <trkpt lat="48.8629" lon="1.9262">
        <ele>125</ele>
        <time>2022-10-03T10:30:09.235Z</time>
      </trkpt>
      <trkpt lat="48.86294" lon="1.92622">
        <ele>125</ele>
        <time>2022-10-03T10:30:13.247Z</time>
      </trkpt>
      <trkpt lat="48.86296" lon="1.92626">
        <ele>125</ele>
        <time>2022-10-03T10:30:18.241Z</time>
      </trkpt>
      <trkpt lat="48.86301" lon="1.92634">
        <ele>125</ele>
        <time>2022-10-03T10:30:36.252Z</time>
      </trkpt>
      <trkpt lat="48.86304" lon="1.92633">
        <ele>125</ele>
        <time>2022-10-03T10:30:41.208Z</time>
      </trkpt>
      <trkpt lat="48.86305" lon="1.92634">
        <ele>125</ele>
        <time>2022-10-03T10:30:45.238Z</time>
      </trkpt>
      <trkpt lat="48.86305" lon="1.92634">
        <ele>125</ele>
        <time>2022-10-03T10:30:50.229Z</time>
      </trkpt>
      <trkpt lat="48.86306" lon="1.92633">
        <ele>125</ele>
        <time>2022-10-03T10:30:55.234Z</time>
      </trkpt>
      <trkpt lat="48.86306" lon="1.92632">
        <ele>125</ele>
        <time>2022-10-03T10:32:32.254Z</time>
      </trkpt>
      <trkpt lat="48.8631" lon="1.92635">
        <ele>125</ele>
        <time>2022-10-03T10:32:37.251Z</time>
      </trkpt>
      <trkpt lat="48.86314" lon="1.9264">
        <ele>125</ele>
        <time>2022-10-03T10:32:41.265Z</time>
      </trkpt>
      <trkpt lat="48.86317" lon="1.92645">
        <ele>125</ele>
        <time>2022-10-03T10:32:46.239Z</time>
      </trkpt>
      <trkpt lat="48.86321" lon="1.92649">
        <ele>124</ele>
        <time>2022-10-03T10:32:50.245Z</time>
      </trkpt>
      <trkpt lat="48.86324" lon="1.92653">
        <ele>124</ele>
        <time>2022-10-03T10:32:54.249Z</time>
      </trkpt>
      <trkpt lat="48.86329" lon="1.92658">
        <ele>124</ele>
        <time>2022-10-03T10:32:58.258Z</time>
      </trkpt>
      <trkpt lat="48.86334" lon="1.92663">
        <ele>124</ele>
        <time>2022-10-03T10:33:03.252Z</time>
      </trkpt>
      <trkpt lat="48.86338" lon="1.92667">
        <ele>124</ele>
        <time>2022-10-03T10:33:07.245Z</time>
      </trkpt>
      <trkpt lat="48.86343" lon="1.9267">
        <ele>124</ele>
        <time>2022-10-03T10:33:11.264Z</time>
      </trkpt>
      <trkpt lat="48.86349" lon="1.92676">
        <ele>123</ele>
        <time>2022-10-03T10:33:16.226Z</time>
      </trkpt>
      <trkpt lat="48.86353" lon="1.92679">
        <ele>123</ele>
        <time>2022-10-03T10:33:20.245Z</time>
      </trkpt>
      <trkpt lat="48.8636" lon="1.92688">
        <ele>123</ele>
        <time>2022-10-03T10:33:25.250Z</time>
      </trkpt>
      <trkpt lat="48.86367" lon="1.92694">
        <ele>123</ele>
        <time>2022-10-03T10:33:30.235Z</time>
      </trkpt>
      <trkpt lat="48.86373" lon="1.92699">
        <ele>123</ele>
        <time>2022-10-03T10:33:35.255Z</time>
      </trkpt>
      <trkpt lat="48.86378" lon="1.92705">
        <ele>123</ele>
        <time>2022-10-03T10:33:40.257Z</time>
      </trkpt>
      <trkpt lat="48.86383" lon="1.9271">
        <ele>123</ele>
        <time>2022-10-03T10:33:44.265Z</time>
      </trkpt>
      <trkpt lat="48.86389" lon="1.92715">
        <ele>123</ele>
        <time>2022-10-03T10:33:49.261Z</time>
      </trkpt>
      <trkpt lat="48.86394" lon="1.92719">
        <ele>123</ele>
        <time>2022-10-03T10:33:53.281Z</time>
      </trkpt>
      <trkpt lat="48.864" lon="1.92724">
        <ele>123</ele>
        <time>2022-10-03T10:33:58.259Z</time>
      </trkpt>
      <trkpt lat="48.86406" lon="1.92728">
        <ele>123</ele>
        <time>2022-10-03T10:34:03.232Z</time>
      </trkpt>
      <trkpt lat="48.86411" lon="1.92733">
        <ele>123</ele>
        <time>2022-10-03T10:34:07.267Z</time>
      </trkpt>
      <trkpt lat="48.86418" lon="1.92736">
        <ele>123</ele>
        <time>2022-10-03T10:34:12.244Z</time>
      </trkpt>
      <trkpt lat="48.86424" lon="1.92739">
        <ele>123</ele>
        <time>2022-10-03T10:34:16.258Z</time>
      </trkpt>
      <trkpt lat="48.86431" lon="1.92743">
        <ele>124</ele>
        <time>2022-10-03T10:34:21.241Z</time>
      </trkpt>
      <trkpt lat="48.86435" lon="1.92747">
        <ele>124</ele>
        <time>2022-10-03T10:34:25.253Z</time>
      </trkpt>
      <trkpt lat="48.86443" lon="1.9275">
        <ele>124</ele>
        <time>2022-10-03T10:34:30.241Z</time>
      </trkpt>
      <trkpt lat="48.86449" lon="1.92752">
        <ele>124</ele>
        <time>2022-10-03T10:34:34.248Z</time>
      </trkpt>
      <trkpt lat="48.86455" lon="1.92755">
        <ele>124</ele>
        <time>2022-10-03T10:34:39.257Z</time>
      </trkpt>
      <trkpt lat="48.86461" lon="1.92759">
        <ele>123</ele>
        <time>2022-10-03T10:34:44.244Z</time>
      </trkpt>
      <trkpt lat="48.86468" lon="1.92764">
        <ele>123</ele>
        <time>2022-10-03T10:34:49.235Z</time>
      </trkpt>
      <trkpt lat="48.86474" lon="1.92767">
        <ele>123</ele>
        <time>2022-10-03T10:34:53.251Z</time>
      </trkpt>
      <trkpt lat="48.86479" lon="1.9277">
        <ele>123</ele>
        <time>2022-10-03T10:34:58.253Z</time>
      </trkpt>
      <trkpt lat="48.86485" lon="1.92773">
        <ele>123</ele>
        <time>2022-10-03T10:35:03.274Z</time>
      </trkpt>
      <trkpt lat="48.86493" lon="1.92776">
        <ele>122</ele>
        <time>2022-10-03T10:35:08.255Z</time>
      </trkpt>
      <trkpt lat="48.865" lon="1.9278">
        <ele>122</ele>
        <time>2022-10-03T10:35:13.255Z</time>
      </trkpt>
      <trkpt lat="48.86509" lon="1.92783">
        <ele>122</ele>
        <time>2022-10-03T10:35:18.236Z</time>
      </trkpt>
      <trkpt lat="48.86517" lon="1.92786">
        <ele>122</ele>
        <time>2022-10-03T10:35:23.249Z</time>
      </trkpt>
      <trkpt lat="48.86522" lon="1.92789">
        <ele>122</ele>
        <time>2022-10-03T10:35:28.254Z</time>
      </trkpt>
      <trkpt lat="48.86527" lon="1.92795">
        <ele>122</ele>
        <time>2022-10-03T10:35:32.256Z</time>
      </trkpt>
      <trkpt lat="48.86534" lon="1.92799">
        <ele>122</ele>
        <time>2022-10-03T10:35:37.254Z</time>
      </trkpt>
      <trkpt lat="48.86542" lon="1.92801">
        <ele>120</ele>
        <time>2022-10-03T10:35:42.240Z</time>
      </trkpt>
      <trkpt lat="48.86547" lon="1.92805">
        <ele>120</ele>
        <time>2022-10-03T10:35:46.257Z</time>
      </trkpt>
      <trkpt lat="48.86554" lon="1.92809">
        <ele>120</ele>
        <time>2022-10-03T10:35:51.262Z</time>
      </trkpt>
      <trkpt lat="48.86561" lon="1.9281">
        <ele>120</ele>
        <time>2022-10-03T10:35:56.251Z</time>
      </trkpt>
      <trkpt lat="48.86568" lon="1.92814">
        <ele>120</ele>
        <time>2022-10-03T10:36:01.235Z</time>
      </trkpt>
      <trkpt lat="48.86574" lon="1.92818">
        <ele>118</ele>
        <time>2022-10-03T10:36:05.256Z</time>
      </trkpt>
      <trkpt lat="48.86579" lon="1.92821">
        <ele>119</ele>
        <time>2022-10-03T10:36:09.260Z</time>
      </trkpt>
      <trkpt lat="48.86586" lon="1.92823">
        <ele>119</ele>
        <time>2022-10-03T10:36:14.247Z</time>
      </trkpt>
      <trkpt lat="48.86592" lon="1.92825">
        <ele>119</ele>
        <time>2022-10-03T10:36:18.255Z</time>
      </trkpt>
      <trkpt lat="48.86599" lon="1.92827">
        <ele>118</ele>
        <time>2022-10-03T10:36:23.249Z</time>
      </trkpt>
      <trkpt lat="48.86607" lon="1.9283">
        <ele>118</ele>
        <time>2022-10-03T10:36:28.260Z</time>
      </trkpt>
      <trkpt lat="48.86614" lon="1.92835">
        <ele>118</ele>
        <time>2022-10-03T10:36:33.252Z</time>
      </trkpt>
      <trkpt lat="48.8662" lon="1.92838">
        <ele>118</ele>
        <time>2022-10-03T10:36:37.257Z</time>
      </trkpt>
      <trkpt lat="48.86625" lon="1.92841">
        <ele>117</ele>
        <time>2022-10-03T10:36:41.268Z</time>
      </trkpt>
      <trkpt lat="48.86632" lon="1.92844">
        <ele>117</ele>
        <time>2022-10-03T10:36:45.273Z</time>
      </trkpt>
      <trkpt lat="48.86638" lon="1.92847">
        <ele>117</ele>
        <time>2022-10-03T10:36:50.270Z</time>
      </trkpt>
      <trkpt lat="48.86645" lon="1.9285">
        <ele>118</ele>
        <time>2022-10-03T10:36:55.247Z</time>
      </trkpt>
      <trkpt lat="48.86651" lon="1.92853">
        <ele>118</ele>
        <time>2022-10-03T10:36:59.262Z</time>
      </trkpt>
      <trkpt lat="48.86658" lon="1.92857">
        <ele>117</ele>
        <time>2022-10-03T10:37:04.263Z</time>
      </trkpt>
      <trkpt lat="48.86664" lon="1.92859">
        <ele>117</ele>
        <time>2022-10-03T10:37:08.267Z</time>
      </trkpt>
      <trkpt lat="48.86671" lon="1.92863">
        <ele>117</ele>
        <time>2022-10-03T10:37:13.274Z</time>
      </trkpt>
      <trkpt lat="48.86678" lon="1.92868">
        <ele>117</ele>
        <time>2022-10-03T10:37:18.241Z</time>
      </trkpt>
      <trkpt lat="48.86683" lon="1.92872">
        <ele>115</ele>
        <time>2022-10-03T10:37:22.239Z</time>
      </trkpt>
      <trkpt lat="48.86688" lon="1.92874">
        <ele>115</ele>
        <time>2022-10-03T10:37:26.257Z</time>
      </trkpt>
      <trkpt lat="48.86695" lon="1.92877">
        <ele>115</ele>
        <time>2022-10-03T10:37:31.253Z</time>
      </trkpt>
      <trkpt lat="48.86701" lon="1.92879">
        <ele>115</ele>
        <time>2022-10-03T10:37:35.259Z</time>
      </trkpt>
      <trkpt lat="48.86708" lon="1.92883">
        <ele>115</ele>
        <time>2022-10-03T10:37:40.264Z</time>
      </trkpt>
      <trkpt lat="48.86714" lon="1.92887">
        <ele>114</ele>
        <time>2022-10-03T10:37:45.273Z</time>
      </trkpt>
      <trkpt lat="48.86721" lon="1.92891">
        <ele>114</ele>
        <time>2022-10-03T10:37:50.271Z</time>
      </trkpt>
      <trkpt lat="48.86727" lon="1.92895">
        <ele>114</ele>
        <time>2022-10-03T10:37:55.255Z</time>
      </trkpt>
      <trkpt lat="48.86734" lon="1.92898">
        <ele>114</ele>
        <time>2022-10-03T10:38:00.212Z</time>
      </trkpt>
      <trkpt lat="48.86738" lon="1.92903">
        <ele>114</ele>
        <time>2022-10-03T10:38:04.220Z</time>
      </trkpt>
      <trkpt lat="48.86745" lon="1.92906">
        <ele>114</ele>
        <time>2022-10-03T10:38:09.211Z</time>
      </trkpt>
      <trkpt lat="48.8675" lon="1.92908">
        <ele>114</ele>
        <time>2022-10-03T10:38:13.216Z</time>
      </trkpt>
      <trkpt lat="48.86756" lon="1.92911">
        <ele>114</ele>
        <time>2022-10-03T10:38:18.217Z</time>
      </trkpt>
      <trkpt lat="48.86761" lon="1.92915">
        <ele>114</ele>
        <time>2022-10-03T10:38:22.218Z</time>
      </trkpt>
      <trkpt lat="48.86768" lon="1.9292">
        <ele>111</ele>
        <time>2022-10-03T10:38:27.221Z</time>
      </trkpt>
      <trkpt lat="48.86773" lon="1.92925">
        <ele>111</ele>
        <time>2022-10-03T10:38:32.219Z</time>
      </trkpt>
      <trkpt lat="48.86779" lon="1.92933">
        <ele>111</ele>
        <time>2022-10-03T10:38:37.224Z</time>
      </trkpt>
      <trkpt lat="48.86785" lon="1.92936">
        <ele>111</ele>
        <time>2022-10-03T10:38:42.227Z</time>
      </trkpt>
      <trkpt lat="48.8679" lon="1.92941">
        <ele>111</ele>
        <time>2022-10-03T10:38:47.229Z</time>
      </trkpt>
      <trkpt lat="48.86795" lon="1.92944">
        <ele>108</ele>
        <time>2022-10-03T10:38:51.232Z</time>
      </trkpt>
      <trkpt lat="48.868" lon="1.92949">
        <ele>108</ele>
        <time>2022-10-03T10:38:56.232Z</time>
      </trkpt>
      <trkpt lat="48.86805" lon="1.92956">
        <ele>108</ele>
        <time>2022-10-03T10:39:01.224Z</time>
      </trkpt>
      <trkpt lat="48.8681" lon="1.92962">
        <ele>108</ele>
        <time>2022-10-03T10:39:06.214Z</time>
      </trkpt>
      <trkpt lat="48.86815" lon="1.92968">
        <ele>108</ele>
        <time>2022-10-03T10:39:11.223Z</time>
      </trkpt>
      <trkpt lat="48.8682" lon="1.92974">
        <ele>105</ele>
        <time>2022-10-03T10:39:16.223Z</time>
      </trkpt>
      <trkpt lat="48.86825" lon="1.92979">
        <ele>105</ele>
        <time>2022-10-03T10:39:21.218Z</time>
      </trkpt>
      <trkpt lat="48.86829" lon="1.92985">
        <ele>105</ele>
        <time>2022-10-03T10:39:26.220Z</time>
      </trkpt>
      <trkpt lat="48.86833" lon="1.92994">
        <ele>106</ele>
        <time>2022-10-03T10:39:31.228Z</time>
      </trkpt>
      <trkpt lat="48.86836" lon="1.93003">
        <ele>106</ele>
        <time>2022-10-03T10:39:36.222Z</time>
      </trkpt>
      <trkpt lat="48.86839" lon="1.9301">
        <ele>106</ele>
        <time>2022-10-03T10:39:40.220Z</time>
      </trkpt>
      <trkpt lat="48.86843" lon="1.93017">
        <ele>106</ele>
        <time>2022-10-03T10:39:45.220Z</time>
      </trkpt>
      <trkpt lat="48.86846" lon="1.93024">
        <ele>106</ele>
        <time>2022-10-03T10:39:49.225Z</time>
      </trkpt>
      <trkpt lat="48.86849" lon="1.93031">
        <ele>103</ele>
        <time>2022-10-03T10:39:54.224Z</time>
      </trkpt>
      <trkpt lat="48.86853" lon="1.93042">
        <ele>104</ele>
        <time>2022-10-03T10:39:59.225Z</time>
      </trkpt>
      <trkpt lat="48.86857" lon="1.9305">
        <ele>104</ele>
        <time>2022-10-03T10:40:04.217Z</time>
      </trkpt>
      <trkpt lat="48.8686" lon="1.93056">
        <ele>104</ele>
        <time>2022-10-03T10:40:08.225Z</time>
      </trkpt>
      <trkpt lat="48.86863" lon="1.93065">
        <ele>104</ele>
        <time>2022-10-03T10:40:13.212Z</time>
      </trkpt>
      <trkpt lat="48.86867" lon="1.93073">
        <ele>103</ele>
        <time>2022-10-03T10:40:17.220Z</time>
      </trkpt>
      <trkpt lat="48.86869" lon="1.93079">
        <ele>103</ele>
        <time>2022-10-03T10:40:21.237Z</time>
      </trkpt>
      <trkpt lat="48.86872" lon="1.93087">
        <ele>103</ele>
        <time>2022-10-03T10:40:26.211Z</time>
      </trkpt>
      <trkpt lat="48.86875" lon="1.93093">
        <ele>103</ele>
        <time>2022-10-03T10:40:30.241Z</time>
      </trkpt>
      <trkpt lat="48.86878" lon="1.93101">
        <ele>100</ele>
        <time>2022-10-03T10:40:35.212Z</time>
      </trkpt>
      <trkpt lat="48.86876" lon="1.93107">
        <ele>100</ele>
        <time>2022-10-03T10:40:39.232Z</time>
      </trkpt>
      <trkpt lat="48.86873" lon="1.93115">
        <ele>103</ele>
        <time>2022-10-03T10:40:44.238Z</time>
      </trkpt>
      <trkpt lat="48.86869" lon="1.93123">
        <ele>103</ele>
        <time>2022-10-03T10:40:49.231Z</time>
      </trkpt>
      <trkpt lat="48.86866" lon="1.93131">
        <ele>103</ele>
        <time>2022-10-03T10:40:54.244Z</time>
      </trkpt>
      <trkpt lat="48.86862" lon="1.9314">
        <ele>103</ele>
        <time>2022-10-03T10:40:59.242Z</time>
      </trkpt>
      <trkpt lat="48.86857" lon="1.93147">
        <ele>103</ele>
        <time>2022-10-03T10:41:04.241Z</time>
      </trkpt>
      <trkpt lat="48.86854" lon="1.93153">
        <ele>105</ele>
        <time>2022-10-03T10:41:08.247Z</time>
      </trkpt>
      <trkpt lat="48.8685" lon="1.93162">
        <ele>105</ele>
        <time>2022-10-03T10:41:13.241Z</time>
      </trkpt>
      <trkpt lat="48.86847" lon="1.93168">
        <ele>105</ele>
        <time>2022-10-03T10:41:17.249Z</time>
      </trkpt>
      <trkpt lat="48.86844" lon="1.93175">
        <ele>105</ele>
        <time>2022-10-03T10:41:21.254Z</time>
      </trkpt>
      <trkpt lat="48.8684" lon="1.93181">
        <ele>107</ele>
        <time>2022-10-03T10:41:25.269Z</time>
      </trkpt>
      <trkpt lat="48.86836" lon="1.93188">
        <ele>107</ele>
        <time>2022-10-03T10:41:30.249Z</time>
      </trkpt>
      <trkpt lat="48.86832" lon="1.93196">
        <ele>107</ele>
        <time>2022-10-03T10:41:35.266Z</time>
      </trkpt>
      <trkpt lat="48.86828" lon="1.93205">
        <ele>107</ele>
        <time>2022-10-03T10:41:40.268Z</time>
      </trkpt>
      <trkpt lat="48.86824" lon="1.93213">
        <ele>108</ele>
        <time>2022-10-03T10:41:45.254Z</time>
      </trkpt>
      <trkpt lat="48.8682" lon="1.9322">
        <ele>108</ele>
        <time>2022-10-03T10:41:49.254Z</time>
      </trkpt>
      <trkpt lat="48.86816" lon="1.93226">
        <ele>108</ele>
        <time>2022-10-03T10:41:53.262Z</time>
      </trkpt>
      <trkpt lat="48.86814" lon="1.93233">
        <ele>108</ele>
        <time>2022-10-03T10:41:57.272Z</time>
      </trkpt>
      <trkpt lat="48.8681" lon="1.93241">
        <ele>109</ele>
        <time>2022-10-03T10:42:02.259Z</time>
      </trkpt>
      <trkpt lat="48.86807" lon="1.93248">
        <ele>109</ele>
        <time>2022-10-03T10:42:06.269Z</time>
      </trkpt>
      <trkpt lat="48.86802" lon="1.93256">
        <ele>109</ele>
        <time>2022-10-03T10:42:11.270Z</time>
      </trkpt>
      <trkpt lat="48.86799" lon="1.93263">
        <ele>109</ele>
        <time>2022-10-03T10:42:16.252Z</time>
      </trkpt>
      <trkpt lat="48.86795" lon="1.93271">
        <ele>109</ele>
        <time>2022-10-03T10:42:21.240Z</time>
      </trkpt>
      <trkpt lat="48.86792" lon="1.93278">
        <ele>109</ele>
        <time>2022-10-03T10:42:25.253Z</time>
      </trkpt>
      <trkpt lat="48.86787" lon="1.93286">
        <ele>109</ele>
        <time>2022-10-03T10:42:30.233Z</time>
      </trkpt>
      <trkpt lat="48.86784" lon="1.93293">
        <ele>108</ele>
        <time>2022-10-03T10:42:34.271Z</time>
      </trkpt>
      <trkpt lat="48.8678" lon="1.93301">
        <ele>108</ele>
        <time>2022-10-03T10:42:39.256Z</time>
      </trkpt>
      <trkpt lat="48.86777" lon="1.93309">
        <ele>108</ele>
        <time>2022-10-03T10:42:44.224Z</time>
      </trkpt>
      <trkpt lat="48.86774" lon="1.93316">
        <ele>108</ele>
        <time>2022-10-03T10:42:48.237Z</time>
      </trkpt>
      <trkpt lat="48.86771" lon="1.93323">
        <ele>108</ele>
        <time>2022-10-03T10:42:52.243Z</time>
      </trkpt>
      <trkpt lat="48.86768" lon="1.93328">
        <ele>108</ele>
        <time>2022-10-03T10:42:56.247Z</time>
      </trkpt>
      <trkpt lat="48.86765" lon="1.93334">
        <ele>108</ele>
        <time>2022-10-03T10:43:00.257Z</time>
      </trkpt>
      <trkpt lat="48.8676" lon="1.93343">
        <ele>108</ele>
        <time>2022-10-03T10:43:05.263Z</time>
      </trkpt>
      <trkpt lat="48.86758" lon="1.93349">
        <ele>108</ele>
        <time>2022-10-03T10:43:09.279Z</time>
      </trkpt>
      <trkpt lat="48.86755" lon="1.93356">
        <ele>108</ele>
        <time>2022-10-03T10:43:14.255Z</time>
      </trkpt>
      <trkpt lat="48.86751" lon="1.93365">
        <ele>108</ele>
        <time>2022-10-03T10:43:19.249Z</time>
      </trkpt>
      <trkpt lat="48.86747" lon="1.93372">
        <ele>108</ele>
        <time>2022-10-03T10:43:23.268Z</time>
      </trkpt>
      <trkpt lat="48.86744" lon="1.9338">
        <ele>109</ele>
        <time>2022-10-03T10:43:28.267Z</time>
      </trkpt>
      <trkpt lat="48.8674" lon="1.93389">
        <ele>109</ele>
        <time>2022-10-03T10:43:33.248Z</time>
      </trkpt>
      <trkpt lat="48.86737" lon="1.93396">
        <ele>109</ele>
        <time>2022-10-03T10:43:37.261Z</time>
      </trkpt>
      <trkpt lat="48.86734" lon="1.93403">
        <ele>110</ele>
        <time>2022-10-03T10:43:41.259Z</time>
      </trkpt>
      <trkpt lat="48.8673" lon="1.93411">
        <ele>112</ele>
        <time>2022-10-03T10:43:46.255Z</time>
      </trkpt>
      <trkpt lat="48.86728" lon="1.93418">
        <ele>112</ele>
        <time>2022-10-03T10:43:50.267Z</time>
      </trkpt>
      <trkpt lat="48.86725" lon="1.93426">
        <ele>112</ele>
        <time>2022-10-03T10:43:55.213Z</time>
      </trkpt>
      <trkpt lat="48.86721" lon="1.93432">
        <ele>113</ele>
        <time>2022-10-03T10:43:59.254Z</time>
      </trkpt>
      <trkpt lat="48.86719" lon="1.93439">
        <ele>113</ele>
        <time>2022-10-03T10:44:03.259Z</time>
      </trkpt>
      <trkpt lat="48.86716" lon="1.93448">
        <ele>113</ele>
        <time>2022-10-03T10:44:08.260Z</time>
      </trkpt>
      <trkpt lat="48.86711" lon="1.93457">
        <ele>113</ele>
        <time>2022-10-03T10:44:13.264Z</time>
      </trkpt>
      <trkpt lat="48.86707" lon="1.93466">
        <ele>113</ele>
        <time>2022-10-03T10:44:18.216Z</time>
      </trkpt>
      <trkpt lat="48.86705" lon="1.93472">
        <ele>113</ele>
        <time>2022-10-03T10:44:22.236Z</time>
      </trkpt>
      <trkpt lat="48.86701" lon="1.93481">
        <ele>113</ele>
        <time>2022-10-03T10:44:27.232Z</time>
      </trkpt>
      <trkpt lat="48.86698" lon="1.93488">
        <ele>113</ele>
        <time>2022-10-03T10:44:32.237Z</time>
      </trkpt>
      <trkpt lat="48.86695" lon="1.93496">
        <ele>113</ele>
        <time>2022-10-03T10:44:37.234Z</time>
      </trkpt>
      <trkpt lat="48.86691" lon="1.93503">
        <ele>113</ele>
        <time>2022-10-03T10:44:42.225Z</time>
      </trkpt>
      <trkpt lat="48.86686" lon="1.93512">
        <ele>113</ele>
        <time>2022-10-03T10:44:47.229Z</time>
      </trkpt>
      <trkpt lat="48.86681" lon="1.93521">
        <ele>112</ele>
        <time>2022-10-03T10:44:52.227Z</time>
      </trkpt>
      <trkpt lat="48.86677" lon="1.9353">
        <ele>111</ele>
        <time>2022-10-03T10:44:57.213Z</time>
      </trkpt>
      <trkpt lat="48.86674" lon="1.93538">
        <ele>111</ele>
        <time>2022-10-03T10:45:02.214Z</time>
      </trkpt>
      <trkpt lat="48.86671" lon="1.93547">
        <ele>110</ele>
        <time>2022-10-03T10:45:07.221Z</time>
      </trkpt>
      <trkpt lat="48.8667" lon="1.93553">
        <ele>110</ele>
        <time>2022-10-03T10:45:11.241Z</time>
      </trkpt>
      <trkpt lat="48.86667" lon="1.93558">
        <ele>110</ele>
        <time>2022-10-03T10:45:16.234Z</time>
      </trkpt>
      <trkpt lat="48.86663" lon="1.93565">
        <ele>110</ele>
        <time>2022-10-03T10:45:21.225Z</time>
      </trkpt>
      <trkpt lat="48.8666" lon="1.93573">
        <ele>110</ele>
        <time>2022-10-03T10:45:26.220Z</time>
      </trkpt>
      <trkpt lat="48.86656" lon="1.93582">
        <ele>110</ele>
        <time>2022-10-03T10:45:31.235Z</time>
      </trkpt>
      <trkpt lat="48.86653" lon="1.9359">
        <ele>110</ele>
        <time>2022-10-03T10:45:36.215Z</time>
      </trkpt>
      <trkpt lat="48.8665" lon="1.93599">
        <ele>111</ele>
        <time>2022-10-03T10:45:41.230Z</time>
      </trkpt>
      <trkpt lat="48.86647" lon="1.93606">
        <ele>111</ele>
        <time>2022-10-03T10:45:45.229Z</time>
      </trkpt>
      <trkpt lat="48.86644" lon="1.93614">
        <ele>111</ele>
        <time>2022-10-03T10:45:50.220Z</time>
      </trkpt>
      <trkpt lat="48.86642" lon="1.93622">
        <ele>111</ele>
        <time>2022-10-03T10:45:54.227Z</time>
      </trkpt>
      <trkpt lat="48.86639" lon="1.93632">
        <ele>111</ele>
        <time>2022-10-03T10:45:59.214Z</time>
      </trkpt>
      <trkpt lat="48.86636" lon="1.93639">
        <ele>111</ele>
        <time>2022-10-03T10:46:03.219Z</time>
      </trkpt>
      <trkpt lat="48.86634" lon="1.93649">
        <ele>111</ele>
        <time>2022-10-03T10:46:08.237Z</time>
      </trkpt>
      <trkpt lat="48.86632" lon="1.93657">
        <ele>111</ele>
        <time>2022-10-03T10:46:12.239Z</time>
      </trkpt>
      <trkpt lat="48.86629" lon="1.93665">
        <ele>111</ele>
        <time>2022-10-03T10:46:16.251Z</time>
      </trkpt>
      <trkpt lat="48.86626" lon="1.93674">
        <ele>111</ele>
        <time>2022-10-03T10:46:21.254Z</time>
      </trkpt>
      <trkpt lat="48.86623" lon="1.93684">
        <ele>112</ele>
        <time>2022-10-03T10:46:26.244Z</time>
      </trkpt>
      <trkpt lat="48.8662" lon="1.93691">
        <ele>112</ele>
        <time>2022-10-03T10:46:30.261Z</time>
      </trkpt>
      <trkpt lat="48.86619" lon="1.93701">
        <ele>112</ele>
        <time>2022-10-03T10:46:35.237Z</time>
      </trkpt>
      <trkpt lat="48.86618" lon="1.93709">
        <ele>111</ele>
        <time>2022-10-03T10:46:39.255Z</time>
      </trkpt>
      <trkpt lat="48.86616" lon="1.93716">
        <ele>111</ele>
        <time>2022-10-03T10:46:43.262Z</time>
      </trkpt>
      <trkpt lat="48.86615" lon="1.93724">
        <ele>111</ele>
        <time>2022-10-03T10:46:48.239Z</time>
      </trkpt>
      <trkpt lat="48.86613" lon="1.93732">
        <ele>111</ele>
        <time>2022-10-03T10:46:52.260Z</time>
      </trkpt>
      <trkpt lat="48.86611" lon="1.93741">
        <ele>111</ele>
        <time>2022-10-03T10:46:57.219Z</time>
      </trkpt>
      <trkpt lat="48.8661" lon="1.93749">
        <ele>111</ele>
        <time>2022-10-03T10:47:01.258Z</time>
      </trkpt>
      <trkpt lat="48.86608" lon="1.93759">
        <ele>111</ele>
        <time>2022-10-03T10:47:06.259Z</time>
      </trkpt>
      <trkpt lat="48.86607" lon="1.93769">
        <ele>110</ele>
        <time>2022-10-03T10:47:11.237Z</time>
      </trkpt>
      <trkpt lat="48.86606" lon="1.93777">
        <ele>110</ele>
        <time>2022-10-03T10:47:15.252Z</time>
      </trkpt>
      <trkpt lat="48.86605" lon="1.93785">
        <ele>110</ele>
        <time>2022-10-03T10:47:19.254Z</time>
      </trkpt>
      <trkpt lat="48.86603" lon="1.93795">
        <ele>109</ele>
        <time>2022-10-03T10:47:24.253Z</time>
      </trkpt>
      <trkpt lat="48.86601" lon="1.93804">
        <ele>109</ele>
        <time>2022-10-03T10:47:28.256Z</time>
      </trkpt>
      <trkpt lat="48.86599" lon="1.93814">
        <ele>109</ele>
        <time>2022-10-03T10:47:33.241Z</time>
      </trkpt>
      <trkpt lat="48.86599" lon="1.93823">
        <ele>109</ele>
        <time>2022-10-03T10:47:38.249Z</time>
      </trkpt>
      <trkpt lat="48.86597" lon="1.93834">
        <ele>108</ele>
        <time>2022-10-03T10:47:43.246Z</time>
      </trkpt>
      <trkpt lat="48.86595" lon="1.93844">
        <ele>108</ele>
        <time>2022-10-03T10:47:48.224Z</time>
      </trkpt>
      <trkpt lat="48.86594" lon="1.93851">
        <ele>108</ele>
        <time>2022-10-03T10:47:52.246Z</time>
      </trkpt>
      <trkpt lat="48.86593" lon="1.93859">
        <ele>108</ele>
        <time>2022-10-03T10:47:56.259Z</time>
      </trkpt>
      <trkpt lat="48.86591" lon="1.93868">
        <ele>108</ele>
        <time>2022-10-03T10:48:01.244Z</time>
      </trkpt>
      <trkpt lat="48.8659" lon="1.93876">
        <ele>107</ele>
        <time>2022-10-03T10:48:05.251Z</time>
      </trkpt>
      <trkpt lat="48.86589" lon="1.93884">
        <ele>107</ele>
        <time>2022-10-03T10:48:09.263Z</time>
      </trkpt>
      <trkpt lat="48.86589" lon="1.93893">
        <ele>107</ele>
        <time>2022-10-03T10:48:14.253Z</time>
      </trkpt>
      <trkpt lat="48.86588" lon="1.93901">
        <ele>107</ele>
        <time>2022-10-03T10:48:18.259Z</time>
      </trkpt>
      <trkpt lat="48.86586" lon="1.93911">
        <ele>107</ele>
        <time>2022-10-03T10:48:23.262Z</time>
      </trkpt>
      <trkpt lat="48.86584" lon="1.93918">
        <ele>107</ele>
        <time>2022-10-03T10:48:27.275Z</time>
      </trkpt>
      <trkpt lat="48.86583" lon="1.93928">
        <ele>107</ele>
        <time>2022-10-03T10:48:32.262Z</time>
      </trkpt>
      <trkpt lat="48.86582" lon="1.93935">
        <ele>108</ele>
        <time>2022-10-03T10:48:36.272Z</time>
      </trkpt>
      <trkpt lat="48.8658" lon="1.93945">
        <ele>108</ele>
        <time>2022-10-03T10:48:41.264Z</time>
      </trkpt>
      <trkpt lat="48.86578" lon="1.93955">
        <ele>108</ele>
        <time>2022-10-03T10:48:46.262Z</time>
      </trkpt>
      <trkpt lat="48.86577" lon="1.93963">
        <ele>110</ele>
        <time>2022-10-03T10:48:50.273Z</time>
      </trkpt>
      <trkpt lat="48.86576" lon="1.93973">
        <ele>110</ele>
        <time>2022-10-03T10:48:55.258Z</time>
      </trkpt>
      <trkpt lat="48.86575" lon="1.93982">
        <ele>110</ele>
        <time>2022-10-03T10:48:59.275Z</time>
      </trkpt>
      <trkpt lat="48.86574" lon="1.93993">
        <ele>110</ele>
        <time>2022-10-03T10:49:04.277Z</time>
      </trkpt>
      <trkpt lat="48.86573" lon="1.94002">
        <ele>110</ele>
        <time>2022-10-03T10:49:09.291Z</time>
      </trkpt>
      <trkpt lat="48.86573" lon="1.9401">
        <ele>110</ele>
        <time>2022-10-03T10:49:14.260Z</time>
      </trkpt>
      <trkpt lat="48.86572" lon="1.94016">
        <ele>109</ele>
        <time>2022-10-03T10:49:18.270Z</time>
      </trkpt>
      <trkpt lat="48.86574" lon="1.94025">
        <ele>109</ele>
        <time>2022-10-03T10:49:23.250Z</time>
      </trkpt>
      <trkpt lat="48.86575" lon="1.94036">
        <ele>109</ele>
        <time>2022-10-03T10:49:28.246Z</time>
      </trkpt>
      <trkpt lat="48.86575" lon="1.94046">
        <ele>108</ele>
        <time>2022-10-03T10:49:32.240Z</time>
      </trkpt>
      <trkpt lat="48.86575" lon="1.94056">
        <ele>108</ele>
        <time>2022-10-03T10:49:37.264Z</time>
      </trkpt>
      <trkpt lat="48.86577" lon="1.94064">
        <ele>108</ele>
        <time>2022-10-03T10:49:41.272Z</time>
      </trkpt>
      <trkpt lat="48.86578" lon="1.94072">
        <ele>108</ele>
        <time>2022-10-03T10:49:46.255Z</time>
      </trkpt>
      <trkpt lat="48.86579" lon="1.94085">
        <ele>108</ele>
        <time>2022-10-03T10:49:51.262Z</time>
      </trkpt>
      <trkpt lat="48.8658" lon="1.94093">
        <ele>108</ele>
        <time>2022-10-03T10:49:55.275Z</time>
      </trkpt>
      <trkpt lat="48.86581" lon="1.94102">
        <ele>108</ele>
        <time>2022-10-03T10:49:59.291Z</time>
      </trkpt>
      <trkpt lat="48.86582" lon="1.94112">
        <ele>108</ele>
        <time>2022-10-03T10:50:04.231Z</time>
      </trkpt>
      <trkpt lat="48.86584" lon="1.94122">
        <ele>108</ele>
        <time>2022-10-03T10:50:09.252Z</time>
      </trkpt>
      <trkpt lat="48.86586" lon="1.94132">
        <ele>109</ele>
        <time>2022-10-03T10:50:14.220Z</time>
      </trkpt>
      <trkpt lat="48.86587" lon="1.94142">
        <ele>109</ele>
        <time>2022-10-03T10:50:19.225Z</time>
      </trkpt>
      <trkpt lat="48.86588" lon="1.94151">
        <ele>109</ele>
        <time>2022-10-03T10:50:24.216Z</time>
      </trkpt>
      <trkpt lat="48.86587" lon="1.94159">
        <ele>110</ele>
        <time>2022-10-03T10:50:29.223Z</time>
      </trkpt>
      <trkpt lat="48.8659" lon="1.94171">
        <ele>110</ele>
        <time>2022-10-03T10:50:34.221Z</time>
      </trkpt>
      <trkpt lat="48.86592" lon="1.94185">
        <ele>111</ele>
        <time>2022-10-03T10:50:39.220Z</time>
      </trkpt>
      <trkpt lat="48.86593" lon="1.94197">
        <ele>111</ele>
        <time>2022-10-03T10:50:44.223Z</time>
      </trkpt>
      <trkpt lat="48.86596" lon="1.94208">
        <ele>111</ele>
        <time>2022-10-03T10:50:49.226Z</time>
      </trkpt>
      <trkpt lat="48.86598" lon="1.94214">
        <ele>108</ele>
        <time>2022-10-03T10:50:54.218Z</time>
      </trkpt>
      <trkpt lat="48.86602" lon="1.9422">
        <ele>108</ele>
        <time>2022-10-03T10:50:59.212Z</time>
      </trkpt>
      <trkpt lat="48.86605" lon="1.94223">
        <ele>108</ele>
        <time>2022-10-03T10:51:03.228Z</time>
      </trkpt>
      <trkpt lat="48.8661" lon="1.9424">
        <ele>108</ele>
        <time>2022-10-03T10:51:27.223Z</time>
      </trkpt>
      <trkpt lat="48.8661" lon="1.94248">
        <ele>108</ele>
        <time>2022-10-03T10:51:32.213Z</time>
      </trkpt>
      <trkpt lat="48.86614" lon="1.94253">
        <ele>108</ele>
        <time>2022-10-03T10:51:36.213Z</time>
      </trkpt>
      <trkpt lat="48.86615" lon="1.9426">
        <ele>108</ele>
        <time>2022-10-03T10:51:41.213Z</time>
      </trkpt>
      <trkpt lat="48.86613" lon="1.94268">
        <ele>109</ele>
        <time>2022-10-03T10:51:45.240Z</time>
      </trkpt>
      <trkpt lat="48.86615" lon="1.94275">
        <ele>109</ele>
        <time>2022-10-03T10:51:50.228Z</time>
      </trkpt>
      <trkpt lat="48.8662" lon="1.94272">
        <ele>109</ele>
        <time>2022-10-03T10:51:55.218Z</time>
      </trkpt>
      <trkpt lat="48.86626" lon="1.94266">
        <ele>104</ele>
        <time>2022-10-03T10:52:00.212Z</time>
      </trkpt>
      <trkpt lat="48.86626" lon="1.94265">
        <ele>104</ele>
        <time>2022-10-03T10:52:04.214Z</time>
      </trkpt>
      <trkpt lat="48.86626" lon="1.94273">
        <ele>104</ele>
        <time>2022-10-03T10:52:44.238Z</time>
      </trkpt>
      <trkpt lat="48.86624" lon="1.94274">
        <ele>109</ele>
        <time>2022-10-03T10:52:48.267Z</time>
      </trkpt>
      <trkpt lat="48.8662" lon="1.94278">
        <ele>109</ele>
        <time>2022-10-03T10:52:53.252Z</time>
      </trkpt>
      <trkpt lat="48.86617" lon="1.94283">
        <ele>109</ele>
        <time>2022-10-03T10:52:57.244Z</time>
      </trkpt>
      <trkpt lat="48.86615" lon="1.94289">
        <ele>109</ele>
        <time>2022-10-03T10:53:01.251Z</time>
      </trkpt>
      <trkpt lat="48.86613" lon="1.94296">
        <ele>110</ele>
        <time>2022-10-03T10:53:06.239Z</time>
      </trkpt>
      <trkpt lat="48.86611" lon="1.94302">
        <ele>110</ele>
        <time>2022-10-03T10:53:11.226Z</time>
      </trkpt>
      <trkpt lat="48.86611" lon="1.9431">
        <ele>110</ele>
        <time>2022-10-03T10:53:15.254Z</time>
      </trkpt>
      <trkpt lat="48.8661" lon="1.94316">
        <ele>110</ele>
        <time>2022-10-03T10:53:19.274Z</time>
      </trkpt>
      <trkpt lat="48.8661" lon="1.94323">
        <ele>109</ele>
        <time>2022-10-03T10:53:24.209Z</time>
      </trkpt>
      <trkpt lat="48.86611" lon="1.94326">
        <ele>109</ele>
        <time>2022-10-03T10:53:28.210Z</time>
      </trkpt>
      <trkpt lat="48.86612" lon="1.94335">
        <ele>109</ele>
        <time>2022-10-03T10:53:33.214Z</time>
      </trkpt>
      <trkpt lat="48.86611" lon="1.94342">
        <ele>109</ele>
        <time>2022-10-03T10:53:37.223Z</time>
      </trkpt>
      <trkpt lat="48.86611" lon="1.94349">
        <ele>108</ele>
        <time>2022-10-03T10:53:46.221Z</time>
      </trkpt>
      <trkpt lat="48.86611" lon="1.94349">
        <ele>108</ele>
        <time>2022-10-03T10:53:51.216Z</time>
      </trkpt>
      <trkpt lat="48.8661" lon="1.94351">
        <ele>108</ele>
        <time>2022-10-03T10:53:56.211Z</time>
      </trkpt>
      <trkpt lat="48.8661" lon="1.94352">
        <ele>108</ele>
        <time>2022-10-03T10:54:00.233Z</time>
      </trkpt>
      <trkpt lat="48.86608" lon="1.94365">
        <ele>108</ele>
        <time>2022-10-03T10:54:05.230Z</time>
      </trkpt>
      <trkpt lat="48.8661" lon="1.94376">
        <ele>106</ele>
        <time>2022-10-03T10:54:10.234Z</time>
      </trkpt>
      <trkpt lat="48.86611" lon="1.94381">
        <ele>106</ele>
        <time>2022-10-03T10:54:14.245Z</time>
      </trkpt>
      <trkpt lat="48.86611" lon="1.94392">
        <ele>106</ele>
        <time>2022-10-03T10:54:19.230Z</time>
      </trkpt>
      <trkpt lat="48.86612" lon="1.94397">
        <ele>106</ele>
        <time>2022-10-03T10:54:23.238Z</time>
      </trkpt>
      <trkpt lat="48.86613" lon="1.94408">
        <ele>107</ele>
        <time>2022-10-03T10:54:37.210Z</time>
      </trkpt>
      <trkpt lat="48.86614" lon="1.94407">
        <ele>107</ele>
        <time>2022-10-03T10:54:42.221Z</time>
      </trkpt>
      <trkpt lat="48.86611" lon="1.94419">
        <ele>107</ele>
        <time>2022-10-03T10:54:47.244Z</time>
      </trkpt>
      <trkpt lat="48.86611" lon="1.94427">
        <ele>107</ele>
        <time>2022-10-03T10:54:52.217Z</time>
      </trkpt>
      <trkpt lat="48.86612" lon="1.94434">
        <ele>108</ele>
        <time>2022-10-03T10:54:56.246Z</time>
      </trkpt>
      <trkpt lat="48.86613" lon="1.94437">
        <ele>108</ele>
        <time>2022-10-03T10:55:00.253Z</time>
      </trkpt>
      <trkpt lat="48.86612" lon="1.9444">
        <ele>108</ele>
        <time>2022-10-03T10:55:05.219Z</time>
      </trkpt>
      <trkpt lat="48.86611" lon="1.94448">
        <ele>108</ele>
        <time>2022-10-03T10:55:09.228Z</time>
      </trkpt>
      <trkpt lat="48.86611" lon="1.94455">
        <ele>108</ele>
        <time>2022-10-03T10:55:13.247Z</time>
      </trkpt>
      <trkpt lat="48.86612" lon="1.94462">
        <ele>109</ele>
        <time>2022-10-03T10:55:18.230Z</time>
      </trkpt>
      <trkpt lat="48.86613" lon="1.94471">
        <ele>109</ele>
        <time>2022-10-03T10:55:23.211Z</time>
      </trkpt>
      <trkpt lat="48.86614" lon="1.94479">
        <ele>109</ele>
        <time>2022-10-03T10:55:27.216Z</time>
      </trkpt>
      <trkpt lat="48.86615" lon="1.94488">
        <ele>109</ele>
        <time>2022-10-03T10:55:32.239Z</time>
      </trkpt>
      <trkpt lat="48.86616" lon="1.94497">
        <ele>109</ele>
        <time>2022-10-03T10:55:37.238Z</time>
      </trkpt>
      <trkpt lat="48.86617" lon="1.94504">
        <ele>109</ele>
        <time>2022-10-03T10:55:41.249Z</time>
      </trkpt>
      <trkpt lat="48.86621" lon="1.94507">
        <ele>109</ele>
        <time>2022-10-03T10:55:46.218Z</time>
      </trkpt>
      <trkpt lat="48.86623" lon="1.9451">
        <ele>109</ele>
        <time>2022-10-03T10:55:51.221Z</time>
      </trkpt>
      <trkpt lat="48.86624" lon="1.94512">
        <ele>109</ele>
        <time>2022-10-03T10:55:56.214Z</time>
      </trkpt>
      <trkpt lat="48.8663" lon="1.94514">
        <ele>107</ele>
        <time>2022-10-03T10:56:00.219Z</time>
      </trkpt>
      <trkpt lat="48.86635" lon="1.94517">
        <ele>107</ele>
        <time>2022-10-03T10:56:05.218Z</time>
      </trkpt>
      <trkpt lat="48.86641" lon="1.94517">
        <ele>107</ele>
        <time>2022-10-03T10:56:10.213Z</time>
      </trkpt>
      <trkpt lat="48.86642" lon="1.94518">
        <ele>107</ele>
        <time>2022-10-03T10:56:15.207Z</time>
      </trkpt>
      <trkpt lat="48.86646" lon="1.9452">
        <ele>107</ele>
        <time>2022-10-03T10:56:19.218Z</time>
      </trkpt>
      <trkpt lat="48.86652" lon="1.94525">
        <ele>107</ele>
        <time>2022-10-03T10:56:24.218Z</time>
      </trkpt>
      <trkpt lat="48.86656" lon="1.9453">
        <ele>103</ele>
        <time>2022-10-03T10:56:28.223Z</time>
      </trkpt>
      <trkpt lat="48.86659" lon="1.94536">
        <ele>103</ele>
        <time>2022-10-03T10:56:33.218Z</time>
      </trkpt>
      <trkpt lat="48.86656" lon="1.94546">
        <ele>103</ele>
        <time>2022-10-03T10:56:38.216Z</time>
      </trkpt>
      <trkpt lat="48.86653" lon="1.9455">
        <ele>103</ele>
        <time>2022-10-03T10:56:43.214Z</time>
      </trkpt>
      <trkpt lat="48.86648" lon="1.94548">
        <ele>107</ele>
        <time>2022-10-03T10:56:48.217Z</time>
      </trkpt>
      <trkpt lat="48.86653" lon="1.94551">
        <ele>103</ele>
        <time>2022-10-03T10:57:30.219Z</time>
      </trkpt>
      <trkpt lat="48.86655" lon="1.94549">
        <ele>103</ele>
        <time>2022-10-03T10:57:34.213Z</time>
      </trkpt>
      <trkpt lat="48.86661" lon="1.94542">
        <ele>103</ele>
        <time>2022-10-03T10:57:39.210Z</time>
      </trkpt>
      <trkpt lat="48.8666" lon="1.94537">
        <ele>103</ele>
        <time>2022-10-03T10:57:43.212Z</time>
      </trkpt>
      <trkpt lat="48.86656" lon="1.94529">
        <ele>103</ele>
        <time>2022-10-03T10:57:48.209Z</time>
      </trkpt>
      <trkpt lat="48.86655" lon="1.9454">
        <ele>103</ele>
        <time>2022-10-03T10:58:39.214Z</time>
      </trkpt>
      <trkpt lat="48.86657" lon="1.94542">
        <ele>103</ele>
        <time>2022-10-03T10:58:43.231Z</time>
      </trkpt>
      <trkpt lat="48.86652" lon="1.94551">
        <ele>107</ele>
        <time>2022-10-03T10:58:48.220Z</time>
      </trkpt>
      <trkpt lat="48.86652" lon="1.94555">
        <ele>107</ele>
        <time>2022-10-03T10:58:52.229Z</time>
      </trkpt>
      <trkpt lat="48.86651" lon="1.94556">
        <ele>107</ele>
        <time>2022-10-03T10:58:57.214Z</time>
      </trkpt>
      <trkpt lat="48.86651" lon="1.94553">
        <ele>107</ele>
        <time>2022-10-03T11:36:27.246Z</time>
      </trkpt>
      <trkpt lat="48.86649" lon="1.94553">
        <ele>107</ele>
        <time>2022-10-03T11:36:32.239Z</time>
      </trkpt>
      <trkpt lat="48.86648" lon="1.9455">
        <ele>107</ele>
        <time>2022-10-03T11:36:37.217Z</time>
      </trkpt>
      <trkpt lat="48.86646" lon="1.94548">
        <ele>107</ele>
        <time>2022-10-03T11:36:41.242Z</time>
      </trkpt>
      <trkpt lat="48.86645" lon="1.94542">
        <ele>107</ele>
        <time>2022-10-03T11:36:45.246Z</time>
      </trkpt>
      <trkpt lat="48.86645" lon="1.94539">
        <ele>107</ele>
        <time>2022-10-03T11:36:54.243Z</time>
      </trkpt>
      <trkpt lat="48.86645" lon="1.94535">
        <ele>107</ele>
        <time>2022-10-03T11:36:59.232Z</time>
      </trkpt>
      <trkpt lat="48.86646" lon="1.94532">
        <ele>107</ele>
        <time>2022-10-03T11:37:03.236Z</time>
      </trkpt>
      <trkpt lat="48.86645" lon="1.94528">
        <ele>107</ele>
        <time>2022-10-03T11:37:07.255Z</time>
      </trkpt>
      <trkpt lat="48.86643" lon="1.94525">
        <ele>107</ele>
        <time>2022-10-03T11:37:11.268Z</time>
      </trkpt>
      <trkpt lat="48.86641" lon="1.94521">
        <ele>107</ele>
        <time>2022-10-03T11:37:16.246Z</time>
      </trkpt>
      <trkpt lat="48.86638" lon="1.94518">
        <ele>107</ele>
        <time>2022-10-03T11:37:20.251Z</time>
      </trkpt>
      <trkpt lat="48.86635" lon="1.94514">
        <ele>107</ele>
        <time>2022-10-03T11:37:25.272Z</time>
      </trkpt>
      <trkpt lat="48.86632" lon="1.94511">
        <ele>107</ele>
        <time>2022-10-03T11:37:30.229Z</time>
      </trkpt>
      <trkpt lat="48.86627" lon="1.9451">
        <ele>107</ele>
        <time>2022-10-03T11:37:35.280Z</time>
      </trkpt>
      <trkpt lat="48.86623" lon="1.9451">
        <ele>109</ele>
        <time>2022-10-03T11:37:40.238Z</time>
      </trkpt>
      <trkpt lat="48.86619" lon="1.94512">
        <ele>109</ele>
        <time>2022-10-03T11:37:45.266Z</time>
      </trkpt>
      <trkpt lat="48.86618" lon="1.94514">
        <ele>109</ele>
        <time>2022-10-03T11:37:50.236Z</time>
      </trkpt>
      <trkpt lat="48.86618" lon="1.94516">
        <ele>109</ele>
        <time>2022-10-03T11:37:54.237Z</time>
      </trkpt>
      <trkpt lat="48.86615" lon="1.94521">
        <ele>109</ele>
        <time>2022-10-03T11:37:59.253Z</time>
      </trkpt>
      <trkpt lat="48.86613" lon="1.94529">
        <ele>109</ele>
        <time>2022-10-03T11:38:04.235Z</time>
      </trkpt>
      <trkpt lat="48.86611" lon="1.94536">
        <ele>109</ele>
        <time>2022-10-03T11:38:09.249Z</time>
      </trkpt>
      <trkpt lat="48.86609" lon="1.94541">
        <ele>109</ele>
        <time>2022-10-03T11:38:14.229Z</time>
      </trkpt>
      <trkpt lat="48.86605" lon="1.94545">
        <ele>109</ele>
        <time>2022-10-03T11:38:19.228Z</time>
      </trkpt>
      <trkpt lat="48.866" lon="1.94549">
        <ele>109</ele>
        <time>2022-10-03T11:38:24.230Z</time>
      </trkpt>
      <trkpt lat="48.86598" lon="1.94552">
        <ele>109</ele>
        <time>2022-10-03T11:38:28.236Z</time>
      </trkpt>
      <trkpt lat="48.86595" lon="1.94558">
        <ele>111</ele>
        <time>2022-10-03T11:38:33.230Z</time>
      </trkpt>
      <trkpt lat="48.86592" lon="1.94565">
        <ele>111</ele>
        <time>2022-10-03T11:38:38.238Z</time>
      </trkpt>
      <trkpt lat="48.8659" lon="1.94574">
        <ele>113</ele>
        <time>2022-10-03T11:38:43.245Z</time>
      </trkpt>
      <trkpt lat="48.8659" lon="1.94581">
        <ele>113</ele>
        <time>2022-10-03T11:38:47.255Z</time>
      </trkpt>
      <trkpt lat="48.86589" lon="1.94587">
        <ele>113</ele>
        <time>2022-10-03T11:38:51.261Z</time>
      </trkpt>
      <trkpt lat="48.86586" lon="1.94596">
        <ele>113</ele>
        <time>2022-10-03T11:38:56.226Z</time>
      </trkpt>
      <trkpt lat="48.86585" lon="1.94606">
        <ele>114</ele>
        <time>2022-10-03T11:39:01.247Z</time>
      </trkpt>
      <trkpt lat="48.86584" lon="1.94613">
        <ele>114</ele>
        <time>2022-10-03T11:39:06.233Z</time>
      </trkpt>
      <trkpt lat="48.86583" lon="1.9462">
        <ele>114</ele>
        <time>2022-10-03T11:39:11.248Z</time>
      </trkpt>
      <trkpt lat="48.86582" lon="1.94626">
        <ele>115</ele>
        <time>2022-10-03T11:39:15.253Z</time>
      </trkpt>
      <trkpt lat="48.86581" lon="1.94634">
        <ele>115</ele>
        <time>2022-10-03T11:39:20.222Z</time>
      </trkpt>
      <trkpt lat="48.8658" lon="1.9464">
        <ele>115</ele>
        <time>2022-10-03T11:39:25.240Z</time>
      </trkpt>
      <trkpt lat="48.8658" lon="1.94646">
        <ele>115</ele>
        <time>2022-10-03T11:39:29.246Z</time>
      </trkpt>
      <trkpt lat="48.86579" lon="1.94653">
        <ele>116</ele>
        <time>2022-10-03T11:39:33.249Z</time>
      </trkpt>
      <trkpt lat="48.86578" lon="1.94661">
        <ele>116</ele>
        <time>2022-10-03T11:39:38.231Z</time>
      </trkpt>
      <trkpt lat="48.86576" lon="1.94668">
        <ele>116</ele>
        <time>2022-10-03T11:39:43.246Z</time>
      </trkpt>
      <trkpt lat="48.86576" lon="1.94677">
        <ele>116</ele>
        <time>2022-10-03T11:39:48.233Z</time>
      </trkpt>
      <trkpt lat="48.86578" lon="1.94688">
        <ele>116</ele>
        <time>2022-10-03T11:39:53.219Z</time>
      </trkpt>
      <trkpt lat="48.86578" lon="1.94697">
        <ele>116</ele>
        <time>2022-10-03T11:39:57.275Z</time>
      </trkpt>
      <trkpt lat="48.86578" lon="1.94706">
        <ele>116</ele>
        <time>2022-10-03T11:40:02.226Z</time>
      </trkpt>
      <trkpt lat="48.86577" lon="1.94713">
        <ele>116</ele>
        <time>2022-10-03T11:40:06.227Z</time>
      </trkpt>
      <trkpt lat="48.86578" lon="1.94722">
        <ele>116</ele>
        <time>2022-10-03T11:40:11.242Z</time>
      </trkpt>
      <trkpt lat="48.86579" lon="1.94727">
        <ele>116</ele>
        <time>2022-10-03T11:40:15.247Z</time>
      </trkpt>
      <trkpt lat="48.8658" lon="1.9473">
        <ele>116</ele>
        <time>2022-10-03T11:40:19.250Z</time>
      </trkpt>
      <trkpt lat="48.86585" lon="1.9473">
        <ele>116</ele>
        <time>2022-10-03T11:40:24.235Z</time>
      </trkpt>
      <trkpt lat="48.8659" lon="1.9473">
        <ele>116</ele>
        <time>2022-10-03T11:40:29.239Z</time>
      </trkpt>
      <trkpt lat="48.86596" lon="1.94731">
        <ele>116</ele>
        <time>2022-10-03T11:40:34.226Z</time>
      </trkpt>
      <trkpt lat="48.86602" lon="1.9473">
        <ele>115</ele>
        <time>2022-10-03T11:40:39.215Z</time>
      </trkpt>
      <trkpt lat="48.86606" lon="1.94731">
        <ele>115</ele>
        <time>2022-10-03T11:40:43.225Z</time>
      </trkpt>
      <trkpt lat="48.86615" lon="1.94716">
        <ele>115</ele>
        <time>2022-10-03T11:40:47.217Z</time>
      </trkpt>
      <trkpt lat="48.86615" lon="1.94707">
        <ele>114</ele>
        <time>2022-10-03T11:40:52.232Z</time>
      </trkpt>
      <trkpt lat="48.86616" lon="1.94719">
        <ele>115</ele>
        <time>2022-10-03T11:40:56.226Z</time>
      </trkpt>
      <trkpt lat="48.8662" lon="1.94723">
        <ele>115</ele>
        <time>2022-10-03T11:41:01.225Z</time>
      </trkpt>
      <trkpt lat="48.86627" lon="1.94721">
        <ele>114</ele>
        <time>2022-10-03T11:41:06.225Z</time>
      </trkpt>
      <trkpt lat="48.86632" lon="1.94717">
        <ele>114</ele>
        <time>2022-10-03T11:41:11.246Z</time>
      </trkpt>
      <trkpt lat="48.86636" lon="1.94714">
        <ele>114</ele>
        <time>2022-10-03T11:41:15.248Z</time>
      </trkpt>
      <trkpt lat="48.86642" lon="1.94711">
        <ele>114</ele>
        <time>2022-10-03T11:41:20.219Z</time>
      </trkpt>
      <trkpt lat="48.86648" lon="1.94708">
        <ele>112</ele>
        <time>2022-10-03T11:41:24.227Z</time>
      </trkpt>
      <trkpt lat="48.86656" lon="1.94704">
        <ele>110</ele>
        <time>2022-10-03T11:41:29.244Z</time>
      </trkpt>
      <trkpt lat="48.86661" lon="1.94704">
        <ele>110</ele>
        <time>2022-10-03T11:41:34.227Z</time>
      </trkpt>
      <trkpt lat="48.86666" lon="1.94704">
        <ele>110</ele>
        <time>2022-10-03T11:41:39.254Z</time>
      </trkpt>
      <trkpt lat="48.86673" lon="1.94705">
        <ele>110</ele>
        <time>2022-10-03T11:41:44.231Z</time>
      </trkpt>
      <trkpt lat="48.86677" lon="1.94707">
        <ele>110</ele>
        <time>2022-10-03T11:41:48.231Z</time>
      </trkpt>
      <trkpt lat="48.86683" lon="1.94712">
        <ele>110</ele>
        <time>2022-10-03T11:41:53.250Z</time>
      </trkpt>
      <trkpt lat="48.86687" lon="1.94716">
        <ele>110</ele>
        <time>2022-10-03T11:41:57.255Z</time>
      </trkpt>
      <trkpt lat="48.86692" lon="1.9472">
        <ele>110</ele>
        <time>2022-10-03T11:42:02.219Z</time>
      </trkpt>
      <trkpt lat="48.86696" lon="1.94724">
        <ele>110</ele>
        <time>2022-10-03T11:42:06.234Z</time>
      </trkpt>
      <trkpt lat="48.86702" lon="1.9473">
        <ele>110</ele>
        <time>2022-10-03T11:42:11.243Z</time>
      </trkpt>
      <trkpt lat="48.86707" lon="1.94739">
        <ele>110</ele>
        <time>2022-10-03T11:42:16.229Z</time>
      </trkpt>
      <trkpt lat="48.86711" lon="1.94745">
        <ele>109</ele>
        <time>2022-10-03T11:42:21.239Z</time>
      </trkpt>
      <trkpt lat="48.86716" lon="1.94751">
        <ele>109</ele>
        <time>2022-10-03T11:42:26.214Z</time>
      </trkpt>
      <trkpt lat="48.86716" lon="1.94758">
        <ele>109</ele>
        <time>2022-10-03T11:42:30.211Z</time>
      </trkpt>
      <trkpt lat="48.86721" lon="1.94764">
        <ele>109</ele>
        <time>2022-10-03T11:42:34.250Z</time>
      </trkpt>
      <trkpt lat="48.86725" lon="1.9477">
        <ele>109</ele>
        <time>2022-10-03T11:42:39.221Z</time>
      </trkpt>
      <trkpt lat="48.86728" lon="1.94776">
        <ele>109</ele>
        <time>2022-10-03T11:42:43.225Z</time>
      </trkpt>
      <trkpt lat="48.86729" lon="1.94783">
        <ele>109</ele>
        <time>2022-10-03T11:42:47.232Z</time>
      </trkpt>
      <trkpt lat="48.86737" lon="1.94791">
        <ele>107</ele>
        <time>2022-10-03T11:42:52.226Z</time>
      </trkpt>
      <trkpt lat="48.86741" lon="1.94796">
        <ele>108</ele>
        <time>2022-10-03T11:42:56.250Z</time>
      </trkpt>
      <trkpt lat="48.86743" lon="1.94803">
        <ele>108</ele>
        <time>2022-10-03T11:43:00.243Z</time>
      </trkpt>
      <trkpt lat="48.86746" lon="1.94812">
        <ele>108</ele>
        <time>2022-10-03T11:43:05.232Z</time>
      </trkpt>
      <trkpt lat="48.86748" lon="1.9482">
        <ele>109</ele>
        <time>2022-10-03T11:43:09.242Z</time>
      </trkpt>
      <trkpt lat="48.86751" lon="1.9483">
        <ele>109</ele>
        <time>2022-10-03T11:43:14.239Z</time>
      </trkpt>
      <trkpt lat="48.86753" lon="1.94838">
        <ele>109</ele>
        <time>2022-10-03T11:43:18.254Z</time>
      </trkpt>
      <trkpt lat="48.86757" lon="1.94846">
        <ele>109</ele>
        <time>2022-10-03T11:43:23.249Z</time>
      </trkpt>
      <trkpt lat="48.86761" lon="1.94854">
        <ele>110</ele>
        <time>2022-10-03T11:43:27.256Z</time>
      </trkpt>
      <trkpt lat="48.86764" lon="1.94861">
        <ele>110</ele>
        <time>2022-10-03T11:43:32.248Z</time>
      </trkpt>
      <trkpt lat="48.86768" lon="1.9487">
        <ele>110</ele>
        <time>2022-10-03T11:43:37.254Z</time>
      </trkpt>
      <trkpt lat="48.86771" lon="1.94879">
        <ele>111</ele>
        <time>2022-10-03T11:43:41.264Z</time>
      </trkpt>
      <trkpt lat="48.86778" lon="1.94888">
        <ele>111</ele>
        <time>2022-10-03T11:43:46.217Z</time>
      </trkpt>
      <trkpt lat="48.86781" lon="1.94894">
        <ele>111</ele>
        <time>2022-10-03T11:43:50.251Z</time>
      </trkpt>
      <trkpt lat="48.86784" lon="1.949">
        <ele>111</ele>
        <time>2022-10-03T11:43:55.243Z</time>
      </trkpt>
      <trkpt lat="48.86787" lon="1.94908">
        <ele>111</ele>
        <time>2022-10-03T11:44:00.242Z</time>
      </trkpt>
      <trkpt lat="48.86792" lon="1.94913">
        <ele>110</ele>
        <time>2022-10-03T11:44:05.254Z</time>
      </trkpt>
      <trkpt lat="48.86795" lon="1.94918">
        <ele>110</ele>
        <time>2022-10-03T11:44:09.255Z</time>
      </trkpt>
      <trkpt lat="48.86799" lon="1.94926">
        <ele>110</ele>
        <time>2022-10-03T11:44:14.253Z</time>
      </trkpt>
      <trkpt lat="48.86803" lon="1.94931">
        <ele>110</ele>
        <time>2022-10-03T11:44:19.271Z</time>
      </trkpt>
      <trkpt lat="48.86808" lon="1.94936">
        <ele>110</ele>
        <time>2022-10-03T11:44:24.250Z</time>
      </trkpt>
      <trkpt lat="48.86813" lon="1.94939">
        <ele>110</ele>
        <time>2022-10-03T11:44:29.252Z</time>
      </trkpt>
      <trkpt lat="48.86816" lon="1.94943">
        <ele>110</ele>
        <time>2022-10-03T11:44:33.263Z</time>
      </trkpt>
      <trkpt lat="48.8682" lon="1.94947">
        <ele>108</ele>
        <time>2022-10-03T11:44:37.255Z</time>
      </trkpt>
      <trkpt lat="48.86825" lon="1.94954">
        <ele>108</ele>
        <time>2022-10-03T11:44:42.237Z</time>
      </trkpt>
      <trkpt lat="48.86828" lon="1.9496">
        <ele>109</ele>
        <time>2022-10-03T11:44:47.217Z</time>
      </trkpt>
      <trkpt lat="48.86828" lon="1.94962">
        <ele>109</ele>
        <time>2022-10-03T11:44:51.216Z</time>
      </trkpt>
      <trkpt lat="48.8683" lon="1.94963">
        <ele>109</ele>
        <time>2022-10-03T11:44:55.218Z</time>
      </trkpt>
      <trkpt lat="48.86835" lon="1.94965">
        <ele>109</ele>
        <time>2022-10-03T11:44:59.229Z</time>
      </trkpt>
      <trkpt lat="48.8684" lon="1.94971">
        <ele>109</ele>
        <time>2022-10-03T11:45:04.231Z</time>
      </trkpt>
      <trkpt lat="48.86842" lon="1.94974">
        <ele>109</ele>
        <time>2022-10-03T11:45:28.222Z</time>
      </trkpt>
      <trkpt lat="48.86849" lon="1.94976">
        <ele>106</ele>
        <time>2022-10-03T11:45:33.219Z</time>
      </trkpt>
      <trkpt lat="48.86856" lon="1.94978">
        <ele>106</ele>
        <time>2022-10-03T11:45:38.223Z</time>
      </trkpt>
      <trkpt lat="48.86861" lon="1.94985">
        <ele>106</ele>
        <time>2022-10-03T11:45:43.220Z</time>
      </trkpt>
      <trkpt lat="48.86865" lon="1.94988">
        <ele>107</ele>
        <time>2022-10-03T11:45:47.230Z</time>
      </trkpt>
      <trkpt lat="48.86871" lon="1.94997">
        <ele>107</ele>
        <time>2022-10-03T11:46:00.223Z</time>
      </trkpt>
      <trkpt lat="48.86874" lon="1.94995">
        <ele>107</ele>
        <time>2022-10-03T11:46:05.222Z</time>
      </trkpt>
      <trkpt lat="48.86877" lon="1.95">
        <ele>107</ele>
        <time>2022-10-03T11:46:09.240Z</time>
      </trkpt>
      <trkpt lat="48.86878" lon="1.94998">
        <ele>107</ele>
        <time>2022-10-03T11:46:13.252Z</time>
      </trkpt>
      <trkpt lat="48.86884" lon="1.95001">
        <ele>107</ele>
        <time>2022-10-03T11:46:18.219Z</time>
      </trkpt>
      <trkpt lat="48.86886" lon="1.95004">
        <ele>107</ele>
        <time>2022-10-03T11:46:22.236Z</time>
      </trkpt>
      <trkpt lat="48.86891" lon="1.95006">
        <ele>107</ele>
        <time>2022-10-03T11:46:27.227Z</time>
      </trkpt>
      <trkpt lat="48.86895" lon="1.95011">
        <ele>107</ele>
        <time>2022-10-03T11:46:31.234Z</time>
      </trkpt>
      <trkpt lat="48.86899" lon="1.95014">
        <ele>107</ele>
        <time>2022-10-03T11:46:35.248Z</time>
      </trkpt>
      <trkpt lat="48.86905" lon="1.95018">
        <ele>110</ele>
        <time>2022-10-03T11:46:40.236Z</time>
      </trkpt>
      <trkpt lat="48.86909" lon="1.95022">
        <ele>110</ele>
        <time>2022-10-03T11:46:45.253Z</time>
      </trkpt>
      <trkpt lat="48.86914" lon="1.95025">
        <ele>110</ele>
        <time>2022-10-03T11:46:50.255Z</time>
      </trkpt>
      <trkpt lat="48.86919" lon="1.95029">
        <ele>110</ele>
        <time>2022-10-03T11:46:55.259Z</time>
      </trkpt>
      <trkpt lat="48.86925" lon="1.95031">
        <ele>110</ele>
        <time>2022-10-03T11:47:00.225Z</time>
      </trkpt>
      <trkpt lat="48.86928" lon="1.95033">
        <ele>110</ele>
        <time>2022-10-03T11:47:04.256Z</time>
      </trkpt>
      <trkpt lat="48.86933" lon="1.95039">
        <ele>109</ele>
        <time>2022-10-03T11:47:08.265Z</time>
      </trkpt>
      <trkpt lat="48.86936" lon="1.95043">
        <ele>110</ele>
        <time>2022-10-03T11:47:13.255Z</time>
      </trkpt>
      <trkpt lat="48.8694" lon="1.95047">
        <ele>110</ele>
        <time>2022-10-03T11:47:17.270Z</time>
      </trkpt>
      <trkpt lat="48.86945" lon="1.95052">
        <ele>110</ele>
        <time>2022-10-03T11:47:22.227Z</time>
      </trkpt>
      <trkpt lat="48.86949" lon="1.95054">
        <ele>110</ele>
        <time>2022-10-03T11:47:26.252Z</time>
      </trkpt>
      <trkpt lat="48.86955" lon="1.95058">
        <ele>110</ele>
        <time>2022-10-03T11:47:31.254Z</time>
      </trkpt>
      <trkpt lat="48.8696" lon="1.95062">
        <ele>108</ele>
        <time>2022-10-03T11:47:36.256Z</time>
      </trkpt>
      <trkpt lat="48.86965" lon="1.95066">
        <ele>108</ele>
        <time>2022-10-03T11:47:41.264Z</time>
      </trkpt>
      <trkpt lat="48.8697" lon="1.9507">
        <ele>109</ele>
        <time>2022-10-03T11:47:46.269Z</time>
      </trkpt>
      <trkpt lat="48.86975" lon="1.95075">
        <ele>109</ele>
        <time>2022-10-03T11:47:51.266Z</time>
      </trkpt>
      <trkpt lat="48.86982" lon="1.9508">
        <ele>109</ele>
        <time>2022-10-03T11:47:56.270Z</time>
      </trkpt>
      <trkpt lat="48.86988" lon="1.95084">
        <ele>109</ele>
        <time>2022-10-03T11:48:01.266Z</time>
      </trkpt>
      <trkpt lat="48.86994" lon="1.95087">
        <ele>109</ele>
        <time>2022-10-03T11:48:06.274Z</time>
      </trkpt>
      <trkpt lat="48.87" lon="1.95091">
        <ele>109</ele>
        <time>2022-10-03T11:48:11.278Z</time>
      </trkpt>
      <trkpt lat="48.87004" lon="1.95093">
        <ele>109</ele>
        <time>2022-10-03T11:48:15.282Z</time>
      </trkpt>
      <trkpt lat="48.87011" lon="1.95096">
        <ele>109</ele>
        <time>2022-10-03T11:48:20.279Z</time>
      </trkpt>
      <trkpt lat="48.87017" lon="1.951">
        <ele>109</ele>
        <time>2022-10-03T11:48:25.262Z</time>
      </trkpt>
      <trkpt lat="48.87024" lon="1.95103">
        <ele>109</ele>
        <time>2022-10-03T11:48:30.274Z</time>
      </trkpt>
      <trkpt lat="48.8703" lon="1.95104">
        <ele>109</ele>
        <time>2022-10-03T11:48:35.278Z</time>
      </trkpt>
      <trkpt lat="48.87036" lon="1.95107">
        <ele>109</ele>
        <time>2022-10-03T11:48:40.269Z</time>
      </trkpt>
      <trkpt lat="48.87042" lon="1.95111">
        <ele>109</ele>
        <time>2022-10-03T11:48:45.274Z</time>
      </trkpt>
      <trkpt lat="48.87048" lon="1.95115">
        <ele>109</ele>
        <time>2022-10-03T11:48:50.247Z</time>
      </trkpt>
      <trkpt lat="48.87054" lon="1.95117">
        <ele>109</ele>
        <time>2022-10-03T11:48:55.227Z</time>
      </trkpt>
      <trkpt lat="48.87059" lon="1.9512">
        <ele>109</ele>
        <time>2022-10-03T11:48:59.234Z</time>
      </trkpt>
      <trkpt lat="48.87064" lon="1.95123">
        <ele>109</ele>
        <time>2022-10-03T11:49:03.256Z</time>
      </trkpt>
      <trkpt lat="48.87068" lon="1.95126">
        <ele>109</ele>
        <time>2022-10-03T11:49:07.254Z</time>
      </trkpt>
      <trkpt lat="48.87075" lon="1.9513">
        <ele>111</ele>
        <time>2022-10-03T11:49:12.255Z</time>
      </trkpt>
      <trkpt lat="48.8708" lon="1.95132">
        <ele>111</ele>
        <time>2022-10-03T11:49:17.267Z</time>
      </trkpt>
      <trkpt lat="48.87086" lon="1.95135">
        <ele>111</ele>
        <time>2022-10-03T11:49:22.248Z</time>
      </trkpt>
      <trkpt lat="48.8709" lon="1.95137">
        <ele>111</ele>
        <time>2022-10-03T11:49:26.254Z</time>
      </trkpt>
      <trkpt lat="48.87094" lon="1.9514">
        <ele>111</ele>
        <time>2022-10-03T11:49:30.246Z</time>
      </trkpt>
      <trkpt lat="48.87099" lon="1.95142">
        <ele>112</ele>
        <time>2022-10-03T11:49:34.247Z</time>
      </trkpt>
      <trkpt lat="48.87106" lon="1.95146">
        <ele>112</ele>
        <time>2022-10-03T11:49:39.260Z</time>
      </trkpt>
      <trkpt lat="48.87112" lon="1.95151">
        <ele>112</ele>
        <time>2022-10-03T11:49:44.247Z</time>
      </trkpt>
      <trkpt lat="48.87118" lon="1.95155">
        <ele>112</ele>
        <time>2022-10-03T11:49:49.255Z</time>
      </trkpt>
      <trkpt lat="48.87123" lon="1.95158">
        <ele>112</ele>
        <time>2022-10-03T11:49:54.244Z</time>
      </trkpt>
      <trkpt lat="48.87129" lon="1.95162">
        <ele>113</ele>
        <time>2022-10-03T11:49:59.267Z</time>
      </trkpt>
      <trkpt lat="48.87135" lon="1.95166">
        <ele>113</ele>
        <time>2022-10-03T11:50:04.225Z</time>
      </trkpt>
      <trkpt lat="48.8714" lon="1.9517">
        <ele>113</ele>
        <time>2022-10-03T11:50:08.258Z</time>
      </trkpt>
      <trkpt lat="48.87146" lon="1.95174">
        <ele>113</ele>
        <time>2022-10-03T11:50:13.264Z</time>
      </trkpt>
      <trkpt lat="48.8715" lon="1.95178">
        <ele>113</ele>
        <time>2022-10-03T11:50:18.259Z</time>
      </trkpt>
      <trkpt lat="48.87155" lon="1.95181">
        <ele>115</ele>
        <time>2022-10-03T11:50:22.279Z</time>
      </trkpt>
      <trkpt lat="48.87161" lon="1.95184">
        <ele>115</ele>
        <time>2022-10-03T11:50:27.277Z</time>
      </trkpt>
      <trkpt lat="48.87167" lon="1.95188">
        <ele>115</ele>
        <time>2022-10-03T11:50:32.258Z</time>
      </trkpt>
      <trkpt lat="48.87172" lon="1.95191">
        <ele>115</ele>
        <time>2022-10-03T11:50:37.255Z</time>
      </trkpt>
      <trkpt lat="48.87177" lon="1.95196">
        <ele>115</ele>
        <time>2022-10-03T11:50:41.257Z</time>
      </trkpt>
      <trkpt lat="48.87182" lon="1.95199">
        <ele>115</ele>
        <time>2022-10-03T11:50:46.240Z</time>
      </trkpt>
      <trkpt lat="48.87186" lon="1.95202">
        <ele>115</ele>
        <time>2022-10-03T11:50:50.264Z</time>
      </trkpt>
      <trkpt lat="48.87191" lon="1.95204">
        <ele>115</ele>
        <time>2022-10-03T11:50:54.260Z</time>
      </trkpt>
      <trkpt lat="48.87196" lon="1.95207">
        <ele>115</ele>
        <time>2022-10-03T11:50:58.269Z</time>
      </trkpt>
      <trkpt lat="48.87202" lon="1.95211">
        <ele>115</ele>
        <time>2022-10-03T11:51:03.259Z</time>
      </trkpt>
      <trkpt lat="48.87206" lon="1.95213">
        <ele>115</ele>
        <time>2022-10-03T11:51:07.275Z</time>
      </trkpt>
      <trkpt lat="48.87213" lon="1.95217">
        <ele>115</ele>
        <time>2022-10-03T11:51:12.266Z</time>
      </trkpt>
      <trkpt lat="48.87218" lon="1.9522">
        <ele>115</ele>
        <time>2022-10-03T11:51:17.276Z</time>
      </trkpt>
      <trkpt lat="48.87224" lon="1.95224">
        <ele>115</ele>
        <time>2022-10-03T11:51:22.267Z</time>
      </trkpt>
      <trkpt lat="48.87228" lon="1.95226">
        <ele>115</ele>
        <time>2022-10-03T11:51:27.251Z</time>
      </trkpt>
      <trkpt lat="48.87235" lon="1.95229">
        <ele>115</ele>
        <time>2022-10-03T11:51:32.273Z</time>
      </trkpt>
      <trkpt lat="48.87241" lon="1.9523">
        <ele>115</ele>
        <time>2022-10-03T11:51:37.252Z</time>
      </trkpt>
      <trkpt lat="48.87245" lon="1.9523">
        <ele>115</ele>
        <time>2022-10-03T11:51:41.269Z</time>
      </trkpt>
      <trkpt lat="48.8725" lon="1.9523">
        <ele>115</ele>
        <time>2022-10-03T11:51:45.265Z</time>
      </trkpt>
      <trkpt lat="48.87255" lon="1.95228">
        <ele>115</ele>
        <time>2022-10-03T11:51:50.252Z</time>
      </trkpt>
      <trkpt lat="48.8726" lon="1.95228">
        <ele>115</ele>
        <time>2022-10-03T11:51:54.267Z</time>
      </trkpt>
      <trkpt lat="48.87266" lon="1.95228">
        <ele>116</ele>
        <time>2022-10-03T11:51:59.270Z</time>
      </trkpt>
      <trkpt lat="48.87272" lon="1.95228">
        <ele>116</ele>
        <time>2022-10-03T11:52:04.259Z</time>
      </trkpt>
      <trkpt lat="48.87277" lon="1.95229">
        <ele>116</ele>
        <time>2022-10-03T11:52:09.248Z</time>
      </trkpt>
      <trkpt lat="48.87284" lon="1.9523">
        <ele>116</ele>
        <time>2022-10-03T11:52:14.233Z</time>
      </trkpt>
      <trkpt lat="48.87291" lon="1.95231">
        <ele>116</ele>
        <time>2022-10-03T11:52:19.241Z</time>
      </trkpt>
      <trkpt lat="48.87296" lon="1.95233">
        <ele>117</ele>
        <time>2022-10-03T11:52:24.237Z</time>
      </trkpt>
      <trkpt lat="48.87301" lon="1.95235">
        <ele>117</ele>
        <time>2022-10-03T11:52:29.249Z</time>
      </trkpt>
      <trkpt lat="48.87306" lon="1.95238">
        <ele>116</ele>
        <time>2022-10-03T11:52:33.277Z</time>
      </trkpt>
      <trkpt lat="48.87311" lon="1.95241">
        <ele>116</ele>
        <time>2022-10-03T11:52:37.278Z</time>
      </trkpt>
      <trkpt lat="48.87317" lon="1.95246">
        <ele>116</ele>
        <time>2022-10-03T11:52:42.254Z</time>
      </trkpt>
      <trkpt lat="48.87322" lon="1.95251">
        <ele>117</ele>
        <time>2022-10-03T11:52:47.256Z</time>
      </trkpt>
      <trkpt lat="48.87327" lon="1.95254">
        <ele>117</ele>
        <time>2022-10-03T11:52:51.261Z</time>
      </trkpt>
      <trkpt lat="48.87333" lon="1.95258">
        <ele>117</ele>
        <time>2022-10-03T11:52:56.257Z</time>
      </trkpt>
      <trkpt lat="48.87339" lon="1.95263">
        <ele>117</ele>
        <time>2022-10-03T11:53:01.274Z</time>
      </trkpt>
      <trkpt lat="48.87346" lon="1.95268">
        <ele>118</ele>
        <time>2022-10-03T11:53:06.265Z</time>
      </trkpt>
      <trkpt lat="48.87351" lon="1.95273">
        <ele>118</ele>
        <time>2022-10-03T11:53:11.240Z</time>
      </trkpt>
      <trkpt lat="48.87356" lon="1.95276">
        <ele>118</ele>
        <time>2022-10-03T11:53:16.239Z</time>
      </trkpt>
      <trkpt lat="48.87361" lon="1.9528">
        <ele>118</ele>
        <time>2022-10-03T11:53:20.239Z</time>
      </trkpt>
      <trkpt lat="48.87363" lon="1.9528">
        <ele>118</ele>
        <time>2022-10-03T11:53:24.240Z</time>
      </trkpt>
      <trkpt lat="48.87364" lon="1.95285">
        <ele>118</ele>
        <time>2022-10-03T11:53:29.246Z</time>
      </trkpt>
      <trkpt lat="48.87368" lon="1.9529">
        <ele>118</ele>
        <time>2022-10-03T11:53:33.258Z</time>
      </trkpt>
      <trkpt lat="48.87375" lon="1.95295">
        <ele>119</ele>
        <time>2022-10-03T11:53:38.273Z</time>
      </trkpt>
      <trkpt lat="48.87379" lon="1.95296">
        <ele>119</ele>
        <time>2022-10-03T11:53:43.258Z</time>
      </trkpt>
      <trkpt lat="48.8738" lon="1.95297">
        <ele>119</ele>
        <time>2022-10-03T11:53:47.251Z</time>
      </trkpt>
      <trkpt lat="48.87384" lon="1.953">
        <ele>119</ele>
        <time>2022-10-03T11:53:52.256Z</time>
      </trkpt>
      <trkpt lat="48.87386" lon="1.95302">
        <ele>119</ele>
        <time>2022-10-03T11:53:56.261Z</time>
      </trkpt>
      <trkpt lat="48.87389" lon="1.95303">
        <ele>119</ele>
        <time>2022-10-03T11:54:01.245Z</time>
      </trkpt>
      <trkpt lat="48.87393" lon="1.95307">
        <ele>119</ele>
        <time>2022-10-03T11:54:06.246Z</time>
      </trkpt>
      <trkpt lat="48.87397" lon="1.95312">
        <ele>119</ele>
        <time>2022-10-03T11:54:11.247Z</time>
      </trkpt>
      <trkpt lat="48.87401" lon="1.95316">
        <ele>119</ele>
        <time>2022-10-03T11:54:15.251Z</time>
      </trkpt>
      <trkpt lat="48.87406" lon="1.95321">
        <ele>119</ele>
        <time>2022-10-03T11:54:20.260Z</time>
      </trkpt>
      <trkpt lat="48.87411" lon="1.95326">
        <ele>119</ele>
        <time>2022-10-03T11:54:24.257Z</time>
      </trkpt>
      <trkpt lat="48.87415" lon="1.95331">
        <ele>119</ele>
        <time>2022-10-03T11:54:28.260Z</time>
      </trkpt>
      <trkpt lat="48.8742" lon="1.95336">
        <ele>119</ele>
        <time>2022-10-03T11:54:33.263Z</time>
      </trkpt>
      <trkpt lat="48.87425" lon="1.95342">
        <ele>119</ele>
        <time>2022-10-03T11:54:38.249Z</time>
      </trkpt>
      <trkpt lat="48.87431" lon="1.95347">
        <ele>119</ele>
        <time>2022-10-03T11:54:43.240Z</time>
      </trkpt>
      <trkpt lat="48.87436" lon="1.9535">
        <ele>119</ele>
        <time>2022-10-03T11:54:47.251Z</time>
      </trkpt>
      <trkpt lat="48.87441" lon="1.95356">
        <ele>119</ele>
        <time>2022-10-03T11:54:51.257Z</time>
      </trkpt>
      <trkpt lat="48.87447" lon="1.95362">
        <ele>119</ele>
        <time>2022-10-03T11:54:56.259Z</time>
      </trkpt>
      <trkpt lat="48.87452" lon="1.95367">
        <ele>119</ele>
        <time>2022-10-03T11:55:01.266Z</time>
      </trkpt>
      <trkpt lat="48.87457" lon="1.95372">
        <ele>119</ele>
        <time>2022-10-03T11:55:05.272Z</time>
      </trkpt>
      <trkpt lat="48.87462" lon="1.95376">
        <ele>121</ele>
        <time>2022-10-03T11:55:10.257Z</time>
      </trkpt>
      <trkpt lat="48.87467" lon="1.9538">
        <ele>121</ele>
        <time>2022-10-03T11:55:14.270Z</time>
      </trkpt>
      <trkpt lat="48.87471" lon="1.95384">
        <ele>121</ele>
        <time>2022-10-03T11:55:18.278Z</time>
      </trkpt>
      <trkpt lat="48.87477" lon="1.95389">
        <ele>121</ele>
        <time>2022-10-03T11:55:23.255Z</time>
      </trkpt>
      <trkpt lat="48.87482" lon="1.95394">
        <ele>121</ele>
        <time>2022-10-03T11:55:28.254Z</time>
      </trkpt>
      <trkpt lat="48.87487" lon="1.95399">
        <ele>123</ele>
        <time>2022-10-03T11:55:32.258Z</time>
      </trkpt>
      <trkpt lat="48.87491" lon="1.95404">
        <ele>122</ele>
        <time>2022-10-03T11:55:36.269Z</time>
      </trkpt>
      <trkpt lat="48.87496" lon="1.95408">
        <ele>122</ele>
        <time>2022-10-03T11:55:41.260Z</time>
      </trkpt>
      <trkpt lat="48.87502" lon="1.95413">
        <ele>122</ele>
        <time>2022-10-03T11:55:46.235Z</time>
      </trkpt>
      <trkpt lat="48.87508" lon="1.95418">
        <ele>122</ele>
        <time>2022-10-03T11:55:51.248Z</time>
      </trkpt>
      <trkpt lat="48.87512" lon="1.95421">
        <ele>122</ele>
        <time>2022-10-03T11:55:55.260Z</time>
      </trkpt>
      <trkpt lat="48.87518" lon="1.95427">
        <ele>123</ele>
        <time>2022-10-03T11:56:00.245Z</time>
      </trkpt>
      <trkpt lat="48.87523" lon="1.95432">
        <ele>123</ele>
        <time>2022-10-03T11:56:04.259Z</time>
      </trkpt>
      <trkpt lat="48.87528" lon="1.95437">
        <ele>123</ele>
        <time>2022-10-03T11:56:09.263Z</time>
      </trkpt>
      <trkpt lat="48.87533" lon="1.95443">
        <ele>123</ele>
        <time>2022-10-03T11:56:14.259Z</time>
      </trkpt>
      <trkpt lat="48.87537" lon="1.95448">
        <ele>123</ele>
        <time>2022-10-03T11:56:18.279Z</time>
      </trkpt>
      <trkpt lat="48.87543" lon="1.95455">
        <ele>124</ele>
        <time>2022-10-03T11:56:23.269Z</time>
      </trkpt>
      <trkpt lat="48.87548" lon="1.95459">
        <ele>124</ele>
        <time>2022-10-03T11:56:27.278Z</time>
      </trkpt>
      <trkpt lat="48.87552" lon="1.95465">
        <ele>124</ele>
        <time>2022-10-03T11:56:32.257Z</time>
      </trkpt>
      <trkpt lat="48.87556" lon="1.95469">
        <ele>124</ele>
        <time>2022-10-03T11:56:36.279Z</time>
      </trkpt>
      <trkpt lat="48.87561" lon="1.95475">
        <ele>124</ele>
        <time>2022-10-03T11:56:41.269Z</time>
      </trkpt>
      <trkpt lat="48.87566" lon="1.95481">
        <ele>124</ele>
        <time>2022-10-03T11:56:46.270Z</time>
      </trkpt>
      <trkpt lat="48.87571" lon="1.95488">
        <ele>125</ele>
        <time>2022-10-03T11:56:51.264Z</time>
      </trkpt>
      <trkpt lat="48.87575" lon="1.95493">
        <ele>125</ele>
        <time>2022-10-03T11:56:55.283Z</time>
      </trkpt>
      <trkpt lat="48.87579" lon="1.95499">
        <ele>125</ele>
        <time>2022-10-03T11:57:00.249Z</time>
      </trkpt>
      <trkpt lat="48.87583" lon="1.95504">
        <ele>125</ele>
        <time>2022-10-03T11:57:04.251Z</time>
      </trkpt>
      <trkpt lat="48.87587" lon="1.95509">
        <ele>125</ele>
        <time>2022-10-03T11:57:08.282Z</time>
      </trkpt>
      <trkpt lat="48.87593" lon="1.95516">
        <ele>125</ele>
        <time>2022-10-03T11:57:13.251Z</time>
      </trkpt>
      <trkpt lat="48.87597" lon="1.95522">
        <ele>125</ele>
        <time>2022-10-03T11:57:18.245Z</time>
      </trkpt>
      <trkpt lat="48.87603" lon="1.95528">
        <ele>126</ele>
        <time>2022-10-03T11:57:23.224Z</time>
      </trkpt>
      <trkpt lat="48.87607" lon="1.95533">
        <ele>126</ele>
        <time>2022-10-03T11:57:27.255Z</time>
      </trkpt>
      <trkpt lat="48.8761" lon="1.95538">
        <ele>126</ele>
        <time>2022-10-03T11:57:31.260Z</time>
      </trkpt>
      <trkpt lat="48.87615" lon="1.95545">
        <ele>126</ele>
        <time>2022-10-03T11:57:36.253Z</time>
      </trkpt>
      <trkpt lat="48.87621" lon="1.95552">
        <ele>126</ele>
        <time>2022-10-03T11:57:41.237Z</time>
      </trkpt>
      <trkpt lat="48.87625" lon="1.95558">
        <ele>126</ele>
        <time>2022-10-03T11:57:45.263Z</time>
      </trkpt>
      <trkpt lat="48.8763" lon="1.95565">
        <ele>128</ele>
        <time>2022-10-03T11:57:50.244Z</time>
      </trkpt>
      <trkpt lat="48.87633" lon="1.95572">
        <ele>129</ele>
        <time>2022-10-03T11:57:54.267Z</time>
      </trkpt>
      <trkpt lat="48.87638" lon="1.95578">
        <ele>129</ele>
        <time>2022-10-03T11:57:58.275Z</time>
      </trkpt>
      <trkpt lat="48.87642" lon="1.95583">
        <ele>129</ele>
        <time>2022-10-03T11:58:03.259Z</time>
      </trkpt>
      <trkpt lat="48.87648" lon="1.95589">
        <ele>129</ele>
        <time>2022-10-03T11:58:08.276Z</time>
      </trkpt>
      <trkpt lat="48.87651" lon="1.95594">
        <ele>129</ele>
        <time>2022-10-03T11:58:12.285Z</time>
      </trkpt>
      <trkpt lat="48.87656" lon="1.95599">
        <ele>131</ele>
        <time>2022-10-03T11:58:17.279Z</time>
      </trkpt>
      <trkpt lat="48.87662" lon="1.95604">
        <ele>131</ele>
        <time>2022-10-03T11:58:22.266Z</time>
      </trkpt>
      <trkpt lat="48.87666" lon="1.95609">
        <ele>131</ele>
        <time>2022-10-03T11:58:26.279Z</time>
      </trkpt>
      <trkpt lat="48.87671" lon="1.95614">
        <ele>131</ele>
        <time>2022-10-03T11:58:31.254Z</time>
      </trkpt>
      <trkpt lat="48.87678" lon="1.95619">
        <ele>131</ele>
        <time>2022-10-03T11:58:36.254Z</time>
      </trkpt>
      <trkpt lat="48.87685" lon="1.95626">
        <ele>134</ele>
        <time>2022-10-03T11:58:41.250Z</time>
      </trkpt>
      <trkpt lat="48.87689" lon="1.9563">
        <ele>134</ele>
        <time>2022-10-03T11:58:45.268Z</time>
      </trkpt>
      <trkpt lat="48.87695" lon="1.95634">
        <ele>134</ele>
        <time>2022-10-03T11:58:50.237Z</time>
      </trkpt>
      <trkpt lat="48.877" lon="1.95638">
        <ele>134</ele>
        <time>2022-10-03T11:58:54.267Z</time>
      </trkpt>
      <trkpt lat="48.87705" lon="1.9564">
        <ele>134</ele>
        <time>2022-10-03T11:58:58.270Z</time>
      </trkpt>
      <trkpt lat="48.87711" lon="1.95645">
        <ele>136</ele>
        <time>2022-10-03T11:59:03.286Z</time>
      </trkpt>
      <trkpt lat="48.87716" lon="1.95649">
        <ele>136</ele>
        <time>2022-10-03T11:59:08.220Z</time>
      </trkpt>
      <trkpt lat="48.87717" lon="1.95652">
        <ele>136</ele>
        <time>2022-10-03T11:59:12.211Z</time>
      </trkpt>
      <trkpt lat="48.87721" lon="1.95654">
        <ele>137</ele>
        <time>2022-10-03T11:59:16.231Z</time>
      </trkpt>
      <trkpt lat="48.87729" lon="1.95659">
        <ele>137</ele>
        <time>2022-10-03T11:59:40.228Z</time>
      </trkpt>
      <trkpt lat="48.87734" lon="1.95664">
        <ele>137</ele>
        <time>2022-10-03T11:59:45.237Z</time>
      </trkpt>
      <trkpt lat="48.8774" lon="1.95665">
        <ele>138</ele>
        <time>2022-10-03T11:59:49.246Z</time>
      </trkpt>
      <trkpt lat="48.87746" lon="1.95665">
        <ele>138</ele>
        <time>2022-10-03T11:59:54.244Z</time>
      </trkpt>
      <trkpt lat="48.87754" lon="1.95667">
        <ele>138</ele>
        <time>2022-10-03T11:59:59.244Z</time>
      </trkpt>
      <trkpt lat="48.87759" lon="1.95664">
        <ele>138</ele>
        <time>2022-10-03T12:00:04.239Z</time>
      </trkpt>
      <trkpt lat="48.87762" lon="1.95664">
        <ele>138</ele>
        <time>2022-10-03T12:00:08.246Z</time>
      </trkpt>
      <trkpt lat="48.87767" lon="1.95666">
        <ele>140</ele>
        <time>2022-10-03T12:00:13.221Z</time>
      </trkpt>
      <trkpt lat="48.87772" lon="1.95668">
        <ele>140</ele>
        <time>2022-10-03T12:00:17.252Z</time>
      </trkpt>
      <trkpt lat="48.87778" lon="1.95673">
        <ele>140</ele>
        <time>2022-10-03T12:00:22.245Z</time>
      </trkpt>
      <trkpt lat="48.87783" lon="1.95677">
        <ele>140</ele>
        <time>2022-10-03T12:00:26.275Z</time>
      </trkpt>
      <trkpt lat="48.87787" lon="1.95681">
        <ele>140</ele>
        <time>2022-10-03T12:00:31.242Z</time>
      </trkpt>
      <trkpt lat="48.87795" lon="1.95684">
        <ele>144</ele>
        <time>2022-10-03T12:00:35.245Z</time>
      </trkpt>
      <trkpt lat="48.87796" lon="1.9569">
        <ele>144</ele>
        <time>2022-10-03T12:00:39.250Z</time>
      </trkpt>
      <trkpt lat="48.87804" lon="1.95695">
        <ele>144</ele>
        <time>2022-10-03T12:00:44.243Z</time>
      </trkpt>
      <trkpt lat="48.87809" lon="1.957">
        <ele>144</ele>
        <time>2022-10-03T12:00:48.251Z</time>
      </trkpt>
      <trkpt lat="48.87812" lon="1.95704">
        <ele>144</ele>
        <time>2022-10-03T12:00:53.244Z</time>
      </trkpt>
      <trkpt lat="48.87814" lon="1.95707">
        <ele>144</ele>
        <time>2022-10-03T12:00:58.242Z</time>
      </trkpt>
      <trkpt lat="48.87816" lon="1.95712">
        <ele>146</ele>
        <time>2022-10-03T12:01:03.254Z</time>
      </trkpt>
      <trkpt lat="48.87821" lon="1.95716">
        <ele>147</ele>
        <time>2022-10-03T12:01:08.247Z</time>
      </trkpt>
      <trkpt lat="48.87828" lon="1.95718">
        <ele>147</ele>
        <time>2022-10-03T12:01:13.248Z</time>
      </trkpt>
      <trkpt lat="48.87833" lon="1.95724">
        <ele>147</ele>
        <time>2022-10-03T12:01:18.235Z</time>
      </trkpt>
      <trkpt lat="48.8784" lon="1.9573">
        <ele>147</ele>
        <time>2022-10-03T12:01:23.235Z</time>
      </trkpt>
      <trkpt lat="48.87845" lon="1.95733">
        <ele>147</ele>
        <time>2022-10-03T12:01:28.218Z</time>
      </trkpt>
      <trkpt lat="48.87849" lon="1.95735">
        <ele>150</ele>
        <time>2022-10-03T12:01:32.234Z</time>
      </trkpt>
      <trkpt lat="48.87852" lon="1.95738">
        <ele>153</ele>
        <time>2022-10-03T12:01:36.236Z</time>
      </trkpt>
      <trkpt lat="48.87859" lon="1.95741">
        <ele>153</ele>
        <time>2022-10-03T12:01:41.241Z</time>
      </trkpt>
      <trkpt lat="48.87862" lon="1.95743">
        <ele>153</ele>
        <time>2022-10-03T12:01:45.255Z</time>
      </trkpt>
      <trkpt lat="48.87865" lon="1.95747">
        <ele>153</ele>
        <time>2022-10-03T12:01:50.246Z</time>
      </trkpt>
      <trkpt lat="48.8787" lon="1.95751">
        <ele>153</ele>
        <time>2022-10-03T12:01:55.237Z</time>
      </trkpt>
      <trkpt lat="48.87875" lon="1.95756">
        <ele>153</ele>
        <time>2022-10-03T12:02:00.237Z</time>
      </trkpt>
      <trkpt lat="48.8788" lon="1.95761">
        <ele>156</ele>
        <time>2022-10-03T12:02:05.226Z</time>
      </trkpt>
      <trkpt lat="48.87884" lon="1.95765">
        <ele>158</ele>
        <time>2022-10-03T12:02:09.221Z</time>
      </trkpt>
      <trkpt lat="48.87887" lon="1.95769">
        <ele>158</ele>
        <time>2022-10-03T12:02:13.262Z</time>
      </trkpt>
      <trkpt lat="48.87891" lon="1.95773">
        <ele>158</ele>
        <time>2022-10-03T12:02:18.243Z</time>
      </trkpt>
      <trkpt lat="48.87896" lon="1.95776">
        <ele>158</ele>
        <time>2022-10-03T12:02:22.242Z</time>
      </trkpt>
      <trkpt lat="48.879" lon="1.95781">
        <ele>158</ele>
        <time>2022-10-03T12:02:27.234Z</time>
      </trkpt>
      <trkpt lat="48.87903" lon="1.95784">
        <ele>162</ele>
        <time>2022-10-03T12:02:31.236Z</time>
      </trkpt>
      <trkpt lat="48.87906" lon="1.95787">
        <ele>162</ele>
        <time>2022-10-03T12:02:35.239Z</time>
      </trkpt>
      <trkpt lat="48.87911" lon="1.95792">
        <ele>162</ele>
        <time>2022-10-03T12:02:40.256Z</time>
      </trkpt>
      <trkpt lat="48.87915" lon="1.95796">
        <ele>162</ele>
        <time>2022-10-03T12:02:44.255Z</time>
      </trkpt>
      <trkpt lat="48.87919" lon="1.95801">
        <ele>162</ele>
        <time>2022-10-03T12:02:49.259Z</time>
      </trkpt>
      <trkpt lat="48.87923" lon="1.95806">
        <ele>162</ele>
        <time>2022-10-03T12:02:54.260Z</time>
      </trkpt>
      <trkpt lat="48.87928" lon="1.95809">
        <ele>162</ele>
        <time>2022-10-03T12:02:59.256Z</time>
      </trkpt>
      <trkpt lat="48.87932" lon="1.95812">
        <ele>166</ele>
        <time>2022-10-03T12:03:03.289Z</time>
      </trkpt>
      <trkpt lat="48.87937" lon="1.95816">
        <ele>166</ele>
        <time>2022-10-03T12:03:08.264Z</time>
      </trkpt>
      <trkpt lat="48.87941" lon="1.95822">
        <ele>166</ele>
        <time>2022-10-03T12:03:13.259Z</time>
      </trkpt>
      <trkpt lat="48.87944" lon="1.95825">
        <ele>166</ele>
        <time>2022-10-03T12:03:17.269Z</time>
      </trkpt>
      <trkpt lat="48.8795" lon="1.95828">
        <ele>166</ele>
        <time>2022-10-03T12:03:22.246Z</time>
      </trkpt>
      <trkpt lat="48.87955" lon="1.95833">
        <ele>166</ele>
        <time>2022-10-03T12:03:27.257Z</time>
      </trkpt>
      <trkpt lat="48.87958" lon="1.95836">
        <ele>173</ele>
        <time>2022-10-03T12:03:31.265Z</time>
      </trkpt>
      <trkpt lat="48.87962" lon="1.95841">
        <ele>173</ele>
        <time>2022-10-03T12:03:36.246Z</time>
      </trkpt>
      <trkpt lat="48.87965" lon="1.95845">
        <ele>173</ele>
        <time>2022-10-03T12:03:40.265Z</time>
      </trkpt>
      <trkpt lat="48.87968" lon="1.9585">
        <ele>174</ele>
        <time>2022-10-03T12:03:45.258Z</time>
      </trkpt>
      <trkpt lat="48.87971" lon="1.95855">
        <ele>174</ele>
        <time>2022-10-03T12:03:50.254Z</time>
      </trkpt>
      <trkpt lat="48.87972" lon="1.95857">
        <ele>174</ele>
        <time>2022-10-03T12:03:55.226Z</time>
      </trkpt>
      <trkpt lat="48.87975" lon="1.95868">
        <ele>174</ele>
        <time>2022-10-03T12:04:00.216Z</time>
      </trkpt>
      <trkpt lat="48.87978" lon="1.95863">
        <ele>174</ele>
        <time>2022-10-03T12:04:04.227Z</time>
      </trkpt>
      <trkpt lat="48.87983" lon="1.95863">
        <ele>174</ele>
        <time>2022-10-03T12:04:08.237Z</time>
      </trkpt>
      <trkpt lat="48.87984" lon="1.95865">
        <ele>174</ele>
        <time>2022-10-03T12:04:13.241Z</time>
      </trkpt>
      <trkpt lat="48.87987" lon="1.9587">
        <ele>179</ele>
        <time>2022-10-03T12:04:18.246Z</time>
      </trkpt>
      <trkpt lat="48.87988" lon="1.9587">
        <ele>179</ele>
        <time>2022-10-03T12:08:32.219Z</time>
      </trkpt>
      <trkpt lat="48.87988" lon="1.95867">
        <ele>179</ele>
        <time>2022-10-03T12:08:36.247Z</time>
      </trkpt>
      <trkpt lat="48.87991" lon="1.95867">
        <ele>179</ele>
        <time>2022-10-03T12:08:41.268Z</time>
      </trkpt>
      <trkpt lat="48.87995" lon="1.95866">
        <ele>179</ele>
        <time>2022-10-03T12:08:46.258Z</time>
      </trkpt>
      <trkpt lat="48.88" lon="1.95864">
        <ele>179</ele>
        <time>2022-10-03T12:08:51.257Z</time>
      </trkpt>
      <trkpt lat="48.88004" lon="1.95861">
        <ele>179</ele>
        <time>2022-10-03T12:08:56.246Z</time>
      </trkpt>
      <trkpt lat="48.88007" lon="1.95859">
        <ele>179</ele>
        <time>2022-10-03T12:09:00.253Z</time>
      </trkpt>
      <trkpt lat="48.88012" lon="1.95858">
        <ele>179</ele>
        <time>2022-10-03T12:09:04.269Z</time>
      </trkpt>
      <trkpt lat="48.88017" lon="1.95857">
        <ele>184</ele>
        <time>2022-10-03T12:09:09.241Z</time>
      </trkpt>
      <trkpt lat="48.88022" lon="1.95854">
        <ele>184</ele>
        <time>2022-10-03T12:09:13.266Z</time>
      </trkpt>
      <trkpt lat="48.88026" lon="1.95855">
        <ele>184</ele>
        <time>2022-10-03T12:09:18.266Z</time>
      </trkpt>
      <trkpt lat="48.88032" lon="1.95855">
        <ele>184</ele>
        <time>2022-10-03T12:09:23.267Z</time>
      </trkpt>
      <trkpt lat="48.88037" lon="1.95853">
        <ele>184</ele>
        <time>2022-10-03T12:09:27.269Z</time>
      </trkpt>
      <trkpt lat="48.88042" lon="1.95849">
        <ele>183</ele>
        <time>2022-10-03T12:09:32.275Z</time>
      </trkpt>
      <trkpt lat="48.88049" lon="1.95846">
        <ele>182</ele>
        <time>2022-10-03T12:09:37.268Z</time>
      </trkpt>
      <trkpt lat="48.88054" lon="1.95844">
        <ele>182</ele>
        <time>2022-10-03T12:09:42.235Z</time>
      </trkpt>
      <trkpt lat="48.88058" lon="1.95841">
        <ele>182</ele>
        <time>2022-10-03T12:09:46.238Z</time>
      </trkpt>
      <trkpt lat="48.88062" lon="1.95839">
        <ele>182</ele>
        <time>2022-10-03T12:09:50.267Z</time>
      </trkpt>
      <trkpt lat="48.88066" lon="1.95839">
        <ele>182</ele>
        <time>2022-10-03T12:09:55.277Z</time>
      </trkpt>
      <trkpt lat="48.88071" lon="1.95838">
        <ele>182</ele>
        <time>2022-10-03T12:10:00.237Z</time>
      </trkpt>
      <trkpt lat="48.88075" lon="1.95838">
        <ele>182</ele>
        <time>2022-10-03T12:10:04.271Z</time>
      </trkpt>
      <trkpt lat="48.88078" lon="1.95835">
        <ele>182</ele>
        <time>2022-10-03T12:10:08.275Z</time>
      </trkpt>
      <trkpt lat="48.88084" lon="1.95835">
        <ele>182</ele>
        <time>2022-10-03T12:10:13.252Z</time>
      </trkpt>
      <trkpt lat="48.8809" lon="1.9583">
        <ele>182</ele>
        <time>2022-10-03T12:10:18.244Z</time>
      </trkpt>
      <trkpt lat="48.88094" lon="1.95829">
        <ele>182</ele>
        <time>2022-10-03T12:10:22.237Z</time>
      </trkpt>
      <trkpt lat="48.881" lon="1.95826">
        <ele>183</ele>
        <time>2022-10-03T12:10:27.261Z</time>
      </trkpt>
      <trkpt lat="48.88104" lon="1.95823">
        <ele>183</ele>
        <time>2022-10-03T12:10:31.274Z</time>
      </trkpt>
      <trkpt lat="48.88107" lon="1.95821">
        <ele>183</ele>
        <time>2022-10-03T12:10:35.287Z</time>
      </trkpt>
      <trkpt lat="48.88111" lon="1.95818">
        <ele>183</ele>
        <time>2022-10-03T12:10:40.270Z</time>
      </trkpt>
      <trkpt lat="48.88118" lon="1.95814">
        <ele>183</ele>
        <time>2022-10-03T12:10:45.271Z</time>
      </trkpt>
      <trkpt lat="48.88123" lon="1.95812">
        <ele>183</ele>
        <time>2022-10-03T12:10:50.254Z</time>
      </trkpt>
      <trkpt lat="48.88128" lon="1.95811">
        <ele>183</ele>
        <time>2022-10-03T12:10:55.270Z</time>
      </trkpt>
      <trkpt lat="48.88133" lon="1.95812">
        <ele>183</ele>
        <time>2022-10-03T12:11:00.250Z</time>
      </trkpt>
      <trkpt lat="48.88138" lon="1.95812">
        <ele>183</ele>
        <time>2022-10-03T12:11:05.266Z</time>
      </trkpt>
      <trkpt lat="48.88143" lon="1.95815">
        <ele>183</ele>
        <time>2022-10-03T12:11:10.262Z</time>
      </trkpt>
      <trkpt lat="48.88148" lon="1.95816">
        <ele>183</ele>
        <time>2022-10-03T12:11:15.271Z</time>
      </trkpt>
      <trkpt lat="48.88153" lon="1.95818">
        <ele>183</ele>
        <time>2022-10-03T12:11:19.280Z</time>
      </trkpt>
      <trkpt lat="48.88159" lon="1.95819">
        <ele>183</ele>
        <time>2022-10-03T12:11:24.270Z</time>
      </trkpt>
      <trkpt lat="48.88163" lon="1.9582">
        <ele>184</ele>
        <time>2022-10-03T12:11:28.275Z</time>
      </trkpt>
      <trkpt lat="48.88169" lon="1.95818">
        <ele>183</ele>
        <time>2022-10-03T12:11:33.267Z</time>
      </trkpt>
      <trkpt lat="48.88175" lon="1.95814">
        <ele>183</ele>
        <time>2022-10-03T12:11:38.274Z</time>
      </trkpt>
      <trkpt lat="48.88183" lon="1.95807">
        <ele>184</ele>
        <time>2022-10-03T12:11:43.229Z</time>
      </trkpt>
      <trkpt lat="48.8819" lon="1.958">
        <ele>184</ele>
        <time>2022-10-03T12:11:47.264Z</time>
      </trkpt>
      <trkpt lat="48.88194" lon="1.95796">
        <ele>184</ele>
        <time>2022-10-03T12:11:51.276Z</time>
      </trkpt>
      <trkpt lat="48.882" lon="1.9579">
        <ele>183</ele>
        <time>2022-10-03T12:11:56.266Z</time>
      </trkpt>
      <trkpt lat="48.88207" lon="1.95785">
        <ele>183</ele>
        <time>2022-10-03T12:12:01.267Z</time>
      </trkpt>
      <trkpt lat="48.88213" lon="1.95783">
        <ele>183</ele>
        <time>2022-10-03T12:12:06.264Z</time>
      </trkpt>
      <trkpt lat="48.88218" lon="1.95782">
        <ele>183</ele>
        <time>2022-10-03T12:12:10.273Z</time>
      </trkpt>
      <trkpt lat="48.88226" lon="1.95782">
        <ele>183</ele>
        <time>2022-10-03T12:12:15.265Z</time>
      </trkpt>
      <trkpt lat="48.88233" lon="1.95783">
        <ele>183</ele>
        <time>2022-10-03T12:12:20.256Z</time>
      </trkpt>
      <trkpt lat="48.88238" lon="1.95783">
        <ele>183</ele>
        <time>2022-10-03T12:12:24.267Z</time>
      </trkpt>
      <trkpt lat="48.88243" lon="1.95781">
        <ele>183</ele>
        <time>2022-10-03T12:12:28.281Z</time>
      </trkpt>
      <trkpt lat="48.88251" lon="1.95781">
        <ele>183</ele>
        <time>2022-10-03T12:12:33.238Z</time>
      </trkpt>
      <trkpt lat="48.88256" lon="1.95781">
        <ele>183</ele>
        <time>2022-10-03T12:12:37.264Z</time>
      </trkpt>
      <trkpt lat="48.8826" lon="1.95782">
        <ele>183</ele>
        <time>2022-10-03T12:12:41.273Z</time>
      </trkpt>
      <trkpt lat="48.88266" lon="1.95783">
        <ele>184</ele>
        <time>2022-10-03T12:12:46.265Z</time>
      </trkpt>
      <trkpt lat="48.88273" lon="1.95786">
        <ele>184</ele>
        <time>2022-10-03T12:12:51.248Z</time>
      </trkpt>
      <trkpt lat="48.88277" lon="1.95788">
        <ele>184</ele>
        <time>2022-10-03T12:12:55.262Z</time>
      </trkpt>
      <trkpt lat="48.88284" lon="1.95793">
        <ele>185</ele>
        <time>2022-10-03T12:13:00.260Z</time>
      </trkpt>
      <trkpt lat="48.88289" lon="1.95799">
        <ele>185</ele>
        <time>2022-10-03T12:13:05.272Z</time>
      </trkpt>
      <trkpt lat="48.88293" lon="1.95805">
        <ele>183</ele>
        <time>2022-10-03T12:13:10.259Z</time>
      </trkpt>
      <trkpt lat="48.88298" lon="1.95812">
        <ele>183</ele>
        <time>2022-10-03T12:13:15.259Z</time>
      </trkpt>
      <trkpt lat="48.88301" lon="1.95819">
        <ele>183</ele>
        <time>2022-10-03T12:13:20.269Z</time>
      </trkpt>
      <trkpt lat="48.88305" lon="1.95827">
        <ele>183</ele>
        <time>2022-10-03T12:13:24.296Z</time>
      </trkpt>
      <trkpt lat="48.8831" lon="1.95835">
        <ele>183</ele>
        <time>2022-10-03T12:13:29.249Z</time>
      </trkpt>
      <trkpt lat="48.88314" lon="1.95838">
        <ele>183</ele>
        <time>2022-10-03T12:13:33.255Z</time>
      </trkpt>
      <trkpt lat="48.88318" lon="1.95844">
        <ele>183</ele>
        <time>2022-10-03T12:13:38.234Z</time>
      </trkpt>
      <trkpt lat="48.88322" lon="1.9585">
        <ele>179</ele>
        <time>2022-10-03T12:13:42.257Z</time>
      </trkpt>
      <trkpt lat="48.88329" lon="1.95855">
        <ele>179</ele>
        <time>2022-10-03T12:13:46.282Z</time>
      </trkpt>
      <trkpt lat="48.88337" lon="1.9586">
        <ele>179</ele>
        <time>2022-10-03T12:13:51.247Z</time>
      </trkpt>
      <trkpt lat="48.88345" lon="1.95864">
        <ele>179</ele>
        <time>2022-10-03T12:13:56.224Z</time>
      </trkpt>
      <trkpt lat="48.8835" lon="1.95869">
        <ele>176</ele>
        <time>2022-10-03T12:14:00.247Z</time>
      </trkpt>
      <trkpt lat="48.88354" lon="1.95872">
        <ele>176</ele>
        <time>2022-10-03T12:14:04.245Z</time>
      </trkpt>
      <trkpt lat="48.88361" lon="1.95878">
        <ele>175</ele>
        <time>2022-10-03T12:14:09.251Z</time>
      </trkpt>
      <trkpt lat="48.88365" lon="1.95882">
        <ele>175</ele>
        <time>2022-10-03T12:14:13.256Z</time>
      </trkpt>
      <trkpt lat="48.88372" lon="1.95886">
        <ele>175</ele>
        <time>2022-10-03T12:14:18.260Z</time>
      </trkpt>
      <trkpt lat="48.88377" lon="1.9589">
        <ele>175</ele>
        <time>2022-10-03T12:14:22.262Z</time>
      </trkpt>
      <trkpt lat="48.88383" lon="1.95896">
        <ele>175</ele>
        <time>2022-10-03T12:14:27.260Z</time>
      </trkpt>
      <trkpt lat="48.8839" lon="1.95902">
        <ele>175</ele>
        <time>2022-10-03T12:14:32.263Z</time>
      </trkpt>
      <trkpt lat="48.88395" lon="1.95906">
        <ele>174</ele>
        <time>2022-10-03T12:14:37.280Z</time>
      </trkpt>
      <trkpt lat="48.88399" lon="1.95914">
        <ele>174</ele>
        <time>2022-10-03T12:14:42.272Z</time>
      </trkpt>
      <trkpt lat="48.88402" lon="1.95921">
        <ele>174</ele>
        <time>2022-10-03T12:16:14.241Z</time>
      </trkpt>
      <trkpt lat="48.88403" lon="1.95919">
        <ele>174</ele>
        <time>2022-10-03T12:16:19.278Z</time>
      </trkpt>
      <trkpt lat="48.88405" lon="1.95918">
        <ele>176</ele>
        <time>2022-10-03T12:16:24.240Z</time>
      </trkpt>
      <trkpt lat="48.88408" lon="1.95921">
        <ele>176</ele>
        <time>2022-10-03T12:16:28.254Z</time>
      </trkpt>
      <trkpt lat="48.88412" lon="1.95927">
        <ele>176</ele>
        <time>2022-10-03T12:16:32.258Z</time>
      </trkpt>
      <trkpt lat="48.88415" lon="1.95933">
        <ele>175</ele>
        <time>2022-10-03T12:16:37.271Z</time>
      </trkpt>
      <trkpt lat="48.88418" lon="1.9594">
        <ele>175</ele>
        <time>2022-10-03T12:16:42.259Z</time>
      </trkpt>
      <trkpt lat="48.88421" lon="1.95947">
        <ele>175</ele>
        <time>2022-10-03T12:16:47.255Z</time>
      </trkpt>
      <trkpt lat="48.88425" lon="1.95957">
        <ele>175</ele>
        <time>2022-10-03T12:16:52.240Z</time>
      </trkpt>
      <trkpt lat="48.88428" lon="1.95964">
        <ele>174</ele>
        <time>2022-10-03T12:16:56.242Z</time>
      </trkpt>
      <trkpt lat="48.8843" lon="1.9597">
        <ele>174</ele>
        <time>2022-10-03T12:17:00.255Z</time>
      </trkpt>
      <trkpt lat="48.88434" lon="1.95977">
        <ele>177</ele>
        <time>2022-10-03T12:17:05.251Z</time>
      </trkpt>
      <trkpt lat="48.88436" lon="1.95984">
        <ele>177</ele>
        <time>2022-10-03T12:17:09.263Z</time>
      </trkpt>
      <trkpt lat="48.88439" lon="1.9599">
        <ele>177</ele>
        <time>2022-10-03T12:17:14.235Z</time>
      </trkpt>
      <trkpt lat="48.88444" lon="1.95996">
        <ele>177</ele>
        <time>2022-10-03T12:17:18.250Z</time>
      </trkpt>
      <trkpt lat="48.88449" lon="1.96004">
        <ele>177</ele>
        <time>2022-10-03T12:17:23.247Z</time>
      </trkpt>
      <trkpt lat="48.88454" lon="1.96012">
        <ele>177</ele>
        <time>2022-10-03T12:17:28.243Z</time>
      </trkpt>
      <trkpt lat="48.88458" lon="1.96019">
        <ele>176</ele>
        <time>2022-10-03T12:17:32.242Z</time>
      </trkpt>
      <trkpt lat="48.88461" lon="1.96025">
        <ele>176</ele>
        <time>2022-10-03T12:17:36.245Z</time>
      </trkpt>
      <trkpt lat="48.88467" lon="1.96034">
        <ele>176</ele>
        <time>2022-10-03T12:17:41.261Z</time>
      </trkpt>
      <trkpt lat="48.88473" lon="1.96042">
        <ele>176</ele>
        <time>2022-10-03T12:17:46.231Z</time>
      </trkpt>
      <trkpt lat="48.88478" lon="1.96049">
        <ele>176</ele>
        <time>2022-10-03T12:17:50.251Z</time>
      </trkpt>
      <trkpt lat="48.88483" lon="1.96055">
        <ele>176</ele>
        <time>2022-10-03T12:17:55.250Z</time>
      </trkpt>
      <trkpt lat="48.88489" lon="1.96061">
        <ele>176</ele>
        <time>2022-10-03T12:18:00.246Z</time>
      </trkpt>
      <trkpt lat="48.88496" lon="1.96069">
        <ele>176</ele>
        <time>2022-10-03T12:18:05.234Z</time>
      </trkpt>
      <trkpt lat="48.88501" lon="1.96073">
        <ele>176</ele>
        <time>2022-10-03T12:18:10.257Z</time>
      </trkpt>
      <trkpt lat="48.88507" lon="1.96079">
        <ele>176</ele>
        <time>2022-10-03T12:18:15.243Z</time>
      </trkpt>
      <trkpt lat="48.88513" lon="1.96084">
        <ele>176</ele>
        <time>2022-10-03T12:18:19.250Z</time>
      </trkpt>
      <trkpt lat="48.88519" lon="1.96091">
        <ele>177</ele>
        <time>2022-10-03T12:18:24.231Z</time>
      </trkpt>
      <trkpt lat="48.88523" lon="1.96098">
        <ele>178</ele>
        <time>2022-10-03T12:18:28.241Z</time>
      </trkpt>
      <trkpt lat="48.8853" lon="1.96106">
        <ele>178</ele>
        <time>2022-10-03T12:18:33.230Z</time>
      </trkpt>
      <trkpt lat="48.88536" lon="1.96113">
        <ele>178</ele>
        <time>2022-10-03T12:18:38.240Z</time>
      </trkpt>
      <trkpt lat="48.88542" lon="1.9612">
        <ele>179</ele>
        <time>2022-10-03T12:18:43.236Z</time>
      </trkpt>
      <trkpt lat="48.88546" lon="1.96125">
        <ele>179</ele>
        <time>2022-10-03T12:18:47.279Z</time>
      </trkpt>
      <trkpt lat="48.88551" lon="1.96131">
        <ele>179</ele>
        <time>2022-10-03T12:18:52.259Z</time>
      </trkpt>
      <trkpt lat="48.88557" lon="1.96141">
        <ele>179</ele>
        <time>2022-10-03T12:18:57.263Z</time>
      </trkpt>
      <trkpt lat="48.88563" lon="1.9615">
        <ele>179</ele>
        <time>2022-10-03T12:19:02.252Z</time>
      </trkpt>
      <trkpt lat="48.88567" lon="1.96155">
        <ele>178</ele>
        <time>2022-10-03T12:19:06.272Z</time>
      </trkpt>
      <trkpt lat="48.88571" lon="1.96163">
        <ele>179</ele>
        <time>2022-10-03T12:19:11.275Z</time>
      </trkpt>
      <trkpt lat="48.88575" lon="1.9617">
        <ele>179</ele>
        <time>2022-10-03T12:19:15.291Z</time>
      </trkpt>
      <trkpt lat="48.8858" lon="1.96179">
        <ele>179</ele>
        <time>2022-10-03T12:19:20.276Z</time>
      </trkpt>
      <trkpt lat="48.88585" lon="1.96188">
        <ele>178</ele>
        <time>2022-10-03T12:19:25.290Z</time>
      </trkpt>
      <trkpt lat="48.8859" lon="1.96196">
        <ele>178</ele>
        <time>2022-10-03T12:19:30.263Z</time>
      </trkpt>
      <trkpt lat="48.88593" lon="1.96201">
        <ele>178</ele>
        <time>2022-10-03T12:19:34.282Z</time>
      </trkpt>
      <trkpt lat="48.88598" lon="1.96211">
        <ele>179</ele>
        <time>2022-10-03T12:19:39.277Z</time>
      </trkpt>
      <trkpt lat="48.88603" lon="1.96219">
        <ele>179</ele>
        <time>2022-10-03T12:19:43.285Z</time>
      </trkpt>
      <trkpt lat="48.88609" lon="1.96229">
        <ele>179</ele>
        <time>2022-10-03T12:19:48.261Z</time>
      </trkpt>
      <trkpt lat="48.88613" lon="1.96235">
        <ele>179</ele>
        <time>2022-10-03T12:19:52.270Z</time>
      </trkpt>
      <trkpt lat="48.88619" lon="1.96243">
        <ele>179</ele>
        <time>2022-10-03T12:19:57.232Z</time>
      </trkpt>
      <trkpt lat="48.88621" lon="1.96252">
        <ele>179</ele>
        <time>2022-10-03T12:20:02.240Z</time>
      </trkpt>
      <trkpt lat="48.88626" lon="1.96259">
        <ele>179</ele>
        <time>2022-10-03T12:20:07.221Z</time>
      </trkpt>
      <trkpt lat="48.88629" lon="1.96265">
        <ele>179</ele>
        <time>2022-10-03T12:20:11.246Z</time>
      </trkpt>
      <trkpt lat="48.88635" lon="1.96275">
        <ele>179</ele>
        <time>2022-10-03T12:20:16.247Z</time>
      </trkpt>
      <trkpt lat="48.88639" lon="1.96283">
        <ele>179</ele>
        <time>2022-10-03T12:20:21.249Z</time>
      </trkpt>
      <trkpt lat="48.88644" lon="1.96289">
        <ele>179</ele>
        <time>2022-10-03T12:20:26.229Z</time>
      </trkpt>
      <trkpt lat="48.88648" lon="1.96297">
        <ele>179</ele>
        <time>2022-10-03T12:20:30.256Z</time>
      </trkpt>
      <trkpt lat="48.88651" lon="1.96304">
        <ele>179</ele>
        <time>2022-10-03T12:20:34.270Z</time>
      </trkpt>
      <trkpt lat="48.88656" lon="1.96312">
        <ele>179</ele>
        <time>2022-10-03T12:20:39.247Z</time>
      </trkpt>
      <trkpt lat="48.88661" lon="1.9632">
        <ele>178</ele>
        <time>2022-10-03T12:20:44.243Z</time>
      </trkpt>
      <trkpt lat="48.88665" lon="1.96329">
        <ele>178</ele>
        <time>2022-10-03T12:20:48.257Z</time>
      </trkpt>
      <trkpt lat="48.8867" lon="1.96337">
        <ele>178</ele>
        <time>2022-10-03T12:20:53.262Z</time>
      </trkpt>
      <trkpt lat="48.88674" lon="1.96344">
        <ele>178</ele>
        <time>2022-10-03T12:20:58.255Z</time>
      </trkpt>
      <trkpt lat="48.88677" lon="1.9635">
        <ele>178</ele>
        <time>2022-10-03T12:21:02.274Z</time>
      </trkpt>
      <trkpt lat="48.88681" lon="1.96359">
        <ele>178</ele>
        <time>2022-10-03T12:21:07.248Z</time>
      </trkpt>
      <trkpt lat="48.88684" lon="1.96366">
        <ele>178</ele>
        <time>2022-10-03T12:21:11.264Z</time>
      </trkpt>
      <trkpt lat="48.88688" lon="1.96374">
        <ele>178</ele>
        <time>2022-10-03T12:21:15.278Z</time>
      </trkpt>
      <trkpt lat="48.88692" lon="1.96383">
        <ele>178</ele>
        <time>2022-10-03T12:21:20.249Z</time>
      </trkpt>
      <trkpt lat="48.88696" lon="1.96391">
        <ele>178</ele>
        <time>2022-10-03T12:21:25.253Z</time>
      </trkpt>
      <trkpt lat="48.887" lon="1.96399">
        <ele>178</ele>
        <time>2022-10-03T12:21:29.277Z</time>
      </trkpt>
      <trkpt lat="48.88703" lon="1.96406">
        <ele>178</ele>
        <time>2022-10-03T12:21:33.288Z</time>
      </trkpt>
      <trkpt lat="48.88706" lon="1.96415">
        <ele>178</ele>
        <time>2022-10-03T12:21:38.248Z</time>
      </trkpt>
      <trkpt lat="48.88709" lon="1.96423">
        <ele>177</ele>
        <time>2022-10-03T12:21:42.277Z</time>
      </trkpt>
      <trkpt lat="48.88712" lon="1.9643">
        <ele>177</ele>
        <time>2022-10-03T12:21:46.276Z</time>
      </trkpt>
      <trkpt lat="48.88715" lon="1.9644">
        <ele>177</ele>
        <time>2022-10-03T12:21:51.266Z</time>
      </trkpt>
      <trkpt lat="48.88719" lon="1.96451">
        <ele>177</ele>
        <time>2022-10-03T12:21:56.250Z</time>
      </trkpt>
      <trkpt lat="48.88722" lon="1.96459">
        <ele>176</ele>
        <time>2022-10-03T12:22:01.265Z</time>
      </trkpt>
      <trkpt lat="48.88725" lon="1.96467">
        <ele>176</ele>
        <time>2022-10-03T12:22:05.281Z</time>
      </trkpt>
      <trkpt lat="48.88729" lon="1.96476">
        <ele>176</ele>
        <time>2022-10-03T12:22:10.268Z</time>
      </trkpt>
      <trkpt lat="48.88732" lon="1.96486">
        <ele>176</ele>
        <time>2022-10-03T12:22:15.256Z</time>
      </trkpt>
      <trkpt lat="48.88735" lon="1.96494">
        <ele>177</ele>
        <time>2022-10-03T12:22:19.298Z</time>
      </trkpt>
      <trkpt lat="48.88739" lon="1.96505">
        <ele>177</ele>
        <time>2022-10-03T12:22:24.277Z</time>
      </trkpt>
      <trkpt lat="48.88742" lon="1.96513">
        <ele>177</ele>
        <time>2022-10-03T12:22:29.260Z</time>
      </trkpt>
      <trkpt lat="48.88744" lon="1.96522">
        <ele>177</ele>
        <time>2022-10-03T12:22:33.291Z</time>
      </trkpt>
      <trkpt lat="48.88746" lon="1.9653">
        <ele>177</ele>
        <time>2022-10-03T12:22:38.284Z</time>
      </trkpt>
      <trkpt lat="48.8875" lon="1.96539">
        <ele>177</ele>
        <time>2022-10-03T12:22:43.249Z</time>
      </trkpt>
      <trkpt lat="48.88754" lon="1.96547">
        <ele>178</ele>
        <time>2022-10-03T12:22:47.276Z</time>
      </trkpt>
      <trkpt lat="48.88758" lon="1.96552">
        <ele>178</ele>
        <time>2022-10-03T12:22:51.278Z</time>
      </trkpt>
      <trkpt lat="48.88761" lon="1.9656">
        <ele>178</ele>
        <time>2022-10-03T12:22:56.256Z</time>
      </trkpt>
      <trkpt lat="48.88764" lon="1.96567">
        <ele>178</ele>
        <time>2022-10-03T12:23:01.259Z</time>
      </trkpt>
      <trkpt lat="48.88763" lon="1.96574">
        <ele>178</ele>
        <time>2022-10-03T12:26:50.262Z</time>
      </trkpt>
      <trkpt lat="48.88763" lon="1.96575">
        <ele>178</ele>
        <time>2022-10-03T12:26:55.265Z</time>
      </trkpt>
      <trkpt lat="48.88762" lon="1.96579">
        <ele>178</ele>
        <time>2022-10-03T12:26:59.279Z</time>
      </trkpt>
      <trkpt lat="48.8876" lon="1.96583">
        <ele>178</ele>
        <time>2022-10-03T12:27:04.257Z</time>
      </trkpt>
      <trkpt lat="48.88759" lon="1.96586">
        <ele>178</ele>
        <time>2022-10-03T12:27:08.253Z</time>
      </trkpt>
      <trkpt lat="48.88758" lon="1.9659">
        <ele>178</ele>
        <time>2022-10-03T12:27:13.258Z</time>
      </trkpt>
      <trkpt lat="48.88755" lon="1.96591">
        <ele>178</ele>
        <time>2022-10-03T12:27:18.265Z</time>
      </trkpt>
      <trkpt lat="48.88751" lon="1.96597">
        <ele>178</ele>
        <time>2022-10-03T12:27:23.249Z</time>
      </trkpt>
      <trkpt lat="48.88747" lon="1.96603">
        <ele>178</ele>
        <time>2022-10-03T12:27:27.274Z</time>
      </trkpt>
      <trkpt lat="48.88743" lon="1.96608">
        <ele>178</ele>
        <time>2022-10-03T12:27:32.262Z</time>
      </trkpt>
      <trkpt lat="48.88737" lon="1.96615">
        <ele>178</ele>
        <time>2022-10-03T12:27:37.266Z</time>
      </trkpt>
      <trkpt lat="48.88733" lon="1.96624">
        <ele>179</ele>
        <time>2022-10-03T12:27:42.235Z</time>
      </trkpt>
      <trkpt lat="48.88729" lon="1.96629">
        <ele>178</ele>
        <time>2022-10-03T12:27:46.264Z</time>
      </trkpt>
      <trkpt lat="48.88725" lon="1.96635">
        <ele>178</ele>
        <time>2022-10-03T12:27:51.237Z</time>
      </trkpt>
      <trkpt lat="48.88722" lon="1.9664">
        <ele>178</ele>
        <time>2022-10-03T12:27:55.281Z</time>
      </trkpt>
      <trkpt lat="48.88718" lon="1.96645">
        <ele>178</ele>
        <time>2022-10-03T12:28:00.276Z</time>
      </trkpt>
      <trkpt lat="48.88713" lon="1.96651">
        <ele>178</ele>
        <time>2022-10-03T12:28:05.250Z</time>
      </trkpt>
      <trkpt lat="48.88708" lon="1.96656">
        <ele>178</ele>
        <time>2022-10-03T12:28:09.262Z</time>
      </trkpt>
      <trkpt lat="48.88704" lon="1.96663">
        <ele>178</ele>
        <time>2022-10-03T12:28:14.259Z</time>
      </trkpt>
      <trkpt lat="48.88699" lon="1.96671">
        <ele>178</ele>
        <time>2022-10-03T12:28:19.271Z</time>
      </trkpt>
      <trkpt lat="48.88695" lon="1.96677">
        <ele>178</ele>
        <time>2022-10-03T12:28:24.262Z</time>
      </trkpt>
      <trkpt lat="48.88691" lon="1.96684">
        <ele>177</ele>
        <time>2022-10-03T12:28:28.265Z</time>
      </trkpt>
      <trkpt lat="48.88686" lon="1.96691">
        <ele>177</ele>
        <time>2022-10-03T12:28:33.266Z</time>
      </trkpt>
      <trkpt lat="48.88682" lon="1.96698">
        <ele>177</ele>
        <time>2022-10-03T12:28:38.265Z</time>
      </trkpt>
      <trkpt lat="48.88677" lon="1.96705">
        <ele>178</ele>
        <time>2022-10-03T12:28:43.282Z</time>
      </trkpt>
      <trkpt lat="48.88673" lon="1.96712">
        <ele>178</ele>
        <time>2022-10-03T12:28:48.293Z</time>
      </trkpt>
      <trkpt lat="48.88668" lon="1.96718">
        <ele>178</ele>
        <time>2022-10-03T12:28:53.261Z</time>
      </trkpt>
      <trkpt lat="48.88663" lon="1.96726">
        <ele>178</ele>
        <time>2022-10-03T12:28:58.282Z</time>
      </trkpt>
      <trkpt lat="48.88658" lon="1.96733">
        <ele>178</ele>
        <time>2022-10-03T12:29:03.277Z</time>
      </trkpt>
      <trkpt lat="48.88653" lon="1.96739">
        <ele>178</ele>
        <time>2022-10-03T12:29:08.255Z</time>
      </trkpt>
      <trkpt lat="48.88648" lon="1.96745">
        <ele>179</ele>
        <time>2022-10-03T12:29:12.276Z</time>
      </trkpt>
      <trkpt lat="48.88643" lon="1.96753">
        <ele>179</ele>
        <time>2022-10-03T12:29:17.274Z</time>
      </trkpt>
      <trkpt lat="48.88639" lon="1.96758">
        <ele>179</ele>
        <time>2022-10-03T12:29:22.293Z</time>
      </trkpt>
      <trkpt lat="48.88634" lon="1.96764">
        <ele>177</ele>
        <time>2022-10-03T12:29:27.256Z</time>
      </trkpt>
      <trkpt lat="48.8863" lon="1.96768">
        <ele>177</ele>
        <time>2022-10-03T12:29:31.267Z</time>
      </trkpt>
      <trkpt lat="48.88624" lon="1.96775">
        <ele>178</ele>
        <time>2022-10-03T12:29:36.274Z</time>
      </trkpt>
      <trkpt lat="48.88618" lon="1.96782">
        <ele>178</ele>
        <time>2022-10-03T12:29:41.269Z</time>
      </trkpt>
      <trkpt lat="48.88611" lon="1.96787">
        <ele>178</ele>
        <time>2022-10-03T12:29:46.262Z</time>
      </trkpt>
      <trkpt lat="48.88607" lon="1.96792">
        <ele>178</ele>
        <time>2022-10-03T12:29:50.283Z</time>
      </trkpt>
      <trkpt lat="48.88601" lon="1.96798">
        <ele>177</ele>
        <time>2022-10-03T12:29:55.275Z</time>
      </trkpt>
      <trkpt lat="48.88595" lon="1.96803">
        <ele>178</ele>
        <time>2022-10-03T12:30:00.262Z</time>
      </trkpt>
      <trkpt lat="48.88591" lon="1.96803">
        <ele>178</ele>
        <time>2022-10-03T12:30:04.284Z</time>
      </trkpt>
      <trkpt lat="48.88586" lon="1.96809">
        <ele>178</ele>
        <time>2022-10-03T12:30:09.259Z</time>
      </trkpt>
      <trkpt lat="48.8858" lon="1.96813">
        <ele>178</ele>
        <time>2022-10-03T12:30:14.251Z</time>
      </trkpt>
      <trkpt lat="48.88576" lon="1.96818">
        <ele>178</ele>
        <time>2022-10-03T12:30:18.259Z</time>
      </trkpt>
      <trkpt lat="48.8857" lon="1.96824">
        <ele>177</ele>
        <time>2022-10-03T12:30:23.231Z</time>
      </trkpt>
      <trkpt lat="48.88565" lon="1.96827">
        <ele>178</ele>
        <time>2022-10-03T12:30:27.236Z</time>
      </trkpt>
      <trkpt lat="48.88561" lon="1.96833">
        <ele>178</ele>
        <time>2022-10-03T12:30:32.242Z</time>
      </trkpt>
      <trkpt lat="48.88556" lon="1.96835">
        <ele>178</ele>
        <time>2022-10-03T12:30:37.227Z</time>
      </trkpt>
      <trkpt lat="48.88552" lon="1.96842">
        <ele>178</ele>
        <time>2022-10-03T12:30:42.224Z</time>
      </trkpt>
      <trkpt lat="48.88549" lon="1.96843">
        <ele>178</ele>
        <time>2022-10-03T12:30:46.226Z</time>
      </trkpt>
      <trkpt lat="48.88545" lon="1.96847">
        <ele>178</ele>
        <time>2022-10-03T12:30:50.234Z</time>
      </trkpt>
      <trkpt lat="48.88543" lon="1.96847">
        <ele>178</ele>
        <time>2022-10-03T12:30:55.236Z</time>
      </trkpt>
      <trkpt lat="48.88542" lon="1.96847">
        <ele>178</ele>
        <time>2022-10-03T12:31:04.233Z</time>
      </trkpt>
      <trkpt lat="48.88541" lon="1.96848">
        <ele>179</ele>
        <time>2022-10-03T12:31:09.234Z</time>
      </trkpt>
      <trkpt lat="48.88541" lon="1.9685">
        <ele>179</ele>
        <time>2022-10-03T12:31:14.230Z</time>
      </trkpt>
      <trkpt lat="48.88539" lon="1.96852">
        <ele>179</ele>
        <time>2022-10-03T12:31:18.228Z</time>
      </trkpt>
      <trkpt lat="48.88533" lon="1.96857">
        <ele>179</ele>
        <time>2022-10-03T12:31:22.232Z</time>
      </trkpt>
      <trkpt lat="48.8853" lon="1.96859">
        <ele>179</ele>
        <time>2022-10-03T12:31:27.234Z</time>
      </trkpt>
      <trkpt lat="48.88526" lon="1.96864">
        <ele>179</ele>
        <time>2022-10-03T12:31:31.272Z</time>
      </trkpt>
      <trkpt lat="48.88518" lon="1.96869">
        <ele>179</ele>
        <time>2022-10-03T12:31:36.234Z</time>
      </trkpt>
      <trkpt lat="48.88512" lon="1.96874">
        <ele>179</ele>
        <time>2022-10-03T12:31:41.248Z</time>
      </trkpt>
      <trkpt lat="48.88506" lon="1.96879">
        <ele>180</ele>
        <time>2022-10-03T12:31:46.245Z</time>
      </trkpt>
      <trkpt lat="48.885" lon="1.96885">
        <ele>180</ele>
        <time>2022-10-03T12:31:51.247Z</time>
      </trkpt>
      <trkpt lat="48.88493" lon="1.96891">
        <ele>180</ele>
        <time>2022-10-03T12:31:56.236Z</time>
      </trkpt>
      <trkpt lat="48.88489" lon="1.96893">
        <ele>180</ele>
        <time>2022-10-03T12:32:01.244Z</time>
      </trkpt>
      <trkpt lat="48.88486" lon="1.96898">
        <ele>180</ele>
        <time>2022-10-03T12:32:05.245Z</time>
      </trkpt>
      <trkpt lat="48.88481" lon="1.96901">
        <ele>180</ele>
        <time>2022-10-03T12:32:10.229Z</time>
      </trkpt>
      <trkpt lat="48.88474" lon="1.96902">
        <ele>180</ele>
        <time>2022-10-03T12:32:14.235Z</time>
      </trkpt>
      <trkpt lat="48.88468" lon="1.96904">
        <ele>179</ele>
        <time>2022-10-03T12:32:19.240Z</time>
      </trkpt>
      <trkpt lat="48.88461" lon="1.96906">
        <ele>179</ele>
        <time>2022-10-03T12:32:24.238Z</time>
      </trkpt>
      <trkpt lat="48.88453" lon="1.96907">
        <ele>181</ele>
        <time>2022-10-03T12:32:29.241Z</time>
      </trkpt>
      <trkpt lat="48.88446" lon="1.9691">
        <ele>181</ele>
        <time>2022-10-03T12:32:34.237Z</time>
      </trkpt>
      <trkpt lat="48.88441" lon="1.96912">
        <ele>181</ele>
        <time>2022-10-03T12:32:39.238Z</time>
      </trkpt>
      <trkpt lat="48.88433" lon="1.96914">
        <ele>181</ele>
        <time>2022-10-03T12:32:44.237Z</time>
      </trkpt>
      <trkpt lat="48.88428" lon="1.96916">
        <ele>180</ele>
        <time>2022-10-03T12:32:49.229Z</time>
      </trkpt>
      <trkpt lat="48.88419" lon="1.96918">
        <ele>180</ele>
        <time>2022-10-03T12:32:54.252Z</time>
      </trkpt>
      <trkpt lat="48.88411" lon="1.96921">
        <ele>180</ele>
        <time>2022-10-03T12:32:59.251Z</time>
      </trkpt>
      <trkpt lat="48.88406" lon="1.96923">
        <ele>180</ele>
        <time>2022-10-03T12:33:03.278Z</time>
      </trkpt>
      <trkpt lat="48.88399" lon="1.96927">
        <ele>178</ele>
        <time>2022-10-03T12:33:08.287Z</time>
      </trkpt>
      <trkpt lat="48.88393" lon="1.9693">
        <ele>178</ele>
        <time>2022-10-03T12:33:13.267Z</time>
      </trkpt>
      <trkpt lat="48.88386" lon="1.96934">
        <ele>176</ele>
        <time>2022-10-03T12:33:18.279Z</time>
      </trkpt>
      <trkpt lat="48.8838" lon="1.96939">
        <ele>176</ele>
        <time>2022-10-03T12:33:23.256Z</time>
      </trkpt>
      <trkpt lat="48.88374" lon="1.96941">
        <ele>176</ele>
        <time>2022-10-03T12:33:28.231Z</time>
      </trkpt>
      <trkpt lat="48.88368" lon="1.96943">
        <ele>176</ele>
        <time>2022-10-03T12:33:33.248Z</time>
      </trkpt>
      <trkpt lat="48.88362" lon="1.96947">
        <ele>176</ele>
        <time>2022-10-03T12:33:38.230Z</time>
      </trkpt>
      <trkpt lat="48.88357" lon="1.9695">
        <ele>176</ele>
        <time>2022-10-03T12:33:42.256Z</time>
      </trkpt>
      <trkpt lat="48.88351" lon="1.96952">
        <ele>176</ele>
        <time>2022-10-03T12:33:47.240Z</time>
      </trkpt>
      <trkpt lat="48.88345" lon="1.9695">
        <ele>176</ele>
        <time>2022-10-03T12:33:52.237Z</time>
      </trkpt>
      <trkpt lat="48.88341" lon="1.96956">
        <ele>176</ele>
        <time>2022-10-03T12:33:57.229Z</time>
      </trkpt>
      <trkpt lat="48.8834" lon="1.96958">
        <ele>176</ele>
        <time>2022-10-03T12:34:02.231Z</time>
      </trkpt>
      <trkpt lat="48.88333" lon="1.96962">
        <ele>176</ele>
        <time>2022-10-03T12:34:06.237Z</time>
      </trkpt>
      <trkpt lat="48.88327" lon="1.96967">
        <ele>176</ele>
        <time>2022-10-03T12:34:11.236Z</time>
      </trkpt>
      <trkpt lat="48.88326" lon="1.9697">
        <ele>176</ele>
        <time>2022-10-03T12:34:16.238Z</time>
      </trkpt>
      <trkpt lat="48.88321" lon="1.96974">
        <ele>176</ele>
        <time>2022-10-03T12:34:20.241Z</time>
      </trkpt>
      <trkpt lat="48.88315" lon="1.96983">
        <ele>177</ele>
        <time>2022-10-03T12:34:25.236Z</time>
      </trkpt>
      <trkpt lat="48.88309" lon="1.96988">
        <ele>176</ele>
        <time>2022-10-03T12:34:29.239Z</time>
      </trkpt>
      <trkpt lat="48.88302" lon="1.96993">
        <ele>176</ele>
        <time>2022-10-03T12:34:34.234Z</time>
      </trkpt>
      <trkpt lat="48.88297" lon="1.96997">
        <ele>176</ele>
        <time>2022-10-03T12:34:38.247Z</time>
      </trkpt>
      <trkpt lat="48.88291" lon="1.97002">
        <ele>177</ele>
        <time>2022-10-03T12:34:43.265Z</time>
      </trkpt>
      <trkpt lat="48.88285" lon="1.97005">
        <ele>177</ele>
        <time>2022-10-03T12:34:47.270Z</time>
      </trkpt>
      <trkpt lat="48.88279" lon="1.9701">
        <ele>177</ele>
        <time>2022-10-03T12:34:52.259Z</time>
      </trkpt>
      <trkpt lat="48.88271" lon="1.97015">
        <ele>177</ele>
        <time>2022-10-03T12:34:57.244Z</time>
      </trkpt>
      <trkpt lat="48.88265" lon="1.97021">
        <ele>177</ele>
        <time>2022-10-03T12:35:02.246Z</time>
      </trkpt>
      <trkpt lat="48.88259" lon="1.97024">
        <ele>177</ele>
        <time>2022-10-03T12:35:06.259Z</time>
      </trkpt>
      <trkpt lat="48.88255" lon="1.97026">
        <ele>177</ele>
        <time>2022-10-03T12:35:11.245Z</time>
      </trkpt>
      <trkpt lat="48.88248" lon="1.97032">
        <ele>177</ele>
        <time>2022-10-03T12:35:16.251Z</time>
      </trkpt>
      <trkpt lat="48.88244" lon="1.97035">
        <ele>177</ele>
        <time>2022-10-03T12:35:20.256Z</time>
      </trkpt>
      <trkpt lat="48.88241" lon="1.97039">
        <ele>177</ele>
        <time>2022-10-03T12:35:24.260Z</time>
      </trkpt>
      <trkpt lat="48.88236" lon="1.97045">
        <ele>178</ele>
        <time>2022-10-03T12:35:29.256Z</time>
      </trkpt>
      <trkpt lat="48.88232" lon="1.9705">
        <ele>178</ele>
        <time>2022-10-03T12:35:33.258Z</time>
      </trkpt>
      <trkpt lat="48.88226" lon="1.97056">
        <ele>178</ele>
        <time>2022-10-03T12:35:38.257Z</time>
      </trkpt>
      <trkpt lat="48.88221" lon="1.97064">
        <ele>178</ele>
        <time>2022-10-03T12:35:43.256Z</time>
      </trkpt>
      <trkpt lat="48.88216" lon="1.97071">
        <ele>179</ele>
        <time>2022-10-03T12:35:48.260Z</time>
      </trkpt>
      <trkpt lat="48.88208" lon="1.97079">
        <ele>179</ele>
        <time>2022-10-03T12:35:53.236Z</time>
      </trkpt>
      <trkpt lat="48.88202" lon="1.97082">
        <ele>176</ele>
        <time>2022-10-03T12:35:57.251Z</time>
      </trkpt>
      <trkpt lat="48.88197" lon="1.97086">
        <ele>176</ele>
        <time>2022-10-03T12:36:01.255Z</time>
      </trkpt>
      <trkpt lat="48.88191" lon="1.97092">
        <ele>176</ele>
        <time>2022-10-03T12:36:06.255Z</time>
      </trkpt>
      <trkpt lat="48.88186" lon="1.97097">
        <ele>176</ele>
        <time>2022-10-03T12:36:10.277Z</time>
      </trkpt>
      <trkpt lat="48.8818" lon="1.97105">
        <ele>175</ele>
        <time>2022-10-03T12:36:15.254Z</time>
      </trkpt>
      <trkpt lat="48.88175" lon="1.97109">
        <ele>175</ele>
        <time>2022-10-03T12:36:19.263Z</time>
      </trkpt>
      <trkpt lat="48.8817" lon="1.97117">
        <ele>175</ele>
        <time>2022-10-03T12:36:24.281Z</time>
      </trkpt>
      <trkpt lat="48.88168" lon="1.97126">
        <ele>176</ele>
        <time>2022-10-03T12:36:29.260Z</time>
      </trkpt>
      <trkpt lat="48.88165" lon="1.97138">
        <ele>176</ele>
        <time>2022-10-03T12:36:34.226Z</time>
      </trkpt>
      <trkpt lat="48.88161" lon="1.97146">
        <ele>176</ele>
        <time>2022-10-03T12:36:38.271Z</time>
      </trkpt>
      <trkpt lat="48.88156" lon="1.97153">
        <ele>178</ele>
        <time>2022-10-03T12:36:43.236Z</time>
      </trkpt>
      <trkpt lat="48.88152" lon="1.97158">
        <ele>173</ele>
        <time>2022-10-03T12:36:47.255Z</time>
      </trkpt>
      <trkpt lat="48.88147" lon="1.97164">
        <ele>173</ele>
        <time>2022-10-03T12:36:52.245Z</time>
      </trkpt>
      <trkpt lat="48.88142" lon="1.97169">
        <ele>173</ele>
        <time>2022-10-03T12:36:56.258Z</time>
      </trkpt>
      <trkpt lat="48.88141" lon="1.97171">
        <ele>173</ele>
        <time>2022-10-03T12:37:00.260Z</time>
      </trkpt>
      <trkpt lat="48.8814" lon="1.97172">
        <ele>173</ele>
        <time>2022-10-03T12:37:09.262Z</time>
      </trkpt>
      <trkpt lat="48.8814" lon="1.97173">
        <ele>173</ele>
        <time>2022-10-03T12:37:14.282Z</time>
      </trkpt>
      <trkpt lat="48.88141" lon="1.97174">
        <ele>173</ele>
        <time>2022-10-03T12:37:19.261Z</time>
      </trkpt>
      <trkpt lat="48.88141" lon="1.97176">
        <ele>173</ele>
        <time>2022-10-03T12:37:24.279Z</time>
      </trkpt>
      <trkpt lat="48.88132" lon="1.97189">
        <ele>173</ele>
        <time>2022-10-03T12:37:29.259Z</time>
      </trkpt>
      <trkpt lat="48.88128" lon="1.97197">
        <ele>173</ele>
        <time>2022-10-03T12:37:34.265Z</time>
      </trkpt>
      <trkpt lat="48.88123" lon="1.97205">
        <ele>170</ele>
        <time>2022-10-03T12:37:39.249Z</time>
      </trkpt>
      <trkpt lat="48.88121" lon="1.97213">
        <ele>172</ele>
        <time>2022-10-03T12:37:43.257Z</time>
      </trkpt>
      <trkpt lat="48.88118" lon="1.97219">
        <ele>172</ele>
        <time>2022-10-03T12:37:48.248Z</time>
      </trkpt>
      <trkpt lat="48.88116" lon="1.97225">
        <ele>172</ele>
        <time>2022-10-03T12:37:52.255Z</time>
      </trkpt>
      <trkpt lat="48.88113" lon="1.97232">
        <ele>172</ele>
        <time>2022-10-03T12:37:57.260Z</time>
      </trkpt>
      <trkpt lat="48.8811" lon="1.9724">
        <ele>173</ele>
        <time>2022-10-03T12:38:02.256Z</time>
      </trkpt>
      <trkpt lat="48.88105" lon="1.97249">
        <ele>173</ele>
        <time>2022-10-03T12:38:07.245Z</time>
      </trkpt>
      <trkpt lat="48.88101" lon="1.97255">
        <ele>173</ele>
        <time>2022-10-03T12:38:11.259Z</time>
      </trkpt>
      <trkpt lat="48.88097" lon="1.97262">
        <ele>175</ele>
        <time>2022-10-03T12:38:16.262Z</time>
      </trkpt>
      <trkpt lat="48.88092" lon="1.97268">
        <ele>174</ele>
        <time>2022-10-03T12:38:20.277Z</time>
      </trkpt>
      <trkpt lat="48.88088" lon="1.9727">
        <ele>174</ele>
        <time>2022-10-03T12:38:24.297Z</time>
      </trkpt>
      <trkpt lat="48.88082" lon="1.97275">
        <ele>174</ele>
        <time>2022-10-03T12:38:29.257Z</time>
      </trkpt>
      <trkpt lat="48.88076" lon="1.97281">
        <ele>174</ele>
        <time>2022-10-03T12:38:34.284Z</time>
      </trkpt>
      <trkpt lat="48.88071" lon="1.97285">
        <ele>174</ele>
        <time>2022-10-03T12:38:39.263Z</time>
      </trkpt>
      <trkpt lat="48.88064" lon="1.97289">
        <ele>176</ele>
        <time>2022-10-03T12:38:44.232Z</time>
      </trkpt>
      <trkpt lat="48.88059" lon="1.97292">
        <ele>175</ele>
        <time>2022-10-03T12:38:48.259Z</time>
      </trkpt>
      <trkpt lat="48.88052" lon="1.97295">
        <ele>175</ele>
        <time>2022-10-03T12:38:53.241Z</time>
      </trkpt>
      <trkpt lat="48.88047" lon="1.97295">
        <ele>175</ele>
        <time>2022-10-03T12:38:57.252Z</time>
      </trkpt>
      <trkpt lat="48.88041" lon="1.97298">
        <ele>178</ele>
        <time>2022-10-03T12:39:02.259Z</time>
      </trkpt>
      <trkpt lat="48.88035" lon="1.973">
        <ele>178</ele>
        <time>2022-10-03T12:39:07.253Z</time>
      </trkpt>
      <trkpt lat="48.88027" lon="1.97303">
        <ele>178</ele>
        <time>2022-10-03T12:39:12.229Z</time>
      </trkpt>
      <trkpt lat="48.88021" lon="1.97305">
        <ele>178</ele>
        <time>2022-10-03T12:39:16.246Z</time>
      </trkpt>
      <trkpt lat="48.88016" lon="1.97306">
        <ele>178</ele>
        <time>2022-10-03T12:39:20.267Z</time>
      </trkpt>
      <trkpt lat="48.88009" lon="1.97305">
        <ele>182</ele>
        <time>2022-10-03T12:39:25.247Z</time>
      </trkpt>
      <trkpt lat="48.88001" lon="1.97303">
        <ele>182</ele>
        <time>2022-10-03T12:39:30.270Z</time>
      </trkpt>
      <trkpt lat="48.87994" lon="1.973">
        <ele>182</ele>
        <time>2022-10-03T12:39:35.248Z</time>
      </trkpt>
      <trkpt lat="48.87989" lon="1.973">
        <ele>182</ele>
        <time>2022-10-03T12:39:39.264Z</time>
      </trkpt>
      <trkpt lat="48.87982" lon="1.97299">
        <ele>185</ele>
        <time>2022-10-03T12:39:44.253Z</time>
      </trkpt>
      <trkpt lat="48.87976" lon="1.97297">
        <ele>185</ele>
        <time>2022-10-03T12:39:49.265Z</time>
      </trkpt>
      <trkpt lat="48.87968" lon="1.97297">
        <ele>185</ele>
        <time>2022-10-03T12:39:54.282Z</time>
      </trkpt>
      <trkpt lat="48.8796" lon="1.97295">
        <ele>185</ele>
        <time>2022-10-03T12:39:59.254Z</time>
      </trkpt>
      <trkpt lat="48.87953" lon="1.97292">
        <ele>186</ele>
        <time>2022-10-03T12:40:04.284Z</time>
      </trkpt>
      <trkpt lat="48.87946" lon="1.9729">
        <ele>186</ele>
        <time>2022-10-03T12:40:09.254Z</time>
      </trkpt>
      <trkpt lat="48.87939" lon="1.9729">
        <ele>186</ele>
        <time>2022-10-03T12:40:14.267Z</time>
      </trkpt>
      <trkpt lat="48.87934" lon="1.97289">
        <ele>186</ele>
        <time>2022-10-03T12:40:18.294Z</time>
      </trkpt>
      <trkpt lat="48.87928" lon="1.97286">
        <ele>184</ele>
        <time>2022-10-03T12:40:23.254Z</time>
      </trkpt>
      <trkpt lat="48.8792" lon="1.97283">
        <ele>184</ele>
        <time>2022-10-03T12:40:28.279Z</time>
      </trkpt>
      <trkpt lat="48.87913" lon="1.97284">
        <ele>184</ele>
        <time>2022-10-03T12:40:33.257Z</time>
      </trkpt>
      <trkpt lat="48.87907" lon="1.97283">
        <ele>184</ele>
        <time>2022-10-03T12:40:38.274Z</time>
      </trkpt>
      <trkpt lat="48.879" lon="1.97282">
        <ele>184</ele>
        <time>2022-10-03T12:40:43.248Z</time>
      </trkpt>
      <trkpt lat="48.87895" lon="1.97282">
        <ele>184</ele>
        <time>2022-10-03T12:40:47.261Z</time>
      </trkpt>
      <trkpt lat="48.87888" lon="1.97282">
        <ele>184</ele>
        <time>2022-10-03T12:40:52.274Z</time>
      </trkpt>
      <trkpt lat="48.87882" lon="1.97278">
        <ele>184</ele>
        <time>2022-10-03T12:40:57.241Z</time>
      </trkpt>
      <trkpt lat="48.87875" lon="1.97279">
        <ele>186</ele>
        <time>2022-10-03T12:41:02.259Z</time>
      </trkpt>
      <trkpt lat="48.87869" lon="1.97282">
        <ele>186</ele>
        <time>2022-10-03T12:41:06.281Z</time>
      </trkpt>
      <trkpt lat="48.87863" lon="1.97283">
        <ele>186</ele>
        <time>2022-10-03T12:41:10.289Z</time>
      </trkpt>
      <trkpt lat="48.87854" lon="1.97286">
        <ele>186</ele>
        <time>2022-10-03T12:41:15.249Z</time>
      </trkpt>
      <trkpt lat="48.87849" lon="1.97289">
        <ele>186</ele>
        <time>2022-10-03T12:41:19.254Z</time>
      </trkpt>
      <trkpt lat="48.87845" lon="1.97299">
        <ele>186</ele>
        <time>2022-10-03T12:41:24.265Z</time>
      </trkpt>
      <trkpt lat="48.87843" lon="1.97306">
        <ele>186</ele>
        <time>2022-10-03T12:41:29.232Z</time>
      </trkpt>
      <trkpt lat="48.8784" lon="1.9731">
        <ele>186</ele>
        <time>2022-10-03T12:41:34.239Z</time>
      </trkpt>
      <trkpt lat="48.87839" lon="1.97315">
        <ele>186</ele>
        <time>2022-10-03T12:41:38.282Z</time>
      </trkpt>
      <trkpt lat="48.87835" lon="1.97314">
        <ele>186</ele>
        <time>2022-10-03T12:41:43.254Z</time>
      </trkpt>
      <trkpt lat="48.87832" lon="1.9732">
        <ele>185</ele>
        <time>2022-10-03T12:41:48.273Z</time>
      </trkpt>
      <trkpt lat="48.87829" lon="1.97324">
        <ele>185</ele>
        <time>2022-10-03T12:41:53.248Z</time>
      </trkpt>
      <trkpt lat="48.87826" lon="1.97326">
        <ele>185</ele>
        <time>2022-10-03T12:41:58.231Z</time>
      </trkpt>
      <trkpt lat="48.87822" lon="1.97327">
        <ele>185</ele>
        <time>2022-10-03T12:42:03.229Z</time>
      </trkpt>
      <trkpt lat="48.87816" lon="1.97325">
        <ele>185</ele>
        <time>2022-10-03T12:42:08.232Z</time>
      </trkpt>
      <trkpt lat="48.8781" lon="1.97326">
        <ele>185</ele>
        <time>2022-10-03T12:42:13.242Z</time>
      </trkpt>
      <trkpt lat="48.87803" lon="1.97328">
        <ele>185</ele>
        <time>2022-10-03T12:42:18.262Z</time>
      </trkpt>
      <trkpt lat="48.87797" lon="1.97329">
        <ele>185</ele>
        <time>2022-10-03T12:42:23.256Z</time>
      </trkpt>
      <trkpt lat="48.87792" lon="1.97329">
        <ele>185</ele>
        <time>2022-10-03T12:42:28.250Z</time>
      </trkpt>
      <trkpt lat="48.87785" lon="1.97329">
        <ele>187</ele>
        <time>2022-10-03T12:42:33.250Z</time>
      </trkpt>
      <trkpt lat="48.87778" lon="1.97333">
        <ele>187</ele>
        <time>2022-10-03T12:42:38.248Z</time>
      </trkpt>
      <trkpt lat="48.87771" lon="1.97334">
        <ele>187</ele>
        <time>2022-10-03T12:42:42.266Z</time>
      </trkpt>
      <trkpt lat="48.87764" lon="1.97337">
        <ele>187</ele>
        <time>2022-10-03T12:42:47.246Z</time>
      </trkpt>
      <trkpt lat="48.87757" lon="1.97337">
        <ele>187</ele>
        <time>2022-10-03T12:42:52.252Z</time>
      </trkpt>
      <trkpt lat="48.8775" lon="1.97338">
        <ele>187</ele>
        <time>2022-10-03T12:42:57.257Z</time>
      </trkpt>
      <trkpt lat="48.87744" lon="1.9734">
        <ele>187</ele>
        <time>2022-10-03T12:43:02.264Z</time>
      </trkpt>
      <trkpt lat="48.87737" lon="1.97339">
        <ele>187</ele>
        <time>2022-10-03T12:43:07.242Z</time>
      </trkpt>
      <trkpt lat="48.87732" lon="1.9734">
        <ele>187</ele>
        <time>2022-10-03T12:43:12.243Z</time>
      </trkpt>
      <trkpt lat="48.87726" lon="1.97341">
        <ele>187</ele>
        <time>2022-10-03T12:43:16.267Z</time>
      </trkpt>
      <trkpt lat="48.8772" lon="1.97343">
        <ele>187</ele>
        <time>2022-10-03T12:43:21.243Z</time>
      </trkpt>
      <trkpt lat="48.87712" lon="1.97343">
        <ele>187</ele>
        <time>2022-10-03T12:43:26.252Z</time>
      </trkpt>
      <trkpt lat="48.87708" lon="1.97344">
        <ele>186</ele>
        <time>2022-10-03T12:43:30.281Z</time>
      </trkpt>
      <trkpt lat="48.87702" lon="1.97344">
        <ele>186</ele>
        <time>2022-10-03T12:43:35.253Z</time>
      </trkpt>
      <trkpt lat="48.87695" lon="1.97347">
        <ele>186</ele>
        <time>2022-10-03T12:43:40.253Z</time>
      </trkpt>
      <trkpt lat="48.8769" lon="1.97347">
        <ele>186</ele>
        <time>2022-10-03T12:43:45.248Z</time>
      </trkpt>
      <trkpt lat="48.87683" lon="1.97347">
        <ele>187</ele>
        <time>2022-10-03T12:43:50.254Z</time>
      </trkpt>
      <trkpt lat="48.87677" lon="1.97348">
        <ele>184</ele>
        <time>2022-10-03T12:43:55.248Z</time>
      </trkpt>
      <trkpt lat="48.87668" lon="1.97347">
        <ele>184</ele>
        <time>2022-10-03T12:44:00.264Z</time>
      </trkpt>
      <trkpt lat="48.87659" lon="1.97347">
        <ele>184</ele>
        <time>2022-10-03T12:44:05.261Z</time>
      </trkpt>
      <trkpt lat="48.87654" lon="1.97345">
        <ele>184</ele>
        <time>2022-10-03T12:44:09.260Z</time>
      </trkpt>
      <trkpt lat="48.87649" lon="1.97341">
        <ele>180</ele>
        <time>2022-10-03T12:44:14.254Z</time>
      </trkpt>
      <trkpt lat="48.87644" lon="1.97339">
        <ele>180</ele>
        <time>2022-10-03T12:44:18.268Z</time>
      </trkpt>
      <trkpt lat="48.87638" lon="1.97334">
        <ele>180</ele>
        <time>2022-10-03T12:44:23.252Z</time>
      </trkpt>
      <trkpt lat="48.87632" lon="1.9733">
        <ele>180</ele>
        <time>2022-10-03T12:44:27.251Z</time>
      </trkpt>
      <trkpt lat="48.87625" lon="1.97325">
        <ele>174</ele>
        <time>2022-10-03T12:44:32.263Z</time>
      </trkpt>
      <trkpt lat="48.8762" lon="1.97321">
        <ele>174</ele>
        <time>2022-10-03T12:44:36.266Z</time>
      </trkpt>
      <trkpt lat="48.87614" lon="1.97317">
        <ele>174</ele>
        <time>2022-10-03T12:44:41.256Z</time>
      </trkpt>
      <trkpt lat="48.87609" lon="1.97312">
        <ele>174</ele>
        <time>2022-10-03T12:44:46.263Z</time>
      </trkpt>
      <trkpt lat="48.87606" lon="1.97306">
        <ele>174</ele>
        <time>2022-10-03T12:44:51.229Z</time>
      </trkpt>
      <trkpt lat="48.876" lon="1.97301">
        <ele>174</ele>
        <time>2022-10-03T12:44:56.236Z</time>
      </trkpt>
      <trkpt lat="48.87595" lon="1.97296">
        <ele>167</ele>
        <time>2022-10-03T12:45:01.230Z</time>
      </trkpt>
      <trkpt lat="48.87587" lon="1.97293">
        <ele>167</ele>
        <time>2022-10-03T12:45:06.226Z</time>
      </trkpt>
      <trkpt lat="48.87578" lon="1.97295">
        <ele>167</ele>
        <time>2022-10-03T12:45:11.246Z</time>
      </trkpt>
      <trkpt lat="48.87573" lon="1.97301">
        <ele>167</ele>
        <time>2022-10-03T12:45:16.229Z</time>
      </trkpt>
      <trkpt lat="48.87568" lon="1.97307">
        <ele>163</ele>
        <time>2022-10-03T12:45:21.235Z</time>
      </trkpt>
      <trkpt lat="48.87563" lon="1.97313">
        <ele>163</ele>
        <time>2022-10-03T12:45:26.229Z</time>
      </trkpt>
      <trkpt lat="48.87557" lon="1.9732">
        <ele>164</ele>
        <time>2022-10-03T12:45:31.235Z</time>
      </trkpt>
      <trkpt lat="48.87551" lon="1.97328">
        <ele>164</ele>
        <time>2022-10-03T12:45:36.237Z</time>
      </trkpt>
      <trkpt lat="48.87546" lon="1.97334">
        <ele>164</ele>
        <time>2022-10-03T12:45:41.228Z</time>
      </trkpt>
      <trkpt lat="48.8754" lon="1.97337">
        <ele>159</ele>
        <time>2022-10-03T12:45:45.235Z</time>
      </trkpt>
      <trkpt lat="48.87536" lon="1.97344">
        <ele>159</ele>
        <time>2022-10-03T12:45:50.236Z</time>
      </trkpt>
      <trkpt lat="48.87529" lon="1.9735">
        <ele>162</ele>
        <time>2022-10-03T12:45:55.235Z</time>
      </trkpt>
      <trkpt lat="48.87524" lon="1.97354">
        <ele>162</ele>
        <time>2022-10-03T12:46:00.235Z</time>
      </trkpt>
      <trkpt lat="48.87519" lon="1.97357">
        <ele>162</ele>
        <time>2022-10-03T12:46:05.234Z</time>
      </trkpt>
      <trkpt lat="48.87513" lon="1.9736">
        <ele>156</ele>
        <time>2022-10-03T12:46:10.223Z</time>
      </trkpt>
      <trkpt lat="48.87506" lon="1.97361">
        <ele>156</ele>
        <time>2022-10-03T12:46:14.232Z</time>
      </trkpt>
      <trkpt lat="48.875" lon="1.97363">
        <ele>156</ele>
        <time>2022-10-03T12:46:19.235Z</time>
      </trkpt>
      <trkpt lat="48.87493" lon="1.97364">
        <ele>156</ele>
        <time>2022-10-03T12:46:24.240Z</time>
      </trkpt>
      <trkpt lat="48.87487" lon="1.97364">
        <ele>156</ele>
        <time>2022-10-03T12:46:28.274Z</time>
      </trkpt>
      <trkpt lat="48.87479" lon="1.97364">
        <ele>152</ele>
        <time>2022-10-03T12:46:33.230Z</time>
      </trkpt>
      <trkpt lat="48.87474" lon="1.97363">
        <ele>152</ele>
        <time>2022-10-03T12:46:37.239Z</time>
      </trkpt>
      <trkpt lat="48.8747" lon="1.97363">
        <ele>152</ele>
        <time>2022-10-03T12:46:41.257Z</time>
      </trkpt>
      <trkpt lat="48.87465" lon="1.97363">
        <ele>152</ele>
        <time>2022-10-03T12:46:46.225Z</time>
      </trkpt>
      <trkpt lat="48.87461" lon="1.97361">
        <ele>152</ele>
        <time>2022-10-03T12:46:50.265Z</time>
      </trkpt>
      <trkpt lat="48.87456" lon="1.97361">
        <ele>152</ele>
        <time>2022-10-03T12:46:55.241Z</time>
      </trkpt>
      <trkpt lat="48.87451" lon="1.9736">
        <ele>152</ele>
        <time>2022-10-03T12:46:59.251Z</time>
      </trkpt>
      <trkpt lat="48.87444" lon="1.97359">
        <ele>152</ele>
        <time>2022-10-03T12:47:04.263Z</time>
      </trkpt>
      <trkpt lat="48.87436" lon="1.97359">
        <ele>152</ele>
        <time>2022-10-03T12:47:09.245Z</time>
      </trkpt>
      <trkpt lat="48.8743" lon="1.97358">
        <ele>151</ele>
        <time>2022-10-03T12:47:13.254Z</time>
      </trkpt>
      <trkpt lat="48.87424" lon="1.97359">
        <ele>151</ele>
        <time>2022-10-03T12:47:18.258Z</time>
      </trkpt>
      <trkpt lat="48.87418" lon="1.97359">
        <ele>151</ele>
        <time>2022-10-03T12:47:23.263Z</time>
      </trkpt>
      <trkpt lat="48.87414" lon="1.97359">
        <ele>151</ele>
        <time>2022-10-03T12:47:27.261Z</time>
      </trkpt>
      <trkpt lat="48.87408" lon="1.9736">
        <ele>151</ele>
        <time>2022-10-03T12:47:32.241Z</time>
      </trkpt>
      <trkpt lat="48.87403" lon="1.97358">
        <ele>151</ele>
        <time>2022-10-03T12:47:36.287Z</time>
      </trkpt>
      <trkpt lat="48.87397" lon="1.97356">
        <ele>149</ele>
        <time>2022-10-03T12:47:41.258Z</time>
      </trkpt>
      <trkpt lat="48.87391" lon="1.97353">
        <ele>149</ele>
        <time>2022-10-03T12:47:46.265Z</time>
      </trkpt>
      <trkpt lat="48.87384" lon="1.97348">
        <ele>149</ele>
        <time>2022-10-03T12:47:51.259Z</time>
      </trkpt>
      <trkpt lat="48.87379" lon="1.97341">
        <ele>148</ele>
        <time>2022-10-03T12:47:56.246Z</time>
      </trkpt>
      <trkpt lat="48.87374" lon="1.97336">
        <ele>146</ele>
        <time>2022-10-03T12:48:01.246Z</time>
      </trkpt>
      <trkpt lat="48.87368" lon="1.97333">
        <ele>146</ele>
        <time>2022-10-03T12:48:05.271Z</time>
      </trkpt>
      <trkpt lat="48.87364" lon="1.97327">
        <ele>146</ele>
        <time>2022-10-03T12:48:10.254Z</time>
      </trkpt>
      <trkpt lat="48.87361" lon="1.97323">
        <ele>146</ele>
        <time>2022-10-03T12:48:14.276Z</time>
      </trkpt>
      <trkpt lat="48.87356" lon="1.97316">
        <ele>146</ele>
        <time>2022-10-03T12:48:19.256Z</time>
      </trkpt>
      <trkpt lat="48.87348" lon="1.97312">
        <ele>146</ele>
        <time>2022-10-03T12:48:24.257Z</time>
      </trkpt>
      <trkpt lat="48.87343" lon="1.97305">
        <ele>145</ele>
        <time>2022-10-03T12:48:29.255Z</time>
      </trkpt>
      <trkpt lat="48.87337" lon="1.97301">
        <ele>145</ele>
        <time>2022-10-03T12:48:34.285Z</time>
      </trkpt>
      <trkpt lat="48.87331" lon="1.97294">
        <ele>145</ele>
        <time>2022-10-03T12:48:39.253Z</time>
      </trkpt>
      <trkpt lat="48.87326" lon="1.97289">
        <ele>146</ele>
        <time>2022-10-03T12:48:43.264Z</time>
      </trkpt>
      <trkpt lat="48.87319" lon="1.97285">
        <ele>144</ele>
        <time>2022-10-03T12:48:48.295Z</time>
      </trkpt>
      <trkpt lat="48.87312" lon="1.97283">
        <ele>144</ele>
        <time>2022-10-03T12:48:53.261Z</time>
      </trkpt>
      <trkpt lat="48.87306" lon="1.97279">
        <ele>144</ele>
        <time>2022-10-03T12:48:58.247Z</time>
      </trkpt>
      <trkpt lat="48.87301" lon="1.97274">
        <ele>144</ele>
        <time>2022-10-03T12:49:03.243Z</time>
      </trkpt>
      <trkpt lat="48.87295" lon="1.97267">
        <ele>144</ele>
        <time>2022-10-03T12:49:08.243Z</time>
      </trkpt>
      <trkpt lat="48.87289" lon="1.97264">
        <ele>143</ele>
        <time>2022-10-03T12:49:13.238Z</time>
      </trkpt>
      <trkpt lat="48.87281" lon="1.97263">
        <ele>143</ele>
        <time>2022-10-03T12:49:18.225Z</time>
      </trkpt>
      <trkpt lat="48.87276" lon="1.97262">
        <ele>143</ele>
        <time>2022-10-03T12:49:22.225Z</time>
      </trkpt>
      <trkpt lat="48.87273" lon="1.97261">
        <ele>143</ele>
        <time>2022-10-03T12:49:27.222Z</time>
      </trkpt>
      <trkpt lat="48.87271" lon="1.97262">
        <ele>143</ele>
        <time>2022-10-03T12:49:32.227Z</time>
      </trkpt>
      <trkpt lat="48.87271" lon="1.9726">
        <ele>143</ele>
        <time>2022-10-03T12:49:37.234Z</time>
      </trkpt>
      <trkpt lat="48.8727" lon="1.97249">
        <ele>143</ele>
        <time>2022-10-03T12:49:42.223Z</time>
      </trkpt>
      <trkpt lat="48.87271" lon="1.97238">
        <ele>143</ele>
        <time>2022-10-03T12:49:47.232Z</time>
      </trkpt>
      <trkpt lat="48.87271" lon="1.97232">
        <ele>144</ele>
        <time>2022-10-03T12:49:51.234Z</time>
      </trkpt>
      <trkpt lat="48.87271" lon="1.97221">
        <ele>144</ele>
        <time>2022-10-03T12:49:56.227Z</time>
      </trkpt>
      <trkpt lat="48.87273" lon="1.97214">
        <ele>144</ele>
        <time>2022-10-03T12:50:00.226Z</time>
      </trkpt>
      <trkpt lat="48.87272" lon="1.97212">
        <ele>144</ele>
        <time>2022-10-03T12:50:05.226Z</time>
      </trkpt>
      <trkpt lat="48.87268" lon="1.97207">
        <ele>144</ele>
        <time>2022-10-03T12:50:10.226Z</time>
      </trkpt>
      <trkpt lat="48.87269" lon="1.97203">
        <ele>144</ele>
        <time>2022-10-03T12:51:36.247Z</time>
      </trkpt>
      <trkpt lat="48.87269" lon="1.97202">
        <ele>144</ele>
        <time>2022-10-03T12:51:40.258Z</time>
      </trkpt>
      <trkpt lat="48.87271" lon="1.97198">
        <ele>144</ele>
        <time>2022-10-03T12:51:44.269Z</time>
      </trkpt>
      <trkpt lat="48.87273" lon="1.97193">
        <ele>144</ele>
        <time>2022-10-03T12:51:49.255Z</time>
      </trkpt>
      <trkpt lat="48.87278" lon="1.97192">
        <ele>144</ele>
        <time>2022-10-03T12:51:54.238Z</time>
      </trkpt>
      <trkpt lat="48.87277" lon="1.97196">
        <ele>144</ele>
        <time>2022-10-03T12:51:58.240Z</time>
      </trkpt>
      <trkpt lat="48.87275" lon="1.97201">
        <ele>144</ele>
        <time>2022-10-03T12:52:02.244Z</time>
      </trkpt>
      <trkpt lat="48.87271" lon="1.97204">
        <ele>144</ele>
        <time>2022-10-03T12:52:06.258Z</time>
      </trkpt>
      <trkpt lat="48.8727" lon="1.97204">
        <ele>144</ele>
        <time>2022-10-03T12:52:11.239Z</time>
      </trkpt>
      <trkpt lat="48.87269" lon="1.97204">
        <ele>144</ele>
        <time>2022-10-03T12:52:15.258Z</time>
      </trkpt>
      <trkpt lat="48.87271" lon="1.97212">
        <ele>144</ele>
        <time>2022-10-03T12:52:44.235Z</time>
      </trkpt>
      <trkpt lat="48.87273" lon="1.97214">
        <ele>144</ele>
        <time>2022-10-03T12:52:48.243Z</time>
      </trkpt>
      <trkpt lat="48.87273" lon="1.97219">
        <ele>144</ele>
        <time>2022-10-03T12:52:52.255Z</time>
      </trkpt>
      <trkpt lat="48.87273" lon="1.97227">
        <ele>144</ele>
        <time>2022-10-03T12:52:56.265Z</time>
      </trkpt>
      <trkpt lat="48.87273" lon="1.97238">
        <ele>143</ele>
        <time>2022-10-03T12:53:01.273Z</time>
      </trkpt>
      <trkpt lat="48.87272" lon="1.97248">
        <ele>143</ele>
        <time>2022-10-03T12:53:06.264Z</time>
      </trkpt>
      <trkpt lat="48.87272" lon="1.97257">
        <ele>143</ele>
        <time>2022-10-03T12:53:11.260Z</time>
      </trkpt>
      <trkpt lat="48.87275" lon="1.97257">
        <ele>143</ele>
        <time>2022-10-03T12:53:16.272Z</time>
      </trkpt>
      <trkpt lat="48.87279" lon="1.9726">
        <ele>143</ele>
        <time>2022-10-03T12:53:20.288Z</time>
      </trkpt>
      <trkpt lat="48.87285" lon="1.97265">
        <ele>142</ele>
        <time>2022-10-03T12:53:25.268Z</time>
      </trkpt>
      <trkpt lat="48.87289" lon="1.9727">
        <ele>142</ele>
        <time>2022-10-03T12:53:30.276Z</time>
      </trkpt>
      <trkpt lat="48.87295" lon="1.97276">
        <ele>144</ele>
        <time>2022-10-03T12:53:35.266Z</time>
      </trkpt>
      <trkpt lat="48.87299" lon="1.97284">
        <ele>144</ele>
        <time>2022-10-03T12:53:40.280Z</time>
      </trkpt>
      <trkpt lat="48.87299" lon="1.97294">
        <ele>144</ele>
        <time>2022-10-03T12:53:45.260Z</time>
      </trkpt>
      <trkpt lat="48.87298" lon="1.97302">
        <ele>144</ele>
        <time>2022-10-03T12:53:50.227Z</time>
      </trkpt>
      <trkpt lat="48.87297" lon="1.97312">
        <ele>144</ele>
        <time>2022-10-03T12:53:54.270Z</time>
      </trkpt>
      <trkpt lat="48.87297" lon="1.97321">
        <ele>144</ele>
        <time>2022-10-03T12:53:59.231Z</time>
      </trkpt>
      <trkpt lat="48.87296" lon="1.9733">
        <ele>144</ele>
        <time>2022-10-03T12:54:03.265Z</time>
      </trkpt>
      <trkpt lat="48.87294" lon="1.97341">
        <ele>144</ele>
        <time>2022-10-03T12:54:08.255Z</time>
      </trkpt>
      <trkpt lat="48.87293" lon="1.97349">
        <ele>144</ele>
        <time>2022-10-03T12:54:12.246Z</time>
      </trkpt>
      <trkpt lat="48.87292" lon="1.97357">
        <ele>144</ele>
        <time>2022-10-03T12:54:16.269Z</time>
      </trkpt>
      <trkpt lat="48.87293" lon="1.97365">
        <ele>144</ele>
        <time>2022-10-03T12:54:20.302Z</time>
      </trkpt>
      <trkpt lat="48.87292" lon="1.97376">
        <ele>144</ele>
        <time>2022-10-03T12:54:25.260Z</time>
      </trkpt>
      <trkpt lat="48.87291" lon="1.97383">
        <ele>142</ele>
        <time>2022-10-03T12:54:29.269Z</time>
      </trkpt>
      <trkpt lat="48.8729" lon="1.97392">
        <ele>142</ele>
        <time>2022-10-03T12:54:34.259Z</time>
      </trkpt>
      <trkpt lat="48.87291" lon="1.97399">
        <ele>142</ele>
        <time>2022-10-03T12:54:38.283Z</time>
      </trkpt>
      <trkpt lat="48.87291" lon="1.97409">
        <ele>142</ele>
        <time>2022-10-03T12:54:43.260Z</time>
      </trkpt>
      <trkpt lat="48.8729" lon="1.97418">
        <ele>142</ele>
        <time>2022-10-03T12:54:47.256Z</time>
      </trkpt>
      <trkpt lat="48.87288" lon="1.97427">
        <ele>142</ele>
        <time>2022-10-03T12:54:52.257Z</time>
      </trkpt>
      <trkpt lat="48.87286" lon="1.97434">
        <ele>142</ele>
        <time>2022-10-03T12:54:56.263Z</time>
      </trkpt>
      <trkpt lat="48.87285" lon="1.97443">
        <ele>142</ele>
        <time>2022-10-03T12:55:01.249Z</time>
      </trkpt>
      <trkpt lat="48.87285" lon="1.97451">
        <ele>142</ele>
        <time>2022-10-03T12:55:05.262Z</time>
      </trkpt>
      <trkpt lat="48.87282" lon="1.97461">
        <ele>142</ele>
        <time>2022-10-03T12:55:10.269Z</time>
      </trkpt>
      <trkpt lat="48.87278" lon="1.97472">
        <ele>142</ele>
        <time>2022-10-03T12:55:15.263Z</time>
      </trkpt>
      <trkpt lat="48.87276" lon="1.97478">
        <ele>142</ele>
        <time>2022-10-03T12:55:19.262Z</time>
      </trkpt>
      <trkpt lat="48.87271" lon="1.97485">
        <ele>142</ele>
        <time>2022-10-03T12:55:24.270Z</time>
      </trkpt>
      <trkpt lat="48.87266" lon="1.97493">
        <ele>142</ele>
        <time>2022-10-03T12:55:29.267Z</time>
      </trkpt>
      <trkpt lat="48.8726" lon="1.97499">
        <ele>140</ele>
        <time>2022-10-03T12:55:34.272Z</time>
      </trkpt>
      <trkpt lat="48.87256" lon="1.97507">
        <ele>140</ele>
        <time>2022-10-03T12:55:39.236Z</time>
      </trkpt>
      <trkpt lat="48.87252" lon="1.97513">
        <ele>140</ele>
        <time>2022-10-03T12:55:43.254Z</time>
      </trkpt>
      <trkpt lat="48.87247" lon="1.9752">
        <ele>140</ele>
        <time>2022-10-03T12:55:48.242Z</time>
      </trkpt>
      <trkpt lat="48.87243" lon="1.97526">
        <ele>140</ele>
        <time>2022-10-03T12:55:52.246Z</time>
      </trkpt>
      <trkpt lat="48.8724" lon="1.97533">
        <ele>140</ele>
        <time>2022-10-03T12:55:56.253Z</time>
      </trkpt>
      <trkpt lat="48.87236" lon="1.97542">
        <ele>140</ele>
        <time>2022-10-03T12:56:00.268Z</time>
      </trkpt>
      <trkpt lat="48.87234" lon="1.9755">
        <ele>136</ele>
        <time>2022-10-03T12:56:04.279Z</time>
      </trkpt>
      <trkpt lat="48.87232" lon="1.97559">
        <ele>136</ele>
        <time>2022-10-03T12:56:09.285Z</time>
      </trkpt>
      <trkpt lat="48.87229" lon="1.97568">
        <ele>136</ele>
        <time>2022-10-03T12:56:14.275Z</time>
      </trkpt>
      <trkpt lat="48.87227" lon="1.9758">
        <ele>136</ele>
        <time>2022-10-03T12:56:19.280Z</time>
      </trkpt>
      <trkpt lat="48.87224" lon="1.97591">
        <ele>136</ele>
        <time>2022-10-03T12:56:24.248Z</time>
      </trkpt>
      <trkpt lat="48.87223" lon="1.97598">
        <ele>136</ele>
        <time>2022-10-03T12:56:29.250Z</time>
      </trkpt>
      <trkpt lat="48.87221" lon="1.97605">
        <ele>136</ele>
        <time>2022-10-03T12:56:33.260Z</time>
      </trkpt>
      <trkpt lat="48.87218" lon="1.97614">
        <ele>136</ele>
        <time>2022-10-03T12:56:37.267Z</time>
      </trkpt>
      <trkpt lat="48.87216" lon="1.97624">
        <ele>136</ele>
        <time>2022-10-03T12:56:42.232Z</time>
      </trkpt>
      <trkpt lat="48.87216" lon="1.97633">
        <ele>137</ele>
        <time>2022-10-03T12:56:46.268Z</time>
      </trkpt>
      <trkpt lat="48.87216" lon="1.97642">
        <ele>137</ele>
        <time>2022-10-03T12:56:50.276Z</time>
      </trkpt>
      <trkpt lat="48.87213" lon="1.9765">
        <ele>137</ele>
        <time>2022-10-03T12:56:55.250Z</time>
      </trkpt>
      <trkpt lat="48.8721" lon="1.9766">
        <ele>138</ele>
        <time>2022-10-03T12:57:00.268Z</time>
      </trkpt>
      <trkpt lat="48.87207" lon="1.97669">
        <ele>135</ele>
        <time>2022-10-03T12:57:05.271Z</time>
      </trkpt>
      <trkpt lat="48.87202" lon="1.97677">
        <ele>135</ele>
        <time>2022-10-03T12:57:10.272Z</time>
      </trkpt>
      <trkpt lat="48.87197" lon="1.97686">
        <ele>135</ele>
        <time>2022-10-03T12:57:15.279Z</time>
      </trkpt>
      <trkpt lat="48.87193" lon="1.97693">
        <ele>135</ele>
        <time>2022-10-03T12:57:19.287Z</time>
      </trkpt>
      <trkpt lat="48.87189" lon="1.97696">
        <ele>135</ele>
        <time>2022-10-03T12:57:24.236Z</time>
      </trkpt>
      <trkpt lat="48.87189" lon="1.97697">
        <ele>135</ele>
        <time>2022-10-03T12:57:29.246Z</time>
      </trkpt>
      <trkpt lat="48.87189" lon="1.97697">
        <ele>135</ele>
        <time>2022-10-03T12:57:34.262Z</time>
      </trkpt>
      <trkpt lat="48.87189" lon="1.977">
        <ele>135</ele>
        <time>2022-10-03T12:57:38.274Z</time>
      </trkpt>
      <trkpt lat="48.87186" lon="1.97708">
        <ele>135</ele>
        <time>2022-10-03T12:57:43.283Z</time>
      </trkpt>
      <trkpt lat="48.87182" lon="1.97716">
        <ele>135</ele>
        <time>2022-10-03T12:57:48.264Z</time>
      </trkpt>
      <trkpt lat="48.87179" lon="1.97722">
        <ele>132</ele>
        <time>2022-10-03T12:57:53.269Z</time>
      </trkpt>
      <trkpt lat="48.87176" lon="1.97731">
        <ele>132</ele>
        <time>2022-10-03T12:57:58.269Z</time>
      </trkpt>
      <trkpt lat="48.87172" lon="1.97738">
        <ele>131</ele>
        <time>2022-10-03T12:58:03.276Z</time>
      </trkpt>
      <trkpt lat="48.87168" lon="1.97744">
        <ele>131</ele>
        <time>2022-10-03T12:58:08.271Z</time>
      </trkpt>
      <trkpt lat="48.87164" lon="1.97753">
        <ele>131</ele>
        <time>2022-10-03T12:58:13.267Z</time>
      </trkpt>
      <trkpt lat="48.87162" lon="1.97761">
        <ele>131</ele>
        <time>2022-10-03T12:58:17.286Z</time>
      </trkpt>
      <trkpt lat="48.87159" lon="1.97772">
        <ele>131</ele>
        <time>2022-10-03T12:58:22.250Z</time>
      </trkpt>
      <trkpt lat="48.87158" lon="1.97781">
        <ele>131</ele>
        <time>2022-10-03T12:58:26.272Z</time>
      </trkpt>
      <trkpt lat="48.87155" lon="1.97791">
        <ele>131</ele>
        <time>2022-10-03T12:58:31.280Z</time>
      </trkpt>
      <trkpt lat="48.87153" lon="1.97802">
        <ele>128</ele>
        <time>2022-10-03T12:58:36.276Z</time>
      </trkpt>
      <trkpt lat="48.87151" lon="1.9781">
        <ele>128</ele>
        <time>2022-10-03T12:58:40.279Z</time>
      </trkpt>
      <trkpt lat="48.87148" lon="1.9782">
        <ele>127</ele>
        <time>2022-10-03T12:58:45.235Z</time>
      </trkpt>
      <trkpt lat="48.87146" lon="1.97828">
        <ele>127</ele>
        <time>2022-10-03T12:58:49.247Z</time>
      </trkpt>
      <trkpt lat="48.87145" lon="1.97839">
        <ele>127</ele>
        <time>2022-10-03T12:58:54.260Z</time>
      </trkpt>
      <trkpt lat="48.87143" lon="1.97848">
        <ele>127</ele>
        <time>2022-10-03T12:58:58.273Z</time>
      </trkpt>
      <trkpt lat="48.8714" lon="1.97857">
        <ele>127</ele>
        <time>2022-10-03T12:59:03.272Z</time>
      </trkpt>
      <trkpt lat="48.87137" lon="1.97867">
        <ele>127</ele>
        <time>2022-10-03T12:59:08.229Z</time>
      </trkpt>
      <trkpt lat="48.87135" lon="1.97876">
        <ele>127</ele>
        <time>2022-10-03T12:59:12.234Z</time>
      </trkpt>
      <trkpt lat="48.87134" lon="1.97884">
        <ele>127</ele>
        <time>2022-10-03T12:59:16.282Z</time>
      </trkpt>
      <trkpt lat="48.87132" lon="1.97895">
        <ele>127</ele>
        <time>2022-10-03T12:59:21.243Z</time>
      </trkpt>
      <trkpt lat="48.8713" lon="1.97902">
        <ele>127</ele>
        <time>2022-10-03T12:59:25.261Z</time>
      </trkpt>
      <trkpt lat="48.87128" lon="1.97908">
        <ele>127</ele>
        <time>2022-10-03T12:59:29.271Z</time>
      </trkpt>
      <trkpt lat="48.87127" lon="1.97916">
        <ele>127</ele>
        <time>2022-10-03T12:59:33.263Z</time>
      </trkpt>
      <trkpt lat="48.87125" lon="1.97928">
        <ele>125</ele>
        <time>2022-10-03T12:59:38.288Z</time>
      </trkpt>
      <trkpt lat="48.87123" lon="1.97939">
        <ele>125</ele>
        <time>2022-10-03T12:59:43.279Z</time>
      </trkpt>
      <trkpt lat="48.87123" lon="1.97949">
        <ele>125</ele>
        <time>2022-10-03T12:59:48.264Z</time>
      </trkpt>
      <trkpt lat="48.87124" lon="1.97957">
        <ele>125</ele>
        <time>2022-10-03T12:59:53.260Z</time>
      </trkpt>
      <trkpt lat="48.87125" lon="1.97966">
        <ele>128</ele>
        <time>2022-10-03T12:59:58.250Z</time>
      </trkpt>
      <trkpt lat="48.87124" lon="1.97975">
        <ele>125</ele>
        <time>2022-10-03T13:00:02.254Z</time>
      </trkpt>
      <trkpt lat="48.87123" lon="1.97986">
        <ele>125</ele>
        <time>2022-10-03T13:00:07.248Z</time>
      </trkpt>
      <trkpt lat="48.87123" lon="1.97993">
        <ele>125</ele>
        <time>2022-10-03T13:00:11.262Z</time>
      </trkpt>
      <trkpt lat="48.87122" lon="1.98">
        <ele>125</ele>
        <time>2022-10-03T13:00:16.229Z</time>
      </trkpt>
      <trkpt lat="48.87121" lon="1.98007">
        <ele>125</ele>
        <time>2022-10-03T13:00:20.252Z</time>
      </trkpt>
      <trkpt lat="48.87118" lon="1.98012">
        <ele>125</ele>
        <time>2022-10-03T13:00:24.253Z</time>
      </trkpt>
      <trkpt lat="48.87117" lon="1.98016">
        <ele>124</ele>
        <time>2022-10-03T13:00:28.273Z</time>
      </trkpt>
      <trkpt lat="48.87118" lon="1.98019">
        <ele>124</ele>
        <time>2022-10-03T13:00:37.276Z</time>
      </trkpt>
      <trkpt lat="48.87122" lon="1.98015">
        <ele>124</ele>
        <time>2022-10-03T13:00:42.250Z</time>
      </trkpt>
      <trkpt lat="48.87122" lon="1.98014">
        <ele>124</ele>
        <time>2022-10-03T13:00:47.257Z</time>
      </trkpt>
      <trkpt lat="48.87123" lon="1.98011">
        <ele>125</ele>
        <time>2022-10-03T13:00:51.263Z</time>
      </trkpt>
      <trkpt lat="48.87127" lon="1.98014">
        <ele>127</ele>
        <time>2022-10-03T13:00:56.243Z</time>
      </trkpt>
      <trkpt lat="48.87132" lon="1.98016">
        <ele>126</ele>
        <time>2022-10-03T13:01:01.252Z</time>
      </trkpt>
      <trkpt lat="48.87138" lon="1.98019">
        <ele>126</ele>
        <time>2022-10-03T13:01:06.245Z</time>
      </trkpt>
      <trkpt lat="48.87143" lon="1.98021">
        <ele>126</ele>
        <time>2022-10-03T13:01:11.238Z</time>
      </trkpt>
      <trkpt lat="48.87148" lon="1.98022">
        <ele>126</ele>
        <time>2022-10-03T13:01:15.244Z</time>
      </trkpt>
      <trkpt lat="48.87152" lon="1.98024">
        <ele>126</ele>
        <time>2022-10-03T13:01:19.258Z</time>
      </trkpt>
      <trkpt lat="48.87156" lon="1.98027">
        <ele>127</ele>
        <time>2022-10-03T13:01:24.251Z</time>
      </trkpt>
      <trkpt lat="48.87161" lon="1.98033">
        <ele>127</ele>
        <time>2022-10-03T13:01:29.235Z</time>
      </trkpt>
      <trkpt lat="48.87165" lon="1.98035">
        <ele>127</ele>
        <time>2022-10-03T13:01:33.239Z</time>
      </trkpt>
      <trkpt lat="48.87172" lon="1.9804">
        <ele>127</ele>
        <time>2022-10-03T13:01:37.245Z</time>
      </trkpt>
      <trkpt lat="48.87176" lon="1.98044">
        <ele>127</ele>
        <time>2022-10-03T13:01:41.249Z</time>
      </trkpt>
      <trkpt lat="48.87184" lon="1.98049">
        <ele>130</ele>
        <time>2022-10-03T13:01:46.244Z</time>
      </trkpt>
      <trkpt lat="48.87191" lon="1.98055">
        <ele>130</ele>
        <time>2022-10-03T13:01:51.250Z</time>
      </trkpt>
      <trkpt lat="48.87197" lon="1.98058">
        <ele>130</ele>
        <time>2022-10-03T13:01:56.238Z</time>
      </trkpt>
      <trkpt lat="48.872" lon="1.98064">
        <ele>130</ele>
        <time>2022-10-03T13:02:00.246Z</time>
      </trkpt>
      <trkpt lat="48.872" lon="1.98072">
        <ele>131</ele>
        <time>2022-10-03T13:02:05.231Z</time>
      </trkpt>
      <trkpt lat="48.87202" lon="1.98078">
        <ele>131</ele>
        <time>2022-10-03T13:02:09.251Z</time>
      </trkpt>
      <trkpt lat="48.87208" lon="1.98083">
        <ele>131</ele>
        <time>2022-10-03T13:02:14.236Z</time>
      </trkpt>
      <trkpt lat="48.87212" lon="1.98088">
        <ele>134</ele>
        <time>2022-10-03T13:02:19.240Z</time>
      </trkpt>
      <trkpt lat="48.87215" lon="1.98095">
        <ele>134</ele>
        <time>2022-10-03T13:02:23.245Z</time>
      </trkpt>
      <trkpt lat="48.87218" lon="1.98106">
        <ele>133</ele>
        <time>2022-10-03T13:02:28.242Z</time>
      </trkpt>
      <trkpt lat="48.87217" lon="1.98112">
        <ele>133</ele>
        <time>2022-10-03T13:02:38.230Z</time>
      </trkpt>
      <trkpt lat="48.87218" lon="1.98112">
        <ele>133</ele>
        <time>2022-10-03T13:02:43.229Z</time>
      </trkpt>
      <trkpt lat="48.87218" lon="1.98113">
        <ele>133</ele>
        <time>2022-10-03T13:02:47.250Z</time>
      </trkpt>
      <trkpt lat="48.87219" lon="1.98119">
        <ele>133</ele>
        <time>2022-10-03T13:02:52.235Z</time>
      </trkpt>
      <trkpt lat="48.87218" lon="1.98124">
        <ele>133</ele>
        <time>2022-10-03T13:02:56.287Z</time>
      </trkpt>
      <trkpt lat="48.87211" lon="1.98139">
        <ele>133</ele>
        <time>2022-10-03T13:03:42.267Z</time>
      </trkpt>
      <trkpt lat="48.87209" lon="1.98141">
        <ele>133</ele>
        <time>2022-10-03T13:03:47.264Z</time>
      </trkpt>
      <trkpt lat="48.87207" lon="1.98143">
        <ele>132</ele>
        <time>2022-10-03T13:03:51.284Z</time>
      </trkpt>
      <trkpt lat="48.87204" lon="1.98147">
        <ele>132</ele>
        <time>2022-10-03T13:03:56.281Z</time>
      </trkpt>
      <trkpt lat="48.87202" lon="1.98149">
        <ele>132</ele>
        <time>2022-10-03T13:04:01.271Z</time>
      </trkpt>
      <trkpt lat="48.87198" lon="1.98156">
        <ele>131</ele>
        <time>2022-10-03T13:04:16.223Z</time>
      </trkpt>
      <trkpt lat="48.87195" lon="1.98155">
        <ele>131</ele>
        <time>2022-10-03T13:04:21.232Z</time>
      </trkpt>
      <trkpt lat="48.87193" lon="1.98153">
        <ele>131</ele>
        <time>2022-10-03T13:04:25.232Z</time>
      </trkpt>
      <trkpt lat="48.87189" lon="1.98156">
        <ele>131</ele>
        <time>2022-10-03T13:04:29.240Z</time>
      </trkpt>
      <trkpt lat="48.87188" lon="1.9816">
        <ele>131</ele>
        <time>2022-10-03T13:04:34.224Z</time>
      </trkpt>
      <trkpt lat="48.87185" lon="1.98165">
        <ele>131</ele>
        <time>2022-10-03T13:05:44.234Z</time>
      </trkpt>
      <trkpt lat="48.87185" lon="1.98165">
        <ele>131</ele>
        <time>2022-10-03T13:05:48.259Z</time>
      </trkpt>
      <trkpt lat="48.87185" lon="1.9817">
        <ele>131</ele>
        <time>2022-10-03T13:05:53.247Z</time>
      </trkpt>
      <trkpt lat="48.87185" lon="1.98174">
        <ele>131</ele>
        <time>2022-10-03T13:05:57.250Z</time>
      </trkpt>
      <trkpt lat="48.87186" lon="1.98179">
        <ele>131</ele>
        <time>2022-10-03T13:06:02.238Z</time>
      </trkpt>
      <trkpt lat="48.87188" lon="1.98188">
        <ele>130</ele>
        <time>2022-10-03T13:06:07.247Z</time>
      </trkpt>
      <trkpt lat="48.87191" lon="1.98194">
        <ele>130</ele>
        <time>2022-10-03T13:06:12.231Z</time>
      </trkpt>
      <trkpt lat="48.87195" lon="1.98199">
        <ele>130</ele>
        <time>2022-10-03T13:06:16.248Z</time>
      </trkpt>
      <trkpt lat="48.872" lon="1.98202">
        <ele>130</ele>
        <time>2022-10-03T13:06:21.273Z</time>
      </trkpt>
      <trkpt lat="48.87204" lon="1.98205">
        <ele>130</ele>
        <time>2022-10-03T13:06:26.261Z</time>
      </trkpt>
      <trkpt lat="48.87209" lon="1.98208">
        <ele>132</ele>
        <time>2022-10-03T13:06:31.250Z</time>
      </trkpt>
      <trkpt lat="48.87212" lon="1.98213">
        <ele>131</ele>
        <time>2022-10-03T13:06:35.265Z</time>
      </trkpt>
      <trkpt lat="48.87215" lon="1.98219">
        <ele>131</ele>
        <time>2022-10-03T13:06:40.267Z</time>
      </trkpt>
      <trkpt lat="48.87224" lon="1.98219">
        <ele>131</ele>
        <time>2022-10-03T13:07:11.270Z</time>
      </trkpt>
      <trkpt lat="48.87225" lon="1.9822">
        <ele>131</ele>
        <time>2022-10-03T13:07:16.263Z</time>
      </trkpt>
      <trkpt lat="48.8723" lon="1.98219">
        <ele>131</ele>
        <time>2022-10-03T13:07:20.262Z</time>
      </trkpt>
      <trkpt lat="48.87236" lon="1.98219">
        <ele>133</ele>
        <time>2022-10-03T13:07:25.245Z</time>
      </trkpt>
      <trkpt lat="48.87241" lon="1.98219">
        <ele>133</ele>
        <time>2022-10-03T13:07:29.249Z</time>
      </trkpt>
      <trkpt lat="48.87246" lon="1.98219">
        <ele>133</ele>
        <time>2022-10-03T13:07:33.252Z</time>
      </trkpt>
      <trkpt lat="48.87251" lon="1.9822">
        <ele>133</ele>
        <time>2022-10-03T13:07:38.251Z</time>
      </trkpt>
      <trkpt lat="48.87255" lon="1.9822">
        <ele>133</ele>
        <time>2022-10-03T13:07:42.253Z</time>
      </trkpt>
      <trkpt lat="48.87263" lon="1.98222">
        <ele>133</ele>
        <time>2022-10-03T13:07:47.267Z</time>
      </trkpt>
      <trkpt lat="48.87267" lon="1.98223">
        <ele>135</ele>
        <time>2022-10-03T13:07:51.271Z</time>
      </trkpt>
      <trkpt lat="48.87272" lon="1.98225">
        <ele>135</ele>
        <time>2022-10-03T13:07:55.282Z</time>
      </trkpt>
      <trkpt lat="48.87278" lon="1.98228">
        <ele>135</ele>
        <time>2022-10-03T13:08:00.281Z</time>
      </trkpt>
      <trkpt lat="48.87282" lon="1.9823">
        <ele>135</ele>
        <time>2022-10-03T13:08:04.284Z</time>
      </trkpt>
      <trkpt lat="48.87288" lon="1.98232">
        <ele>135</ele>
        <time>2022-10-03T13:08:09.267Z</time>
      </trkpt>
      <trkpt lat="48.87294" lon="1.98233">
        <ele>137</ele>
        <time>2022-10-03T13:08:14.257Z</time>
      </trkpt>
      <trkpt lat="48.873" lon="1.98235">
        <ele>137</ele>
        <time>2022-10-03T13:08:19.261Z</time>
      </trkpt>
      <trkpt lat="48.87305" lon="1.98237">
        <ele>135</ele>
        <time>2022-10-03T13:08:23.270Z</time>
      </trkpt>
      <trkpt lat="48.87311" lon="1.98239">
        <ele>135</ele>
        <time>2022-10-03T13:08:28.271Z</time>
      </trkpt>
      <trkpt lat="48.87318" lon="1.9824">
        <ele>135</ele>
        <time>2022-10-03T13:08:33.265Z</time>
      </trkpt>
      <trkpt lat="48.87324" lon="1.98242">
        <ele>136</ele>
        <time>2022-10-03T13:08:38.279Z</time>
      </trkpt>
      <trkpt lat="48.87329" lon="1.98249">
        <ele>136</ele>
        <time>2022-10-03T13:08:43.282Z</time>
      </trkpt>
      <trkpt lat="48.87333" lon="1.98257">
        <ele>136</ele>
        <time>2022-10-03T13:08:48.283Z</time>
      </trkpt>
      <trkpt lat="48.87337" lon="1.98264">
        <ele>136</ele>
        <time>2022-10-03T13:08:53.255Z</time>
      </trkpt>
      <trkpt lat="48.87341" lon="1.98267">
        <ele>136</ele>
        <time>2022-10-03T13:08:57.263Z</time>
      </trkpt>
      <trkpt lat="48.87346" lon="1.9827">
        <ele>136</ele>
        <time>2022-10-03T13:09:02.253Z</time>
      </trkpt>
      <trkpt lat="48.87351" lon="1.98271">
        <ele>139</ele>
        <time>2022-10-03T13:09:06.271Z</time>
      </trkpt>
      <trkpt lat="48.87354" lon="1.98269">
        <ele>139</ele>
        <time>2022-10-03T13:09:11.236Z</time>
      </trkpt>
      <trkpt lat="48.87358" lon="1.98269">
        <ele>139</ele>
        <time>2022-10-03T13:09:15.273Z</time>
      </trkpt>
      <trkpt lat="48.87363" lon="1.98269">
        <ele>139</ele>
        <time>2022-10-03T13:09:20.247Z</time>
      </trkpt>
      <trkpt lat="48.87366" lon="1.98268">
        <ele>139</ele>
        <time>2022-10-03T13:09:24.288Z</time>
      </trkpt>
      <trkpt lat="48.87372" lon="1.98269">
        <ele>139</ele>
        <time>2022-10-03T13:09:29.261Z</time>
      </trkpt>
      <trkpt lat="48.87379" lon="1.9827">
        <ele>141</ele>
        <time>2022-10-03T13:09:34.273Z</time>
      </trkpt>
      <trkpt lat="48.87384" lon="1.98271">
        <ele>141</ele>
        <time>2022-10-03T13:09:39.281Z</time>
      </trkpt>
      <trkpt lat="48.87391" lon="1.98269">
        <ele>141</ele>
        <time>2022-10-03T13:09:44.277Z</time>
      </trkpt>
      <trkpt lat="48.87398" lon="1.98268">
        <ele>141</ele>
        <time>2022-10-03T13:09:49.254Z</time>
      </trkpt>
      <trkpt lat="48.87403" lon="1.98268">
        <ele>142</ele>
        <time>2022-10-03T13:09:53.289Z</time>
      </trkpt>
      <trkpt lat="48.87409" lon="1.98269">
        <ele>142</ele>
        <time>2022-10-03T13:09:58.251Z</time>
      </trkpt>
      <trkpt lat="48.87414" lon="1.98269">
        <ele>142</ele>
        <time>2022-10-03T13:10:02.252Z</time>
      </trkpt>
      <trkpt lat="48.87418" lon="1.98269">
        <ele>142</ele>
        <time>2022-10-03T13:10:07.256Z</time>
      </trkpt>
      <trkpt lat="48.87425" lon="1.98267">
        <ele>142</ele>
        <time>2022-10-03T13:10:12.263Z</time>
      </trkpt>
      <trkpt lat="48.87429" lon="1.98265">
        <ele>142</ele>
        <time>2022-10-03T13:10:17.253Z</time>
      </trkpt>
      <trkpt lat="48.87433" lon="1.98263">
        <ele>143</ele>
        <time>2022-10-03T13:10:21.270Z</time>
      </trkpt>
      <trkpt lat="48.8744" lon="1.98263">
        <ele>143</ele>
        <time>2022-10-03T13:10:26.256Z</time>
      </trkpt>
      <trkpt lat="48.87446" lon="1.98261">
        <ele>143</ele>
        <time>2022-10-03T13:10:31.255Z</time>
      </trkpt>
      <trkpt lat="48.87453" lon="1.9826">
        <ele>143</ele>
        <time>2022-10-03T13:10:36.281Z</time>
      </trkpt>
      <trkpt lat="48.87459" lon="1.9826">
        <ele>143</ele>
        <time>2022-10-03T13:10:41.253Z</time>
      </trkpt>
      <trkpt lat="48.87464" lon="1.98261">
        <ele>143</ele>
        <time>2022-10-03T13:10:45.295Z</time>
      </trkpt>
      <trkpt lat="48.87472" lon="1.98262">
        <ele>143</ele>
        <time>2022-10-03T13:10:50.244Z</time>
      </trkpt>
      <trkpt lat="48.87476" lon="1.98265">
        <ele>143</ele>
        <time>2022-10-03T13:10:54.253Z</time>
      </trkpt>
      <trkpt lat="48.87481" lon="1.98267">
        <ele>143</ele>
        <time>2022-10-03T13:11:07.231Z</time>
      </trkpt>
      <trkpt lat="48.87484" lon="1.98261">
        <ele>143</ele>
        <time>2022-10-03T13:11:12.221Z</time>
      </trkpt>
      <trkpt lat="48.87487" lon="1.98263">
        <ele>143</ele>
        <time>2022-10-03T13:11:16.238Z</time>
      </trkpt>
      <trkpt lat="48.87487" lon="1.98264">
        <ele>143</ele>
        <time>2022-10-03T13:11:21.238Z</time>
      </trkpt>
      <trkpt lat="48.87488" lon="1.98263">
        <ele>143</ele>
        <time>2022-10-03T13:11:25.271Z</time>
      </trkpt>
      <trkpt lat="48.87488" lon="1.98262">
        <ele>143</ele>
        <time>2022-10-03T13:14:20.256Z</time>
      </trkpt>
      <trkpt lat="48.87487" lon="1.98258">
        <ele>143</ele>
        <time>2022-10-03T13:14:25.248Z</time>
      </trkpt>
      <trkpt lat="48.87484" lon="1.98256">
        <ele>143</ele>
        <time>2022-10-03T13:14:29.270Z</time>
      </trkpt>
      <trkpt lat="48.87481" lon="1.98255">
        <ele>143</ele>
        <time>2022-10-03T13:14:34.269Z</time>
      </trkpt>
      <trkpt lat="48.87477" lon="1.98254">
        <ele>143</ele>
        <time>2022-10-03T13:14:39.254Z</time>
      </trkpt>
      <trkpt lat="48.87472" lon="1.98252">
        <ele>143</ele>
        <time>2022-10-03T13:14:43.261Z</time>
      </trkpt>
      <trkpt lat="48.87468" lon="1.98251">
        <ele>143</ele>
        <time>2022-10-03T13:14:47.274Z</time>
      </trkpt>
      <trkpt lat="48.87461" lon="1.98251">
        <ele>143</ele>
        <time>2022-10-03T13:14:52.247Z</time>
      </trkpt>
      <trkpt lat="48.87456" lon="1.98252">
        <ele>143</ele>
        <time>2022-10-03T13:14:56.294Z</time>
      </trkpt>
      <trkpt lat="48.87447" lon="1.98254">
        <ele>143</ele>
        <time>2022-10-03T13:15:01.273Z</time>
      </trkpt>
      <trkpt lat="48.87442" lon="1.98255">
        <ele>143</ele>
        <time>2022-10-03T13:15:05.282Z</time>
      </trkpt>
      <trkpt lat="48.87435" lon="1.98254">
        <ele>143</ele>
        <time>2022-10-03T13:15:10.277Z</time>
      </trkpt>
      <trkpt lat="48.87427" lon="1.98255">
        <ele>142</ele>
        <time>2022-10-03T13:15:15.276Z</time>
      </trkpt>
      <trkpt lat="48.8742" lon="1.98259">
        <ele>142</ele>
        <time>2022-10-03T13:15:20.241Z</time>
      </trkpt>
      <trkpt lat="48.87412" lon="1.98259">
        <ele>142</ele>
        <time>2022-10-03T13:15:25.232Z</time>
      </trkpt>
      <trkpt lat="48.87405" lon="1.98265">
        <ele>142</ele>
        <time>2022-10-03T13:15:29.238Z</time>
      </trkpt>
      <trkpt lat="48.87402" lon="1.98267">
        <ele>141</ele>
        <time>2022-10-03T13:15:34.237Z</time>
      </trkpt>
      <trkpt lat="48.87397" lon="1.98267">
        <ele>141</ele>
        <time>2022-10-03T13:15:39.270Z</time>
      </trkpt>
      <trkpt lat="48.87396" lon="1.98267">
        <ele>141</ele>
        <time>2022-10-03T13:15:44.231Z</time>
      </trkpt>
      <trkpt lat="48.87394" lon="1.98267">
        <ele>141</ele>
        <time>2022-10-03T13:15:48.238Z</time>
      </trkpt>
      <trkpt lat="48.87387" lon="1.98269">
        <ele>141</ele>
        <time>2022-10-03T13:15:53.246Z</time>
      </trkpt>
      <trkpt lat="48.87382" lon="1.98267">
        <ele>141</ele>
        <time>2022-10-03T13:15:58.225Z</time>
      </trkpt>
      <trkpt lat="48.87377" lon="1.98267">
        <ele>141</ele>
        <time>2022-10-03T13:16:02.246Z</time>
      </trkpt>
      <trkpt lat="48.8737" lon="1.98267">
        <ele>139</ele>
        <time>2022-10-03T13:16:07.237Z</time>
      </trkpt>
      <trkpt lat="48.87364" lon="1.98267">
        <ele>139</ele>
        <time>2022-10-03T13:16:12.246Z</time>
      </trkpt>
      <trkpt lat="48.87358" lon="1.98266">
        <ele>139</ele>
        <time>2022-10-03T13:16:17.242Z</time>
      </trkpt>
      <trkpt lat="48.87351" lon="1.98263">
        <ele>138</ele>
        <time>2022-10-03T13:16:22.233Z</time>
      </trkpt>
      <trkpt lat="48.87348" lon="1.98261">
        <ele>138</ele>
        <time>2022-10-03T13:16:27.234Z</time>
      </trkpt>
      <trkpt lat="48.87342" lon="1.98257">
        <ele>136</ele>
        <time>2022-10-03T13:16:31.274Z</time>
      </trkpt>
      <trkpt lat="48.87336" lon="1.98251">
        <ele>136</ele>
        <time>2022-10-03T13:16:36.247Z</time>
      </trkpt>
      <trkpt lat="48.87331" lon="1.98245">
        <ele>136</ele>
        <time>2022-10-03T13:16:40.257Z</time>
      </trkpt>
      <trkpt lat="48.87326" lon="1.98239">
        <ele>136</ele>
        <time>2022-10-03T13:16:45.257Z</time>
      </trkpt>
      <trkpt lat="48.87319" lon="1.98236">
        <ele>137</ele>
        <time>2022-10-03T13:16:49.250Z</time>
      </trkpt>
      <trkpt lat="48.87313" lon="1.98233">
        <ele>137</ele>
        <time>2022-10-03T13:16:53.264Z</time>
      </trkpt>
      <trkpt lat="48.87306" lon="1.98228">
        <ele>137</ele>
        <time>2022-10-03T13:16:58.245Z</time>
      </trkpt>
      <trkpt lat="48.87298" lon="1.98224">
        <ele>137</ele>
        <time>2022-10-03T13:17:03.259Z</time>
      </trkpt>
      <trkpt lat="48.87291" lon="1.98222">
        <ele>135</ele>
        <time>2022-10-03T13:17:08.279Z</time>
      </trkpt>
      <trkpt lat="48.87282" lon="1.9822">
        <ele>135</ele>
        <time>2022-10-03T13:17:13.288Z</time>
      </trkpt>
      <trkpt lat="48.87274" lon="1.98216">
        <ele>135</ele>
        <time>2022-10-03T13:17:18.278Z</time>
      </trkpt>
      <trkpt lat="48.87266" lon="1.98216">
        <ele>135</ele>
        <time>2022-10-03T13:17:23.282Z</time>
      </trkpt>
      <trkpt lat="48.87259" lon="1.98215">
        <ele>133</ele>
        <time>2022-10-03T13:17:28.262Z</time>
      </trkpt>
      <trkpt lat="48.87251" lon="1.98215">
        <ele>133</ele>
        <time>2022-10-03T13:17:33.274Z</time>
      </trkpt>
      <trkpt lat="48.87244" lon="1.98215">
        <ele>133</ele>
        <time>2022-10-03T13:17:37.279Z</time>
      </trkpt>
      <trkpt lat="48.87236" lon="1.98216">
        <ele>131</ele>
        <time>2022-10-03T13:17:42.259Z</time>
      </trkpt>
      <trkpt lat="48.87229" lon="1.98216">
        <ele>131</ele>
        <time>2022-10-03T13:17:46.271Z</time>
      </trkpt>
      <trkpt lat="48.87224" lon="1.98213">
        <ele>131</ele>
        <time>2022-10-03T13:17:51.266Z</time>
      </trkpt>
      <trkpt lat="48.87219" lon="1.98205">
        <ele>132</ele>
        <time>2022-10-03T13:17:56.253Z</time>
      </trkpt>
      <trkpt lat="48.87212" lon="1.98204">
        <ele>132</ele>
        <time>2022-10-03T13:18:01.259Z</time>
      </trkpt>
      <trkpt lat="48.87207" lon="1.98201">
        <ele>130</ele>
        <time>2022-10-03T13:18:05.266Z</time>
      </trkpt>
      <trkpt lat="48.87198" lon="1.98201">
        <ele>130</ele>
        <time>2022-10-03T13:18:10.251Z</time>
      </trkpt>
      <trkpt lat="48.87194" lon="1.98202">
        <ele>130</ele>
        <time>2022-10-03T13:18:14.295Z</time>
      </trkpt>
      <trkpt lat="48.8719" lon="1.98198">
        <ele>130</ele>
        <time>2022-10-03T13:18:19.237Z</time>
      </trkpt>
      <trkpt lat="48.87189" lon="1.98192">
        <ele>130</ele>
        <time>2022-10-03T13:18:23.253Z</time>
      </trkpt>
      <trkpt lat="48.87189" lon="1.98186">
        <ele>130</ele>
        <time>2022-10-03T13:18:27.261Z</time>
      </trkpt>
      <trkpt lat="48.87188" lon="1.98177">
        <ele>131</ele>
        <time>2022-10-03T13:18:32.233Z</time>
      </trkpt>
      <trkpt lat="48.87188" lon="1.98177">
        <ele>131</ele>
        <time>2022-10-03T13:18:36.259Z</time>
      </trkpt>
      <trkpt lat="48.87187" lon="1.98176">
        <ele>131</ele>
        <time>2022-10-03T13:18:41.242Z</time>
      </trkpt>
      <trkpt lat="48.87187" lon="1.98168">
        <ele>131</ele>
        <time>2022-10-03T13:18:46.230Z</time>
      </trkpt>
      <trkpt lat="48.87186" lon="1.98163">
        <ele>131</ele>
        <time>2022-10-03T13:18:50.261Z</time>
      </trkpt>
      <trkpt lat="48.87189" lon="1.98159">
        <ele>131</ele>
        <time>2022-10-03T13:18:55.267Z</time>
      </trkpt>
      <trkpt lat="48.87193" lon="1.98158">
        <ele>131</ele>
        <time>2022-10-03T13:19:00.264Z</time>
      </trkpt>
      <trkpt lat="48.87197" lon="1.98156">
        <ele>131</ele>
        <time>2022-10-03T13:19:05.242Z</time>
      </trkpt>
      <trkpt lat="48.872" lon="1.98153">
        <ele>131</ele>
        <time>2022-10-03T13:19:09.283Z</time>
      </trkpt>
      <trkpt lat="48.87204" lon="1.98149">
        <ele>132</ele>
        <time>2022-10-03T13:19:14.283Z</time>
      </trkpt>
      <trkpt lat="48.87209" lon="1.98144">
        <ele>133</ele>
        <time>2022-10-03T13:19:19.280Z</time>
      </trkpt>
      <trkpt lat="48.87213" lon="1.98144">
        <ele>133</ele>
        <time>2022-10-03T13:19:24.252Z</time>
      </trkpt>
      <trkpt lat="48.87217" lon="1.98134">
        <ele>133</ele>
        <time>2022-10-03T13:19:34.278Z</time>
      </trkpt>
      <trkpt lat="48.87219" lon="1.98133">
        <ele>133</ele>
        <time>2022-10-03T13:19:39.252Z</time>
      </trkpt>
      <trkpt lat="48.87218" lon="1.98132">
        <ele>133</ele>
        <time>2022-10-03T13:19:43.249Z</time>
      </trkpt>
      <trkpt lat="48.87218" lon="1.98129">
        <ele>133</ele>
        <time>2022-10-03T13:19:47.263Z</time>
      </trkpt>
      <trkpt lat="48.87219" lon="1.98126">
        <ele>133</ele>
        <time>2022-10-03T13:19:51.267Z</time>
      </trkpt>
      <trkpt lat="48.8722" lon="1.98121">
        <ele>133</ele>
        <time>2022-10-03T13:19:56.247Z</time>
      </trkpt>
      <trkpt lat="48.8722" lon="1.98116">
        <ele>133</ele>
        <time>2022-10-03T13:20:00.267Z</time>
      </trkpt>
      <trkpt lat="48.87221" lon="1.98113">
        <ele>133</ele>
        <time>2022-10-03T13:20:05.278Z</time>
      </trkpt>
      <trkpt lat="48.87221" lon="1.98106">
        <ele>133</ele>
        <time>2022-10-03T13:20:10.261Z</time>
      </trkpt>
      <trkpt lat="48.87219" lon="1.98097">
        <ele>134</ele>
        <time>2022-10-03T13:20:15.262Z</time>
      </trkpt>
      <trkpt lat="48.87219" lon="1.98093">
        <ele>134</ele>
        <time>2022-10-03T13:20:19.263Z</time>
      </trkpt>
      <trkpt lat="48.87216" lon="1.98087">
        <ele>134</ele>
        <time>2022-10-03T13:20:23.263Z</time>
      </trkpt>
      <trkpt lat="48.87211" lon="1.98082">
        <ele>134</ele>
        <time>2022-10-03T13:20:27.268Z</time>
      </trkpt>
      <trkpt lat="48.87207" lon="1.98073">
        <ele>131</ele>
        <time>2022-10-03T13:20:32.258Z</time>
      </trkpt>
      <trkpt lat="48.87207" lon="1.98067">
        <ele>130</ele>
        <time>2022-10-03T13:20:37.277Z</time>
      </trkpt>
      <trkpt lat="48.87202" lon="1.98057">
        <ele>130</ele>
        <time>2022-10-03T13:20:42.271Z</time>
      </trkpt>
      <trkpt lat="48.87197" lon="1.98052">
        <ele>130</ele>
        <time>2022-10-03T13:20:47.260Z</time>
      </trkpt>
      <trkpt lat="48.87191" lon="1.98047">
        <ele>130</ele>
        <time>2022-10-03T13:20:51.274Z</time>
      </trkpt>
      <trkpt lat="48.87186" lon="1.98041">
        <ele>130</ele>
        <time>2022-10-03T13:20:56.272Z</time>
      </trkpt>
      <trkpt lat="48.87181" lon="1.98036">
        <ele>130</ele>
        <time>2022-10-03T13:21:01.257Z</time>
      </trkpt>
      <trkpt lat="48.87177" lon="1.98033">
        <ele>127</ele>
        <time>2022-10-03T13:21:05.275Z</time>
      </trkpt>
      <trkpt lat="48.87173" lon="1.98027">
        <ele>127</ele>
        <time>2022-10-03T13:21:10.267Z</time>
      </trkpt>
      <trkpt lat="48.87168" lon="1.98023">
        <ele>127</ele>
        <time>2022-10-03T13:21:14.288Z</time>
      </trkpt>
      <trkpt lat="48.87162" lon="1.9802">
        <ele>127</ele>
        <time>2022-10-03T13:21:18.292Z</time>
      </trkpt>
      <trkpt lat="48.87155" lon="1.98016">
        <ele>127</ele>
        <time>2022-10-03T13:21:23.279Z</time>
      </trkpt>
      <trkpt lat="48.87148" lon="1.98013">
        <ele>127</ele>
        <time>2022-10-03T13:21:28.269Z</time>
      </trkpt>
      <trkpt lat="48.87141" lon="1.98012">
        <ele>127</ele>
        <time>2022-10-03T13:21:33.291Z</time>
      </trkpt>
      <trkpt lat="48.87137" lon="1.98007">
        <ele>127</ele>
        <time>2022-10-03T13:21:38.272Z</time>
      </trkpt>
      <trkpt lat="48.87137" lon="1.98">
        <ele>127</ele>
        <time>2022-10-03T13:21:43.282Z</time>
      </trkpt>
      <trkpt lat="48.87135" lon="1.97991">
        <ele>127</ele>
        <time>2022-10-03T13:21:47.287Z</time>
      </trkpt>
      <trkpt lat="48.87133" lon="1.97981">
        <ele>128</ele>
        <time>2022-10-03T13:21:52.254Z</time>
      </trkpt>
      <trkpt lat="48.8713" lon="1.9797">
        <ele>128</ele>
        <time>2022-10-03T13:21:57.284Z</time>
      </trkpt>
      <trkpt lat="48.87131" lon="1.97959">
        <ele>128</ele>
        <time>2022-10-03T13:22:02.257Z</time>
      </trkpt>
      <trkpt lat="48.8713" lon="1.9795">
        <ele>127</ele>
        <time>2022-10-03T13:22:06.284Z</time>
      </trkpt>
      <trkpt lat="48.87128" lon="1.97938">
        <ele>127</ele>
        <time>2022-10-03T13:22:11.266Z</time>
      </trkpt>
      <trkpt lat="48.87127" lon="1.97934">
        <ele>127</ele>
        <time>2022-10-03T13:22:16.255Z</time>
      </trkpt>
      <trkpt lat="48.87128" lon="1.97928">
        <ele>127</ele>
        <time>2022-10-03T13:22:20.263Z</time>
      </trkpt>
      <trkpt lat="48.87131" lon="1.97919">
        <ele>127</ele>
        <time>2022-10-03T13:22:24.283Z</time>
      </trkpt>
      <trkpt lat="48.87133" lon="1.97907">
        <ele>127</ele>
        <time>2022-10-03T13:22:29.255Z</time>
      </trkpt>
      <trkpt lat="48.87135" lon="1.97896">
        <ele>127</ele>
        <time>2022-10-03T13:22:33.271Z</time>
      </trkpt>
      <trkpt lat="48.87137" lon="1.97884">
        <ele>127</ele>
        <time>2022-10-03T13:22:38.278Z</time>
      </trkpt>
      <trkpt lat="48.8714" lon="1.97873">
        <ele>127</ele>
        <time>2022-10-03T13:22:43.275Z</time>
      </trkpt>
      <trkpt lat="48.87142" lon="1.97862">
        <ele>127</ele>
        <time>2022-10-03T13:22:48.264Z</time>
      </trkpt>
      <trkpt lat="48.87145" lon="1.97854">
        <ele>127</ele>
        <time>2022-10-03T13:22:52.260Z</time>
      </trkpt>
      <trkpt lat="48.87148" lon="1.97848">
        <ele>127</ele>
        <time>2022-10-03T13:22:56.278Z</time>
      </trkpt>
      <trkpt lat="48.8715" lon="1.97837">
        <ele>127</ele>
        <time>2022-10-03T13:23:01.288Z</time>
      </trkpt>
      <trkpt lat="48.87152" lon="1.97828">
        <ele>127</ele>
        <time>2022-10-03T13:23:06.287Z</time>
      </trkpt>
      <trkpt lat="48.87154" lon="1.97818">
        <ele>130</ele>
        <time>2022-10-03T13:23:11.290Z</time>
      </trkpt>
      <trkpt lat="48.87156" lon="1.97807">
        <ele>130</ele>
        <time>2022-10-03T13:23:16.283Z</time>
      </trkpt>
      <trkpt lat="48.87159" lon="1.97798">
        <ele>130</ele>
        <time>2022-10-03T13:23:21.278Z</time>
      </trkpt>
      <trkpt lat="48.87161" lon="1.97789">
        <ele>131</ele>
        <time>2022-10-03T13:23:26.259Z</time>
      </trkpt>
      <trkpt lat="48.87163" lon="1.97777">
        <ele>131</ele>
        <time>2022-10-03T13:23:31.269Z</time>
      </trkpt>
      <trkpt lat="48.87165" lon="1.97769">
        <ele>131</ele>
        <time>2022-10-03T13:23:35.280Z</time>
      </trkpt>
      <trkpt lat="48.87169" lon="1.97757">
        <ele>131</ele>
        <time>2022-10-03T13:23:40.262Z</time>
      </trkpt>
      <trkpt lat="48.87171" lon="1.97749">
        <ele>131</ele>
        <time>2022-10-03T13:23:44.274Z</time>
      </trkpt>
      <trkpt lat="48.87174" lon="1.97743">
        <ele>131</ele>
        <time>2022-10-03T13:23:49.283Z</time>
      </trkpt>
      <trkpt lat="48.87177" lon="1.97736">
        <ele>132</ele>
        <time>2022-10-03T13:23:53.282Z</time>
      </trkpt>
      <trkpt lat="48.87181" lon="1.97728">
        <ele>135</ele>
        <time>2022-10-03T13:23:58.283Z</time>
      </trkpt>
      <trkpt lat="48.87184" lon="1.97718">
        <ele>135</ele>
        <time>2022-10-03T13:24:03.256Z</time>
      </trkpt>
      <trkpt lat="48.87189" lon="1.97708">
        <ele>135</ele>
        <time>2022-10-03T13:24:08.229Z</time>
      </trkpt>
      <trkpt lat="48.87191" lon="1.97699">
        <ele>135</ele>
        <time>2022-10-03T13:24:12.242Z</time>
      </trkpt>
      <trkpt lat="48.87196" lon="1.97693">
        <ele>135</ele>
        <time>2022-10-03T13:24:16.275Z</time>
      </trkpt>
      <trkpt lat="48.87199" lon="1.97685">
        <ele>135</ele>
        <time>2022-10-03T13:24:20.278Z</time>
      </trkpt>
      <trkpt lat="48.87205" lon="1.97678">
        <ele>135</ele>
        <time>2022-10-03T13:24:25.243Z</time>
      </trkpt>
      <trkpt lat="48.87208" lon="1.97672">
        <ele>135</ele>
        <time>2022-10-03T13:24:29.278Z</time>
      </trkpt>
      <trkpt lat="48.87213" lon="1.97664">
        <ele>138</ele>
        <time>2022-10-03T13:24:34.276Z</time>
      </trkpt>
      <trkpt lat="48.87215" lon="1.97655">
        <ele>138</ele>
        <time>2022-10-03T13:24:39.267Z</time>
      </trkpt>
      <trkpt lat="48.87217" lon="1.97646">
        <ele>137</ele>
        <time>2022-10-03T13:24:43.278Z</time>
      </trkpt>
      <trkpt lat="48.87219" lon="1.97636">
        <ele>137</ele>
        <time>2022-10-03T13:24:47.283Z</time>
      </trkpt>
      <trkpt lat="48.87222" lon="1.97625">
        <ele>137</ele>
        <time>2022-10-03T13:24:52.248Z</time>
      </trkpt>
      <trkpt lat="48.87223" lon="1.97618">
        <ele>136</ele>
        <time>2022-10-03T13:24:56.257Z</time>
      </trkpt>
      <trkpt lat="48.87223" lon="1.9761">
        <ele>136</ele>
        <time>2022-10-03T13:25:00.277Z</time>
      </trkpt>
      <trkpt lat="48.87224" lon="1.976">
        <ele>136</ele>
        <time>2022-10-03T13:25:05.285Z</time>
      </trkpt>
      <trkpt lat="48.87226" lon="1.97589">
        <ele>136</ele>
        <time>2022-10-03T13:25:10.271Z</time>
      </trkpt>
      <trkpt lat="48.87227" lon="1.9758">
        <ele>136</ele>
        <time>2022-10-03T13:25:14.280Z</time>
      </trkpt>
      <trkpt lat="48.8723" lon="1.97572">
        <ele>136</ele>
        <time>2022-10-03T13:25:19.269Z</time>
      </trkpt>
      <trkpt lat="48.87234" lon="1.97562">
        <ele>136</ele>
        <time>2022-10-03T13:25:24.257Z</time>
      </trkpt>
      <trkpt lat="48.87238" lon="1.97555">
        <ele>140</ele>
        <time>2022-10-03T13:25:28.258Z</time>
      </trkpt>
      <trkpt lat="48.87242" lon="1.97548">
        <ele>140</ele>
        <time>2022-10-03T13:25:32.266Z</time>
      </trkpt>
      <trkpt lat="48.87243" lon="1.9754">
        <ele>140</ele>
        <time>2022-10-03T13:25:36.270Z</time>
      </trkpt>
      <trkpt lat="48.87246" lon="1.97531">
        <ele>140</ele>
        <time>2022-10-03T13:25:41.269Z</time>
      </trkpt>
      <trkpt lat="48.87248" lon="1.97525">
        <ele>140</ele>
        <time>2022-10-03T13:25:46.258Z</time>
      </trkpt>
      <trkpt lat="48.87249" lon="1.97522">
        <ele>140</ele>
        <time>2022-10-03T13:25:50.269Z</time>
      </trkpt>
      <trkpt lat="48.87253" lon="1.97515">
        <ele>140</ele>
        <time>2022-10-03T13:25:55.266Z</time>
      </trkpt>
      <trkpt lat="48.87257" lon="1.97508">
        <ele>140</ele>
        <time>2022-10-03T13:26:00.263Z</time>
      </trkpt>
      <trkpt lat="48.87261" lon="1.97502">
        <ele>140</ele>
        <time>2022-10-03T13:26:04.281Z</time>
      </trkpt>
      <trkpt lat="48.87265" lon="1.97497">
        <ele>142</ele>
        <time>2022-10-03T13:26:09.281Z</time>
      </trkpt>
      <trkpt lat="48.87269" lon="1.97491">
        <ele>142</ele>
        <time>2022-10-03T13:26:14.275Z</time>
      </trkpt>
      <trkpt lat="48.87273" lon="1.97485">
        <ele>142</ele>
        <time>2022-10-03T13:26:18.286Z</time>
      </trkpt>
      <trkpt lat="48.87278" lon="1.97477">
        <ele>142</ele>
        <time>2022-10-03T13:26:23.268Z</time>
      </trkpt>
      <trkpt lat="48.8728" lon="1.9747">
        <ele>142</ele>
        <time>2022-10-03T13:26:27.283Z</time>
      </trkpt>
      <trkpt lat="48.87281" lon="1.97461">
        <ele>142</ele>
        <time>2022-10-03T13:26:32.272Z</time>
      </trkpt>
      <trkpt lat="48.87283" lon="1.97453">
        <ele>142</ele>
        <time>2022-10-03T13:26:36.274Z</time>
      </trkpt>
      <trkpt lat="48.87286" lon="1.97447">
        <ele>142</ele>
        <time>2022-10-03T13:26:40.283Z</time>
      </trkpt>
      <trkpt lat="48.87288" lon="1.97437">
        <ele>142</ele>
        <time>2022-10-03T13:26:45.274Z</time>
      </trkpt>
      <trkpt lat="48.8729" lon="1.97423">
        <ele>142</ele>
        <time>2022-10-03T13:26:50.258Z</time>
      </trkpt>
      <trkpt lat="48.87288" lon="1.97411">
        <ele>142</ele>
        <time>2022-10-03T13:26:55.230Z</time>
      </trkpt>
      <trkpt lat="48.87289" lon="1.97402">
        <ele>142</ele>
        <time>2022-10-03T13:26:59.246Z</time>
      </trkpt>
      <trkpt lat="48.87291" lon="1.97391">
        <ele>142</ele>
        <time>2022-10-03T13:27:04.235Z</time>
      </trkpt>
      <trkpt lat="48.87291" lon="1.97382">
        <ele>142</ele>
        <time>2022-10-03T13:27:08.256Z</time>
      </trkpt>
      <trkpt lat="48.87295" lon="1.97375">
        <ele>144</ele>
        <time>2022-10-03T13:27:13.239Z</time>
      </trkpt>
      <trkpt lat="48.87295" lon="1.97367">
        <ele>144</ele>
        <time>2022-10-03T13:27:17.251Z</time>
      </trkpt>
      <trkpt lat="48.87295" lon="1.97356">
        <ele>144</ele>
        <time>2022-10-03T13:27:22.283Z</time>
      </trkpt>
      <trkpt lat="48.87296" lon="1.97345">
        <ele>144</ele>
        <time>2022-10-03T13:27:27.252Z</time>
      </trkpt>
      <trkpt lat="48.87298" lon="1.97333">
        <ele>144</ele>
        <time>2022-10-03T13:27:32.241Z</time>
      </trkpt>
      <trkpt lat="48.87299" lon="1.97323">
        <ele>144</ele>
        <time>2022-10-03T13:27:37.239Z</time>
      </trkpt>
      <trkpt lat="48.87299" lon="1.97313">
        <ele>144</ele>
        <time>2022-10-03T13:27:42.229Z</time>
      </trkpt>
      <trkpt lat="48.87299" lon="1.97302">
        <ele>144</ele>
        <time>2022-10-03T13:27:46.265Z</time>
      </trkpt>
      <trkpt lat="48.87301" lon="1.97294">
        <ele>144</ele>
        <time>2022-10-03T13:27:51.253Z</time>
      </trkpt>
      <trkpt lat="48.87303" lon="1.9729">
        <ele>144</ele>
        <time>2022-10-03T13:28:14.233Z</time>
      </trkpt>
      <trkpt lat="48.87303" lon="1.9729">
        <ele>144</ele>
        <time>2022-10-03T13:28:18.240Z</time>
      </trkpt>
      <trkpt lat="48.87305" lon="1.97286">
        <ele>144</ele>
        <time>2022-10-03T13:28:23.238Z</time>
      </trkpt>
      <trkpt lat="48.87311" lon="1.97286">
        <ele>144</ele>
        <time>2022-10-03T13:28:28.245Z</time>
      </trkpt>
      <trkpt lat="48.87317" lon="1.97289">
        <ele>144</ele>
        <time>2022-10-03T13:28:33.248Z</time>
      </trkpt>
      <trkpt lat="48.87328" lon="1.97297">
        <ele>145</ele>
        <time>2022-10-03T13:28:56.236Z</time>
      </trkpt>
      <trkpt lat="48.8733" lon="1.973">
        <ele>145</ele>
        <time>2022-10-03T13:29:01.238Z</time>
      </trkpt>
      <trkpt lat="48.87333" lon="1.97302">
        <ele>145</ele>
        <time>2022-10-03T13:29:06.244Z</time>
      </trkpt>
      <trkpt lat="48.8734" lon="1.9731">
        <ele>145</ele>
        <time>2022-10-03T13:29:11.223Z</time>
      </trkpt>
      <trkpt lat="48.87346" lon="1.97313">
        <ele>145</ele>
        <time>2022-10-03T13:29:15.237Z</time>
      </trkpt>
      <trkpt lat="48.87351" lon="1.97318">
        <ele>146</ele>
        <time>2022-10-03T13:29:19.244Z</time>
      </trkpt>
      <trkpt lat="48.87358" lon="1.97326">
        <ele>146</ele>
        <time>2022-10-03T13:29:24.237Z</time>
      </trkpt>
      <trkpt lat="48.87364" lon="1.97333">
        <ele>146</ele>
        <time>2022-10-03T13:29:29.243Z</time>
      </trkpt>
      <trkpt lat="48.87368" lon="1.97338">
        <ele>146</ele>
        <time>2022-10-03T13:29:34.233Z</time>
      </trkpt>
      <trkpt lat="48.87374" lon="1.97343">
        <ele>146</ele>
        <time>2022-10-03T13:29:39.230Z</time>
      </trkpt>
      <trkpt lat="48.8738" lon="1.97346">
        <ele>148</ele>
        <time>2022-10-03T13:29:44.231Z</time>
      </trkpt>
      <trkpt lat="48.87385" lon="1.97351">
        <ele>149</ele>
        <time>2022-10-03T13:29:49.243Z</time>
      </trkpt>
      <trkpt lat="48.87391" lon="1.97359">
        <ele>149</ele>
        <time>2022-10-03T13:29:54.235Z</time>
      </trkpt>
      <trkpt lat="48.87396" lon="1.97361">
        <ele>149</ele>
        <time>2022-10-03T13:29:58.246Z</time>
      </trkpt>
      <trkpt lat="48.87402" lon="1.97363">
        <ele>149</ele>
        <time>2022-10-03T13:30:03.239Z</time>
      </trkpt>
      <trkpt lat="48.87406" lon="1.97364">
        <ele>151</ele>
        <time>2022-10-03T13:30:07.239Z</time>
      </trkpt>
      <trkpt lat="48.87413" lon="1.97364">
        <ele>151</ele>
        <time>2022-10-03T13:30:12.232Z</time>
      </trkpt>
      <trkpt lat="48.87417" lon="1.97363">
        <ele>151</ele>
        <time>2022-10-03T13:30:16.238Z</time>
      </trkpt>
      <trkpt lat="48.87424" lon="1.97363">
        <ele>151</ele>
        <time>2022-10-03T13:30:21.236Z</time>
      </trkpt>
      <trkpt lat="48.87432" lon="1.97364">
        <ele>152</ele>
        <time>2022-10-03T13:30:26.233Z</time>
      </trkpt>
      <trkpt lat="48.87439" lon="1.97365">
        <ele>152</ele>
        <time>2022-10-03T13:30:31.251Z</time>
      </trkpt>
      <trkpt lat="48.87447" lon="1.97365">
        <ele>152</ele>
        <time>2022-10-03T13:30:36.238Z</time>
      </trkpt>
      <trkpt lat="48.87456" lon="1.97369">
        <ele>152</ele>
        <time>2022-10-03T13:30:41.240Z</time>
      </trkpt>
      <trkpt lat="48.87463" lon="1.97368">
        <ele>152</ele>
        <time>2022-10-03T13:30:46.229Z</time>
      </trkpt>
      <trkpt lat="48.87468" lon="1.97367">
        <ele>152</ele>
        <time>2022-10-03T13:30:50.237Z</time>
      </trkpt>
      <trkpt lat="48.87476" lon="1.97365">
        <ele>152</ele>
        <time>2022-10-03T13:30:55.251Z</time>
      </trkpt>
      <trkpt lat="48.87483" lon="1.97364">
        <ele>152</ele>
        <time>2022-10-03T13:31:00.227Z</time>
      </trkpt>
      <trkpt lat="48.87488" lon="1.97364">
        <ele>156</ele>
        <time>2022-10-03T13:31:04.247Z</time>
      </trkpt>
      <trkpt lat="48.87494" lon="1.97361">
        <ele>156</ele>
        <time>2022-10-03T13:31:09.244Z</time>
      </trkpt>
      <trkpt lat="48.87499" lon="1.9736">
        <ele>156</ele>
        <time>2022-10-03T13:31:14.245Z</time>
      </trkpt>
      <trkpt lat="48.87504" lon="1.9736">
        <ele>156</ele>
        <time>2022-10-03T13:31:18.251Z</time>
      </trkpt>
      <trkpt lat="48.87509" lon="1.9736">
        <ele>156</ele>
        <time>2022-10-03T13:31:23.252Z</time>
      </trkpt>
      <trkpt lat="48.87515" lon="1.97361">
        <ele>162</ele>
        <time>2022-10-03T13:31:28.247Z</time>
      </trkpt>
      <trkpt lat="48.8752" lon="1.97359">
        <ele>162</ele>
        <time>2022-10-03T13:31:32.265Z</time>
      </trkpt>
      <trkpt lat="48.87524" lon="1.97357">
        <ele>162</ele>
        <time>2022-10-03T13:31:37.255Z</time>
      </trkpt>
      <trkpt lat="48.87529" lon="1.97354">
        <ele>162</ele>
        <time>2022-10-03T13:31:41.264Z</time>
      </trkpt>
      <trkpt lat="48.87535" lon="1.97348">
        <ele>162</ele>
        <time>2022-10-03T13:31:46.259Z</time>
      </trkpt>
      <trkpt lat="48.8754" lon="1.97342">
        <ele>159</ele>
        <time>2022-10-03T13:31:51.263Z</time>
      </trkpt>
      <trkpt lat="48.87546" lon="1.97336">
        <ele>164</ele>
        <time>2022-10-03T13:31:56.256Z</time>
      </trkpt>
      <trkpt lat="48.87549" lon="1.9733">
        <ele>164</ele>
        <time>2022-10-03T13:32:00.258Z</time>
      </trkpt>
      <trkpt lat="48.87552" lon="1.97325">
        <ele>164</ele>
        <time>2022-10-03T13:32:05.281Z</time>
      </trkpt>
      <trkpt lat="48.87558" lon="1.97321">
        <ele>164</ele>
        <time>2022-10-03T13:32:10.266Z</time>
      </trkpt>
      <trkpt lat="48.87564" lon="1.97317">
        <ele>163</ele>
        <time>2022-10-03T13:32:15.252Z</time>
      </trkpt>
      <trkpt lat="48.87567" lon="1.97311">
        <ele>163</ele>
        <time>2022-10-03T13:32:19.270Z</time>
      </trkpt>
      <trkpt lat="48.87571" lon="1.97306">
        <ele>167</ele>
        <time>2022-10-03T13:32:23.286Z</time>
      </trkpt>
      <trkpt lat="48.87577" lon="1.973">
        <ele>167</ele>
        <time>2022-10-03T13:32:28.265Z</time>
      </trkpt>
      <trkpt lat="48.87581" lon="1.97297">
        <ele>167</ele>
        <time>2022-10-03T13:32:33.260Z</time>
      </trkpt>
      <trkpt lat="48.87584" lon="1.97295">
        <ele>167</ele>
        <time>2022-10-03T13:32:37.279Z</time>
      </trkpt>
      <trkpt lat="48.87588" lon="1.97296">
        <ele>167</ele>
        <time>2022-10-03T13:32:41.282Z</time>
      </trkpt>
      <trkpt lat="48.87593" lon="1.97298">
        <ele>167</ele>
        <time>2022-10-03T13:32:46.256Z</time>
      </trkpt>
      <trkpt lat="48.87596" lon="1.97301">
        <ele>167</ele>
        <time>2022-10-03T13:32:50.268Z</time>
      </trkpt>
      <trkpt lat="48.87601" lon="1.97303">
        <ele>174</ele>
        <time>2022-10-03T13:32:55.240Z</time>
      </trkpt>
      <trkpt lat="48.87606" lon="1.97305">
        <ele>174</ele>
        <time>2022-10-03T13:32:59.251Z</time>
      </trkpt>
      <trkpt lat="48.87609" lon="1.97305">
        <ele>174</ele>
        <time>2022-10-03T13:33:03.272Z</time>
      </trkpt>
      <trkpt lat="48.87613" lon="1.97308">
        <ele>174</ele>
        <time>2022-10-03T13:33:08.254Z</time>
      </trkpt>
      <trkpt lat="48.87616" lon="1.97312">
        <ele>174</ele>
        <time>2022-10-03T13:33:12.251Z</time>
      </trkpt>
      <trkpt lat="48.87622" lon="1.97317">
        <ele>174</ele>
        <time>2022-10-03T13:33:17.259Z</time>
      </trkpt>
      <trkpt lat="48.87626" lon="1.97321">
        <ele>180</ele>
        <time>2022-10-03T13:33:22.234Z</time>
      </trkpt>
      <trkpt lat="48.87629" lon="1.97326">
        <ele>180</ele>
        <time>2022-10-03T13:33:26.255Z</time>
      </trkpt>
      <trkpt lat="48.87634" lon="1.97332">
        <ele>180</ele>
        <time>2022-10-03T13:33:31.258Z</time>
      </trkpt>
      <trkpt lat="48.87639" lon="1.97337">
        <ele>180</ele>
        <time>2022-10-03T13:33:36.247Z</time>
      </trkpt>
      <trkpt lat="48.87643" lon="1.97339">
        <ele>180</ele>
        <time>2022-10-03T13:33:40.256Z</time>
      </trkpt>
      <trkpt lat="48.87649" lon="1.97343">
        <ele>180</ele>
        <time>2022-10-03T13:33:45.251Z</time>
      </trkpt>
      <trkpt lat="48.87653" lon="1.97346">
        <ele>184</ele>
        <time>2022-10-03T13:33:50.245Z</time>
      </trkpt>
      <trkpt lat="48.87657" lon="1.97349">
        <ele>184</ele>
        <time>2022-10-03T13:33:54.279Z</time>
      </trkpt>
      <trkpt lat="48.87663" lon="1.97352">
        <ele>184</ele>
        <time>2022-10-03T13:33:59.257Z</time>
      </trkpt>
      <trkpt lat="48.87669" lon="1.97353">
        <ele>184</ele>
        <time>2022-10-03T13:34:04.235Z</time>
      </trkpt>
      <trkpt lat="48.87673" lon="1.97354">
        <ele>184</ele>
        <time>2022-10-03T13:34:08.260Z</time>
      </trkpt>
      <trkpt lat="48.8768" lon="1.97355">
        <ele>184</ele>
        <time>2022-10-03T13:34:13.253Z</time>
      </trkpt>
      <trkpt lat="48.87687" lon="1.97355">
        <ele>187</ele>
        <time>2022-10-03T13:34:17.252Z</time>
      </trkpt>
      <trkpt lat="48.87693" lon="1.97353">
        <ele>187</ele>
        <time>2022-10-03T13:34:22.235Z</time>
      </trkpt>
      <trkpt lat="48.87699" lon="1.97354">
        <ele>187</ele>
        <time>2022-10-03T13:34:26.249Z</time>
      </trkpt>
      <trkpt lat="48.87706" lon="1.97349">
        <ele>187</ele>
        <time>2022-10-03T13:34:31.243Z</time>
      </trkpt>
      <trkpt lat="48.87712" lon="1.97347">
        <ele>187</ele>
        <time>2022-10-03T13:34:35.274Z</time>
      </trkpt>
      <trkpt lat="48.87719" lon="1.97346">
        <ele>187</ele>
        <time>2022-10-03T13:34:40.261Z</time>
      </trkpt>
      <trkpt lat="48.87726" lon="1.97345">
        <ele>187</ele>
        <time>2022-10-03T13:34:45.232Z</time>
      </trkpt>
      <trkpt lat="48.87732" lon="1.97344">
        <ele>187</ele>
        <time>2022-10-03T13:34:49.247Z</time>
      </trkpt>
      <trkpt lat="48.8774" lon="1.97343">
        <ele>187</ele>
        <time>2022-10-03T13:34:54.255Z</time>
      </trkpt>
      <trkpt lat="48.87747" lon="1.97341">
        <ele>187</ele>
        <time>2022-10-03T13:34:58.262Z</time>
      </trkpt>
      <trkpt lat="48.87752" lon="1.9734">
        <ele>187</ele>
        <time>2022-10-03T13:35:02.267Z</time>
      </trkpt>
      <trkpt lat="48.8776" lon="1.97336">
        <ele>187</ele>
        <time>2022-10-03T13:35:07.250Z</time>
      </trkpt>
      <trkpt lat="48.87767" lon="1.97335">
        <ele>187</ele>
        <time>2022-10-03T13:35:11.273Z</time>
      </trkpt>
      <trkpt lat="48.87773" lon="1.97334">
        <ele>187</ele>
        <time>2022-10-03T13:35:15.280Z</time>
      </trkpt>
      <trkpt lat="48.87778" lon="1.97333">
        <ele>187</ele>
        <time>2022-10-03T13:35:20.256Z</time>
      </trkpt>
      <trkpt lat="48.87783" lon="1.97332">
        <ele>187</ele>
        <time>2022-10-03T13:35:24.263Z</time>
      </trkpt>
      <trkpt lat="48.87792" lon="1.97331">
        <ele>185</ele>
        <time>2022-10-03T13:35:29.274Z</time>
      </trkpt>
      <trkpt lat="48.87799" lon="1.9733">
        <ele>185</ele>
        <time>2022-10-03T13:35:33.278Z</time>
      </trkpt>
      <trkpt lat="48.87808" lon="1.97327">
        <ele>185</ele>
        <time>2022-10-03T13:35:38.272Z</time>
      </trkpt>
      <trkpt lat="48.87815" lon="1.97324">
        <ele>185</ele>
        <time>2022-10-03T13:35:43.278Z</time>
      </trkpt>
      <trkpt lat="48.87823" lon="1.97317">
        <ele>186</ele>
        <time>2022-10-03T13:35:48.260Z</time>
      </trkpt>
      <trkpt lat="48.8783" lon="1.97312">
        <ele>186</ele>
        <time>2022-10-03T13:35:53.292Z</time>
      </trkpt>
      <trkpt lat="48.87837" lon="1.97306">
        <ele>186</ele>
        <time>2022-10-03T13:35:58.268Z</time>
      </trkpt>
      <trkpt lat="48.87843" lon="1.97299">
        <ele>186</ele>
        <time>2022-10-03T13:36:03.281Z</time>
      </trkpt>
      <trkpt lat="48.8785" lon="1.97295">
        <ele>186</ele>
        <time>2022-10-03T13:36:08.265Z</time>
      </trkpt>
      <trkpt lat="48.87858" lon="1.97293">
        <ele>186</ele>
        <time>2022-10-03T13:36:13.271Z</time>
      </trkpt>
      <trkpt lat="48.87864" lon="1.97292">
        <ele>186</ele>
        <time>2022-10-03T13:36:17.285Z</time>
      </trkpt>
      <trkpt lat="48.87871" lon="1.97291">
        <ele>186</ele>
        <time>2022-10-03T13:36:21.297Z</time>
      </trkpt>
      <trkpt lat="48.87878" lon="1.97291">
        <ele>184</ele>
        <time>2022-10-03T13:36:26.267Z</time>
      </trkpt>
      <trkpt lat="48.87884" lon="1.97292">
        <ele>185</ele>
        <time>2022-10-03T13:36:31.270Z</time>
      </trkpt>
      <trkpt lat="48.87891" lon="1.97293">
        <ele>185</ele>
        <time>2022-10-03T13:36:35.295Z</time>
      </trkpt>
      <trkpt lat="48.87898" lon="1.97294">
        <ele>185</ele>
        <time>2022-10-03T13:36:40.253Z</time>
      </trkpt>
      <trkpt lat="48.87906" lon="1.97294">
        <ele>185</ele>
        <time>2022-10-03T13:36:45.279Z</time>
      </trkpt>
      <trkpt lat="48.87911" lon="1.97297">
        <ele>185</ele>
        <time>2022-10-03T13:36:49.298Z</time>
      </trkpt>
      <trkpt lat="48.87918" lon="1.97297">
        <ele>185</ele>
        <time>2022-10-03T13:36:54.269Z</time>
      </trkpt>
      <trkpt lat="48.87924" lon="1.973">
        <ele>185</ele>
        <time>2022-10-03T13:36:59.282Z</time>
      </trkpt>
      <trkpt lat="48.87932" lon="1.973">
        <ele>186</ele>
        <time>2022-10-03T13:37:04.267Z</time>
      </trkpt>
      <trkpt lat="48.87941" lon="1.97301">
        <ele>186</ele>
        <time>2022-10-03T13:37:09.246Z</time>
      </trkpt>
      <trkpt lat="48.87949" lon="1.97301">
        <ele>186</ele>
        <time>2022-10-03T13:37:13.265Z</time>
      </trkpt>
      <trkpt lat="48.87958" lon="1.97302">
        <ele>186</ele>
        <time>2022-10-03T13:37:18.263Z</time>
      </trkpt>
      <trkpt lat="48.87965" lon="1.97303">
        <ele>185</ele>
        <time>2022-10-03T13:37:23.275Z</time>
      </trkpt>
      <trkpt lat="48.87973" lon="1.97304">
        <ele>185</ele>
        <time>2022-10-03T13:37:28.267Z</time>
      </trkpt>
      <trkpt lat="48.87981" lon="1.97306">
        <ele>185</ele>
        <time>2022-10-03T13:37:33.268Z</time>
      </trkpt>
      <trkpt lat="48.87988" lon="1.97307">
        <ele>182</ele>
        <time>2022-10-03T13:37:38.259Z</time>
      </trkpt>
      <trkpt lat="48.87996" lon="1.9731">
        <ele>182</ele>
        <time>2022-10-03T13:37:43.266Z</time>
      </trkpt>
      <trkpt lat="48.88002" lon="1.97311">
        <ele>182</ele>
        <time>2022-10-03T13:37:47.276Z</time>
      </trkpt>
      <trkpt lat="48.88009" lon="1.9731">
        <ele>182</ele>
        <time>2022-10-03T13:37:52.242Z</time>
      </trkpt>
      <trkpt lat="48.88014" lon="1.97309">
        <ele>178</ele>
        <time>2022-10-03T13:37:56.253Z</time>
      </trkpt>
      <trkpt lat="48.8802" lon="1.97309">
        <ele>178</ele>
        <time>2022-10-03T13:38:00.260Z</time>
      </trkpt>
      <trkpt lat="48.88026" lon="1.97308">
        <ele>178</ele>
        <time>2022-10-03T13:38:04.264Z</time>
      </trkpt>
      <trkpt lat="48.88034" lon="1.97306">
        <ele>178</ele>
        <time>2022-10-03T13:38:09.284Z</time>
      </trkpt>
      <trkpt lat="48.88041" lon="1.97306">
        <ele>178</ele>
        <time>2022-10-03T13:38:14.277Z</time>
      </trkpt>
      <trkpt lat="48.88049" lon="1.97304">
        <ele>175</ele>
        <time>2022-10-03T13:38:19.275Z</time>
      </trkpt>
      <trkpt lat="48.88054" lon="1.97301">
        <ele>175</ele>
        <time>2022-10-03T13:38:23.269Z</time>
      </trkpt>
      <trkpt lat="48.8806" lon="1.97297">
        <ele>175</ele>
        <time>2022-10-03T13:38:27.287Z</time>
      </trkpt>
      <trkpt lat="48.88068" lon="1.97293">
        <ele>175</ele>
        <time>2022-10-03T13:38:32.238Z</time>
      </trkpt>
      <trkpt lat="48.88072" lon="1.97287">
        <ele>174</ele>
        <time>2022-10-03T13:38:36.259Z</time>
      </trkpt>
      <trkpt lat="48.88077" lon="1.97283">
        <ele>174</ele>
        <time>2022-10-03T13:38:40.270Z</time>
      </trkpt>
      <trkpt lat="48.88084" lon="1.97278">
        <ele>174</ele>
        <time>2022-10-03T13:38:45.279Z</time>
      </trkpt>
      <trkpt lat="48.8809" lon="1.97271">
        <ele>174</ele>
        <time>2022-10-03T13:38:50.257Z</time>
      </trkpt>
      <trkpt lat="48.88093" lon="1.97265">
        <ele>174</ele>
        <time>2022-10-03T13:38:54.268Z</time>
      </trkpt>
      <trkpt lat="48.88098" lon="1.97259">
        <ele>173</ele>
        <time>2022-10-03T13:38:58.273Z</time>
      </trkpt>
      <trkpt lat="48.88103" lon="1.97251">
        <ele>173</ele>
        <time>2022-10-03T13:39:03.272Z</time>
      </trkpt>
      <trkpt lat="48.88108" lon="1.97246">
        <ele>173</ele>
        <time>2022-10-03T13:39:07.285Z</time>
      </trkpt>
      <trkpt lat="48.88113" lon="1.97239">
        <ele>173</ele>
        <time>2022-10-03T13:39:12.257Z</time>
      </trkpt>
      <trkpt lat="48.88118" lon="1.97229">
        <ele>172</ele>
        <time>2022-10-03T13:39:17.295Z</time>
      </trkpt>
      <trkpt lat="48.88123" lon="1.9722">
        <ele>172</ele>
        <time>2022-10-03T13:39:22.258Z</time>
      </trkpt>
      <trkpt lat="48.8813" lon="1.97215">
        <ele>174</ele>
        <time>2022-10-03T13:39:26.264Z</time>
      </trkpt>
      <trkpt lat="48.88135" lon="1.97209">
        <ele>174</ele>
        <time>2022-10-03T13:39:30.271Z</time>
      </trkpt>
      <trkpt lat="48.88142" lon="1.97201">
        <ele>173</ele>
        <time>2022-10-03T13:39:35.263Z</time>
      </trkpt>
      <trkpt lat="48.88147" lon="1.9719">
        <ele>173</ele>
        <time>2022-10-03T13:39:40.303Z</time>
      </trkpt>
      <trkpt lat="48.88148" lon="1.9718">
        <ele>173</ele>
        <time>2022-10-03T13:39:45.266Z</time>
      </trkpt>
      <trkpt lat="48.88151" lon="1.97173">
        <ele>173</ele>
        <time>2022-10-03T13:39:49.272Z</time>
      </trkpt>
      <trkpt lat="48.88155" lon="1.97166">
        <ele>178</ele>
        <time>2022-10-03T13:39:53.277Z</time>
      </trkpt>
      <trkpt lat="48.8816" lon="1.97158">
        <ele>178</ele>
        <time>2022-10-03T13:39:58.260Z</time>
      </trkpt>
      <trkpt lat="48.88164" lon="1.97151">
        <ele>176</ele>
        <time>2022-10-03T13:40:03.274Z</time>
      </trkpt>
      <trkpt lat="48.88168" lon="1.97142">
        <ele>176</ele>
        <time>2022-10-03T13:40:08.260Z</time>
      </trkpt>
      <trkpt lat="48.88171" lon="1.97133">
        <ele>176</ele>
        <time>2022-10-03T13:40:13.293Z</time>
      </trkpt>
      <trkpt lat="48.88174" lon="1.97124">
        <ele>175</ele>
        <time>2022-10-03T13:40:18.264Z</time>
      </trkpt>
      <trkpt lat="48.88178" lon="1.97115">
        <ele>175</ele>
        <time>2022-10-03T13:40:23.302Z</time>
      </trkpt>
      <trkpt lat="48.88182" lon="1.97107">
        <ele>177</ele>
        <time>2022-10-03T13:40:28.263Z</time>
      </trkpt>
      <trkpt lat="48.88187" lon="1.97101">
        <ele>177</ele>
        <time>2022-10-03T13:40:33.273Z</time>
      </trkpt>
      <trkpt lat="48.88193" lon="1.97096">
        <ele>176</ele>
        <time>2022-10-03T13:40:38.261Z</time>
      </trkpt>
      <trkpt lat="48.88199" lon="1.97089">
        <ele>176</ele>
        <time>2022-10-03T13:40:43.265Z</time>
      </trkpt>
      <trkpt lat="48.88203" lon="1.97085">
        <ele>176</ele>
        <time>2022-10-03T13:40:47.279Z</time>
      </trkpt>
      <trkpt lat="48.88208" lon="1.9708">
        <ele>179</ele>
        <time>2022-10-03T13:40:52.249Z</time>
      </trkpt>
      <trkpt lat="48.88214" lon="1.97076">
        <ele>179</ele>
        <time>2022-10-03T13:40:56.258Z</time>
      </trkpt>
      <trkpt lat="48.88219" lon="1.97071">
        <ele>179</ele>
        <time>2022-10-03T13:41:01.278Z</time>
      </trkpt>
      <trkpt lat="48.88226" lon="1.97065">
        <ele>178</ele>
        <time>2022-10-03T13:41:06.245Z</time>
      </trkpt>
      <trkpt lat="48.88231" lon="1.97061">
        <ele>178</ele>
        <time>2022-10-03T13:41:10.256Z</time>
      </trkpt>
      <trkpt lat="48.88236" lon="1.97054">
        <ele>178</ele>
        <time>2022-10-03T13:41:15.276Z</time>
      </trkpt>
      <trkpt lat="48.88242" lon="1.97048">
        <ele>178</ele>
        <time>2022-10-03T13:41:19.292Z</time>
      </trkpt>
      <trkpt lat="48.88248" lon="1.97041">
        <ele>177</ele>
        <time>2022-10-03T13:41:24.267Z</time>
      </trkpt>
      <trkpt lat="48.88252" lon="1.97037">
        <ele>177</ele>
        <time>2022-10-03T13:41:28.265Z</time>
      </trkpt>
      <trkpt lat="48.88259" lon="1.97031">
        <ele>177</ele>
        <time>2022-10-03T13:41:33.291Z</time>
      </trkpt>
      <trkpt lat="48.88266" lon="1.97026">
        <ele>177</ele>
        <time>2022-10-03T13:41:38.248Z</time>
      </trkpt>
      <trkpt lat="48.88271" lon="1.97023">
        <ele>177</ele>
        <time>2022-10-03T13:41:42.259Z</time>
      </trkpt>
      <trkpt lat="48.88276" lon="1.97018">
        <ele>177</ele>
        <time>2022-10-03T13:41:47.285Z</time>
      </trkpt>
      <trkpt lat="48.88282" lon="1.97011">
        <ele>177</ele>
        <time>2022-10-03T13:41:52.243Z</time>
      </trkpt>
      <trkpt lat="48.8829" lon="1.97004">
        <ele>177</ele>
        <time>2022-10-03T13:41:57.295Z</time>
      </trkpt>
      <trkpt lat="48.88298" lon="1.96996">
        <ele>176</ele>
        <time>2022-10-03T13:42:02.252Z</time>
      </trkpt>
      <trkpt lat="48.88304" lon="1.96989">
        <ele>176</ele>
        <time>2022-10-03T13:42:07.279Z</time>
      </trkpt>
      <trkpt lat="48.8831" lon="1.96982">
        <ele>177</ele>
        <time>2022-10-03T13:42:12.253Z</time>
      </trkpt>
      <trkpt lat="48.88315" lon="1.96978">
        <ele>177</ele>
        <time>2022-10-03T13:42:16.263Z</time>
      </trkpt>
      <trkpt lat="48.88323" lon="1.96972">
        <ele>176</ele>
        <time>2022-10-03T13:42:21.290Z</time>
      </trkpt>
      <trkpt lat="48.88329" lon="1.96966">
        <ele>176</ele>
        <time>2022-10-03T13:42:26.247Z</time>
      </trkpt>
      <trkpt lat="48.88334" lon="1.96962">
        <ele>176</ele>
        <time>2022-10-03T13:42:30.262Z</time>
      </trkpt>
      <trkpt lat="48.88342" lon="1.96958">
        <ele>176</ele>
        <time>2022-10-03T13:42:35.283Z</time>
      </trkpt>
      <trkpt lat="48.88348" lon="1.96954">
        <ele>176</ele>
        <time>2022-10-03T13:42:39.288Z</time>
      </trkpt>
      <trkpt lat="48.88355" lon="1.9695">
        <ele>176</ele>
        <time>2022-10-03T13:42:44.263Z</time>
      </trkpt>
      <trkpt lat="48.88362" lon="1.96945">
        <ele>176</ele>
        <time>2022-10-03T13:42:49.287Z</time>
      </trkpt>
      <trkpt lat="48.88369" lon="1.96942">
        <ele>176</ele>
        <time>2022-10-03T13:42:54.251Z</time>
      </trkpt>
      <trkpt lat="48.88375" lon="1.96939">
        <ele>176</ele>
        <time>2022-10-03T13:42:58.268Z</time>
      </trkpt>
      <trkpt lat="48.88382" lon="1.96936">
        <ele>176</ele>
        <time>2022-10-03T13:43:03.282Z</time>
      </trkpt>
      <trkpt lat="48.88387" lon="1.96933">
        <ele>176</ele>
        <time>2022-10-03T13:43:07.290Z</time>
      </trkpt>
      <trkpt lat="48.88394" lon="1.9693">
        <ele>178</ele>
        <time>2022-10-03T13:43:12.260Z</time>
      </trkpt>
      <trkpt lat="48.88399" lon="1.96927">
        <ele>178</ele>
        <time>2022-10-03T13:43:16.275Z</time>
      </trkpt>
      <trkpt lat="48.88405" lon="1.96924">
        <ele>180</ele>
        <time>2022-10-03T13:43:21.290Z</time>
      </trkpt>
      <trkpt lat="48.88413" lon="1.96922">
        <ele>180</ele>
        <time>2022-10-03T13:43:26.255Z</time>
      </trkpt>
      <trkpt lat="48.88418" lon="1.96921">
        <ele>180</ele>
        <time>2022-10-03T13:43:30.249Z</time>
      </trkpt>
      <trkpt lat="48.88423" lon="1.96921">
        <ele>180</ele>
        <time>2022-10-03T13:43:34.272Z</time>
      </trkpt>
      <trkpt lat="48.88429" lon="1.96918">
        <ele>180</ele>
        <time>2022-10-03T13:43:39.270Z</time>
      </trkpt>
      <trkpt lat="48.88436" lon="1.96917">
        <ele>181</ele>
        <time>2022-10-03T13:43:43.270Z</time>
      </trkpt>
      <trkpt lat="48.88443" lon="1.96914">
        <ele>181</ele>
        <time>2022-10-03T13:43:48.267Z</time>
      </trkpt>
      <trkpt lat="48.88449" lon="1.96913">
        <ele>181</ele>
        <time>2022-10-03T13:43:53.296Z</time>
      </trkpt>
      <trkpt lat="48.88456" lon="1.96912">
        <ele>181</ele>
        <time>2022-10-03T13:43:58.261Z</time>
      </trkpt>
      <trkpt lat="48.88461" lon="1.9691">
        <ele>179</ele>
        <time>2022-10-03T13:44:02.278Z</time>
      </trkpt>
      <trkpt lat="48.88468" lon="1.96908">
        <ele>179</ele>
        <time>2022-10-03T13:44:07.287Z</time>
      </trkpt>
      <trkpt lat="48.88474" lon="1.96906">
        <ele>179</ele>
        <time>2022-10-03T13:44:11.289Z</time>
      </trkpt>
      <trkpt lat="48.88481" lon="1.96903">
        <ele>179</ele>
        <time>2022-10-03T13:44:16.262Z</time>
      </trkpt>
      <trkpt lat="48.88488" lon="1.96897">
        <ele>180</ele>
        <time>2022-10-03T13:44:21.290Z</time>
      </trkpt>
      <trkpt lat="48.88495" lon="1.96892">
        <ele>180</ele>
        <time>2022-10-03T13:44:26.259Z</time>
      </trkpt>
      <trkpt lat="48.88498" lon="1.96888">
        <ele>180</ele>
        <time>2022-10-03T13:44:30.265Z</time>
      </trkpt>
      <trkpt lat="48.88503" lon="1.96884">
        <ele>180</ele>
        <time>2022-10-03T13:44:34.278Z</time>
      </trkpt>
      <trkpt lat="48.8851" lon="1.96878">
        <ele>180</ele>
        <time>2022-10-03T13:44:39.287Z</time>
      </trkpt>
      <trkpt lat="48.88517" lon="1.96871">
        <ele>179</ele>
        <time>2022-10-03T13:44:44.258Z</time>
      </trkpt>
      <trkpt lat="48.88521" lon="1.96866">
        <ele>179</ele>
        <time>2022-10-03T13:44:48.269Z</time>
      </trkpt>
      <trkpt lat="48.88526" lon="1.96862">
        <ele>179</ele>
        <time>2022-10-03T13:44:53.300Z</time>
      </trkpt>
      <trkpt lat="48.88534" lon="1.96856">
        <ele>179</ele>
        <time>2022-10-03T13:44:58.278Z</time>
      </trkpt>
      <trkpt lat="48.8854" lon="1.9685">
        <ele>179</ele>
        <time>2022-10-03T13:45:03.290Z</time>
      </trkpt>
      <trkpt lat="48.88546" lon="1.96845">
        <ele>178</ele>
        <time>2022-10-03T13:45:08.270Z</time>
      </trkpt>
      <trkpt lat="48.88553" lon="1.96841">
        <ele>178</ele>
        <time>2022-10-03T13:45:13.257Z</time>
      </trkpt>
      <trkpt lat="48.88559" lon="1.96835">
        <ele>178</ele>
        <time>2022-10-03T13:45:17.276Z</time>
      </trkpt>
      <trkpt lat="48.88564" lon="1.9683">
        <ele>178</ele>
        <time>2022-10-03T13:45:21.308Z</time>
      </trkpt>
      <trkpt lat="48.8857" lon="1.96826">
        <ele>177</ele>
        <time>2022-10-03T13:45:26.263Z</time>
      </trkpt>
      <trkpt lat="48.88575" lon="1.96821">
        <ele>177</ele>
        <time>2022-10-03T13:45:30.278Z</time>
      </trkpt>
      <trkpt lat="48.88581" lon="1.96816">
        <ele>178</ele>
        <time>2022-10-03T13:45:35.252Z</time>
      </trkpt>
      <trkpt lat="48.88585" lon="1.96811">
        <ele>178</ele>
        <time>2022-10-03T13:45:39.274Z</time>
      </trkpt>
      <trkpt lat="48.8859" lon="1.96808">
        <ele>178</ele>
        <time>2022-10-03T13:45:43.291Z</time>
      </trkpt>
      <trkpt lat="48.88596" lon="1.96803">
        <ele>178</ele>
        <time>2022-10-03T13:45:47.300Z</time>
      </trkpt>
      <trkpt lat="48.88601" lon="1.96799">
        <ele>177</ele>
        <time>2022-10-03T13:45:52.242Z</time>
      </trkpt>
      <trkpt lat="48.88606" lon="1.96795">
        <ele>177</ele>
        <time>2022-10-03T13:45:56.250Z</time>
      </trkpt>
      <trkpt lat="48.88611" lon="1.9679">
        <ele>178</ele>
        <time>2022-10-03T13:46:01.271Z</time>
      </trkpt>
      <trkpt lat="48.88617" lon="1.96783">
        <ele>178</ele>
        <time>2022-10-03T13:46:06.267Z</time>
      </trkpt>
      <trkpt lat="48.88622" lon="1.96778">
        <ele>178</ele>
        <time>2022-10-03T13:46:10.281Z</time>
      </trkpt>
      <trkpt lat="48.88628" lon="1.96771">
        <ele>177</ele>
        <time>2022-10-03T13:46:15.277Z</time>
      </trkpt>
      <trkpt lat="48.88634" lon="1.96764">
        <ele>177</ele>
        <time>2022-10-03T13:46:20.265Z</time>
      </trkpt>
      <trkpt lat="48.8864" lon="1.96758">
        <ele>179</ele>
        <time>2022-10-03T13:46:25.260Z</time>
      </trkpt>
      <trkpt lat="48.88643" lon="1.96753">
        <ele>179</ele>
        <time>2022-10-03T13:46:29.262Z</time>
      </trkpt>
      <trkpt lat="48.88649" lon="1.96746">
        <ele>179</ele>
        <time>2022-10-03T13:46:34.251Z</time>
      </trkpt>
      <trkpt lat="48.88653" lon="1.96741">
        <ele>178</ele>
        <time>2022-10-03T13:46:38.265Z</time>
      </trkpt>
      <trkpt lat="48.88658" lon="1.96734">
        <ele>178</ele>
        <time>2022-10-03T13:46:43.282Z</time>
      </trkpt>
      <trkpt lat="48.88662" lon="1.96727">
        <ele>178</ele>
        <time>2022-10-03T13:46:48.297Z</time>
      </trkpt>
      <trkpt lat="48.88667" lon="1.96721">
        <ele>178</ele>
        <time>2022-10-03T13:46:53.280Z</time>
      </trkpt>
      <trkpt lat="48.88673" lon="1.96713">
        <ele>178</ele>
        <time>2022-10-03T13:46:58.279Z</time>
      </trkpt>
      <trkpt lat="48.88678" lon="1.96705">
        <ele>178</ele>
        <time>2022-10-03T13:47:03.276Z</time>
      </trkpt>
      <trkpt lat="48.88682" lon="1.96699">
        <ele>177</ele>
        <time>2022-10-03T13:47:07.291Z</time>
      </trkpt>
      <trkpt lat="48.88687" lon="1.96691">
        <ele>177</ele>
        <time>2022-10-03T13:47:12.254Z</time>
      </trkpt>
      <trkpt lat="48.88691" lon="1.96684">
        <ele>177</ele>
        <time>2022-10-03T13:47:16.296Z</time>
      </trkpt>
      <trkpt lat="48.88695" lon="1.96677">
        <ele>178</ele>
        <time>2022-10-03T13:47:21.289Z</time>
      </trkpt>
      <trkpt lat="48.88699" lon="1.9667">
        <ele>178</ele>
        <time>2022-10-03T13:47:25.301Z</time>
      </trkpt>
      <trkpt lat="48.88704" lon="1.96663">
        <ele>178</ele>
        <time>2022-10-03T13:47:30.274Z</time>
      </trkpt>
      <trkpt lat="48.88709" lon="1.96656">
        <ele>177</ele>
        <time>2022-10-03T13:47:35.275Z</time>
      </trkpt>
      <trkpt lat="48.88715" lon="1.9665">
        <ele>178</ele>
        <time>2022-10-03T13:47:39.282Z</time>
      </trkpt>
      <trkpt lat="48.88719" lon="1.96643">
        <ele>178</ele>
        <time>2022-10-03T13:47:44.259Z</time>
      </trkpt>
      <trkpt lat="48.88724" lon="1.96637">
        <ele>178</ele>
        <time>2022-10-03T13:47:49.263Z</time>
      </trkpt>
      <trkpt lat="48.88729" lon="1.96629">
        <ele>178</ele>
        <time>2022-10-03T13:47:54.254Z</time>
      </trkpt>
      <trkpt lat="48.88732" lon="1.96623">
        <ele>179</ele>
        <time>2022-10-03T13:47:58.263Z</time>
      </trkpt>
      <trkpt lat="48.88736" lon="1.96618">
        <ele>178</ele>
        <time>2022-10-03T13:48:02.279Z</time>
      </trkpt>
      <trkpt lat="48.88741" lon="1.9661">
        <ele>178</ele>
        <time>2022-10-03T13:48:07.266Z</time>
      </trkpt>
      <trkpt lat="48.88745" lon="1.96605">
        <ele>178</ele>
        <time>2022-10-03T13:48:11.268Z</time>
      </trkpt>
      <trkpt lat="48.8875" lon="1.96597">
        <ele>178</ele>
        <time>2022-10-03T13:48:16.264Z</time>
      </trkpt>
      <trkpt lat="48.88754" lon="1.96589">
        <ele>178</ele>
        <time>2022-10-03T13:48:21.278Z</time>
      </trkpt>
      <trkpt lat="48.88759" lon="1.96582">
        <ele>178</ele>
        <time>2022-10-03T13:48:26.261Z</time>
      </trkpt>
      <trkpt lat="48.88763" lon="1.96573">
        <ele>178</ele>
        <time>2022-10-03T13:48:31.259Z</time>
      </trkpt>
      <trkpt lat="48.88763" lon="1.96566">
        <ele>178</ele>
        <time>2022-10-03T13:48:35.268Z</time>
      </trkpt>
      <trkpt lat="48.88762" lon="1.96557">
        <ele>178</ele>
        <time>2022-10-03T13:48:39.292Z</time>
      </trkpt>
      <trkpt lat="48.88759" lon="1.96548">
        <ele>178</ele>
        <time>2022-10-03T13:48:44.270Z</time>
      </trkpt>
      <trkpt lat="48.88755" lon="1.9654">
        <ele>177</ele>
        <time>2022-10-03T13:48:49.281Z</time>
      </trkpt>
      <trkpt lat="48.88752" lon="1.96532">
        <ele>177</ele>
        <time>2022-10-03T13:48:53.301Z</time>
      </trkpt>
      <trkpt lat="48.8875" lon="1.96523">
        <ele>177</ele>
        <time>2022-10-03T13:48:58.267Z</time>
      </trkpt>
      <trkpt lat="48.88747" lon="1.96516">
        <ele>177</ele>
        <time>2022-10-03T13:49:02.267Z</time>
      </trkpt>
      <trkpt lat="48.88744" lon="1.96508">
        <ele>177</ele>
        <time>2022-10-03T13:49:07.296Z</time>
      </trkpt>
      <trkpt lat="48.8874" lon="1.96499">
        <ele>177</ele>
        <time>2022-10-03T13:49:12.255Z</time>
      </trkpt>
      <trkpt lat="48.88737" lon="1.96491">
        <ele>177</ele>
        <time>2022-10-03T13:49:16.268Z</time>
      </trkpt>
      <trkpt lat="48.88734" lon="1.9648">
        <ele>176</ele>
        <time>2022-10-03T13:49:21.275Z</time>
      </trkpt>
      <trkpt lat="48.88731" lon="1.9647">
        <ele>176</ele>
        <time>2022-10-03T13:49:26.247Z</time>
      </trkpt>
      <trkpt lat="48.88728" lon="1.96463">
        <ele>176</ele>
        <time>2022-10-03T13:49:30.258Z</time>
      </trkpt>
      <trkpt lat="48.88727" lon="1.96455">
        <ele>177</ele>
        <time>2022-10-03T13:49:34.269Z</time>
      </trkpt>
      <trkpt lat="48.88723" lon="1.96446">
        <ele>177</ele>
        <time>2022-10-03T13:49:39.284Z</time>
      </trkpt>
      <trkpt lat="48.88719" lon="1.96437">
        <ele>177</ele>
        <time>2022-10-03T13:49:44.266Z</time>
      </trkpt>
      <trkpt lat="48.88717" lon="1.96431">
        <ele>177</ele>
        <time>2022-10-03T13:49:48.266Z</time>
      </trkpt>
      <trkpt lat="48.88712" lon="1.9642">
        <ele>177</ele>
        <time>2022-10-03T13:49:53.253Z</time>
      </trkpt>
      <trkpt lat="48.88709" lon="1.96412">
        <ele>177</ele>
        <time>2022-10-03T13:49:57.286Z</time>
      </trkpt>
      <trkpt lat="48.88706" lon="1.96404">
        <ele>178</ele>
        <time>2022-10-03T13:50:01.301Z</time>
      </trkpt>
      <trkpt lat="48.88701" lon="1.96396">
        <ele>178</ele>
        <time>2022-10-03T13:50:06.264Z</time>
      </trkpt>
      <trkpt lat="48.88697" lon="1.96387">
        <ele>178</ele>
        <time>2022-10-03T13:50:11.255Z</time>
      </trkpt>
      <trkpt lat="48.88693" lon="1.9638">
        <ele>178</ele>
        <time>2022-10-03T13:50:15.298Z</time>
      </trkpt>
      <trkpt lat="48.88689" lon="1.96373">
        <ele>178</ele>
        <time>2022-10-03T13:50:19.299Z</time>
      </trkpt>
      <trkpt lat="48.88685" lon="1.96364">
        <ele>178</ele>
        <time>2022-10-03T13:50:24.261Z</time>
      </trkpt>
      <trkpt lat="48.88681" lon="1.96355">
        <ele>178</ele>
        <time>2022-10-03T13:50:29.285Z</time>
      </trkpt>
      <trkpt lat="48.88678" lon="1.96348">
        <ele>178</ele>
        <time>2022-10-03T13:50:33.291Z</time>
      </trkpt>
      <trkpt lat="48.88675" lon="1.96341">
        <ele>178</ele>
        <time>2022-10-03T13:50:37.304Z</time>
      </trkpt>
      <trkpt lat="48.88671" lon="1.96333">
        <ele>178</ele>
        <time>2022-10-03T13:50:42.268Z</time>
      </trkpt>
      <trkpt lat="48.88666" lon="1.96324">
        <ele>178</ele>
        <time>2022-10-03T13:50:47.288Z</time>
      </trkpt>
      <trkpt lat="48.88663" lon="1.96318">
        <ele>179</ele>
        <time>2022-10-03T13:50:51.310Z</time>
      </trkpt>
      <trkpt lat="48.88658" lon="1.96308">
        <ele>179</ele>
        <time>2022-10-03T13:50:56.267Z</time>
      </trkpt>
      <trkpt lat="48.88653" lon="1.96299">
        <ele>179</ele>
        <time>2022-10-03T13:51:01.285Z</time>
      </trkpt>
      <trkpt lat="48.8865" lon="1.96293">
        <ele>179</ele>
        <time>2022-10-03T13:51:05.298Z</time>
      </trkpt>
      <trkpt lat="48.88645" lon="1.96285">
        <ele>179</ele>
        <time>2022-10-03T13:51:10.264Z</time>
      </trkpt>
      <trkpt lat="48.8864" lon="1.96276">
        <ele>179</ele>
        <time>2022-10-03T13:51:15.288Z</time>
      </trkpt>
      <trkpt lat="48.88635" lon="1.96267">
        <ele>179</ele>
        <time>2022-10-03T13:51:20.254Z</time>
      </trkpt>
      <trkpt lat="48.8863" lon="1.96262">
        <ele>179</ele>
        <time>2022-10-03T13:51:24.273Z</time>
      </trkpt>
      <trkpt lat="48.88626" lon="1.96256">
        <ele>179</ele>
        <time>2022-10-03T13:51:28.271Z</time>
      </trkpt>
      <trkpt lat="48.88622" lon="1.96246">
        <ele>179</ele>
        <time>2022-10-03T13:51:33.293Z</time>
      </trkpt>
      <trkpt lat="48.88617" lon="1.96238">
        <ele>179</ele>
        <time>2022-10-03T13:51:38.271Z</time>
      </trkpt>
      <trkpt lat="48.88613" lon="1.9623">
        <ele>179</ele>
        <time>2022-10-03T13:51:43.293Z</time>
      </trkpt>
      <trkpt lat="48.8861" lon="1.96224">
        <ele>179</ele>
        <time>2022-10-03T13:51:47.309Z</time>
      </trkpt>
      <trkpt lat="48.88605" lon="1.96215">
        <ele>179</ele>
        <time>2022-10-03T13:51:52.258Z</time>
      </trkpt>
      <trkpt lat="48.886" lon="1.96207">
        <ele>179</ele>
        <time>2022-10-03T13:51:57.290Z</time>
      </trkpt>
      <trkpt lat="48.88596" lon="1.962">
        <ele>178</ele>
        <time>2022-10-03T13:52:02.253Z</time>
      </trkpt>
      <trkpt lat="48.88592" lon="1.96193">
        <ele>178</ele>
        <time>2022-10-03T13:52:06.276Z</time>
      </trkpt>
      <trkpt lat="48.88588" lon="1.96184">
        <ele>178</ele>
        <time>2022-10-03T13:52:11.270Z</time>
      </trkpt>
      <trkpt lat="48.88583" lon="1.96176">
        <ele>179</ele>
        <time>2022-10-03T13:52:16.279Z</time>
      </trkpt>
      <trkpt lat="48.88578" lon="1.96167">
        <ele>179</ele>
        <time>2022-10-03T13:52:21.273Z</time>
      </trkpt>
      <trkpt lat="48.88574" lon="1.9616">
        <ele>179</ele>
        <time>2022-10-03T13:52:25.298Z</time>
      </trkpt>
      <trkpt lat="48.8857" lon="1.96151">
        <ele>179</ele>
        <time>2022-10-03T13:52:30.281Z</time>
      </trkpt>
      <trkpt lat="48.88565" lon="1.96144">
        <ele>179</ele>
        <time>2022-10-03T13:52:35.292Z</time>
      </trkpt>
      <trkpt lat="48.88559" lon="1.96136">
        <ele>179</ele>
        <time>2022-10-03T13:52:40.268Z</time>
      </trkpt>
      <trkpt lat="48.88554" lon="1.9613">
        <ele>179</ele>
        <time>2022-10-03T13:52:44.272Z</time>
      </trkpt>
      <trkpt lat="48.88551" lon="1.96121">
        <ele>179</ele>
        <time>2022-10-03T13:52:49.282Z</time>
      </trkpt>
      <trkpt lat="48.88546" lon="1.96114">
        <ele>179</ele>
        <time>2022-10-03T13:52:54.244Z</time>
      </trkpt>
      <trkpt lat="48.88541" lon="1.96106">
        <ele>178</ele>
        <time>2022-10-03T13:52:59.271Z</time>
      </trkpt>
      <trkpt lat="48.88536" lon="1.961">
        <ele>178</ele>
        <time>2022-10-03T13:53:03.294Z</time>
      </trkpt>
      <trkpt lat="48.8853" lon="1.96094">
        <ele>177</ele>
        <time>2022-10-03T13:53:08.275Z</time>
      </trkpt>
      <trkpt lat="48.88524" lon="1.96088">
        <ele>177</ele>
        <time>2022-10-03T13:53:13.290Z</time>
      </trkpt>
      <trkpt lat="48.88518" lon="1.96081">
        <ele>177</ele>
        <time>2022-10-03T13:53:18.274Z</time>
      </trkpt>
      <trkpt lat="48.88512" lon="1.96075">
        <ele>176</ele>
        <time>2022-10-03T13:53:23.264Z</time>
      </trkpt>
      <trkpt lat="48.88506" lon="1.9607">
        <ele>176</ele>
        <time>2022-10-03T13:53:27.276Z</time>
      </trkpt>
      <trkpt lat="48.88499" lon="1.96064">
        <ele>176</ele>
        <time>2022-10-03T13:53:31.273Z</time>
      </trkpt>
      <trkpt lat="48.88492" lon="1.96058">
        <ele>176</ele>
        <time>2022-10-03T13:53:36.272Z</time>
      </trkpt>
      <trkpt lat="48.88487" lon="1.96051">
        <ele>176</ele>
        <time>2022-10-03T13:53:41.293Z</time>
      </trkpt>
      <trkpt lat="48.88482" lon="1.96045">
        <ele>176</ele>
        <time>2022-10-03T13:53:46.267Z</time>
      </trkpt>
      <trkpt lat="48.88478" lon="1.96041">
        <ele>176</ele>
        <time>2022-10-03T13:53:50.266Z</time>
      </trkpt>
      <trkpt lat="48.88472" lon="1.96034">
        <ele>176</ele>
        <time>2022-10-03T13:53:55.288Z</time>
      </trkpt>
      <trkpt lat="48.88467" lon="1.96026">
        <ele>176</ele>
        <time>2022-10-03T13:54:00.269Z</time>
      </trkpt>
      <trkpt lat="48.88462" lon="1.9602">
        <ele>176</ele>
        <time>2022-10-03T13:54:04.270Z</time>
      </trkpt>
      <trkpt lat="48.88458" lon="1.96014">
        <ele>177</ele>
        <time>2022-10-03T13:54:08.278Z</time>
      </trkpt>
      <trkpt lat="48.88454" lon="1.96007">
        <ele>177</ele>
        <time>2022-10-03T13:54:12.280Z</time>
      </trkpt>
      <trkpt lat="48.88451" lon="1.95999">
        <ele>177</ele>
        <time>2022-10-03T13:54:17.267Z</time>
      </trkpt>
      <trkpt lat="48.88445" lon="1.95992">
        <ele>177</ele>
        <time>2022-10-03T13:54:22.268Z</time>
      </trkpt>
      <trkpt lat="48.88441" lon="1.95987">
        <ele>177</ele>
        <time>2022-10-03T13:54:26.290Z</time>
      </trkpt>
      <trkpt lat="48.88437" lon="1.95978">
        <ele>177</ele>
        <time>2022-10-03T13:54:31.294Z</time>
      </trkpt>
      <trkpt lat="48.88434" lon="1.95969">
        <ele>177</ele>
        <time>2022-10-03T13:54:36.274Z</time>
      </trkpt>
      <trkpt lat="48.88431" lon="1.9596">
        <ele>177</ele>
        <time>2022-10-03T13:54:41.282Z</time>
      </trkpt>
      <trkpt lat="48.88427" lon="1.95953">
        <ele>175</ele>
        <time>2022-10-03T13:54:46.282Z</time>
      </trkpt>
      <trkpt lat="48.88425" lon="1.95941">
        <ele>175</ele>
        <time>2022-10-03T13:54:51.281Z</time>
      </trkpt>
      <trkpt lat="48.88421" lon="1.95933">
        <ele>175</ele>
        <time>2022-10-03T13:54:55.290Z</time>
      </trkpt>
      <trkpt lat="48.88416" lon="1.95925">
        <ele>176</ele>
        <time>2022-10-03T13:55:00.273Z</time>
      </trkpt>
      <trkpt lat="48.88411" lon="1.95916">
        <ele>176</ele>
        <time>2022-10-03T13:55:05.290Z</time>
      </trkpt>
      <trkpt lat="48.88407" lon="1.9591">
        <ele>176</ele>
        <time>2022-10-03T13:55:09.284Z</time>
      </trkpt>
      <trkpt lat="48.88402" lon="1.95901">
        <ele>175</ele>
        <time>2022-10-03T13:55:14.274Z</time>
      </trkpt>
      <trkpt lat="48.88396" lon="1.95894">
        <ele>175</ele>
        <time>2022-10-03T13:55:19.263Z</time>
      </trkpt>
      <trkpt lat="48.8839" lon="1.95891">
        <ele>175</ele>
        <time>2022-10-03T13:55:23.281Z</time>
      </trkpt>
      <trkpt lat="48.88384" lon="1.95887">
        <ele>175</ele>
        <time>2022-10-03T13:55:28.270Z</time>
      </trkpt>
      <trkpt lat="48.88379" lon="1.95883">
        <ele>175</ele>
        <time>2022-10-03T13:55:32.290Z</time>
      </trkpt>
      <trkpt lat="48.88373" lon="1.95879">
        <ele>175</ele>
        <time>2022-10-03T13:55:37.268Z</time>
      </trkpt>
      <trkpt lat="48.88368" lon="1.95877">
        <ele>175</ele>
        <time>2022-10-03T13:55:41.281Z</time>
      </trkpt>
      <trkpt lat="48.88363" lon="1.95873">
        <ele>176</ele>
        <time>2022-10-03T13:55:45.298Z</time>
      </trkpt>
      <trkpt lat="48.88358" lon="1.9587">
        <ele>176</ele>
        <time>2022-10-03T13:55:50.281Z</time>
      </trkpt>
      <trkpt lat="48.88348" lon="1.95863">
        <ele>176</ele>
        <time>2022-10-03T13:56:19.287Z</time>
      </trkpt>
      <trkpt lat="48.88348" lon="1.95863">
        <ele>176</ele>
        <time>2022-10-03T13:56:24.285Z</time>
      </trkpt>
      <trkpt lat="48.88346" lon="1.95862">
        <ele>179</ele>
        <time>2022-10-03T13:56:29.261Z</time>
      </trkpt>
      <trkpt lat="48.88341" lon="1.95859">
        <ele>179</ele>
        <time>2022-10-03T13:56:33.263Z</time>
      </trkpt>
      <trkpt lat="48.88335" lon="1.95854">
        <ele>179</ele>
        <time>2022-10-03T13:56:38.267Z</time>
      </trkpt>
      <trkpt lat="48.88331" lon="1.9585">
        <ele>179</ele>
        <time>2022-10-03T13:56:42.262Z</time>
      </trkpt>
      <trkpt lat="48.88327" lon="1.95846">
        <ele>180</ele>
        <time>2022-10-03T13:56:47.275Z</time>
      </trkpt>
      <trkpt lat="48.88322" lon="1.95841">
        <ele>180</ele>
        <time>2022-10-03T13:56:52.277Z</time>
      </trkpt>
      <trkpt lat="48.88318" lon="1.95835">
        <ele>183</ele>
        <time>2022-10-03T13:56:57.278Z</time>
      </trkpt>
      <trkpt lat="48.88314" lon="1.95828">
        <ele>183</ele>
        <time>2022-10-03T13:57:02.276Z</time>
      </trkpt>
      <trkpt lat="48.88309" lon="1.95822">
        <ele>183</ele>
        <time>2022-10-03T13:57:07.268Z</time>
      </trkpt>
      <trkpt lat="48.88307" lon="1.95817">
        <ele>183</ele>
        <time>2022-10-03T13:57:11.279Z</time>
      </trkpt>
      <trkpt lat="48.88305" lon="1.95811">
        <ele>183</ele>
        <time>2022-10-03T13:57:15.282Z</time>
      </trkpt>
      <trkpt lat="48.88302" lon="1.95804">
        <ele>183</ele>
        <time>2022-10-03T13:57:20.258Z</time>
      </trkpt>
      <trkpt lat="48.88299" lon="1.95799">
        <ele>183</ele>
        <time>2022-10-03T13:57:24.280Z</time>
      </trkpt>
      <trkpt lat="48.88294" lon="1.95791">
        <ele>184</ele>
        <time>2022-10-03T13:57:29.284Z</time>
      </trkpt>
      <trkpt lat="48.8829" lon="1.95786">
        <ele>184</ele>
        <time>2022-10-03T13:57:34.270Z</time>
      </trkpt>
      <trkpt lat="48.88286" lon="1.95783">
        <ele>184</ele>
        <time>2022-10-03T13:57:39.271Z</time>
      </trkpt>
      <trkpt lat="48.88282" lon="1.95781">
        <ele>184</ele>
        <time>2022-10-03T13:57:43.280Z</time>
      </trkpt>
      <trkpt lat="48.88276" lon="1.95779">
        <ele>184</ele>
        <time>2022-10-03T13:57:48.247Z</time>
      </trkpt>
      <trkpt lat="48.88271" lon="1.95777">
        <ele>184</ele>
        <time>2022-10-03T13:57:52.294Z</time>
      </trkpt>
      <trkpt lat="48.88266" lon="1.95778">
        <ele>184</ele>
        <time>2022-10-03T13:57:56.291Z</time>
      </trkpt>
      <trkpt lat="48.88259" lon="1.95777">
        <ele>183</ele>
        <time>2022-10-03T13:58:01.271Z</time>
      </trkpt>
      <trkpt lat="48.88252" lon="1.95776">
        <ele>183</ele>
        <time>2022-10-03T13:58:06.273Z</time>
      </trkpt>
      <trkpt lat="48.88247" lon="1.95776">
        <ele>183</ele>
        <time>2022-10-03T13:58:10.307Z</time>
      </trkpt>
      <trkpt lat="48.88241" lon="1.95775">
        <ele>183</ele>
        <time>2022-10-03T13:58:15.301Z</time>
      </trkpt>
      <trkpt lat="48.88235" lon="1.95773">
        <ele>183</ele>
        <time>2022-10-03T13:58:20.296Z</time>
      </trkpt>
      <trkpt lat="48.88229" lon="1.95772">
        <ele>183</ele>
        <time>2022-10-03T13:58:25.296Z</time>
      </trkpt>
      <trkpt lat="48.88223" lon="1.95775">
        <ele>183</ele>
        <time>2022-10-03T13:58:30.304Z</time>
      </trkpt>
      <trkpt lat="48.88216" lon="1.95779">
        <ele>183</ele>
        <time>2022-10-03T13:58:35.284Z</time>
      </trkpt>
      <trkpt lat="48.88212" lon="1.95781">
        <ele>183</ele>
        <time>2022-10-03T13:58:39.288Z</time>
      </trkpt>
      <trkpt lat="48.88207" lon="1.95784">
        <ele>183</ele>
        <time>2022-10-03T13:58:44.292Z</time>
      </trkpt>
      <trkpt lat="48.88201" lon="1.95791">
        <ele>183</ele>
        <time>2022-10-03T13:58:49.274Z</time>
      </trkpt>
      <trkpt lat="48.88197" lon="1.95797">
        <ele>184</ele>
        <time>2022-10-03T13:58:53.285Z</time>
      </trkpt>
      <trkpt lat="48.88192" lon="1.95801">
        <ele>184</ele>
        <time>2022-10-03T13:58:58.275Z</time>
      </trkpt>
      <trkpt lat="48.88187" lon="1.95803">
        <ele>184</ele>
        <time>2022-10-03T13:59:02.284Z</time>
      </trkpt>
      <trkpt lat="48.88179" lon="1.95805">
        <ele>183</ele>
        <time>2022-10-03T13:59:07.293Z</time>
      </trkpt>
      <trkpt lat="48.88172" lon="1.95805">
        <ele>183</ele>
        <time>2022-10-03T13:59:12.294Z</time>
      </trkpt>
      <trkpt lat="48.88166" lon="1.95803">
        <ele>183</ele>
        <time>2022-10-03T13:59:17.291Z</time>
      </trkpt>
      <trkpt lat="48.88159" lon="1.95802">
        <ele>183</ele>
        <time>2022-10-03T13:59:22.276Z</time>
      </trkpt>
      <trkpt lat="48.88153" lon="1.95801">
        <ele>183</ele>
        <time>2022-10-03T13:59:27.244Z</time>
      </trkpt>
      <trkpt lat="48.88147" lon="1.958">
        <ele>183</ele>
        <time>2022-10-03T13:59:31.277Z</time>
      </trkpt>
      <trkpt lat="48.88142" lon="1.95799">
        <ele>183</ele>
        <time>2022-10-03T13:59:36.283Z</time>
      </trkpt>
      <trkpt lat="48.88138" lon="1.958">
        <ele>183</ele>
        <time>2022-10-03T13:59:40.293Z</time>
      </trkpt>
      <trkpt lat="48.88132" lon="1.95801">
        <ele>183</ele>
        <time>2022-10-03T13:59:45.284Z</time>
      </trkpt>
      <trkpt lat="48.88127" lon="1.95803">
        <ele>183</ele>
        <time>2022-10-03T13:59:50.278Z</time>
      </trkpt>
      <trkpt lat="48.88121" lon="1.95807">
        <ele>183</ele>
        <time>2022-10-03T13:59:54.298Z</time>
      </trkpt>
      <trkpt lat="48.88116" lon="1.95809">
        <ele>183</ele>
        <time>2022-10-03T13:59:59.274Z</time>
      </trkpt>
      <trkpt lat="48.88111" lon="1.95813">
        <ele>183</ele>
        <time>2022-10-03T14:00:04.285Z</time>
      </trkpt>
      <trkpt lat="48.88104" lon="1.95817">
        <ele>183</ele>
        <time>2022-10-03T14:00:09.293Z</time>
      </trkpt>
      <trkpt lat="48.88099" lon="1.9582">
        <ele>183</ele>
        <time>2022-10-03T14:00:14.235Z</time>
      </trkpt>
      <trkpt lat="48.88095" lon="1.95822">
        <ele>182</ele>
        <time>2022-10-03T14:00:18.294Z</time>
      </trkpt>
      <trkpt lat="48.88089" lon="1.95824">
        <ele>182</ele>
        <time>2022-10-03T14:00:23.263Z</time>
      </trkpt>
      <trkpt lat="48.88083" lon="1.95827">
        <ele>182</ele>
        <time>2022-10-03T14:00:28.286Z</time>
      </trkpt>
      <trkpt lat="48.88075" lon="1.95828">
        <ele>182</ele>
        <time>2022-10-03T14:00:33.281Z</time>
      </trkpt>
      <trkpt lat="48.88068" lon="1.95829">
        <ele>182</ele>
        <time>2022-10-03T14:00:38.258Z</time>
      </trkpt>
      <trkpt lat="48.88065" lon="1.95831">
        <ele>182</ele>
        <time>2022-10-03T14:00:42.272Z</time>
      </trkpt>
      <trkpt lat="48.88062" lon="1.95834">
        <ele>182</ele>
        <time>2022-10-03T14:00:46.288Z</time>
      </trkpt>
      <trkpt lat="48.88059" lon="1.95834">
        <ele>182</ele>
        <time>2022-10-03T14:00:50.295Z</time>
      </trkpt>
      <trkpt lat="48.88053" lon="1.95838">
        <ele>182</ele>
        <time>2022-10-03T14:00:55.285Z</time>
      </trkpt>
      <trkpt lat="48.88046" lon="1.9584">
        <ele>182</ele>
        <time>2022-10-03T14:01:00.255Z</time>
      </trkpt>
      <trkpt lat="48.88039" lon="1.95844">
        <ele>182</ele>
        <time>2022-10-03T14:01:05.252Z</time>
      </trkpt>
      <trkpt lat="48.88033" lon="1.95846">
        <ele>182</ele>
        <time>2022-10-03T14:01:09.281Z</time>
      </trkpt>
      <trkpt lat="48.88028" lon="1.95847">
        <ele>184</ele>
        <time>2022-10-03T14:01:13.299Z</time>
      </trkpt>
      <trkpt lat="48.88022" lon="1.95847">
        <ele>182</ele>
        <time>2022-10-03T14:01:17.298Z</time>
      </trkpt>
      <trkpt lat="48.88016" lon="1.9585">
        <ele>184</ele>
        <time>2022-10-03T14:01:22.259Z</time>
      </trkpt>
      <trkpt lat="48.88012" lon="1.95852">
        <ele>179</ele>
        <time>2022-10-03T14:01:26.277Z</time>
      </trkpt>
      <trkpt lat="48.88005" lon="1.95857">
        <ele>179</ele>
        <time>2022-10-03T14:01:31.290Z</time>
      </trkpt>
      <trkpt lat="48.87998" lon="1.9586">
        <ele>179</ele>
        <time>2022-10-03T14:01:36.236Z</time>
      </trkpt>
      <trkpt lat="48.8799" lon="1.95872">
        <ele>179</ele>
        <time>2022-10-03T14:04:04.255Z</time>
      </trkpt>
      <trkpt lat="48.87989" lon="1.95873">
        <ele>179</ele>
        <time>2022-10-03T14:04:08.262Z</time>
      </trkpt>
      <trkpt lat="48.87987" lon="1.9588">
        <ele>180</ele>
        <time>2022-10-03T14:04:13.259Z</time>
      </trkpt>
      <trkpt lat="48.87984" lon="1.95889">
        <ele>174</ele>
        <time>2022-10-03T14:04:18.249Z</time>
      </trkpt>
      <trkpt lat="48.87982" lon="1.95899">
        <ele>174</ele>
        <time>2022-10-03T14:04:23.275Z</time>
      </trkpt>
      <trkpt lat="48.87981" lon="1.95907">
        <ele>174</ele>
        <time>2022-10-03T14:04:28.249Z</time>
      </trkpt>
      <trkpt lat="48.8798" lon="1.95914">
        <ele>174</ele>
        <time>2022-10-03T14:04:33.265Z</time>
      </trkpt>
      <trkpt lat="48.87979" lon="1.95922">
        <ele>174</ele>
        <time>2022-10-03T14:04:38.255Z</time>
      </trkpt>
      <trkpt lat="48.87976" lon="1.9593">
        <ele>174</ele>
        <time>2022-10-03T14:04:43.289Z</time>
      </trkpt>
      <trkpt lat="48.87974" lon="1.9594">
        <ele>175</ele>
        <time>2022-10-03T14:04:48.286Z</time>
      </trkpt>
      <trkpt lat="48.87972" lon="1.9595">
        <ele>175</ele>
        <time>2022-10-03T14:04:53.293Z</time>
      </trkpt>
      <trkpt lat="48.8797" lon="1.95961">
        <ele>177</ele>
        <time>2022-10-03T14:04:58.256Z</time>
      </trkpt>
      <trkpt lat="48.87969" lon="1.9597">
        <ele>177</ele>
        <time>2022-10-03T14:05:02.270Z</time>
      </trkpt>
      <trkpt lat="48.87967" lon="1.95977">
        <ele>177</ele>
        <time>2022-10-03T14:05:06.292Z</time>
      </trkpt>
      <trkpt lat="48.87967" lon="1.95983">
        <ele>177</ele>
        <time>2022-10-03T14:05:11.272Z</time>
      </trkpt>
      <trkpt lat="48.87966" lon="1.95991">
        <ele>179</ele>
        <time>2022-10-03T14:05:16.268Z</time>
      </trkpt>
      <trkpt lat="48.87963" lon="1.95999">
        <ele>179</ele>
        <time>2022-10-03T14:05:20.271Z</time>
      </trkpt>
      <trkpt lat="48.8796" lon="1.96007">
        <ele>179</ele>
        <time>2022-10-03T14:05:24.279Z</time>
      </trkpt>
      <trkpt lat="48.87956" lon="1.96016">
        <ele>176</ele>
        <time>2022-10-03T14:05:29.269Z</time>
      </trkpt>
      <trkpt lat="48.87953" lon="1.96024">
        <ele>176</ele>
        <time>2022-10-03T14:05:34.270Z</time>
      </trkpt>
      <trkpt lat="48.87948" lon="1.96031">
        <ele>176</ele>
        <time>2022-10-03T14:05:39.273Z</time>
      </trkpt>
      <trkpt lat="48.87944" lon="1.96038">
        <ele>176</ele>
        <time>2022-10-03T14:05:43.279Z</time>
      </trkpt>
      <trkpt lat="48.87939" lon="1.96047">
        <ele>175</ele>
        <time>2022-10-03T14:05:48.249Z</time>
      </trkpt>
      <trkpt lat="48.87935" lon="1.96056">
        <ele>175</ele>
        <time>2022-10-03T14:05:53.270Z</time>
      </trkpt>
      <trkpt lat="48.87933" lon="1.9606">
        <ele>175</ele>
        <time>2022-10-03T14:05:57.292Z</time>
      </trkpt>
      <trkpt lat="48.87931" lon="1.96068">
        <ele>175</ele>
        <time>2022-10-03T14:06:02.266Z</time>
      </trkpt>
      <trkpt lat="48.87927" lon="1.96074">
        <ele>172</ele>
        <time>2022-10-03T14:06:06.270Z</time>
      </trkpt>
      <trkpt lat="48.87922" lon="1.96082">
        <ele>172</ele>
        <time>2022-10-03T14:06:11.274Z</time>
      </trkpt>
      <trkpt lat="48.87918" lon="1.9609">
        <ele>172</ele>
        <time>2022-10-03T14:06:16.273Z</time>
      </trkpt>
      <trkpt lat="48.87912" lon="1.96093">
        <ele>172</ele>
        <time>2022-10-03T14:06:21.280Z</time>
      </trkpt>
      <trkpt lat="48.87905" lon="1.96099">
        <ele>173</ele>
        <time>2022-10-03T14:06:26.277Z</time>
      </trkpt>
      <trkpt lat="48.87898" lon="1.96104">
        <ele>171</ele>
        <time>2022-10-03T14:06:31.237Z</time>
      </trkpt>
      <trkpt lat="48.87898" lon="1.9611">
        <ele>171</ele>
        <time>2022-10-03T14:06:36.233Z</time>
      </trkpt>
      <trkpt lat="48.87896" lon="1.96118">
        <ele>171</ele>
        <time>2022-10-03T14:06:51.238Z</time>
      </trkpt>
      <trkpt lat="48.87894" lon="1.96119">
        <ele>171</ele>
        <time>2022-10-03T14:06:56.239Z</time>
      </trkpt>
      <trkpt lat="48.87892" lon="1.96116">
        <ele>171</ele>
        <time>2022-10-03T14:07:01.239Z</time>
      </trkpt>
      <trkpt lat="48.87891" lon="1.96117">
        <ele>171</ele>
        <time>2022-10-03T14:07:06.228Z</time>
      </trkpt>
      <trkpt lat="48.87889" lon="1.96121">
        <ele>171</ele>
        <time>2022-10-03T14:07:10.243Z</time>
      </trkpt>
      <trkpt lat="48.87885" lon="1.96124">
        <ele>171</ele>
        <time>2022-10-03T14:07:15.237Z</time>
      </trkpt>
      <trkpt lat="48.87883" lon="1.96126">
        <ele>170</ele>
        <time>2022-10-03T14:07:19.241Z</time>
      </trkpt>
      <trkpt lat="48.87878" lon="1.96132">
        <ele>170</ele>
        <time>2022-10-03T14:07:24.235Z</time>
      </trkpt>
      <trkpt lat="48.87874" lon="1.96138">
        <ele>165</ele>
        <time>2022-10-03T14:07:28.241Z</time>
      </trkpt>
      <trkpt lat="48.87871" lon="1.96146">
        <ele>165</ele>
        <time>2022-10-03T14:07:33.248Z</time>
      </trkpt>
      <trkpt lat="48.87868" lon="1.96155">
        <ele>164</ele>
        <time>2022-10-03T14:07:38.247Z</time>
      </trkpt>
      <trkpt lat="48.87864" lon="1.96165">
        <ele>164</ele>
        <time>2022-10-03T14:07:43.246Z</time>
      </trkpt>
      <trkpt lat="48.8786" lon="1.96172">
        <ele>164</ele>
        <time>2022-10-03T14:07:48.239Z</time>
      </trkpt>
      <trkpt lat="48.87857" lon="1.96175">
        <ele>164</ele>
        <time>2022-10-03T14:07:52.246Z</time>
      </trkpt>
      <trkpt lat="48.8785" lon="1.96176">
        <ele>164</ele>
        <time>2022-10-03T14:07:57.249Z</time>
      </trkpt>
      <trkpt lat="48.87844" lon="1.96178">
        <ele>160</ele>
        <time>2022-10-03T14:08:02.235Z</time>
      </trkpt>
      <trkpt lat="48.87838" lon="1.96179">
        <ele>160</ele>
        <time>2022-10-03T14:08:06.247Z</time>
      </trkpt>
      <trkpt lat="48.87832" lon="1.96185">
        <ele>159</ele>
        <time>2022-10-03T14:08:11.251Z</time>
      </trkpt>
      <trkpt lat="48.87829" lon="1.9619">
        <ele>159</ele>
        <time>2022-10-03T14:08:15.256Z</time>
      </trkpt>
      <trkpt lat="48.87823" lon="1.96196">
        <ele>159</ele>
        <time>2022-10-03T14:08:20.254Z</time>
      </trkpt>
      <trkpt lat="48.87819" lon="1.96199">
        <ele>155</ele>
        <time>2022-10-03T14:08:24.262Z</time>
      </trkpt>
      <trkpt lat="48.87815" lon="1.96205">
        <ele>155</ele>
        <time>2022-10-03T14:08:29.250Z</time>
      </trkpt>
      <trkpt lat="48.87809" lon="1.9621">
        <ele>155</ele>
        <time>2022-10-03T14:08:34.241Z</time>
      </trkpt>
      <trkpt lat="48.87803" lon="1.96215">
        <ele>155</ele>
        <time>2022-10-03T14:08:39.241Z</time>
      </trkpt>
      <trkpt lat="48.87798" lon="1.96219">
        <ele>155</ele>
        <time>2022-10-03T14:08:43.252Z</time>
      </trkpt>
      <trkpt lat="48.87794" lon="1.96221">
        <ele>155</ele>
        <time>2022-10-03T14:08:47.282Z</time>
      </trkpt>
      <trkpt lat="48.87789" lon="1.96225">
        <ele>151</ele>
        <time>2022-10-03T14:08:52.279Z</time>
      </trkpt>
      <trkpt lat="48.87785" lon="1.96228">
        <ele>151</ele>
        <time>2022-10-03T14:08:57.254Z</time>
      </trkpt>
      <trkpt lat="48.87782" lon="1.96231">
        <ele>151</ele>
        <time>2022-10-03T14:09:02.246Z</time>
      </trkpt>
      <trkpt lat="48.8778" lon="1.96234">
        <ele>151</ele>
        <time>2022-10-03T14:09:07.245Z</time>
      </trkpt>
      <trkpt lat="48.87784" lon="1.96248">
        <ele>150</ele>
        <time>2022-10-03T14:09:12.229Z</time>
      </trkpt>
      <trkpt lat="48.87777" lon="1.96251">
        <ele>150</ele>
        <time>2022-10-03T14:09:16.236Z</time>
      </trkpt>
      <trkpt lat="48.87768" lon="1.96258">
        <ele>150</ele>
        <time>2022-10-03T14:09:21.238Z</time>
      </trkpt>
      <trkpt lat="48.87763" lon="1.96262">
        <ele>149</ele>
        <time>2022-10-03T14:09:25.240Z</time>
      </trkpt>
      <trkpt lat="48.87755" lon="1.96261">
        <ele>149</ele>
        <time>2022-10-03T14:09:30.266Z</time>
      </trkpt>
      <trkpt lat="48.87748" lon="1.96264">
        <ele>149</ele>
        <time>2022-10-03T14:09:35.259Z</time>
      </trkpt>
      <trkpt lat="48.87741" lon="1.96269">
        <ele>149</ele>
        <time>2022-10-03T14:09:40.257Z</time>
      </trkpt>
      <trkpt lat="48.87736" lon="1.96275">
        <ele>149</ele>
        <time>2022-10-03T14:09:45.284Z</time>
      </trkpt>
      <trkpt lat="48.8773" lon="1.96277">
        <ele>148</ele>
        <time>2022-10-03T14:09:50.270Z</time>
      </trkpt>
      <trkpt lat="48.87726" lon="1.96279">
        <ele>148</ele>
        <time>2022-10-03T14:09:55.266Z</time>
      </trkpt>
      <trkpt lat="48.87719" lon="1.96284">
        <ele>148</ele>
        <time>2022-10-03T14:10:00.240Z</time>
      </trkpt>
      <trkpt lat="48.87715" lon="1.96286">
        <ele>148</ele>
        <time>2022-10-03T14:10:04.247Z</time>
      </trkpt>
      <trkpt lat="48.87711" lon="1.96285">
        <ele>148</ele>
        <time>2022-10-03T14:10:08.276Z</time>
      </trkpt>
      <trkpt lat="48.87703" lon="1.96296">
        <ele>145</ele>
        <time>2022-10-03T14:10:13.241Z</time>
      </trkpt>
      <trkpt lat="48.87697" lon="1.96298">
        <ele>145</ele>
        <time>2022-10-03T14:10:17.270Z</time>
      </trkpt>
      <trkpt lat="48.87695" lon="1.96298">
        <ele>145</ele>
        <time>2022-10-03T14:10:22.259Z</time>
      </trkpt>
      <trkpt lat="48.8769" lon="1.96301">
        <ele>145</ele>
        <time>2022-10-03T14:10:27.264Z</time>
      </trkpt>
      <trkpt lat="48.87692" lon="1.96306">
        <ele>145</ele>
        <time>2022-10-03T14:10:32.238Z</time>
      </trkpt>
      <trkpt lat="48.87692" lon="1.96308">
        <ele>145</ele>
        <time>2022-10-03T14:10:37.240Z</time>
      </trkpt>
      <trkpt lat="48.87687" lon="1.96313">
        <ele>145</ele>
        <time>2022-10-03T14:10:41.247Z</time>
      </trkpt>
      <trkpt lat="48.87681" lon="1.96315">
        <ele>145</ele>
        <time>2022-10-03T14:10:46.238Z</time>
      </trkpt>
      <trkpt lat="48.87676" lon="1.96318">
        <ele>142</ele>
        <time>2022-10-03T14:10:50.242Z</time>
      </trkpt>
      <trkpt lat="48.8767" lon="1.96322">
        <ele>143</ele>
        <time>2022-10-03T14:10:55.254Z</time>
      </trkpt>
      <trkpt lat="48.87665" lon="1.96328">
        <ele>143</ele>
        <time>2022-10-03T14:11:00.248Z</time>
      </trkpt>
      <trkpt lat="48.87661" lon="1.96333">
        <ele>143</ele>
        <time>2022-10-03T14:11:05.249Z</time>
      </trkpt>
      <trkpt lat="48.87657" lon="1.96335">
        <ele>143</ele>
        <time>2022-10-03T14:11:09.253Z</time>
      </trkpt>
      <trkpt lat="48.8765" lon="1.96339">
        <ele>140</ele>
        <time>2022-10-03T14:11:14.241Z</time>
      </trkpt>
      <trkpt lat="48.87646" lon="1.96342">
        <ele>140</ele>
        <time>2022-10-03T14:11:18.249Z</time>
      </trkpt>
      <trkpt lat="48.87642" lon="1.96345">
        <ele>140</ele>
        <time>2022-10-03T14:11:23.246Z</time>
      </trkpt>
      <trkpt lat="48.87636" lon="1.96346">
        <ele>140</ele>
        <time>2022-10-03T14:11:27.257Z</time>
      </trkpt>
      <trkpt lat="48.87634" lon="1.96344">
        <ele>140</ele>
        <time>2022-10-03T14:11:32.250Z</time>
      </trkpt>
      <trkpt lat="48.87629" lon="1.96346">
        <ele>140</ele>
        <time>2022-10-03T14:11:37.253Z</time>
      </trkpt>
      <trkpt lat="48.87624" lon="1.96341">
        <ele>137</ele>
        <time>2022-10-03T14:11:41.262Z</time>
      </trkpt>
      <trkpt lat="48.87618" lon="1.96335">
        <ele>137</ele>
        <time>2022-10-03T14:11:46.279Z</time>
      </trkpt>
      <trkpt lat="48.87614" lon="1.96328">
        <ele>137</ele>
        <time>2022-10-03T14:11:51.272Z</time>
      </trkpt>
      <trkpt lat="48.87611" lon="1.96322">
        <ele>137</ele>
        <time>2022-10-03T14:11:56.265Z</time>
      </trkpt>
      <trkpt lat="48.87607" lon="1.96315">
        <ele>137</ele>
        <time>2022-10-03T14:12:01.274Z</time>
      </trkpt>
      <trkpt lat="48.87602" lon="1.96307">
        <ele>137</ele>
        <time>2022-10-03T14:12:06.272Z</time>
      </trkpt>
      <trkpt lat="48.87599" lon="1.96302">
        <ele>137</ele>
        <time>2022-10-03T14:12:10.279Z</time>
      </trkpt>
      <trkpt lat="48.87593" lon="1.96297">
        <ele>136</ele>
        <time>2022-10-03T14:12:15.256Z</time>
      </trkpt>
      <trkpt lat="48.87588" lon="1.9629">
        <ele>136</ele>
        <time>2022-10-03T14:12:19.269Z</time>
      </trkpt>
      <trkpt lat="48.87583" lon="1.96286">
        <ele>136</ele>
        <time>2022-10-03T14:12:23.282Z</time>
      </trkpt>
      <trkpt lat="48.87578" lon="1.96279">
        <ele>136</ele>
        <time>2022-10-03T14:12:28.290Z</time>
      </trkpt>
      <trkpt lat="48.87572" lon="1.96275">
        <ele>136</ele>
        <time>2022-10-03T14:12:33.289Z</time>
      </trkpt>
      <trkpt lat="48.87566" lon="1.96275">
        <ele>132</ele>
        <time>2022-10-03T14:12:38.283Z</time>
      </trkpt>
      <trkpt lat="48.87561" lon="1.96283">
        <ele>132</ele>
        <time>2022-10-03T14:12:43.285Z</time>
      </trkpt>
      <trkpt lat="48.87557" lon="1.96292">
        <ele>132</ele>
        <time>2022-10-03T14:12:47.281Z</time>
      </trkpt>
      <trkpt lat="48.87554" lon="1.96299">
        <ele>132</ele>
        <time>2022-10-03T14:12:51.282Z</time>
      </trkpt>
      <trkpt lat="48.87551" lon="1.9631">
        <ele>132</ele>
        <time>2022-10-03T14:12:56.279Z</time>
      </trkpt>
      <trkpt lat="48.87547" lon="1.9632">
        <ele>132</ele>
        <time>2022-10-03T14:13:01.260Z</time>
      </trkpt>
      <trkpt lat="48.87544" lon="1.96326">
        <ele>132</ele>
        <time>2022-10-03T14:13:05.286Z</time>
      </trkpt>
      <trkpt lat="48.87542" lon="1.96334">
        <ele>132</ele>
        <time>2022-10-03T14:13:09.294Z</time>
      </trkpt>
      <trkpt lat="48.87539" lon="1.96343">
        <ele>130</ele>
        <time>2022-10-03T14:13:14.289Z</time>
      </trkpt>
      <trkpt lat="48.87536" lon="1.96351">
        <ele>130</ele>
        <time>2022-10-03T14:13:18.290Z</time>
      </trkpt>
      <trkpt lat="48.87534" lon="1.96361">
        <ele>130</ele>
        <time>2022-10-03T14:13:23.248Z</time>
      </trkpt>
      <trkpt lat="48.87532" lon="1.96369">
        <ele>130</ele>
        <time>2022-10-03T14:13:27.281Z</time>
      </trkpt>
      <trkpt lat="48.87529" lon="1.96376">
        <ele>131</ele>
        <time>2022-10-03T14:13:31.285Z</time>
      </trkpt>
      <trkpt lat="48.87527" lon="1.96383">
        <ele>131</ele>
        <time>2022-10-03T14:13:35.282Z</time>
      </trkpt>
      <trkpt lat="48.87524" lon="1.96393">
        <ele>131</ele>
        <time>2022-10-03T14:13:40.289Z</time>
      </trkpt>
      <trkpt lat="48.8752" lon="1.96402">
        <ele>131</ele>
        <time>2022-10-03T14:13:45.298Z</time>
      </trkpt>
      <trkpt lat="48.87519" lon="1.96411">
        <ele>130</ele>
        <time>2022-10-03T14:13:50.260Z</time>
      </trkpt>
      <trkpt lat="48.87517" lon="1.96418">
        <ele>130</ele>
        <time>2022-10-03T14:13:54.286Z</time>
      </trkpt>
      <trkpt lat="48.87515" lon="1.96427">
        <ele>130</ele>
        <time>2022-10-03T14:13:59.251Z</time>
      </trkpt>
      <trkpt lat="48.87514" lon="1.96434">
        <ele>129</ele>
        <time>2022-10-03T14:14:03.267Z</time>
      </trkpt>
      <trkpt lat="48.87512" lon="1.96441">
        <ele>129</ele>
        <time>2022-10-03T14:14:07.283Z</time>
      </trkpt>
      <trkpt lat="48.8751" lon="1.96452">
        <ele>129</ele>
        <time>2022-10-03T14:14:12.281Z</time>
      </trkpt>
      <trkpt lat="48.87508" lon="1.96463">
        <ele>129</ele>
        <time>2022-10-03T14:14:17.287Z</time>
      </trkpt>
      <trkpt lat="48.87505" lon="1.96474">
        <ele>129</ele>
        <time>2022-10-03T14:14:22.252Z</time>
      </trkpt>
      <trkpt lat="48.87503" lon="1.9648">
        <ele>129</ele>
        <time>2022-10-03T14:14:26.270Z</time>
      </trkpt>
      <trkpt lat="48.87501" lon="1.96485">
        <ele>129</ele>
        <time>2022-10-03T14:14:30.281Z</time>
      </trkpt>
      <trkpt lat="48.87498" lon="1.96495">
        <ele>129</ele>
        <time>2022-10-03T14:14:35.293Z</time>
      </trkpt>
      <trkpt lat="48.87495" lon="1.96505">
        <ele>129</ele>
        <time>2022-10-03T14:14:40.246Z</time>
      </trkpt>
      <trkpt lat="48.87492" lon="1.96513">
        <ele>129</ele>
        <time>2022-10-03T14:14:44.248Z</time>
      </trkpt>
      <trkpt lat="48.8749" lon="1.9652">
        <ele>128</ele>
        <time>2022-10-03T14:14:48.248Z</time>
      </trkpt>
      <trkpt lat="48.87488" lon="1.9653">
        <ele>128</ele>
        <time>2022-10-03T14:14:52.255Z</time>
      </trkpt>
      <trkpt lat="48.87487" lon="1.96537">
        <ele>128</ele>
        <time>2022-10-03T14:14:56.287Z</time>
      </trkpt>
      <trkpt lat="48.87485" lon="1.96545">
        <ele>127</ele>
        <time>2022-10-03T14:15:01.265Z</time>
      </trkpt>
      <trkpt lat="48.87482" lon="1.96556">
        <ele>127</ele>
        <time>2022-10-03T14:15:06.265Z</time>
      </trkpt>
      <trkpt lat="48.8748" lon="1.96564">
        <ele>127</ele>
        <time>2022-10-03T14:15:10.263Z</time>
      </trkpt>
      <trkpt lat="48.87478" lon="1.96573">
        <ele>128</ele>
        <time>2022-10-03T14:15:15.266Z</time>
      </trkpt>
      <trkpt lat="48.87474" lon="1.96579">
        <ele>128</ele>
        <time>2022-10-03T14:15:19.273Z</time>
      </trkpt>
      <trkpt lat="48.87471" lon="1.96587">
        <ele>128</ele>
        <time>2022-10-03T14:15:23.267Z</time>
      </trkpt>
      <trkpt lat="48.87468" lon="1.96595">
        <ele>128</ele>
        <time>2022-10-03T14:15:27.271Z</time>
      </trkpt>
      <trkpt lat="48.87464" lon="1.96606">
        <ele>128</ele>
        <time>2022-10-03T14:15:32.274Z</time>
      </trkpt>
      <trkpt lat="48.87462" lon="1.96615">
        <ele>128</ele>
        <time>2022-10-03T14:15:36.264Z</time>
      </trkpt>
      <trkpt lat="48.87461" lon="1.96622">
        <ele>128</ele>
        <time>2022-10-03T14:15:40.276Z</time>
      </trkpt>
      <trkpt lat="48.87458" lon="1.96631">
        <ele>127</ele>
        <time>2022-10-03T14:15:45.277Z</time>
      </trkpt>
      <trkpt lat="48.87455" lon="1.96641">
        <ele>127</ele>
        <time>2022-10-03T14:15:50.272Z</time>
      </trkpt>
      <trkpt lat="48.87453" lon="1.9665">
        <ele>127</ele>
        <time>2022-10-03T14:15:54.279Z</time>
      </trkpt>
      <trkpt lat="48.8745" lon="1.96661">
        <ele>127</ele>
        <time>2022-10-03T14:15:59.247Z</time>
      </trkpt>
      <trkpt lat="48.87448" lon="1.9667">
        <ele>127</ele>
        <time>2022-10-03T14:16:03.250Z</time>
      </trkpt>
      <trkpt lat="48.87445" lon="1.96679">
        <ele>127</ele>
        <time>2022-10-03T14:16:07.271Z</time>
      </trkpt>
      <trkpt lat="48.87443" lon="1.96689">
        <ele>127</ele>
        <time>2022-10-03T14:16:11.275Z</time>
      </trkpt>
      <trkpt lat="48.87441" lon="1.96701">
        <ele>127</ele>
        <time>2022-10-03T14:16:16.267Z</time>
      </trkpt>
      <trkpt lat="48.87439" lon="1.96706">
        <ele>127</ele>
        <time>2022-10-03T14:16:20.279Z</time>
      </trkpt>
      <trkpt lat="48.87436" lon="1.96715">
        <ele>127</ele>
        <time>2022-10-03T14:16:25.256Z</time>
      </trkpt>
      <trkpt lat="48.87431" lon="1.96723">
        <ele>127</ele>
        <time>2022-10-03T14:16:30.245Z</time>
      </trkpt>
      <trkpt lat="48.87426" lon="1.96729">
        <ele>125</ele>
        <time>2022-10-03T14:16:34.242Z</time>
      </trkpt>
      <trkpt lat="48.87421" lon="1.96732">
        <ele>125</ele>
        <time>2022-10-03T14:16:38.256Z</time>
      </trkpt>
      <trkpt lat="48.87414" lon="1.96735">
        <ele>125</ele>
        <time>2022-10-03T14:16:43.265Z</time>
      </trkpt>
      <trkpt lat="48.87409" lon="1.96738">
        <ele>126</ele>
        <time>2022-10-03T14:16:48.254Z</time>
      </trkpt>
      <trkpt lat="48.87403" lon="1.96744">
        <ele>126</ele>
        <time>2022-10-03T14:16:53.254Z</time>
      </trkpt>
      <trkpt lat="48.87399" lon="1.96749">
        <ele>125</ele>
        <time>2022-10-03T14:16:57.249Z</time>
      </trkpt>
      <trkpt lat="48.87394" lon="1.96757">
        <ele>125</ele>
        <time>2022-10-03T14:17:02.259Z</time>
      </trkpt>
      <trkpt lat="48.87388" lon="1.96764">
        <ele>125</ele>
        <time>2022-10-03T14:17:07.247Z</time>
      </trkpt>
      <trkpt lat="48.87385" lon="1.9677">
        <ele>125</ele>
        <time>2022-10-03T14:17:11.260Z</time>
      </trkpt>
      <trkpt lat="48.87381" lon="1.9678">
        <ele>125</ele>
        <time>2022-10-03T14:17:16.242Z</time>
      </trkpt>
      <trkpt lat="48.87378" lon="1.96787">
        <ele>125</ele>
        <time>2022-10-03T14:17:20.259Z</time>
      </trkpt>
      <trkpt lat="48.87374" lon="1.96796">
        <ele>127</ele>
        <time>2022-10-03T14:17:25.259Z</time>
      </trkpt>
      <trkpt lat="48.87369" lon="1.96802">
        <ele>127</ele>
        <time>2022-10-03T14:17:29.275Z</time>
      </trkpt>
      <trkpt lat="48.87365" lon="1.96809">
        <ele>127</ele>
        <time>2022-10-03T14:17:34.243Z</time>
      </trkpt>
      <trkpt lat="48.87362" lon="1.96815">
        <ele>127</ele>
        <time>2022-10-03T14:17:38.259Z</time>
      </trkpt>
      <trkpt lat="48.87357" lon="1.96823">
        <ele>128</ele>
        <time>2022-10-03T14:17:43.256Z</time>
      </trkpt>
      <trkpt lat="48.87354" lon="1.96831">
        <ele>128</ele>
        <time>2022-10-03T14:17:48.257Z</time>
      </trkpt>
      <trkpt lat="48.87351" lon="1.96838">
        <ele>128</ele>
        <time>2022-10-03T14:17:52.274Z</time>
      </trkpt>
      <trkpt lat="48.87347" lon="1.96848">
        <ele>131</ele>
        <time>2022-10-03T14:17:57.272Z</time>
      </trkpt>
      <trkpt lat="48.87345" lon="1.96857">
        <ele>131</ele>
        <time>2022-10-03T14:18:02.273Z</time>
      </trkpt>
      <trkpt lat="48.87343" lon="1.96867">
        <ele>131</ele>
        <time>2022-10-03T14:18:07.281Z</time>
      </trkpt>
      <trkpt lat="48.87341" lon="1.96875">
        <ele>132</ele>
        <time>2022-10-03T14:18:11.291Z</time>
      </trkpt>
      <trkpt lat="48.87339" lon="1.96886">
        <ele>132</ele>
        <time>2022-10-03T14:18:16.269Z</time>
      </trkpt>
      <trkpt lat="48.87338" lon="1.96893">
        <ele>132</ele>
        <time>2022-10-03T14:18:20.284Z</time>
      </trkpt>
      <trkpt lat="48.87337" lon="1.969">
        <ele>132</ele>
        <time>2022-10-03T14:18:25.270Z</time>
      </trkpt>
      <trkpt lat="48.87334" lon="1.96906">
        <ele>133</ele>
        <time>2022-10-03T14:18:29.281Z</time>
      </trkpt>
      <trkpt lat="48.8733" lon="1.96914">
        <ele>133</ele>
        <time>2022-10-03T14:18:34.259Z</time>
      </trkpt>
      <trkpt lat="48.87326" lon="1.9692">
        <ele>133</ele>
        <time>2022-10-03T14:18:38.271Z</time>
      </trkpt>
      <trkpt lat="48.8732" lon="1.96924">
        <ele>133</ele>
        <time>2022-10-03T14:18:42.265Z</time>
      </trkpt>
      <trkpt lat="48.87314" lon="1.96927">
        <ele>135</ele>
        <time>2022-10-03T14:18:47.278Z</time>
      </trkpt>
      <trkpt lat="48.87308" lon="1.96931">
        <ele>136</ele>
        <time>2022-10-03T14:18:52.273Z</time>
      </trkpt>
      <trkpt lat="48.87302" lon="1.96935">
        <ele>136</ele>
        <time>2022-10-03T14:18:57.273Z</time>
      </trkpt>
      <trkpt lat="48.87297" lon="1.96939">
        <ele>136</ele>
        <time>2022-10-03T14:19:02.276Z</time>
      </trkpt>
      <trkpt lat="48.87293" lon="1.96944">
        <ele>136</ele>
        <time>2022-10-03T14:19:06.266Z</time>
      </trkpt>
      <trkpt lat="48.87289" lon="1.9695">
        <ele>138</ele>
        <time>2022-10-03T14:19:11.273Z</time>
      </trkpt>
      <trkpt lat="48.87287" lon="1.96956">
        <ele>138</ele>
        <time>2022-10-03T14:19:15.277Z</time>
      </trkpt>
      <trkpt lat="48.87284" lon="1.96964">
        <ele>139</ele>
        <time>2022-10-03T14:19:20.286Z</time>
      </trkpt>
      <trkpt lat="48.87282" lon="1.96974">
        <ele>139</ele>
        <time>2022-10-03T14:19:25.288Z</time>
      </trkpt>
      <trkpt lat="48.87281" lon="1.96983">
        <ele>139</ele>
        <time>2022-10-03T14:19:30.299Z</time>
      </trkpt>
      <trkpt lat="48.8728" lon="1.96994">
        <ele>140</ele>
        <time>2022-10-03T14:19:35.244Z</time>
      </trkpt>
      <trkpt lat="48.87279" lon="1.97002">
        <ele>140</ele>
        <time>2022-10-03T14:19:39.253Z</time>
      </trkpt>
      <trkpt lat="48.87279" lon="1.97011">
        <ele>140</ele>
        <time>2022-10-03T14:19:43.290Z</time>
      </trkpt>
      <trkpt lat="48.87279" lon="1.97019">
        <ele>141</ele>
        <time>2022-10-03T14:19:48.254Z</time>
      </trkpt>
      <trkpt lat="48.8728" lon="1.97029">
        <ele>141</ele>
        <time>2022-10-03T14:19:52.254Z</time>
      </trkpt>
      <trkpt lat="48.87279" lon="1.97037">
        <ele>141</ele>
        <time>2022-10-03T14:19:56.275Z</time>
      </trkpt>
      <trkpt lat="48.8728" lon="1.97047">
        <ele>142</ele>
        <time>2022-10-03T14:20:01.274Z</time>
      </trkpt>
      <trkpt lat="48.87281" lon="1.97057">
        <ele>142</ele>
        <time>2022-10-03T14:20:06.268Z</time>
      </trkpt>
      <trkpt lat="48.87281" lon="1.97068">
        <ele>142</ele>
        <time>2022-10-03T14:20:11.273Z</time>
      </trkpt>
      <trkpt lat="48.87281" lon="1.97078">
        <ele>142</ele>
        <time>2022-10-03T14:20:16.279Z</time>
      </trkpt>
      <trkpt lat="48.87281" lon="1.97087">
        <ele>142</ele>
        <time>2022-10-03T14:20:20.277Z</time>
      </trkpt>
      <trkpt lat="48.87281" lon="1.97097">
        <ele>143</ele>
        <time>2022-10-03T14:20:25.280Z</time>
      </trkpt>
      <trkpt lat="48.87281" lon="1.97109">
        <ele>143</ele>
        <time>2022-10-03T14:20:30.287Z</time>
      </trkpt>
      <trkpt lat="48.87281" lon="1.9712">
        <ele>143</ele>
        <time>2022-10-03T14:20:35.281Z</time>
      </trkpt>
      <trkpt lat="48.87281" lon="1.9713">
        <ele>143</ele>
        <time>2022-10-03T14:20:40.263Z</time>
      </trkpt>
      <trkpt lat="48.87281" lon="1.97139">
        <ele>143</ele>
        <time>2022-10-03T14:20:44.261Z</time>
      </trkpt>
      <trkpt lat="48.87281" lon="1.97146">
        <ele>143</ele>
        <time>2022-10-03T14:20:48.275Z</time>
      </trkpt>
      <trkpt lat="48.8728" lon="1.97153">
        <ele>143</ele>
        <time>2022-10-03T14:20:52.272Z</time>
      </trkpt>
      <trkpt lat="48.87278" lon="1.97162">
        <ele>143</ele>
        <time>2022-10-03T14:20:57.280Z</time>
      </trkpt>
      <trkpt lat="48.87276" lon="1.97172">
        <ele>143</ele>
        <time>2022-10-03T14:21:02.268Z</time>
      </trkpt>
      <trkpt lat="48.87274" lon="1.97182">
        <ele>144</ele>
        <time>2022-10-03T14:21:07.243Z</time>
      </trkpt>
      <trkpt lat="48.87276" lon="1.97185">
        <ele>144</ele>
        <time>2022-10-03T14:21:11.241Z</time>
      </trkpt>
      <trkpt lat="48.87277" lon="1.97191">
        <ele>144</ele>
        <time>2022-10-03T14:21:15.245Z</time>
      </trkpt>
      <trkpt lat="48.87276" lon="1.97206">
        <ele>144</ele>
        <time>2022-10-03T14:21:20.237Z</time>
      </trkpt>
      <trkpt lat="48.87276" lon="1.97216">
        <ele>144</ele>
        <time>2022-10-03T14:21:24.269Z</time>
      </trkpt>
      <trkpt lat="48.87276" lon="1.97223">
        <ele>144</ele>
        <time>2022-10-03T14:21:28.258Z</time>
      </trkpt>
      <trkpt lat="48.87274" lon="1.9723">
        <ele>144</ele>
        <time>2022-10-03T14:21:32.260Z</time>
      </trkpt>
      <trkpt lat="48.87272" lon="1.97242">
        <ele>143</ele>
        <time>2022-10-03T14:21:37.262Z</time>
      </trkpt>
      <trkpt lat="48.87271" lon="1.97253">
        <ele>143</ele>
        <time>2022-10-03T14:21:42.255Z</time>
      </trkpt>
      <trkpt lat="48.87277" lon="1.97259">
        <ele>143</ele>
        <time>2022-10-03T14:21:47.271Z</time>
      </trkpt>
      <trkpt lat="48.87284" lon="1.97261">
        <ele>143</ele>
        <time>2022-10-03T14:21:52.262Z</time>
      </trkpt>
      <trkpt lat="48.87291" lon="1.97265">
        <ele>142</ele>
        <time>2022-10-03T14:21:57.273Z</time>
      </trkpt>
      <trkpt lat="48.87296" lon="1.97269">
        <ele>144</ele>
        <time>2022-10-03T14:22:02.256Z</time>
      </trkpt>
      <trkpt lat="48.87302" lon="1.97276">
        <ele>144</ele>
        <time>2022-10-03T14:22:07.272Z</time>
      </trkpt>
      <trkpt lat="48.87302" lon="1.97287">
        <ele>144</ele>
        <time>2022-10-03T14:22:12.274Z</time>
      </trkpt>
      <trkpt lat="48.87302" lon="1.97298">
        <ele>144</ele>
        <time>2022-10-03T14:22:17.287Z</time>
      </trkpt>
      <trkpt lat="48.87302" lon="1.97309">
        <ele>144</ele>
        <time>2022-10-03T14:22:22.269Z</time>
      </trkpt>
      <trkpt lat="48.87302" lon="1.9732">
        <ele>144</ele>
        <time>2022-10-03T14:22:27.261Z</time>
      </trkpt>
      <trkpt lat="48.87302" lon="1.97328">
        <ele>144</ele>
        <time>2022-10-03T14:22:31.266Z</time>
      </trkpt>
      <trkpt lat="48.87301" lon="1.97338">
        <ele>144</ele>
        <time>2022-10-03T14:22:36.267Z</time>
      </trkpt>
      <trkpt lat="48.87301" lon="1.97345">
        <ele>144</ele>
        <time>2022-10-03T14:22:40.289Z</time>
      </trkpt>
      <trkpt lat="48.873" lon="1.97354">
        <ele>144</ele>
        <time>2022-10-03T14:22:45.288Z</time>
      </trkpt>
      <trkpt lat="48.87299" lon="1.97364">
        <ele>144</ele>
        <time>2022-10-03T14:22:50.261Z</time>
      </trkpt>
      <trkpt lat="48.87297" lon="1.97376">
        <ele>144</ele>
        <time>2022-10-03T14:22:55.268Z</time>
      </trkpt>
      <trkpt lat="48.87297" lon="1.97386">
        <ele>144</ele>
        <time>2022-10-03T14:23:00.264Z</time>
      </trkpt>
      <trkpt lat="48.87294" lon="1.97396">
        <ele>144</ele>
        <time>2022-10-03T14:23:05.268Z</time>
      </trkpt>
      <trkpt lat="48.87294" lon="1.97404">
        <ele>143</ele>
        <time>2022-10-03T14:23:09.266Z</time>
      </trkpt>
      <trkpt lat="48.87292" lon="1.97412">
        <ele>143</ele>
        <time>2022-10-03T14:23:13.279Z</time>
      </trkpt>
      <trkpt lat="48.87289" lon="1.97425">
        <ele>142</ele>
        <time>2022-10-03T14:23:18.274Z</time>
      </trkpt>
      <trkpt lat="48.87286" lon="1.9743">
        <ele>142</ele>
        <time>2022-10-03T14:23:22.275Z</time>
      </trkpt>
      <trkpt lat="48.87285" lon="1.97441">
        <ele>142</ele>
        <time>2022-10-03T14:23:27.282Z</time>
      </trkpt>
      <trkpt lat="48.87285" lon="1.97452">
        <ele>142</ele>
        <time>2022-10-03T14:23:32.289Z</time>
      </trkpt>
      <trkpt lat="48.87283" lon="1.97463">
        <ele>142</ele>
        <time>2022-10-03T14:23:37.239Z</time>
      </trkpt>
      <trkpt lat="48.87283" lon="1.9747">
        <ele>142</ele>
        <time>2022-10-03T14:23:41.255Z</time>
      </trkpt>
      <trkpt lat="48.8728" lon="1.97476">
        <ele>142</ele>
        <time>2022-10-03T14:23:45.268Z</time>
      </trkpt>
      <trkpt lat="48.87276" lon="1.97484">
        <ele>142</ele>
        <time>2022-10-03T14:23:50.258Z</time>
      </trkpt>
      <trkpt lat="48.87274" lon="1.97491">
        <ele>142</ele>
        <time>2022-10-03T14:23:54.272Z</time>
      </trkpt>
      <trkpt lat="48.87272" lon="1.975">
        <ele>142</ele>
        <time>2022-10-03T14:23:59.267Z</time>
      </trkpt>
      <trkpt lat="48.87272" lon="1.97509">
        <ele>142</ele>
        <time>2022-10-03T14:24:03.287Z</time>
      </trkpt>
      <trkpt lat="48.87271" lon="1.97519">
        <ele>143</ele>
        <time>2022-10-03T14:24:08.256Z</time>
      </trkpt>
      <trkpt lat="48.87271" lon="1.97532">
        <ele>143</ele>
        <time>2022-10-03T14:24:13.249Z</time>
      </trkpt>
      <trkpt lat="48.87273" lon="1.9754">
        <ele>143</ele>
        <time>2022-10-03T14:24:17.265Z</time>
      </trkpt>
      <trkpt lat="48.87269" lon="1.97548">
        <ele>144</ele>
        <time>2022-10-03T14:24:21.278Z</time>
      </trkpt>
      <trkpt lat="48.87271" lon="1.97556">
        <ele>144</ele>
        <time>2022-10-03T14:24:25.271Z</time>
      </trkpt>
      <trkpt lat="48.87271" lon="1.97566">
        <ele>144</ele>
        <time>2022-10-03T14:24:30.261Z</time>
      </trkpt>
      <trkpt lat="48.87271" lon="1.97573">
        <ele>144</ele>
        <time>2022-10-03T14:24:34.289Z</time>
      </trkpt>
      <trkpt lat="48.8727" lon="1.97582">
        <ele>144</ele>
        <time>2022-10-03T14:24:39.261Z</time>
      </trkpt>
      <trkpt lat="48.8727" lon="1.97593">
        <ele>144</ele>
        <time>2022-10-03T14:24:44.253Z</time>
      </trkpt>
      <trkpt lat="48.87271" lon="1.97603">
        <ele>144</ele>
        <time>2022-10-03T14:24:48.275Z</time>
      </trkpt>
      <trkpt lat="48.87272" lon="1.97614">
        <ele>144</ele>
        <time>2022-10-03T14:24:53.275Z</time>
      </trkpt>
      <trkpt lat="48.87274" lon="1.97621">
        <ele>144</ele>
        <time>2022-10-03T14:24:57.273Z</time>
      </trkpt>
      <trkpt lat="48.87275" lon="1.97631">
        <ele>145</ele>
        <time>2022-10-03T14:25:02.266Z</time>
      </trkpt>
      <trkpt lat="48.87276" lon="1.9764">
        <ele>145</ele>
        <time>2022-10-03T14:25:06.267Z</time>
      </trkpt>
      <trkpt lat="48.87278" lon="1.97648">
        <ele>145</ele>
        <time>2022-10-03T14:25:10.279Z</time>
      </trkpt>
      <trkpt lat="48.87279" lon="1.97659">
        <ele>145</ele>
        <time>2022-10-03T14:25:15.273Z</time>
      </trkpt>
      <trkpt lat="48.87278" lon="1.97669">
        <ele>145</ele>
        <time>2022-10-03T14:25:19.290Z</time>
      </trkpt>
      <trkpt lat="48.87278" lon="1.9768">
        <ele>145</ele>
        <time>2022-10-03T14:25:24.257Z</time>
      </trkpt>
      <trkpt lat="48.87278" lon="1.97689">
        <ele>144</ele>
        <time>2022-10-03T14:25:28.270Z</time>
      </trkpt>
      <trkpt lat="48.87281" lon="1.97699">
        <ele>144</ele>
        <time>2022-10-03T14:25:33.294Z</time>
      </trkpt>
      <trkpt lat="48.87284" lon="1.97708">
        <ele>144</ele>
        <time>2022-10-03T14:25:38.282Z</time>
      </trkpt>
      <trkpt lat="48.87287" lon="1.97717">
        <ele>144</ele>
        <time>2022-10-03T14:25:43.249Z</time>
      </trkpt>
      <trkpt lat="48.8729" lon="1.97723">
        <ele>144</ele>
        <time>2022-10-03T14:25:47.287Z</time>
      </trkpt>
      <trkpt lat="48.87295" lon="1.97731">
        <ele>145</ele>
        <time>2022-10-03T14:25:52.248Z</time>
      </trkpt>
      <trkpt lat="48.87299" lon="1.97739">
        <ele>143</ele>
        <time>2022-10-03T14:25:56.289Z</time>
      </trkpt>
      <trkpt lat="48.87302" lon="1.97749">
        <ele>143</ele>
        <time>2022-10-03T14:26:01.260Z</time>
      </trkpt>
      <trkpt lat="48.87304" lon="1.97756">
        <ele>143</ele>
        <time>2022-10-03T14:26:05.270Z</time>
      </trkpt>
      <trkpt lat="48.87308" lon="1.97764">
        <ele>143</ele>
        <time>2022-10-03T14:26:09.284Z</time>
      </trkpt>
      <trkpt lat="48.87314" lon="1.97771">
        <ele>142</ele>
        <time>2022-10-03T14:26:14.238Z</time>
      </trkpt>
      <trkpt lat="48.87317" lon="1.97777">
        <ele>142</ele>
        <time>2022-10-03T14:26:18.251Z</time>
      </trkpt>
      <trkpt lat="48.87322" lon="1.97786">
        <ele>146</ele>
        <time>2022-10-03T14:26:23.260Z</time>
      </trkpt>
      <trkpt lat="48.87326" lon="1.97792">
        <ele>146</ele>
        <time>2022-10-03T14:26:27.303Z</time>
      </trkpt>
      <trkpt lat="48.87331" lon="1.97799">
        <ele>146</ele>
        <time>2022-10-03T14:26:32.262Z</time>
      </trkpt>
      <trkpt lat="48.87335" lon="1.97808">
        <ele>146</ele>
        <time>2022-10-03T14:26:37.261Z</time>
      </trkpt>
      <trkpt lat="48.8734" lon="1.97816">
        <ele>146</ele>
        <time>2022-10-03T14:26:42.261Z</time>
      </trkpt>
      <trkpt lat="48.87343" lon="1.97823">
        <ele>145</ele>
        <time>2022-10-03T14:26:46.267Z</time>
      </trkpt>
      <trkpt lat="48.87347" lon="1.97831">
        <ele>146</ele>
        <time>2022-10-03T14:26:51.269Z</time>
      </trkpt>
      <trkpt lat="48.87351" lon="1.97839">
        <ele>146</ele>
        <time>2022-10-03T14:26:55.286Z</time>
      </trkpt>
      <trkpt lat="48.87354" lon="1.97846">
        <ele>146</ele>
        <time>2022-10-03T14:26:59.292Z</time>
      </trkpt>
      <trkpt lat="48.87356" lon="1.97855">
        <ele>145</ele>
        <time>2022-10-03T14:27:04.242Z</time>
      </trkpt>
      <trkpt lat="48.87359" lon="1.97863">
        <ele>145</ele>
        <time>2022-10-03T14:27:08.281Z</time>
      </trkpt>
      <trkpt lat="48.87363" lon="1.97872">
        <ele>145</ele>
        <time>2022-10-03T14:27:13.277Z</time>
      </trkpt>
      <trkpt lat="48.87367" lon="1.9788">
        <ele>144</ele>
        <time>2022-10-03T14:27:18.263Z</time>
      </trkpt>
      <trkpt lat="48.87369" lon="1.97888">
        <ele>144</ele>
        <time>2022-10-03T14:27:23.246Z</time>
      </trkpt>
      <trkpt lat="48.87372" lon="1.97894">
        <ele>144</ele>
        <time>2022-10-03T14:27:27.269Z</time>
      </trkpt>
      <trkpt lat="48.87375" lon="1.97902">
        <ele>144</ele>
        <time>2022-10-03T14:27:32.246Z</time>
      </trkpt>
      <trkpt lat="48.87378" lon="1.97909">
        <ele>145</ele>
        <time>2022-10-03T14:27:36.266Z</time>
      </trkpt>
      <trkpt lat="48.87381" lon="1.97917">
        <ele>145</ele>
        <time>2022-10-03T14:27:40.273Z</time>
      </trkpt>
      <trkpt lat="48.87385" lon="1.97926">
        <ele>145</ele>
        <time>2022-10-03T14:27:45.242Z</time>
      </trkpt>
      <trkpt lat="48.87388" lon="1.97934">
        <ele>145</ele>
        <time>2022-10-03T14:27:49.268Z</time>
      </trkpt>
      <trkpt lat="48.8739" lon="1.97943">
        <ele>145</ele>
        <time>2022-10-03T14:27:54.282Z</time>
      </trkpt>
      <trkpt lat="48.87394" lon="1.97952">
        <ele>145</ele>
        <time>2022-10-03T14:27:59.264Z</time>
      </trkpt>
      <trkpt lat="48.87395" lon="1.9796">
        <ele>146</ele>
        <time>2022-10-03T14:28:03.276Z</time>
      </trkpt>
      <trkpt lat="48.87397" lon="1.97969">
        <ele>146</ele>
        <time>2022-10-03T14:28:07.293Z</time>
      </trkpt>
      <trkpt lat="48.87398" lon="1.97976">
        <ele>146</ele>
        <time>2022-10-03T14:28:11.287Z</time>
      </trkpt>
      <trkpt lat="48.87401" lon="1.97985">
        <ele>146</ele>
        <time>2022-10-03T14:28:16.277Z</time>
      </trkpt>
      <trkpt lat="48.87404" lon="1.97991">
        <ele>148</ele>
        <time>2022-10-03T14:28:21.285Z</time>
      </trkpt>
      <trkpt lat="48.87408" lon="1.97999">
        <ele>148</ele>
        <time>2022-10-03T14:28:26.252Z</time>
      </trkpt>
      <trkpt lat="48.87411" lon="1.98004">
        <ele>148</ele>
        <time>2022-10-03T14:28:30.275Z</time>
      </trkpt>
      <trkpt lat="48.87417" lon="1.9801">
        <ele>148</ele>
        <time>2022-10-03T14:28:35.272Z</time>
      </trkpt>
      <trkpt lat="48.87423" lon="1.98016">
        <ele>149</ele>
        <time>2022-10-03T14:28:40.263Z</time>
      </trkpt>
      <trkpt lat="48.87428" lon="1.98023">
        <ele>149</ele>
        <time>2022-10-03T14:28:45.255Z</time>
      </trkpt>
      <trkpt lat="48.87432" lon="1.98028">
        <ele>151</ele>
        <time>2022-10-03T14:28:49.268Z</time>
      </trkpt>
      <trkpt lat="48.87436" lon="1.98033">
        <ele>151</ele>
        <time>2022-10-03T14:28:53.267Z</time>
      </trkpt>
      <trkpt lat="48.87441" lon="1.98038">
        <ele>151</ele>
        <time>2022-10-03T14:28:58.251Z</time>
      </trkpt>
      <trkpt lat="48.87445" lon="1.98042">
        <ele>150</ele>
        <time>2022-10-03T14:29:02.256Z</time>
      </trkpt>
      <trkpt lat="48.8745" lon="1.98048">
        <ele>150</ele>
        <time>2022-10-03T14:29:07.266Z</time>
      </trkpt>
      <trkpt lat="48.87455" lon="1.98052">
        <ele>150</ele>
        <time>2022-10-03T14:29:11.281Z</time>
      </trkpt>
      <trkpt lat="48.8746" lon="1.98058">
        <ele>152</ele>
        <time>2022-10-03T14:29:16.267Z</time>
      </trkpt>
      <trkpt lat="48.87464" lon="1.98064">
        <ele>152</ele>
        <time>2022-10-03T14:29:20.271Z</time>
      </trkpt>
      <trkpt lat="48.87465" lon="1.98071">
        <ele>150</ele>
        <time>2022-10-03T14:29:24.291Z</time>
      </trkpt>
      <trkpt lat="48.87468" lon="1.9808">
        <ele>150</ele>
        <time>2022-10-03T14:29:29.281Z</time>
      </trkpt>
      <trkpt lat="48.8747" lon="1.98088">
        <ele>150</ele>
        <time>2022-10-03T14:29:33.288Z</time>
      </trkpt>
      <trkpt lat="48.87471" lon="1.98097">
        <ele>150</ele>
        <time>2022-10-03T14:29:38.276Z</time>
      </trkpt>
      <trkpt lat="48.87472" lon="1.98105">
        <ele>147</ele>
        <time>2022-10-03T14:29:42.292Z</time>
      </trkpt>
      <trkpt lat="48.87474" lon="1.98115">
        <ele>147</ele>
        <time>2022-10-03T14:29:47.272Z</time>
      </trkpt>
      <trkpt lat="48.87475" lon="1.98123">
        <ele>147</ele>
        <time>2022-10-03T14:29:51.277Z</time>
      </trkpt>
      <trkpt lat="48.87477" lon="1.98135">
        <ele>145</ele>
        <time>2022-10-03T14:29:56.277Z</time>
      </trkpt>
      <trkpt lat="48.87478" lon="1.98144">
        <ele>145</ele>
        <time>2022-10-03T14:30:01.275Z</time>
      </trkpt>
      <trkpt lat="48.8748" lon="1.98151">
        <ele>145</ele>
        <time>2022-10-03T14:30:05.274Z</time>
      </trkpt>
      <trkpt lat="48.87481" lon="1.9816">
        <ele>144</ele>
        <time>2022-10-03T14:30:10.253Z</time>
      </trkpt>
      <trkpt lat="48.87481" lon="1.98169">
        <ele>144</ele>
        <time>2022-10-03T14:30:15.277Z</time>
      </trkpt>
      <trkpt lat="48.87482" lon="1.98178">
        <ele>144</ele>
        <time>2022-10-03T14:30:20.266Z</time>
      </trkpt>
      <trkpt lat="48.87483" lon="1.98187">
        <ele>144</ele>
        <time>2022-10-03T14:30:25.264Z</time>
      </trkpt>
      <trkpt lat="48.87486" lon="1.98196">
        <ele>146</ele>
        <time>2022-10-03T14:30:30.242Z</time>
      </trkpt>
      <trkpt lat="48.8749" lon="1.98206">
        <ele>146</ele>
        <time>2022-10-03T14:30:34.274Z</time>
      </trkpt>
      <trkpt lat="48.87493" lon="1.98214">
        <ele>145</ele>
        <time>2022-10-03T14:30:39.256Z</time>
      </trkpt>
      <trkpt lat="48.87493" lon="1.98219">
        <ele>145</ele>
        <time>2022-10-03T14:30:43.272Z</time>
      </trkpt>
      <trkpt lat="48.87492" lon="1.98229">
        <ele>145</ele>
        <time>2022-10-03T14:30:48.241Z</time>
      </trkpt>
      <trkpt lat="48.8749" lon="1.98237">
        <ele>143</ele>
        <time>2022-10-03T14:30:52.285Z</time>
      </trkpt>
      <trkpt lat="48.87489" lon="1.98247">
        <ele>143</ele>
        <time>2022-10-03T14:30:57.270Z</time>
      </trkpt>
      <trkpt lat="48.8749" lon="1.98258">
        <ele>143</ele>
        <time>2022-10-03T14:31:02.248Z</time>
      </trkpt>
      <trkpt lat="48.87493" lon="1.98265">
        <ele>143</ele>
        <time>2022-10-03T14:31:06.271Z</time>
      </trkpt>
      <trkpt lat="48.87498" lon="1.98271">
        <ele>143</ele>
        <time>2022-10-03T14:31:11.260Z</time>
      </trkpt>
      <trkpt lat="48.87502" lon="1.98278">
        <ele>143</ele>
        <time>2022-10-03T14:31:15.275Z</time>
      </trkpt>
      <trkpt lat="48.87506" lon="1.98283">
        <ele>143</ele>
        <time>2022-10-03T14:31:20.272Z</time>
      </trkpt>
      <trkpt lat="48.8751" lon="1.98286">
        <ele>143</ele>
        <time>2022-10-03T14:31:24.277Z</time>
      </trkpt>
      <trkpt lat="48.87515" lon="1.9829">
        <ele>144</ele>
        <time>2022-10-03T14:31:29.252Z</time>
      </trkpt>
      <trkpt lat="48.8752" lon="1.98294">
        <ele>143</ele>
        <time>2022-10-03T14:31:33.270Z</time>
      </trkpt>
      <trkpt lat="48.87524" lon="1.98299">
        <ele>143</ele>
        <time>2022-10-03T14:31:38.266Z</time>
      </trkpt>
      <trkpt lat="48.8753" lon="1.98302">
        <ele>143</ele>
        <time>2022-10-03T14:31:42.275Z</time>
      </trkpt>
      <trkpt lat="48.87536" lon="1.98306">
        <ele>143</ele>
        <time>2022-10-03T14:31:47.274Z</time>
      </trkpt>
      <trkpt lat="48.87542" lon="1.98311">
        <ele>145</ele>
        <time>2022-10-03T14:31:52.285Z</time>
      </trkpt>
      <trkpt lat="48.87547" lon="1.98318">
        <ele>145</ele>
        <time>2022-10-03T14:31:57.272Z</time>
      </trkpt>
      <trkpt lat="48.87552" lon="1.98325">
        <ele>144</ele>
        <time>2022-10-03T14:32:02.266Z</time>
      </trkpt>
      <trkpt lat="48.87557" lon="1.98334">
        <ele>144</ele>
        <time>2022-10-03T14:32:07.276Z</time>
      </trkpt>
      <trkpt lat="48.87563" lon="1.9834">
        <ele>144</ele>
        <time>2022-10-03T14:32:12.271Z</time>
      </trkpt>
      <trkpt lat="48.87569" lon="1.98347">
        <ele>144</ele>
        <time>2022-10-03T14:32:17.280Z</time>
      </trkpt>
      <trkpt lat="48.87575" lon="1.98352">
        <ele>146</ele>
        <time>2022-10-03T14:32:22.281Z</time>
      </trkpt>
      <trkpt lat="48.8758" lon="1.98356">
        <ele>146</ele>
        <time>2022-10-03T14:32:27.273Z</time>
      </trkpt>
      <trkpt lat="48.87587" lon="1.98358">
        <ele>146</ele>
        <time>2022-10-03T14:32:32.261Z</time>
      </trkpt>
      <trkpt lat="48.87593" lon="1.98361">
        <ele>146</ele>
        <time>2022-10-03T14:32:37.260Z</time>
      </trkpt>
      <trkpt lat="48.87598" lon="1.98364">
        <ele>149</ele>
        <time>2022-10-03T14:32:41.276Z</time>
      </trkpt>
      <trkpt lat="48.87604" lon="1.98367">
        <ele>149</ele>
        <time>2022-10-03T14:32:46.280Z</time>
      </trkpt>
      <trkpt lat="48.87609" lon="1.98369">
        <ele>149</ele>
        <time>2022-10-03T14:32:50.287Z</time>
      </trkpt>
      <trkpt lat="48.87615" lon="1.98371">
        <ele>149</ele>
        <time>2022-10-03T14:32:55.259Z</time>
      </trkpt>
      <trkpt lat="48.8762" lon="1.98374">
        <ele>149</ele>
        <time>2022-10-03T14:32:59.278Z</time>
      </trkpt>
      <trkpt lat="48.87626" lon="1.98378">
        <ele>154</ele>
        <time>2022-10-03T14:33:04.297Z</time>
      </trkpt>
      <trkpt lat="48.8763" lon="1.9838">
        <ele>154</ele>
        <time>2022-10-03T14:33:08.295Z</time>
      </trkpt>
      <trkpt lat="48.87635" lon="1.98384">
        <ele>154</ele>
        <time>2022-10-03T14:33:13.275Z</time>
      </trkpt>
      <trkpt lat="48.87638" lon="1.98389">
        <ele>154</ele>
        <time>2022-10-03T14:33:18.300Z</time>
      </trkpt>
      <trkpt lat="48.87642" lon="1.98392">
        <ele>154</ele>
        <time>2022-10-03T14:33:23.281Z</time>
      </trkpt>
      <trkpt lat="48.87647" lon="1.98396">
        <ele>154</ele>
        <time>2022-10-03T14:33:28.285Z</time>
      </trkpt>
      <trkpt lat="48.87654" lon="1.984">
        <ele>161</ele>
        <time>2022-10-03T14:33:33.262Z</time>
      </trkpt>
      <trkpt lat="48.8766" lon="1.98405">
        <ele>161</ele>
        <time>2022-10-03T14:33:37.274Z</time>
      </trkpt>
      <trkpt lat="48.87665" lon="1.98407">
        <ele>161</ele>
        <time>2022-10-03T14:33:41.285Z</time>
      </trkpt>
      <trkpt lat="48.87668" lon="1.9841">
        <ele>161</ele>
        <time>2022-10-03T14:33:46.275Z</time>
      </trkpt>
      <trkpt lat="48.87671" lon="1.98414">
        <ele>161</ele>
        <time>2022-10-03T14:33:50.280Z</time>
      </trkpt>
      <trkpt lat="48.87673" lon="1.98417">
        <ele>161</ele>
        <time>2022-10-03T14:33:54.279Z</time>
      </trkpt>
      <trkpt lat="48.87677" lon="1.9842">
        <ele>161</ele>
        <time>2022-10-03T14:33:58.279Z</time>
      </trkpt>
      <trkpt lat="48.87681" lon="1.98424">
        <ele>165</ele>
        <time>2022-10-03T14:34:02.285Z</time>
      </trkpt>
      <trkpt lat="48.87685" lon="1.98429">
        <ele>165</ele>
        <time>2022-10-03T14:34:07.251Z</time>
      </trkpt>
      <trkpt lat="48.87689" lon="1.98433">
        <ele>165</ele>
        <time>2022-10-03T14:34:11.266Z</time>
      </trkpt>
      <trkpt lat="48.87693" lon="1.98435">
        <ele>165</ele>
        <time>2022-10-03T14:34:15.267Z</time>
      </trkpt>
      <trkpt lat="48.87697" lon="1.98437">
        <ele>165</ele>
        <time>2022-10-03T14:34:19.275Z</time>
      </trkpt>
      <trkpt lat="48.87701" lon="1.98439">
        <ele>165</ele>
        <time>2022-10-03T14:34:24.300Z</time>
      </trkpt>
      <trkpt lat="48.87705" lon="1.98442">
        <ele>165</ele>
        <time>2022-10-03T14:34:29.267Z</time>
      </trkpt>
      <trkpt lat="48.8771" lon="1.98444">
        <ele>170</ele>
        <time>2022-10-03T14:34:33.270Z</time>
      </trkpt>
      <trkpt lat="48.87712" lon="1.98446">
        <ele>170</ele>
        <time>2022-10-03T14:34:37.278Z</time>
      </trkpt>
      <trkpt lat="48.87715" lon="1.98449">
        <ele>170</ele>
        <time>2022-10-03T14:34:42.280Z</time>
      </trkpt>
      <trkpt lat="48.87718" lon="1.98451">
        <ele>170</ele>
        <time>2022-10-03T14:34:46.290Z</time>
      </trkpt>
      <trkpt lat="48.87723" lon="1.98452">
        <ele>170</ele>
        <time>2022-10-03T14:34:51.262Z</time>
      </trkpt>
      <trkpt lat="48.87726" lon="1.98455">
        <ele>170</ele>
        <time>2022-10-03T14:34:56.289Z</time>
      </trkpt>
      <trkpt lat="48.87729" lon="1.98457">
        <ele>170</ele>
        <time>2022-10-03T14:35:01.277Z</time>
      </trkpt>
      <trkpt lat="48.87732" lon="1.98459">
        <ele>171</ele>
        <time>2022-10-03T14:35:05.273Z</time>
      </trkpt>
      <trkpt lat="48.87739" lon="1.98462">
        <ele>175</ele>
        <time>2022-10-03T14:35:10.287Z</time>
      </trkpt>
      <trkpt lat="48.87746" lon="1.98462">
        <ele>175</ele>
        <time>2022-10-03T14:35:15.277Z</time>
      </trkpt>
      <trkpt lat="48.87752" lon="1.98464">
        <ele>175</ele>
        <time>2022-10-03T14:35:20.291Z</time>
      </trkpt>
      <trkpt lat="48.87755" lon="1.98468">
        <ele>175</ele>
        <time>2022-10-03T14:35:25.279Z</time>
      </trkpt>
      <trkpt lat="48.87759" lon="1.98473">
        <ele>175</ele>
        <time>2022-10-03T14:35:30.271Z</time>
      </trkpt>
      <trkpt lat="48.87762" lon="1.98474">
        <ele>175</ele>
        <time>2022-10-03T14:35:34.282Z</time>
      </trkpt>
      <trkpt lat="48.87766" lon="1.98475">
        <ele>177</ele>
        <time>2022-10-03T14:35:38.296Z</time>
      </trkpt>
      <trkpt lat="48.87773" lon="1.98476">
        <ele>177</ele>
        <time>2022-10-03T14:35:43.270Z</time>
      </trkpt>
      <trkpt lat="48.8778" lon="1.98478">
        <ele>177</ele>
        <time>2022-10-03T14:35:48.272Z</time>
      </trkpt>
      <trkpt lat="48.87785" lon="1.98481">
        <ele>177</ele>
        <time>2022-10-03T14:35:52.291Z</time>
      </trkpt>
      <trkpt lat="48.87791" lon="1.98484">
        <ele>177</ele>
        <time>2022-10-03T14:35:57.268Z</time>
      </trkpt>
      <trkpt lat="48.87797" lon="1.98486">
        <ele>177</ele>
        <time>2022-10-03T14:36:02.260Z</time>
      </trkpt>
      <trkpt lat="48.87802" lon="1.98487">
        <ele>177</ele>
        <time>2022-10-03T14:36:07.245Z</time>
      </trkpt>
      <trkpt lat="48.87805" lon="1.98485">
        <ele>177</ele>
        <time>2022-10-03T14:36:11.249Z</time>
      </trkpt>
      <trkpt lat="48.87811" lon="1.98486">
        <ele>177</ele>
        <time>2022-10-03T14:36:16.253Z</time>
      </trkpt>
      <trkpt lat="48.87814" lon="1.98484">
        <ele>177</ele>
        <time>2022-10-03T14:36:21.239Z</time>
      </trkpt>
      <trkpt lat="48.87815" lon="1.9849">
        <ele>177</ele>
        <time>2022-10-03T14:40:27.283Z</time>
      </trkpt>
      <trkpt lat="48.87817" lon="1.98491">
        <ele>177</ele>
        <time>2022-10-03T14:40:32.299Z</time>
      </trkpt>
      <trkpt lat="48.87818" lon="1.98492">
        <ele>177</ele>
        <time>2022-10-03T14:40:37.265Z</time>
      </trkpt>
      <trkpt lat="48.8782" lon="1.98493">
        <ele>176</ele>
        <time>2022-10-03T14:40:41.267Z</time>
      </trkpt>
      <trkpt lat="48.87822" lon="1.98494">
        <ele>176</ele>
        <time>2022-10-03T14:40:45.265Z</time>
      </trkpt>
      <trkpt lat="48.87823" lon="1.98497">
        <ele>176</ele>
        <time>2022-10-03T14:40:49.273Z</time>
      </trkpt>
      <trkpt lat="48.87827" lon="1.985">
        <ele>176</ele>
        <time>2022-10-03T14:40:54.280Z</time>
      </trkpt>
      <trkpt lat="48.87831" lon="1.98505">
        <ele>176</ele>
        <time>2022-10-03T14:40:59.277Z</time>
      </trkpt>
      <trkpt lat="48.87837" lon="1.98509">
        <ele>176</ele>
        <time>2022-10-03T14:41:04.289Z</time>
      </trkpt>
      <trkpt lat="48.87841" lon="1.98512">
        <ele>176</ele>
        <time>2022-10-03T14:41:09.273Z</time>
      </trkpt>
      <trkpt lat="48.87845" lon="1.98516">
        <ele>176</ele>
        <time>2022-10-03T14:41:14.259Z</time>
      </trkpt>
      <trkpt lat="48.87849" lon="1.98517">
        <ele>177</ele>
        <time>2022-10-03T14:41:18.265Z</time>
      </trkpt>
      <trkpt lat="48.87854" lon="1.98517">
        <ele>177</ele>
        <time>2022-10-03T14:41:23.274Z</time>
      </trkpt>
      <trkpt lat="48.87861" lon="1.98519">
        <ele>177</ele>
        <time>2022-10-03T14:41:28.269Z</time>
      </trkpt>
      <trkpt lat="48.87867" lon="1.9852">
        <ele>177</ele>
        <time>2022-10-03T14:41:33.260Z</time>
      </trkpt>
      <trkpt lat="48.87873" lon="1.98522">
        <ele>177</ele>
        <time>2022-10-03T14:41:38.280Z</time>
      </trkpt>
      <trkpt lat="48.87877" lon="1.98523">
        <ele>178</ele>
        <time>2022-10-03T14:41:42.292Z</time>
      </trkpt>
      <trkpt lat="48.87883" lon="1.98524">
        <ele>178</ele>
        <time>2022-10-03T14:41:47.250Z</time>
      </trkpt>
      <trkpt lat="48.87887" lon="1.98525">
        <ele>178</ele>
        <time>2022-10-03T14:41:51.271Z</time>
      </trkpt>
      <trkpt lat="48.87891" lon="1.98527">
        <ele>178</ele>
        <time>2022-10-03T14:41:55.268Z</time>
      </trkpt>
      <trkpt lat="48.87898" lon="1.98529">
        <ele>178</ele>
        <time>2022-10-03T14:42:00.267Z</time>
      </trkpt>
      <trkpt lat="48.87905" lon="1.9853">
        <ele>179</ele>
        <time>2022-10-03T14:42:05.259Z</time>
      </trkpt>
      <trkpt lat="48.87912" lon="1.98532">
        <ele>179</ele>
        <time>2022-10-03T14:42:10.243Z</time>
      </trkpt>
      <trkpt lat="48.8792" lon="1.98532">
        <ele>179</ele>
        <time>2022-10-03T14:42:15.258Z</time>
      </trkpt>
      <trkpt lat="48.87925" lon="1.98535">
        <ele>179</ele>
        <time>2022-10-03T14:42:19.257Z</time>
      </trkpt>
      <trkpt lat="48.87929" lon="1.98538">
        <ele>179</ele>
        <time>2022-10-03T14:42:23.260Z</time>
      </trkpt>
      <trkpt lat="48.87936" lon="1.98541">
        <ele>179</ele>
        <time>2022-10-03T14:42:28.262Z</time>
      </trkpt>
      <trkpt lat="48.87941" lon="1.98542">
        <ele>178</ele>
        <time>2022-10-03T14:42:32.261Z</time>
      </trkpt>
      <trkpt lat="48.87946" lon="1.98543">
        <ele>178</ele>
        <time>2022-10-03T14:42:36.266Z</time>
      </trkpt>
      <trkpt lat="48.87953" lon="1.98544">
        <ele>178</ele>
        <time>2022-10-03T14:42:41.245Z</time>
      </trkpt>
      <trkpt lat="48.8796" lon="1.98547">
        <ele>178</ele>
        <time>2022-10-03T14:42:45.266Z</time>
      </trkpt>
      <trkpt lat="48.87968" lon="1.98549">
        <ele>178</ele>
        <time>2022-10-03T14:42:50.251Z</time>
      </trkpt>
      <trkpt lat="48.87974" lon="1.98552">
        <ele>178</ele>
        <time>2022-10-03T14:42:55.249Z</time>
      </trkpt>
      <trkpt lat="48.8798" lon="1.98554">
        <ele>178</ele>
        <time>2022-10-03T14:42:59.274Z</time>
      </trkpt>
      <trkpt lat="48.87987" lon="1.98557">
        <ele>177</ele>
        <time>2022-10-03T14:43:04.286Z</time>
      </trkpt>
      <trkpt lat="48.87993" lon="1.98562">
        <ele>177</ele>
        <time>2022-10-03T14:43:09.251Z</time>
      </trkpt>
      <trkpt lat="48.87998" lon="1.98563">
        <ele>177</ele>
        <time>2022-10-03T14:43:13.265Z</time>
      </trkpt>
      <trkpt lat="48.88003" lon="1.98566">
        <ele>177</ele>
        <time>2022-10-03T14:43:17.275Z</time>
      </trkpt>
      <trkpt lat="48.88009" lon="1.98569">
        <ele>177</ele>
        <time>2022-10-03T14:43:22.275Z</time>
      </trkpt>
      <trkpt lat="48.88014" lon="1.98572">
        <ele>176</ele>
        <time>2022-10-03T14:43:27.262Z</time>
      </trkpt>
      <trkpt lat="48.88019" lon="1.98575">
        <ele>176</ele>
        <time>2022-10-03T14:43:31.266Z</time>
      </trkpt>
      <trkpt lat="48.88022" lon="1.98581">
        <ele>176</ele>
        <time>2022-10-03T14:43:35.263Z</time>
      </trkpt>
      <trkpt lat="48.88025" lon="1.98592">
        <ele>176</ele>
        <time>2022-10-03T14:43:40.247Z</time>
      </trkpt>
      <trkpt lat="48.88024" lon="1.98599">
        <ele>176</ele>
        <time>2022-10-03T14:43:44.271Z</time>
      </trkpt>
      <trkpt lat="48.88022" lon="1.98608">
        <ele>176</ele>
        <time>2022-10-03T14:43:49.258Z</time>
      </trkpt>
      <trkpt lat="48.8802" lon="1.98618">
        <ele>176</ele>
        <time>2022-10-03T14:43:53.278Z</time>
      </trkpt>
      <trkpt lat="48.8802" lon="1.98626">
        <ele>176</ele>
        <time>2022-10-03T14:43:58.240Z</time>
      </trkpt>
      <trkpt lat="48.88027" lon="1.98627">
        <ele>176</ele>
        <time>2022-10-03T14:44:03.242Z</time>
      </trkpt>
      <trkpt lat="48.88027" lon="1.98639">
        <ele>176</ele>
        <time>2022-10-03T14:44:07.244Z</time>
      </trkpt>
      <trkpt lat="48.88024" lon="1.98647">
        <ele>176</ele>
        <time>2022-10-03T14:44:11.251Z</time>
      </trkpt>
      <trkpt lat="48.88022" lon="1.98649">
        <ele>176</ele>
        <time>2022-10-03T14:44:16.243Z</time>
      </trkpt>
      <trkpt lat="48.88022" lon="1.98651">
        <ele>176</ele>
        <time>2022-10-03T14:44:20.258Z</time>
      </trkpt>
      <trkpt lat="48.88018" lon="1.98658">
        <ele>176</ele>
        <time>2022-10-03T14:44:25.253Z</time>
      </trkpt>
      <trkpt lat="48.88014" lon="1.98668">
        <ele>176</ele>
        <time>2022-10-03T14:44:30.244Z</time>
      </trkpt>
      <trkpt lat="48.88013" lon="1.98674">
        <ele>177</ele>
        <time>2022-10-03T14:44:34.237Z</time>
      </trkpt>
      <trkpt lat="48.88013" lon="1.9868">
        <ele>177</ele>
        <time>2022-10-03T14:44:38.264Z</time>
      </trkpt>
      <trkpt lat="48.88012" lon="1.98689">
        <ele>176</ele>
        <time>2022-10-03T14:44:43.254Z</time>
      </trkpt>
      <trkpt lat="48.8801" lon="1.98696">
        <ele>176</ele>
        <time>2022-10-03T14:44:47.271Z</time>
      </trkpt>
      <trkpt lat="48.88007" lon="1.98702">
        <ele>176</ele>
        <time>2022-10-03T14:44:51.280Z</time>
      </trkpt>
      <trkpt lat="48.88005" lon="1.98711">
        <ele>176</ele>
        <time>2022-10-03T14:44:56.267Z</time>
      </trkpt>
      <trkpt lat="48.88004" lon="1.98722">
        <ele>176</ele>
        <time>2022-10-03T14:45:01.261Z</time>
      </trkpt>
      <trkpt lat="48.88002" lon="1.9873">
        <ele>176</ele>
        <time>2022-10-03T14:45:05.278Z</time>
      </trkpt>
      <trkpt lat="48.88" lon="1.98738">
        <ele>177</ele>
        <time>2022-10-03T14:45:09.273Z</time>
      </trkpt>
      <trkpt lat="48.87997" lon="1.98749">
        <ele>177</ele>
        <time>2022-10-03T14:45:14.247Z</time>
      </trkpt>
      <trkpt lat="48.87996" lon="1.98756">
        <ele>177</ele>
        <time>2022-10-03T14:45:18.273Z</time>
      </trkpt>
      <trkpt lat="48.87995" lon="1.98766">
        <ele>176</ele>
        <time>2022-10-03T14:45:23.262Z</time>
      </trkpt>
      <trkpt lat="48.87994" lon="1.98774">
        <ele>176</ele>
        <time>2022-10-03T14:45:27.274Z</time>
      </trkpt>
      <trkpt lat="48.87993" lon="1.98784">
        <ele>176</ele>
        <time>2022-10-03T14:45:32.260Z</time>
      </trkpt>
      <trkpt lat="48.87992" lon="1.9879">
        <ele>176</ele>
        <time>2022-10-03T14:45:36.308Z</time>
      </trkpt>
      <trkpt lat="48.8799" lon="1.988">
        <ele>177</ele>
        <time>2022-10-03T14:45:41.309Z</time>
      </trkpt>
      <trkpt lat="48.87989" lon="1.98811">
        <ele>177</ele>
        <time>2022-10-03T14:45:46.278Z</time>
      </trkpt>
      <trkpt lat="48.87988" lon="1.98824">
        <ele>177</ele>
        <time>2022-10-03T14:45:51.250Z</time>
      </trkpt>
      <trkpt lat="48.87989" lon="1.98828">
        <ele>177</ele>
        <time>2022-10-03T14:45:55.273Z</time>
      </trkpt>
      <trkpt lat="48.8799" lon="1.98835">
        <ele>177</ele>
        <time>2022-10-03T14:46:00.272Z</time>
      </trkpt>
      <trkpt lat="48.87991" lon="1.9884">
        <ele>177</ele>
        <time>2022-10-03T14:46:05.252Z</time>
      </trkpt>
      <trkpt lat="48.8799" lon="1.98848">
        <ele>177</ele>
        <time>2022-10-03T14:46:09.268Z</time>
      </trkpt>
      <trkpt lat="48.87992" lon="1.98858">
        <ele>177</ele>
        <time>2022-10-03T14:46:14.248Z</time>
      </trkpt>
      <trkpt lat="48.87992" lon="1.98866">
        <ele>177</ele>
        <time>2022-10-03T14:46:18.249Z</time>
      </trkpt>
      <trkpt lat="48.87991" lon="1.98873">
        <ele>177</ele>
        <time>2022-10-03T14:46:22.285Z</time>
      </trkpt>
      <trkpt lat="48.8799" lon="1.98886">
        <ele>177</ele>
        <time>2022-10-03T14:46:27.283Z</time>
      </trkpt>
      <trkpt lat="48.87986" lon="1.98895">
        <ele>177</ele>
        <time>2022-10-03T14:46:32.269Z</time>
      </trkpt>
      <trkpt lat="48.87982" lon="1.98905">
        <ele>178</ele>
        <time>2022-10-03T14:46:37.251Z</time>
      </trkpt>
      <trkpt lat="48.87981" lon="1.98913">
        <ele>178</ele>
        <time>2022-10-03T14:46:41.279Z</time>
      </trkpt>
      <trkpt lat="48.8798" lon="1.98919">
        <ele>178</ele>
        <time>2022-10-03T14:46:45.286Z</time>
      </trkpt>
      <trkpt lat="48.87977" lon="1.98927">
        <ele>178</ele>
        <time>2022-10-03T14:46:50.273Z</time>
      </trkpt>
      <trkpt lat="48.87975" lon="1.98936">
        <ele>179</ele>
        <time>2022-10-03T14:46:55.273Z</time>
      </trkpt>
      <trkpt lat="48.87971" lon="1.98945">
        <ele>179</ele>
        <time>2022-10-03T14:47:00.244Z</time>
      </trkpt>
      <trkpt lat="48.87969" lon="1.98952">
        <ele>179</ele>
        <time>2022-10-03T14:47:04.292Z</time>
      </trkpt>
      <trkpt lat="48.87967" lon="1.98961">
        <ele>181</ele>
        <time>2022-10-03T14:47:09.271Z</time>
      </trkpt>
      <trkpt lat="48.87966" lon="1.98969">
        <ele>181</ele>
        <time>2022-10-03T14:47:13.284Z</time>
      </trkpt>
      <trkpt lat="48.87968" lon="1.98977">
        <ele>181</ele>
        <time>2022-10-03T14:47:18.276Z</time>
      </trkpt>
      <trkpt lat="48.8797" lon="1.98982">
        <ele>181</ele>
        <time>2022-10-03T14:47:22.295Z</time>
      </trkpt>
      <trkpt lat="48.87973" lon="1.98991">
        <ele>182</ele>
        <time>2022-10-03T14:47:27.285Z</time>
      </trkpt>
      <trkpt lat="48.87976" lon="1.98997">
        <ele>182</ele>
        <time>2022-10-03T14:47:31.275Z</time>
      </trkpt>
      <trkpt lat="48.8798" lon="1.99004">
        <ele>182</ele>
        <time>2022-10-03T14:47:36.267Z</time>
      </trkpt>
      <trkpt lat="48.8798" lon="1.99008">
        <ele>182</ele>
        <time>2022-10-03T14:47:40.256Z</time>
      </trkpt>
      <trkpt lat="48.8798" lon="1.99009">
        <ele>182</ele>
        <time>2022-10-03T14:47:45.273Z</time>
      </trkpt>
      <trkpt lat="48.87977" lon="1.99012">
        <ele>182</ele>
        <time>2022-10-03T14:47:50.282Z</time>
      </trkpt>
      <trkpt lat="48.87974" lon="1.99017">
        <ele>182</ele>
        <time>2022-10-03T14:47:54.288Z</time>
      </trkpt>
      <trkpt lat="48.87969" lon="1.99021">
        <ele>182</ele>
        <time>2022-10-03T14:47:58.291Z</time>
      </trkpt>
      <trkpt lat="48.87962" lon="1.99027">
        <ele>182</ele>
        <time>2022-10-03T14:48:03.277Z</time>
      </trkpt>
      <trkpt lat="48.87959" lon="1.99037">
        <ele>182</ele>
        <time>2022-10-03T14:48:08.280Z</time>
      </trkpt>
      <trkpt lat="48.87958" lon="1.99048">
        <ele>180</ele>
        <time>2022-10-03T14:48:13.262Z</time>
      </trkpt>
      <trkpt lat="48.87957" lon="1.99057">
        <ele>180</ele>
        <time>2022-10-03T14:48:17.281Z</time>
      </trkpt>
      <trkpt lat="48.87957" lon="1.99065">
        <ele>180</ele>
        <time>2022-10-03T14:48:22.275Z</time>
      </trkpt>
      <trkpt lat="48.87958" lon="1.99076">
        <ele>181</ele>
        <time>2022-10-03T14:48:27.261Z</time>
      </trkpt>
      <trkpt lat="48.87957" lon="1.99084">
        <ele>181</ele>
        <time>2022-10-03T14:48:31.259Z</time>
      </trkpt>
      <trkpt lat="48.87957" lon="1.99091">
        <ele>181</ele>
        <time>2022-10-03T14:48:35.275Z</time>
      </trkpt>
      <trkpt lat="48.87956" lon="1.99101">
        <ele>181</ele>
        <time>2022-10-03T14:48:40.249Z</time>
      </trkpt>
      <trkpt lat="48.87958" lon="1.9911">
        <ele>181</ele>
        <time>2022-10-03T14:48:44.261Z</time>
      </trkpt>
      <trkpt lat="48.87957" lon="1.99119">
        <ele>181</ele>
        <time>2022-10-03T14:48:48.268Z</time>
      </trkpt>
      <trkpt lat="48.87957" lon="1.99127">
        <ele>181</ele>
        <time>2022-10-03T14:48:53.255Z</time>
      </trkpt>
      <trkpt lat="48.87957" lon="1.99136">
        <ele>181</ele>
        <time>2022-10-03T14:48:58.247Z</time>
      </trkpt>
      <trkpt lat="48.87954" lon="1.99143">
        <ele>181</ele>
        <time>2022-10-03T14:49:02.251Z</time>
      </trkpt>
      <trkpt lat="48.87954" lon="1.99152">
        <ele>181</ele>
        <time>2022-10-03T14:49:07.266Z</time>
      </trkpt>
      <trkpt lat="48.87954" lon="1.9916">
        <ele>181</ele>
        <time>2022-10-03T14:49:11.270Z</time>
      </trkpt>
      <trkpt lat="48.87956" lon="1.99168">
        <ele>181</ele>
        <time>2022-10-03T14:49:16.274Z</time>
      </trkpt>
      <trkpt lat="48.87955" lon="1.99175">
        <ele>181</ele>
        <time>2022-10-03T14:49:21.260Z</time>
      </trkpt>
      <trkpt lat="48.87953" lon="1.99184">
        <ele>181</ele>
        <time>2022-10-03T14:49:25.264Z</time>
      </trkpt>
      <trkpt lat="48.87952" lon="1.99194">
        <ele>181</ele>
        <time>2022-10-03T14:49:30.271Z</time>
      </trkpt>
      <trkpt lat="48.87952" lon="1.99205">
        <ele>181</ele>
        <time>2022-10-03T14:49:35.267Z</time>
      </trkpt>
      <trkpt lat="48.87951" lon="1.99213">
        <ele>180</ele>
        <time>2022-10-03T14:49:40.268Z</time>
      </trkpt>
      <trkpt lat="48.87952" lon="1.99224">
        <ele>180</ele>
        <time>2022-10-03T14:49:45.251Z</time>
      </trkpt>
      <trkpt lat="48.87953" lon="1.99234">
        <ele>180</ele>
        <time>2022-10-03T14:49:50.248Z</time>
      </trkpt>
      <trkpt lat="48.87953" lon="1.99241">
        <ele>180</ele>
        <time>2022-10-03T14:49:54.262Z</time>
      </trkpt>
      <trkpt lat="48.87954" lon="1.99249">
        <ele>180</ele>
        <time>2022-10-03T14:49:58.260Z</time>
      </trkpt>
      <trkpt lat="48.87953" lon="1.99257">
        <ele>180</ele>
        <time>2022-10-03T14:50:02.293Z</time>
      </trkpt>
      <trkpt lat="48.87952" lon="1.99265">
        <ele>179</ele>
        <time>2022-10-03T14:50:06.307Z</time>
      </trkpt>
      <trkpt lat="48.87951" lon="1.99277">
        <ele>179</ele>
        <time>2022-10-03T14:50:11.282Z</time>
      </trkpt>
      <trkpt lat="48.87949" lon="1.99286">
        <ele>179</ele>
        <time>2022-10-03T14:50:16.298Z</time>
      </trkpt>
      <trkpt lat="48.8795" lon="1.99298">
        <ele>178</ele>
        <time>2022-10-03T14:50:21.272Z</time>
      </trkpt>
      <trkpt lat="48.87949" lon="1.99306">
        <ele>178</ele>
        <time>2022-10-03T14:50:25.280Z</time>
      </trkpt>
      <trkpt lat="48.8795" lon="1.99312">
        <ele>178</ele>
        <time>2022-10-03T14:50:29.283Z</time>
      </trkpt>
      <trkpt lat="48.8795" lon="1.99323">
        <ele>178</ele>
        <time>2022-10-03T14:50:34.295Z</time>
      </trkpt>
      <trkpt lat="48.87949" lon="1.99335">
        <ele>178</ele>
        <time>2022-10-03T14:50:39.274Z</time>
      </trkpt>
      <trkpt lat="48.87951" lon="1.99345">
        <ele>178</ele>
        <time>2022-10-03T14:50:44.294Z</time>
      </trkpt>
      <trkpt lat="48.8795" lon="1.99353">
        <ele>176</ele>
        <time>2022-10-03T14:50:48.302Z</time>
      </trkpt>
      <trkpt lat="48.87949" lon="1.99364">
        <ele>176</ele>
        <time>2022-10-03T14:50:53.269Z</time>
      </trkpt>
      <trkpt lat="48.8795" lon="1.99374">
        <ele>176</ele>
        <time>2022-10-03T14:50:58.278Z</time>
      </trkpt>
      <trkpt lat="48.8795" lon="1.99384">
        <ele>175</ele>
        <time>2022-10-03T14:51:03.278Z</time>
      </trkpt>
      <trkpt lat="48.87949" lon="1.99391">
        <ele>175</ele>
        <time>2022-10-03T14:51:08.285Z</time>
      </trkpt>
      <trkpt lat="48.87949" lon="1.99399">
        <ele>175</ele>
        <time>2022-10-03T14:51:12.295Z</time>
      </trkpt>
      <trkpt lat="48.8795" lon="1.99406">
        <ele>175</ele>
        <time>2022-10-03T14:51:16.296Z</time>
      </trkpt>
      <trkpt lat="48.87949" lon="1.99418">
        <ele>175</ele>
        <time>2022-10-03T14:51:21.289Z</time>
      </trkpt>
      <trkpt lat="48.87949" lon="1.99429">
        <ele>175</ele>
        <time>2022-10-03T14:51:26.301Z</time>
      </trkpt>
      <trkpt lat="48.87949" lon="1.9944">
        <ele>175</ele>
        <time>2022-10-03T14:51:31.269Z</time>
      </trkpt>
      <trkpt lat="48.87948" lon="1.99451">
        <ele>175</ele>
        <time>2022-10-03T14:51:36.279Z</time>
      </trkpt>
      <trkpt lat="48.87949" lon="1.99461">
        <ele>175</ele>
        <time>2022-10-03T14:51:41.280Z</time>
      </trkpt>
      <trkpt lat="48.87947" lon="1.99469">
        <ele>175</ele>
        <time>2022-10-03T14:51:46.298Z</time>
      </trkpt>
      <trkpt lat="48.87947" lon="1.99479">
        <ele>175</ele>
        <time>2022-10-03T14:51:51.271Z</time>
      </trkpt>
      <trkpt lat="48.87946" lon="1.99485">
        <ele>175</ele>
        <time>2022-10-03T14:51:55.272Z</time>
      </trkpt>
      <trkpt lat="48.87947" lon="1.99494">
        <ele>175</ele>
        <time>2022-10-03T14:52:00.294Z</time>
      </trkpt>
      <trkpt lat="48.87945" lon="1.99501">
        <ele>175</ele>
        <time>2022-10-03T14:52:04.294Z</time>
      </trkpt>
      <trkpt lat="48.87946" lon="1.99512">
        <ele>175</ele>
        <time>2022-10-03T14:52:09.292Z</time>
      </trkpt>
      <trkpt lat="48.87946" lon="1.99523">
        <ele>175</ele>
        <time>2022-10-03T14:52:14.291Z</time>
      </trkpt>
      <trkpt lat="48.87946" lon="1.99534">
        <ele>175</ele>
        <time>2022-10-03T14:52:19.289Z</time>
      </trkpt>
      <trkpt lat="48.87946" lon="1.99544">
        <ele>175</ele>
        <time>2022-10-03T14:52:23.289Z</time>
      </trkpt>
      <trkpt lat="48.87946" lon="1.99555">
        <ele>175</ele>
        <time>2022-10-03T14:52:28.286Z</time>
      </trkpt>
      <trkpt lat="48.87945" lon="1.99564">
        <ele>175</ele>
        <time>2022-10-03T14:52:32.293Z</time>
      </trkpt>
      <trkpt lat="48.87944" lon="1.99573">
        <ele>175</ele>
        <time>2022-10-03T14:52:37.282Z</time>
      </trkpt>
      <trkpt lat="48.87944" lon="1.99583">
        <ele>175</ele>
        <time>2022-10-03T14:52:42.279Z</time>
      </trkpt>
      <trkpt lat="48.87943" lon="1.9959">
        <ele>175</ele>
        <time>2022-10-03T14:52:46.294Z</time>
      </trkpt>
      <trkpt lat="48.87944" lon="1.99599">
        <ele>176</ele>
        <time>2022-10-03T14:52:51.286Z</time>
      </trkpt>
      <trkpt lat="48.87944" lon="1.9961">
        <ele>176</ele>
        <time>2022-10-03T14:52:56.296Z</time>
      </trkpt>
      <trkpt lat="48.87944" lon="1.99622">
        <ele>176</ele>
        <time>2022-10-03T14:53:01.288Z</time>
      </trkpt>
      <trkpt lat="48.87943" lon="1.99633">
        <ele>177</ele>
        <time>2022-10-03T14:53:06.286Z</time>
      </trkpt>
      <trkpt lat="48.87942" lon="1.99644">
        <ele>177</ele>
        <time>2022-10-03T14:53:11.278Z</time>
      </trkpt>
      <trkpt lat="48.87942" lon="1.99654">
        <ele>176</ele>
        <time>2022-10-03T14:53:16.286Z</time>
      </trkpt>
      <trkpt lat="48.87942" lon="1.99662">
        <ele>176</ele>
        <time>2022-10-03T14:53:20.294Z</time>
      </trkpt>
      <trkpt lat="48.87944" lon="1.99672">
        <ele>176</ele>
        <time>2022-10-03T14:53:25.286Z</time>
      </trkpt>
      <trkpt lat="48.87944" lon="1.99678">
        <ele>176</ele>
        <time>2022-10-03T14:53:29.304Z</time>
      </trkpt>
      <trkpt lat="48.87943" lon="1.99689">
        <ele>175</ele>
        <time>2022-10-03T14:53:34.298Z</time>
      </trkpt>
      <trkpt lat="48.87943" lon="1.99696">
        <ele>175</ele>
        <time>2022-10-03T14:53:38.286Z</time>
      </trkpt>
      <trkpt lat="48.87943" lon="1.99704">
        <ele>175</ele>
        <time>2022-10-03T14:53:42.302Z</time>
      </trkpt>
      <trkpt lat="48.87943" lon="1.99712">
        <ele>175</ele>
        <time>2022-10-03T14:53:47.293Z</time>
      </trkpt>
      <trkpt lat="48.87942" lon="1.99723">
        <ele>175</ele>
        <time>2022-10-03T14:53:52.291Z</time>
      </trkpt>
      <trkpt lat="48.87943" lon="1.99737">
        <ele>175</ele>
        <time>2022-10-03T14:53:57.249Z</time>
      </trkpt>
      <trkpt lat="48.87944" lon="1.99745">
        <ele>175</ele>
        <time>2022-10-03T14:54:01.286Z</time>
      </trkpt>
      <trkpt lat="48.87943" lon="1.99754">
        <ele>175</ele>
        <time>2022-10-03T14:54:06.287Z</time>
      </trkpt>
      <trkpt lat="48.87942" lon="1.99762">
        <ele>175</ele>
        <time>2022-10-03T14:54:11.294Z</time>
      </trkpt>
      <trkpt lat="48.8794" lon="1.99773">
        <ele>176</ele>
        <time>2022-10-03T14:54:16.294Z</time>
      </trkpt>
      <trkpt lat="48.8794" lon="1.99785">
        <ele>176</ele>
        <time>2022-10-03T14:54:21.270Z</time>
      </trkpt>
      <trkpt lat="48.87942" lon="1.99797">
        <ele>178</ele>
        <time>2022-10-03T14:54:49.303Z</time>
      </trkpt>
      <trkpt lat="48.87945" lon="1.99803">
        <ele>178</ele>
        <time>2022-10-03T14:54:53.274Z</time>
      </trkpt>
      <trkpt lat="48.8795" lon="1.99809">
        <ele>178</ele>
        <time>2022-10-03T14:54:58.277Z</time>
      </trkpt>
      <trkpt lat="48.87953" lon="1.99814">
        <ele>178</ele>
        <time>2022-10-03T14:55:02.279Z</time>
      </trkpt>
      <trkpt lat="48.87957" lon="1.99819">
        <ele>178</ele>
        <time>2022-10-03T14:55:06.279Z</time>
      </trkpt>
      <trkpt lat="48.8796" lon="1.99825">
        <ele>176</ele>
        <time>2022-10-03T14:55:11.279Z</time>
      </trkpt>
      <trkpt lat="48.87966" lon="1.99832">
        <ele>176</ele>
        <time>2022-10-03T14:55:15.286Z</time>
      </trkpt>
      <trkpt lat="48.87972" lon="1.9984">
        <ele>176</ele>
        <time>2022-10-03T14:55:20.285Z</time>
      </trkpt>
      <trkpt lat="48.87976" lon="1.99848">
        <ele>177</ele>
        <time>2022-10-03T14:55:24.287Z</time>
      </trkpt>
      <trkpt lat="48.87979" lon="1.99855">
        <ele>177</ele>
        <time>2022-10-03T14:55:28.285Z</time>
      </trkpt>
      <trkpt lat="48.87984" lon="1.99861">
        <ele>177</ele>
        <time>2022-10-03T14:55:33.270Z</time>
      </trkpt>
      <trkpt lat="48.87986" lon="1.99866">
        <ele>177</ele>
        <time>2022-10-03T14:55:37.289Z</time>
      </trkpt>
      <trkpt lat="48.87989" lon="1.99874">
        <ele>176</ele>
        <time>2022-10-03T14:55:42.299Z</time>
      </trkpt>
      <trkpt lat="48.87993" lon="1.99881">
        <ele>177</ele>
        <time>2022-10-03T14:55:47.272Z</time>
      </trkpt>
      <trkpt lat="48.87995" lon="1.99885">
        <ele>177</ele>
        <time>2022-10-03T14:55:51.287Z</time>
      </trkpt>
      <trkpt lat="48.87998" lon="1.99892">
        <ele>177</ele>
        <time>2022-10-03T14:55:56.290Z</time>
      </trkpt>
      <trkpt lat="48.88004" lon="1.999">
        <ele>177</ele>
        <time>2022-10-03T14:56:01.298Z</time>
      </trkpt>
      <trkpt lat="48.88009" lon="1.99908">
        <ele>179</ele>
        <time>2022-10-03T14:56:06.286Z</time>
      </trkpt>
      <trkpt lat="48.88015" lon="1.99916">
        <ele>178</ele>
        <time>2022-10-03T14:56:11.260Z</time>
      </trkpt>
      <trkpt lat="48.88018" lon="1.99924">
        <ele>178</ele>
        <time>2022-10-03T14:56:15.276Z</time>
      </trkpt>
      <trkpt lat="48.88023" lon="1.99932">
        <ele>179</ele>
        <time>2022-10-03T14:56:20.262Z</time>
      </trkpt>
      <trkpt lat="48.88026" lon="1.99937">
        <ele>179</ele>
        <time>2022-10-03T14:56:24.287Z</time>
      </trkpt>
      <trkpt lat="48.88031" lon="1.99945">
        <ele>179</ele>
        <time>2022-10-03T14:56:29.265Z</time>
      </trkpt>
      <trkpt lat="48.88035" lon="1.99951">
        <ele>179</ele>
        <time>2022-10-03T14:56:33.298Z</time>
      </trkpt>
      <trkpt lat="48.8804" lon="1.99958">
        <ele>179</ele>
        <time>2022-10-03T14:56:38.270Z</time>
      </trkpt>
      <trkpt lat="48.88044" lon="1.99965">
        <ele>178</ele>
        <time>2022-10-03T14:56:42.284Z</time>
      </trkpt>
      <trkpt lat="48.88048" lon="1.99973">
        <ele>178</ele>
        <time>2022-10-03T14:56:47.284Z</time>
      </trkpt>
      <trkpt lat="48.88053" lon="1.99981">
        <ele>178</ele>
        <time>2022-10-03T14:56:52.279Z</time>
      </trkpt>
      <trkpt lat="48.88055" lon="1.99989">
        <ele>178</ele>
        <time>2022-10-03T14:56:56.294Z</time>
      </trkpt>
      <trkpt lat="48.88059" lon="1.99997">
        <ele>178</ele>
        <time>2022-10-03T14:57:01.293Z</time>
      </trkpt>
      <trkpt lat="48.88063" lon="2.00003">
        <ele>178</ele>
        <time>2022-10-03T14:57:05.273Z</time>
      </trkpt>
      <trkpt lat="48.88068" lon="2.0001">
        <ele>178</ele>
        <time>2022-10-03T14:57:10.247Z</time>
      </trkpt>
      <trkpt lat="48.88071" lon="2.00016">
        <ele>180</ele>
        <time>2022-10-03T14:57:14.286Z</time>
      </trkpt>
      <trkpt lat="48.88074" lon="2.00021">
        <ele>180</ele>
        <time>2022-10-03T14:57:19.294Z</time>
      </trkpt>
      <trkpt lat="48.88078" lon="2.00029">
        <ele>180</ele>
        <time>2022-10-03T14:57:24.309Z</time>
      </trkpt>
      <trkpt lat="48.88082" lon="2.00038">
        <ele>180</ele>
        <time>2022-10-03T14:57:29.291Z</time>
      </trkpt>
      <trkpt lat="48.88086" lon="2.00043">
        <ele>180</ele>
        <time>2022-10-03T14:57:33.299Z</time>
      </trkpt>
      <trkpt lat="48.88092" lon="2.0005">
        <ele>180</ele>
        <time>2022-10-03T14:57:38.294Z</time>
      </trkpt>
      <trkpt lat="48.88097" lon="2.00056">
        <ele>185</ele>
        <time>2022-10-03T14:57:43.281Z</time>
      </trkpt>
      <trkpt lat="48.88101" lon="2.00061">
        <ele>185</ele>
        <time>2022-10-03T14:57:47.303Z</time>
      </trkpt>
      <trkpt lat="48.88099" lon="2.00068">
        <ele>185</ele>
        <time>2022-10-03T14:57:52.295Z</time>
      </trkpt>
      <trkpt lat="48.88099" lon="2.00071">
        <ele>184</ele>
        <time>2022-10-03T14:58:10.274Z</time>
      </trkpt>
      <trkpt lat="48.88099" lon="2.00071">
        <ele>184</ele>
        <time>2022-10-03T14:58:15.272Z</time>
      </trkpt>
      <trkpt lat="48.88098" lon="2.00075">
        <ele>184</ele>
        <time>2022-10-03T14:58:20.281Z</time>
      </trkpt>
      <trkpt lat="48.88098" lon="2.00076">
        <ele>184</ele>
        <time>2022-10-03T14:58:24.282Z</time>
      </trkpt>
      <trkpt lat="48.88096" lon="2.00085">
        <ele>180</ele>
        <time>2022-10-03T14:58:29.245Z</time>
      </trkpt>
      <trkpt lat="48.88095" lon="2.00092">
        <ele>180</ele>
        <time>2022-10-03T14:58:33.254Z</time>
      </trkpt>
      <trkpt lat="48.88095" lon="2.001">
        <ele>181</ele>
        <time>2022-10-03T14:58:38.245Z</time>
      </trkpt>
      <trkpt lat="48.88093" lon="2.00106">
        <ele>181</ele>
        <time>2022-10-03T14:58:42.273Z</time>
      </trkpt>
      <trkpt lat="48.88095" lon="2.00111">
        <ele>181</ele>
        <time>2022-10-03T14:58:46.285Z</time>
      </trkpt>
      <trkpt lat="48.88099" lon="2.00113">
        <ele>184</ele>
        <time>2022-10-03T14:58:50.276Z</time>
      </trkpt>
      <trkpt lat="48.88104" lon="2.00119">
        <ele>184</ele>
        <time>2022-10-03T14:58:55.250Z</time>
      </trkpt>
      <trkpt lat="48.88107" lon="2.00124">
        <ele>184</ele>
        <time>2022-10-03T14:58:59.282Z</time>
      </trkpt>
      <trkpt lat="48.88112" lon="2.00127">
        <ele>184</ele>
        <time>2022-10-03T14:59:04.271Z</time>
      </trkpt>
      <trkpt lat="48.88118" lon="2.00129">
        <ele>184</ele>
        <time>2022-10-03T14:59:08.260Z</time>
      </trkpt>
      <trkpt lat="48.88123" lon="2.00135">
        <ele>184</ele>
        <time>2022-10-03T14:59:12.289Z</time>
      </trkpt>
      <trkpt lat="48.88127" lon="2.00138">
        <ele>187</ele>
        <time>2022-10-03T14:59:16.304Z</time>
      </trkpt>
      <trkpt lat="48.88132" lon="2.00139">
        <ele>187</ele>
        <time>2022-10-03T14:59:21.284Z</time>
      </trkpt>
      <trkpt lat="48.88138" lon="2.00144">
        <ele>187</ele>
        <time>2022-10-03T14:59:26.274Z</time>
      </trkpt>
      <trkpt lat="48.88143" lon="2.00151">
        <ele>187</ele>
        <time>2022-10-03T14:59:31.253Z</time>
      </trkpt>
      <trkpt lat="48.88148" lon="2.00159">
        <ele>186</ele>
        <time>2022-10-03T14:59:35.291Z</time>
      </trkpt>
      <trkpt lat="48.8815" lon="2.00164">
        <ele>186</ele>
        <time>2022-10-03T14:59:39.310Z</time>
      </trkpt>
      <trkpt lat="48.88152" lon="2.00171">
        <ele>186</ele>
        <time>2022-10-03T14:59:44.270Z</time>
      </trkpt>
      <trkpt lat="48.88154" lon="2.00177">
        <ele>189</ele>
        <time>2022-10-03T14:59:49.305Z</time>
      </trkpt>
      <trkpt lat="48.88158" lon="2.00182">
        <ele>189</ele>
        <time>2022-10-03T14:59:54.249Z</time>
      </trkpt>
      <trkpt lat="48.88161" lon="2.00188">
        <ele>189</ele>
        <time>2022-10-03T14:59:58.285Z</time>
      </trkpt>
      <trkpt lat="48.88166" lon="2.00196">
        <ele>189</ele>
        <time>2022-10-03T15:00:03.257Z</time>
      </trkpt>
      <trkpt lat="48.88172" lon="2.002">
        <ele>189</ele>
        <time>2022-10-03T15:00:07.294Z</time>
      </trkpt>
      <trkpt lat="48.88177" lon="2.00208">
        <ele>189</ele>
        <time>2022-10-03T15:00:12.278Z</time>
      </trkpt>
      <trkpt lat="48.88181" lon="2.00214">
        <ele>188</ele>
        <time>2022-10-03T15:00:16.297Z</time>
      </trkpt>
      <trkpt lat="48.88185" lon="2.00222">
        <ele>188</ele>
        <time>2022-10-03T15:00:21.297Z</time>
      </trkpt>
      <trkpt lat="48.88187" lon="2.00231">
        <ele>188</ele>
        <time>2022-10-03T15:00:26.261Z</time>
      </trkpt>
      <trkpt lat="48.88191" lon="2.00237">
        <ele>187</ele>
        <time>2022-10-03T15:00:30.283Z</time>
      </trkpt>
      <trkpt lat="48.88195" lon="2.00244">
        <ele>187</ele>
        <time>2022-10-03T15:00:35.295Z</time>
      </trkpt>
      <trkpt lat="48.882" lon="2.00253">
        <ele>187</ele>
        <time>2022-10-03T15:00:40.277Z</time>
      </trkpt>
      <trkpt lat="48.88203" lon="2.00259">
        <ele>187</ele>
        <time>2022-10-03T15:00:44.281Z</time>
      </trkpt>
      <trkpt lat="48.88207" lon="2.00268">
        <ele>188</ele>
        <time>2022-10-03T15:00:49.273Z</time>
      </trkpt>
      <trkpt lat="48.88209" lon="2.00275">
        <ele>190</ele>
        <time>2022-10-03T15:00:53.289Z</time>
      </trkpt>
      <trkpt lat="48.88214" lon="2.00284">
        <ele>190</ele>
        <time>2022-10-03T15:00:58.283Z</time>
      </trkpt>
      <trkpt lat="48.8822" lon="2.00291">
        <ele>190</ele>
        <time>2022-10-03T15:01:03.285Z</time>
      </trkpt>
      <trkpt lat="48.88222" lon="2.00297">
        <ele>192</ele>
        <time>2022-10-03T15:01:07.302Z</time>
      </trkpt>
      <trkpt lat="48.88226" lon="2.00304">
        <ele>192</ele>
        <time>2022-10-03T15:01:12.264Z</time>
      </trkpt>
      <trkpt lat="48.8823" lon="2.00308">
        <ele>192</ele>
        <time>2022-10-03T15:01:16.297Z</time>
      </trkpt>
      <trkpt lat="48.88233" lon="2.00314">
        <ele>192</ele>
        <time>2022-10-03T15:01:21.290Z</time>
      </trkpt>
      <trkpt lat="48.88236" lon="2.0032">
        <ele>192</ele>
        <time>2022-10-03T15:01:25.305Z</time>
      </trkpt>
      <trkpt lat="48.88241" lon="2.00329">
        <ele>192</ele>
        <time>2022-10-03T15:01:30.293Z</time>
      </trkpt>
      <trkpt lat="48.88245" lon="2.00339">
        <ele>192</ele>
        <time>2022-10-03T15:01:35.290Z</time>
      </trkpt>
      <trkpt lat="48.88248" lon="2.00346">
        <ele>192</ele>
        <time>2022-10-03T15:01:40.281Z</time>
      </trkpt>
      <trkpt lat="48.88251" lon="2.00353">
        <ele>192</ele>
        <time>2022-10-03T15:01:45.277Z</time>
      </trkpt>
      <trkpt lat="48.88253" lon="2.00354">
        <ele>192</ele>
        <time>2022-10-03T15:01:49.291Z</time>
      </trkpt>
      <trkpt lat="48.88253" lon="2.00354">
        <ele>192</ele>
        <time>2022-10-03T15:01:53.290Z</time>
      </trkpt>
      <trkpt lat="48.88255" lon="2.00354">
        <ele>192</ele>
        <time>2022-10-03T15:01:57.297Z</time>
      </trkpt>
      <trkpt lat="48.88257" lon="2.0036">
        <ele>192</ele>
        <time>2022-10-03T15:02:02.289Z</time>
      </trkpt>
      <trkpt lat="48.8826" lon="2.00368">
        <ele>192</ele>
        <time>2022-10-03T15:02:07.297Z</time>
      </trkpt>
      <trkpt lat="48.88264" lon="2.00375">
        <ele>192</ele>
        <time>2022-10-03T15:02:12.284Z</time>
      </trkpt>
      <trkpt lat="48.88267" lon="2.0038">
        <ele>193</ele>
        <time>2022-10-03T15:02:16.291Z</time>
      </trkpt>
      <trkpt lat="48.88271" lon="2.00386">
        <ele>193</ele>
        <time>2022-10-03T15:02:21.290Z</time>
      </trkpt>
      <trkpt lat="48.88275" lon="2.00392">
        <ele>193</ele>
        <time>2022-10-03T15:02:26.293Z</time>
      </trkpt>
      <trkpt lat="48.88278" lon="2.00397">
        <ele>193</ele>
        <time>2022-10-03T15:02:30.301Z</time>
      </trkpt>
      <trkpt lat="48.88281" lon="2.00404">
        <ele>193</ele>
        <time>2022-10-03T15:02:35.282Z</time>
      </trkpt>
      <trkpt lat="48.88285" lon="2.0041">
        <ele>193</ele>
        <time>2022-10-03T15:02:39.288Z</time>
      </trkpt>
      <trkpt lat="48.88291" lon="2.00417">
        <ele>193</ele>
        <time>2022-10-03T15:02:43.302Z</time>
      </trkpt>
      <trkpt lat="48.88294" lon="2.00422">
        <ele>193</ele>
        <time>2022-10-03T15:02:47.300Z</time>
      </trkpt>
      <trkpt lat="48.88297" lon="2.00427">
        <ele>193</ele>
        <time>2022-10-03T15:02:51.301Z</time>
      </trkpt>
      <trkpt lat="48.88301" lon="2.00433">
        <ele>194</ele>
        <time>2022-10-03T15:02:56.296Z</time>
      </trkpt>
      <trkpt lat="48.88303" lon="2.00441">
        <ele>194</ele>
        <time>2022-10-03T15:03:01.296Z</time>
      </trkpt>
      <trkpt lat="48.88306" lon="2.00446">
        <ele>194</ele>
        <time>2022-10-03T15:03:05.311Z</time>
      </trkpt>
      <trkpt lat="48.88312" lon="2.00453">
        <ele>194</ele>
        <time>2022-10-03T15:03:10.293Z</time>
      </trkpt>
      <trkpt lat="48.88316" lon="2.00459">
        <ele>194</ele>
        <time>2022-10-03T15:03:14.300Z</time>
      </trkpt>
      <trkpt lat="48.88319" lon="2.00466">
        <ele>194</ele>
        <time>2022-10-03T15:03:19.297Z</time>
      </trkpt>
      <trkpt lat="48.88324" lon="2.00475">
        <ele>194</ele>
        <time>2022-10-03T15:03:24.291Z</time>
      </trkpt>
      <trkpt lat="48.88329" lon="2.00483">
        <ele>194</ele>
        <time>2022-10-03T15:03:29.289Z</time>
      </trkpt>
      <trkpt lat="48.88331" lon="2.0049">
        <ele>193</ele>
        <time>2022-10-03T15:03:33.302Z</time>
      </trkpt>
      <trkpt lat="48.88334" lon="2.00498">
        <ele>193</ele>
        <time>2022-10-03T15:03:38.274Z</time>
      </trkpt>
      <trkpt lat="48.88337" lon="2.00503">
        <ele>193</ele>
        <time>2022-10-03T15:03:42.284Z</time>
      </trkpt>
      <trkpt lat="48.88342" lon="2.00508">
        <ele>193</ele>
        <time>2022-10-03T15:03:47.270Z</time>
      </trkpt>
      <trkpt lat="48.88346" lon="2.00514">
        <ele>194</ele>
        <time>2022-10-03T15:03:51.289Z</time>
      </trkpt>
      <trkpt lat="48.88348" lon="2.00522">
        <ele>193</ele>
        <time>2022-10-03T15:03:56.277Z</time>
      </trkpt>
      <trkpt lat="48.88352" lon="2.00527">
        <ele>193</ele>
        <time>2022-10-03T15:04:00.278Z</time>
      </trkpt>
      <trkpt lat="48.88355" lon="2.00535">
        <ele>193</ele>
        <time>2022-10-03T15:04:04.285Z</time>
      </trkpt>
      <trkpt lat="48.88358" lon="2.00544">
        <ele>193</ele>
        <time>2022-10-03T15:04:09.286Z</time>
      </trkpt>
      <trkpt lat="48.88362" lon="2.00552">
        <ele>193</ele>
        <time>2022-10-03T15:04:14.297Z</time>
      </trkpt>
      <trkpt lat="48.88366" lon="2.00559">
        <ele>193</ele>
        <time>2022-10-03T15:04:19.282Z</time>
      </trkpt>
      <trkpt lat="48.88368" lon="2.00564">
        <ele>193</ele>
        <time>2022-10-03T15:04:23.288Z</time>
      </trkpt>
      <trkpt lat="48.88372" lon="2.0057">
        <ele>192</ele>
        <time>2022-10-03T15:04:28.284Z</time>
      </trkpt>
      <trkpt lat="48.88376" lon="2.00574">
        <ele>192</ele>
        <time>2022-10-03T15:04:32.282Z</time>
      </trkpt>
      <trkpt lat="48.88378" lon="2.00579">
        <ele>192</ele>
        <time>2022-10-03T15:04:36.311Z</time>
      </trkpt>
      <trkpt lat="48.88384" lon="2.00586">
        <ele>192</ele>
        <time>2022-10-03T15:04:41.254Z</time>
      </trkpt>
      <trkpt lat="48.88388" lon="2.0059">
        <ele>192</ele>
        <time>2022-10-03T15:04:45.299Z</time>
      </trkpt>
      <trkpt lat="48.88392" lon="2.00597">
        <ele>192</ele>
        <time>2022-10-03T15:04:49.299Z</time>
      </trkpt>
      <trkpt lat="48.88395" lon="2.00605">
        <ele>190</ele>
        <time>2022-10-03T15:04:54.295Z</time>
      </trkpt>
      <trkpt lat="48.88397" lon="2.00613">
        <ele>190</ele>
        <time>2022-10-03T15:04:59.297Z</time>
      </trkpt>
      <trkpt lat="48.88403" lon="2.00616">
        <ele>190</ele>
        <time>2022-10-03T15:05:04.280Z</time>
      </trkpt>
      <trkpt lat="48.88406" lon="2.00624">
        <ele>190</ele>
        <time>2022-10-03T15:05:08.273Z</time>
      </trkpt>
      <trkpt lat="48.88409" lon="2.00631">
        <ele>189</ele>
        <time>2022-10-03T15:05:12.273Z</time>
      </trkpt>
      <trkpt lat="48.88413" lon="2.00635">
        <ele>189</ele>
        <time>2022-10-03T15:05:16.277Z</time>
      </trkpt>
      <trkpt lat="48.88418" lon="2.00643">
        <ele>189</ele>
        <time>2022-10-03T15:05:21.274Z</time>
      </trkpt>
      <trkpt lat="48.8842" lon="2.00649">
        <ele>189</ele>
        <time>2022-10-03T15:05:25.304Z</time>
      </trkpt>
      <trkpt lat="48.88424" lon="2.00655">
        <ele>190</ele>
        <time>2022-10-03T15:05:30.282Z</time>
      </trkpt>
      <trkpt lat="48.88428" lon="2.00662">
        <ele>190</ele>
        <time>2022-10-03T15:05:34.296Z</time>
      </trkpt>
      <trkpt lat="48.88433" lon="2.00671">
        <ele>189</ele>
        <time>2022-10-03T15:05:39.289Z</time>
      </trkpt>
      <trkpt lat="48.88437" lon="2.00678">
        <ele>189</ele>
        <time>2022-10-03T15:05:43.291Z</time>
      </trkpt>
      <trkpt lat="48.88441" lon="2.00685">
        <ele>191</ele>
        <time>2022-10-03T15:05:47.310Z</time>
      </trkpt>
      <trkpt lat="48.88444" lon="2.00693">
        <ele>191</ele>
        <time>2022-10-03T15:05:52.298Z</time>
      </trkpt>
      <trkpt lat="48.88446" lon="2.00697">
        <ele>191</ele>
        <time>2022-10-03T15:05:56.308Z</time>
      </trkpt>
      <trkpt lat="48.88448" lon="2.00704">
        <ele>191</ele>
        <time>2022-10-03T15:06:01.326Z</time>
      </trkpt>
      <trkpt lat="48.8845" lon="2.00712">
        <ele>191</ele>
        <time>2022-10-03T15:06:06.273Z</time>
      </trkpt>
      <trkpt lat="48.88454" lon="2.00714">
        <ele>191</ele>
        <time>2022-10-03T15:06:10.283Z</time>
      </trkpt>
      <trkpt lat="48.88458" lon="2.00719">
        <ele>188</ele>
        <time>2022-10-03T15:06:14.289Z</time>
      </trkpt>
      <trkpt lat="48.88461" lon="2.00725">
        <ele>188</ele>
        <time>2022-10-03T15:06:19.299Z</time>
      </trkpt>
      <trkpt lat="48.88465" lon="2.00731">
        <ele>188</ele>
        <time>2022-10-03T15:06:24.292Z</time>
      </trkpt>
      <trkpt lat="48.88469" lon="2.00736">
        <ele>188</ele>
        <time>2022-10-03T15:06:29.269Z</time>
      </trkpt>
      <trkpt lat="48.88473" lon="2.00742">
        <ele>188</ele>
        <time>2022-10-03T15:06:34.256Z</time>
      </trkpt>
      <trkpt lat="48.88475" lon="2.00748">
        <ele>188</ele>
        <time>2022-10-03T15:06:38.271Z</time>
      </trkpt>
      <trkpt lat="48.88478" lon="2.00755">
        <ele>188</ele>
        <time>2022-10-03T15:06:42.290Z</time>
      </trkpt>
      <trkpt lat="48.8848" lon="2.00763">
        <ele>188</ele>
        <time>2022-10-03T15:06:47.299Z</time>
      </trkpt>
      <trkpt lat="48.88483" lon="2.00772">
        <ele>187</ele>
        <time>2022-10-03T15:06:52.290Z</time>
      </trkpt>
      <trkpt lat="48.88487" lon="2.00779">
        <ele>188</ele>
        <time>2022-10-03T15:06:57.289Z</time>
      </trkpt>
      <trkpt lat="48.8849" lon="2.00785">
        <ele>188</ele>
        <time>2022-10-03T15:07:02.265Z</time>
      </trkpt>
      <trkpt lat="48.88495" lon="2.00791">
        <ele>188</ele>
        <time>2022-10-03T15:07:07.282Z</time>
      </trkpt>
      <trkpt lat="48.88498" lon="2.00796">
        <ele>188</ele>
        <time>2022-10-03T15:07:12.291Z</time>
      </trkpt>
      <trkpt lat="48.88502" lon="2.00805">
        <ele>188</ele>
        <time>2022-10-03T15:07:17.299Z</time>
      </trkpt>
      <trkpt lat="48.88506" lon="2.00813">
        <ele>188</ele>
        <time>2022-10-03T15:07:22.269Z</time>
      </trkpt>
      <trkpt lat="48.88511" lon="2.0082">
        <ele>188</ele>
        <time>2022-10-03T15:07:27.279Z</time>
      </trkpt>
      <trkpt lat="48.88517" lon="2.00829">
        <ele>187</ele>
        <time>2022-10-03T15:07:32.261Z</time>
      </trkpt>
      <trkpt lat="48.88521" lon="2.00835">
        <ele>187</ele>
        <time>2022-10-03T15:07:37.260Z</time>
      </trkpt>
      <trkpt lat="48.88525" lon="2.00841">
        <ele>187</ele>
        <time>2022-10-03T15:07:42.270Z</time>
      </trkpt>
      <trkpt lat="48.88529" lon="2.00847">
        <ele>186</ele>
        <time>2022-10-03T15:07:47.292Z</time>
      </trkpt>
      <trkpt lat="48.88534" lon="2.00854">
        <ele>186</ele>
        <time>2022-10-03T15:07:51.303Z</time>
      </trkpt>
      <trkpt lat="48.88539" lon="2.00863">
        <ele>186</ele>
        <time>2022-10-03T15:07:56.313Z</time>
      </trkpt>
      <trkpt lat="48.88544" lon="2.00871">
        <ele>183</ele>
        <time>2022-10-03T15:08:01.305Z</time>
      </trkpt>
      <trkpt lat="48.88548" lon="2.00877">
        <ele>182</ele>
        <time>2022-10-03T15:08:06.286Z</time>
      </trkpt>
      <trkpt lat="48.88552" lon="2.00883">
        <ele>182</ele>
        <time>2022-10-03T15:08:10.299Z</time>
      </trkpt>
      <trkpt lat="48.88555" lon="2.00893">
        <ele>182</ele>
        <time>2022-10-03T15:08:15.296Z</time>
      </trkpt>
      <trkpt lat="48.88558" lon="2.00898">
        <ele>182</ele>
        <time>2022-10-03T15:08:19.302Z</time>
      </trkpt>
      <trkpt lat="48.88561" lon="2.00903">
        <ele>183</ele>
        <time>2022-10-03T15:08:23.296Z</time>
      </trkpt>
      <trkpt lat="48.88566" lon="2.0091">
        <ele>183</ele>
        <time>2022-10-03T15:08:28.303Z</time>
      </trkpt>
      <trkpt lat="48.88569" lon="2.00919">
        <ele>179</ele>
        <time>2022-10-03T15:08:33.275Z</time>
      </trkpt>
      <trkpt lat="48.88574" lon="2.00926">
        <ele>179</ele>
        <time>2022-10-03T15:08:37.299Z</time>
      </trkpt>
      <trkpt lat="48.88577" lon="2.00934">
        <ele>179</ele>
        <time>2022-10-03T15:08:42.299Z</time>
      </trkpt>
      <trkpt lat="48.88579" lon="2.00938">
        <ele>179</ele>
        <time>2022-10-03T15:08:46.279Z</time>
      </trkpt>
      <trkpt lat="48.88584" lon="2.00942">
        <ele>179</ele>
        <time>2022-10-03T15:08:51.290Z</time>
      </trkpt>
      <trkpt lat="48.88589" lon="2.00943">
        <ele>179</ele>
        <time>2022-10-03T15:08:55.301Z</time>
      </trkpt>
      <trkpt lat="48.88593" lon="2.00941">
        <ele>179</ele>
        <time>2022-10-03T15:08:59.316Z</time>
      </trkpt>
      <trkpt lat="48.88597" lon="2.00943">
        <ele>179</ele>
        <time>2022-10-03T15:09:04.295Z</time>
      </trkpt>
      <trkpt lat="48.88604" lon="2.00947">
        <ele>176</ele>
        <time>2022-10-03T15:09:09.300Z</time>
      </trkpt>
      <trkpt lat="48.88609" lon="2.0095">
        <ele>176</ele>
        <time>2022-10-03T15:09:14.305Z</time>
      </trkpt>
      <trkpt lat="48.88614" lon="2.00952">
        <ele>176</ele>
        <time>2022-10-03T15:09:19.254Z</time>
      </trkpt>
      <trkpt lat="48.88619" lon="2.00955">
        <ele>176</ele>
        <time>2022-10-03T15:09:23.285Z</time>
      </trkpt>
      <trkpt lat="48.88624" lon="2.00959">
        <ele>175</ele>
        <time>2022-10-03T15:09:27.314Z</time>
      </trkpt>
      <trkpt lat="48.88631" lon="2.00967">
        <ele>174</ele>
        <time>2022-10-03T15:09:32.269Z</time>
      </trkpt>
      <trkpt lat="48.88636" lon="2.00973">
        <ele>174</ele>
        <time>2022-10-03T15:09:36.307Z</time>
      </trkpt>
      <trkpt lat="48.88642" lon="2.00981">
        <ele>174</ele>
        <time>2022-10-03T15:09:41.274Z</time>
      </trkpt>
      <trkpt lat="48.88646" lon="2.00986">
        <ele>174</ele>
        <time>2022-10-03T15:09:45.292Z</time>
      </trkpt>
      <trkpt lat="48.88645" lon="2.00989">
        <ele>174</ele>
        <time>2022-10-03T15:09:49.318Z</time>
      </trkpt>
      <trkpt lat="48.88644" lon="2.00996">
        <ele>174</ele>
        <time>2022-10-03T15:09:54.287Z</time>
      </trkpt>
      <trkpt lat="48.88641" lon="2.01006">
        <ele>174</ele>
        <time>2022-10-03T15:09:59.290Z</time>
      </trkpt>
      <trkpt lat="48.8864" lon="2.01013">
        <ele>174</ele>
        <time>2022-10-03T15:10:03.289Z</time>
      </trkpt>
      <trkpt lat="48.88638" lon="2.01021">
        <ele>176</ele>
        <time>2022-10-03T15:10:07.297Z</time>
      </trkpt>
      <trkpt lat="48.88636" lon="2.01031">
        <ele>176</ele>
        <time>2022-10-03T15:10:12.295Z</time>
      </trkpt>
      <trkpt lat="48.88634" lon="2.01041">
        <ele>176</ele>
        <time>2022-10-03T15:10:17.288Z</time>
      </trkpt>
      <trkpt lat="48.88631" lon="2.01052">
        <ele>177</ele>
        <time>2022-10-03T15:10:22.286Z</time>
      </trkpt>
      <trkpt lat="48.8863" lon="2.01062">
        <ele>177</ele>
        <time>2022-10-03T15:10:27.290Z</time>
      </trkpt>
      <trkpt lat="48.88629" lon="2.0107">
        <ele>179</ele>
        <time>2022-10-03T15:10:32.304Z</time>
      </trkpt>
      <trkpt lat="48.88627" lon="2.0108">
        <ele>179</ele>
        <time>2022-10-03T15:10:37.298Z</time>
      </trkpt>
      <trkpt lat="48.88627" lon="2.01089">
        <ele>179</ele>
        <time>2022-10-03T15:10:41.295Z</time>
      </trkpt>
      <trkpt lat="48.88628" lon="2.011">
        <ele>179</ele>
        <time>2022-10-03T15:10:46.302Z</time>
      </trkpt>
      <trkpt lat="48.88627" lon="2.0111">
        <ele>179</ele>
        <time>2022-10-03T15:10:51.306Z</time>
      </trkpt>
      <trkpt lat="48.88626" lon="2.01121">
        <ele>179</ele>
        <time>2022-10-03T15:10:56.272Z</time>
      </trkpt>
      <trkpt lat="48.88626" lon="2.0113">
        <ele>179</ele>
        <time>2022-10-03T15:11:00.278Z</time>
      </trkpt>
      <trkpt lat="48.88625" lon="2.01141">
        <ele>179</ele>
        <time>2022-10-03T15:11:05.277Z</time>
      </trkpt>
      <trkpt lat="48.88625" lon="2.01149">
        <ele>179</ele>
        <time>2022-10-03T15:11:09.318Z</time>
      </trkpt>
      <trkpt lat="48.88625" lon="2.01157">
        <ele>179</ele>
        <time>2022-10-03T15:11:13.311Z</time>
      </trkpt>
      <trkpt lat="48.88624" lon="2.01166">
        <ele>179</ele>
        <time>2022-10-03T15:11:17.313Z</time>
      </trkpt>
      <trkpt lat="48.88625" lon="2.01177">
        <ele>179</ele>
        <time>2022-10-03T15:11:22.299Z</time>
      </trkpt>
      <trkpt lat="48.88624" lon="2.01187">
        <ele>177</ele>
        <time>2022-10-03T15:11:27.291Z</time>
      </trkpt>
      <trkpt lat="48.88623" lon="2.01195">
        <ele>177</ele>
        <time>2022-10-03T15:11:31.303Z</time>
      </trkpt>
      <trkpt lat="48.88623" lon="2.01206">
        <ele>177</ele>
        <time>2022-10-03T15:11:36.304Z</time>
      </trkpt>
      <trkpt lat="48.88623" lon="2.01216">
        <ele>174</ele>
        <time>2022-10-03T15:11:41.291Z</time>
      </trkpt>
      <trkpt lat="48.88622" lon="2.01224">
        <ele>174</ele>
        <time>2022-10-03T15:11:46.274Z</time>
      </trkpt>
      <trkpt lat="48.88619" lon="2.01233">
        <ele>174</ele>
        <time>2022-10-03T15:11:51.270Z</time>
      </trkpt>
      <trkpt lat="48.88617" lon="2.01239">
        <ele>174</ele>
        <time>2022-10-03T15:11:56.272Z</time>
      </trkpt>
      <trkpt lat="48.88617" lon="2.01244">
        <ele>174</ele>
        <time>2022-10-03T15:12:01.265Z</time>
      </trkpt>
      <trkpt lat="48.8862" lon="2.01256">
        <ele>174</ele>
        <time>2022-10-03T15:12:06.276Z</time>
      </trkpt>
      <trkpt lat="48.8862" lon="2.01269">
        <ele>171</ele>
        <time>2022-10-03T15:12:10.277Z</time>
      </trkpt>
      <trkpt lat="48.88619" lon="2.0128">
        <ele>171</ele>
        <time>2022-10-03T15:12:14.294Z</time>
      </trkpt>
      <trkpt lat="48.88618" lon="2.01291">
        <ele>171</ele>
        <time>2022-10-03T15:12:19.307Z</time>
      </trkpt>
      <trkpt lat="48.88615" lon="2.01301">
        <ele>169</ele>
        <time>2022-10-03T15:12:24.251Z</time>
      </trkpt>
      <trkpt lat="48.88612" lon="2.01309">
        <ele>169</ele>
        <time>2022-10-03T15:12:28.289Z</time>
      </trkpt>
      <trkpt lat="48.88607" lon="2.01318">
        <ele>169</ele>
        <time>2022-10-03T15:12:33.287Z</time>
      </trkpt>
      <trkpt lat="48.88602" lon="2.01327">
        <ele>167</ele>
        <time>2022-10-03T15:12:38.295Z</time>
      </trkpt>
      <trkpt lat="48.88598" lon="2.01335">
        <ele>167</ele>
        <time>2022-10-03T15:12:43.255Z</time>
      </trkpt>
      <trkpt lat="48.88594" lon="2.0134">
        <ele>168</ele>
        <time>2022-10-03T15:12:47.296Z</time>
      </trkpt>
      <trkpt lat="48.8859" lon="2.01347">
        <ele>168</ele>
        <time>2022-10-03T15:12:51.302Z</time>
      </trkpt>
      <trkpt lat="48.88587" lon="2.01352">
        <ele>166</ele>
        <time>2022-10-03T15:12:55.307Z</time>
      </trkpt>
      <trkpt lat="48.88582" lon="2.01356">
        <ele>166</ele>
        <time>2022-10-03T15:12:59.305Z</time>
      </trkpt>
      <trkpt lat="48.88576" lon="2.01362">
        <ele>166</ele>
        <time>2022-10-03T15:13:04.303Z</time>
      </trkpt>
      <trkpt lat="48.88572" lon="2.01368">
        <ele>166</ele>
        <time>2022-10-03T15:13:09.314Z</time>
      </trkpt>
      <trkpt lat="48.88567" lon="2.01375">
        <ele>170</ele>
        <time>2022-10-03T15:13:14.307Z</time>
      </trkpt>
      <trkpt lat="48.88561" lon="2.01381">
        <ele>170</ele>
        <time>2022-10-03T15:13:19.309Z</time>
      </trkpt>
      <trkpt lat="48.88556" lon="2.01386">
        <ele>170</ele>
        <time>2022-10-03T15:13:24.255Z</time>
      </trkpt>
      <trkpt lat="48.88551" lon="2.0139">
        <ele>170</ele>
        <time>2022-10-03T15:13:28.297Z</time>
      </trkpt>
      <trkpt lat="48.88547" lon="2.01394">
        <ele>170</ele>
        <time>2022-10-03T15:13:33.295Z</time>
      </trkpt>
      <trkpt lat="48.88543" lon="2.01399">
        <ele>170</ele>
        <time>2022-10-03T15:13:37.300Z</time>
      </trkpt>
      <trkpt lat="48.88538" lon="2.01407">
        <ele>174</ele>
        <time>2022-10-03T15:13:42.276Z</time>
      </trkpt>
      <trkpt lat="48.88532" lon="2.01412">
        <ele>174</ele>
        <time>2022-10-03T15:13:47.257Z</time>
      </trkpt>
      <trkpt lat="48.88526" lon="2.01417">
        <ele>174</ele>
        <time>2022-10-03T15:13:51.259Z</time>
      </trkpt>
      <trkpt lat="48.88523" lon="2.01421">
        <ele>174</ele>
        <time>2022-10-03T15:13:55.301Z</time>
      </trkpt>
      <trkpt lat="48.88518" lon="2.01426">
        <ele>174</ele>
        <time>2022-10-03T15:13:59.298Z</time>
      </trkpt>
      <trkpt lat="48.88512" lon="2.01432">
        <ele>177</ele>
        <time>2022-10-03T15:14:04.285Z</time>
      </trkpt>
      <trkpt lat="48.88507" lon="2.01436">
        <ele>177</ele>
        <time>2022-10-03T15:14:08.302Z</time>
      </trkpt>
      <trkpt lat="48.88502" lon="2.01439">
        <ele>177</ele>
        <time>2022-10-03T15:14:12.305Z</time>
      </trkpt>
      <trkpt lat="48.88496" lon="2.01445">
        <ele>177</ele>
        <time>2022-10-03T15:14:17.312Z</time>
      </trkpt>
      <trkpt lat="48.8849" lon="2.01449">
        <ele>177</ele>
        <time>2022-10-03T15:14:22.308Z</time>
      </trkpt>
      <trkpt lat="48.88485" lon="2.01455">
        <ele>178</ele>
        <time>2022-10-03T15:14:27.301Z</time>
      </trkpt>
      <trkpt lat="48.88479" lon="2.01461">
        <ele>178</ele>
        <time>2022-10-03T15:14:32.290Z</time>
      </trkpt>
      <trkpt lat="48.88474" lon="2.01467">
        <ele>178</ele>
        <time>2022-10-03T15:14:37.286Z</time>
      </trkpt>
      <trkpt lat="48.88469" lon="2.01471">
        <ele>178</ele>
        <time>2022-10-03T15:14:41.295Z</time>
      </trkpt>
      <trkpt lat="48.88464" lon="2.01476">
        <ele>178</ele>
        <time>2022-10-03T15:14:46.286Z</time>
      </trkpt>
      <trkpt lat="48.88458" lon="2.01482">
        <ele>179</ele>
        <time>2022-10-03T15:14:51.275Z</time>
      </trkpt>
      <trkpt lat="48.88454" lon="2.01489">
        <ele>178</ele>
        <time>2022-10-03T15:14:56.251Z</time>
      </trkpt>
      <trkpt lat="48.8845" lon="2.01494">
        <ele>178</ele>
        <time>2022-10-03T15:15:00.269Z</time>
      </trkpt>
      <trkpt lat="48.88447" lon="2.01501">
        <ele>178</ele>
        <time>2022-10-03T15:15:04.288Z</time>
      </trkpt>
      <trkpt lat="48.88443" lon="2.01508">
        <ele>178</ele>
        <time>2022-10-03T15:15:08.301Z</time>
      </trkpt>
      <trkpt lat="48.88438" lon="2.01516">
        <ele>177</ele>
        <time>2022-10-03T15:15:13.298Z</time>
      </trkpt>
      <trkpt lat="48.88434" lon="2.01525">
        <ele>177</ele>
        <time>2022-10-03T15:15:17.323Z</time>
      </trkpt>
      <trkpt lat="48.8843" lon="2.01535">
        <ele>179</ele>
        <time>2022-10-03T15:15:22.286Z</time>
      </trkpt>
      <trkpt lat="48.88427" lon="2.01544">
        <ele>179</ele>
        <time>2022-10-03T15:15:27.296Z</time>
      </trkpt>
      <trkpt lat="48.88424" lon="2.01552">
        <ele>179</ele>
        <time>2022-10-03T15:15:31.305Z</time>
      </trkpt>
      <trkpt lat="48.88421" lon="2.01562">
        <ele>179</ele>
        <time>2022-10-03T15:15:36.306Z</time>
      </trkpt>
      <trkpt lat="48.88418" lon="2.0157">
        <ele>178</ele>
        <time>2022-10-03T15:15:40.295Z</time>
      </trkpt>
      <trkpt lat="48.88414" lon="2.0158">
        <ele>178</ele>
        <time>2022-10-03T15:15:45.317Z</time>
      </trkpt>
      <trkpt lat="48.88411" lon="2.01591">
        <ele>178</ele>
        <time>2022-10-03T15:15:50.255Z</time>
      </trkpt>
      <trkpt lat="48.88409" lon="2.01596">
        <ele>178</ele>
        <time>2022-10-03T15:15:54.273Z</time>
      </trkpt>
      <trkpt lat="48.88407" lon="2.01603">
        <ele>178</ele>
        <time>2022-10-03T15:15:59.292Z</time>
      </trkpt>
      <trkpt lat="48.88403" lon="2.01609">
        <ele>178</ele>
        <time>2022-10-03T15:16:04.258Z</time>
      </trkpt>
      <trkpt lat="48.88401" lon="2.01617">
        <ele>179</ele>
        <time>2022-10-03T15:16:08.283Z</time>
      </trkpt>
      <trkpt lat="48.88397" lon="2.01625">
        <ele>178</ele>
        <time>2022-10-03T15:16:13.262Z</time>
      </trkpt>
      <trkpt lat="48.88393" lon="2.01633">
        <ele>178</ele>
        <time>2022-10-03T15:16:17.299Z</time>
      </trkpt>
      <trkpt lat="48.88388" lon="2.0164">
        <ele>178</ele>
        <time>2022-10-03T15:16:22.286Z</time>
      </trkpt>
      <trkpt lat="48.88383" lon="2.01647">
        <ele>178</ele>
        <time>2022-10-03T15:16:27.250Z</time>
      </trkpt>
      <trkpt lat="48.8838" lon="2.01657">
        <ele>177</ele>
        <time>2022-10-03T15:16:32.246Z</time>
      </trkpt>
      <trkpt lat="48.88377" lon="2.01662">
        <ele>177</ele>
        <time>2022-10-03T15:16:37.256Z</time>
      </trkpt>
      <trkpt lat="48.88373" lon="2.0167">
        <ele>179</ele>
        <time>2022-10-03T15:16:42.251Z</time>
      </trkpt>
      <trkpt lat="48.88373" lon="2.01677">
        <ele>179</ele>
        <time>2022-10-03T15:16:46.250Z</time>
      </trkpt>
      <trkpt lat="48.88374" lon="2.01684">
        <ele>178</ele>
        <time>2022-10-03T15:16:50.260Z</time>
      </trkpt>
      <trkpt lat="48.88373" lon="2.01694">
        <ele>178</ele>
        <time>2022-10-03T15:16:55.255Z</time>
      </trkpt>
      <trkpt lat="48.88371" lon="2.01703">
        <ele>178</ele>
        <time>2022-10-03T15:16:59.261Z</time>
      </trkpt>
      <trkpt lat="48.88368" lon="2.01713">
        <ele>177</ele>
        <time>2022-10-03T15:17:04.257Z</time>
      </trkpt>
      <trkpt lat="48.88365" lon="2.01719">
        <ele>177</ele>
        <time>2022-10-03T15:17:08.289Z</time>
      </trkpt>
      <trkpt lat="48.88362" lon="2.01726">
        <ele>177</ele>
        <time>2022-10-03T15:17:12.299Z</time>
      </trkpt>
      <trkpt lat="48.88359" lon="2.01737">
        <ele>176</ele>
        <time>2022-10-03T15:17:17.281Z</time>
      </trkpt>
      <trkpt lat="48.88355" lon="2.01745">
        <ele>176</ele>
        <time>2022-10-03T15:17:22.257Z</time>
      </trkpt>
      <trkpt lat="48.88353" lon="2.01751">
        <ele>176</ele>
        <time>2022-10-03T15:17:26.305Z</time>
      </trkpt>
      <trkpt lat="48.8835" lon="2.0176">
        <ele>176</ele>
        <time>2022-10-03T15:17:31.309Z</time>
      </trkpt>
      <trkpt lat="48.88347" lon="2.01769">
        <ele>176</ele>
        <time>2022-10-03T15:17:36.295Z</time>
      </trkpt>
      <trkpt lat="48.88344" lon="2.01778">
        <ele>176</ele>
        <time>2022-10-03T15:17:41.270Z</time>
      </trkpt>
      <trkpt lat="48.88342" lon="2.01785">
        <ele>176</ele>
        <time>2022-10-03T15:17:45.291Z</time>
      </trkpt>
      <trkpt lat="48.88339" lon="2.01795">
        <ele>174</ele>
        <time>2022-10-03T15:17:50.282Z</time>
      </trkpt>
      <trkpt lat="48.88336" lon="2.01804">
        <ele>174</ele>
        <time>2022-10-03T15:17:55.291Z</time>
      </trkpt>
      <trkpt lat="48.88333" lon="2.01811">
        <ele>174</ele>
        <time>2022-10-03T15:18:00.257Z</time>
      </trkpt>
      <trkpt lat="48.8833" lon="2.01818">
        <ele>174</ele>
        <time>2022-10-03T15:18:04.315Z</time>
      </trkpt>
      <trkpt lat="48.88326" lon="2.01825">
        <ele>170</ele>
        <time>2022-10-03T15:18:09.319Z</time>
      </trkpt>
      <trkpt lat="48.88323" lon="2.01833">
        <ele>170</ele>
        <time>2022-10-03T15:18:14.282Z</time>
      </trkpt>
      <trkpt lat="48.8832" lon="2.0184">
        <ele>170</ele>
        <time>2022-10-03T15:18:18.289Z</time>
      </trkpt>
      <trkpt lat="48.88317" lon="2.01848">
        <ele>167</ele>
        <time>2022-10-03T15:18:23.282Z</time>
      </trkpt>
      <trkpt lat="48.88314" lon="2.01856">
        <ele>167</ele>
        <time>2022-10-03T15:18:27.296Z</time>
      </trkpt>
      <trkpt lat="48.88312" lon="2.01863">
        <ele>167</ele>
        <time>2022-10-03T15:18:31.298Z</time>
      </trkpt>
      <trkpt lat="48.88307" lon="2.01872">
        <ele>167</ele>
        <time>2022-10-03T15:18:36.272Z</time>
      </trkpt>
      <trkpt lat="48.88305" lon="2.0188">
        <ele>164</ele>
        <time>2022-10-03T15:18:40.296Z</time>
      </trkpt>
      <trkpt lat="48.88303" lon="2.01886">
        <ele>164</ele>
        <time>2022-10-03T15:18:44.284Z</time>
      </trkpt>
      <trkpt lat="48.88302" lon="2.01891">
        <ele>164</ele>
        <time>2022-10-03T15:18:48.301Z</time>
      </trkpt>
      <trkpt lat="48.883" lon="2.01898">
        <ele>164</ele>
        <time>2022-10-03T15:18:53.283Z</time>
      </trkpt>
      <trkpt lat="48.88299" lon="2.01904">
        <ele>162</ele>
        <time>2022-10-03T15:18:57.298Z</time>
      </trkpt>
      <trkpt lat="48.88296" lon="2.01914">
        <ele>162</ele>
        <time>2022-10-03T15:19:02.297Z</time>
      </trkpt>
      <trkpt lat="48.88294" lon="2.01921">
        <ele>162</ele>
        <time>2022-10-03T15:19:06.291Z</time>
      </trkpt>
      <trkpt lat="48.8829" lon="2.0193">
        <ele>168</ele>
        <time>2022-10-03T15:19:11.287Z</time>
      </trkpt>
      <trkpt lat="48.88287" lon="2.0194">
        <ele>168</ele>
        <time>2022-10-03T15:19:16.277Z</time>
      </trkpt>
      <trkpt lat="48.88285" lon="2.01946">
        <ele>168</ele>
        <time>2022-10-03T15:19:20.291Z</time>
      </trkpt>
      <trkpt lat="48.88282" lon="2.01954">
        <ele>168</ele>
        <time>2022-10-03T15:19:25.296Z</time>
      </trkpt>
      <trkpt lat="48.88278" lon="2.01964">
        <ele>168</ele>
        <time>2022-10-03T15:19:30.305Z</time>
      </trkpt>
      <trkpt lat="48.88274" lon="2.01973">
        <ele>168</ele>
        <time>2022-10-03T15:19:35.296Z</time>
      </trkpt>
      <trkpt lat="48.88271" lon="2.01984">
        <ele>168</ele>
        <time>2022-10-03T15:19:40.273Z</time>
      </trkpt>
      <trkpt lat="48.88269" lon="2.01991">
        <ele>167</ele>
        <time>2022-10-03T15:19:44.295Z</time>
      </trkpt>
      <trkpt lat="48.88267" lon="2.01999">
        <ele>167</ele>
        <time>2022-10-03T15:19:49.275Z</time>
      </trkpt>
      <trkpt lat="48.88264" lon="2.02006">
        <ele>173</ele>
        <time>2022-10-03T15:19:53.297Z</time>
      </trkpt>
      <trkpt lat="48.8826" lon="2.02013">
        <ele>173</ele>
        <time>2022-10-03T15:19:57.297Z</time>
      </trkpt>
      <trkpt lat="48.88257" lon="2.02019">
        <ele>173</ele>
        <time>2022-10-03T15:20:01.303Z</time>
      </trkpt>
      <trkpt lat="48.88255" lon="2.02028">
        <ele>173</ele>
        <time>2022-10-03T15:20:06.288Z</time>
      </trkpt>
      <trkpt lat="48.88253" lon="2.02037">
        <ele>173</ele>
        <time>2022-10-03T15:20:11.299Z</time>
      </trkpt>
      <trkpt lat="48.88252" lon="2.02046">
        <ele>172</ele>
        <time>2022-10-03T15:20:16.263Z</time>
      </trkpt>
      <trkpt lat="48.8825" lon="2.02052">
        <ele>172</ele>
        <time>2022-10-03T15:20:21.270Z</time>
      </trkpt>
      <trkpt lat="48.88247" lon="2.02058">
        <ele>172</ele>
        <time>2022-10-03T15:20:25.273Z</time>
      </trkpt>
      <trkpt lat="48.88243" lon="2.02065">
        <ele>172</ele>
        <time>2022-10-03T15:20:29.274Z</time>
      </trkpt>
      <trkpt lat="48.8824" lon="2.02076">
        <ele>173</ele>
        <time>2022-10-03T15:20:34.262Z</time>
      </trkpt>
      <trkpt lat="48.88238" lon="2.02084">
        <ele>173</ele>
        <time>2022-10-03T15:20:39.260Z</time>
      </trkpt>
      <trkpt lat="48.88237" lon="2.02091">
        <ele>173</ele>
        <time>2022-10-03T15:20:43.264Z</time>
      </trkpt>
      <trkpt lat="48.88235" lon="2.02098">
        <ele>178</ele>
        <time>2022-10-03T15:20:48.249Z</time>
      </trkpt>
      <trkpt lat="48.88234" lon="2.02105">
        <ele>178</ele>
        <time>2022-10-03T15:20:52.262Z</time>
      </trkpt>
      <trkpt lat="48.88232" lon="2.02112">
        <ele>178</ele>
        <time>2022-10-03T15:20:56.262Z</time>
      </trkpt>
      <trkpt lat="48.88229" lon="2.0212">
        <ele>178</ele>
        <time>2022-10-03T15:21:00.267Z</time>
      </trkpt>
      <trkpt lat="48.88226" lon="2.02128">
        <ele>178</ele>
        <time>2022-10-03T15:21:05.255Z</time>
      </trkpt>
      <trkpt lat="48.88222" lon="2.02135">
        <ele>178</ele>
        <time>2022-10-03T15:21:09.260Z</time>
      </trkpt>
      <trkpt lat="48.88219" lon="2.02142">
        <ele>178</ele>
        <time>2022-10-03T15:21:13.275Z</time>
      </trkpt>
      <trkpt lat="48.88216" lon="2.0215">
        <ele>178</ele>
        <time>2022-10-03T15:21:17.265Z</time>
      </trkpt>
      <trkpt lat="48.88215" lon="2.02159">
        <ele>179</ele>
        <time>2022-10-03T15:21:22.261Z</time>
      </trkpt>
      <trkpt lat="48.88212" lon="2.02167">
        <ele>179</ele>
        <time>2022-10-03T15:21:27.256Z</time>
      </trkpt>
      <trkpt lat="48.8821" lon="2.02178">
        <ele>179</ele>
        <time>2022-10-03T15:21:32.257Z</time>
      </trkpt>
      <trkpt lat="48.88209" lon="2.02186">
        <ele>178</ele>
        <time>2022-10-03T15:21:36.268Z</time>
      </trkpt>
      <trkpt lat="48.88209" lon="2.02197">
        <ele>178</ele>
        <time>2022-10-03T15:21:41.248Z</time>
      </trkpt>
      <trkpt lat="48.88206" lon="2.02208">
        <ele>182</ele>
        <time>2022-10-03T15:21:46.254Z</time>
      </trkpt>
      <trkpt lat="48.88204" lon="2.02213">
        <ele>182</ele>
        <time>2022-10-03T15:21:50.258Z</time>
      </trkpt>
      <trkpt lat="48.882" lon="2.02219">
        <ele>182</ele>
        <time>2022-10-03T15:21:55.250Z</time>
      </trkpt>
      <trkpt lat="48.88198" lon="2.02221">
        <ele>182</ele>
        <time>2022-10-03T15:21:59.257Z</time>
      </trkpt>
      <trkpt lat="48.88197" lon="2.02226">
        <ele>182</ele>
        <time>2022-10-03T15:22:03.297Z</time>
      </trkpt>
      <trkpt lat="48.88194" lon="2.02233">
        <ele>182</ele>
        <time>2022-10-03T15:22:08.303Z</time>
      </trkpt>
      <trkpt lat="48.88193" lon="2.02243">
        <ele>181</ele>
        <time>2022-10-03T15:22:13.290Z</time>
      </trkpt>
      <trkpt lat="48.88191" lon="2.02251">
        <ele>181</ele>
        <time>2022-10-03T15:22:18.257Z</time>
      </trkpt>
      <trkpt lat="48.88189" lon="2.02258">
        <ele>181</ele>
        <time>2022-10-03T15:22:22.300Z</time>
      </trkpt>
      <trkpt lat="48.88185" lon="2.02265">
        <ele>180</ele>
        <time>2022-10-03T15:22:27.294Z</time>
      </trkpt>
      <trkpt lat="48.88181" lon="2.02274">
        <ele>180</ele>
        <time>2022-10-03T15:22:32.284Z</time>
      </trkpt>
      <trkpt lat="48.88176" lon="2.02282">
        <ele>182</ele>
        <time>2022-10-03T15:22:37.289Z</time>
      </trkpt>
      <trkpt lat="48.88173" lon="2.02293">
        <ele>182</ele>
        <time>2022-10-03T15:22:42.285Z</time>
      </trkpt>
      <trkpt lat="48.8817" lon="2.02301">
        <ele>182</ele>
        <time>2022-10-03T15:22:47.295Z</time>
      </trkpt>
      <trkpt lat="48.88168" lon="2.02309">
        <ele>182</ele>
        <time>2022-10-03T15:22:51.304Z</time>
      </trkpt>
      <trkpt lat="48.88165" lon="2.02318">
        <ele>182</ele>
        <time>2022-10-03T15:22:56.295Z</time>
      </trkpt>
      <trkpt lat="48.88162" lon="2.02326">
        <ele>183</ele>
        <time>2022-10-03T15:23:01.303Z</time>
      </trkpt>
      <trkpt lat="48.88159" lon="2.02333">
        <ele>183</ele>
        <time>2022-10-03T15:23:06.293Z</time>
      </trkpt>
      <trkpt lat="48.88159" lon="2.0234">
        <ele>183</ele>
        <time>2022-10-03T15:23:10.299Z</time>
      </trkpt>
      <trkpt lat="48.88158" lon="2.0235">
        <ele>184</ele>
        <time>2022-10-03T15:23:15.295Z</time>
      </trkpt>
      <trkpt lat="48.88155" lon="2.02358">
        <ele>184</ele>
        <time>2022-10-03T15:23:19.306Z</time>
      </trkpt>
      <trkpt lat="48.88151" lon="2.02366">
        <ele>188</ele>
        <time>2022-10-03T15:23:24.303Z</time>
      </trkpt>
      <trkpt lat="48.88149" lon="2.02374">
        <ele>188</ele>
        <time>2022-10-03T15:23:29.300Z</time>
      </trkpt>
      <trkpt lat="48.88147" lon="2.02383">
        <ele>187</ele>
        <time>2022-10-03T15:23:34.288Z</time>
      </trkpt>
      <trkpt lat="48.88145" lon="2.02394">
        <ele>187</ele>
        <time>2022-10-03T15:23:39.291Z</time>
      </trkpt>
      <trkpt lat="48.88143" lon="2.02403">
        <ele>187</ele>
        <time>2022-10-03T15:23:43.296Z</time>
      </trkpt>
      <trkpt lat="48.88141" lon="2.02417">
        <ele>186</ele>
        <time>2022-10-03T15:23:48.281Z</time>
      </trkpt>
      <trkpt lat="48.88139" lon="2.02425">
        <ele>186</ele>
        <time>2022-10-03T15:23:52.310Z</time>
      </trkpt>
      <trkpt lat="48.88137" lon="2.02433">
        <ele>183</ele>
        <time>2022-10-03T15:23:56.305Z</time>
      </trkpt>
      <trkpt lat="48.88134" lon="2.02441">
        <ele>183</ele>
        <time>2022-10-03T15:24:00.300Z</time>
      </trkpt>
      <trkpt lat="48.8813" lon="2.02448">
        <ele>183</ele>
        <time>2022-10-03T15:24:05.300Z</time>
      </trkpt>
      <trkpt lat="48.88126" lon="2.02458">
        <ele>183</ele>
        <time>2022-10-03T15:24:10.279Z</time>
      </trkpt>
      <trkpt lat="48.88123" lon="2.02466">
        <ele>184</ele>
        <time>2022-10-03T15:24:14.286Z</time>
      </trkpt>
      <trkpt lat="48.88121" lon="2.02472">
        <ele>184</ele>
        <time>2022-10-03T15:24:18.287Z</time>
      </trkpt>
      <trkpt lat="48.88119" lon="2.02483">
        <ele>184</ele>
        <time>2022-10-03T15:24:23.285Z</time>
      </trkpt>
      <trkpt lat="48.88116" lon="2.02492">
        <ele>182</ele>
        <time>2022-10-03T15:24:27.307Z</time>
      </trkpt>
      <trkpt lat="48.88113" lon="2.02502">
        <ele>182</ele>
        <time>2022-10-03T15:24:32.282Z</time>
      </trkpt>
      <trkpt lat="48.8811" lon="2.02512">
        <ele>182</ele>
        <time>2022-10-03T15:24:37.303Z</time>
      </trkpt>
      <trkpt lat="48.88108" lon="2.02519">
        <ele>181</ele>
        <time>2022-10-03T15:24:41.311Z</time>
      </trkpt>
      <trkpt lat="48.88106" lon="2.02529">
        <ele>181</ele>
        <time>2022-10-03T15:24:46.289Z</time>
      </trkpt>
      <trkpt lat="48.88103" lon="2.0254">
        <ele>181</ele>
        <time>2022-10-03T15:24:51.288Z</time>
      </trkpt>
      <trkpt lat="48.88101" lon="2.02551">
        <ele>182</ele>
        <time>2022-10-03T15:24:56.257Z</time>
      </trkpt>
      <trkpt lat="48.881" lon="2.02558">
        <ele>182</ele>
        <time>2022-10-03T15:25:00.265Z</time>
      </trkpt>
      <trkpt lat="48.88096" lon="2.02568">
        <ele>184</ele>
        <time>2022-10-03T15:25:04.287Z</time>
      </trkpt>
      <trkpt lat="48.88094" lon="2.02574">
        <ele>186</ele>
        <time>2022-10-03T15:25:08.302Z</time>
      </trkpt>
      <trkpt lat="48.8809" lon="2.02581">
        <ele>186</ele>
        <time>2022-10-03T15:25:12.324Z</time>
      </trkpt>
      <trkpt lat="48.88088" lon="2.02592">
        <ele>186</ele>
        <time>2022-10-03T15:25:17.291Z</time>
      </trkpt>
      <trkpt lat="48.88085" lon="2.02602">
        <ele>187</ele>
        <time>2022-10-03T15:25:22.303Z</time>
      </trkpt>
      <trkpt lat="48.88083" lon="2.02611">
        <ele>187</ele>
        <time>2022-10-03T15:25:27.300Z</time>
      </trkpt>
      <trkpt lat="48.8808" lon="2.02622">
        <ele>187</ele>
        <time>2022-10-03T15:25:32.268Z</time>
      </trkpt>
      <trkpt lat="48.88076" lon="2.0263">
        <ele>185</ele>
        <time>2022-10-03T15:25:36.259Z</time>
      </trkpt>
      <trkpt lat="48.88076" lon="2.02639">
        <ele>185</ele>
        <time>2022-10-03T15:25:41.276Z</time>
      </trkpt>
      <trkpt lat="48.88074" lon="2.02647">
        <ele>185</ele>
        <time>2022-10-03T15:25:45.277Z</time>
      </trkpt>
      <trkpt lat="48.88072" lon="2.02656">
        <ele>184</ele>
        <time>2022-10-03T15:25:50.274Z</time>
      </trkpt>
      <trkpt lat="48.88068" lon="2.02667">
        <ele>186</ele>
        <time>2022-10-03T15:25:55.278Z</time>
      </trkpt>
      <trkpt lat="48.88065" lon="2.02675">
        <ele>186</ele>
        <time>2022-10-03T15:25:59.288Z</time>
      </trkpt>
      <trkpt lat="48.88062" lon="2.02684">
        <ele>185</ele>
        <time>2022-10-03T15:26:03.299Z</time>
      </trkpt>
      <trkpt lat="48.8806" lon="2.02697">
        <ele>185</ele>
        <time>2022-10-03T15:26:08.291Z</time>
      </trkpt>
      <trkpt lat="48.88058" lon="2.02707">
        <ele>185</ele>
        <time>2022-10-03T15:26:13.278Z</time>
      </trkpt>
      <trkpt lat="48.88055" lon="2.02713">
        <ele>185</ele>
        <time>2022-10-03T15:26:17.284Z</time>
      </trkpt>
      <trkpt lat="48.88054" lon="2.02722">
        <ele>185</ele>
        <time>2022-10-03T15:26:21.298Z</time>
      </trkpt>
      <trkpt lat="48.88053" lon="2.02734">
        <ele>185</ele>
        <time>2022-10-03T15:26:26.274Z</time>
      </trkpt>
      <trkpt lat="48.8805" lon="2.0274">
        <ele>184</ele>
        <time>2022-10-03T15:26:30.293Z</time>
      </trkpt>
      <trkpt lat="48.88047" lon="2.0275">
        <ele>184</ele>
        <time>2022-10-03T15:26:35.265Z</time>
      </trkpt>
      <trkpt lat="48.88045" lon="2.02759">
        <ele>184</ele>
        <time>2022-10-03T15:26:39.270Z</time>
      </trkpt>
      <trkpt lat="48.88042" lon="2.02769">
        <ele>183</ele>
        <time>2022-10-03T15:26:44.258Z</time>
      </trkpt>
      <trkpt lat="48.88039" lon="2.02778">
        <ele>190</ele>
        <time>2022-10-03T15:26:48.271Z</time>
      </trkpt>
      <trkpt lat="48.88037" lon="2.02789">
        <ele>190</ele>
        <time>2022-10-03T15:26:53.273Z</time>
      </trkpt>
      <trkpt lat="48.88036" lon="2.02799">
        <ele>187</ele>
        <time>2022-10-03T15:26:57.283Z</time>
      </trkpt>
      <trkpt lat="48.88031" lon="2.02808">
        <ele>187</ele>
        <time>2022-10-03T15:27:02.289Z</time>
      </trkpt>
      <trkpt lat="48.88029" lon="2.02818">
        <ele>187</ele>
        <time>2022-10-03T15:27:07.282Z</time>
      </trkpt>
      <trkpt lat="48.88027" lon="2.02822">
        <ele>185</ele>
        <time>2022-10-03T15:27:12.277Z</time>
      </trkpt>
      <trkpt lat="48.88026" lon="2.02832">
        <ele>185</ele>
        <time>2022-10-03T15:27:16.281Z</time>
      </trkpt>
      <trkpt lat="48.88023" lon="2.02841">
        <ele>185</ele>
        <time>2022-10-03T15:27:21.287Z</time>
      </trkpt>
      <trkpt lat="48.88018" lon="2.02851">
        <ele>183</ele>
        <time>2022-10-03T15:27:26.284Z</time>
      </trkpt>
      <trkpt lat="48.88014" lon="2.02862">
        <ele>183</ele>
        <time>2022-10-03T15:27:31.282Z</time>
      </trkpt>
      <trkpt lat="48.88012" lon="2.02874">
        <ele>185</ele>
        <time>2022-10-03T15:27:36.247Z</time>
      </trkpt>
      <trkpt lat="48.8801" lon="2.02881">
        <ele>182</ele>
        <time>2022-10-03T15:27:40.283Z</time>
      </trkpt>
      <trkpt lat="48.88008" lon="2.02886">
        <ele>182</ele>
        <time>2022-10-03T15:27:44.288Z</time>
      </trkpt>
      <trkpt lat="48.88004" lon="2.02895">
        <ele>182</ele>
        <time>2022-10-03T15:27:49.278Z</time>
      </trkpt>
      <trkpt lat="48.88001" lon="2.029">
        <ele>182</ele>
        <time>2022-10-03T15:27:53.284Z</time>
      </trkpt>
      <trkpt lat="48.88001" lon="2.02904">
        <ele>180</ele>
        <time>2022-10-03T15:27:58.271Z</time>
      </trkpt>
      <trkpt lat="48.87996" lon="2.02912">
        <ele>180</ele>
        <time>2022-10-03T15:28:03.296Z</time>
      </trkpt>
      <trkpt lat="48.87993" lon="2.02922">
        <ele>180</ele>
        <time>2022-10-03T15:28:08.282Z</time>
      </trkpt>
      <trkpt lat="48.87991" lon="2.02931">
        <ele>180</ele>
        <time>2022-10-03T15:28:13.291Z</time>
      </trkpt>
      <trkpt lat="48.8799" lon="2.0294">
        <ele>180</ele>
        <time>2022-10-03T15:28:18.278Z</time>
      </trkpt>
      <trkpt lat="48.87987" lon="2.02946">
        <ele>180</ele>
        <time>2022-10-03T15:28:23.261Z</time>
      </trkpt>
      <trkpt lat="48.87984" lon="2.02954">
        <ele>180</ele>
        <time>2022-10-03T15:28:28.265Z</time>
      </trkpt>
      <trkpt lat="48.8798" lon="2.02962">
        <ele>181</ele>
        <time>2022-10-03T15:28:33.261Z</time>
      </trkpt>
      <trkpt lat="48.87978" lon="2.02968">
        <ele>181</ele>
        <time>2022-10-03T15:28:37.285Z</time>
      </trkpt>
      <trkpt lat="48.87974" lon="2.02976">
        <ele>181</ele>
        <time>2022-10-03T15:28:42.278Z</time>
      </trkpt>
      <trkpt lat="48.8797" lon="2.02986">
        <ele>182</ele>
        <time>2022-10-03T15:28:47.288Z</time>
      </trkpt>
      <trkpt lat="48.87965" lon="2.02994">
        <ele>182</ele>
        <time>2022-10-03T15:28:52.284Z</time>
      </trkpt>
      <trkpt lat="48.87963" lon="2.03005">
        <ele>182</ele>
        <time>2022-10-03T15:28:57.273Z</time>
      </trkpt>
      <trkpt lat="48.87959" lon="2.03018">
        <ele>182</ele>
        <time>2022-10-03T15:29:02.265Z</time>
      </trkpt>
      <trkpt lat="48.87956" lon="2.03027">
        <ele>182</ele>
        <time>2022-10-03T15:29:07.267Z</time>
      </trkpt>
      <trkpt lat="48.87955" lon="2.03035">
        <ele>182</ele>
        <time>2022-10-03T15:29:11.266Z</time>
      </trkpt>
      <trkpt lat="48.87951" lon="2.03045">
        <ele>182</ele>
        <time>2022-10-03T15:29:16.262Z</time>
      </trkpt>
      <trkpt lat="48.8795" lon="2.03052">
        <ele>182</ele>
        <time>2022-10-03T15:29:20.266Z</time>
      </trkpt>
      <trkpt lat="48.87948" lon="2.03062">
        <ele>182</ele>
        <time>2022-10-03T15:29:25.257Z</time>
      </trkpt>
      <trkpt lat="48.87946" lon="2.03069">
        <ele>182</ele>
        <time>2022-10-03T15:29:29.271Z</time>
      </trkpt>
      <trkpt lat="48.87944" lon="2.03075">
        <ele>182</ele>
        <time>2022-10-03T15:29:33.372Z</time>
      </trkpt>
      <trkpt lat="48.87941" lon="2.03083">
        <ele>182</ele>
        <time>2022-10-03T15:29:38.290Z</time>
      </trkpt>
      <trkpt lat="48.87939" lon="2.03092">
        <ele>182</ele>
        <time>2022-10-03T15:29:43.266Z</time>
      </trkpt>
      <trkpt lat="48.87939" lon="2.03102">
        <ele>183</ele>
        <time>2022-10-03T15:29:47.283Z</time>
      </trkpt>
      <trkpt lat="48.87937" lon="2.0311">
        <ele>183</ele>
        <time>2022-10-03T15:29:51.285Z</time>
      </trkpt>
      <trkpt lat="48.87935" lon="2.0312">
        <ele>183</ele>
        <time>2022-10-03T15:29:56.253Z</time>
      </trkpt>
      <trkpt lat="48.87932" lon="2.03127">
        <ele>183</ele>
        <time>2022-10-03T15:30:00.276Z</time>
      </trkpt>
      <trkpt lat="48.87929" lon="2.03133">
        <ele>182</ele>
        <time>2022-10-03T15:30:04.294Z</time>
      </trkpt>
      <trkpt lat="48.87926" lon="2.03143">
        <ele>182</ele>
        <time>2022-10-03T15:30:09.306Z</time>
      </trkpt>
      <trkpt lat="48.87923" lon="2.03154">
        <ele>182</ele>
        <time>2022-10-03T15:30:14.271Z</time>
      </trkpt>
      <trkpt lat="48.8792" lon="2.03162">
        <ele>182</ele>
        <time>2022-10-03T15:30:19.288Z</time>
      </trkpt>
      <trkpt lat="48.87917" lon="2.03168">
        <ele>182</ele>
        <time>2022-10-03T15:30:23.292Z</time>
      </trkpt>
      <trkpt lat="48.87913" lon="2.03176">
        <ele>182</ele>
        <time>2022-10-03T15:30:27.300Z</time>
      </trkpt>
      <trkpt lat="48.87911" lon="2.03188">
        <ele>183</ele>
        <time>2022-10-03T15:30:32.254Z</time>
      </trkpt>
      <trkpt lat="48.8791" lon="2.03197">
        <ele>183</ele>
        <time>2022-10-03T15:30:36.265Z</time>
      </trkpt>
      <trkpt lat="48.87909" lon="2.03204">
        <ele>183</ele>
        <time>2022-10-03T15:30:41.262Z</time>
      </trkpt>
      <trkpt lat="48.87904" lon="2.03209">
        <ele>183</ele>
        <time>2022-10-03T15:30:45.281Z</time>
      </trkpt>
      <trkpt lat="48.87901" lon="2.03215">
        <ele>185</ele>
        <time>2022-10-03T15:30:49.277Z</time>
      </trkpt>
      <trkpt lat="48.87898" lon="2.03224">
        <ele>185</ele>
        <time>2022-10-03T15:30:54.271Z</time>
      </trkpt>
      <trkpt lat="48.87894" lon="2.0323">
        <ele>185</ele>
        <time>2022-10-03T15:30:58.284Z</time>
      </trkpt>
      <trkpt lat="48.8789" lon="2.03239">
        <ele>185</ele>
        <time>2022-10-03T15:31:02.288Z</time>
      </trkpt>
      <trkpt lat="48.87887" lon="2.0325">
        <ele>185</ele>
        <time>2022-10-03T15:31:07.291Z</time>
      </trkpt>
      <trkpt lat="48.87884" lon="2.03259">
        <ele>185</ele>
        <time>2022-10-03T15:31:12.262Z</time>
      </trkpt>
      <trkpt lat="48.87883" lon="2.0327">
        <ele>184</ele>
        <time>2022-10-03T15:31:17.267Z</time>
      </trkpt>
      <trkpt lat="48.8788" lon="2.03281">
        <ele>184</ele>
        <time>2022-10-03T15:31:22.262Z</time>
      </trkpt>
      <trkpt lat="48.87878" lon="2.0329">
        <ele>184</ele>
        <time>2022-10-03T15:31:27.274Z</time>
      </trkpt>
      <trkpt lat="48.87875" lon="2.03299">
        <ele>184</ele>
        <time>2022-10-03T15:31:32.263Z</time>
      </trkpt>
      <trkpt lat="48.87871" lon="2.03306">
        <ele>184</ele>
        <time>2022-10-03T15:31:36.268Z</time>
      </trkpt>
      <trkpt lat="48.87871" lon="2.03315">
        <ele>184</ele>
        <time>2022-10-03T15:31:41.275Z</time>
      </trkpt>
      <trkpt lat="48.87869" lon="2.03323">
        <ele>184</ele>
        <time>2022-10-03T15:31:45.284Z</time>
      </trkpt>
      <trkpt lat="48.87866" lon="2.03331">
        <ele>184</ele>
        <time>2022-10-03T15:31:50.275Z</time>
      </trkpt>
      <trkpt lat="48.87865" lon="2.03337">
        <ele>184</ele>
        <time>2022-10-03T15:31:54.276Z</time>
      </trkpt>
      <trkpt lat="48.87863" lon="2.03346">
        <ele>184</ele>
        <time>2022-10-03T15:31:59.276Z</time>
      </trkpt>
      <trkpt lat="48.8786" lon="2.03357">
        <ele>184</ele>
        <time>2022-10-03T15:32:03.287Z</time>
      </trkpt>
      <trkpt lat="48.87859" lon="2.03366">
        <ele>184</ele>
        <time>2022-10-03T15:32:08.277Z</time>
      </trkpt>
      <trkpt lat="48.87857" lon="2.03379">
        <ele>183</ele>
        <time>2022-10-03T15:32:13.256Z</time>
      </trkpt>
      <trkpt lat="48.87855" lon="2.03387">
        <ele>183</ele>
        <time>2022-10-03T15:32:17.288Z</time>
      </trkpt>
      <trkpt lat="48.87854" lon="2.03398">
        <ele>183</ele>
        <time>2022-10-03T15:32:22.270Z</time>
      </trkpt>
      <trkpt lat="48.87852" lon="2.03404">
        <ele>181</ele>
        <time>2022-10-03T15:32:27.274Z</time>
      </trkpt>
      <trkpt lat="48.8785" lon="2.03412">
        <ele>181</ele>
        <time>2022-10-03T15:32:31.285Z</time>
      </trkpt>
      <trkpt lat="48.87848" lon="2.03424">
        <ele>181</ele>
        <time>2022-10-03T15:32:36.285Z</time>
      </trkpt>
      <trkpt lat="48.87845" lon="2.03432">
        <ele>182</ele>
        <time>2022-10-03T15:32:41.293Z</time>
      </trkpt>
      <trkpt lat="48.8784" lon="2.03442">
        <ele>182</ele>
        <time>2022-10-03T15:32:46.280Z</time>
      </trkpt>
      <trkpt lat="48.87837" lon="2.03451">
        <ele>182</ele>
        <time>2022-10-03T15:32:50.314Z</time>
      </trkpt>
      <trkpt lat="48.87833" lon="2.03461">
        <ele>181</ele>
        <time>2022-10-03T15:32:55.297Z</time>
      </trkpt>
      <trkpt lat="48.8783" lon="2.03468">
        <ele>181</ele>
        <time>2022-10-03T15:32:59.296Z</time>
      </trkpt>
      <trkpt lat="48.87828" lon="2.0348">
        <ele>181</ele>
        <time>2022-10-03T15:33:04.291Z</time>
      </trkpt>
      <trkpt lat="48.87825" lon="2.0349">
        <ele>180</ele>
        <time>2022-10-03T15:33:09.287Z</time>
      </trkpt>
      <trkpt lat="48.87824" lon="2.03496">
        <ele>180</ele>
        <time>2022-10-03T15:33:13.298Z</time>
      </trkpt>
      <trkpt lat="48.8782" lon="2.03507">
        <ele>180</ele>
        <time>2022-10-03T15:33:18.271Z</time>
      </trkpt>
      <trkpt lat="48.87818" lon="2.03516">
        <ele>184</ele>
        <time>2022-10-03T15:33:22.252Z</time>
      </trkpt>
      <trkpt lat="48.87815" lon="2.03528">
        <ele>184</ele>
        <time>2022-10-03T15:33:27.295Z</time>
      </trkpt>
      <trkpt lat="48.87812" lon="2.03535">
        <ele>184</ele>
        <time>2022-10-03T15:33:32.271Z</time>
      </trkpt>
      <trkpt lat="48.8781" lon="2.03543">
        <ele>183</ele>
        <time>2022-10-03T15:33:37.279Z</time>
      </trkpt>
      <trkpt lat="48.87805" lon="2.03553">
        <ele>183</ele>
        <time>2022-10-03T15:33:42.282Z</time>
      </trkpt>
      <trkpt lat="48.87802" lon="2.03562">
        <ele>183</ele>
        <time>2022-10-03T15:33:47.265Z</time>
      </trkpt>
      <trkpt lat="48.878" lon="2.0357">
        <ele>182</ele>
        <time>2022-10-03T15:33:51.269Z</time>
      </trkpt>
      <trkpt lat="48.87799" lon="2.03582">
        <ele>182</ele>
        <time>2022-10-03T15:33:56.251Z</time>
      </trkpt>
      <trkpt lat="48.87798" lon="2.03592">
        <ele>182</ele>
        <time>2022-10-03T15:34:00.257Z</time>
      </trkpt>
      <trkpt lat="48.87796" lon="2.03599">
        <ele>181</ele>
        <time>2022-10-03T15:34:04.275Z</time>
      </trkpt>
      <trkpt lat="48.87794" lon="2.03607">
        <ele>181</ele>
        <time>2022-10-03T15:34:09.265Z</time>
      </trkpt>
      <trkpt lat="48.87792" lon="2.03614">
        <ele>186</ele>
        <time>2022-10-03T15:34:13.277Z</time>
      </trkpt>
      <trkpt lat="48.87789" lon="2.03622">
        <ele>186</ele>
        <time>2022-10-03T15:34:17.282Z</time>
      </trkpt>
      <trkpt lat="48.87786" lon="2.03629">
        <ele>185</ele>
        <time>2022-10-03T15:34:21.279Z</time>
      </trkpt>
      <trkpt lat="48.87785" lon="2.03638">
        <ele>185</ele>
        <time>2022-10-03T15:34:26.273Z</time>
      </trkpt>
      <trkpt lat="48.87782" lon="2.03646">
        <ele>185</ele>
        <time>2022-10-03T15:34:31.276Z</time>
      </trkpt>
      <trkpt lat="48.87779" lon="2.03655">
        <ele>185</ele>
        <time>2022-10-03T15:34:35.296Z</time>
      </trkpt>
      <trkpt lat="48.87776" lon="2.03664">
        <ele>185</ele>
        <time>2022-10-03T15:34:40.254Z</time>
      </trkpt>
      <trkpt lat="48.87774" lon="2.03673">
        <ele>185</ele>
        <time>2022-10-03T15:34:44.272Z</time>
      </trkpt>
      <trkpt lat="48.87771" lon="2.03682">
        <ele>185</ele>
        <time>2022-10-03T15:34:49.286Z</time>
      </trkpt>
      <trkpt lat="48.87768" lon="2.03691">
        <ele>185</ele>
        <time>2022-10-03T15:34:54.273Z</time>
      </trkpt>
      <trkpt lat="48.87764" lon="2.0371">
        <ele>184</ele>
        <time>2022-10-03T15:35:14.265Z</time>
      </trkpt>
      <trkpt lat="48.87763" lon="2.03714">
        <ele>184</ele>
        <time>2022-10-03T15:35:18.269Z</time>
      </trkpt>
      <trkpt lat="48.8776" lon="2.03721">
        <ele>184</ele>
        <time>2022-10-03T15:35:23.283Z</time>
      </trkpt>
      <trkpt lat="48.87759" lon="2.03728">
        <ele>184</ele>
        <time>2022-10-03T15:35:28.273Z</time>
      </trkpt>
      <trkpt lat="48.87761" lon="2.03734">
        <ele>184</ele>
        <time>2022-10-03T15:35:33.274Z</time>
      </trkpt>
      <trkpt lat="48.87763" lon="2.03739">
        <ele>182</ele>
        <time>2022-10-03T15:35:37.295Z</time>
      </trkpt>
      <trkpt lat="48.87764" lon="2.03748">
        <ele>182</ele>
        <time>2022-10-03T15:35:42.271Z</time>
      </trkpt>
      <trkpt lat="48.87765" lon="2.03755">
        <ele>183</ele>
        <time>2022-10-03T15:35:46.281Z</time>
      </trkpt>
      <trkpt lat="48.87768" lon="2.03758">
        <ele>183</ele>
        <time>2022-10-03T15:35:51.288Z</time>
      </trkpt>
      <trkpt lat="48.87768" lon="2.03759">
        <ele>183</ele>
        <time>2022-10-03T15:36:29.282Z</time>
      </trkpt>
      <trkpt lat="48.87765" lon="2.03759">
        <ele>183</ele>
        <time>2022-10-03T15:36:34.267Z</time>
      </trkpt>
      <trkpt lat="48.87765" lon="2.03754">
        <ele>183</ele>
        <time>2022-10-03T15:36:38.276Z</time>
      </trkpt>
      <trkpt lat="48.87766" lon="2.03746">
        <ele>183</ele>
        <time>2022-10-03T15:36:43.288Z</time>
      </trkpt>
      <trkpt lat="48.87767" lon="2.03741">
        <ele>183</ele>
        <time>2022-10-03T15:36:47.290Z</time>
      </trkpt>
      <trkpt lat="48.87759" lon="2.03739">
        <ele>182</ele>
        <time>2022-10-03T15:36:56.258Z</time>
      </trkpt>
      <trkpt lat="48.87757" lon="2.0374">
        <ele>182</ele>
        <time>2022-10-03T15:37:00.275Z</time>
      </trkpt>
      <trkpt lat="48.87757" lon="2.03739">
        <ele>182</ele>
        <time>2022-10-03T15:37:05.257Z</time>
      </trkpt>
      <trkpt lat="48.87756" lon="2.0374">
        <ele>182</ele>
        <time>2022-10-03T15:37:09.264Z</time>
      </trkpt>
      <trkpt lat="48.87754" lon="2.03744">
        <ele>182</ele>
        <time>2022-10-03T15:37:13.271Z</time>
      </trkpt>
      <trkpt lat="48.87751" lon="2.03754">
        <ele>182</ele>
        <time>2022-10-03T15:37:40.293Z</time>
      </trkpt>
      <trkpt lat="48.8775" lon="2.03755">
        <ele>182</ele>
        <time>2022-10-03T15:37:45.291Z</time>
      </trkpt>
      <trkpt lat="48.87748" lon="2.0376">
        <ele>182</ele>
        <time>2022-10-03T15:37:50.270Z</time>
      </trkpt>
      <trkpt lat="48.87746" lon="2.03766">
        <ele>182</ele>
        <time>2022-10-03T15:37:55.282Z</time>
      </trkpt>
      <trkpt lat="48.87744" lon="2.03773">
        <ele>182</ele>
        <time>2022-10-03T15:38:00.274Z</time>
      </trkpt>
      <trkpt lat="48.87742" lon="2.03778">
        <ele>182</ele>
        <time>2022-10-03T15:38:04.273Z</time>
      </trkpt>
      <trkpt lat="48.87739" lon="2.03785">
        <ele>182</ele>
        <time>2022-10-03T15:38:09.282Z</time>
      </trkpt>
      <trkpt lat="48.87737" lon="2.03794">
        <ele>182</ele>
        <time>2022-10-03T15:38:14.266Z</time>
      </trkpt>
      <trkpt lat="48.87735" lon="2.03801">
        <ele>180</ele>
        <time>2022-10-03T15:38:18.268Z</time>
      </trkpt>
      <trkpt lat="48.87732" lon="2.03809">
        <ele>180</ele>
        <time>2022-10-03T15:38:23.281Z</time>
      </trkpt>
      <trkpt lat="48.8773" lon="2.03817">
        <ele>180</ele>
        <time>2022-10-03T15:38:28.262Z</time>
      </trkpt>
      <trkpt lat="48.87728" lon="2.03823">
        <ele>180</ele>
        <time>2022-10-03T15:38:32.259Z</time>
      </trkpt>
      <trkpt lat="48.87725" lon="2.03831">
        <ele>180</ele>
        <time>2022-10-03T15:38:37.254Z</time>
      </trkpt>
      <trkpt lat="48.87723" lon="2.0384">
        <ele>180</ele>
        <time>2022-10-03T15:38:41.261Z</time>
      </trkpt>
      <trkpt lat="48.87722" lon="2.03846">
        <ele>180</ele>
        <time>2022-10-03T15:38:45.314Z</time>
      </trkpt>
      <trkpt lat="48.87719" lon="2.03855">
        <ele>180</ele>
        <time>2022-10-03T15:38:50.280Z</time>
      </trkpt>
      <trkpt lat="48.87717" lon="2.03862">
        <ele>180</ele>
        <time>2022-10-03T15:38:55.282Z</time>
      </trkpt>
      <trkpt lat="48.87714" lon="2.03867">
        <ele>180</ele>
        <time>2022-10-03T15:38:59.289Z</time>
      </trkpt>
      <trkpt lat="48.87712" lon="2.03877">
        <ele>181</ele>
        <time>2022-10-03T15:39:04.253Z</time>
      </trkpt>
      <trkpt lat="48.8771" lon="2.03884">
        <ele>181</ele>
        <time>2022-10-03T15:39:08.277Z</time>
      </trkpt>
      <trkpt lat="48.87707" lon="2.03892">
        <ele>179</ele>
        <time>2022-10-03T15:39:13.282Z</time>
      </trkpt>
      <trkpt lat="48.87704" lon="2.03899">
        <ele>179</ele>
        <time>2022-10-03T15:39:17.286Z</time>
      </trkpt>
      <trkpt lat="48.877" lon="2.03905">
        <ele>180</ele>
        <time>2022-10-03T15:39:21.287Z</time>
      </trkpt>
      <trkpt lat="48.87697" lon="2.03911">
        <ele>180</ele>
        <time>2022-10-03T15:39:26.269Z</time>
      </trkpt>
      <trkpt lat="48.87694" lon="2.03922">
        <ele>180</ele>
        <time>2022-10-03T15:39:31.275Z</time>
      </trkpt>
      <trkpt lat="48.87692" lon="2.03932">
        <ele>181</ele>
        <time>2022-10-03T15:39:36.276Z</time>
      </trkpt>
      <trkpt lat="48.87691" lon="2.03939">
        <ele>181</ele>
        <time>2022-10-03T15:39:40.286Z</time>
      </trkpt>
      <trkpt lat="48.87687" lon="2.03946">
        <ele>181</ele>
        <time>2022-10-03T15:39:45.307Z</time>
      </trkpt>
      <trkpt lat="48.87684" lon="2.03956">
        <ele>181</ele>
        <time>2022-10-03T15:39:50.254Z</time>
      </trkpt>
      <trkpt lat="48.87682" lon="2.03963">
        <ele>181</ele>
        <time>2022-10-03T15:39:54.254Z</time>
      </trkpt>
      <trkpt lat="48.87681" lon="2.03972">
        <ele>180</ele>
        <time>2022-10-03T15:39:59.264Z</time>
      </trkpt>
      <trkpt lat="48.87679" lon="2.03978">
        <ele>180</ele>
        <time>2022-10-03T15:40:03.265Z</time>
      </trkpt>
      <trkpt lat="48.87676" lon="2.03985">
        <ele>180</ele>
        <time>2022-10-03T15:40:08.256Z</time>
      </trkpt>
      <trkpt lat="48.87673" lon="2.03996">
        <ele>180</ele>
        <time>2022-10-03T15:40:13.266Z</time>
      </trkpt>
      <trkpt lat="48.87668" lon="2.04008">
        <ele>180</ele>
        <time>2022-10-03T15:40:18.259Z</time>
      </trkpt>
      <trkpt lat="48.87665" lon="2.04018">
        <ele>179</ele>
        <time>2022-10-03T15:40:23.290Z</time>
      </trkpt>
      <trkpt lat="48.87663" lon="2.04027">
        <ele>179</ele>
        <time>2022-10-03T15:40:28.267Z</time>
      </trkpt>
      <trkpt lat="48.8766" lon="2.04036">
        <ele>179</ele>
        <time>2022-10-03T15:40:33.268Z</time>
      </trkpt>
      <trkpt lat="48.87658" lon="2.04046">
        <ele>178</ele>
        <time>2022-10-03T15:40:38.253Z</time>
      </trkpt>
      <trkpt lat="48.87656" lon="2.04054">
        <ele>178</ele>
        <time>2022-10-03T15:40:42.266Z</time>
      </trkpt>
      <trkpt lat="48.87654" lon="2.04061">
        <ele>178</ele>
        <time>2022-10-03T15:40:46.269Z</time>
      </trkpt>
      <trkpt lat="48.87653" lon="2.04071">
        <ele>178</ele>
        <time>2022-10-03T15:40:51.290Z</time>
      </trkpt>
      <trkpt lat="48.8765" lon="2.04078">
        <ele>178</ele>
        <time>2022-10-03T15:40:56.261Z</time>
      </trkpt>
      <trkpt lat="48.87649" lon="2.04085">
        <ele>178</ele>
        <time>2022-10-03T15:41:00.270Z</time>
      </trkpt>
      <trkpt lat="48.87645" lon="2.04093">
        <ele>178</ele>
        <time>2022-10-03T15:41:05.274Z</time>
      </trkpt>
      <trkpt lat="48.87642" lon="2.04101">
        <ele>179</ele>
        <time>2022-10-03T15:41:10.256Z</time>
      </trkpt>
      <trkpt lat="48.87638" lon="2.0411">
        <ele>179</ele>
        <time>2022-10-03T15:41:15.283Z</time>
      </trkpt>
      <trkpt lat="48.87636" lon="2.04119">
        <ele>179</ele>
        <time>2022-10-03T15:41:20.272Z</time>
      </trkpt>
      <trkpt lat="48.87635" lon="2.04128">
        <ele>180</ele>
        <time>2022-10-03T15:41:25.287Z</time>
      </trkpt>
      <trkpt lat="48.87631" lon="2.04136">
        <ele>180</ele>
        <time>2022-10-03T15:41:30.261Z</time>
      </trkpt>
      <trkpt lat="48.87627" lon="2.04143">
        <ele>180</ele>
        <time>2022-10-03T15:41:35.278Z</time>
      </trkpt>
      <trkpt lat="48.87624" lon="2.04152">
        <ele>182</ele>
        <time>2022-10-03T15:41:40.266Z</time>
      </trkpt>
      <trkpt lat="48.87621" lon="2.04159">
        <ele>182</ele>
        <time>2022-10-03T15:41:45.262Z</time>
      </trkpt>
      <trkpt lat="48.8762" lon="2.04166">
        <ele>182</ele>
        <time>2022-10-03T15:41:49.276Z</time>
      </trkpt>
      <trkpt lat="48.87618" lon="2.04175">
        <ele>182</ele>
        <time>2022-10-03T15:41:53.286Z</time>
      </trkpt>
      <trkpt lat="48.87614" lon="2.04184">
        <ele>181</ele>
        <time>2022-10-03T15:41:58.255Z</time>
      </trkpt>
      <trkpt lat="48.87612" lon="2.04197">
        <ele>181</ele>
        <time>2022-10-03T15:42:03.287Z</time>
      </trkpt>
      <trkpt lat="48.8761" lon="2.04205">
        <ele>181</ele>
        <time>2022-10-03T15:42:08.270Z</time>
      </trkpt>
      <trkpt lat="48.87606" lon="2.04215">
        <ele>181</ele>
        <time>2022-10-03T15:42:13.278Z</time>
      </trkpt>
      <trkpt lat="48.87604" lon="2.04224">
        <ele>181</ele>
        <time>2022-10-03T15:42:17.278Z</time>
      </trkpt>
      <trkpt lat="48.87602" lon="2.04231">
        <ele>181</ele>
        <time>2022-10-03T15:42:21.297Z</time>
      </trkpt>
      <trkpt lat="48.87601" lon="2.04239">
        <ele>181</ele>
        <time>2022-10-03T15:42:26.256Z</time>
      </trkpt>
      <trkpt lat="48.87598" lon="2.04248">
        <ele>181</ele>
        <time>2022-10-03T15:42:31.262Z</time>
      </trkpt>
      <trkpt lat="48.87594" lon="2.04255">
        <ele>181</ele>
        <time>2022-10-03T15:42:35.293Z</time>
      </trkpt>
      <trkpt lat="48.87592" lon="2.04261">
        <ele>181</ele>
        <time>2022-10-03T15:42:39.297Z</time>
      </trkpt>
      <trkpt lat="48.87589" lon="2.04267">
        <ele>181</ele>
        <time>2022-10-03T15:42:43.295Z</time>
      </trkpt>
      <trkpt lat="48.87586" lon="2.04276">
        <ele>181</ele>
        <time>2022-10-03T15:42:48.262Z</time>
      </trkpt>
      <trkpt lat="48.87584" lon="2.04286">
        <ele>181</ele>
        <time>2022-10-03T15:42:53.273Z</time>
      </trkpt>
      <trkpt lat="48.87582" lon="2.04297">
        <ele>180</ele>
        <time>2022-10-03T15:42:58.253Z</time>
      </trkpt>
      <trkpt lat="48.8758" lon="2.04304">
        <ele>180</ele>
        <time>2022-10-03T15:43:02.264Z</time>
      </trkpt>
      <trkpt lat="48.87577" lon="2.04312">
        <ele>180</ele>
        <time>2022-10-03T15:43:06.267Z</time>
      </trkpt>
      <trkpt lat="48.87573" lon="2.04321">
        <ele>181</ele>
        <time>2022-10-03T15:43:11.283Z</time>
      </trkpt>
      <trkpt lat="48.8757" lon="2.04328">
        <ele>181</ele>
        <time>2022-10-03T15:43:16.259Z</time>
      </trkpt>
      <trkpt lat="48.87568" lon="2.04334">
        <ele>181</ele>
        <time>2022-10-03T15:43:20.268Z</time>
      </trkpt>
      <trkpt lat="48.87567" lon="2.04345">
        <ele>181</ele>
        <time>2022-10-03T15:43:25.273Z</time>
      </trkpt>
      <trkpt lat="48.87565" lon="2.04352">
        <ele>182</ele>
        <time>2022-10-03T15:43:29.271Z</time>
      </trkpt>
      <trkpt lat="48.87564" lon="2.0436">
        <ele>182</ele>
        <time>2022-10-03T15:43:34.271Z</time>
      </trkpt>
      <trkpt lat="48.87561" lon="2.04372">
        <ele>182</ele>
        <time>2022-10-03T15:43:39.275Z</time>
      </trkpt>
      <trkpt lat="48.87558" lon="2.04378">
        <ele>183</ele>
        <time>2022-10-03T15:43:43.275Z</time>
      </trkpt>
      <trkpt lat="48.87555" lon="2.04389">
        <ele>183</ele>
        <time>2022-10-03T15:43:48.266Z</time>
      </trkpt>
      <trkpt lat="48.87554" lon="2.04398">
        <ele>183</ele>
        <time>2022-10-03T15:43:53.282Z</time>
      </trkpt>
      <trkpt lat="48.87552" lon="2.04408">
        <ele>183</ele>
        <time>2022-10-03T15:43:58.256Z</time>
      </trkpt>
      <trkpt lat="48.87549" lon="2.04414">
        <ele>183</ele>
        <time>2022-10-03T15:44:02.271Z</time>
      </trkpt>
      <trkpt lat="48.87547" lon="2.04423">
        <ele>183</ele>
        <time>2022-10-03T15:44:07.278Z</time>
      </trkpt>
      <trkpt lat="48.87545" lon="2.04433">
        <ele>181</ele>
        <time>2022-10-03T15:44:12.261Z</time>
      </trkpt>
      <trkpt lat="48.87545" lon="2.04439">
        <ele>181</ele>
        <time>2022-10-03T15:44:16.264Z</time>
      </trkpt>
      <trkpt lat="48.87542" lon="2.04447">
        <ele>181</ele>
        <time>2022-10-03T15:44:21.267Z</time>
      </trkpt>
      <trkpt lat="48.87539" lon="2.04455">
        <ele>185</ele>
        <time>2022-10-03T15:44:25.272Z</time>
      </trkpt>
      <trkpt lat="48.87535" lon="2.04462">
        <ele>183</ele>
        <time>2022-10-03T15:44:29.281Z</time>
      </trkpt>
      <trkpt lat="48.87532" lon="2.0447">
        <ele>183</ele>
        <time>2022-10-03T15:44:34.261Z</time>
      </trkpt>
      <trkpt lat="48.8753" lon="2.04478">
        <ele>183</ele>
        <time>2022-10-03T15:44:38.267Z</time>
      </trkpt>
      <trkpt lat="48.87527" lon="2.04486">
        <ele>183</ele>
        <time>2022-10-03T15:44:42.264Z</time>
      </trkpt>
      <trkpt lat="48.87525" lon="2.04494">
        <ele>181</ele>
        <time>2022-10-03T15:44:47.283Z</time>
      </trkpt>
      <trkpt lat="48.87523" lon="2.04501">
        <ele>181</ele>
        <time>2022-10-03T15:44:51.292Z</time>
      </trkpt>
      <trkpt lat="48.87521" lon="2.0451">
        <ele>181</ele>
        <time>2022-10-03T15:44:56.273Z</time>
      </trkpt>
      <trkpt lat="48.87519" lon="2.04518">
        <ele>180</ele>
        <time>2022-10-03T15:45:01.263Z</time>
      </trkpt>
      <trkpt lat="48.87518" lon="2.04526">
        <ele>180</ele>
        <time>2022-10-03T15:45:05.281Z</time>
      </trkpt>
      <trkpt lat="48.87516" lon="2.04532">
        <ele>180</ele>
        <time>2022-10-03T15:45:09.269Z</time>
      </trkpt>
      <trkpt lat="48.87515" lon="2.04538">
        <ele>180</ele>
        <time>2022-10-03T15:45:13.284Z</time>
      </trkpt>
      <trkpt lat="48.87511" lon="2.04547">
        <ele>182</ele>
        <time>2022-10-03T15:45:18.255Z</time>
      </trkpt>
      <trkpt lat="48.87508" lon="2.04554">
        <ele>182</ele>
        <time>2022-10-03T15:45:22.252Z</time>
      </trkpt>
      <trkpt lat="48.87506" lon="2.04561">
        <ele>182</ele>
        <time>2022-10-03T15:45:26.263Z</time>
      </trkpt>
      <trkpt lat="48.87504" lon="2.04569">
        <ele>182</ele>
        <time>2022-10-03T15:45:30.279Z</time>
      </trkpt>
      <trkpt lat="48.87501" lon="2.04577">
        <ele>180</ele>
        <time>2022-10-03T15:45:35.274Z</time>
      </trkpt>
      <trkpt lat="48.87498" lon="2.04584">
        <ele>180</ele>
        <time>2022-10-03T15:45:39.285Z</time>
      </trkpt>
      <trkpt lat="48.87496" lon="2.04592">
        <ele>180</ele>
        <time>2022-10-03T15:45:44.261Z</time>
      </trkpt>
      <trkpt lat="48.87494" lon="2.046">
        <ele>180</ele>
        <time>2022-10-03T15:45:48.263Z</time>
      </trkpt>
      <trkpt lat="48.87491" lon="2.04607">
        <ele>180</ele>
        <time>2022-10-03T15:45:52.266Z</time>
      </trkpt>
      <trkpt lat="48.87487" lon="2.04616">
        <ele>180</ele>
        <time>2022-10-03T15:45:57.281Z</time>
      </trkpt>
      <trkpt lat="48.87485" lon="2.04624">
        <ele>181</ele>
        <time>2022-10-03T15:46:01.294Z</time>
      </trkpt>
      <trkpt lat="48.87483" lon="2.04633">
        <ele>181</ele>
        <time>2022-10-03T15:46:06.255Z</time>
      </trkpt>
      <trkpt lat="48.8748" lon="2.04641">
        <ele>181</ele>
        <time>2022-10-03T15:46:11.256Z</time>
      </trkpt>
      <trkpt lat="48.87478" lon="2.04649">
        <ele>181</ele>
        <time>2022-10-03T15:46:15.278Z</time>
      </trkpt>
      <trkpt lat="48.87477" lon="2.04656">
        <ele>181</ele>
        <time>2022-10-03T15:46:19.291Z</time>
      </trkpt>
      <trkpt lat="48.87474" lon="2.04667">
        <ele>181</ele>
        <time>2022-10-03T15:46:24.255Z</time>
      </trkpt>
      <trkpt lat="48.87472" lon="2.04674">
        <ele>181</ele>
        <time>2022-10-03T15:46:28.270Z</time>
      </trkpt>
      <trkpt lat="48.8747" lon="2.04678">
        <ele>181</ele>
        <time>2022-10-03T15:46:33.257Z</time>
      </trkpt>
      <trkpt lat="48.87468" lon="2.04678">
        <ele>181</ele>
        <time>2022-10-03T15:46:41.263Z</time>
      </trkpt>
      <trkpt lat="48.87467" lon="2.04678">
        <ele>181</ele>
        <time>2022-10-03T15:46:45.265Z</time>
      </trkpt>
      <trkpt lat="48.87464" lon="2.04677">
        <ele>181</ele>
        <time>2022-10-03T15:46:49.277Z</time>
      </trkpt>
      <trkpt lat="48.87462" lon="2.04672">
        <ele>181</ele>
        <time>2022-10-03T15:46:54.271Z</time>
      </trkpt>
      <trkpt lat="48.87458" lon="2.04664">
        <ele>184</ele>
        <time>2022-10-03T15:46:59.293Z</time>
      </trkpt>
      <trkpt lat="48.87453" lon="2.04657">
        <ele>184</ele>
        <time>2022-10-03T15:47:04.261Z</time>
      </trkpt>
      <trkpt lat="48.87449" lon="2.0465">
        <ele>184</ele>
        <time>2022-10-03T15:47:09.295Z</time>
      </trkpt>
      <trkpt lat="48.87445" lon="2.04642">
        <ele>184</ele>
        <time>2022-10-03T15:47:14.269Z</time>
      </trkpt>
      <trkpt lat="48.8744" lon="2.04635">
        <ele>184</ele>
        <time>2022-10-03T15:47:19.271Z</time>
      </trkpt>
      <trkpt lat="48.87436" lon="2.0463">
        <ele>184</ele>
        <time>2022-10-03T15:47:23.269Z</time>
      </trkpt>
      <trkpt lat="48.87432" lon="2.04624">
        <ele>184</ele>
        <time>2022-10-03T15:47:28.260Z</time>
      </trkpt>
      <trkpt lat="48.87429" lon="2.04617">
        <ele>186</ele>
        <time>2022-10-03T15:47:32.263Z</time>
      </trkpt>
      <trkpt lat="48.87425" lon="2.04609">
        <ele>186</ele>
        <time>2022-10-03T15:47:37.275Z</time>
      </trkpt>
      <trkpt lat="48.87421" lon="2.04603">
        <ele>186</ele>
        <time>2022-10-03T15:47:41.275Z</time>
      </trkpt>
      <trkpt lat="48.87417" lon="2.04595">
        <ele>185</ele>
        <time>2022-10-03T15:47:46.260Z</time>
      </trkpt>
      <trkpt lat="48.87414" lon="2.04589">
        <ele>185</ele>
        <time>2022-10-03T15:47:50.257Z</time>
      </trkpt>
      <trkpt lat="48.8741" lon="2.0458">
        <ele>185</ele>
        <time>2022-10-03T15:47:55.275Z</time>
      </trkpt>
      <trkpt lat="48.87407" lon="2.04572">
        <ele>185</ele>
        <time>2022-10-03T15:48:00.254Z</time>
      </trkpt>
      <trkpt lat="48.87403" lon="2.04567">
        <ele>185</ele>
        <time>2022-10-03T15:48:04.255Z</time>
      </trkpt>
      <trkpt lat="48.874" lon="2.04562">
        <ele>186</ele>
        <time>2022-10-03T15:48:08.260Z</time>
      </trkpt>
      <trkpt lat="48.87395" lon="2.04556">
        <ele>186</ele>
        <time>2022-10-03T15:48:13.273Z</time>
      </trkpt>
      <trkpt lat="48.8739" lon="2.04548">
        <ele>186</ele>
        <time>2022-10-03T15:48:18.257Z</time>
      </trkpt>
      <trkpt lat="48.87384" lon="2.04543">
        <ele>186</ele>
        <time>2022-10-03T15:48:23.271Z</time>
      </trkpt>
      <trkpt lat="48.87379" lon="2.04536">
        <ele>185</ele>
        <time>2022-10-03T15:48:28.258Z</time>
      </trkpt>
      <trkpt lat="48.87375" lon="2.0453">
        <ele>189</ele>
        <time>2022-10-03T15:48:32.263Z</time>
      </trkpt>
      <trkpt lat="48.8737" lon="2.04523">
        <ele>189</ele>
        <time>2022-10-03T15:48:37.265Z</time>
      </trkpt>
      <trkpt lat="48.87368" lon="2.04517">
        <ele>189</ele>
        <time>2022-10-03T15:48:41.279Z</time>
      </trkpt>
      <trkpt lat="48.87365" lon="2.04511">
        <ele>187</ele>
        <time>2022-10-03T15:48:45.293Z</time>
      </trkpt>
      <trkpt lat="48.8736" lon="2.04504">
        <ele>187</ele>
        <time>2022-10-03T15:48:50.256Z</time>
      </trkpt>
      <trkpt lat="48.87358" lon="2.04501">
        <ele>187</ele>
        <time>2022-10-03T15:49:03.282Z</time>
      </trkpt>
      <trkpt lat="48.87355" lon="2.04503">
        <ele>187</ele>
        <time>2022-10-03T15:49:08.262Z</time>
      </trkpt>
      <trkpt lat="48.87351" lon="2.04508">
        <ele>187</ele>
        <time>2022-10-03T15:49:12.261Z</time>
      </trkpt>
      <trkpt lat="48.87346" lon="2.04513">
        <ele>189</ele>
        <time>2022-10-03T15:49:17.274Z</time>
      </trkpt>
      <trkpt lat="48.87345" lon="2.04514">
        <ele>191</ele>
        <time>2022-10-03T15:49:21.272Z</time>
      </trkpt>
      <trkpt lat="48.87344" lon="2.04516">
        <ele>191</ele>
        <time>2022-10-03T15:49:25.290Z</time>
      </trkpt>
      <trkpt lat="48.87341" lon="2.04522">
        <ele>191</ele>
        <time>2022-10-03T15:49:30.258Z</time>
      </trkpt>
      <trkpt lat="48.87334" lon="2.04522">
        <ele>191</ele>
        <time>2022-10-03T15:49:35.260Z</time>
      </trkpt>
      <trkpt lat="48.8733" lon="2.04518">
        <ele>191</ele>
        <time>2022-10-03T15:49:39.283Z</time>
      </trkpt>
      <trkpt lat="48.87324" lon="2.04516">
        <ele>191</ele>
        <time>2022-10-03T15:49:44.268Z</time>
      </trkpt>
      <trkpt lat="48.87318" lon="2.04515">
        <ele>190</ele>
        <time>2022-10-03T15:49:49.274Z</time>
      </trkpt>
      <trkpt lat="48.87312" lon="2.04516">
        <ele>190</ele>
        <time>2022-10-03T15:49:54.256Z</time>
      </trkpt>
      <trkpt lat="48.87309" lon="2.04514">
        <ele>190</ele>
        <time>2022-10-03T15:49:58.282Z</time>
      </trkpt>
      <trkpt lat="48.87304" lon="2.04513">
        <ele>187</ele>
        <time>2022-10-03T15:50:03.282Z</time>
      </trkpt>
      <trkpt lat="48.87299" lon="2.04515">
        <ele>190</ele>
        <time>2022-10-03T15:50:08.276Z</time>
      </trkpt>
      <trkpt lat="48.87292" lon="2.04519">
        <ele>190</ele>
        <time>2022-10-03T15:50:13.286Z</time>
      </trkpt>
      <trkpt lat="48.87284" lon="2.04523">
        <ele>187</ele>
        <time>2022-10-03T15:50:18.271Z</time>
      </trkpt>
      <trkpt lat="48.8728" lon="2.04528">
        <ele>187</ele>
        <time>2022-10-03T15:50:22.270Z</time>
      </trkpt>
      <trkpt lat="48.87276" lon="2.04533">
        <ele>187</ele>
        <time>2022-10-03T15:50:26.279Z</time>
      </trkpt>
      <trkpt lat="48.87272" lon="2.04539">
        <ele>187</ele>
        <time>2022-10-03T15:50:30.293Z</time>
      </trkpt>
      <trkpt lat="48.87268" lon="2.04546">
        <ele>189</ele>
        <time>2022-10-03T15:50:35.293Z</time>
      </trkpt>
      <trkpt lat="48.87268" lon="2.04553">
        <ele>189</ele>
        <time>2022-10-03T15:50:39.287Z</time>
      </trkpt>
      <trkpt lat="48.87268" lon="2.04562">
        <ele>189</ele>
        <time>2022-10-03T15:50:44.297Z</time>
      </trkpt>
      <trkpt lat="48.87266" lon="2.0457">
        <ele>191</ele>
        <time>2022-10-03T15:50:49.286Z</time>
      </trkpt>
      <trkpt lat="48.87266" lon="2.04576">
        <ele>191</ele>
        <time>2022-10-03T15:50:53.291Z</time>
      </trkpt>
      <trkpt lat="48.87266" lon="2.04583">
        <ele>191</ele>
        <time>2022-10-03T15:50:58.283Z</time>
      </trkpt>
      <trkpt lat="48.87266" lon="2.04591">
        <ele>191</ele>
        <time>2022-10-03T15:51:03.286Z</time>
      </trkpt>
      <trkpt lat="48.87267" lon="2.046">
        <ele>191</ele>
        <time>2022-10-03T15:51:08.280Z</time>
      </trkpt>
      <trkpt lat="48.87266" lon="2.04608">
        <ele>191</ele>
        <time>2022-10-03T15:51:12.299Z</time>
      </trkpt>
      <trkpt lat="48.87264" lon="2.04618">
        <ele>191</ele>
        <time>2022-10-03T15:51:17.291Z</time>
      </trkpt>
      <trkpt lat="48.87262" lon="2.04626">
        <ele>190</ele>
        <time>2022-10-03T15:51:22.278Z</time>
      </trkpt>
      <trkpt lat="48.87258" lon="2.04632">
        <ele>190</ele>
        <time>2022-10-03T15:51:27.262Z</time>
      </trkpt>
      <trkpt lat="48.87255" lon="2.04639">
        <ele>190</ele>
        <time>2022-10-03T15:51:31.301Z</time>
      </trkpt>
      <trkpt lat="48.87254" lon="2.04646">
        <ele>190</ele>
        <time>2022-10-03T15:51:36.294Z</time>
      </trkpt>
      <trkpt lat="48.87252" lon="2.04653">
        <ele>190</ele>
        <time>2022-10-03T15:51:40.299Z</time>
      </trkpt>
      <trkpt lat="48.8725" lon="2.04661">
        <ele>189</ele>
        <time>2022-10-03T15:51:45.289Z</time>
      </trkpt>
      <trkpt lat="48.87247" lon="2.04665">
        <ele>189</ele>
        <time>2022-10-03T15:51:49.292Z</time>
      </trkpt>
      <trkpt lat="48.8724" lon="2.0467">
        <ele>189</ele>
        <time>2022-10-03T15:51:54.253Z</time>
      </trkpt>
      <trkpt lat="48.87235" lon="2.04676">
        <ele>185</ele>
        <time>2022-10-03T15:51:58.273Z</time>
      </trkpt>
      <trkpt lat="48.87231" lon="2.04681">
        <ele>184</ele>
        <time>2022-10-03T15:52:03.268Z</time>
      </trkpt>
      <trkpt lat="48.87227" lon="2.04681">
        <ele>184</ele>
        <time>2022-10-03T15:52:07.273Z</time>
      </trkpt>
      <trkpt lat="48.87221" lon="2.04683">
        <ele>184</ele>
        <time>2022-10-03T15:52:11.284Z</time>
      </trkpt>
      <trkpt lat="48.87216" lon="2.04684">
        <ele>184</ele>
        <time>2022-10-03T15:52:16.273Z</time>
      </trkpt>
      <trkpt lat="48.87211" lon="2.04687">
        <ele>184</ele>
        <time>2022-10-03T15:52:20.287Z</time>
      </trkpt>
      <trkpt lat="48.87205" lon="2.0469">
        <ele>180</ele>
        <time>2022-10-03T15:52:25.299Z</time>
      </trkpt>
      <trkpt lat="48.87199" lon="2.04693">
        <ele>180</ele>
        <time>2022-10-03T15:52:30.279Z</time>
      </trkpt>
      <trkpt lat="48.87194" lon="2.04694">
        <ele>180</ele>
        <time>2022-10-03T15:52:35.270Z</time>
      </trkpt>
      <trkpt lat="48.87191" lon="2.04698">
        <ele>180</ele>
        <time>2022-10-03T15:52:39.290Z</time>
      </trkpt>
      <trkpt lat="48.87186" lon="2.04702">
        <ele>180</ele>
        <time>2022-10-03T15:52:43.300Z</time>
      </trkpt>
      <trkpt lat="48.87184" lon="2.04707">
        <ele>180</ele>
        <time>2022-10-03T15:52:47.298Z</time>
      </trkpt>
      <trkpt lat="48.8718" lon="2.04711">
        <ele>176</ele>
        <time>2022-10-03T15:52:52.293Z</time>
      </trkpt>
      <trkpt lat="48.87174" lon="2.04713">
        <ele>176</ele>
        <time>2022-10-03T15:52:57.298Z</time>
      </trkpt>
      <trkpt lat="48.87171" lon="2.04717">
        <ele>176</ele>
        <time>2022-10-03T15:53:02.274Z</time>
      </trkpt>
      <trkpt lat="48.87168" lon="2.04719">
        <ele>176</ele>
        <time>2022-10-03T15:53:06.302Z</time>
      </trkpt>
      <trkpt lat="48.87163" lon="2.04721">
        <ele>176</ele>
        <time>2022-10-03T15:53:11.314Z</time>
      </trkpt>
      <trkpt lat="48.8716" lon="2.04727">
        <ele>176</ele>
        <time>2022-10-03T15:53:15.302Z</time>
      </trkpt>
      <trkpt lat="48.87154" lon="2.04734">
        <ele>176</ele>
        <time>2022-10-03T15:53:20.280Z</time>
      </trkpt>
      <trkpt lat="48.87148" lon="2.04738">
        <ele>170</ele>
        <time>2022-10-03T15:53:24.286Z</time>
      </trkpt>
      <trkpt lat="48.87144" lon="2.04743">
        <ele>170</ele>
        <time>2022-10-03T15:53:28.289Z</time>
      </trkpt>
      <trkpt lat="48.87141" lon="2.04747">
        <ele>170</ele>
        <time>2022-10-03T15:53:32.302Z</time>
      </trkpt>
      <trkpt lat="48.87136" lon="2.04752">
        <ele>170</ele>
        <time>2022-10-03T15:53:37.274Z</time>
      </trkpt>
      <trkpt lat="48.8713" lon="2.04754">
        <ele>170</ele>
        <time>2022-10-03T15:53:41.293Z</time>
      </trkpt>
      <trkpt lat="48.87127" lon="2.04757">
        <ele>170</ele>
        <time>2022-10-03T15:53:45.310Z</time>
      </trkpt>
      <trkpt lat="48.87122" lon="2.04759">
        <ele>163</ele>
        <time>2022-10-03T15:53:50.276Z</time>
      </trkpt>
      <trkpt lat="48.87119" lon="2.04766">
        <ele>164</ele>
        <time>2022-10-03T15:53:55.292Z</time>
      </trkpt>
      <trkpt lat="48.87116" lon="2.04772">
        <ele>164</ele>
        <time>2022-10-03T15:53:59.291Z</time>
      </trkpt>
      <trkpt lat="48.87116" lon="2.04777">
        <ele>164</ele>
        <time>2022-10-03T15:54:03.304Z</time>
      </trkpt>
      <trkpt lat="48.87116" lon="2.04785">
        <ele>164</ele>
        <time>2022-10-03T15:54:08.288Z</time>
      </trkpt>
      <trkpt lat="48.87114" lon="2.04793">
        <ele>162</ele>
        <time>2022-10-03T15:54:13.293Z</time>
      </trkpt>
      <trkpt lat="48.87112" lon="2.04797">
        <ele>162</ele>
        <time>2022-10-03T15:54:17.299Z</time>
      </trkpt>
      <trkpt lat="48.87109" lon="2.04802">
        <ele>162</ele>
        <time>2022-10-03T15:54:22.285Z</time>
      </trkpt>
      <trkpt lat="48.87105" lon="2.04806">
        <ele>162</ele>
        <time>2022-10-03T15:54:27.290Z</time>
      </trkpt>
      <trkpt lat="48.871" lon="2.04813">
        <ele>162</ele>
        <time>2022-10-03T15:54:32.288Z</time>
      </trkpt>
      <trkpt lat="48.87097" lon="2.04816">
        <ele>158</ele>
        <time>2022-10-03T15:54:37.289Z</time>
      </trkpt>
      <trkpt lat="48.87094" lon="2.04822">
        <ele>157</ele>
        <time>2022-10-03T15:54:42.274Z</time>
      </trkpt>
      <trkpt lat="48.87091" lon="2.04823">
        <ele>157</ele>
        <time>2022-10-03T15:54:46.290Z</time>
      </trkpt>
      <trkpt lat="48.87087" lon="2.04825">
        <ele>157</ele>
        <time>2022-10-03T15:54:50.290Z</time>
      </trkpt>
      <trkpt lat="48.87085" lon="2.04823">
        <ele>157</ele>
        <time>2022-10-03T15:54:54.301Z</time>
      </trkpt>
      <trkpt lat="48.87076" lon="2.04828">
        <ele>157</ele>
        <time>2022-10-03T15:54:59.287Z</time>
      </trkpt>
      <trkpt lat="48.87071" lon="2.04828">
        <ele>157</ele>
        <time>2022-10-03T15:55:03.299Z</time>
      </trkpt>
      <trkpt lat="48.87063" lon="2.04835">
        <ele>151</ele>
        <time>2022-10-03T15:55:08.276Z</time>
      </trkpt>
      <trkpt lat="48.87057" lon="2.0484">
        <ele>151</ele>
        <time>2022-10-03T15:55:13.263Z</time>
      </trkpt>
      <trkpt lat="48.87052" lon="2.04843">
        <ele>151</ele>
        <time>2022-10-03T15:55:17.288Z</time>
      </trkpt>
      <trkpt lat="48.87047" lon="2.04846">
        <ele>151</ele>
        <time>2022-10-03T15:55:21.293Z</time>
      </trkpt>
      <trkpt lat="48.87041" lon="2.04846">
        <ele>146</ele>
        <time>2022-10-03T15:55:26.277Z</time>
      </trkpt>
      <trkpt lat="48.87036" lon="2.04847">
        <ele>144</ele>
        <time>2022-10-03T15:55:31.276Z</time>
      </trkpt>
      <trkpt lat="48.87032" lon="2.04849">
        <ele>144</ele>
        <time>2022-10-03T15:55:35.304Z</time>
      </trkpt>
      <trkpt lat="48.87025" lon="2.04853">
        <ele>144</ele>
        <time>2022-10-03T15:55:40.260Z</time>
      </trkpt>
      <trkpt lat="48.8702" lon="2.04857">
        <ele>144</ele>
        <time>2022-10-03T15:55:44.283Z</time>
      </trkpt>
      <trkpt lat="48.87017" lon="2.04858">
        <ele>144</ele>
        <time>2022-10-03T15:55:49.297Z</time>
      </trkpt>
      <trkpt lat="48.87017" lon="2.0486">
        <ele>144</ele>
        <time>2022-10-03T15:55:54.277Z</time>
      </trkpt>
      <trkpt lat="48.87018" lon="2.04867">
        <ele>144</ele>
        <time>2022-10-03T15:55:59.287Z</time>
      </trkpt>
      <trkpt lat="48.8702" lon="2.04869">
        <ele>144</ele>
        <time>2022-10-03T15:56:03.295Z</time>
      </trkpt>
      <trkpt lat="48.8702" lon="2.04876">
        <ele>144</ele>
        <time>2022-10-03T15:56:08.264Z</time>
      </trkpt>
      <trkpt lat="48.8702" lon="2.04882">
        <ele>144</ele>
        <time>2022-10-03T15:56:13.259Z</time>
      </trkpt>
      <trkpt lat="48.8702" lon="2.04888">
        <ele>144</ele>
        <time>2022-10-03T15:56:17.279Z</time>
      </trkpt>
      <trkpt lat="48.87021" lon="2.04893">
        <ele>144</ele>
        <time>2022-10-03T15:56:21.286Z</time>
      </trkpt>
      <trkpt lat="48.87023" lon="2.04899">
        <ele>144</ele>
        <time>2022-10-03T15:56:26.290Z</time>
      </trkpt>
      <trkpt lat="48.87022" lon="2.04911">
        <ele>144</ele>
        <time>2022-10-03T15:56:31.284Z</time>
      </trkpt>
      <trkpt lat="48.87023" lon="2.04922">
        <ele>144</ele>
        <time>2022-10-03T15:56:36.281Z</time>
      </trkpt>
      <trkpt lat="48.87023" lon="2.04931">
        <ele>143</ele>
        <time>2022-10-03T15:56:40.275Z</time>
      </trkpt>
      <trkpt lat="48.87024" lon="2.0494">
        <ele>143</ele>
        <time>2022-10-03T15:56:45.309Z</time>
      </trkpt>
      <trkpt lat="48.87024" lon="2.04946">
        <ele>143</ele>
        <time>2022-10-03T15:56:49.306Z</time>
      </trkpt>
      <trkpt lat="48.87023" lon="2.04956">
        <ele>143</ele>
        <time>2022-10-03T15:56:54.287Z</time>
      </trkpt>
      <trkpt lat="48.87021" lon="2.04965">
        <ele>142</ele>
        <time>2022-10-03T15:56:59.264Z</time>
      </trkpt>
      <trkpt lat="48.87021" lon="2.04973">
        <ele>142</ele>
        <time>2022-10-03T15:57:04.263Z</time>
      </trkpt>
      <trkpt lat="48.87021" lon="2.04979">
        <ele>142</ele>
        <time>2022-10-03T15:57:08.277Z</time>
      </trkpt>
      <trkpt lat="48.87018" lon="2.04986">
        <ele>142</ele>
        <time>2022-10-03T15:57:12.274Z</time>
      </trkpt>
      <trkpt lat="48.87016" lon="2.04992">
        <ele>139</ele>
        <time>2022-10-03T15:57:17.296Z</time>
      </trkpt>
      <trkpt lat="48.87013" lon="2.04996">
        <ele>136</ele>
        <time>2022-10-03T15:57:21.284Z</time>
      </trkpt>
      <trkpt lat="48.87008" lon="2.04997">
        <ele>136</ele>
        <time>2022-10-03T15:57:26.276Z</time>
      </trkpt>
      <trkpt lat="48.87004" lon="2.04995">
        <ele>136</ele>
        <time>2022-10-03T15:57:30.273Z</time>
      </trkpt>
      <trkpt lat="48.87001" lon="2.04996">
        <ele>136</ele>
        <time>2022-10-03T15:57:34.283Z</time>
      </trkpt>
      <trkpt lat="48.86997" lon="2.05">
        <ele>136</ele>
        <time>2022-10-03T15:57:39.281Z</time>
      </trkpt>
      <trkpt lat="48.86994" lon="2.05002">
        <ele>136</ele>
        <time>2022-10-03T15:57:43.303Z</time>
      </trkpt>
      <trkpt lat="48.86988" lon="2.05005">
        <ele>136</ele>
        <time>2022-10-03T15:57:48.258Z</time>
      </trkpt>
      <trkpt lat="48.86984" lon="2.05006">
        <ele>135</ele>
        <time>2022-10-03T15:57:52.280Z</time>
      </trkpt>
      <trkpt lat="48.86978" lon="2.05004">
        <ele>135</ele>
        <time>2022-10-03T15:57:57.292Z</time>
      </trkpt>
      <trkpt lat="48.86972" lon="2.05004">
        <ele>135</ele>
        <time>2022-10-03T15:58:02.284Z</time>
      </trkpt>
      <trkpt lat="48.86968" lon="2.05003">
        <ele>135</ele>
        <time>2022-10-03T15:58:07.309Z</time>
      </trkpt>
      <trkpt lat="48.86964" lon="2.05">
        <ele>135</ele>
        <time>2022-10-03T15:58:12.293Z</time>
      </trkpt>
      <trkpt lat="48.86959" lon="2.05">
        <ele>135</ele>
        <time>2022-10-03T15:58:17.292Z</time>
      </trkpt>
      <trkpt lat="48.86952" lon="2.04998">
        <ele>131</ele>
        <time>2022-10-03T15:58:22.283Z</time>
      </trkpt>
      <trkpt lat="48.86945" lon="2.04997">
        <ele>131</ele>
        <time>2022-10-03T15:58:27.288Z</time>
      </trkpt>
      <trkpt lat="48.8694" lon="2.04994">
        <ele>131</ele>
        <time>2022-10-03T15:58:31.293Z</time>
      </trkpt>
      <trkpt lat="48.86935" lon="2.04991">
        <ele>131</ele>
        <time>2022-10-03T15:58:36.292Z</time>
      </trkpt>
      <trkpt lat="48.8693" lon="2.04984">
        <ele>134</ele>
        <time>2022-10-03T15:58:41.268Z</time>
      </trkpt>
      <trkpt lat="48.86926" lon="2.04978">
        <ele>134</ele>
        <time>2022-10-03T15:58:45.295Z</time>
      </trkpt>
      <trkpt lat="48.86922" lon="2.04975">
        <ele>134</ele>
        <time>2022-10-03T15:58:49.281Z</time>
      </trkpt>
      <trkpt lat="48.86915" lon="2.04972">
        <ele>134</ele>
        <time>2022-10-03T15:58:54.260Z</time>
      </trkpt>
      <trkpt lat="48.8691" lon="2.04966">
        <ele>134</ele>
        <time>2022-10-03T15:58:58.281Z</time>
      </trkpt>
      <trkpt lat="48.86904" lon="2.04961">
        <ele>134</ele>
        <time>2022-10-03T15:59:03.307Z</time>
      </trkpt>
      <trkpt lat="48.86897" lon="2.04957">
        <ele>139</ele>
        <time>2022-10-03T15:59:08.278Z</time>
      </trkpt>
      <trkpt lat="48.86889" lon="2.04954">
        <ele>139</ele>
        <time>2022-10-03T15:59:13.262Z</time>
      </trkpt>
      <trkpt lat="48.86884" lon="2.04953">
        <ele>139</ele>
        <time>2022-10-03T15:59:17.265Z</time>
      </trkpt>
      <trkpt lat="48.86879" lon="2.04951">
        <ele>139</ele>
        <time>2022-10-03T15:59:22.274Z</time>
      </trkpt>
      <trkpt lat="48.86877" lon="2.04953">
        <ele>139</ele>
        <time>2022-10-03T15:59:27.287Z</time>
      </trkpt>
      <trkpt lat="48.86871" lon="2.04954">
        <ele>141</ele>
        <time>2022-10-03T15:59:31.287Z</time>
      </trkpt>
      <trkpt lat="48.86866" lon="2.04955">
        <ele>141</ele>
        <time>2022-10-03T15:59:35.300Z</time>
      </trkpt>
      <trkpt lat="48.86861" lon="2.04958">
        <ele>141</ele>
        <time>2022-10-03T15:59:39.299Z</time>
      </trkpt>
      <trkpt lat="48.86855" lon="2.04961">
        <ele>140</ele>
        <time>2022-10-03T15:59:44.292Z</time>
      </trkpt>
      <trkpt lat="48.86849" lon="2.04963">
        <ele>140</ele>
        <time>2022-10-03T15:59:49.298Z</time>
      </trkpt>
      <trkpt lat="48.86844" lon="2.04966">
        <ele>141</ele>
        <time>2022-10-03T15:59:54.285Z</time>
      </trkpt>
      <trkpt lat="48.86841" lon="2.0497">
        <ele>141</ele>
        <time>2022-10-03T15:59:58.283Z</time>
      </trkpt>
      <trkpt lat="48.86835" lon="2.04977">
        <ele>141</ele>
        <time>2022-10-03T16:00:03.271Z</time>
      </trkpt>
      <trkpt lat="48.8683" lon="2.04982">
        <ele>141</ele>
        <time>2022-10-03T16:00:07.306Z</time>
      </trkpt>
      <trkpt lat="48.86823" lon="2.04989">
        <ele>139</ele>
        <time>2022-10-03T16:00:12.294Z</time>
      </trkpt>
      <trkpt lat="48.86815" lon="2.04995">
        <ele>139</ele>
        <time>2022-10-03T16:00:17.313Z</time>
      </trkpt>
      <trkpt lat="48.86811" lon="2.05">
        <ele>139</ele>
        <time>2022-10-03T16:00:22.288Z</time>
      </trkpt>
      <trkpt lat="48.86807" lon="2.05003">
        <ele>139</ele>
        <time>2022-10-03T16:00:26.288Z</time>
      </trkpt>
      <trkpt lat="48.86801" lon="2.05008">
        <ele>139</ele>
        <time>2022-10-03T16:00:31.277Z</time>
      </trkpt>
      <trkpt lat="48.86797" lon="2.05011">
        <ele>139</ele>
        <time>2022-10-03T16:00:35.305Z</time>
      </trkpt>
      <trkpt lat="48.86792" lon="2.05016">
        <ele>137</ele>
        <time>2022-10-03T16:00:40.283Z</time>
      </trkpt>
      <trkpt lat="48.86787" lon="2.05019">
        <ele>139</ele>
        <time>2022-10-03T16:00:44.290Z</time>
      </trkpt>
      <trkpt lat="48.86783" lon="2.05021">
        <ele>139</ele>
        <time>2022-10-03T16:00:48.294Z</time>
      </trkpt>
      <trkpt lat="48.86779" lon="2.05025">
        <ele>139</ele>
        <time>2022-10-03T16:00:52.311Z</time>
      </trkpt>
      <trkpt lat="48.86775" lon="2.05029">
        <ele>139</ele>
        <time>2022-10-03T16:00:57.296Z</time>
      </trkpt>
      <trkpt lat="48.86769" lon="2.05033">
        <ele>139</ele>
        <time>2022-10-03T16:01:02.280Z</time>
      </trkpt>
      <trkpt lat="48.86765" lon="2.05038">
        <ele>139</ele>
        <time>2022-10-03T16:01:06.280Z</time>
      </trkpt>
      <trkpt lat="48.86758" lon="2.05038">
        <ele>141</ele>
        <time>2022-10-03T16:01:11.291Z</time>
      </trkpt>
      <trkpt lat="48.86753" lon="2.05038">
        <ele>141</ele>
        <time>2022-10-03T16:01:15.285Z</time>
      </trkpt>
      <trkpt lat="48.86748" lon="2.05037">
        <ele>141</ele>
        <time>2022-10-03T16:01:19.272Z</time>
      </trkpt>
      <trkpt lat="48.86743" lon="2.05037">
        <ele>141</ele>
        <time>2022-10-03T16:01:24.270Z</time>
      </trkpt>
      <trkpt lat="48.86739" lon="2.0504">
        <ele>141</ele>
        <time>2022-10-03T16:01:29.281Z</time>
      </trkpt>
      <trkpt lat="48.86739" lon="2.05041">
        <ele>141</ele>
        <time>2022-10-03T16:01:34.276Z</time>
      </trkpt>
      <trkpt lat="48.86732" lon="2.05043">
        <ele>138</ele>
        <time>2022-10-03T16:01:38.282Z</time>
      </trkpt>
      <trkpt lat="48.86725" lon="2.05043">
        <ele>138</ele>
        <time>2022-10-03T16:01:43.267Z</time>
      </trkpt>
      <trkpt lat="48.86718" lon="2.05043">
        <ele>138</ele>
        <time>2022-10-03T16:01:47.281Z</time>
      </trkpt>
      <trkpt lat="48.86711" lon="2.05041">
        <ele>141</ele>
        <time>2022-10-03T16:01:52.281Z</time>
      </trkpt>
      <trkpt lat="48.86704" lon="2.05037">
        <ele>143</ele>
        <time>2022-10-03T16:01:57.282Z</time>
      </trkpt>
      <trkpt lat="48.86698" lon="2.05032">
        <ele>143</ele>
        <time>2022-10-03T16:02:02.266Z</time>
      </trkpt>
      <trkpt lat="48.86692" lon="2.05031">
        <ele>143</ele>
        <time>2022-10-03T16:02:07.259Z</time>
      </trkpt>
      <trkpt lat="48.86687" lon="2.05031">
        <ele>143</ele>
        <time>2022-10-03T16:02:11.268Z</time>
      </trkpt>
      <trkpt lat="48.86682" lon="2.05031">
        <ele>143</ele>
        <time>2022-10-03T16:02:15.276Z</time>
      </trkpt>
      <trkpt lat="48.86677" lon="2.05037">
        <ele>147</ele>
        <time>2022-10-03T16:02:20.255Z</time>
      </trkpt>
      <trkpt lat="48.86677" lon="2.05046">
        <ele>146</ele>
        <time>2022-10-03T16:02:24.263Z</time>
      </trkpt>
      <trkpt lat="48.86676" lon="2.05058">
        <ele>146</ele>
        <time>2022-10-03T16:02:29.258Z</time>
      </trkpt>
      <trkpt lat="48.86676" lon="2.05066">
        <ele>146</ele>
        <time>2022-10-03T16:02:33.267Z</time>
      </trkpt>
      <trkpt lat="48.86677" lon="2.05074">
        <ele>144</ele>
        <time>2022-10-03T16:02:37.278Z</time>
      </trkpt>
      <trkpt lat="48.86677" lon="2.05083">
        <ele>144</ele>
        <time>2022-10-03T16:02:42.254Z</time>
      </trkpt>
      <trkpt lat="48.86678" lon="2.05092">
        <ele>144</ele>
        <time>2022-10-03T16:02:47.277Z</time>
      </trkpt>
      <trkpt lat="48.86681" lon="2.05095">
        <ele>139</ele>
        <time>2022-10-03T16:02:52.273Z</time>
      </trkpt>
      <trkpt lat="48.86685" lon="2.05095">
        <ele>139</ele>
        <time>2022-10-03T16:02:56.270Z</time>
      </trkpt>
      <trkpt lat="48.8669" lon="2.05094">
        <ele>139</ele>
        <time>2022-10-03T16:03:00.290Z</time>
      </trkpt>
      <trkpt lat="48.86696" lon="2.05091">
        <ele>139</ele>
        <time>2022-10-03T16:03:05.263Z</time>
      </trkpt>
      <trkpt lat="48.86701" lon="2.0509">
        <ele>139</ele>
        <time>2022-10-03T16:03:09.282Z</time>
      </trkpt>
      <trkpt lat="48.86704" lon="2.05091">
        <ele>139</ele>
        <time>2022-10-03T16:03:13.273Z</time>
      </trkpt>
      <trkpt lat="48.86709" lon="2.05091">
        <ele>136</ele>
        <time>2022-10-03T16:03:18.257Z</time>
      </trkpt>
      <trkpt lat="48.86715" lon="2.0509">
        <ele>136</ele>
        <time>2022-10-03T16:03:22.268Z</time>
      </trkpt>
      <trkpt lat="48.8672" lon="2.05091">
        <ele>136</ele>
        <time>2022-10-03T16:03:26.265Z</time>
      </trkpt>
      <trkpt lat="48.86728" lon="2.0509">
        <ele>136</ele>
        <time>2022-10-03T16:03:31.280Z</time>
      </trkpt>
      <trkpt lat="48.86731" lon="2.05085">
        <ele>136</ele>
        <time>2022-10-03T16:03:35.302Z</time>
      </trkpt>
      <trkpt lat="48.86734" lon="2.05081">
        <ele>136</ele>
        <time>2022-10-03T16:03:39.307Z</time>
      </trkpt>
      <trkpt lat="48.86734" lon="2.05077">
        <ele>136</ele>
        <time>2022-10-03T16:03:44.282Z</time>
      </trkpt>
      <trkpt lat="48.86735" lon="2.05065">
        <ele>138</ele>
        <time>2022-10-03T16:04:08.305Z</time>
      </trkpt>
      <trkpt lat="48.86734" lon="2.05076">
        <ele>136</ele>
        <time>2022-10-03T16:04:13.279Z</time>
      </trkpt>
      <trkpt lat="48.86735" lon="2.05078">
        <ele>136</ele>
        <time>2022-10-03T16:04:17.289Z</time>
      </trkpt>
      <trkpt lat="48.86734" lon="2.0508">
        <ele>136</ele>
        <time>2022-10-03T16:04:21.300Z</time>
      </trkpt>
      <trkpt lat="48.86737" lon="2.05085">
        <ele>134</ele>
        <time>2022-10-03T16:04:26.284Z</time>
      </trkpt>
      <trkpt lat="48.86743" lon="2.05086">
        <ele>134</ele>
        <time>2022-10-03T16:04:31.275Z</time>
      </trkpt>
      <trkpt lat="48.86749" lon="2.05086">
        <ele>134</ele>
        <time>2022-10-03T16:04:35.282Z</time>
      </trkpt>
      <trkpt lat="48.86756" lon="2.05087">
        <ele>134</ele>
        <time>2022-10-03T16:04:40.276Z</time>
      </trkpt>
      <trkpt lat="48.86758" lon="2.05093">
        <ele>134</ele>
        <time>2022-10-03T16:04:44.288Z</time>
      </trkpt>
      <trkpt lat="48.86762" lon="2.05097">
        <ele>134</ele>
        <time>2022-10-03T16:04:49.283Z</time>
      </trkpt>
      <trkpt lat="48.86767" lon="2.05097">
        <ele>129</ele>
        <time>2022-10-03T16:04:53.299Z</time>
      </trkpt>
      <trkpt lat="48.86774" lon="2.05106">
        <ele>129</ele>
        <time>2022-10-03T16:04:58.298Z</time>
      </trkpt>
      <trkpt lat="48.86775" lon="2.05116">
        <ele>129</ele>
        <time>2022-10-03T16:05:03.282Z</time>
      </trkpt>
      <trkpt lat="48.86771" lon="2.0512">
        <ele>129</ele>
        <time>2022-10-03T16:05:07.304Z</time>
      </trkpt>
      <trkpt lat="48.86767" lon="2.0512">
        <ele>129</ele>
        <time>2022-10-03T16:05:12.291Z</time>
      </trkpt>
      <trkpt lat="48.86762" lon="2.05122">
        <ele>131</ele>
        <time>2022-10-03T16:05:17.290Z</time>
      </trkpt>
      <trkpt lat="48.86758" lon="2.05123">
        <ele>131</ele>
        <time>2022-10-03T16:05:22.277Z</time>
      </trkpt>
    </trkseg>
  </trk>
</gpx>